<?xml version='1.0' encoding='UTF-8'?><gpx version="1.1" creator="JPX - https://github.com/jenetics/jpx" xmlns="http://www.topografix.com/GPX/1/1"><trk><trkseg><trkpt lat="45.0664551" lon="10.8441899"><ele>19.0</ele><time>2026-04-06T07:46:47.034Z</time></trkpt><trkpt lat="45.0665537" lon="10.8442462"><ele>19.0</ele><time>2026-04-06T07:46:48.005Z</time></trkpt><trkpt lat="45.0666381" lon="10.8442822"><ele>19.0</ele><time>2026-04-06T07:46:49.006Z</time></trkpt><trkpt lat="45.0667455" lon="10.8443277"><ele>19.0</ele><time>2026-04-06T07:46:51.006Z</time></trkpt><trkpt lat="45.0668602" lon="10.8443767"><ele>19.0</ele><time>2026-04-06T07:46:53.007Z</time></trkpt><trkpt lat="45.066926" lon="10.8443851"><ele>19.0</ele><time>2026-04-06T07:46:54.006Z</time></trkpt><trkpt lat="45.0670002" lon="10.8443921"><ele>19.0</ele><time>2026-04-06T07:46:55.007Z</time></trkpt><trkpt lat="45.0670801" lon="10.8443974"><ele>19.0</ele><time>2026-04-06T07:46:56.007Z</time></trkpt><trkpt lat="45.0671532" lon="10.8444"><ele>19.0</ele><time>2026-04-06T07:46:57.006Z</time></trkpt><trkpt lat="45.0672362" lon="10.8444"><ele>19.0</ele><time>2026-04-06T07:46:58.006Z</time></trkpt><trkpt lat="45.0673338" lon="10.8444"><ele>19.0</ele><time>2026-04-06T07:46:59.005Z</time></trkpt><trkpt lat="45.0674352" lon="10.8443937"><ele>18.8</ele><time>2026-04-06T07:47:00.007Z</time></trkpt><trkpt lat="45.067539" lon="10.8443768"><ele>18.599999999999998</ele><time>2026-04-06T07:47:01.006Z</time></trkpt><trkpt lat="45.067645" lon="10.8443507"><ele>18.4</ele><time>2026-04-06T07:47:02.005Z</time></trkpt><trkpt lat="45.0677542" lon="10.8443209"><ele>18.2</ele><time>2026-04-06T07:47:03.006Z</time></trkpt><trkpt lat="45.0678622" lon="10.8443023"><ele>18.0</ele><time>2026-04-06T07:47:04.005Z</time></trkpt><trkpt lat="45.0679727" lon="10.8443027"><ele>18.0</ele><time>2026-04-06T07:47:05.005Z</time></trkpt><trkpt lat="45.0680915" lon="10.8443256"><ele>18.0</ele><time>2026-04-06T07:47:06.006Z</time></trkpt><trkpt lat="45.0682136" lon="10.8443698"><ele>18.0</ele><time>2026-04-06T07:47:07.006Z</time></trkpt><trkpt lat="45.0683408" lon="10.8444226"><ele>18.0</ele><time>2026-04-06T07:47:08.003Z</time></trkpt><trkpt lat="45.0684811" lon="10.8444841"><ele>17.333333333333332</ele><time>2026-04-06T07:47:09.005Z</time></trkpt><trkpt lat="45.0686421" lon="10.844553"><ele>16.666666666666664</ele><time>2026-04-06T07:47:10.005Z</time></trkpt><trkpt lat="45.0688123" lon="10.8446253"><ele>16.0</ele><time>2026-04-06T07:47:11.005Z</time></trkpt><trkpt lat="45.0689946" lon="10.8447032"><ele>16.0</ele><time>2026-04-06T07:47:12.007Z</time></trkpt><trkpt lat="45.0691943" lon="10.8447871"><ele>16.0</ele><time>2026-04-06T07:47:13.005Z</time></trkpt><trkpt lat="45.0694002" lon="10.8448745"><ele>16.0</ele><time>2026-04-06T07:47:14.007Z</time></trkpt><trkpt lat="45.0696086" lon="10.8449654"><ele>16.0</ele><time>2026-04-06T07:47:15.006Z</time></trkpt><trkpt lat="45.0698268" lon="10.845064"><ele>16.0</ele><time>2026-04-06T07:47:16.007Z</time></trkpt><trkpt lat="45.0700522" lon="10.845167"><ele>16.0</ele><time>2026-04-06T07:47:17.005Z</time></trkpt><trkpt lat="45.0702814" lon="10.8452709"><ele>16.0</ele><time>2026-04-06T07:47:18.005Z</time></trkpt><trkpt lat="45.0705048" lon="10.845372"><ele>16.0</ele><time>2026-04-06T07:47:19.006Z</time></trkpt><trkpt lat="45.0707329" lon="10.8454747"><ele>16.0</ele><time>2026-04-06T07:47:20.005Z</time></trkpt><trkpt lat="45.0709632" lon="10.8455775"><ele>16.5</ele><time>2026-04-06T07:47:21.006Z</time></trkpt><trkpt lat="45.0711952" lon="10.8456846"><ele>17.0</ele><time>2026-04-06T07:47:22.005Z</time></trkpt><trkpt lat="45.071429" lon="10.8457977"><ele>17.5</ele><time>2026-04-06T07:47:23.005Z</time></trkpt><trkpt lat="45.0716673" lon="10.845914"><ele>18.0</ele><time>2026-04-06T07:47:24.006Z</time></trkpt><trkpt lat="45.0719086" lon="10.846032"><ele>17.0</ele><time>2026-04-06T07:47:25.005Z</time></trkpt><trkpt lat="45.0721493" lon="10.8461506"><ele>16.0</ele><time>2026-04-06T07:47:26.005Z</time></trkpt><trkpt lat="45.0723892" lon="10.8462699"><ele>17.0</ele><time>2026-04-06T07:47:27.006Z</time></trkpt><trkpt lat="45.0726283" lon="10.846388"><ele>18.0</ele><time>2026-04-06T07:47:28.006Z</time></trkpt><trkpt lat="45.0728657" lon="10.8465079"><ele>18.0</ele><time>2026-04-06T07:47:29.005Z</time></trkpt><trkpt lat="45.073102" lon="10.8466313"><ele>18.0</ele><time>2026-04-06T07:47:30.006Z</time></trkpt><trkpt lat="45.0733407" lon="10.8467569"><ele>17.5</ele><time>2026-04-06T07:47:31.006Z</time></trkpt><trkpt lat="45.0735817" lon="10.8468822"><ele>17.0</ele><time>2026-04-06T07:47:32.005Z</time></trkpt><trkpt lat="45.073823" lon="10.8470087"><ele>17.0</ele><time>2026-04-06T07:47:33.005Z</time></trkpt><trkpt lat="45.0740652" lon="10.8471373"><ele>17.0</ele><time>2026-04-06T07:47:34.007Z</time></trkpt><trkpt lat="45.0743071" lon="10.8472645"><ele>16.5</ele><time>2026-04-06T07:47:35.005Z</time></trkpt><trkpt lat="45.0745488" lon="10.8473896"><ele>16.0</ele><time>2026-04-06T07:47:36.005Z</time></trkpt><trkpt lat="45.0747903" lon="10.8475147"><ele>16.0</ele><time>2026-04-06T07:47:37.006Z</time></trkpt><trkpt lat="45.0750321" lon="10.8476384"><ele>16.0</ele><time>2026-04-06T07:47:38.007Z</time></trkpt><trkpt lat="45.075275" lon="10.8477633"><ele>16.0</ele><time>2026-04-06T07:47:39.007Z</time></trkpt><trkpt lat="45.0755191" lon="10.8478894"><ele>16.0</ele><time>2026-04-06T07:47:40.006Z</time></trkpt><trkpt lat="45.0757664" lon="10.8480162"><ele>16.5</ele><time>2026-04-06T07:47:41.006Z</time></trkpt><trkpt lat="45.0760157" lon="10.8481413"><ele>17.0</ele><time>2026-04-06T07:47:42.005Z</time></trkpt><trkpt lat="45.0762663" lon="10.8482694"><ele>17.0</ele><time>2026-04-06T07:47:43.005Z</time></trkpt><trkpt lat="45.0765161" lon="10.8483996"><ele>17.0</ele><time>2026-04-06T07:47:44.006Z</time></trkpt><trkpt lat="45.0767674" lon="10.8485293"><ele>17.0</ele><time>2026-04-06T07:47:45.005Z</time></trkpt><trkpt lat="45.0770196" lon="10.848658"><ele>17.0</ele><time>2026-04-06T07:47:46.006Z</time></trkpt><trkpt lat="45.077272" lon="10.8487872"><ele>16.5</ele><time>2026-04-06T07:47:47.007Z</time></trkpt><trkpt lat="45.0775238" lon="10.8489161"><ele>16.0</ele><time>2026-04-06T07:47:48.007Z</time></trkpt><trkpt lat="45.077775" lon="10.8490449"><ele>16.0</ele><time>2026-04-06T07:47:49.005Z</time></trkpt><trkpt lat="45.0780234" lon="10.8491714"><ele>16.0</ele><time>2026-04-06T07:47:50.005Z</time></trkpt><trkpt lat="45.0782721" lon="10.8492986"><ele>16.0</ele><time>2026-04-06T07:47:51.007Z</time></trkpt><trkpt lat="45.0785211" lon="10.8494258"><ele>16.0</ele><time>2026-04-06T07:47:52.006Z</time></trkpt><trkpt lat="45.0787704" lon="10.8495563"><ele>16.0</ele><time>2026-04-06T07:47:53.005Z</time></trkpt><trkpt lat="45.079021" lon="10.8496883"><ele>16.0</ele><time>2026-04-06T07:47:54.005Z</time></trkpt><trkpt lat="45.0792736" lon="10.8498192"><ele>16.0</ele><time>2026-04-06T07:47:55.006Z</time></trkpt><trkpt lat="45.0795282" lon="10.8499499"><ele>16.0</ele><time>2026-04-06T07:47:56.006Z</time></trkpt><trkpt lat="45.0797833" lon="10.8500822"><ele>17.0</ele><time>2026-04-06T07:47:57.005Z</time></trkpt><trkpt lat="45.080039" lon="10.8502136"><ele>18.0</ele><time>2026-04-06T07:47:58.005Z</time></trkpt><trkpt lat="45.0802954" lon="10.8503473"><ele>18.0</ele><time>2026-04-06T07:47:59.006Z</time></trkpt><trkpt lat="45.0805513" lon="10.8504816"><ele>18.0</ele><time>2026-04-06T07:48:00.005Z</time></trkpt><trkpt lat="45.080803" lon="10.8506131"><ele>18.0</ele><time>2026-04-06T07:48:01.005Z</time></trkpt><trkpt lat="45.081048" lon="10.8507419"><ele>18.0</ele><time>2026-04-06T07:48:02.006Z</time></trkpt><trkpt lat="45.0812895" lon="10.8508664"><ele>17.5</ele><time>2026-04-06T07:48:03.006Z</time></trkpt><trkpt lat="45.0815295" lon="10.8509886"><ele>17.0</ele><time>2026-04-06T07:48:04.006Z</time></trkpt><trkpt lat="45.081769" lon="10.8511125"><ele>16.5</ele><time>2026-04-06T07:48:05.005Z</time></trkpt><trkpt lat="45.0820095" lon="10.8512375"><ele>16.0</ele><time>2026-04-06T07:48:06.006Z</time></trkpt><trkpt lat="45.0822515" lon="10.8513617"><ele>17.5</ele><time>2026-04-06T07:48:07.005Z</time></trkpt><trkpt lat="45.0824954" lon="10.8514864"><ele>19.0</ele><time>2026-04-06T07:48:08.005Z</time></trkpt><trkpt lat="45.082741" lon="10.8516129"><ele>19.0</ele><time>2026-04-06T07:48:09.006Z</time></trkpt><trkpt lat="45.0829852" lon="10.8517402"><ele>19.0</ele><time>2026-04-06T07:48:10.005Z</time></trkpt><trkpt lat="45.0832256" lon="10.8518643"><ele>17.5</ele><time>2026-04-06T07:48:11.006Z</time></trkpt><trkpt lat="45.0834594" lon="10.8519856"><ele>16.0</ele><time>2026-04-06T07:48:12.005Z</time></trkpt><trkpt lat="45.0836925" lon="10.8521077"><ele>16.0</ele><time>2026-04-06T07:48:13.005Z</time></trkpt><trkpt lat="45.0839254" lon="10.8522302"><ele>16.0</ele><time>2026-04-06T07:48:14.006Z</time></trkpt><trkpt lat="45.0841619" lon="10.8523525"><ele>16.0</ele><time>2026-04-06T07:48:15.006Z</time></trkpt><trkpt lat="45.084402" lon="10.8524762"><ele>16.0</ele><time>2026-04-06T07:48:16.006Z</time></trkpt><trkpt lat="45.0846439" lon="10.8526001"><ele>16.5</ele><time>2026-04-06T07:48:17.005Z</time></trkpt><trkpt lat="45.0848896" lon="10.8527243"><ele>17.0</ele><time>2026-04-06T07:48:18.006Z</time></trkpt><trkpt lat="45.0851368" lon="10.8528506"><ele>17.5</ele><time>2026-04-06T07:48:19.005Z</time></trkpt><trkpt lat="45.0853851" lon="10.8529786"><ele>18.0</ele><time>2026-04-06T07:48:20.005Z</time></trkpt><trkpt lat="45.0856367" lon="10.8531086"><ele>18.5</ele><time>2026-04-06T07:48:21.004Z</time></trkpt><trkpt lat="45.0858953" lon="10.8532412"><ele>19.0</ele><time>2026-04-06T07:48:22.004Z</time></trkpt><trkpt lat="45.0861577" lon="10.8533772"><ele>19.0</ele><time>2026-04-06T07:48:23.005Z</time></trkpt><trkpt lat="45.0864238" lon="10.8535157"><ele>19.0</ele><time>2026-04-06T07:48:24.004Z</time></trkpt><trkpt lat="45.0866941" lon="10.8536569"><ele>19.0</ele><time>2026-04-06T07:48:25.005Z</time></trkpt><trkpt lat="45.0869671" lon="10.8537977"><ele>19.0</ele><time>2026-04-06T07:48:26.004Z</time></trkpt><trkpt lat="45.0872413" lon="10.8539368"><ele>17.0</ele><time>2026-04-06T07:48:27.004Z</time></trkpt><trkpt lat="45.087515" lon="10.8540756"><ele>15.0</ele><time>2026-04-06T07:48:28.005Z</time></trkpt><trkpt lat="45.0877871" lon="10.8542123"><ele>15.5</ele><time>2026-04-06T07:48:29.005Z</time></trkpt><trkpt lat="45.0880602" lon="10.8543487"><ele>16.0</ele><time>2026-04-06T07:48:30.005Z</time></trkpt><trkpt lat="45.0883347" lon="10.8544832"><ele>16.0</ele><time>2026-04-06T07:48:31.005Z</time></trkpt><trkpt lat="45.0886117" lon="10.8546144"><ele>16.0</ele><time>2026-04-06T07:48:32.005Z</time></trkpt><trkpt lat="45.0888904" lon="10.8547419"><ele>17.0</ele><time>2026-04-06T07:48:33.004Z</time></trkpt><trkpt lat="45.0891716" lon="10.8548646"><ele>18.0</ele><time>2026-04-06T07:48:34.004Z</time></trkpt><trkpt lat="45.0894542" lon="10.8549835"><ele>18.0</ele><time>2026-04-06T07:48:35.005Z</time></trkpt><trkpt lat="45.0897383" lon="10.8550985"><ele>18.0</ele><time>2026-04-06T07:48:36.004Z</time></trkpt><trkpt lat="45.0900231" lon="10.8552102"><ele>18.5</ele><time>2026-04-06T07:48:37.005Z</time></trkpt><trkpt lat="45.0903084" lon="10.8553187"><ele>19.0</ele><time>2026-04-06T07:48:38.004Z</time></trkpt><trkpt lat="45.0905943" lon="10.8554236"><ele>19.5</ele><time>2026-04-06T07:48:39.005Z</time></trkpt><trkpt lat="45.0908808" lon="10.8555263"><ele>20.0</ele><time>2026-04-06T07:48:40.004Z</time></trkpt><trkpt lat="45.0911663" lon="10.8556268"><ele>20.0</ele><time>2026-04-06T07:48:41.004Z</time></trkpt><trkpt lat="45.0914547" lon="10.8557317"><ele>20.0</ele><time>2026-04-06T07:48:42.006Z</time></trkpt><trkpt lat="45.0917381" lon="10.8558288"><ele>19.5</ele><time>2026-04-06T07:48:43.005Z</time></trkpt><trkpt lat="45.0920203" lon="10.8559242"><ele>19.0</ele><time>2026-04-06T07:48:44.004Z</time></trkpt><trkpt lat="45.0923045" lon="10.8560188"><ele>19.0</ele><time>2026-04-06T07:48:45.004Z</time></trkpt><trkpt lat="45.0925918" lon="10.8561138"><ele>19.0</ele><time>2026-04-06T07:48:46.005Z</time></trkpt><trkpt lat="45.0928813" lon="10.8562117"><ele>19.0</ele><time>2026-04-06T07:48:47.004Z</time></trkpt><trkpt lat="45.0931712" lon="10.8563175"><ele>19.0</ele><time>2026-04-06T07:48:48.005Z</time></trkpt><trkpt lat="45.0934629" lon="10.8564274"><ele>20.5</ele><time>2026-04-06T07:48:49.006Z</time></trkpt><trkpt lat="45.0937566" lon="10.8565351"><ele>22.0</ele><time>2026-04-06T07:48:50.005Z</time></trkpt><trkpt lat="45.0940548" lon="10.8566421"><ele>21.5</ele><time>2026-04-06T07:48:51.004Z</time></trkpt><trkpt lat="45.0943488" lon="10.8567493"><ele>21.0</ele><time>2026-04-06T07:48:52.004Z</time></trkpt><trkpt lat="45.094644" lon="10.8568574"><ele>20.0</ele><time>2026-04-06T07:48:53.005Z</time></trkpt><trkpt lat="45.09494" lon="10.856967"><ele>19.0</ele><time>2026-04-06T07:48:54.005Z</time></trkpt><trkpt lat="45.0952378" lon="10.8570746"><ele>19.0</ele><time>2026-04-06T07:48:55.005Z</time></trkpt><trkpt lat="45.0955361" lon="10.857182"><ele>19.0</ele><time>2026-04-06T07:48:56.004Z</time></trkpt><trkpt lat="45.0958367" lon="10.8572865"><ele>19.0</ele><time>2026-04-06T07:48:57.006Z</time></trkpt><trkpt lat="45.096138" lon="10.8573922"><ele>19.0</ele><time>2026-04-06T07:48:58.004Z</time></trkpt><trkpt lat="45.0964368" lon="10.8574968"><ele>18.0</ele><time>2026-04-06T07:48:59.004Z</time></trkpt><trkpt lat="45.0967289" lon="10.8575989"><ele>17.0</ele><time>2026-04-06T07:49:00.006Z</time></trkpt><trkpt lat="45.0970197" lon="10.8577025"><ele>17.0</ele><time>2026-04-06T07:49:01.005Z</time></trkpt><trkpt lat="45.0973092" lon="10.8578047"><ele>17.0</ele><time>2026-04-06T07:49:02.005Z</time></trkpt><trkpt lat="45.0975966" lon="10.8579083"><ele>16.0</ele><time>2026-04-06T07:49:03.006Z</time></trkpt><trkpt lat="45.0978836" lon="10.858013"><ele>15.0</ele><time>2026-04-06T07:49:04.005Z</time></trkpt><trkpt lat="45.0981688" lon="10.8581169"><ele>14.5</ele><time>2026-04-06T07:49:05.005Z</time></trkpt><trkpt lat="45.098454" lon="10.8582191"><ele>14.0</ele><time>2026-04-06T07:49:06.005Z</time></trkpt><trkpt lat="45.0987386" lon="10.8583188"><ele>14.0</ele><time>2026-04-06T07:49:07.005Z</time></trkpt><trkpt lat="45.0990224" lon="10.8584164"><ele>14.0</ele><time>2026-04-06T07:49:08.004Z</time></trkpt><trkpt lat="45.0993076" lon="10.8585129"><ele>14.5</ele><time>2026-04-06T07:49:09.005Z</time></trkpt><trkpt lat="45.0995809" lon="10.8586056"><ele>15.0</ele><time>2026-04-06T07:49:10.005Z</time></trkpt><trkpt lat="45.0998546" lon="10.8586986"><ele>15.5</ele><time>2026-04-06T07:49:11.005Z</time></trkpt><trkpt lat="45.1001249" lon="10.8587905"><ele>16.0</ele><time>2026-04-06T07:49:12.004Z</time></trkpt><trkpt lat="45.1003939" lon="10.8588816"><ele>16.0</ele><time>2026-04-06T07:49:13.004Z</time></trkpt><trkpt lat="45.1006622" lon="10.8589725"><ele>16.0</ele><time>2026-04-06T07:49:14.006Z</time></trkpt><trkpt lat="45.1009303" lon="10.8590646"><ele>15.0</ele><time>2026-04-06T07:49:15.004Z</time></trkpt><trkpt lat="45.1011996" lon="10.8591588"><ele>14.0</ele><time>2026-04-06T07:49:16.005Z</time></trkpt><trkpt lat="45.1014703" lon="10.8592541"><ele>12.0</ele><time>2026-04-06T07:49:17.004Z</time></trkpt><trkpt lat="45.1017441" lon="10.8593513"><ele>10.0</ele><time>2026-04-06T07:49:18.006Z</time></trkpt><trkpt lat="45.1020196" lon="10.8594505"><ele>10.0</ele><time>2026-04-06T07:49:19.005Z</time></trkpt><trkpt lat="45.1023003" lon="10.8595477"><ele>10.0</ele><time>2026-04-06T07:49:20.005Z</time></trkpt><trkpt lat="45.102584" lon="10.8596457"><ele>11.0</ele><time>2026-04-06T07:49:21.006Z</time></trkpt><trkpt lat="45.102871" lon="10.8597439"><ele>12.0</ele><time>2026-04-06T07:49:22.006Z</time></trkpt><trkpt lat="45.1031605" lon="10.8598449"><ele>12.0</ele><time>2026-04-06T07:49:23.006Z</time></trkpt><trkpt lat="45.1034506" lon="10.8599508"><ele>12.0</ele><time>2026-04-06T07:49:24.006Z</time></trkpt><trkpt lat="45.103743" lon="10.8600593"><ele>11.5</ele><time>2026-04-06T07:49:25.005Z</time></trkpt><trkpt lat="45.1040349" lon="10.8601685"><ele>11.0</ele><time>2026-04-06T07:49:26.005Z</time></trkpt><trkpt lat="45.1043252" lon="10.8602793"><ele>10.5</ele><time>2026-04-06T07:49:27.005Z</time></trkpt><trkpt lat="45.104615" lon="10.8603992"><ele>10.0</ele><time>2026-04-06T07:49:28.005Z</time></trkpt><trkpt lat="45.1049046" lon="10.8605252"><ele>11.5</ele><time>2026-04-06T07:49:29.005Z</time></trkpt><trkpt lat="45.105193" lon="10.8606566"><ele>13.0</ele><time>2026-04-06T07:49:30.006Z</time></trkpt><trkpt lat="45.105481" lon="10.8607893"><ele>13.0</ele><time>2026-04-06T07:49:31.006Z</time></trkpt><trkpt lat="45.1057684" lon="10.8609229"><ele>13.0</ele><time>2026-04-06T07:49:32.005Z</time></trkpt><trkpt lat="45.1060541" lon="10.8610564"><ele>12.5</ele><time>2026-04-06T07:49:33.005Z</time></trkpt><trkpt lat="45.10634" lon="10.8611897"><ele>12.0</ele><time>2026-04-06T07:49:34.004Z</time></trkpt><trkpt lat="45.1066262" lon="10.8613211"><ele>12.0</ele><time>2026-04-06T07:49:35.004Z</time></trkpt><trkpt lat="45.1069121" lon="10.8614521"><ele>12.0</ele><time>2026-04-06T07:49:36.006Z</time></trkpt><trkpt lat="45.1071974" lon="10.8615817"><ele>13.0</ele><time>2026-04-06T07:49:37.005Z</time></trkpt><trkpt lat="45.1074831" lon="10.8617117"><ele>14.0</ele><time>2026-04-06T07:49:38.006Z</time></trkpt><trkpt lat="45.1077686" lon="10.8618398"><ele>14.0</ele><time>2026-04-06T07:49:39.005Z</time></trkpt><trkpt lat="45.108053" lon="10.8619687"><ele>14.0</ele><time>2026-04-06T07:49:40.006Z</time></trkpt><trkpt lat="45.1083363" lon="10.8620989"><ele>14.5</ele><time>2026-04-06T07:49:41.005Z</time></trkpt><trkpt lat="45.1086191" lon="10.8622288"><ele>15.0</ele><time>2026-04-06T07:49:42.006Z</time></trkpt><trkpt lat="45.1089017" lon="10.8623564"><ele>16.0</ele><time>2026-04-06T07:49:43.004Z</time></trkpt><trkpt lat="45.1091847" lon="10.8624847"><ele>17.0</ele><time>2026-04-06T07:49:44.005Z</time></trkpt><trkpt lat="45.1094681" lon="10.8626131"><ele>16.5</ele><time>2026-04-06T07:49:45.005Z</time></trkpt><trkpt lat="45.1097495" lon="10.8627408"><ele>16.0</ele><time>2026-04-06T07:49:46.004Z</time></trkpt><trkpt lat="45.110032" lon="10.8628683"><ele>16.0</ele><time>2026-04-06T07:49:47.005Z</time></trkpt><trkpt lat="45.1103142" lon="10.8629964"><ele>16.0</ele><time>2026-04-06T07:49:48.004Z</time></trkpt><trkpt lat="45.1105967" lon="10.8631243"><ele>19.0</ele><time>2026-04-06T07:49:49.006Z</time></trkpt><trkpt lat="45.1108785" lon="10.86325"><ele>22.0</ele><time>2026-04-06T07:49:50.006Z</time></trkpt><trkpt lat="45.1111608" lon="10.8633775"><ele>19.5</ele><time>2026-04-06T07:49:51.006Z</time></trkpt><trkpt lat="45.1114444" lon="10.8635046"><ele>17.0</ele><time>2026-04-06T07:49:52.006Z</time></trkpt><trkpt lat="45.1117267" lon="10.863635"><ele>16.5</ele><time>2026-04-06T07:49:53.005Z</time></trkpt><trkpt lat="45.1120104" lon="10.8637658"><ele>16.0</ele><time>2026-04-06T07:49:54.005Z</time></trkpt><trkpt lat="45.1122965" lon="10.863895"><ele>16.5</ele><time>2026-04-06T07:49:55.006Z</time></trkpt><trkpt lat="45.1125859" lon="10.8640246"><ele>17.0</ele><time>2026-04-06T07:49:56.006Z</time></trkpt><trkpt lat="45.1128621" lon="10.8641496"><ele>17.0</ele><time>2026-04-06T07:49:57.004Z</time></trkpt><trkpt lat="45.1131377" lon="10.8642744"><ele>17.0</ele><time>2026-04-06T07:49:58.005Z</time></trkpt><trkpt lat="45.1134117" lon="10.8643984"><ele>17.5</ele><time>2026-04-06T07:49:59.005Z</time></trkpt><trkpt lat="45.1136855" lon="10.8645234"><ele>18.0</ele><time>2026-04-06T07:50:00.005Z</time></trkpt><trkpt lat="45.1139598" lon="10.8646488"><ele>17.0</ele><time>2026-04-06T07:50:01.005Z</time></trkpt><trkpt lat="45.1142333" lon="10.8647764"><ele>16.0</ele><time>2026-04-06T07:50:02.004Z</time></trkpt><trkpt lat="45.1145067" lon="10.8649028"><ele>16.0</ele><time>2026-04-06T07:50:03.005Z</time></trkpt><trkpt lat="45.1147776" lon="10.865024"><ele>16.0</ele><time>2026-04-06T07:50:04.004Z</time></trkpt><trkpt lat="45.1150491" lon="10.8651434"><ele>14.5</ele><time>2026-04-06T07:50:05.004Z</time></trkpt><trkpt lat="45.1153252" lon="10.8652619"><ele>13.0</ele><time>2026-04-06T07:50:06.004Z</time></trkpt><trkpt lat="45.1156021" lon="10.8653763"><ele>14.0</ele><time>2026-04-06T07:50:07.004Z</time></trkpt><trkpt lat="45.1158801" lon="10.865491"><ele>15.0</ele><time>2026-04-06T07:50:08.004Z</time></trkpt><trkpt lat="45.1161536" lon="10.8656066"><ele>15.0</ele><time>2026-04-06T07:50:09.005Z</time></trkpt><trkpt lat="45.1164305" lon="10.8657262"><ele>15.0</ele><time>2026-04-06T07:50:10.005Z</time></trkpt><trkpt lat="45.1167074" lon="10.8658505"><ele>15.0</ele><time>2026-04-06T07:50:11.005Z</time></trkpt><trkpt lat="45.1169856" lon="10.8659748"><ele>15.0</ele><time>2026-04-06T07:50:12.005Z</time></trkpt><trkpt lat="45.117265" lon="10.8660971"><ele>15.0</ele><time>2026-04-06T07:50:13.004Z</time></trkpt><trkpt lat="45.1175447" lon="10.8662219"><ele>15.0</ele><time>2026-04-06T07:50:14.004Z</time></trkpt><trkpt lat="45.1178231" lon="10.8663431"><ele>15.0</ele><time>2026-04-06T07:50:15.004Z</time></trkpt><trkpt lat="45.1180976" lon="10.8664628"><ele>15.0</ele><time>2026-04-06T07:50:16.004Z</time></trkpt><trkpt lat="45.1183705" lon="10.8665863"><ele>15.5</ele><time>2026-04-06T07:50:17.004Z</time></trkpt><trkpt lat="45.1186439" lon="10.866711"><ele>16.0</ele><time>2026-04-06T07:50:18.005Z</time></trkpt><trkpt lat="45.1189182" lon="10.8668384"><ele>16.0</ele><time>2026-04-06T07:50:19.005Z</time></trkpt><trkpt lat="45.1191946" lon="10.8669661"><ele>16.0</ele><time>2026-04-06T07:50:20.005Z</time></trkpt><trkpt lat="45.1194747" lon="10.867093"><ele>16.0</ele><time>2026-04-06T07:50:21.004Z</time></trkpt><trkpt lat="45.1197574" lon="10.867221"><ele>16.0</ele><time>2026-04-06T07:50:22.005Z</time></trkpt><trkpt lat="45.1200424" lon="10.8673506"><ele>15.0</ele><time>2026-04-06T07:50:23.005Z</time></trkpt><trkpt lat="45.1203295" lon="10.8674818"><ele>14.0</ele><time>2026-04-06T07:50:24.004Z</time></trkpt><trkpt lat="45.1206192" lon="10.8676121"><ele>14.0</ele><time>2026-04-06T07:50:25.005Z</time></trkpt><trkpt lat="45.1209103" lon="10.8677429"><ele>14.0</ele><time>2026-04-06T07:50:26.004Z</time></trkpt><trkpt lat="45.1212019" lon="10.8678754"><ele>14.0</ele><time>2026-04-06T07:50:27.004Z</time></trkpt><trkpt lat="45.1214937" lon="10.8680103"><ele>14.0</ele><time>2026-04-06T07:50:28.006Z</time></trkpt><trkpt lat="45.1217861" lon="10.8681464"><ele>14.5</ele><time>2026-04-06T07:50:29.005Z</time></trkpt><trkpt lat="45.1220798" lon="10.8682813"><ele>15.0</ele><time>2026-04-06T07:50:30.004Z</time></trkpt><trkpt lat="45.1223743" lon="10.8684159"><ele>16.0</ele><time>2026-04-06T07:50:31.005Z</time></trkpt><trkpt lat="45.122669" lon="10.8685494"><ele>17.0</ele><time>2026-04-06T07:50:32.004Z</time></trkpt><trkpt lat="45.1229623" lon="10.8686788"><ele>17.5</ele><time>2026-04-06T07:50:33.004Z</time></trkpt><trkpt lat="45.1232528" lon="10.8688067"><ele>18.0</ele><time>2026-04-06T07:50:34.006Z</time></trkpt><trkpt lat="45.1235383" lon="10.8689351"><ele>18.0</ele><time>2026-04-06T07:50:35.005Z</time></trkpt><trkpt lat="45.1238208" lon="10.8690638"><ele>18.0</ele><time>2026-04-06T07:50:36.004Z</time></trkpt><trkpt lat="45.1241" lon="10.8691931"><ele>17.5</ele><time>2026-04-06T07:50:37.005Z</time></trkpt><trkpt lat="45.1243797" lon="10.8693222"><ele>17.0</ele><time>2026-04-06T07:50:38.005Z</time></trkpt><trkpt lat="45.1246609" lon="10.869451"><ele>17.5</ele><time>2026-04-06T07:50:39.006Z</time></trkpt><trkpt lat="45.1249443" lon="10.8695776"><ele>18.0</ele><time>2026-04-06T07:50:40.006Z</time></trkpt><trkpt lat="45.125227" lon="10.8697026"><ele>18.0</ele><time>2026-04-06T07:50:41.005Z</time></trkpt><trkpt lat="45.1255089" lon="10.8698321"><ele>18.0</ele><time>2026-04-06T07:50:42.004Z</time></trkpt><trkpt lat="45.1257918" lon="10.8699613"><ele>18.5</ele><time>2026-04-06T07:50:43.005Z</time></trkpt><trkpt lat="45.1260778" lon="10.8700857"><ele>19.0</ele><time>2026-04-06T07:50:44.006Z</time></trkpt><trkpt lat="45.1263682" lon="10.870201"><ele>19.5</ele><time>2026-04-06T07:50:45.005Z</time></trkpt><trkpt lat="45.1266628" lon="10.8703087"><ele>20.0</ele><time>2026-04-06T07:50:46.004Z</time></trkpt><trkpt lat="45.1269595" lon="10.8704144"><ele>20.0</ele><time>2026-04-06T07:50:47.005Z</time></trkpt><trkpt lat="45.1272572" lon="10.8705137"><ele>20.0</ele><time>2026-04-06T07:50:48.005Z</time></trkpt><trkpt lat="45.1275504" lon="10.8706048"><ele>20.0</ele><time>2026-04-06T07:50:49.005Z</time></trkpt><trkpt lat="45.1278427" lon="10.8706894"><ele>20.0</ele><time>2026-04-06T07:50:50.004Z</time></trkpt><trkpt lat="45.1281332" lon="10.8707693"><ele>20.5</ele><time>2026-04-06T07:50:51.005Z</time></trkpt><trkpt lat="45.1284206" lon="10.8708465"><ele>21.0</ele><time>2026-04-06T07:50:52.005Z</time></trkpt><trkpt lat="45.1287086" lon="10.8709185"><ele>21.0</ele><time>2026-04-06T07:50:53.005Z</time></trkpt><trkpt lat="45.1289981" lon="10.8709852"><ele>21.0</ele><time>2026-04-06T07:50:54.004Z</time></trkpt><trkpt lat="45.1292889" lon="10.8710485"><ele>21.0</ele><time>2026-04-06T07:50:55.006Z</time></trkpt><trkpt lat="45.1295775" lon="10.8711062"><ele>21.0</ele><time>2026-04-06T07:50:56.005Z</time></trkpt><trkpt lat="45.1298715" lon="10.8711613"><ele>21.0</ele><time>2026-04-06T07:50:57.005Z</time></trkpt><trkpt lat="45.1301643" lon="10.8712127"><ele>21.0</ele><time>2026-04-06T07:50:58.005Z</time></trkpt><trkpt lat="45.1304591" lon="10.8712606"><ele>20.0</ele><time>2026-04-06T07:50:59.004Z</time></trkpt><trkpt lat="45.1307548" lon="10.8713027"><ele>19.0</ele><time>2026-04-06T07:51:00.005Z</time></trkpt><trkpt lat="45.1310515" lon="10.8713398"><ele>19.0</ele><time>2026-04-06T07:51:01.005Z</time></trkpt><trkpt lat="45.1313508" lon="10.8713731"><ele>19.0</ele><time>2026-04-06T07:51:02.005Z</time></trkpt><trkpt lat="45.1316513" lon="10.8714022"><ele>19.5</ele><time>2026-04-06T07:51:03.006Z</time></trkpt><trkpt lat="45.1319515" lon="10.8714263"><ele>20.0</ele><time>2026-04-06T07:51:04.005Z</time></trkpt><trkpt lat="45.1322519" lon="10.8714443"><ele>20.0</ele><time>2026-04-06T07:51:05.005Z</time></trkpt><trkpt lat="45.1325531" lon="10.871457"><ele>20.0</ele><time>2026-04-06T07:51:06.005Z</time></trkpt><trkpt lat="45.1328554" lon="10.871463"><ele>20.0</ele><time>2026-04-06T07:51:07.005Z</time></trkpt><trkpt lat="45.1331559" lon="10.8714621"><ele>20.0</ele><time>2026-04-06T07:51:08.005Z</time></trkpt><trkpt lat="45.1334558" lon="10.8714564"><ele>20.5</ele><time>2026-04-06T07:51:09.005Z</time></trkpt><trkpt lat="45.133755" lon="10.8714471"><ele>21.0</ele><time>2026-04-06T07:51:10.004Z</time></trkpt><trkpt lat="45.1340515" lon="10.8714394"><ele>20.5</ele><time>2026-04-06T07:51:11.005Z</time></trkpt><trkpt lat="45.134348" lon="10.8714267"><ele>20.0</ele><time>2026-04-06T07:51:12.005Z</time></trkpt><trkpt lat="45.1346438" lon="10.8714075"><ele>19.5</ele><time>2026-04-06T07:51:13.005Z</time></trkpt><trkpt lat="45.1349391" lon="10.8713845"><ele>19.0</ele><time>2026-04-06T07:51:14.004Z</time></trkpt><trkpt lat="45.1352339" lon="10.8713574"><ele>19.0</ele><time>2026-04-06T07:51:15.004Z</time></trkpt><trkpt lat="45.1355274" lon="10.8713256"><ele>19.0</ele><time>2026-04-06T07:51:16.005Z</time></trkpt><trkpt lat="45.1358191" lon="10.8712903"><ele>18.5</ele><time>2026-04-06T07:51:17.005Z</time></trkpt><trkpt lat="45.1361121" lon="10.8712502"><ele>18.0</ele><time>2026-04-06T07:51:18.005Z</time></trkpt><trkpt lat="45.1364035" lon="10.8712036"><ele>17.0</ele><time>2026-04-06T07:51:19.004Z</time></trkpt><trkpt lat="45.1366943" lon="10.8711519"><ele>16.0</ele><time>2026-04-06T07:51:20.006Z</time></trkpt><trkpt lat="45.1369854" lon="10.8710946"><ele>16.0</ele><time>2026-04-06T07:51:21.004Z</time></trkpt><trkpt lat="45.1372765" lon="10.8710321"><ele>16.0</ele><time>2026-04-06T07:51:22.004Z</time></trkpt><trkpt lat="45.1375675" lon="10.8709649"><ele>17.0</ele><time>2026-04-06T07:51:23.004Z</time></trkpt><trkpt lat="45.1378577" lon="10.8708933"><ele>18.0</ele><time>2026-04-06T07:51:24.005Z</time></trkpt><trkpt lat="45.1381472" lon="10.8708178"><ele>20.0</ele><time>2026-04-06T07:51:25.005Z</time></trkpt><trkpt lat="45.138436" lon="10.8707409"><ele>22.0</ele><time>2026-04-06T07:51:26.004Z</time></trkpt><trkpt lat="45.1387263" lon="10.8706582"><ele>22.0</ele><time>2026-04-06T07:51:27.005Z</time></trkpt><trkpt lat="45.1390153" lon="10.8705637"><ele>22.0</ele><time>2026-04-06T07:51:28.004Z</time></trkpt><trkpt lat="45.1393054" lon="10.8704605"><ele>21.0</ele><time>2026-04-06T07:51:29.006Z</time></trkpt><trkpt lat="45.1395946" lon="10.8703549"><ele>20.0</ele><time>2026-04-06T07:51:30.005Z</time></trkpt><trkpt lat="45.1398876" lon="10.8702469"><ele>20.0</ele><time>2026-04-06T07:51:31.005Z</time></trkpt><trkpt lat="45.1401812" lon="10.8701367"><ele>20.0</ele><time>2026-04-06T07:51:32.005Z</time></trkpt><trkpt lat="45.1404748" lon="10.870024"><ele>20.0</ele><time>2026-04-06T07:51:33.004Z</time></trkpt><trkpt lat="45.1407663" lon="10.8699107"><ele>20.0</ele><time>2026-04-06T07:51:34.004Z</time></trkpt><trkpt lat="45.1410602" lon="10.8697952"><ele>20.0</ele><time>2026-04-06T07:51:35.005Z</time></trkpt><trkpt lat="45.1413526" lon="10.8696805"><ele>20.0</ele><time>2026-04-06T07:51:36.004Z</time></trkpt><trkpt lat="45.1416476" lon="10.8695655"><ele>20.5</ele><time>2026-04-06T07:51:37.006Z</time></trkpt><trkpt lat="45.1419422" lon="10.8694498"><ele>21.0</ele><time>2026-04-06T07:51:38.005Z</time></trkpt><trkpt lat="45.1422366" lon="10.8693305"><ele>20.0</ele><time>2026-04-06T07:51:39.004Z</time></trkpt><trkpt lat="45.1425321" lon="10.869207"><ele>19.0</ele><time>2026-04-06T07:51:40.004Z</time></trkpt><trkpt lat="45.1428235" lon="10.869084"><ele>19.0</ele><time>2026-04-06T07:51:41.005Z</time></trkpt><trkpt lat="45.1431097" lon="10.8689638"><ele>19.0</ele><time>2026-04-06T07:51:42.004Z</time></trkpt><trkpt lat="45.1433945" lon="10.8688445"><ele>19.0</ele><time>2026-04-06T07:51:43.005Z</time></trkpt><trkpt lat="45.1436769" lon="10.8687244"><ele>19.0</ele><time>2026-04-06T07:51:44.005Z</time></trkpt><trkpt lat="45.1439576" lon="10.8686036"><ele>19.5</ele><time>2026-04-06T07:51:45.005Z</time></trkpt><trkpt lat="45.1442391" lon="10.8684855"><ele>20.0</ele><time>2026-04-06T07:51:46.005Z</time></trkpt><trkpt lat="45.1445202" lon="10.868368"><ele>21.0</ele><time>2026-04-06T07:51:47.004Z</time></trkpt><trkpt lat="45.1448024" lon="10.8682506"><ele>22.0</ele><time>2026-04-06T07:51:48.004Z</time></trkpt><trkpt lat="45.1450846" lon="10.8681354"><ele>22.0</ele><time>2026-04-06T07:51:49.005Z</time></trkpt><trkpt lat="45.1453668" lon="10.8680144"><ele>22.0</ele><time>2026-04-06T07:51:50.004Z</time></trkpt><trkpt lat="45.1456508" lon="10.8678966"><ele>20.5</ele><time>2026-04-06T07:51:51.005Z</time></trkpt><trkpt lat="45.1459365" lon="10.8677754"><ele>19.0</ele><time>2026-04-06T07:51:52.004Z</time></trkpt><trkpt lat="45.1462204" lon="10.8676566"><ele>19.5</ele><time>2026-04-06T07:51:53.004Z</time></trkpt><trkpt lat="45.1465034" lon="10.8675366"><ele>20.0</ele><time>2026-04-06T07:51:54.005Z</time></trkpt><trkpt lat="45.1467834" lon="10.8674174"><ele>20.0</ele><time>2026-04-06T07:51:55.005Z</time></trkpt><trkpt lat="45.1470623" lon="10.8673013"><ele>20.0</ele><time>2026-04-06T07:51:56.004Z</time></trkpt><trkpt lat="45.1473411" lon="10.8671896"><ele>21.0</ele><time>2026-04-06T07:51:57.004Z</time></trkpt><trkpt lat="45.1476187" lon="10.8670741"><ele>22.0</ele><time>2026-04-06T07:51:58.005Z</time></trkpt><trkpt lat="45.1478977" lon="10.8669534"><ele>22.0</ele><time>2026-04-06T07:51:59.005Z</time></trkpt><trkpt lat="45.1481787" lon="10.8668223"><ele>22.0</ele><time>2026-04-06T07:52:00.004Z</time></trkpt><trkpt lat="45.1484621" lon="10.8666887"><ele>20.5</ele><time>2026-04-06T07:52:01.004Z</time></trkpt><trkpt lat="45.1487509" lon="10.8665556"><ele>19.0</ele><time>2026-04-06T07:52:02.004Z</time></trkpt><trkpt lat="45.1490424" lon="10.8664254"><ele>20.0</ele><time>2026-04-06T07:52:03.004Z</time></trkpt><trkpt lat="45.1493343" lon="10.8663004"><ele>21.0</ele><time>2026-04-06T07:52:04.005Z</time></trkpt><trkpt lat="45.1496275" lon="10.8661791"><ele>20.5</ele><time>2026-04-06T07:52:05.005Z</time></trkpt><trkpt lat="45.1499206" lon="10.8660601"><ele>20.0</ele><time>2026-04-06T07:52:06.004Z</time></trkpt><trkpt lat="45.1502151" lon="10.865944"><ele>19.5</ele><time>2026-04-06T07:52:07.004Z</time></trkpt><trkpt lat="45.1505092" lon="10.8658294"><ele>19.0</ele><time>2026-04-06T07:52:08.005Z</time></trkpt><trkpt lat="45.1508024" lon="10.8657146"><ele>20.5</ele><time>2026-04-06T07:52:09.004Z</time></trkpt><trkpt lat="45.1510934" lon="10.8655985"><ele>22.0</ele><time>2026-04-06T07:52:10.004Z</time></trkpt><trkpt lat="45.1513799" lon="10.8654789"><ele>21.5</ele><time>2026-04-06T07:52:11.005Z</time></trkpt><trkpt lat="45.1516634" lon="10.8653582"><ele>21.0</ele><time>2026-04-06T07:52:12.004Z</time></trkpt><trkpt lat="45.1519443" lon="10.86524"><ele>21.0</ele><time>2026-04-06T07:52:13.006Z</time></trkpt><trkpt lat="45.1522246" lon="10.8651227"><ele>21.0</ele><time>2026-04-06T07:52:14.005Z</time></trkpt><trkpt lat="45.1525045" lon="10.8650056"><ele>21.0</ele><time>2026-04-06T07:52:15.004Z</time></trkpt><trkpt lat="45.1527824" lon="10.8648887"><ele>21.0</ele><time>2026-04-06T07:52:16.004Z</time></trkpt><trkpt lat="45.1530603" lon="10.8647707"><ele>20.5</ele><time>2026-04-06T07:52:17.006Z</time></trkpt><trkpt lat="45.1533399" lon="10.864657"><ele>20.0</ele><time>2026-04-06T07:52:18.005Z</time></trkpt><trkpt lat="45.1536179" lon="10.8645404"><ele>20.0</ele><time>2026-04-06T07:52:19.004Z</time></trkpt><trkpt lat="45.1538965" lon="10.8644241"><ele>20.0</ele><time>2026-04-06T07:52:20.005Z</time></trkpt><trkpt lat="45.1541766" lon="10.8643067"><ele>19.5</ele><time>2026-04-06T07:52:21.004Z</time></trkpt><trkpt lat="45.1544575" lon="10.8641855"><ele>19.0</ele><time>2026-04-06T07:52:22.005Z</time></trkpt><trkpt lat="45.1547424" lon="10.8640675"><ele>20.0</ele><time>2026-04-06T07:52:23.006Z</time></trkpt><trkpt lat="45.1550302" lon="10.8639467"><ele>21.0</ele><time>2026-04-06T07:52:24.005Z</time></trkpt><trkpt lat="45.1553217" lon="10.863825"><ele>21.0</ele><time>2026-04-06T07:52:25.005Z</time></trkpt><trkpt lat="45.1556148" lon="10.8637024"><ele>21.0</ele><time>2026-04-06T07:52:26.005Z</time></trkpt><trkpt lat="45.1559101" lon="10.8635779"><ele>21.5</ele><time>2026-04-06T07:52:27.005Z</time></trkpt><trkpt lat="45.1562086" lon="10.8634502"><ele>22.0</ele><time>2026-04-06T07:52:28.004Z</time></trkpt><trkpt lat="45.1565108" lon="10.8633193"><ele>21.0</ele><time>2026-04-06T07:52:29.004Z</time></trkpt><trkpt lat="45.1568158" lon="10.8631864"><ele>20.0</ele><time>2026-04-06T07:52:30.004Z</time></trkpt><trkpt lat="45.1571217" lon="10.8630522"><ele>20.0</ele><time>2026-04-06T07:52:31.004Z</time></trkpt><trkpt lat="45.1574301" lon="10.8629183"><ele>20.0</ele><time>2026-04-06T07:52:32.004Z</time></trkpt><trkpt lat="45.1577408" lon="10.8627867"><ele>20.0</ele><time>2026-04-06T07:52:33.005Z</time></trkpt><trkpt lat="45.1580526" lon="10.8626576"><ele>20.0</ele><time>2026-04-06T07:52:34.004Z</time></trkpt><trkpt lat="45.1583654" lon="10.862529"><ele>21.0</ele><time>2026-04-06T07:52:35.005Z</time></trkpt><trkpt lat="45.158677" lon="10.8624003"><ele>22.0</ele><time>2026-04-06T07:52:36.005Z</time></trkpt><trkpt lat="45.1589743" lon="10.8622795"><ele>23.0</ele><time>2026-04-06T07:52:37.005Z</time></trkpt><trkpt lat="45.159266" lon="10.8621589"><ele>24.0</ele><time>2026-04-06T07:52:38.005Z</time></trkpt><trkpt lat="45.1595561" lon="10.8620376"><ele>24.0</ele><time>2026-04-06T07:52:39.006Z</time></trkpt><trkpt lat="45.1598433" lon="10.8619154"><ele>24.0</ele><time>2026-04-06T07:52:40.006Z</time></trkpt><trkpt lat="45.1601275" lon="10.861787"><ele>23.5</ele><time>2026-04-06T07:52:41.004Z</time></trkpt><trkpt lat="45.1604122" lon="10.861656"><ele>23.0</ele><time>2026-04-06T07:52:42.004Z</time></trkpt><trkpt lat="45.1606994" lon="10.8615245"><ele>23.5</ele><time>2026-04-06T07:52:43.004Z</time></trkpt><trkpt lat="45.1609892" lon="10.8613913"><ele>24.0</ele><time>2026-04-06T07:52:44.005Z</time></trkpt><trkpt lat="45.1612793" lon="10.8612564"><ele>21.5</ele><time>2026-04-06T07:52:45.005Z</time></trkpt><trkpt lat="45.1615726" lon="10.8611213"><ele>19.0</ele><time>2026-04-06T07:52:46.005Z</time></trkpt><trkpt lat="45.1618688" lon="10.860983"><ele>22.0</ele><time>2026-04-06T07:52:47.005Z</time></trkpt><trkpt lat="45.162166" lon="10.8608431"><ele>25.0</ele><time>2026-04-06T07:52:48.006Z</time></trkpt><trkpt lat="45.1624644" lon="10.8606984"><ele>25.0</ele><time>2026-04-06T07:52:49.004Z</time></trkpt><trkpt lat="45.1627611" lon="10.8605521"><ele>25.0</ele><time>2026-04-06T07:52:50.004Z</time></trkpt><trkpt lat="45.1630558" lon="10.8604069"><ele>24.0</ele><time>2026-04-06T07:52:51.005Z</time></trkpt><trkpt lat="45.1633492" lon="10.8602611"><ele>23.0</ele><time>2026-04-06T07:52:52.005Z</time></trkpt><trkpt lat="45.1636425" lon="10.8601149"><ele>23.0</ele><time>2026-04-06T07:52:53.004Z</time></trkpt><trkpt lat="45.163935" lon="10.8599673"><ele>23.0</ele><time>2026-04-06T07:52:54.004Z</time></trkpt><trkpt lat="45.1642282" lon="10.8598181"><ele>24.0</ele><time>2026-04-06T07:52:55.004Z</time></trkpt><trkpt lat="45.1645236" lon="10.8596681"><ele>25.0</ele><time>2026-04-06T07:52:56.006Z</time></trkpt><trkpt lat="45.1648198" lon="10.8595174"><ele>25.5</ele><time>2026-04-06T07:52:57.005Z</time></trkpt><trkpt lat="45.1651169" lon="10.8593674"><ele>26.0</ele><time>2026-04-06T07:52:58.004Z</time></trkpt><trkpt lat="45.1654153" lon="10.8592162"><ele>25.5</ele><time>2026-04-06T07:52:59.005Z</time></trkpt><trkpt lat="45.1657134" lon="10.8590646"><ele>25.0</ele><time>2026-04-06T07:53:00.006Z</time></trkpt><trkpt lat="45.1660121" lon="10.8589119"><ele>25.0</ele><time>2026-04-06T07:53:01.005Z</time></trkpt><trkpt lat="45.1663113" lon="10.8587584"><ele>25.0</ele><time>2026-04-06T07:53:02.004Z</time></trkpt><trkpt lat="45.16661" lon="10.8586071"><ele>24.0</ele><time>2026-04-06T07:53:03.006Z</time></trkpt><trkpt lat="45.1669024" lon="10.8584596"><ele>23.0</ele><time>2026-04-06T07:53:04.006Z</time></trkpt><trkpt lat="45.1671939" lon="10.8583136"><ele>25.0</ele><time>2026-04-06T07:53:05.005Z</time></trkpt><trkpt lat="45.1674831" lon="10.8581701"><ele>27.0</ele><time>2026-04-06T07:53:06.004Z</time></trkpt><trkpt lat="45.1677675" lon="10.858032"><ele>27.0</ele><time>2026-04-06T07:53:07.005Z</time></trkpt><trkpt lat="45.1680532" lon="10.857891"><ele>27.0</ele><time>2026-04-06T07:53:08.005Z</time></trkpt><trkpt lat="45.1683388" lon="10.8577523"><ele>25.0</ele><time>2026-04-06T07:53:09.005Z</time></trkpt><trkpt lat="45.1686239" lon="10.8576102"><ele>23.0</ele><time>2026-04-06T07:53:10.004Z</time></trkpt><trkpt lat="45.1689084" lon="10.8574627"><ele>24.0</ele><time>2026-04-06T07:53:11.006Z</time></trkpt><trkpt lat="45.1691924" lon="10.8573116"><ele>25.0</ele><time>2026-04-06T07:53:12.005Z</time></trkpt><trkpt lat="45.1694765" lon="10.8571621"><ele>25.0</ele><time>2026-04-06T07:53:13.005Z</time></trkpt><trkpt lat="45.1697588" lon="10.8570102"><ele>25.0</ele><time>2026-04-06T07:53:14.006Z</time></trkpt><trkpt lat="45.1700392" lon="10.8568554"><ele>24.5</ele><time>2026-04-06T07:53:15.005Z</time></trkpt><trkpt lat="45.1703194" lon="10.8567032"><ele>24.0</ele><time>2026-04-06T07:53:16.005Z</time></trkpt><trkpt lat="45.1705971" lon="10.8565559"><ele>24.5</ele><time>2026-04-06T07:53:17.005Z</time></trkpt><trkpt lat="45.1708694" lon="10.8564172"><ele>25.0</ele><time>2026-04-06T07:53:18.004Z</time></trkpt><trkpt lat="45.1711424" lon="10.8562799"><ele>25.0</ele><time>2026-04-06T07:53:19.005Z</time></trkpt><trkpt lat="45.1714152" lon="10.8561461"><ele>25.0</ele><time>2026-04-06T07:53:20.004Z</time></trkpt><trkpt lat="45.1716844" lon="10.8560142"><ele>24.5</ele><time>2026-04-06T07:53:21.004Z</time></trkpt><trkpt lat="45.1719509" lon="10.8558814"><ele>24.0</ele><time>2026-04-06T07:53:22.005Z</time></trkpt><trkpt lat="45.1722192" lon="10.8557442"><ele>24.5</ele><time>2026-04-06T07:53:23.004Z</time></trkpt><trkpt lat="45.1724897" lon="10.8556042"><ele>25.0</ele><time>2026-04-06T07:53:24.005Z</time></trkpt><trkpt lat="45.1727643" lon="10.8554608"><ele>25.0</ele><time>2026-04-06T07:53:25.005Z</time></trkpt><trkpt lat="45.1730444" lon="10.8553167"><ele>25.0</ele><time>2026-04-06T07:53:26.005Z</time></trkpt><trkpt lat="45.1733308" lon="10.8551724"><ele>24.0</ele><time>2026-04-06T07:53:27.005Z</time></trkpt><trkpt lat="45.1736214" lon="10.8550273"><ele>23.0</ele><time>2026-04-06T07:53:28.005Z</time></trkpt><trkpt lat="45.1739153" lon="10.854881"><ele>22.5</ele><time>2026-04-06T07:53:29.006Z</time></trkpt><trkpt lat="45.1742168" lon="10.8547293"><ele>22.0</ele><time>2026-04-06T07:53:30.005Z</time></trkpt><trkpt lat="45.1745218" lon="10.8545761"><ele>22.0</ele><time>2026-04-06T07:53:31.005Z</time></trkpt><trkpt lat="45.17483" lon="10.854421"><ele>22.0</ele><time>2026-04-06T07:53:32.005Z</time></trkpt><trkpt lat="45.1751395" lon="10.8542659"><ele>22.0</ele><time>2026-04-06T07:53:33.005Z</time></trkpt><trkpt lat="45.1754474" lon="10.8541113"><ele>22.0</ele><time>2026-04-06T07:53:34.004Z</time></trkpt><trkpt lat="45.1757511" lon="10.8539587"><ele>22.0</ele><time>2026-04-06T07:53:35.004Z</time></trkpt><trkpt lat="45.1760552" lon="10.8538056"><ele>22.0</ele><time>2026-04-06T07:53:36.006Z</time></trkpt><trkpt lat="45.1763574" lon="10.8536516"><ele>22.5</ele><time>2026-04-06T07:53:37.005Z</time></trkpt><trkpt lat="45.1766606" lon="10.8534992"><ele>23.0</ele><time>2026-04-06T07:53:38.006Z</time></trkpt><trkpt lat="45.1769625" lon="10.853344"><ele>23.0</ele><time>2026-04-06T07:53:39.004Z</time></trkpt><trkpt lat="45.1772641" lon="10.8531911"><ele>23.0</ele><time>2026-04-06T07:53:40.004Z</time></trkpt><trkpt lat="45.1775649" lon="10.8530384"><ele>24.0</ele><time>2026-04-06T07:53:41.005Z</time></trkpt><trkpt lat="45.1778648" lon="10.8528876"><ele>25.0</ele><time>2026-04-06T07:53:42.005Z</time></trkpt><trkpt lat="45.1781598" lon="10.8527385"><ele>25.0</ele><time>2026-04-06T07:53:43.005Z</time></trkpt><trkpt lat="45.1784526" lon="10.8525941"><ele>25.0</ele><time>2026-04-06T07:53:44.006Z</time></trkpt><trkpt lat="45.1787427" lon="10.8524498"><ele>24.5</ele><time>2026-04-06T07:53:45.004Z</time></trkpt><trkpt lat="45.1790286" lon="10.8523046"><ele>24.0</ele><time>2026-04-06T07:53:46.005Z</time></trkpt><trkpt lat="45.1793137" lon="10.8521618"><ele>24.0</ele><time>2026-04-06T07:53:47.006Z</time></trkpt><trkpt lat="45.1796003" lon="10.8520173"><ele>24.0</ele><time>2026-04-06T07:53:48.005Z</time></trkpt><trkpt lat="45.1798872" lon="10.8518719"><ele>23.0</ele><time>2026-04-06T07:53:49.005Z</time></trkpt><trkpt lat="45.1801735" lon="10.8517247"><ele>22.0</ele><time>2026-04-06T07:53:50.006Z</time></trkpt><trkpt lat="45.1804593" lon="10.8515767"><ele>22.5</ele><time>2026-04-06T07:53:51.005Z</time></trkpt><trkpt lat="45.1807464" lon="10.8514296"><ele>23.0</ele><time>2026-04-06T07:53:52.004Z</time></trkpt><trkpt lat="45.1810346" lon="10.851285"><ele>23.0</ele><time>2026-04-06T07:53:53.006Z</time></trkpt><trkpt lat="45.1813229" lon="10.8511401"><ele>23.0</ele><time>2026-04-06T07:53:54.005Z</time></trkpt><trkpt lat="45.1816119" lon="10.8509958"><ele>23.0</ele><time>2026-04-06T07:53:55.005Z</time></trkpt><trkpt lat="45.1819019" lon="10.8508498"><ele>23.0</ele><time>2026-04-06T07:53:56.005Z</time></trkpt><trkpt lat="45.1821947" lon="10.8507019"><ele>24.0</ele><time>2026-04-06T07:53:57.004Z</time></trkpt><trkpt lat="45.1824915" lon="10.8505551"><ele>25.0</ele><time>2026-04-06T07:53:58.005Z</time></trkpt><trkpt lat="45.1827903" lon="10.850409"><ele>25.0</ele><time>2026-04-06T07:53:59.004Z</time></trkpt><trkpt lat="45.1830933" lon="10.8502666"><ele>25.0</ele><time>2026-04-06T07:54:00.005Z</time></trkpt><trkpt lat="45.1833969" lon="10.850129"><ele>24.5</ele><time>2026-04-06T07:54:01.006Z</time></trkpt><trkpt lat="45.1837006" lon="10.8500004"><ele>24.0</ele><time>2026-04-06T07:54:02.005Z</time></trkpt><trkpt lat="45.1840032" lon="10.8498793"><ele>25.0</ele><time>2026-04-06T07:54:03.005Z</time></trkpt><trkpt lat="45.1843061" lon="10.8497644"><ele>26.0</ele><time>2026-04-06T07:54:04.005Z</time></trkpt><trkpt lat="45.184611" lon="10.8496601"><ele>26.0</ele><time>2026-04-06T07:54:05.006Z</time></trkpt><trkpt lat="45.1849181" lon="10.8495691"><ele>26.0</ele><time>2026-04-06T07:54:06.005Z</time></trkpt><trkpt lat="45.1852266" lon="10.8494862"><ele>26.0</ele><time>2026-04-06T07:54:07.004Z</time></trkpt><trkpt lat="45.1855329" lon="10.8494121"><ele>26.0</ele><time>2026-04-06T07:54:08.005Z</time></trkpt><trkpt lat="45.1858388" lon="10.8493445"><ele>26.0</ele><time>2026-04-06T07:54:09.005Z</time></trkpt><trkpt lat="45.1861447" lon="10.8492823"><ele>26.0</ele><time>2026-04-06T07:54:10.004Z</time></trkpt><trkpt lat="45.1864521" lon="10.8492223"><ele>25.5</ele><time>2026-04-06T07:54:11.004Z</time></trkpt><trkpt lat="45.1867605" lon="10.8491651"><ele>25.0</ele><time>2026-04-06T07:54:12.004Z</time></trkpt><trkpt lat="45.1870685" lon="10.8491125"><ele>26.0</ele><time>2026-04-06T07:54:13.006Z</time></trkpt><trkpt lat="45.1873766" lon="10.8490604"><ele>27.0</ele><time>2026-04-06T07:54:14.005Z</time></trkpt><trkpt lat="45.1876852" lon="10.8490053"><ele>27.0</ele><time>2026-04-06T07:54:15.005Z</time></trkpt><trkpt lat="45.1879957" lon="10.8489489"><ele>27.0</ele><time>2026-04-06T07:54:16.005Z</time></trkpt><trkpt lat="45.1883085" lon="10.8488922"><ele>27.0</ele><time>2026-04-06T07:54:17.004Z</time></trkpt><trkpt lat="45.1886223" lon="10.8488379"><ele>27.0</ele><time>2026-04-06T07:54:18.005Z</time></trkpt><trkpt lat="45.188938" lon="10.8487859"><ele>28.0</ele><time>2026-04-06T07:54:19.006Z</time></trkpt><trkpt lat="45.1892564" lon="10.8487356"><ele>29.0</ele><time>2026-04-06T07:54:20.005Z</time></trkpt><trkpt lat="45.189577" lon="10.8486864"><ele>29.5</ele><time>2026-04-06T07:54:21.004Z</time></trkpt><trkpt lat="45.1898947" lon="10.8486436"><ele>30.0</ele><time>2026-04-06T07:54:22.006Z</time></trkpt><trkpt lat="45.1902056" lon="10.8485798"><ele>30.0</ele><time>2026-04-06T07:54:23.004Z</time></trkpt><trkpt lat="45.1905151" lon="10.8485249"><ele>30.0</ele><time>2026-04-06T07:54:24.004Z</time></trkpt><trkpt lat="45.1908207" lon="10.8484668"><ele>28.0</ele><time>2026-04-06T07:54:25.005Z</time></trkpt><trkpt lat="45.1911253" lon="10.8484084"><ele>26.0</ele><time>2026-04-06T07:54:26.004Z</time></trkpt><trkpt lat="45.19143" lon="10.8483498"><ele>26.5</ele><time>2026-04-06T07:54:27.004Z</time></trkpt><trkpt lat="45.1917322" lon="10.8482921"><ele>27.0</ele><time>2026-04-06T07:54:28.006Z</time></trkpt><trkpt lat="45.1920331" lon="10.8482377"><ele>27.0</ele><time>2026-04-06T07:54:29.005Z</time></trkpt><trkpt lat="45.1923355" lon="10.8481839"><ele>27.0</ele><time>2026-04-06T07:54:30.005Z</time></trkpt><trkpt lat="45.1926369" lon="10.848128"><ele>27.0</ele><time>2026-04-06T07:54:31.005Z</time></trkpt><trkpt lat="45.1929391" lon="10.8480696"><ele>27.0</ele><time>2026-04-06T07:54:32.005Z</time></trkpt><trkpt lat="45.193246" lon="10.8480072"><ele>25.0</ele><time>2026-04-06T07:54:33.005Z</time></trkpt><trkpt lat="45.1935585" lon="10.8479417"><ele>23.0</ele><time>2026-04-06T07:54:34.005Z</time></trkpt><trkpt lat="45.1938746" lon="10.8478752"><ele>23.5</ele><time>2026-04-06T07:54:35.004Z</time></trkpt><trkpt lat="45.1941908" lon="10.8478124"><ele>24.0</ele><time>2026-04-06T07:54:36.004Z</time></trkpt><trkpt lat="45.1945078" lon="10.8477531"><ele>24.0</ele><time>2026-04-06T07:54:37.005Z</time></trkpt><trkpt lat="45.1948244" lon="10.8476948"><ele>24.0</ele><time>2026-04-06T07:54:38.005Z</time></trkpt><trkpt lat="45.1951385" lon="10.8476359"><ele>23.5</ele><time>2026-04-06T07:54:39.005Z</time></trkpt><trkpt lat="45.1954506" lon="10.8475777"><ele>23.0</ele><time>2026-04-06T07:54:40.005Z</time></trkpt><trkpt lat="45.1957609" lon="10.8475192"><ele>22.5</ele><time>2026-04-06T07:54:41.005Z</time></trkpt><trkpt lat="45.19607" lon="10.8474627"><ele>22.0</ele><time>2026-04-06T07:54:42.004Z</time></trkpt><trkpt lat="45.1963765" lon="10.8474082"><ele>24.5</ele><time>2026-04-06T07:54:43.005Z</time></trkpt><trkpt lat="45.1966822" lon="10.8473554"><ele>27.0</ele><time>2026-04-06T07:54:44.004Z</time></trkpt><trkpt lat="45.1969884" lon="10.8473069"><ele>27.0</ele><time>2026-04-06T07:54:45.004Z</time></trkpt><trkpt lat="45.1972952" lon="10.8472607"><ele>27.0</ele><time>2026-04-06T07:54:46.006Z</time></trkpt><trkpt lat="45.1976025" lon="10.8472136"><ele>27.0</ele><time>2026-04-06T07:54:47.006Z</time></trkpt><trkpt lat="45.1979089" lon="10.8471661"><ele>27.0</ele><time>2026-04-06T07:54:48.005Z</time></trkpt><trkpt lat="45.1982158" lon="10.8471142"><ele>26.5</ele><time>2026-04-06T07:54:49.005Z</time></trkpt><trkpt lat="45.1985227" lon="10.8470598"><ele>26.0</ele><time>2026-04-06T07:54:50.004Z</time></trkpt><trkpt lat="45.1988305" lon="10.8470047"><ele>25.0</ele><time>2026-04-06T07:54:51.005Z</time></trkpt><trkpt lat="45.1991389" lon="10.8469519"><ele>24.0</ele><time>2026-04-06T07:54:52.004Z</time></trkpt><trkpt lat="45.1994483" lon="10.8469009"><ele>24.0</ele><time>2026-04-06T07:54:53.004Z</time></trkpt><trkpt lat="45.199757" lon="10.8468553"><ele>24.0</ele><time>2026-04-06T07:54:54.005Z</time></trkpt><trkpt lat="45.2000671" lon="10.8468169"><ele>25.5</ele><time>2026-04-06T07:54:55.005Z</time></trkpt><trkpt lat="45.2003782" lon="10.8467872"><ele>27.0</ele><time>2026-04-06T07:54:56.004Z</time></trkpt><trkpt lat="45.2006905" lon="10.8467652"><ele>27.0</ele><time>2026-04-06T07:54:57.005Z</time></trkpt><trkpt lat="45.2010041" lon="10.8467479"><ele>27.0</ele><time>2026-04-06T07:54:58.004Z</time></trkpt><trkpt lat="45.2013188" lon="10.8467461"><ele>27.0</ele><time>2026-04-06T07:54:59.005Z</time></trkpt><trkpt lat="45.201634" lon="10.8467525"><ele>27.0</ele><time>2026-04-06T07:55:00.005Z</time></trkpt><trkpt lat="45.201948" lon="10.8467654"><ele>27.0</ele><time>2026-04-06T07:55:01.004Z</time></trkpt><trkpt lat="45.2022629" lon="10.8467826"><ele>27.0</ele><time>2026-04-06T07:55:02.004Z</time></trkpt><trkpt lat="45.2025802" lon="10.8468044"><ele>27.5</ele><time>2026-04-06T07:55:03.004Z</time></trkpt><trkpt lat="45.2028967" lon="10.8468341"><ele>28.0</ele><time>2026-04-06T07:55:04.005Z</time></trkpt><trkpt lat="45.2032106" lon="10.8468691"><ele>28.0</ele><time>2026-04-06T07:55:05.004Z</time></trkpt><trkpt lat="45.2035236" lon="10.8469133"><ele>28.0</ele><time>2026-04-06T07:55:06.005Z</time></trkpt><trkpt lat="45.2038315" lon="10.8469638"><ele>28.0</ele><time>2026-04-06T07:55:07.005Z</time></trkpt><trkpt lat="45.204132" lon="10.847024"><ele>28.0</ele><time>2026-04-06T07:55:08.004Z</time></trkpt><trkpt lat="45.2044287" lon="10.8470955"><ele>28.0</ele><time>2026-04-06T07:55:09.004Z</time></trkpt><trkpt lat="45.2047244" lon="10.8471755"><ele>28.0</ele><time>2026-04-06T07:55:10.006Z</time></trkpt><trkpt lat="45.205019" lon="10.847257"><ele>27.5</ele><time>2026-04-06T07:55:11.004Z</time></trkpt><trkpt lat="45.2053117" lon="10.8473453"><ele>27.0</ele><time>2026-04-06T07:55:12.005Z</time></trkpt><trkpt lat="45.2056035" lon="10.8474419"><ele>27.0</ele><time>2026-04-06T07:55:13.005Z</time></trkpt><trkpt lat="45.2058959" lon="10.847543"><ele>27.0</ele><time>2026-04-06T07:55:14.004Z</time></trkpt><trkpt lat="45.2061888" lon="10.8476508"><ele>27.0</ele><time>2026-04-06T07:55:15.005Z</time></trkpt><trkpt lat="45.2064823" lon="10.8477691"><ele>27.0</ele><time>2026-04-06T07:55:16.005Z</time></trkpt><trkpt lat="45.2067763" lon="10.8478975"><ele>27.0</ele><time>2026-04-06T07:55:17.004Z</time></trkpt><trkpt lat="45.2070721" lon="10.8480342"><ele>27.0</ele><time>2026-04-06T07:55:18.005Z</time></trkpt><trkpt lat="45.2073691" lon="10.8481759"><ele>26.5</ele><time>2026-04-06T07:55:19.005Z</time></trkpt><trkpt lat="45.2076675" lon="10.8483238"><ele>26.0</ele><time>2026-04-06T07:55:20.005Z</time></trkpt><trkpt lat="45.2079666" lon="10.8484783"><ele>27.0</ele><time>2026-04-06T07:55:21.005Z</time></trkpt><trkpt lat="45.208267" lon="10.8486365"><ele>28.0</ele><time>2026-04-06T07:55:22.005Z</time></trkpt><trkpt lat="45.2085701" lon="10.848794"><ele>28.0</ele><time>2026-04-06T07:55:23.005Z</time></trkpt><trkpt lat="45.208876" lon="10.8489502"><ele>28.0</ele><time>2026-04-06T07:55:24.005Z</time></trkpt><trkpt lat="45.2091789" lon="10.8491036"><ele>28.0</ele><time>2026-04-06T07:55:25.004Z</time></trkpt><trkpt lat="45.2094784" lon="10.8492552"><ele>28.0</ele><time>2026-04-06T07:55:26.005Z</time></trkpt><trkpt lat="45.2097759" lon="10.8494061"><ele>27.0</ele><time>2026-04-06T07:55:27.004Z</time></trkpt><trkpt lat="45.2100705" lon="10.8495549"><ele>26.0</ele><time>2026-04-06T07:55:28.005Z</time></trkpt><trkpt lat="45.2103623" lon="10.8497043"><ele>26.0</ele><time>2026-04-06T07:55:29.005Z</time></trkpt><trkpt lat="45.2106515" lon="10.8498527"><ele>26.0</ele><time>2026-04-06T07:55:30.005Z</time></trkpt><trkpt lat="45.2109403" lon="10.8499985"><ele>28.0</ele><time>2026-04-06T07:55:31.004Z</time></trkpt><trkpt lat="45.2112294" lon="10.8501442"><ele>30.0</ele><time>2026-04-06T07:55:32.005Z</time></trkpt><trkpt lat="45.2115189" lon="10.8502905"><ele>30.0</ele><time>2026-04-06T07:55:33.005Z</time></trkpt><trkpt lat="45.2118098" lon="10.8504367"><ele>30.0</ele><time>2026-04-06T07:55:34.005Z</time></trkpt><trkpt lat="45.2120998" lon="10.8505836"><ele>28.0</ele><time>2026-04-06T07:55:35.005Z</time></trkpt><trkpt lat="45.2123914" lon="10.8507301"><ele>26.0</ele><time>2026-04-06T07:55:36.006Z</time></trkpt><trkpt lat="45.2126826" lon="10.8508765"><ele>26.0</ele><time>2026-04-06T07:55:37.005Z</time></trkpt><trkpt lat="45.2129752" lon="10.8510236"><ele>26.0</ele><time>2026-04-06T07:55:38.005Z</time></trkpt><trkpt lat="45.2132668" lon="10.8511716"><ele>26.0</ele><time>2026-04-06T07:55:39.004Z</time></trkpt><trkpt lat="45.2135585" lon="10.8513192"><ele>26.0</ele><time>2026-04-06T07:55:40.004Z</time></trkpt><trkpt lat="45.2138475" lon="10.8514604"><ele>26.5</ele><time>2026-04-06T07:55:41.005Z</time></trkpt><trkpt lat="45.2141388" lon="10.8515996"><ele>27.0</ele><time>2026-04-06T07:55:42.004Z</time></trkpt><trkpt lat="45.21443" lon="10.8517384"><ele>27.0</ele><time>2026-04-06T07:55:43.005Z</time></trkpt><trkpt lat="45.2147233" lon="10.8518781"><ele>27.0</ele><time>2026-04-06T07:55:44.005Z</time></trkpt><trkpt lat="45.2150192" lon="10.8520226"><ele>27.0</ele><time>2026-04-06T07:55:45.005Z</time></trkpt><trkpt lat="45.2153159" lon="10.8521674"><ele>27.0</ele><time>2026-04-06T07:55:46.005Z</time></trkpt><trkpt lat="45.2156124" lon="10.8523146"><ele>27.5</ele><time>2026-04-06T07:55:47.005Z</time></trkpt><trkpt lat="45.2159099" lon="10.852464"><ele>28.0</ele><time>2026-04-06T07:55:48.004Z</time></trkpt><trkpt lat="45.2162074" lon="10.852616"><ele>28.0</ele><time>2026-04-06T07:55:49.004Z</time></trkpt><trkpt lat="45.2165043" lon="10.8527688"><ele>28.0</ele><time>2026-04-06T07:55:50.005Z</time></trkpt><trkpt lat="45.2168027" lon="10.852922"><ele>28.0</ele><time>2026-04-06T07:55:51.004Z</time></trkpt><trkpt lat="45.2171013" lon="10.8530756"><ele>28.0</ele><time>2026-04-06T07:55:52.006Z</time></trkpt><trkpt lat="45.2174012" lon="10.8532309"><ele>27.5</ele><time>2026-04-06T07:55:53.006Z</time></trkpt><trkpt lat="45.2176975" lon="10.8533846"><ele>27.0</ele><time>2026-04-06T07:55:54.006Z</time></trkpt><trkpt lat="45.2179894" lon="10.8535337"><ele>27.5</ele><time>2026-04-06T07:55:55.004Z</time></trkpt><trkpt lat="45.2182815" lon="10.8536819"><ele>28.0</ele><time>2026-04-06T07:55:56.004Z</time></trkpt><trkpt lat="45.2185735" lon="10.8538271"><ele>28.0</ele><time>2026-04-06T07:55:57.005Z</time></trkpt><trkpt lat="45.2188651" lon="10.8539717"><ele>28.0</ele><time>2026-04-06T07:55:58.005Z</time></trkpt><trkpt lat="45.2191563" lon="10.8541159"><ele>28.0</ele><time>2026-04-06T07:55:59.005Z</time></trkpt><trkpt lat="45.219447" lon="10.854264"><ele>28.0</ele><time>2026-04-06T07:56:00.004Z</time></trkpt><trkpt lat="45.2197376" lon="10.8544153"><ele>28.0</ele><time>2026-04-06T07:56:01.006Z</time></trkpt><trkpt lat="45.220029" lon="10.8545666"><ele>28.0</ele><time>2026-04-06T07:56:02.004Z</time></trkpt><trkpt lat="45.2203226" lon="10.8547168"><ele>28.0</ele><time>2026-04-06T07:56:03.006Z</time></trkpt><trkpt lat="45.2206181" lon="10.8548652"><ele>28.0</ele><time>2026-04-06T07:56:04.006Z</time></trkpt><trkpt lat="45.2209143" lon="10.8550131"><ele>28.0</ele><time>2026-04-06T07:56:05.005Z</time></trkpt><trkpt lat="45.2212112" lon="10.8551632"><ele>28.0</ele><time>2026-04-06T07:56:06.005Z</time></trkpt><trkpt lat="45.2215086" lon="10.8553156"><ele>28.0</ele><time>2026-04-06T07:56:07.006Z</time></trkpt><trkpt lat="45.2218054" lon="10.8554686"><ele>28.0</ele><time>2026-04-06T07:56:08.004Z</time></trkpt><trkpt lat="45.2221027" lon="10.8556205"><ele>27.5</ele><time>2026-04-06T07:56:09.004Z</time></trkpt><trkpt lat="45.2223987" lon="10.8557723"><ele>27.0</ele><time>2026-04-06T07:56:10.005Z</time></trkpt><trkpt lat="45.2226912" lon="10.8559236"><ele>27.0</ele><time>2026-04-06T07:56:11.004Z</time></trkpt><trkpt lat="45.2229809" lon="10.8560743"><ele>27.0</ele><time>2026-04-06T07:56:12.004Z</time></trkpt><trkpt lat="45.2232703" lon="10.8562223"><ele>27.0</ele><time>2026-04-06T07:56:13.005Z</time></trkpt><trkpt lat="45.2235607" lon="10.8563677"><ele>27.0</ele><time>2026-04-06T07:56:14.005Z</time></trkpt><trkpt lat="45.2238524" lon="10.8565117"><ele>27.5</ele><time>2026-04-06T07:56:15.005Z</time></trkpt><trkpt lat="45.2241443" lon="10.8566566"><ele>28.0</ele><time>2026-04-06T07:56:16.005Z</time></trkpt><trkpt lat="45.2244368" lon="10.8568028"><ele>28.5</ele><time>2026-04-06T07:56:17.006Z</time></trkpt><trkpt lat="45.2247299" lon="10.8569508"><ele>29.0</ele><time>2026-04-06T07:56:18.005Z</time></trkpt><trkpt lat="45.2250229" lon="10.8571013"><ele>29.0</ele><time>2026-04-06T07:56:19.005Z</time></trkpt><trkpt lat="45.2253154" lon="10.8572535"><ele>29.0</ele><time>2026-04-06T07:56:20.005Z</time></trkpt><trkpt lat="45.2256084" lon="10.8574052"><ele>29.0</ele><time>2026-04-06T07:56:21.005Z</time></trkpt><trkpt lat="45.2259021" lon="10.857555"><ele>29.0</ele><time>2026-04-06T07:56:22.006Z</time></trkpt><trkpt lat="45.2261966" lon="10.8577039"><ele>28.0</ele><time>2026-04-06T07:56:23.005Z</time></trkpt><trkpt lat="45.2264913" lon="10.8578534"><ele>27.0</ele><time>2026-04-06T07:56:24.005Z</time></trkpt><trkpt lat="45.2267866" lon="10.8580039"><ele>27.0</ele><time>2026-04-06T07:56:25.006Z</time></trkpt><trkpt lat="45.2270828" lon="10.8581551"><ele>27.0</ele><time>2026-04-06T07:56:26.005Z</time></trkpt><trkpt lat="45.2273801" lon="10.8583046"><ele>27.5</ele><time>2026-04-06T07:56:27.004Z</time></trkpt><trkpt lat="45.2276775" lon="10.8584542"><ele>28.0</ele><time>2026-04-06T07:56:28.005Z</time></trkpt><trkpt lat="45.2279708" lon="10.8586037"><ele>28.5</ele><time>2026-04-06T07:56:29.004Z</time></trkpt><trkpt lat="45.2282615" lon="10.8587521"><ele>29.0</ele><time>2026-04-06T07:56:30.005Z</time></trkpt><trkpt lat="45.2285515" lon="10.8588988"><ele>29.0</ele><time>2026-04-06T07:56:31.004Z</time></trkpt><trkpt lat="45.2288415" lon="10.8590451"><ele>29.0</ele><time>2026-04-06T07:56:32.004Z</time></trkpt><trkpt lat="45.2291312" lon="10.8591951"><ele>28.5</ele><time>2026-04-06T07:56:33.005Z</time></trkpt><trkpt lat="45.2294207" lon="10.8593492"><ele>28.0</ele><time>2026-04-06T07:56:34.004Z</time></trkpt><trkpt lat="45.2297097" lon="10.8595085"><ele>28.5</ele><time>2026-04-06T07:56:35.005Z</time></trkpt><trkpt lat="45.2299994" lon="10.8596711"><ele>29.0</ele><time>2026-04-06T07:56:36.004Z</time></trkpt><trkpt lat="45.2302932" lon="10.8598331"><ele>29.0</ele><time>2026-04-06T07:56:37.005Z</time></trkpt><trkpt lat="45.2305868" lon="10.8599932"><ele>29.0</ele><time>2026-04-06T07:56:38.005Z</time></trkpt><trkpt lat="45.2308827" lon="10.8601478"><ele>27.5</ele><time>2026-04-06T07:56:39.004Z</time></trkpt><trkpt lat="45.231177" lon="10.8602972"><ele>26.0</ele><time>2026-04-06T07:56:40.005Z</time></trkpt><trkpt lat="45.23147" lon="10.8604422"><ele>27.0</ele><time>2026-04-06T07:56:41.004Z</time></trkpt><trkpt lat="45.2317617" lon="10.8605855"><ele>28.0</ele><time>2026-04-06T07:56:42.005Z</time></trkpt><trkpt lat="45.2320514" lon="10.8607266"><ele>28.0</ele><time>2026-04-06T07:56:43.004Z</time></trkpt><trkpt lat="45.2323393" lon="10.8608722"><ele>28.0</ele><time>2026-04-06T07:56:44.004Z</time></trkpt><trkpt lat="45.2326253" lon="10.8610202"><ele>28.0</ele><time>2026-04-06T07:56:45.005Z</time></trkpt><trkpt lat="45.2329113" lon="10.8611694"><ele>28.0</ele><time>2026-04-06T07:56:46.006Z</time></trkpt><trkpt lat="45.2331973" lon="10.8613175"><ele>28.0</ele><time>2026-04-06T07:56:47.004Z</time></trkpt><trkpt lat="45.2334838" lon="10.8614641"><ele>28.0</ele><time>2026-04-06T07:56:48.004Z</time></trkpt><trkpt lat="45.2337708" lon="10.8616096"><ele>28.5</ele><time>2026-04-06T07:56:49.004Z</time></trkpt><trkpt lat="45.2340582" lon="10.8617543"><ele>29.0</ele><time>2026-04-06T07:56:50.004Z</time></trkpt><trkpt lat="45.2343468" lon="10.8618986"><ele>29.0</ele><time>2026-04-06T07:56:51.006Z</time></trkpt><trkpt lat="45.2346333" lon="10.862037"><ele>29.0</ele><time>2026-04-06T07:56:52.005Z</time></trkpt><trkpt lat="45.2349222" lon="10.8621728"><ele>29.0</ele><time>2026-04-06T07:56:53.005Z</time></trkpt><trkpt lat="45.2352131" lon="10.862306"><ele>29.0</ele><time>2026-04-06T07:56:54.005Z</time></trkpt><trkpt lat="45.2355064" lon="10.862435"><ele>28.5</ele><time>2026-04-06T07:56:55.004Z</time></trkpt><trkpt lat="45.2358035" lon="10.8625585"><ele>28.0</ele><time>2026-04-06T07:56:56.005Z</time></trkpt><trkpt lat="45.2361042" lon="10.8626781"><ele>28.0</ele><time>2026-04-06T07:56:57.005Z</time></trkpt><trkpt lat="45.236408" lon="10.8627931"><ele>28.0</ele><time>2026-04-06T07:56:58.005Z</time></trkpt><trkpt lat="45.2367144" lon="10.8629023"><ele>28.0</ele><time>2026-04-06T07:56:59.005Z</time></trkpt><trkpt lat="45.2370235" lon="10.8630085"><ele>28.0</ele><time>2026-04-06T07:57:00.004Z</time></trkpt><trkpt lat="45.2373347" lon="10.8631127"><ele>28.0</ele><time>2026-04-06T07:57:01.005Z</time></trkpt><trkpt lat="45.2376425" lon="10.8632143"><ele>28.0</ele><time>2026-04-06T07:57:02.005Z</time></trkpt><trkpt lat="45.2379502" lon="10.8633143"><ele>29.0</ele><time>2026-04-06T07:57:03.004Z</time></trkpt><trkpt lat="45.2382536" lon="10.8634117"><ele>30.0</ele><time>2026-04-06T07:57:04.004Z</time></trkpt><trkpt lat="45.2385552" lon="10.8635038"><ele>30.0</ele><time>2026-04-06T07:57:05.005Z</time></trkpt><trkpt lat="45.238857" lon="10.8635965"><ele>30.0</ele><time>2026-04-06T07:57:06.006Z</time></trkpt><trkpt lat="45.2391585" lon="10.863692"><ele>30.0</ele><time>2026-04-06T07:57:07.004Z</time></trkpt><trkpt lat="45.2394608" lon="10.8637891"><ele>30.0</ele><time>2026-04-06T07:57:08.006Z</time></trkpt><trkpt lat="45.2397599" lon="10.8638848"><ele>30.0</ele><time>2026-04-06T07:57:09.005Z</time></trkpt><trkpt lat="45.2400603" lon="10.86398"><ele>30.0</ele><time>2026-04-06T07:57:10.005Z</time></trkpt><trkpt lat="45.2403624" lon="10.8640702"><ele>31.5</ele><time>2026-04-06T07:57:11.005Z</time></trkpt><trkpt lat="45.240668" lon="10.864157"><ele>33.0</ele><time>2026-04-06T07:57:12.005Z</time></trkpt><trkpt lat="45.2409754" lon="10.8642442"><ele>32.5</ele><time>2026-04-06T07:57:13.005Z</time></trkpt><trkpt lat="45.2412849" lon="10.8643332"><ele>32.0</ele><time>2026-04-06T07:57:14.004Z</time></trkpt><trkpt lat="45.2415959" lon="10.8644294"><ele>31.5</ele><time>2026-04-06T07:57:15.005Z</time></trkpt><trkpt lat="45.2419058" lon="10.8645281"><ele>31.0</ele><time>2026-04-06T07:57:16.004Z</time></trkpt><trkpt lat="45.2422173" lon="10.8646322"><ele>30.5</ele><time>2026-04-06T07:57:17.006Z</time></trkpt><trkpt lat="45.2425281" lon="10.8647408"><ele>30.0</ele><time>2026-04-06T07:57:18.004Z</time></trkpt><trkpt lat="45.2428392" lon="10.8648494"><ele>30.5</ele><time>2026-04-06T07:57:19.005Z</time></trkpt><trkpt lat="45.2431504" lon="10.8649551"><ele>31.0</ele><time>2026-04-06T07:57:20.004Z</time></trkpt><trkpt lat="45.2434579" lon="10.8650562"><ele>30.5</ele><time>2026-04-06T07:57:21.005Z</time></trkpt><trkpt lat="45.2437611" lon="10.8651546"><ele>30.0</ele><time>2026-04-06T07:57:22.006Z</time></trkpt><trkpt lat="45.2440626" lon="10.8652489"><ele>29.5</ele><time>2026-04-06T07:57:23.005Z</time></trkpt><trkpt lat="45.2443617" lon="10.8653413"><ele>29.0</ele><time>2026-04-06T07:57:24.005Z</time></trkpt><trkpt lat="45.2446592" lon="10.8654335"><ele>30.5</ele><time>2026-04-06T07:57:25.006Z</time></trkpt><trkpt lat="45.2449563" lon="10.8655284"><ele>32.0</ele><time>2026-04-06T07:57:26.004Z</time></trkpt><trkpt lat="45.2452531" lon="10.8656261"><ele>32.0</ele><time>2026-04-06T07:57:27.005Z</time></trkpt><trkpt lat="45.245551" lon="10.865726"><ele>32.0</ele><time>2026-04-06T07:57:28.004Z</time></trkpt><trkpt lat="45.2458525" lon="10.8658238"><ele>31.5</ele><time>2026-04-06T07:57:29.004Z</time></trkpt><trkpt lat="45.2461562" lon="10.8659195"><ele>31.0</ele><time>2026-04-06T07:57:30.005Z</time></trkpt><trkpt lat="45.2464621" lon="10.8660141"><ele>30.5</ele><time>2026-04-06T07:57:31.005Z</time></trkpt><trkpt lat="45.2467695" lon="10.8661094"><ele>30.0</ele><time>2026-04-06T07:57:32.004Z</time></trkpt><trkpt lat="45.247078" lon="10.8662074"><ele>31.5</ele><time>2026-04-06T07:57:33.005Z</time></trkpt><trkpt lat="45.2473875" lon="10.8663059"><ele>33.0</ele><time>2026-04-06T07:57:34.004Z</time></trkpt><trkpt lat="45.2476986" lon="10.866405"><ele>33.0</ele><time>2026-04-06T07:57:35.004Z</time></trkpt><trkpt lat="45.2480118" lon="10.8665037"><ele>33.0</ele><time>2026-04-06T07:57:36.006Z</time></trkpt><trkpt lat="45.2483225" lon="10.8666011"><ele>33.0</ele><time>2026-04-06T07:57:37.006Z</time></trkpt><trkpt lat="45.2486299" lon="10.866699"><ele>33.0</ele><time>2026-04-06T07:57:38.004Z</time></trkpt><trkpt lat="45.2489338" lon="10.8667974"><ele>32.5</ele><time>2026-04-06T07:57:39.004Z</time></trkpt><trkpt lat="45.2492332" lon="10.8668942"><ele>32.0</ele><time>2026-04-06T07:57:40.004Z</time></trkpt><trkpt lat="45.2495308" lon="10.8669912"><ele>31.0</ele><time>2026-04-06T07:57:41.006Z</time></trkpt><trkpt lat="45.2498268" lon="10.8670872"><ele>30.0</ele><time>2026-04-06T07:57:42.004Z</time></trkpt><trkpt lat="45.2501213" lon="10.8671821"><ele>30.0</ele><time>2026-04-06T07:57:43.005Z</time></trkpt><trkpt lat="45.2504169" lon="10.8672761"><ele>30.0</ele><time>2026-04-06T07:57:44.004Z</time></trkpt><trkpt lat="45.250713" lon="10.8673679"><ele>30.0</ele><time>2026-04-06T07:57:45.004Z</time></trkpt><trkpt lat="45.2510094" lon="10.8674577"><ele>30.0</ele><time>2026-04-06T07:57:46.005Z</time></trkpt><trkpt lat="45.2513052" lon="10.8675492"><ele>30.5</ele><time>2026-04-06T07:57:47.004Z</time></trkpt><trkpt lat="45.2516007" lon="10.8676444"><ele>31.0</ele><time>2026-04-06T07:57:48.004Z</time></trkpt><trkpt lat="45.2518969" lon="10.8677419"><ele>31.0</ele><time>2026-04-06T07:57:49.004Z</time></trkpt><trkpt lat="45.2521935" lon="10.867839"><ele>31.0</ele><time>2026-04-06T07:57:50.006Z</time></trkpt><trkpt lat="45.2524916" lon="10.8679364"><ele>30.5</ele><time>2026-04-06T07:57:51.004Z</time></trkpt><trkpt lat="45.2527911" lon="10.8680337"><ele>30.0</ele><time>2026-04-06T07:57:52.005Z</time></trkpt><trkpt lat="45.2530923" lon="10.8681291"><ele>31.0</ele><time>2026-04-06T07:57:53.006Z</time></trkpt><trkpt lat="45.2533953" lon="10.8682227"><ele>32.0</ele><time>2026-04-06T07:57:54.005Z</time></trkpt><trkpt lat="45.2536988" lon="10.8683163"><ele>32.5</ele><time>2026-04-06T07:57:55.005Z</time></trkpt><trkpt lat="45.254003" lon="10.8684113"><ele>33.0</ele><time>2026-04-06T07:57:56.005Z</time></trkpt><trkpt lat="45.2543071" lon="10.8685049"><ele>32.0</ele><time>2026-04-06T07:57:57.005Z</time></trkpt><trkpt lat="45.2546131" lon="10.8685976"><ele>31.0</ele><time>2026-04-06T07:57:58.005Z</time></trkpt><trkpt lat="45.2549222" lon="10.8686897"><ele>31.0</ele><time>2026-04-06T07:57:59.007Z</time></trkpt><trkpt lat="45.2552322" lon="10.8687807"><ele>31.0</ele><time>2026-04-06T07:58:00.005Z</time></trkpt><trkpt lat="45.2555449" lon="10.8688717"><ele>31.5</ele><time>2026-04-06T07:58:01.005Z</time></trkpt><trkpt lat="45.2558554" lon="10.8689645"><ele>32.0</ele><time>2026-04-06T07:58:02.006Z</time></trkpt><trkpt lat="45.2561656" lon="10.86906"><ele>31.5</ele><time>2026-04-06T07:58:03.007Z</time></trkpt><trkpt lat="45.2564746" lon="10.8691612"><ele>31.0</ele><time>2026-04-06T07:58:04.006Z</time></trkpt><trkpt lat="45.2567828" lon="10.8692617"><ele>31.5</ele><time>2026-04-06T07:58:05.006Z</time></trkpt><trkpt lat="45.2570898" lon="10.8693585"><ele>32.0</ele><time>2026-04-06T07:58:06.006Z</time></trkpt><trkpt lat="45.2573947" lon="10.8694578"><ele>31.0</ele><time>2026-04-06T07:58:07.005Z</time></trkpt><trkpt lat="45.2576966" lon="10.8695544"><ele>30.0</ele><time>2026-04-06T07:58:08.006Z</time></trkpt><trkpt lat="45.258001" lon="10.8696545"><ele>30.0</ele><time>2026-04-06T07:58:09.005Z</time></trkpt><trkpt lat="45.2583052" lon="10.8697567"><ele>30.0</ele><time>2026-04-06T07:58:10.006Z</time></trkpt><trkpt lat="45.258609" lon="10.86986"><ele>30.0</ele><time>2026-04-06T07:58:11.007Z</time></trkpt><trkpt lat="45.2589124" lon="10.8699642"><ele>30.0</ele><time>2026-04-06T07:58:12.005Z</time></trkpt><trkpt lat="45.259218" lon="10.8700668"><ele>30.5</ele><time>2026-04-06T07:58:13.005Z</time></trkpt><trkpt lat="45.2595229" lon="10.8701663"><ele>31.0</ele><time>2026-04-06T07:58:14.005Z</time></trkpt><trkpt lat="45.2598286" lon="10.8702661"><ele>31.0</ele><time>2026-04-06T07:58:15.005Z</time></trkpt><trkpt lat="45.2601352" lon="10.8703661"><ele>31.0</ele><time>2026-04-06T07:58:16.005Z</time></trkpt><trkpt lat="45.2604406" lon="10.8704649"><ele>31.5</ele><time>2026-04-06T07:58:17.006Z</time></trkpt><trkpt lat="45.2607446" lon="10.8705637"><ele>32.0</ele><time>2026-04-06T07:58:18.006Z</time></trkpt><trkpt lat="45.261048" lon="10.8706617"><ele>32.0</ele><time>2026-04-06T07:58:19.006Z</time></trkpt><trkpt lat="45.2613513" lon="10.8707599"><ele>32.0</ele><time>2026-04-06T07:58:20.007Z</time></trkpt><trkpt lat="45.2616553" lon="10.8708563"><ele>32.5</ele><time>2026-04-06T07:58:21.007Z</time></trkpt><trkpt lat="45.2619586" lon="10.8709513"><ele>33.0</ele><time>2026-04-06T07:58:22.006Z</time></trkpt><trkpt lat="45.2622643" lon="10.8710464"><ele>33.0</ele><time>2026-04-06T07:58:23.006Z</time></trkpt><trkpt lat="45.2625689" lon="10.8711417"><ele>33.0</ele><time>2026-04-06T07:58:24.005Z</time></trkpt><trkpt lat="45.262874" lon="10.8712384"><ele>32.5</ele><time>2026-04-06T07:58:25.005Z</time></trkpt><trkpt lat="45.2631797" lon="10.8713369"><ele>32.0</ele><time>2026-04-06T07:58:26.006Z</time></trkpt><trkpt lat="45.2634859" lon="10.871435"><ele>32.0</ele><time>2026-04-06T07:58:27.007Z</time></trkpt><trkpt lat="45.2637913" lon="10.8715311"><ele>32.0</ele><time>2026-04-06T07:58:28.006Z</time></trkpt><trkpt lat="45.2640942" lon="10.8716266"><ele>32.5</ele><time>2026-04-06T07:58:29.006Z</time></trkpt><trkpt lat="45.2643956" lon="10.8717221"><ele>33.0</ele><time>2026-04-06T07:58:30.006Z</time></trkpt><trkpt lat="45.2646955" lon="10.8718181"><ele>32.5</ele><time>2026-04-06T07:58:31.005Z</time></trkpt><trkpt lat="45.2649946" lon="10.8719139"><ele>32.0</ele><time>2026-04-06T07:58:32.007Z</time></trkpt><trkpt lat="45.2652953" lon="10.8720073"><ele>32.0</ele><time>2026-04-06T07:58:33.006Z</time></trkpt><trkpt lat="45.2655995" lon="10.8720949"><ele>32.0</ele><time>2026-04-06T07:58:34.005Z</time></trkpt><trkpt lat="45.2659042" lon="10.8721795"><ele>32.5</ele><time>2026-04-06T07:58:35.005Z</time></trkpt><trkpt lat="45.2662094" lon="10.8722677"><ele>33.0</ele><time>2026-04-06T07:58:36.006Z</time></trkpt><trkpt lat="45.2665138" lon="10.872359"><ele>33.0</ele><time>2026-04-06T07:58:37.005Z</time></trkpt><trkpt lat="45.2668162" lon="10.8724547"><ele>33.0</ele><time>2026-04-06T07:58:38.006Z</time></trkpt><trkpt lat="45.2671169" lon="10.8725522"><ele>32.0</ele><time>2026-04-06T07:58:39.005Z</time></trkpt><trkpt lat="45.2674163" lon="10.8726505"><ele>31.0</ele><time>2026-04-06T07:58:40.006Z</time></trkpt><trkpt lat="45.267717" lon="10.8727494"><ele>31.0</ele><time>2026-04-06T07:58:41.006Z</time></trkpt><trkpt lat="45.2680152" lon="10.8728576"><ele>31.0</ele><time>2026-04-06T07:58:42.006Z</time></trkpt><trkpt lat="45.2683106" lon="10.8729763"><ele>32.0</ele><time>2026-04-06T07:58:43.005Z</time></trkpt><trkpt lat="45.2686048" lon="10.8731017"><ele>33.0</ele><time>2026-04-06T07:58:44.006Z</time></trkpt><trkpt lat="45.2688977" lon="10.8732312"><ele>32.5</ele><time>2026-04-06T07:58:45.006Z</time></trkpt><trkpt lat="45.2691913" lon="10.8733641"><ele>32.0</ele><time>2026-04-06T07:58:46.005Z</time></trkpt><trkpt lat="45.2694834" lon="10.8735021"><ele>32.5</ele><time>2026-04-06T07:58:47.007Z</time></trkpt><trkpt lat="45.269772" lon="10.8736466"><ele>33.0</ele><time>2026-04-06T07:58:48.005Z</time></trkpt><trkpt lat="45.2700593" lon="10.8737987"><ele>33.0</ele><time>2026-04-06T07:58:49.006Z</time></trkpt><trkpt lat="45.2703449" lon="10.8739581"><ele>33.0</ele><time>2026-04-06T07:58:50.006Z</time></trkpt><trkpt lat="45.2706301" lon="10.8741234"><ele>33.0</ele><time>2026-04-06T07:58:51.005Z</time></trkpt><trkpt lat="45.2709157" lon="10.8742914"><ele>33.0</ele><time>2026-04-06T07:58:52.006Z</time></trkpt><trkpt lat="45.2712014" lon="10.8744649"><ele>33.5</ele><time>2026-04-06T07:58:53.006Z</time></trkpt><trkpt lat="45.2714847" lon="10.8746433"><ele>34.0</ele><time>2026-04-06T07:58:54.006Z</time></trkpt><trkpt lat="45.2717658" lon="10.8748291"><ele>34.0</ele><time>2026-04-06T07:58:55.006Z</time></trkpt><trkpt lat="45.2720459" lon="10.8750202"><ele>34.0</ele><time>2026-04-06T07:58:56.007Z</time></trkpt><trkpt lat="45.2723245" lon="10.8752206"><ele>33.5</ele><time>2026-04-06T07:58:57.005Z</time></trkpt><trkpt lat="45.272608" lon="10.8754312"><ele>33.0</ele><time>2026-04-06T07:58:58.005Z</time></trkpt><trkpt lat="45.2728991" lon="10.8756495"><ele>33.0</ele><time>2026-04-06T07:58:59.005Z</time></trkpt><trkpt lat="45.2731799" lon="10.8758646"><ele>33.0</ele><time>2026-04-06T07:59:00.006Z</time></trkpt><trkpt lat="45.2734508" lon="10.8760777"><ele>33.0</ele><time>2026-04-06T07:59:01.005Z</time></trkpt><trkpt lat="45.2737206" lon="10.8762906"><ele>33.0</ele><time>2026-04-06T07:59:02.006Z</time></trkpt><trkpt lat="45.273987" lon="10.8765017"><ele>33.0</ele><time>2026-04-06T07:59:03.005Z</time></trkpt><trkpt lat="45.2742528" lon="10.876709"><ele>33.0</ele><time>2026-04-06T07:59:04.007Z</time></trkpt><trkpt lat="45.2745177" lon="10.8769126"><ele>33.5</ele><time>2026-04-06T07:59:05.006Z</time></trkpt><trkpt lat="45.2747835" lon="10.8771167"><ele>34.0</ele><time>2026-04-06T07:59:06.007Z</time></trkpt><trkpt lat="45.2750483" lon="10.8773217"><ele>34.0</ele><time>2026-04-06T07:59:07.006Z</time></trkpt><trkpt lat="45.2753122" lon="10.8775268"><ele>34.0</ele><time>2026-04-06T07:59:08.006Z</time></trkpt><trkpt lat="45.2755774" lon="10.8777326"><ele>35.0</ele><time>2026-04-06T07:59:09.007Z</time></trkpt><trkpt lat="45.2758412" lon="10.8779419"><ele>36.0</ele><time>2026-04-06T07:59:10.007Z</time></trkpt><trkpt lat="45.2761086" lon="10.8781524"><ele>36.0</ele><time>2026-04-06T07:59:11.006Z</time></trkpt><trkpt lat="45.276377" lon="10.8783618"><ele>36.0</ele><time>2026-04-06T07:59:12.006Z</time></trkpt><trkpt lat="45.276647" lon="10.8785719"><ele>36.0</ele><time>2026-04-06T07:59:13.006Z</time></trkpt><trkpt lat="45.2769182" lon="10.8787829"><ele>36.0</ele><time>2026-04-06T07:59:14.006Z</time></trkpt><trkpt lat="45.277192" lon="10.8789975"><ele>36.5</ele><time>2026-04-06T07:59:15.005Z</time></trkpt><trkpt lat="45.277466" lon="10.8792114"><ele>37.0</ele><time>2026-04-06T07:59:16.006Z</time></trkpt><trkpt lat="45.2777426" lon="10.8794276"><ele>36.5</ele><time>2026-04-06T07:59:17.006Z</time></trkpt><trkpt lat="45.2780225" lon="10.879645"><ele>36.0</ele><time>2026-04-06T07:59:18.005Z</time></trkpt><trkpt lat="45.2783043" lon="10.8798648"><ele>36.0</ele><time>2026-04-06T07:59:19.005Z</time></trkpt><trkpt lat="45.2785878" lon="10.8800846"><ele>36.0</ele><time>2026-04-06T07:59:20.006Z</time></trkpt><trkpt lat="45.2788705" lon="10.8803047"><ele>35.0</ele><time>2026-04-06T07:59:21.006Z</time></trkpt><trkpt lat="45.2791519" lon="10.8805277"><ele>34.0</ele><time>2026-04-06T07:59:22.006Z</time></trkpt><trkpt lat="45.2794343" lon="10.8807501"><ele>33.5</ele><time>2026-04-06T07:59:23.006Z</time></trkpt><trkpt lat="45.2797165" lon="10.8809707"><ele>33.0</ele><time>2026-04-06T07:59:24.007Z</time></trkpt><trkpt lat="45.2799971" lon="10.881192"><ele>33.0</ele><time>2026-04-06T07:59:25.005Z</time></trkpt><trkpt lat="45.2802777" lon="10.8814102"><ele>33.0</ele><time>2026-04-06T07:59:26.006Z</time></trkpt><trkpt lat="45.2805594" lon="10.8816279"><ele>32.5</ele><time>2026-04-06T07:59:27.005Z</time></trkpt><trkpt lat="45.2808406" lon="10.8818465"><ele>32.0</ele><time>2026-04-06T07:59:28.006Z</time></trkpt><trkpt lat="45.2811218" lon="10.8820662"><ele>32.0</ele><time>2026-04-06T07:59:29.006Z</time></trkpt><trkpt lat="45.2814037" lon="10.8822843"><ele>32.0</ele><time>2026-04-06T07:59:30.006Z</time></trkpt><trkpt lat="45.2816826" lon="10.8825001"><ele>32.0</ele><time>2026-04-06T07:59:31.006Z</time></trkpt><trkpt lat="45.2819588" lon="10.8827164"><ele>32.0</ele><time>2026-04-06T07:59:32.006Z</time></trkpt><trkpt lat="45.2822338" lon="10.8829335"><ele>34.5</ele><time>2026-04-06T07:59:33.006Z</time></trkpt><trkpt lat="45.2825081" lon="10.8831489"><ele>37.0</ele><time>2026-04-06T07:59:34.006Z</time></trkpt><trkpt lat="45.282782" lon="10.8833627"><ele>37.0</ele><time>2026-04-06T07:59:35.005Z</time></trkpt><trkpt lat="45.2830543" lon="10.8835755"><ele>37.0</ele><time>2026-04-06T07:59:36.006Z</time></trkpt><trkpt lat="45.2833258" lon="10.8837877"><ele>34.5</ele><time>2026-04-06T07:59:37.006Z</time></trkpt><trkpt lat="45.2835986" lon="10.8840001"><ele>32.0</ele><time>2026-04-06T07:59:38.006Z</time></trkpt><trkpt lat="45.2838728" lon="10.8842126"><ele>32.5</ele><time>2026-04-06T07:59:39.006Z</time></trkpt><trkpt lat="45.2841477" lon="10.8844255"><ele>33.0</ele><time>2026-04-06T07:59:40.007Z</time></trkpt><trkpt lat="45.2844234" lon="10.8846397"><ele>33.0</ele><time>2026-04-06T07:59:41.006Z</time></trkpt><trkpt lat="45.284699" lon="10.8848552"><ele>33.0</ele><time>2026-04-06T07:59:42.006Z</time></trkpt><trkpt lat="45.2849733" lon="10.885071"><ele>32.5</ele><time>2026-04-06T07:59:43.006Z</time></trkpt><trkpt lat="45.2852477" lon="10.8852868"><ele>32.0</ele><time>2026-04-06T07:59:44.006Z</time></trkpt><trkpt lat="45.2855244" lon="10.8855008"><ele>32.5</ele><time>2026-04-06T07:59:45.006Z</time></trkpt><trkpt lat="45.2858005" lon="10.8857139"><ele>33.0</ele><time>2026-04-06T07:59:46.007Z</time></trkpt><trkpt lat="45.2860723" lon="10.8859248"><ele>33.0</ele><time>2026-04-06T07:59:47.006Z</time></trkpt><trkpt lat="45.2863433" lon="10.8861363"><ele>33.0</ele><time>2026-04-06T07:59:48.006Z</time></trkpt><trkpt lat="45.2866116" lon="10.8863492"><ele>33.0</ele><time>2026-04-06T07:59:49.006Z</time></trkpt><trkpt lat="45.2868787" lon="10.8865632"><ele>33.0</ele><time>2026-04-06T07:59:50.007Z</time></trkpt><trkpt lat="45.2871448" lon="10.8867802"><ele>33.5</ele><time>2026-04-06T07:59:51.006Z</time></trkpt><trkpt lat="45.2874096" lon="10.8870024"><ele>34.0</ele><time>2026-04-06T07:59:52.007Z</time></trkpt><trkpt lat="45.2876742" lon="10.8872301"><ele>34.0</ele><time>2026-04-06T07:59:53.005Z</time></trkpt><trkpt lat="45.2879377" lon="10.8874633"><ele>34.0</ele><time>2026-04-06T07:59:54.007Z</time></trkpt><trkpt lat="45.2882002" lon="10.8877036"><ele>34.5</ele><time>2026-04-06T07:59:55.006Z</time></trkpt><trkpt lat="45.2884618" lon="10.8879491"><ele>35.0</ele><time>2026-04-06T07:59:56.006Z</time></trkpt><trkpt lat="45.2887216" lon="10.8881985"><ele>35.0</ele><time>2026-04-06T07:59:57.006Z</time></trkpt><trkpt lat="45.2889809" lon="10.8884526"><ele>35.0</ele><time>2026-04-06T07:59:58.007Z</time></trkpt><trkpt lat="45.2892382" lon="10.8887098"><ele>35.0</ele><time>2026-04-06T07:59:59.006Z</time></trkpt><trkpt lat="45.2894915" lon="10.8889667"><ele>35.0</ele><time>2026-04-06T08:00:00.005Z</time></trkpt><trkpt lat="45.2897416" lon="10.8892269"><ele>35.0</ele><time>2026-04-06T08:00:01.005Z</time></trkpt><trkpt lat="45.2899877" lon="10.8894935"><ele>35.0</ele><time>2026-04-06T08:00:02.005Z</time></trkpt><trkpt lat="45.2902324" lon="10.8897641"><ele>35.0</ele><time>2026-04-06T08:00:03.006Z</time></trkpt><trkpt lat="45.2904743" lon="10.8900381"><ele>35.0</ele><time>2026-04-06T08:00:04.007Z</time></trkpt><trkpt lat="45.2907135" lon="10.8903123"><ele>35.0</ele><time>2026-04-06T08:00:05.006Z</time></trkpt><trkpt lat="45.2909536" lon="10.8905791"><ele>35.0</ele><time>2026-04-06T08:00:06.006Z</time></trkpt><trkpt lat="45.2911946" lon="10.8908356"><ele>35.5</ele><time>2026-04-06T08:00:07.007Z</time></trkpt><trkpt lat="45.2914365" lon="10.8910889"><ele>36.0</ele><time>2026-04-06T08:00:08.005Z</time></trkpt><trkpt lat="45.2916763" lon="10.8913438"><ele>36.0</ele><time>2026-04-06T08:00:09.006Z</time></trkpt><trkpt lat="45.2919125" lon="10.8915973"><ele>36.0</ele><time>2026-04-06T08:00:10.007Z</time></trkpt><trkpt lat="45.2921503" lon="10.8918515"><ele>35.0</ele><time>2026-04-06T08:00:11.006Z</time></trkpt><trkpt lat="45.2923894" lon="10.8921038"><ele>34.0</ele><time>2026-04-06T08:00:12.005Z</time></trkpt><trkpt lat="45.2926279" lon="10.8923547"><ele>34.5</ele><time>2026-04-06T08:00:13.005Z</time></trkpt><trkpt lat="45.2928654" lon="10.8926043"><ele>35.0</ele><time>2026-04-06T08:00:14.006Z</time></trkpt><trkpt lat="45.2931011" lon="10.8928553"><ele>35.0</ele><time>2026-04-06T08:00:15.007Z</time></trkpt><trkpt lat="45.2933341" lon="10.8931053"><ele>35.0</ele><time>2026-04-06T08:00:16.005Z</time></trkpt><trkpt lat="45.2935651" lon="10.8933549"><ele>35.0</ele><time>2026-04-06T08:00:17.007Z</time></trkpt><trkpt lat="45.2937938" lon="10.8936024"><ele>35.0</ele><time>2026-04-06T08:00:18.005Z</time></trkpt><trkpt lat="45.294025" lon="10.893851"><ele>34.5</ele><time>2026-04-06T08:00:19.006Z</time></trkpt><trkpt lat="45.2942547" lon="10.8940936"><ele>34.0</ele><time>2026-04-06T08:00:20.006Z</time></trkpt><trkpt lat="45.2944866" lon="10.8943335"><ele>34.0</ele><time>2026-04-06T08:00:21.006Z</time></trkpt><trkpt lat="45.2947223" lon="10.8945735"><ele>34.0</ele><time>2026-04-06T08:00:22.005Z</time></trkpt><trkpt lat="45.294964" lon="10.8948186"><ele>34.0</ele><time>2026-04-06T08:00:23.006Z</time></trkpt><trkpt lat="45.2952093" lon="10.89507"><ele>34.0</ele><time>2026-04-06T08:00:24.007Z</time></trkpt><trkpt lat="45.2954571" lon="10.8953262"><ele>33.5</ele><time>2026-04-06T08:00:25.006Z</time></trkpt><trkpt lat="45.2957044" lon="10.8955844"><ele>33.0</ele><time>2026-04-06T08:00:26.006Z</time></trkpt><trkpt lat="45.2959519" lon="10.8958452"><ele>33.0</ele><time>2026-04-06T08:00:27.007Z</time></trkpt><trkpt lat="45.2961999" lon="10.8961084"><ele>33.0</ele><time>2026-04-06T08:00:28.006Z</time></trkpt><trkpt lat="45.2964473" lon="10.8963747"><ele>33.5</ele><time>2026-04-06T08:00:29.005Z</time></trkpt><trkpt lat="45.2966951" lon="10.896643"><ele>34.0</ele><time>2026-04-06T08:00:30.006Z</time></trkpt><trkpt lat="45.2969446" lon="10.8969116"><ele>34.0</ele><time>2026-04-06T08:00:31.006Z</time></trkpt><trkpt lat="45.2971971" lon="10.8971824"><ele>34.0</ele><time>2026-04-06T08:00:32.005Z</time></trkpt><trkpt lat="45.2974523" lon="10.8974542"><ele>34.5</ele><time>2026-04-06T08:00:33.007Z</time></trkpt><trkpt lat="45.2977082" lon="10.8977266"><ele>35.0</ele><time>2026-04-06T08:00:34.006Z</time></trkpt><trkpt lat="45.2979594" lon="10.8979927"><ele>35.0</ele><time>2026-04-06T08:00:35.006Z</time></trkpt><trkpt lat="45.2982089" lon="10.8982577"><ele>35.0</ele><time>2026-04-06T08:00:36.006Z</time></trkpt><trkpt lat="45.2984562" lon="10.8985238"><ele>35.0</ele><time>2026-04-06T08:00:37.006Z</time></trkpt><trkpt lat="45.2987039" lon="10.8987899"><ele>35.0</ele><time>2026-04-06T08:00:38.006Z</time></trkpt><trkpt lat="45.2989515" lon="10.8990577"><ele>34.0</ele><time>2026-04-06T08:00:39.005Z</time></trkpt><trkpt lat="45.2992004" lon="10.8993253"><ele>33.0</ele><time>2026-04-06T08:00:40.006Z</time></trkpt><trkpt lat="45.2994507" lon="10.8995928"><ele>33.0</ele><time>2026-04-06T08:00:41.006Z</time></trkpt><trkpt lat="45.2997018" lon="10.8998598"><ele>33.0</ele><time>2026-04-06T08:00:42.006Z</time></trkpt><trkpt lat="45.2999522" lon="10.9001279"><ele>34.0</ele><time>2026-04-06T08:00:43.007Z</time></trkpt><trkpt lat="45.3002037" lon="10.9003963"><ele>35.0</ele><time>2026-04-06T08:00:44.006Z</time></trkpt><trkpt lat="45.3004569" lon="10.900664"><ele>35.0</ele><time>2026-04-06T08:00:45.006Z</time></trkpt><trkpt lat="45.3007137" lon="10.9009326"><ele>35.0</ele><time>2026-04-06T08:00:46.006Z</time></trkpt><trkpt lat="45.3009735" lon="10.9011948"><ele>35.0</ele><time>2026-04-06T08:00:47.007Z</time></trkpt><trkpt lat="45.3012372" lon="10.9014525"><ele>35.0</ele><time>2026-04-06T08:00:48.006Z</time></trkpt><trkpt lat="45.3015039" lon="10.9017051"><ele>34.5</ele><time>2026-04-06T08:00:49.005Z</time></trkpt><trkpt lat="45.3017735" lon="10.9019514"><ele>34.0</ele><time>2026-04-06T08:00:50.006Z</time></trkpt><trkpt lat="45.302042" lon="10.9021935"><ele>35.0</ele><time>2026-04-06T08:00:51.006Z</time></trkpt><trkpt lat="45.3023091" lon="10.902433"><ele>36.0</ele><time>2026-04-06T08:00:52.005Z</time></trkpt><trkpt lat="45.3025758" lon="10.9026671"><ele>36.5</ele><time>2026-04-06T08:00:53.005Z</time></trkpt><trkpt lat="45.3028433" lon="10.9028967"><ele>37.0</ele><time>2026-04-06T08:00:54.005Z</time></trkpt><trkpt lat="45.3031135" lon="10.9031223"><ele>36.0</ele><time>2026-04-06T08:00:55.005Z</time></trkpt><trkpt lat="45.3033857" lon="10.9033422"><ele>35.0</ele><time>2026-04-06T08:00:56.007Z</time></trkpt><trkpt lat="45.303661" lon="10.9035567"><ele>37.0</ele><time>2026-04-06T08:00:57.005Z</time></trkpt><trkpt lat="45.3039376" lon="10.9037656"><ele>39.0</ele><time>2026-04-06T08:00:58.005Z</time></trkpt><trkpt lat="45.3042163" lon="10.9039705"><ele>39.0</ele><time>2026-04-06T08:00:59.005Z</time></trkpt><trkpt lat="45.3044966" lon="10.9041715"><ele>39.0</ele><time>2026-04-06T08:01:00.006Z</time></trkpt><trkpt lat="45.304779" lon="10.9043672"><ele>38.0</ele><time>2026-04-06T08:01:01.007Z</time></trkpt><trkpt lat="45.3050622" lon="10.9045569"><ele>37.0</ele><time>2026-04-06T08:01:02.006Z</time></trkpt><trkpt lat="45.3053464" lon="10.9047409"><ele>36.5</ele><time>2026-04-06T08:01:03.006Z</time></trkpt><trkpt lat="45.3056314" lon="10.9049206"><ele>36.0</ele><time>2026-04-06T08:01:04.007Z</time></trkpt><trkpt lat="45.3059181" lon="10.9050962"><ele>36.0</ele><time>2026-04-06T08:01:05.006Z</time></trkpt><trkpt lat="45.3062049" lon="10.9052676"><ele>36.0</ele><time>2026-04-06T08:01:06.005Z</time></trkpt><trkpt lat="45.3064932" lon="10.9054354"><ele>35.5</ele><time>2026-04-06T08:01:07.005Z</time></trkpt><trkpt lat="45.3067834" lon="10.9055972"><ele>35.0</ele><time>2026-04-06T08:01:08.007Z</time></trkpt><trkpt lat="45.3070751" lon="10.9057526"><ele>35.5</ele><time>2026-04-06T08:01:09.005Z</time></trkpt><trkpt lat="45.3073679" lon="10.9059013"><ele>36.0</ele><time>2026-04-06T08:01:10.006Z</time></trkpt><trkpt lat="45.3076609" lon="10.9060479"><ele>36.0</ele><time>2026-04-06T08:01:11.005Z</time></trkpt><trkpt lat="45.3079529" lon="10.9061933"><ele>36.0</ele><time>2026-04-06T08:01:12.006Z</time></trkpt><trkpt lat="45.308244" lon="10.9063393"><ele>36.0</ele><time>2026-04-06T08:01:13.006Z</time></trkpt><trkpt lat="45.3085348" lon="10.9064842"><ele>36.0</ele><time>2026-04-06T08:01:14.006Z</time></trkpt><trkpt lat="45.3088241" lon="10.9066286"><ele>35.0</ele><time>2026-04-06T08:01:15.006Z</time></trkpt><trkpt lat="45.3091124" lon="10.9067731"><ele>34.0</ele><time>2026-04-06T08:01:16.005Z</time></trkpt><trkpt lat="45.3094004" lon="10.9069167"><ele>34.0</ele><time>2026-04-06T08:01:17.005Z</time></trkpt><trkpt lat="45.3096872" lon="10.9070628"><ele>34.0</ele><time>2026-04-06T08:01:18.006Z</time></trkpt><trkpt lat="45.3099729" lon="10.9072095"><ele>35.0</ele><time>2026-04-06T08:01:19.006Z</time></trkpt><trkpt lat="45.3102582" lon="10.9073554"><ele>36.0</ele><time>2026-04-06T08:01:20.006Z</time></trkpt><trkpt lat="45.3105434" lon="10.9075002"><ele>35.5</ele><time>2026-04-06T08:01:21.005Z</time></trkpt><trkpt lat="45.3108295" lon="10.9076449"><ele>35.0</ele><time>2026-04-06T08:01:22.005Z</time></trkpt><trkpt lat="45.3111163" lon="10.9077893"><ele>35.0</ele><time>2026-04-06T08:01:23.005Z</time></trkpt><trkpt lat="45.3114045" lon="10.9079316"><ele>35.0</ele><time>2026-04-06T08:01:24.005Z</time></trkpt><trkpt lat="45.3116931" lon="10.9080731"><ele>35.0</ele><time>2026-04-06T08:01:25.006Z</time></trkpt><trkpt lat="45.3119816" lon="10.9082167"><ele>35.0</ele><time>2026-04-06T08:01:26.005Z</time></trkpt><trkpt lat="45.3122706" lon="10.9083626"><ele>35.0</ele><time>2026-04-06T08:01:27.005Z</time></trkpt><trkpt lat="45.3125596" lon="10.9085102"><ele>35.0</ele><time>2026-04-06T08:01:28.006Z</time></trkpt><trkpt lat="45.3128488" lon="10.908658"><ele>36.0</ele><time>2026-04-06T08:01:29.005Z</time></trkpt><trkpt lat="45.3131389" lon="10.9088047"><ele>37.0</ele><time>2026-04-06T08:01:30.005Z</time></trkpt><trkpt lat="45.3134307" lon="10.9089499"><ele>37.0</ele><time>2026-04-06T08:01:31.007Z</time></trkpt><trkpt lat="45.3137237" lon="10.9090929"><ele>37.0</ele><time>2026-04-06T08:01:32.005Z</time></trkpt><trkpt lat="45.3140178" lon="10.9092378"><ele>38.0</ele><time>2026-04-06T08:01:33.005Z</time></trkpt><trkpt lat="45.3143117" lon="10.9093834"><ele>39.0</ele><time>2026-04-06T08:01:34.005Z</time></trkpt><trkpt lat="45.3146085" lon="10.9095381"><ele>38.5</ele><time>2026-04-06T08:01:35.006Z</time></trkpt><trkpt lat="45.3149047" lon="10.9096925"><ele>38.0</ele><time>2026-04-06T08:01:36.005Z</time></trkpt><trkpt lat="45.3152067" lon="10.9098512"><ele>38.0</ele><time>2026-04-06T08:01:37.005Z</time></trkpt><trkpt lat="45.3155067" lon="10.9100119"><ele>38.0</ele><time>2026-04-06T08:01:38.006Z</time></trkpt><trkpt lat="45.3158052" lon="10.9101752"><ele>37.5</ele><time>2026-04-06T08:01:39.006Z</time></trkpt><trkpt lat="45.3161005" lon="10.9103422"><ele>37.0</ele><time>2026-04-06T08:01:40.007Z</time></trkpt><trkpt lat="45.3163891" lon="10.910512"><ele>36.5</ele><time>2026-04-06T08:01:41.006Z</time></trkpt><trkpt lat="45.3166762" lon="10.9106859"><ele>36.0</ele><time>2026-04-06T08:01:42.006Z</time></trkpt><trkpt lat="45.3169623" lon="10.9108626"><ele>36.0</ele><time>2026-04-06T08:01:43.006Z</time></trkpt><trkpt lat="45.3172481" lon="10.9110387"><ele>36.0</ele><time>2026-04-06T08:01:44.005Z</time></trkpt><trkpt lat="45.3175334" lon="10.9112162"><ele>36.0</ele><time>2026-04-06T08:01:45.006Z</time></trkpt><trkpt lat="45.3178174" lon="10.9113943"><ele>36.0</ele><time>2026-04-06T08:01:46.006Z</time></trkpt><trkpt lat="45.3181018" lon="10.9115717"><ele>36.0</ele><time>2026-04-06T08:01:47.005Z</time></trkpt><trkpt lat="45.3183861" lon="10.9117477"><ele>36.0</ele><time>2026-04-06T08:01:48.005Z</time></trkpt><trkpt lat="45.3186695" lon="10.9119221"><ele>36.0</ele><time>2026-04-06T08:01:49.005Z</time></trkpt><trkpt lat="45.3189512" lon="10.9120978"><ele>36.0</ele><time>2026-04-06T08:01:50.006Z</time></trkpt><trkpt lat="45.3192322" lon="10.912274"><ele>36.0</ele><time>2026-04-06T08:01:51.006Z</time></trkpt><trkpt lat="45.3195134" lon="10.9124509"><ele>36.0</ele><time>2026-04-06T08:01:52.005Z</time></trkpt><trkpt lat="45.3197952" lon="10.9126287"><ele>37.0</ele><time>2026-04-06T08:01:53.005Z</time></trkpt><trkpt lat="45.3200771" lon="10.9128055"><ele>38.0</ele><time>2026-04-06T08:01:54.006Z</time></trkpt><trkpt lat="45.32036" lon="10.9129821"><ele>38.0</ele><time>2026-04-06T08:01:55.005Z</time></trkpt><trkpt lat="45.3206434" lon="10.9131589"><ele>38.0</ele><time>2026-04-06T08:01:56.005Z</time></trkpt><trkpt lat="45.3209273" lon="10.9133355"><ele>38.0</ele><time>2026-04-06T08:01:57.005Z</time></trkpt><trkpt lat="45.3212119" lon="10.9135133"><ele>38.0</ele><time>2026-04-06T08:01:58.006Z</time></trkpt><trkpt lat="45.3214957" lon="10.9136904"><ele>38.0</ele><time>2026-04-06T08:01:59.006Z</time></trkpt><trkpt lat="45.3217814" lon="10.9138665"><ele>38.0</ele><time>2026-04-06T08:02:00.006Z</time></trkpt><trkpt lat="45.3220688" lon="10.9140447"><ele>38.0</ele><time>2026-04-06T08:02:01.005Z</time></trkpt><trkpt lat="45.3223547" lon="10.9142218"><ele>38.0</ele><time>2026-04-06T08:02:02.006Z</time></trkpt><trkpt lat="45.3226408" lon="10.9144021"><ele>37.5</ele><time>2026-04-06T08:02:03.007Z</time></trkpt><trkpt lat="45.3229273" lon="10.9145839"><ele>37.0</ele><time>2026-04-06T08:02:04.005Z</time></trkpt><trkpt lat="45.3232146" lon="10.9147674"><ele>37.0</ele><time>2026-04-06T08:02:05.005Z</time></trkpt><trkpt lat="45.3235014" lon="10.9149475"><ele>37.0</ele><time>2026-04-06T08:02:06.006Z</time></trkpt><trkpt lat="45.3237889" lon="10.9151292"><ele>36.5</ele><time>2026-04-06T08:02:07.005Z</time></trkpt><trkpt lat="45.3240778" lon="10.9153073"><ele>36.0</ele><time>2026-04-06T08:02:08.007Z</time></trkpt><trkpt lat="45.3243668" lon="10.9154889"><ele>36.0</ele><time>2026-04-06T08:02:09.007Z</time></trkpt><trkpt lat="45.3246576" lon="10.9156655"><ele>36.0</ele><time>2026-04-06T08:02:10.005Z</time></trkpt><trkpt lat="45.3249504" lon="10.9158387"><ele>37.0</ele><time>2026-04-06T08:02:11.006Z</time></trkpt><trkpt lat="45.3252453" lon="10.9160048"><ele>38.0</ele><time>2026-04-06T08:02:12.007Z</time></trkpt><trkpt lat="45.3255447" lon="10.9161622"><ele>38.0</ele><time>2026-04-06T08:02:13.005Z</time></trkpt><trkpt lat="45.3258482" lon="10.9163098"><ele>38.0</ele><time>2026-04-06T08:02:14.006Z</time></trkpt><trkpt lat="45.3261504" lon="10.9164486"><ele>38.5</ele><time>2026-04-06T08:02:15.006Z</time></trkpt><trkpt lat="45.3264525" lon="10.9165765"><ele>39.0</ele><time>2026-04-06T08:02:16.006Z</time></trkpt><trkpt lat="45.3267561" lon="10.9166972"><ele>39.0</ele><time>2026-04-06T08:02:17.006Z</time></trkpt><trkpt lat="45.3270614" lon="10.9168035"><ele>39.0</ele><time>2026-04-06T08:02:18.005Z</time></trkpt><trkpt lat="45.3273683" lon="10.9169033"><ele>39.0</ele><time>2026-04-06T08:02:19.007Z</time></trkpt><trkpt lat="45.3276739" lon="10.9169933"><ele>39.0</ele><time>2026-04-06T08:02:20.006Z</time></trkpt><trkpt lat="45.3279798" lon="10.9170741"><ele>38.0</ele><time>2026-04-06T08:02:21.006Z</time></trkpt><trkpt lat="45.3282848" lon="10.9171485"><ele>37.0</ele><time>2026-04-06T08:02:22.007Z</time></trkpt><trkpt lat="45.3285907" lon="10.9172164"><ele>37.0</ele><time>2026-04-06T08:02:23.006Z</time></trkpt><trkpt lat="45.3288986" lon="10.9172762"><ele>37.0</ele><time>2026-04-06T08:02:24.006Z</time></trkpt><trkpt lat="45.3292102" lon="10.9173182"><ele>37.0</ele><time>2026-04-06T08:02:25.007Z</time></trkpt><trkpt lat="45.329521" lon="10.9173526"><ele>37.0</ele><time>2026-04-06T08:02:26.005Z</time></trkpt><trkpt lat="45.329833" lon="10.9173824"><ele>37.5</ele><time>2026-04-06T08:02:27.005Z</time></trkpt><trkpt lat="45.3301476" lon="10.9174139"><ele>38.0</ele><time>2026-04-06T08:02:28.007Z</time></trkpt><trkpt lat="45.3304571" lon="10.9174466"><ele>39.5</ele><time>2026-04-06T08:02:29.006Z</time></trkpt><trkpt lat="45.3307671" lon="10.9174743"><ele>41.0</ele><time>2026-04-06T08:02:30.006Z</time></trkpt><trkpt lat="45.3310735" lon="10.9175057"><ele>41.0</ele><time>2026-04-06T08:02:31.007Z</time></trkpt><trkpt lat="45.3313771" lon="10.917537"><ele>41.0</ele><time>2026-04-06T08:02:32.005Z</time></trkpt><trkpt lat="45.3316798" lon="10.9175649"><ele>39.0</ele><time>2026-04-06T08:02:33.007Z</time></trkpt><trkpt lat="45.3319822" lon="10.9175919"><ele>37.0</ele><time>2026-04-06T08:02:34.005Z</time></trkpt><trkpt lat="45.3322845" lon="10.9176166"><ele>36.5</ele><time>2026-04-06T08:02:35.005Z</time></trkpt><trkpt lat="45.3325894" lon="10.9176444"><ele>36.0</ele><time>2026-04-06T08:02:36.006Z</time></trkpt><trkpt lat="45.3328922" lon="10.9176708"><ele>36.0</ele><time>2026-04-06T08:02:37.006Z</time></trkpt><trkpt lat="45.333197" lon="10.9176978"><ele>36.0</ele><time>2026-04-06T08:02:38.006Z</time></trkpt><trkpt lat="45.3335038" lon="10.9177255"><ele>36.0</ele><time>2026-04-06T08:02:39.005Z</time></trkpt><trkpt lat="45.333811" lon="10.9177528"><ele>36.0</ele><time>2026-04-06T08:02:40.005Z</time></trkpt><trkpt lat="45.3341215" lon="10.91778"><ele>36.0</ele><time>2026-04-06T08:02:41.005Z</time></trkpt><trkpt lat="45.3344334" lon="10.9178105"><ele>36.0</ele><time>2026-04-06T08:02:42.005Z</time></trkpt><trkpt lat="45.3347469" lon="10.9178375"><ele>37.0</ele><time>2026-04-06T08:02:43.006Z</time></trkpt><trkpt lat="45.3350605" lon="10.9178675"><ele>38.0</ele><time>2026-04-06T08:02:44.005Z</time></trkpt><trkpt lat="45.335376" lon="10.9178991"><ele>39.5</ele><time>2026-04-06T08:02:45.007Z</time></trkpt><trkpt lat="45.3356937" lon="10.9179276"><ele>41.0</ele><time>2026-04-06T08:02:46.005Z</time></trkpt><trkpt lat="45.3360123" lon="10.9179543"><ele>41.0</ele><time>2026-04-06T08:02:47.006Z</time></trkpt><trkpt lat="45.3363298" lon="10.9179783"><ele>41.0</ele><time>2026-04-06T08:02:48.006Z</time></trkpt><trkpt lat="45.3366434" lon="10.9179999"><ele>41.0</ele><time>2026-04-06T08:02:49.007Z</time></trkpt><trkpt lat="45.3369552" lon="10.9180235"><ele>41.0</ele><time>2026-04-06T08:02:50.005Z</time></trkpt><trkpt lat="45.3372646" lon="10.9180472"><ele>39.5</ele><time>2026-04-06T08:02:51.007Z</time></trkpt><trkpt lat="45.3375709" lon="10.9180767"><ele>38.0</ele><time>2026-04-06T08:02:52.006Z</time></trkpt><trkpt lat="45.3378745" lon="10.9181074"><ele>38.5</ele><time>2026-04-06T08:02:53.006Z</time></trkpt><trkpt lat="45.3381787" lon="10.9181386"><ele>39.0</ele><time>2026-04-06T08:02:54.007Z</time></trkpt><trkpt lat="45.3384819" lon="10.9181707"><ele>39.0</ele><time>2026-04-06T08:02:55.005Z</time></trkpt><trkpt lat="45.3387847" lon="10.9181972"><ele>39.0</ele><time>2026-04-06T08:02:56.006Z</time></trkpt><trkpt lat="45.339087" lon="10.9182229"><ele>38.5</ele><time>2026-04-06T08:02:57.005Z</time></trkpt><trkpt lat="45.3393904" lon="10.9182465"><ele>38.0</ele><time>2026-04-06T08:02:58.007Z</time></trkpt><trkpt lat="45.3396928" lon="10.9182708"><ele>38.0</ele><time>2026-04-06T08:02:59.005Z</time></trkpt><trkpt lat="45.3399959" lon="10.918296"><ele>38.0</ele><time>2026-04-06T08:03:00.006Z</time></trkpt><trkpt lat="45.3402991" lon="10.9183238"><ele>38.5</ele><time>2026-04-06T08:03:01.005Z</time></trkpt><trkpt lat="45.3406028" lon="10.9183516"><ele>39.0</ele><time>2026-04-06T08:03:02.006Z</time></trkpt><trkpt lat="45.3409074" lon="10.9183792"><ele>39.0</ele><time>2026-04-06T08:03:03.006Z</time></trkpt><trkpt lat="45.3412134" lon="10.9184066"><ele>39.0</ele><time>2026-04-06T08:03:04.005Z</time></trkpt><trkpt lat="45.3415203" lon="10.9184342"><ele>39.5</ele><time>2026-04-06T08:03:05.006Z</time></trkpt><trkpt lat="45.3418288" lon="10.9184611"><ele>40.0</ele><time>2026-04-06T08:03:06.005Z</time></trkpt><trkpt lat="45.3421378" lon="10.9184876"><ele>40.5</ele><time>2026-04-06T08:03:07.006Z</time></trkpt><trkpt lat="45.3424476" lon="10.9185144"><ele>41.0</ele><time>2026-04-06T08:03:08.007Z</time></trkpt><trkpt lat="45.3427579" lon="10.9185407"><ele>41.5</ele><time>2026-04-06T08:03:09.006Z</time></trkpt><trkpt lat="45.3430706" lon="10.9185709"><ele>42.0</ele><time>2026-04-06T08:03:10.006Z</time></trkpt><trkpt lat="45.3433842" lon="10.9186044"><ele>42.0</ele><time>2026-04-06T08:03:11.005Z</time></trkpt><trkpt lat="45.3436984" lon="10.9186427"><ele>42.0</ele><time>2026-04-06T08:03:12.007Z</time></trkpt><trkpt lat="45.3440131" lon="10.9186826"><ele>41.5</ele><time>2026-04-06T08:03:13.005Z</time></trkpt><trkpt lat="45.3443277" lon="10.9187248"><ele>41.0</ele><time>2026-04-06T08:03:14.005Z</time></trkpt><trkpt lat="45.3446426" lon="10.9187633"><ele>41.0</ele><time>2026-04-06T08:03:15.005Z</time></trkpt><trkpt lat="45.3449573" lon="10.9187978"><ele>41.0</ele><time>2026-04-06T08:03:16.007Z</time></trkpt><trkpt lat="45.3452717" lon="10.9188245"><ele>40.5</ele><time>2026-04-06T08:03:17.005Z</time></trkpt><trkpt lat="45.3455843" lon="10.9188489"><ele>40.0</ele><time>2026-04-06T08:03:18.005Z</time></trkpt><trkpt lat="45.3458937" lon="10.9188718"><ele>40.0</ele><time>2026-04-06T08:03:19.005Z</time></trkpt><trkpt lat="45.3461958" lon="10.9188983"><ele>40.0</ele><time>2026-04-06T08:03:20.005Z</time></trkpt><trkpt lat="45.346495" lon="10.9189252"><ele>41.0</ele><time>2026-04-06T08:03:21.005Z</time></trkpt><trkpt lat="45.3467948" lon="10.9189567"><ele>42.0</ele><time>2026-04-06T08:03:22.006Z</time></trkpt><trkpt lat="45.3470921" lon="10.9189873"><ele>41.5</ele><time>2026-04-06T08:03:23.006Z</time></trkpt><trkpt lat="45.3473894" lon="10.9190166"><ele>41.0</ele><time>2026-04-06T08:03:24.005Z</time></trkpt><trkpt lat="45.3476843" lon="10.9190473"><ele>41.0</ele><time>2026-04-06T08:03:25.006Z</time></trkpt><trkpt lat="45.3479793" lon="10.9190799"><ele>41.0</ele><time>2026-04-06T08:03:26.006Z</time></trkpt><trkpt lat="45.3482742" lon="10.9191141"><ele>41.0</ele><time>2026-04-06T08:03:27.006Z</time></trkpt><trkpt lat="45.3485716" lon="10.9191481"><ele>41.0</ele><time>2026-04-06T08:03:28.007Z</time></trkpt><trkpt lat="45.3488713" lon="10.919186"><ele>41.5</ele><time>2026-04-06T08:03:29.006Z</time></trkpt><trkpt lat="45.3491726" lon="10.9192237"><ele>42.0</ele><time>2026-04-06T08:03:30.005Z</time></trkpt><trkpt lat="45.349475" lon="10.9192595"><ele>41.5</ele><time>2026-04-06T08:03:31.006Z</time></trkpt><trkpt lat="45.3497756" lon="10.9192967"><ele>41.0</ele><time>2026-04-06T08:03:32.007Z</time></trkpt><trkpt lat="45.3500761" lon="10.919334"><ele>41.0</ele><time>2026-04-06T08:03:33.007Z</time></trkpt><trkpt lat="45.3503761" lon="10.9193753"><ele>41.0</ele><time>2026-04-06T08:03:34.007Z</time></trkpt><trkpt lat="45.3506728" lon="10.9194221"><ele>42.5</ele><time>2026-04-06T08:03:35.006Z</time></trkpt><trkpt lat="45.3509671" lon="10.919468"><ele>44.0</ele><time>2026-04-06T08:03:36.005Z</time></trkpt><trkpt lat="45.3512653" lon="10.9195114"><ele>44.5</ele><time>2026-04-06T08:03:37.006Z</time></trkpt><trkpt lat="45.3515658" lon="10.9195523"><ele>45.0</ele><time>2026-04-06T08:03:38.006Z</time></trkpt><trkpt lat="45.3518681" lon="10.9195925"><ele>45.0</ele><time>2026-04-06T08:03:39.006Z</time></trkpt><trkpt lat="45.3521665" lon="10.9196328"><ele>45.0</ele><time>2026-04-06T08:03:40.006Z</time></trkpt><trkpt lat="45.3524605" lon="10.9196745"><ele>45.0</ele><time>2026-04-06T08:03:41.006Z</time></trkpt><trkpt lat="45.3527551" lon="10.9197183"><ele>45.0</ele><time>2026-04-06T08:03:42.006Z</time></trkpt><trkpt lat="45.3530488" lon="10.9197661"><ele>44.5</ele><time>2026-04-06T08:03:43.006Z</time></trkpt><trkpt lat="45.3533422" lon="10.9198165"><ele>44.0</ele><time>2026-04-06T08:03:44.005Z</time></trkpt><trkpt lat="45.3536377" lon="10.9198646"><ele>44.5</ele><time>2026-04-06T08:03:45.005Z</time></trkpt><trkpt lat="45.3539351" lon="10.9199126"><ele>45.0</ele><time>2026-04-06T08:03:46.005Z</time></trkpt><trkpt lat="45.354229" lon="10.91996"><ele>45.0</ele><time>2026-04-06T08:03:47.005Z</time></trkpt><trkpt lat="45.3545192" lon="10.9200065"><ele>45.0</ele><time>2026-04-06T08:03:48.006Z</time></trkpt><trkpt lat="45.3548079" lon="10.9200539"><ele>45.5</ele><time>2026-04-06T08:03:49.006Z</time></trkpt><trkpt lat="45.355095" lon="10.9201038"><ele>46.0</ele><time>2026-04-06T08:03:50.006Z</time></trkpt><trkpt lat="45.355381" lon="10.9201518"><ele>44.5</ele><time>2026-04-06T08:03:51.006Z</time></trkpt><trkpt lat="45.3556677" lon="10.9202007"><ele>43.0</ele><time>2026-04-06T08:03:52.006Z</time></trkpt><trkpt lat="45.355953" lon="10.9202506"><ele>43.0</ele><time>2026-04-06T08:03:53.006Z</time></trkpt><trkpt lat="45.3562417" lon="10.9202982"><ele>43.0</ele><time>2026-04-06T08:03:54.006Z</time></trkpt><trkpt lat="45.3565341" lon="10.9203479"><ele>44.0</ele><time>2026-04-06T08:03:55.006Z</time></trkpt><trkpt lat="45.3568281" lon="10.9203939"><ele>45.0</ele><time>2026-04-06T08:03:56.006Z</time></trkpt><trkpt lat="45.3571241" lon="10.9204394"><ele>45.5</ele><time>2026-04-06T08:03:57.005Z</time></trkpt><trkpt lat="45.3574235" lon="10.9204848"><ele>46.0</ele><time>2026-04-06T08:03:58.006Z</time></trkpt><trkpt lat="45.3577235" lon="10.9205311"><ele>46.0</ele><time>2026-04-06T08:03:59.006Z</time></trkpt><trkpt lat="45.358027" lon="10.9205708"><ele>46.0</ele><time>2026-04-06T08:04:00.006Z</time></trkpt><trkpt lat="45.3583367" lon="10.9206037"><ele>46.5</ele><time>2026-04-06T08:04:01.006Z</time></trkpt><trkpt lat="45.3586471" lon="10.9206281"><ele>47.0</ele><time>2026-04-06T08:04:02.005Z</time></trkpt><trkpt lat="45.3589515" lon="10.9206447"><ele>46.0</ele><time>2026-04-06T08:04:03.007Z</time></trkpt><trkpt lat="45.3592549" lon="10.9206554"><ele>45.0</ele><time>2026-04-06T08:04:04.005Z</time></trkpt><trkpt lat="45.3595587" lon="10.920661"><ele>46.0</ele><time>2026-04-06T08:04:05.006Z</time></trkpt><trkpt lat="45.3598628" lon="10.9206621"><ele>47.0</ele><time>2026-04-06T08:04:06.006Z</time></trkpt><trkpt lat="45.3601673" lon="10.920656"><ele>47.0</ele><time>2026-04-06T08:04:07.006Z</time></trkpt><trkpt lat="45.3604716" lon="10.9206466"><ele>47.0</ele><time>2026-04-06T08:04:08.006Z</time></trkpt><trkpt lat="45.3607751" lon="10.9206317"><ele>46.0</ele><time>2026-04-06T08:04:09.007Z</time></trkpt><trkpt lat="45.3610785" lon="10.9206088"><ele>45.0</ele><time>2026-04-06T08:04:10.006Z</time></trkpt><trkpt lat="45.3613813" lon="10.9205792"><ele>45.0</ele><time>2026-04-06T08:04:11.006Z</time></trkpt><trkpt lat="45.3616846" lon="10.9205426"><ele>45.0</ele><time>2026-04-06T08:04:12.007Z</time></trkpt><trkpt lat="45.3619857" lon="10.9205051"><ele>46.0</ele><time>2026-04-06T08:04:13.005Z</time></trkpt><trkpt lat="45.3622856" lon="10.9204615"><ele>47.0</ele><time>2026-04-06T08:04:14.005Z</time></trkpt><trkpt lat="45.3625861" lon="10.9204129"><ele>47.0</ele><time>2026-04-06T08:04:15.005Z</time></trkpt><trkpt lat="45.3628889" lon="10.9203595"><ele>47.0</ele><time>2026-04-06T08:04:16.005Z</time></trkpt><trkpt lat="45.3631886" lon="10.9202957"><ele>48.0</ele><time>2026-04-06T08:04:17.005Z</time></trkpt><trkpt lat="45.3634902" lon="10.9202282"><ele>49.0</ele><time>2026-04-06T08:04:18.005Z</time></trkpt><trkpt lat="45.363792" lon="10.9201526"><ele>48.5</ele><time>2026-04-06T08:04:19.006Z</time></trkpt><trkpt lat="45.3640927" lon="10.9200686"><ele>48.0</ele><time>2026-04-06T08:04:20.007Z</time></trkpt><trkpt lat="45.3643927" lon="10.91998"><ele>48.0</ele><time>2026-04-06T08:04:21.006Z</time></trkpt><trkpt lat="45.3646941" lon="10.9198891"><ele>48.0</ele><time>2026-04-06T08:04:22.006Z</time></trkpt><trkpt lat="45.3649942" lon="10.9197945"><ele>48.5</ele><time>2026-04-06T08:04:23.006Z</time></trkpt><trkpt lat="45.3652913" lon="10.9196923"><ele>49.0</ele><time>2026-04-06T08:04:24.006Z</time></trkpt><trkpt lat="45.3655807" lon="10.9195861"><ele>48.0</ele><time>2026-04-06T08:04:25.005Z</time></trkpt><trkpt lat="45.3658656" lon="10.9194716"><ele>47.0</ele><time>2026-04-06T08:04:26.006Z</time></trkpt><trkpt lat="45.3661479" lon="10.9193561"><ele>47.0</ele><time>2026-04-06T08:04:27.005Z</time></trkpt><trkpt lat="45.366429" lon="10.9192364"><ele>47.0</ele><time>2026-04-06T08:04:28.007Z</time></trkpt><trkpt lat="45.3667078" lon="10.9191111"><ele>47.5</ele><time>2026-04-06T08:04:29.006Z</time></trkpt><trkpt lat="45.3669871" lon="10.9189811"><ele>48.0</ele><time>2026-04-06T08:04:30.006Z</time></trkpt><trkpt lat="45.3672677" lon="10.9188459"><ele>48.0</ele><time>2026-04-06T08:04:31.006Z</time></trkpt><trkpt lat="45.3675473" lon="10.9187088"><ele>48.0</ele><time>2026-04-06T08:04:32.006Z</time></trkpt><trkpt lat="45.367832" lon="10.9185633"><ele>48.5</ele><time>2026-04-06T08:04:33.007Z</time></trkpt><trkpt lat="45.368119" lon="10.9184117"><ele>49.0</ele><time>2026-04-06T08:04:34.006Z</time></trkpt><trkpt lat="45.3684126" lon="10.918256"><ele>49.5</ele><time>2026-04-06T08:04:35.006Z</time></trkpt><trkpt lat="45.3687082" lon="10.9181037"><ele>50.0</ele><time>2026-04-06T08:04:36.006Z</time></trkpt><trkpt lat="45.3690064" lon="10.9179517"><ele>49.0</ele><time>2026-04-06T08:04:37.006Z</time></trkpt><trkpt lat="45.3693085" lon="10.917799"><ele>48.0</ele><time>2026-04-06T08:04:38.006Z</time></trkpt><trkpt lat="45.3696094" lon="10.9176448"><ele>49.0</ele><time>2026-04-06T08:04:39.005Z</time></trkpt><trkpt lat="45.369913" lon="10.9174879"><ele>50.0</ele><time>2026-04-06T08:04:40.006Z</time></trkpt><trkpt lat="45.3702185" lon="10.9173275"><ele>49.5</ele><time>2026-04-06T08:04:41.005Z</time></trkpt><trkpt lat="45.370528" lon="10.9171662"><ele>49.0</ele><time>2026-04-06T08:04:42.006Z</time></trkpt><trkpt lat="45.3708387" lon="10.9170048"><ele>49.0</ele><time>2026-04-06T08:04:43.006Z</time></trkpt><trkpt lat="45.3711515" lon="10.9168424"><ele>49.0</ele><time>2026-04-06T08:04:44.006Z</time></trkpt><trkpt lat="45.3714658" lon="10.9166801"><ele>50.0</ele><time>2026-04-06T08:04:45.005Z</time></trkpt><trkpt lat="45.3717816" lon="10.9165183"><ele>51.0</ele><time>2026-04-06T08:04:46.006Z</time></trkpt><trkpt lat="45.3721" lon="10.9163558"><ele>51.0</ele><time>2026-04-06T08:04:47.005Z</time></trkpt><trkpt lat="45.372419" lon="10.9161953"><ele>51.0</ele><time>2026-04-06T08:04:48.005Z</time></trkpt><trkpt lat="45.37274" lon="10.9160347"><ele>51.5</ele><time>2026-04-06T08:04:49.005Z</time></trkpt><trkpt lat="45.3730617" lon="10.9158743"><ele>52.0</ele><time>2026-04-06T08:04:50.006Z</time></trkpt><trkpt lat="45.3733844" lon="10.9157139"><ele>52.0</ele><time>2026-04-06T08:04:51.005Z</time></trkpt><trkpt lat="45.3737076" lon="10.9155508"><ele>52.0</ele><time>2026-04-06T08:04:52.006Z</time></trkpt><trkpt lat="45.3740316" lon="10.9153848"><ele>51.5</ele><time>2026-04-06T08:04:53.005Z</time></trkpt><trkpt lat="45.3743562" lon="10.9152167"><ele>51.0</ele><time>2026-04-06T08:04:54.006Z</time></trkpt><trkpt lat="45.3746815" lon="10.9150467"><ele>52.0</ele><time>2026-04-06T08:04:55.005Z</time></trkpt><trkpt lat="45.3750074" lon="10.9148756"><ele>53.0</ele><time>2026-04-06T08:04:56.006Z</time></trkpt><trkpt lat="45.3753336" lon="10.9147051"><ele>53.0</ele><time>2026-04-06T08:04:57.006Z</time></trkpt><trkpt lat="45.3756603" lon="10.9145342"><ele>53.0</ele><time>2026-04-06T08:04:58.005Z</time></trkpt><trkpt lat="45.3759885" lon="10.914363"><ele>53.5</ele><time>2026-04-06T08:04:59.006Z</time></trkpt><trkpt lat="45.3763148" lon="10.9141925"><ele>54.0</ele><time>2026-04-06T08:05:00.006Z</time></trkpt><trkpt lat="45.3766367" lon="10.9140242"><ele>54.0</ele><time>2026-04-06T08:05:01.006Z</time></trkpt><trkpt lat="45.3769556" lon="10.9138584"><ele>54.0</ele><time>2026-04-06T08:05:02.006Z</time></trkpt><trkpt lat="45.3772729" lon="10.9136948"><ele>54.0</ele><time>2026-04-06T08:05:03.006Z</time></trkpt><trkpt lat="45.3775888" lon="10.9135326"><ele>54.0</ele><time>2026-04-06T08:05:04.005Z</time></trkpt><trkpt lat="45.377903" lon="10.9133723"><ele>52.5</ele><time>2026-04-06T08:05:05.006Z</time></trkpt><trkpt lat="45.3782115" lon="10.9132149"><ele>51.0</ele><time>2026-04-06T08:05:06.005Z</time></trkpt><trkpt lat="45.3785158" lon="10.9130588"><ele>51.0</ele><time>2026-04-06T08:05:07.007Z</time></trkpt><trkpt lat="45.3788156" lon="10.9129044"><ele>51.0</ele><time>2026-04-06T08:05:08.006Z</time></trkpt><trkpt lat="45.3791116" lon="10.9127498"><ele>52.0</ele><time>2026-04-06T08:05:09.006Z</time></trkpt><trkpt lat="45.3794049" lon="10.9125954"><ele>53.0</ele><time>2026-04-06T08:05:10.005Z</time></trkpt><trkpt lat="45.3796969" lon="10.9124438"><ele>53.0</ele><time>2026-04-06T08:05:11.005Z</time></trkpt><trkpt lat="45.3799876" lon="10.9122927"><ele>53.0</ele><time>2026-04-06T08:05:12.005Z</time></trkpt><trkpt lat="45.3802781" lon="10.9121424"><ele>53.5</ele><time>2026-04-06T08:05:13.005Z</time></trkpt><trkpt lat="45.380568" lon="10.9119923"><ele>54.0</ele><time>2026-04-06T08:05:14.006Z</time></trkpt><trkpt lat="45.3808594" lon="10.9118422"><ele>54.5</ele><time>2026-04-06T08:05:15.005Z</time></trkpt><trkpt lat="45.3811514" lon="10.9116911"><ele>55.0</ele><time>2026-04-06T08:05:16.007Z</time></trkpt><trkpt lat="45.3814446" lon="10.9115385"><ele>55.5</ele><time>2026-04-06T08:05:17.007Z</time></trkpt><trkpt lat="45.3817381" lon="10.9113835"><ele>56.0</ele><time>2026-04-06T08:05:18.005Z</time></trkpt><trkpt lat="45.3820317" lon="10.9112277"><ele>57.5</ele><time>2026-04-06T08:05:19.006Z</time></trkpt><trkpt lat="45.3823234" lon="10.9110714"><ele>59.0</ele><time>2026-04-06T08:05:20.006Z</time></trkpt><trkpt lat="45.3826138" lon="10.9109172"><ele>59.0</ele><time>2026-04-06T08:05:21.005Z</time></trkpt><trkpt lat="45.3829046" lon="10.9107584"><ele>59.0</ele><time>2026-04-06T08:05:22.006Z</time></trkpt><trkpt lat="45.3831962" lon="10.9105965"><ele>58.0</ele><time>2026-04-06T08:05:23.005Z</time></trkpt><trkpt lat="45.3834898" lon="10.9104386"><ele>57.0</ele><time>2026-04-06T08:05:24.006Z</time></trkpt><trkpt lat="45.3837834" lon="10.9102815"><ele>57.0</ele><time>2026-04-06T08:05:25.005Z</time></trkpt><trkpt lat="45.384078" lon="10.910127"><ele>57.0</ele><time>2026-04-06T08:05:26.005Z</time></trkpt><trkpt lat="45.3843718" lon="10.9099767"><ele>58.0</ele><time>2026-04-06T08:05:27.006Z</time></trkpt><trkpt lat="45.3846654" lon="10.9098254"><ele>59.0</ele><time>2026-04-06T08:05:28.005Z</time></trkpt><trkpt lat="45.3849576" lon="10.9096738"><ele>59.0</ele><time>2026-04-06T08:05:29.006Z</time></trkpt><trkpt lat="45.3852531" lon="10.909525"><ele>59.0</ele><time>2026-04-06T08:05:30.006Z</time></trkpt><trkpt lat="45.3855498" lon="10.9093788"><ele>59.0</ele><time>2026-04-06T08:05:31.005Z</time></trkpt><trkpt lat="45.3858485" lon="10.9092463"><ele>59.0</ele><time>2026-04-06T08:05:32.006Z</time></trkpt><trkpt lat="45.3861476" lon="10.9091281"><ele>59.5</ele><time>2026-04-06T08:05:33.006Z</time></trkpt><trkpt lat="45.3864468" lon="10.9090146"><ele>60.0</ele><time>2026-04-06T08:05:34.005Z</time></trkpt><trkpt lat="45.3867492" lon="10.9089105"><ele>60.0</ele><time>2026-04-06T08:05:35.005Z</time></trkpt><trkpt lat="45.3870521" lon="10.9088159"><ele>60.0</ele><time>2026-04-06T08:05:36.006Z</time></trkpt><trkpt lat="45.3873578" lon="10.9087318"><ele>59.5</ele><time>2026-04-06T08:05:37.005Z</time></trkpt><trkpt lat="45.3876649" lon="10.9086591"><ele>59.0</ele><time>2026-04-06T08:05:38.006Z</time></trkpt><trkpt lat="45.3879725" lon="10.9085948"><ele>59.5</ele><time>2026-04-06T08:05:39.006Z</time></trkpt><trkpt lat="45.3882805" lon="10.9085395"><ele>60.0</ele><time>2026-04-06T08:05:40.006Z</time></trkpt><trkpt lat="45.388587" lon="10.9084916"><ele>60.5</ele><time>2026-04-06T08:05:41.007Z</time></trkpt><trkpt lat="45.3888872" lon="10.9084525"><ele>61.0</ele><time>2026-04-06T08:05:42.005Z</time></trkpt><trkpt lat="45.3891849" lon="10.9084226"><ele>61.5</ele><time>2026-04-06T08:05:43.007Z</time></trkpt><trkpt lat="45.3894808" lon="10.908403"><ele>62.0</ele><time>2026-04-06T08:05:44.006Z</time></trkpt><trkpt lat="45.3897776" lon="10.9083895"><ele>62.0</ele><time>2026-04-06T08:05:45.005Z</time></trkpt><trkpt lat="45.3900755" lon="10.9083818"><ele>62.0</ele><time>2026-04-06T08:05:46.005Z</time></trkpt><trkpt lat="45.3903736" lon="10.9083824"><ele>61.0</ele><time>2026-04-06T08:05:47.005Z</time></trkpt><trkpt lat="45.3906707" lon="10.9083918"><ele>60.0</ele><time>2026-04-06T08:05:48.006Z</time></trkpt><trkpt lat="45.3909572" lon="10.9084077"><ele>61.0</ele><time>2026-04-06T08:05:49.006Z</time></trkpt><trkpt lat="45.3912342" lon="10.9084298"><ele>62.0</ele><time>2026-04-06T08:05:50.006Z</time></trkpt><trkpt lat="45.3915091" lon="10.9084604"><ele>62.5</ele><time>2026-04-06T08:05:51.006Z</time></trkpt><trkpt lat="45.391782" lon="10.9084991"><ele>63.0</ele><time>2026-04-06T08:05:52.006Z</time></trkpt><trkpt lat="45.3920548" lon="10.9085424"><ele>63.0</ele><time>2026-04-06T08:05:53.005Z</time></trkpt><trkpt lat="45.3923289" lon="10.9085923"><ele>63.0</ele><time>2026-04-06T08:05:54.005Z</time></trkpt><trkpt lat="45.3926058" lon="10.9086469"><ele>63.0</ele><time>2026-04-06T08:05:55.006Z</time></trkpt><trkpt lat="45.3928832" lon="10.9087033"><ele>63.0</ele><time>2026-04-06T08:05:56.005Z</time></trkpt><trkpt lat="45.3931683" lon="10.9087712"><ele>63.0</ele><time>2026-04-06T08:05:57.006Z</time></trkpt><trkpt lat="45.393451" lon="10.9088329"><ele>63.0</ele><time>2026-04-06T08:05:58.005Z</time></trkpt><trkpt lat="45.3937518" lon="10.9089183"><ele>63.5</ele><time>2026-04-06T08:05:59.006Z</time></trkpt><trkpt lat="45.3940481" lon="10.9090015"><ele>64.0</ele><time>2026-04-06T08:06:00.006Z</time></trkpt><trkpt lat="45.3943456" lon="10.9090861"><ele>64.0</ele><time>2026-04-06T08:06:01.005Z</time></trkpt><trkpt lat="45.3946421" lon="10.9091684"><ele>64.0</ele><time>2026-04-06T08:06:02.005Z</time></trkpt><trkpt lat="45.394938" lon="10.9092498"><ele>64.5</ele><time>2026-04-06T08:06:03.005Z</time></trkpt><trkpt lat="45.3952317" lon="10.9093332"><ele>65.0</ele><time>2026-04-06T08:06:04.006Z</time></trkpt><trkpt lat="45.3955213" lon="10.9094167"><ele>65.0</ele><time>2026-04-06T08:06:05.005Z</time></trkpt><trkpt lat="45.3958098" lon="10.9094988"><ele>65.0</ele><time>2026-04-06T08:06:06.005Z</time></trkpt><trkpt lat="45.396098" lon="10.9095803"><ele>66.0</ele><time>2026-04-06T08:06:07.005Z</time></trkpt><trkpt lat="45.396386" lon="10.9096623"><ele>67.0</ele><time>2026-04-06T08:06:08.005Z</time></trkpt><trkpt lat="45.396674" lon="10.9097427"><ele>67.0</ele><time>2026-04-06T08:06:09.005Z</time></trkpt><trkpt lat="45.3969647" lon="10.909825"><ele>67.0</ele><time>2026-04-06T08:06:10.006Z</time></trkpt><trkpt lat="45.3972571" lon="10.9099056"><ele>66.5</ele><time>2026-04-06T08:06:11.007Z</time></trkpt><trkpt lat="45.3975525" lon="10.9099884"><ele>66.0</ele><time>2026-04-06T08:06:12.006Z</time></trkpt><trkpt lat="45.3978495" lon="10.9100714"><ele>65.5</ele><time>2026-04-06T08:06:13.005Z</time></trkpt><trkpt lat="45.3981534" lon="10.9101572"><ele>65.0</ele><time>2026-04-06T08:06:14.007Z</time></trkpt><trkpt lat="45.3984584" lon="10.9102428"><ele>65.0</ele><time>2026-04-06T08:06:15.006Z</time></trkpt><trkpt lat="45.3987651" lon="10.9103286"><ele>65.0</ele><time>2026-04-06T08:06:16.006Z</time></trkpt><trkpt lat="45.3990728" lon="10.9104142"><ele>65.0</ele><time>2026-04-06T08:06:17.006Z</time></trkpt><trkpt lat="45.3993827" lon="10.9105011"><ele>65.0</ele><time>2026-04-06T08:06:18.006Z</time></trkpt><trkpt lat="45.3996927" lon="10.9105898"><ele>65.0</ele><time>2026-04-06T08:06:19.006Z</time></trkpt><trkpt lat="45.4000042" lon="10.9106779"><ele>65.0</ele><time>2026-04-06T08:06:20.007Z</time></trkpt><trkpt lat="45.4003159" lon="10.9107654"><ele>64.5</ele><time>2026-04-06T08:06:21.005Z</time></trkpt><trkpt lat="45.4006282" lon="10.9108524"><ele>64.0</ele><time>2026-04-06T08:06:22.005Z</time></trkpt><trkpt lat="45.4009408" lon="10.9109438"><ele>64.0</ele><time>2026-04-06T08:06:23.005Z</time></trkpt><trkpt lat="45.4012512" lon="10.9110344"><ele>64.0</ele><time>2026-04-06T08:06:24.007Z</time></trkpt><trkpt lat="45.401562" lon="10.9111227"><ele>63.5</ele><time>2026-04-06T08:06:25.006Z</time></trkpt><trkpt lat="45.401872" lon="10.9112098"><ele>63.0</ele><time>2026-04-06T08:06:26.005Z</time></trkpt><trkpt lat="45.4021817" lon="10.9112969"><ele>64.0</ele><time>2026-04-06T08:06:27.005Z</time></trkpt><trkpt lat="45.4024906" lon="10.9113821"><ele>65.0</ele><time>2026-04-06T08:06:28.007Z</time></trkpt><trkpt lat="45.402799" lon="10.9114673"><ele>66.0</ele><time>2026-04-06T08:06:29.006Z</time></trkpt><trkpt lat="45.4031052" lon="10.911554"><ele>67.0</ele><time>2026-04-06T08:06:30.006Z</time></trkpt><trkpt lat="45.4034102" lon="10.9116409"><ele>67.0</ele><time>2026-04-06T08:06:31.005Z</time></trkpt><trkpt lat="45.4037116" lon="10.9117273"><ele>67.0</ele><time>2026-04-06T08:06:32.006Z</time></trkpt><trkpt lat="45.4040121" lon="10.9118146"><ele>67.0</ele><time>2026-04-06T08:06:33.006Z</time></trkpt><trkpt lat="45.4043122" lon="10.9119014"><ele>67.0</ele><time>2026-04-06T08:06:34.007Z</time></trkpt><trkpt lat="45.4046131" lon="10.9119862"><ele>69.0</ele><time>2026-04-06T08:06:35.006Z</time></trkpt><trkpt lat="45.4049149" lon="10.9120696"><ele>71.0</ele><time>2026-04-06T08:06:36.006Z</time></trkpt><trkpt lat="45.4052167" lon="10.9121533"><ele>71.5</ele><time>2026-04-06T08:06:37.007Z</time></trkpt><trkpt lat="45.4055192" lon="10.9122367"><ele>72.0</ele><time>2026-04-06T08:06:38.005Z</time></trkpt><trkpt lat="45.4058213" lon="10.9123204"><ele>72.0</ele><time>2026-04-06T08:06:39.006Z</time></trkpt><trkpt lat="45.4061266" lon="10.9124053"><ele>72.0</ele><time>2026-04-06T08:06:40.005Z</time></trkpt><trkpt lat="45.4064447" lon="10.9124942"><ele>71.0</ele><time>2026-04-06T08:06:41.005Z</time></trkpt><trkpt lat="45.4067613" lon="10.9125836"><ele>70.0</ele><time>2026-04-06T08:06:42.005Z</time></trkpt><trkpt lat="45.4070735" lon="10.912673"><ele>72.5</ele><time>2026-04-06T08:06:43.005Z</time></trkpt><trkpt lat="45.4073809" lon="10.9127645"><ele>75.0</ele><time>2026-04-06T08:06:44.007Z</time></trkpt><trkpt lat="45.4076844" lon="10.9128588"><ele>75.0</ele><time>2026-04-06T08:06:45.006Z</time></trkpt><trkpt lat="45.4079833" lon="10.9129513"><ele>75.0</ele><time>2026-04-06T08:06:46.006Z</time></trkpt><trkpt lat="45.4082789" lon="10.9130434"><ele>72.5</ele><time>2026-04-06T08:06:47.005Z</time></trkpt><trkpt lat="45.4085729" lon="10.9131315"><ele>70.0</ele><time>2026-04-06T08:06:48.006Z</time></trkpt><trkpt lat="45.4088667" lon="10.9132202"><ele>69.5</ele><time>2026-04-06T08:06:49.005Z</time></trkpt><trkpt lat="45.4091591" lon="10.9133112"><ele>69.0</ele><time>2026-04-06T08:06:50.006Z</time></trkpt><trkpt lat="45.409453" lon="10.9133977"><ele>69.5</ele><time>2026-04-06T08:06:51.006Z</time></trkpt><trkpt lat="45.4097479" lon="10.9134813"><ele>70.0</ele><time>2026-04-06T08:06:52.007Z</time></trkpt><trkpt lat="45.4100432" lon="10.913562"><ele>70.0</ele><time>2026-04-06T08:06:53.006Z</time></trkpt><trkpt lat="45.4103429" lon="10.9136423"><ele>70.0</ele><time>2026-04-06T08:06:54.005Z</time></trkpt><trkpt lat="45.4106418" lon="10.9137224"><ele>71.0</ele><time>2026-04-06T08:06:55.006Z</time></trkpt><trkpt lat="45.4109394" lon="10.9138002"><ele>72.0</ele><time>2026-04-06T08:06:56.005Z</time></trkpt><trkpt lat="45.4112339" lon="10.9138767"><ele>73.0</ele><time>2026-04-06T08:06:57.006Z</time></trkpt><trkpt lat="45.4115299" lon="10.9139527"><ele>74.0</ele><time>2026-04-06T08:06:58.006Z</time></trkpt><trkpt lat="45.4118286" lon="10.9140275"><ele>74.0</ele><time>2026-04-06T08:06:59.005Z</time></trkpt><trkpt lat="45.4121275" lon="10.9141025"><ele>74.0</ele><time>2026-04-06T08:07:00.007Z</time></trkpt><trkpt lat="45.4124272" lon="10.9141795"><ele>73.0</ele><time>2026-04-06T08:07:01.006Z</time></trkpt><trkpt lat="45.4127303" lon="10.9142574"><ele>72.0</ele><time>2026-04-06T08:07:02.005Z</time></trkpt><trkpt lat="45.4130336" lon="10.9143259"><ele>70.5</ele><time>2026-04-06T08:07:03.005Z</time></trkpt><trkpt lat="45.4133386" lon="10.9143862"><ele>69.0</ele><time>2026-04-06T08:07:04.006Z</time></trkpt><trkpt lat="45.4136448" lon="10.9144329"><ele>69.5</ele><time>2026-04-06T08:07:05.006Z</time></trkpt><trkpt lat="45.4139509" lon="10.9144685"><ele>70.0</ele><time>2026-04-06T08:07:06.006Z</time></trkpt><trkpt lat="45.4142579" lon="10.9144954"><ele>70.0</ele><time>2026-04-06T08:07:07.006Z</time></trkpt><trkpt lat="45.4145641" lon="10.9145111"><ele>70.0</ele><time>2026-04-06T08:07:08.006Z</time></trkpt><trkpt lat="45.4148708" lon="10.9145181"><ele>72.0</ele><time>2026-04-06T08:07:09.005Z</time></trkpt><trkpt lat="45.4151769" lon="10.9145143"><ele>74.0</ele><time>2026-04-06T08:07:10.005Z</time></trkpt><trkpt lat="45.4154811" lon="10.914502"><ele>74.5</ele><time>2026-04-06T08:07:11.006Z</time></trkpt><trkpt lat="45.4157858" lon="10.9144778"><ele>75.0</ele><time>2026-04-06T08:07:12.007Z</time></trkpt><trkpt lat="45.4160913" lon="10.9144428"><ele>75.0</ele><time>2026-04-06T08:07:13.006Z</time></trkpt><trkpt lat="45.4163931" lon="10.9143936"><ele>75.0</ele><time>2026-04-06T08:07:14.006Z</time></trkpt><trkpt lat="45.4166916" lon="10.9143362"><ele>75.0</ele><time>2026-04-06T08:07:15.006Z</time></trkpt><trkpt lat="45.4169851" lon="10.9142703"><ele>75.0</ele><time>2026-04-06T08:07:16.005Z</time></trkpt><trkpt lat="45.4172748" lon="10.9141997"><ele>74.5</ele><time>2026-04-06T08:07:17.006Z</time></trkpt><trkpt lat="45.4175607" lon="10.9141175"><ele>74.0</ele><time>2026-04-06T08:07:18.007Z</time></trkpt><trkpt lat="45.4178473" lon="10.9140266"><ele>74.0</ele><time>2026-04-06T08:07:19.005Z</time></trkpt><trkpt lat="45.4181364" lon="10.9139237"><ele>74.0</ele><time>2026-04-06T08:07:20.006Z</time></trkpt><trkpt lat="45.4184252" lon="10.913811"><ele>74.0</ele><time>2026-04-06T08:07:21.006Z</time></trkpt><trkpt lat="45.4187152" lon="10.9136835"><ele>74.0</ele><time>2026-04-06T08:07:22.005Z</time></trkpt><trkpt lat="45.4190041" lon="10.9135535"><ele>73.5</ele><time>2026-04-06T08:07:23.007Z</time></trkpt><trkpt lat="45.4192852" lon="10.913424"><ele>73.0</ele><time>2026-04-06T08:07:24.005Z</time></trkpt><trkpt lat="45.4195615" lon="10.913296"><ele>73.0</ele><time>2026-04-06T08:07:25.006Z</time></trkpt><trkpt lat="45.4198287" lon="10.9131765"><ele>73.0</ele><time>2026-04-06T08:07:26.006Z</time></trkpt><trkpt lat="45.4200926" lon="10.9130609"><ele>73.0</ele><time>2026-04-06T08:07:27.005Z</time></trkpt><trkpt lat="45.4203522" lon="10.9129482"><ele>73.0</ele><time>2026-04-06T08:07:28.005Z</time></trkpt><trkpt lat="45.4205909" lon="10.9128345"><ele>74.0</ele><time>2026-04-06T08:07:29.005Z</time></trkpt><trkpt lat="45.4208156" lon="10.9127256"><ele>75.0</ele><time>2026-04-06T08:07:30.006Z</time></trkpt><trkpt lat="45.4210297" lon="10.9126242"><ele>74.66666666666667</ele><time>2026-04-06T08:07:31.006Z</time></trkpt><trkpt lat="45.421229" lon="10.9125302"><ele>74.33333333333334</ele><time>2026-04-06T08:07:32.007Z</time></trkpt><trkpt lat="45.421426" lon="10.9124365"><ele>74.0</ele><time>2026-04-06T08:07:33.006Z</time></trkpt><trkpt lat="45.4216319" lon="10.9123328"><ele>74.0</ele><time>2026-04-06T08:07:34.005Z</time></trkpt><trkpt lat="45.4218485" lon="10.9122224"><ele>74.0</ele><time>2026-04-06T08:07:35.006Z</time></trkpt><trkpt lat="45.4220769" lon="10.9121051"><ele>73.0</ele><time>2026-04-06T08:07:36.005Z</time></trkpt><trkpt lat="45.4223243" lon="10.9119765"><ele>72.0</ele><time>2026-04-06T08:07:37.006Z</time></trkpt><trkpt lat="45.4225841" lon="10.9118434"><ele>74.0</ele><time>2026-04-06T08:07:38.006Z</time></trkpt><trkpt lat="45.4228596" lon="10.9117075"><ele>76.0</ele><time>2026-04-06T08:07:39.006Z</time></trkpt><trkpt lat="45.4231413" lon="10.9115765"><ele>76.5</ele><time>2026-04-06T08:07:40.005Z</time></trkpt><trkpt lat="45.4234078" lon="10.9114592"><ele>77.0</ele><time>2026-04-06T08:07:41.005Z</time></trkpt><trkpt lat="45.4236736" lon="10.9113435"><ele>77.0</ele><time>2026-04-06T08:07:42.006Z</time></trkpt><trkpt lat="45.423933" lon="10.9112216"><ele>77.0</ele><time>2026-04-06T08:07:43.006Z</time></trkpt><trkpt lat="45.4241879" lon="10.9110983"><ele>77.0</ele><time>2026-04-06T08:07:44.007Z</time></trkpt><trkpt lat="45.4244358" lon="10.9109778"><ele>77.0</ele><time>2026-04-06T08:07:45.006Z</time></trkpt><trkpt lat="45.4246695" lon="10.910863"><ele>81.5</ele><time>2026-04-06T08:07:46.005Z</time></trkpt><trkpt lat="45.4248963" lon="10.9107556"><ele>86.0</ele><time>2026-04-06T08:07:47.007Z</time></trkpt><trkpt lat="45.4251261" lon="10.9106454"><ele>86.0</ele><time>2026-04-06T08:07:48.005Z</time></trkpt><trkpt lat="45.4253564" lon="10.910537"><ele>86.0</ele><time>2026-04-06T08:07:49.006Z</time></trkpt><trkpt lat="45.4255879" lon="10.9104289"><ele>84.5</ele><time>2026-04-06T08:07:50.005Z</time></trkpt><trkpt lat="45.4258174" lon="10.9103195"><ele>83.0</ele><time>2026-04-06T08:07:51.006Z</time></trkpt><trkpt lat="45.4260398" lon="10.91021"><ele>83.0</ele><time>2026-04-06T08:07:52.006Z</time></trkpt><trkpt lat="45.4262639" lon="10.910099"><ele>83.0</ele><time>2026-04-06T08:07:53.006Z</time></trkpt><trkpt lat="45.4264875" lon="10.9099881"><ele>84.0</ele><time>2026-04-06T08:07:54.006Z</time></trkpt><trkpt lat="45.4267106" lon="10.9098786"><ele>85.0</ele><time>2026-04-06T08:07:55.005Z</time></trkpt><trkpt lat="45.4269265" lon="10.9097728"><ele>85.0</ele><time>2026-04-06T08:07:56.006Z</time></trkpt><trkpt lat="45.4271391" lon="10.9096694"><ele>85.0</ele><time>2026-04-06T08:07:57.006Z</time></trkpt><trkpt lat="45.4273507" lon="10.9095653"><ele>85.0</ele><time>2026-04-06T08:07:58.006Z</time></trkpt><trkpt lat="45.427563" lon="10.9094625"><ele>84.0</ele><time>2026-04-06T08:07:59.005Z</time></trkpt><trkpt lat="45.4277783" lon="10.9093623"><ele>83.0</ele><time>2026-04-06T08:08:00.006Z</time></trkpt><trkpt lat="45.4279955" lon="10.9092641"><ele>82.66666666666667</ele><time>2026-04-06T08:08:01.006Z</time></trkpt><trkpt lat="45.4282025" lon="10.9091716"><ele>82.33333333333333</ele><time>2026-04-06T08:08:02.007Z</time></trkpt><trkpt lat="45.4283933" lon="10.9090843"><ele>82.0</ele><time>2026-04-06T08:08:03.006Z</time></trkpt><trkpt lat="45.428568" lon="10.9090045"><ele>82.0</ele><time>2026-04-06T08:08:04.006Z</time></trkpt><trkpt lat="45.4287345" lon="10.9089323"><ele>82.0</ele><time>2026-04-06T08:08:05.005Z</time></trkpt><trkpt lat="45.4288921" lon="10.9088736"><ele>82.0</ele><time>2026-04-06T08:08:06.006Z</time></trkpt><trkpt lat="45.4290479" lon="10.908827"><ele>82.0</ele><time>2026-04-06T08:08:07.007Z</time></trkpt><trkpt lat="45.4291992" lon="10.9087967"><ele>82.0</ele><time>2026-04-06T08:08:08.006Z</time></trkpt><trkpt lat="45.4293343" lon="10.9087828"><ele>82.0</ele><time>2026-04-06T08:08:09.006Z</time></trkpt><trkpt lat="45.429468" lon="10.9087771"><ele>82.0</ele><time>2026-04-06T08:08:10.007Z</time></trkpt><trkpt lat="45.4295994" lon="10.9087777"><ele>82.0</ele><time>2026-04-06T08:08:11.006Z</time></trkpt><trkpt lat="45.4297274" lon="10.9087883"><ele>82.0</ele><time>2026-04-06T08:08:12.006Z</time></trkpt><trkpt lat="45.4298505" lon="10.908813"><ele>82.0</ele><time>2026-04-06T08:08:13.005Z</time></trkpt><trkpt lat="45.4299659" lon="10.9088622"><ele>82.0</ele><time>2026-04-06T08:08:14.006Z</time></trkpt><trkpt lat="45.4300705" lon="10.9089372"><ele>82.0</ele><time>2026-04-06T08:08:15.006Z</time></trkpt><trkpt lat="45.4301684" lon="10.9090337"><ele>82.0</ele><time>2026-04-06T08:08:16.006Z</time></trkpt><trkpt lat="45.4302696" lon="10.9091543"><ele>82.0</ele><time>2026-04-06T08:08:17.005Z</time></trkpt><trkpt lat="45.4303652" lon="10.9092957"><ele>82.0</ele><time>2026-04-06T08:08:18.005Z</time></trkpt><trkpt lat="45.4304425" lon="10.9094464"><ele>82.25</ele><time>2026-04-06T08:08:19.006Z</time></trkpt><trkpt lat="45.4305043" lon="10.9096002"><ele>82.5</ele><time>2026-04-06T08:08:20.006Z</time></trkpt><trkpt lat="45.4305606" lon="10.909755"><ele>82.75</ele><time>2026-04-06T08:08:21.006Z</time></trkpt><trkpt lat="45.4306198" lon="10.9099168"><ele>83.0</ele><time>2026-04-06T08:08:22.006Z</time></trkpt><trkpt lat="45.430684" lon="10.9100754"><ele>83.0</ele><time>2026-04-06T08:08:23.005Z</time></trkpt><trkpt lat="45.4307525" lon="10.9102163"><ele>83.0</ele><time>2026-04-06T08:08:24.006Z</time></trkpt><trkpt lat="45.4308318" lon="10.9103524"><ele>83.0</ele><time>2026-04-06T08:08:25.006Z</time></trkpt><trkpt lat="45.4309255" lon="10.9104808"><ele>83.0</ele><time>2026-04-06T08:08:26.006Z</time></trkpt><trkpt lat="45.4310242" lon="10.9105766"><ele>83.0</ele><time>2026-04-06T08:08:27.005Z</time></trkpt><trkpt lat="45.4311278" lon="10.9106441"><ele>83.0</ele><time>2026-04-06T08:08:28.005Z</time></trkpt><trkpt lat="45.4312319" lon="10.9106869"><ele>83.0</ele><time>2026-04-06T08:08:29.007Z</time></trkpt><trkpt lat="45.4313337" lon="10.9107098"><ele>83.0</ele><time>2026-04-06T08:08:30.007Z</time></trkpt><trkpt lat="45.4314291" lon="10.9107154"><ele>83.0</ele><time>2026-04-06T08:08:31.007Z</time></trkpt><trkpt lat="45.4315272" lon="10.9107094"><ele>83.66666666666667</ele><time>2026-04-06T08:08:32.005Z</time></trkpt><trkpt lat="45.4316249" lon="10.9106868"><ele>84.33333333333334</ele><time>2026-04-06T08:08:33.006Z</time></trkpt><trkpt lat="45.4317144" lon="10.9106496"><ele>85.0</ele><time>2026-04-06T08:08:34.006Z</time></trkpt><trkpt lat="45.4317968" lon="10.9106009"><ele>85.66666666666667</ele><time>2026-04-06T08:08:35.006Z</time></trkpt><trkpt lat="45.4318715" lon="10.9105483"><ele>86.33333333333333</ele><time>2026-04-06T08:08:36.006Z</time></trkpt><trkpt lat="45.4319436" lon="10.9104962"><ele>87.0</ele><time>2026-04-06T08:08:37.007Z</time></trkpt><trkpt lat="45.4320205" lon="10.9104424"><ele>87.0</ele><time>2026-04-06T08:08:38.006Z</time></trkpt><trkpt lat="45.4321032" lon="10.9103832"><ele>87.0</ele><time>2026-04-06T08:08:39.006Z</time></trkpt><trkpt lat="45.4321717" lon="10.9103169"><ele>87.0</ele><time>2026-04-06T08:08:40.007Z</time></trkpt><trkpt lat="45.4322337" lon="10.910231"><ele>87.0</ele><time>2026-04-06T08:08:41.006Z</time></trkpt><trkpt lat="45.4322915" lon="10.9101254"><ele>87.0</ele><time>2026-04-06T08:08:42.006Z</time></trkpt><trkpt lat="45.4323398" lon="10.9100017"><ele>87.16666666666667</ele><time>2026-04-06T08:08:43.005Z</time></trkpt><trkpt lat="45.4323791" lon="10.9098786"><ele>87.33333333333333</ele><time>2026-04-06T08:08:44.006Z</time></trkpt><trkpt lat="45.4324241" lon="10.9097517"><ele>87.5</ele><time>2026-04-06T08:08:45.005Z</time></trkpt><trkpt lat="45.4324759" lon="10.9096363"><ele>87.66666666666666</ele><time>2026-04-06T08:08:46.005Z</time></trkpt><trkpt lat="45.4325293" lon="10.9095413"><ele>87.83333333333333</ele><time>2026-04-06T08:08:47.006Z</time></trkpt><trkpt lat="45.4325779" lon="10.9094635"><ele>88.0</ele><time>2026-04-06T08:08:48.005Z</time></trkpt><trkpt lat="45.4326223" lon="10.909396"><ele>88.0</ele><time>2026-04-06T08:08:49.006Z</time></trkpt><trkpt lat="45.4327061" lon="10.9092756"><ele>88.0</ele><time>2026-04-06T08:08:51.007Z</time></trkpt><trkpt lat="45.4327662" lon="10.9091883"><ele>88.0</ele><time>2026-04-06T08:08:53.006Z</time></trkpt><trkpt lat="45.4328142" lon="10.9091072"><ele>88.0</ele><time>2026-04-06T08:08:57.006Z</time></trkpt><trkpt lat="45.4328665" lon="10.9090074"><ele>88.0</ele><time>2026-04-06T08:09:57.007Z</time></trkpt><trkpt lat="45.4329468" lon="10.9089155"><ele>87.60000000000001</ele><time>2026-04-06T08:09:59.006Z</time></trkpt><trkpt lat="45.4330269" lon="10.9087943"><ele>87.2</ele><time>2026-04-06T08:10:01.005Z</time></trkpt><trkpt lat="45.4330714" lon="10.9087281"><ele>86.8</ele><time>2026-04-06T08:10:02.006Z</time></trkpt><trkpt lat="45.4331593" lon="10.908608"><ele>86.4</ele><time>2026-04-06T08:10:04.005Z</time></trkpt><trkpt lat="45.4332107" lon="10.9085506"><ele>86.0</ele><time>2026-04-06T08:10:05.007Z</time></trkpt><trkpt lat="45.4333113" lon="10.9084544"><ele>86.0</ele><time>2026-04-06T08:10:06.993Z</time></trkpt><trkpt lat="45.4333705" lon="10.9084058"><ele>86.0</ele><time>2026-04-06T08:10:07.993Z</time></trkpt><trkpt lat="45.4334336" lon="10.9083573"><ele>86.0</ele><time>2026-04-06T08:10:08.997Z</time></trkpt><trkpt lat="45.433493" lon="10.9083085"><ele>86.0</ele><time>2026-04-06T08:10:09.99Z</time></trkpt><trkpt lat="45.4335498" lon="10.9082561"><ele>86.0</ele><time>2026-04-06T08:10:10.99Z</time></trkpt><trkpt lat="45.433604" lon="10.9082015"><ele>86.0</ele><time>2026-04-06T08:10:11.991Z</time></trkpt><trkpt lat="45.4337035" lon="10.9080971"><ele>86.0</ele><time>2026-04-06T08:10:14.006Z</time></trkpt><trkpt lat="45.4337739" lon="10.9080324"><ele>86.0</ele><time>2026-04-06T08:10:16.006Z</time></trkpt><trkpt lat="45.4338383" lon="10.9080596"><ele>86.0</ele><time>2026-04-06T08:10:18.006Z</time></trkpt><trkpt lat="45.4339144" lon="10.9081062"><ele>86.0</ele><time>2026-04-06T08:10:21.007Z</time></trkpt><trkpt lat="45.4339355" lon="10.9080027"><ele>86.0</ele><time>2026-04-06T08:11:30.992Z</time></trkpt><trkpt lat="45.4338681" lon="10.9079557"><ele>86.0</ele><time>2026-04-06T08:11:32.991Z</time></trkpt><trkpt lat="45.4337954" lon="10.9079027"><ele>86.0</ele><time>2026-04-06T08:11:35.992Z</time></trkpt><trkpt lat="45.4337688" lon="10.9078164"><ele>86.0</ele><time>2026-04-06T08:11:37.991Z</time></trkpt><trkpt lat="45.4337559" lon="10.907678"><ele>86.0</ele><time>2026-04-06T08:11:39.992Z</time></trkpt><trkpt lat="45.4337725" lon="10.9075218"><ele>86.0</ele><time>2026-04-06T08:11:41.991Z</time></trkpt><trkpt lat="45.4338412" lon="10.9073992"><ele>86.0</ele><time>2026-04-06T08:11:43.991Z</time></trkpt><trkpt lat="45.4339324" lon="10.9073517"><ele>86.19999999999999</ele><time>2026-04-06T08:11:45.991Z</time></trkpt><trkpt lat="45.4340585" lon="10.9073305"><ele>86.39999999999999</ele><time>2026-04-06T08:11:47.992Z</time></trkpt><trkpt lat="45.43413" lon="10.9073014"><ele>86.6</ele><time>2026-04-06T08:11:48.992Z</time></trkpt><trkpt lat="45.4341982" lon="10.9072446"><ele>86.8</ele><time>2026-04-06T08:11:49.991Z</time></trkpt><trkpt lat="45.4342572" lon="10.9071563"><ele>87.0</ele><time>2026-04-06T08:11:50.992Z</time></trkpt><trkpt lat="45.4343088" lon="10.9070357"><ele>87.0</ele><time>2026-04-06T08:11:51.992Z</time></trkpt><trkpt lat="45.4343564" lon="10.9068902"><ele>87.0</ele><time>2026-04-06T08:11:52.991Z</time></trkpt><trkpt lat="45.4344087" lon="10.9067299"><ele>87.0</ele><time>2026-04-06T08:11:53.991Z</time></trkpt><trkpt lat="45.434472" lon="10.9065697"><ele>87.0</ele><time>2026-04-06T08:11:54.991Z</time></trkpt><trkpt lat="45.4345505" lon="10.9064087"><ele>87.0</ele><time>2026-04-06T08:11:55.991Z</time></trkpt><trkpt lat="45.4346439" lon="10.9062508"><ele>87.0</ele><time>2026-04-06T08:11:56.992Z</time></trkpt><trkpt lat="45.4347535" lon="10.9060809"><ele>87.0</ele><time>2026-04-06T08:11:57.991Z</time></trkpt><trkpt lat="45.4348674" lon="10.9059106"><ele>87.33333333333333</ele><time>2026-04-06T08:11:58.992Z</time></trkpt><trkpt lat="45.4349882" lon="10.9057335"><ele>87.66666666666666</ele><time>2026-04-06T08:11:59.991Z</time></trkpt><trkpt lat="45.4351181" lon="10.9055445"><ele>88.0</ele><time>2026-04-06T08:12:00.992Z</time></trkpt><trkpt lat="45.4352555" lon="10.9053424"><ele>88.0</ele><time>2026-04-06T08:12:01.991Z</time></trkpt><trkpt lat="45.4353978" lon="10.9051338"><ele>88.0</ele><time>2026-04-06T08:12:02.992Z</time></trkpt><trkpt lat="45.4355458" lon="10.9049179"><ele>88.0</ele><time>2026-04-06T08:12:03.991Z</time></trkpt><trkpt lat="45.4356976" lon="10.9046983"><ele>88.33333333333333</ele><time>2026-04-06T08:12:04.992Z</time></trkpt><trkpt lat="45.4358524" lon="10.9044735"><ele>88.66666666666667</ele><time>2026-04-06T08:12:05.991Z</time></trkpt><trkpt lat="45.4360028" lon="10.9042543"><ele>89.0</ele><time>2026-04-06T08:12:06.992Z</time></trkpt><trkpt lat="45.4361504" lon="10.9040371"><ele>89.0</ele><time>2026-04-06T08:12:07.991Z</time></trkpt><trkpt lat="45.4362957" lon="10.9038218"><ele>89.0</ele><time>2026-04-06T08:12:08.992Z</time></trkpt><trkpt lat="45.4364418" lon="10.903605"><ele>89.0</ele><time>2026-04-06T08:12:09.991Z</time></trkpt><trkpt lat="45.4365867" lon="10.9033914"><ele>89.0</ele><time>2026-04-06T08:12:10.991Z</time></trkpt><trkpt lat="45.4367319" lon="10.9031785"><ele>89.0</ele><time>2026-04-06T08:12:11.991Z</time></trkpt><trkpt lat="45.4368749" lon="10.9029662"><ele>89.0</ele><time>2026-04-06T08:12:12.992Z</time></trkpt><trkpt lat="45.4370182" lon="10.9027523"><ele>89.0</ele><time>2026-04-06T08:12:13.991Z</time></trkpt><trkpt lat="45.4371605" lon="10.9025409"><ele>89.0</ele><time>2026-04-06T08:12:14.992Z</time></trkpt><trkpt lat="45.4373061" lon="10.9023257"><ele>89.0</ele><time>2026-04-06T08:12:15.992Z</time></trkpt><trkpt lat="45.4374525" lon="10.90211"><ele>89.0</ele><time>2026-04-06T08:12:16.991Z</time></trkpt><trkpt lat="45.4376017" lon="10.9018894"><ele>89.0</ele><time>2026-04-06T08:12:17.991Z</time></trkpt><trkpt lat="45.4377512" lon="10.9016679"><ele>89.0</ele><time>2026-04-06T08:12:18.991Z</time></trkpt><trkpt lat="45.437903" lon="10.9014418"><ele>89.33333333333334</ele><time>2026-04-06T08:12:19.992Z</time></trkpt><trkpt lat="45.438055" lon="10.9012132"><ele>89.66666666666667</ele><time>2026-04-06T08:12:20.992Z</time></trkpt><trkpt lat="45.4382106" lon="10.9009798"><ele>90.0</ele><time>2026-04-06T08:12:21.992Z</time></trkpt><trkpt lat="45.4383676" lon="10.9007464"><ele>90.0</ele><time>2026-04-06T08:12:22.992Z</time></trkpt><trkpt lat="45.4385278" lon="10.9005099"><ele>90.0</ele><time>2026-04-06T08:12:23.991Z</time></trkpt><trkpt lat="45.4386883" lon="10.900273"><ele>89.5</ele><time>2026-04-06T08:12:24.992Z</time></trkpt><trkpt lat="45.4388504" lon="10.9000332"><ele>89.0</ele><time>2026-04-06T08:12:25.992Z</time></trkpt><trkpt lat="45.4390129" lon="10.8997915"><ele>89.0</ele><time>2026-04-06T08:12:26.991Z</time></trkpt><trkpt lat="45.4391756" lon="10.899549"><ele>89.0</ele><time>2026-04-06T08:12:27.991Z</time></trkpt><trkpt lat="45.4393396" lon="10.8993054"><ele>90.0</ele><time>2026-04-06T08:12:28.992Z</time></trkpt><trkpt lat="45.4395005" lon="10.8990667"><ele>91.0</ele><time>2026-04-06T08:12:29.991Z</time></trkpt><trkpt lat="45.4396602" lon="10.8988297"><ele>91.0</ele><time>2026-04-06T08:12:30.992Z</time></trkpt><trkpt lat="45.4398164" lon="10.8985981"><ele>91.0</ele><time>2026-04-06T08:12:31.991Z</time></trkpt><trkpt lat="45.4399708" lon="10.8983679"><ele>91.0</ele><time>2026-04-06T08:12:32.992Z</time></trkpt><trkpt lat="45.440122" lon="10.8981429"><ele>91.0</ele><time>2026-04-06T08:12:33.991Z</time></trkpt><trkpt lat="45.4402746" lon="10.897916"><ele>91.0</ele><time>2026-04-06T08:12:34.991Z</time></trkpt><trkpt lat="45.4404229" lon="10.8976952"><ele>91.0</ele><time>2026-04-06T08:12:35.992Z</time></trkpt><trkpt lat="45.4405672" lon="10.897479"><ele>90.33333333333333</ele><time>2026-04-06T08:12:36.991Z</time></trkpt><trkpt lat="45.4407089" lon="10.8972682"><ele>89.66666666666667</ele><time>2026-04-06T08:12:37.991Z</time></trkpt><trkpt lat="45.4408526" lon="10.8970563"><ele>89.0</ele><time>2026-04-06T08:12:38.991Z</time></trkpt><trkpt lat="45.4409948" lon="10.896848"><ele>89.66666666666667</ele><time>2026-04-06T08:12:39.991Z</time></trkpt><trkpt lat="45.4411421" lon="10.8966314"><ele>90.33333333333333</ele><time>2026-04-06T08:12:40.992Z</time></trkpt><trkpt lat="45.4412906" lon="10.8964108"><ele>91.0</ele><time>2026-04-06T08:12:41.992Z</time></trkpt><trkpt lat="45.4414421" lon="10.8961857"><ele>91.0</ele><time>2026-04-06T08:12:42.992Z</time></trkpt><trkpt lat="45.4415905" lon="10.8959656"><ele>91.0</ele><time>2026-04-06T08:12:43.991Z</time></trkpt><trkpt lat="45.4417397" lon="10.8957438"><ele>91.0</ele><time>2026-04-06T08:12:44.991Z</time></trkpt><trkpt lat="45.4418893" lon="10.8955216"><ele>91.0</ele><time>2026-04-06T08:12:45.991Z</time></trkpt><trkpt lat="45.4420427" lon="10.8952934"><ele>91.0</ele><time>2026-04-06T08:12:46.992Z</time></trkpt><trkpt lat="45.442194" lon="10.8950676"><ele>91.0</ele><time>2026-04-06T08:12:47.991Z</time></trkpt><trkpt lat="45.4423444" lon="10.8948407"><ele>90.66666666666666</ele><time>2026-04-06T08:12:48.991Z</time></trkpt><trkpt lat="45.4424927" lon="10.8946186"><ele>90.33333333333333</ele><time>2026-04-06T08:12:49.992Z</time></trkpt><trkpt lat="45.4426403" lon="10.8944"><ele>90.0</ele><time>2026-04-06T08:12:50.991Z</time></trkpt><trkpt lat="45.4427815" lon="10.8941939"><ele>90.0</ele><time>2026-04-06T08:12:51.992Z</time></trkpt><trkpt lat="45.4429123" lon="10.8940004"><ele>90.0</ele><time>2026-04-06T08:12:52.991Z</time></trkpt><trkpt lat="45.4430351" lon="10.8938201"><ele>90.0</ele><time>2026-04-06T08:12:53.992Z</time></trkpt><trkpt lat="45.4431576" lon="10.8936465"><ele>90.0</ele><time>2026-04-06T08:12:54.992Z</time></trkpt><trkpt lat="45.4432856" lon="10.8934782"><ele>90.0</ele><time>2026-04-06T08:12:55.992Z</time></trkpt><trkpt lat="45.4434255" lon="10.8933145"><ele>90.0</ele><time>2026-04-06T08:12:56.992Z</time></trkpt><trkpt lat="45.4435756" lon="10.8931618"><ele>90.0</ele><time>2026-04-06T08:12:57.992Z</time></trkpt><trkpt lat="45.4437347" lon="10.8930194"><ele>90.0</ele><time>2026-04-06T08:12:58.991Z</time></trkpt><trkpt lat="45.4438904" lon="10.892896"><ele>90.0</ele><time>2026-04-06T08:12:59.991Z</time></trkpt><trkpt lat="45.4440533" lon="10.8927828"><ele>90.0</ele><time>2026-04-06T08:13:00.992Z</time></trkpt><trkpt lat="45.4442223" lon="10.8926757"><ele>90.0</ele><time>2026-04-06T08:13:01.991Z</time></trkpt><trkpt lat="45.4444018" lon="10.892564"><ele>90.0</ele><time>2026-04-06T08:13:02.991Z</time></trkpt><trkpt lat="45.4445873" lon="10.8924494"><ele>91.0</ele><time>2026-04-06T08:13:03.991Z</time></trkpt><trkpt lat="45.444782" lon="10.8923318"><ele>92.0</ele><time>2026-04-06T08:13:04.991Z</time></trkpt><trkpt lat="45.4449856" lon="10.8922125"><ele>93.0</ele><time>2026-04-06T08:13:05.991Z</time></trkpt><trkpt lat="45.4451876" lon="10.8920982"><ele>93.0</ele><time>2026-04-06T08:13:06.992Z</time></trkpt><trkpt lat="45.4453885" lon="10.8919867"><ele>93.0</ele><time>2026-04-06T08:13:07.992Z</time></trkpt><trkpt lat="45.4455865" lon="10.8918731"><ele>93.0</ele><time>2026-04-06T08:13:08.992Z</time></trkpt><trkpt lat="45.4457806" lon="10.8917485"><ele>93.33333333333333</ele><time>2026-04-06T08:13:09.992Z</time></trkpt><trkpt lat="45.4459676" lon="10.891609"><ele>93.66666666666666</ele><time>2026-04-06T08:13:10.992Z</time></trkpt><trkpt lat="45.4461449" lon="10.8914586"><ele>94.0</ele><time>2026-04-06T08:13:11.991Z</time></trkpt><trkpt lat="45.4463176" lon="10.8912971"><ele>94.0</ele><time>2026-04-06T08:13:12.992Z</time></trkpt><trkpt lat="45.4464858" lon="10.8911245"><ele>94.0</ele><time>2026-04-06T08:13:13.992Z</time></trkpt><trkpt lat="45.4466555" lon="10.8909351"><ele>94.0</ele><time>2026-04-06T08:13:14.991Z</time></trkpt><trkpt lat="45.4468299" lon="10.8907341"><ele>94.0</ele><time>2026-04-06T08:13:15.992Z</time></trkpt><trkpt lat="45.4470001" lon="10.8905338"><ele>94.0</ele><time>2026-04-06T08:13:16.992Z</time></trkpt><trkpt lat="45.4471752" lon="10.890329"><ele>94.0</ele><time>2026-04-06T08:13:17.992Z</time></trkpt><trkpt lat="45.4473491" lon="10.890127"><ele>94.33333333333333</ele><time>2026-04-06T08:13:18.991Z</time></trkpt><trkpt lat="45.4475209" lon="10.8899281"><ele>94.66666666666667</ele><time>2026-04-06T08:13:19.991Z</time></trkpt><trkpt lat="45.4476926" lon="10.8897271"><ele>95.0</ele><time>2026-04-06T08:13:20.991Z</time></trkpt><trkpt lat="45.4478628" lon="10.889526"><ele>95.66666666666667</ele><time>2026-04-06T08:13:21.992Z</time></trkpt><trkpt lat="45.4480322" lon="10.8893286"><ele>96.33333333333334</ele><time>2026-04-06T08:13:22.991Z</time></trkpt><trkpt lat="45.4482067" lon="10.8891309"><ele>97.0</ele><time>2026-04-06T08:13:23.991Z</time></trkpt><trkpt lat="45.4483824" lon="10.8889398"><ele>97.33333333333334</ele><time>2026-04-06T08:13:24.991Z</time></trkpt><trkpt lat="45.448557" lon="10.8887589"><ele>97.66666666666666</ele><time>2026-04-06T08:13:25.991Z</time></trkpt><trkpt lat="45.4487289" lon="10.8885902"><ele>98.0</ele><time>2026-04-06T08:13:26.991Z</time></trkpt><trkpt lat="45.448903" lon="10.8884213"><ele>98.0</ele><time>2026-04-06T08:13:27.991Z</time></trkpt><trkpt lat="45.4490802" lon="10.8882477"><ele>98.0</ele><time>2026-04-06T08:13:28.992Z</time></trkpt><trkpt lat="45.4492586" lon="10.8880742"><ele>98.0</ele><time>2026-04-06T08:13:29.992Z</time></trkpt><trkpt lat="45.4494411" lon="10.8879023"><ele>98.0</ele><time>2026-04-06T08:13:30.991Z</time></trkpt><trkpt lat="45.4496225" lon="10.887734"><ele>98.0</ele><time>2026-04-06T08:13:31.991Z</time></trkpt><trkpt lat="45.4498041" lon="10.887565"><ele>98.0</ele><time>2026-04-06T08:13:32.991Z</time></trkpt><trkpt lat="45.4499847" lon="10.8873953"><ele>98.0</ele><time>2026-04-06T08:13:33.992Z</time></trkpt><trkpt lat="45.4501674" lon="10.8872199"><ele>98.0</ele><time>2026-04-06T08:13:34.992Z</time></trkpt><trkpt lat="45.4503471" lon="10.8870381"><ele>98.0</ele><time>2026-04-06T08:13:35.991Z</time></trkpt><trkpt lat="45.4505246" lon="10.8868447"><ele>98.66666666666666</ele><time>2026-04-06T08:13:36.992Z</time></trkpt><trkpt lat="45.4506941" lon="10.8866448"><ele>99.33333333333334</ele><time>2026-04-06T08:13:37.991Z</time></trkpt><trkpt lat="45.450861" lon="10.8864359"><ele>100.0</ele><time>2026-04-06T08:13:38.992Z</time></trkpt><trkpt lat="45.4510222" lon="10.886224"><ele>100.0</ele><time>2026-04-06T08:13:39.991Z</time></trkpt><trkpt lat="45.4511837" lon="10.8860045"><ele>100.0</ele><time>2026-04-06T08:13:40.992Z</time></trkpt><trkpt lat="45.4513464" lon="10.8857814"><ele>100.0</ele><time>2026-04-06T08:13:41.992Z</time></trkpt><trkpt lat="45.4515113" lon="10.8855507"><ele>100.0</ele><time>2026-04-06T08:13:42.992Z</time></trkpt><trkpt lat="45.4516777" lon="10.8853162"><ele>100.0</ele><time>2026-04-06T08:13:43.992Z</time></trkpt><trkpt lat="45.4518463" lon="10.8850807"><ele>100.5</ele><time>2026-04-06T08:13:44.991Z</time></trkpt><trkpt lat="45.4520156" lon="10.8848425"><ele>101.0</ele><time>2026-04-06T08:13:45.991Z</time></trkpt><trkpt lat="45.4521843" lon="10.8846051"><ele>101.0</ele><time>2026-04-06T08:13:46.992Z</time></trkpt><trkpt lat="45.4523495" lon="10.8843718"><ele>101.0</ele><time>2026-04-06T08:13:47.992Z</time></trkpt><trkpt lat="45.4525003" lon="10.8841604"><ele>101.0</ele><time>2026-04-06T08:13:48.991Z</time></trkpt><trkpt lat="45.4526427" lon="10.8839612"><ele>101.33333333333333</ele><time>2026-04-06T08:13:49.991Z</time></trkpt><trkpt lat="45.4527768" lon="10.8837756"><ele>101.66666666666666</ele><time>2026-04-06T08:13:50.991Z</time></trkpt><trkpt lat="45.4529055" lon="10.8836005"><ele>102.0</ele><time>2026-04-06T08:13:51.992Z</time></trkpt><trkpt lat="45.4530268" lon="10.8834388"><ele>101.66666666666666</ele><time>2026-04-06T08:13:52.991Z</time></trkpt><trkpt lat="45.4531434" lon="10.8832877"><ele>101.33333333333333</ele><time>2026-04-06T08:13:53.991Z</time></trkpt><trkpt lat="45.4532578" lon="10.8831496"><ele>101.0</ele><time>2026-04-06T08:13:54.992Z</time></trkpt><trkpt lat="45.4533722" lon="10.8830268"><ele>101.0</ele><time>2026-04-06T08:13:55.991Z</time></trkpt><trkpt lat="45.4534951" lon="10.8829122"><ele>101.0</ele><time>2026-04-06T08:13:56.992Z</time></trkpt><trkpt lat="45.4536225" lon="10.8828032"><ele>101.0</ele><time>2026-04-06T08:13:57.991Z</time></trkpt><trkpt lat="45.4537442" lon="10.8826896"><ele>101.0</ele><time>2026-04-06T08:13:58.992Z</time></trkpt><trkpt lat="45.4538572" lon="10.8825598"><ele>101.0</ele><time>2026-04-06T08:13:59.991Z</time></trkpt><trkpt lat="45.4539697" lon="10.8824053"><ele>101.0</ele><time>2026-04-06T08:14:00.991Z</time></trkpt><trkpt lat="45.4540752" lon="10.8822411"><ele>101.0</ele><time>2026-04-06T08:14:01.991Z</time></trkpt><trkpt lat="45.4541829" lon="10.8820551"><ele>101.0</ele><time>2026-04-06T08:14:02.991Z</time></trkpt><trkpt lat="45.4543005" lon="10.8818515"><ele>101.0</ele><time>2026-04-06T08:14:03.991Z</time></trkpt><trkpt lat="45.4544366" lon="10.8816335"><ele>101.0</ele><time>2026-04-06T08:14:04.991Z</time></trkpt><trkpt lat="45.4545752" lon="10.8814334"><ele>100.66666666666666</ele><time>2026-04-06T08:14:05.991Z</time></trkpt><trkpt lat="45.4547053" lon="10.8812424"><ele>100.33333333333334</ele><time>2026-04-06T08:14:06.991Z</time></trkpt><trkpt lat="45.4548299" lon="10.881059"><ele>100.0</ele><time>2026-04-06T08:14:07.992Z</time></trkpt><trkpt lat="45.454944" lon="10.8808849"><ele>100.0</ele><time>2026-04-06T08:14:08.992Z</time></trkpt><trkpt lat="45.455046" lon="10.8807216"><ele>100.0</ele><time>2026-04-06T08:14:09.991Z</time></trkpt><trkpt lat="45.4551368" lon="10.8805757"><ele>100.0</ele><time>2026-04-06T08:14:10.991Z</time></trkpt><trkpt lat="45.4552227" lon="10.880442"><ele>100.0</ele><time>2026-04-06T08:14:11.991Z</time></trkpt><trkpt lat="45.4553029" lon="10.8803246"><ele>100.0</ele><time>2026-04-06T08:14:12.991Z</time></trkpt><trkpt lat="45.4553856" lon="10.8802299"><ele>100.0</ele><time>2026-04-06T08:14:13.991Z</time></trkpt><trkpt lat="45.455475" lon="10.8801686"><ele>100.0</ele><time>2026-04-06T08:14:14.991Z</time></trkpt><trkpt lat="45.4555756" lon="10.8801424"><ele>100.0</ele><time>2026-04-06T08:14:15.991Z</time></trkpt><trkpt lat="45.4556846" lon="10.8801537"><ele>100.0</ele><time>2026-04-06T08:14:16.992Z</time></trkpt><trkpt lat="45.4557972" lon="10.8802109"><ele>100.0</ele><time>2026-04-06T08:14:17.991Z</time></trkpt><trkpt lat="45.4559101" lon="10.8803089"><ele>100.0</ele><time>2026-04-06T08:14:18.991Z</time></trkpt><trkpt lat="45.4560352" lon="10.8804134"><ele>100.0</ele><time>2026-04-06T08:14:19.991Z</time></trkpt><trkpt lat="45.4561663" lon="10.8804846"><ele>100.0</ele><time>2026-04-06T08:14:20.991Z</time></trkpt><trkpt lat="45.4562979" lon="10.8805127"><ele>100.2</ele><time>2026-04-06T08:14:21.992Z</time></trkpt><trkpt lat="45.4564115" lon="10.8804977"><ele>100.4</ele><time>2026-04-06T08:14:22.991Z</time></trkpt><trkpt lat="45.4565097" lon="10.8804414"><ele>100.6</ele><time>2026-04-06T08:14:23.991Z</time></trkpt><trkpt lat="45.4565989" lon="10.8803422"><ele>100.8</ele><time>2026-04-06T08:14:24.991Z</time></trkpt><trkpt lat="45.4566696" lon="10.8802133"><ele>101.0</ele><time>2026-04-06T08:14:25.992Z</time></trkpt><trkpt lat="45.4567162" lon="10.8800629"><ele>101.0</ele><time>2026-04-06T08:14:26.992Z</time></trkpt><trkpt lat="45.4567373" lon="10.8798963"><ele>101.0</ele><time>2026-04-06T08:14:27.991Z</time></trkpt><trkpt lat="45.4567269" lon="10.8797248"><ele>101.0</ele><time>2026-04-06T08:14:28.992Z</time></trkpt><trkpt lat="45.4566796" lon="10.8795575"><ele>101.0</ele><time>2026-04-06T08:14:29.991Z</time></trkpt><trkpt lat="45.4565968" lon="10.8793999"><ele>100.66666666666666</ele><time>2026-04-06T08:14:30.992Z</time></trkpt><trkpt lat="45.4564802" lon="10.8792491"><ele>100.33333333333334</ele><time>2026-04-06T08:14:31.992Z</time></trkpt><trkpt lat="45.4563425" lon="10.8790992"><ele>100.0</ele><time>2026-04-06T08:14:32.992Z</time></trkpt><trkpt lat="45.4561966" lon="10.878947"><ele>99.66666666666667</ele><time>2026-04-06T08:14:33.992Z</time></trkpt><trkpt lat="45.456046" lon="10.8787893"><ele>99.33333333333334</ele><time>2026-04-06T08:14:34.991Z</time></trkpt><trkpt lat="45.4558853" lon="10.8786168"><ele>99.0</ele><time>2026-04-06T08:14:35.991Z</time></trkpt><trkpt lat="45.4557299" lon="10.8784591"><ele>99.33333333333334</ele><time>2026-04-06T08:14:36.991Z</time></trkpt><trkpt lat="45.4555826" lon="10.8783265"><ele>99.66666666666667</ele><time>2026-04-06T08:14:37.992Z</time></trkpt><trkpt lat="45.4554495" lon="10.8782134"><ele>100.0</ele><time>2026-04-06T08:14:38.991Z</time></trkpt><trkpt lat="45.455329" lon="10.8781067"><ele>100.5</ele><time>2026-04-06T08:14:39.991Z</time></trkpt><trkpt lat="45.4552224" lon="10.8779985"><ele>101.0</ele><time>2026-04-06T08:14:40.991Z</time></trkpt><trkpt lat="45.4551265" lon="10.8778783"><ele>101.5</ele><time>2026-04-06T08:14:41.991Z</time></trkpt><trkpt lat="45.4550369" lon="10.87774"><ele>102.0</ele><time>2026-04-06T08:14:42.992Z</time></trkpt><trkpt lat="45.4549522" lon="10.8775966"><ele>102.0</ele><time>2026-04-06T08:14:43.992Z</time></trkpt><trkpt lat="45.4548661" lon="10.8774669"><ele>102.0</ele><time>2026-04-06T08:14:44.992Z</time></trkpt><trkpt lat="45.4547737" lon="10.8773677"><ele>102.0</ele><time>2026-04-06T08:14:45.991Z</time></trkpt><trkpt lat="45.4546648" lon="10.8773004"><ele>102.0</ele><time>2026-04-06T08:14:46.992Z</time></trkpt><trkpt lat="45.454542" lon="10.877271"><ele>102.25</ele><time>2026-04-06T08:14:47.991Z</time></trkpt><trkpt lat="45.4544123" lon="10.8772762"><ele>102.5</ele><time>2026-04-06T08:14:48.992Z</time></trkpt><trkpt lat="45.4542815" lon="10.8772845"><ele>102.75</ele><time>2026-04-06T08:14:49.991Z</time></trkpt><trkpt lat="45.4541498" lon="10.877256"><ele>103.0</ele><time>2026-04-06T08:14:50.991Z</time></trkpt><trkpt lat="45.454019" lon="10.8771815"><ele>103.0</ele><time>2026-04-06T08:14:51.992Z</time></trkpt><trkpt lat="45.4538906" lon="10.877065"><ele>103.0</ele><time>2026-04-06T08:14:52.992Z</time></trkpt><trkpt lat="45.453769" lon="10.8769075"><ele>103.0</ele><time>2026-04-06T08:14:53.992Z</time></trkpt><trkpt lat="45.453648" lon="10.8767107"><ele>102.66666666666667</ele><time>2026-04-06T08:14:54.991Z</time></trkpt><trkpt lat="45.4535272" lon="10.8764865"><ele>102.33333333333334</ele><time>2026-04-06T08:14:55.992Z</time></trkpt><trkpt lat="45.4534115" lon="10.8762502"><ele>102.0</ele><time>2026-04-06T08:14:56.992Z</time></trkpt><trkpt lat="45.4532976" lon="10.8760139"><ele>102.33333333333334</ele><time>2026-04-06T08:14:57.992Z</time></trkpt><trkpt lat="45.4531806" lon="10.8757925"><ele>102.66666666666667</ele><time>2026-04-06T08:14:58.992Z</time></trkpt><trkpt lat="45.4530684" lon="10.8755967"><ele>103.0</ele><time>2026-04-06T08:14:59.991Z</time></trkpt><trkpt lat="45.4529649" lon="10.8754176"><ele>103.25</ele><time>2026-04-06T08:15:00.991Z</time></trkpt><trkpt lat="45.4528725" lon="10.8752492"><ele>103.5</ele><time>2026-04-06T08:15:01.991Z</time></trkpt><trkpt lat="45.45279" lon="10.8750853"><ele>103.75</ele><time>2026-04-06T08:15:02.992Z</time></trkpt><trkpt lat="45.4527157" lon="10.8749252"><ele>104.0</ele><time>2026-04-06T08:15:03.992Z</time></trkpt><trkpt lat="45.4526442" lon="10.8747588"><ele>104.0</ele><time>2026-04-06T08:15:04.992Z</time></trkpt><trkpt lat="45.4525733" lon="10.8745791"><ele>104.0</ele><time>2026-04-06T08:15:05.991Z</time></trkpt><trkpt lat="45.4525007" lon="10.8743776"><ele>104.0</ele><time>2026-04-06T08:15:06.991Z</time></trkpt><trkpt lat="45.4524322" lon="10.8741572"><ele>104.0</ele><time>2026-04-06T08:15:07.991Z</time></trkpt><trkpt lat="45.4523697" lon="10.8739129"><ele>104.0</ele><time>2026-04-06T08:15:08.992Z</time></trkpt><trkpt lat="45.4523148" lon="10.873652"><ele>104.0</ele><time>2026-04-06T08:15:09.992Z</time></trkpt><trkpt lat="45.4522712" lon="10.8733958"><ele>104.0</ele><time>2026-04-06T08:15:10.991Z</time></trkpt><trkpt lat="45.4522389" lon="10.8731434"><ele>104.0</ele><time>2026-04-06T08:15:11.991Z</time></trkpt><trkpt lat="45.4522183" lon="10.8728932"><ele>104.0</ele><time>2026-04-06T08:15:12.992Z</time></trkpt><trkpt lat="45.4522082" lon="10.8726411"><ele>103.66666666666666</ele><time>2026-04-06T08:15:13.991Z</time></trkpt><trkpt lat="45.4522074" lon="10.8723805"><ele>103.33333333333334</ele><time>2026-04-06T08:15:14.992Z</time></trkpt><trkpt lat="45.4522169" lon="10.8721145"><ele>103.0</ele><time>2026-04-06T08:15:15.991Z</time></trkpt><trkpt lat="45.4522375" lon="10.8718423"><ele>104.33333333333334</ele><time>2026-04-06T08:15:16.991Z</time></trkpt><trkpt lat="45.4522688" lon="10.8715811"><ele>105.66666666666666</ele><time>2026-04-06T08:15:17.991Z</time></trkpt><trkpt lat="45.4523084" lon="10.8713278"><ele>107.0</ele><time>2026-04-06T08:15:18.991Z</time></trkpt><trkpt lat="45.4523586" lon="10.8710676"><ele>106.0</ele><time>2026-04-06T08:15:19.991Z</time></trkpt><trkpt lat="45.4524168" lon="10.8708111"><ele>105.0</ele><time>2026-04-06T08:15:20.991Z</time></trkpt><trkpt lat="45.4524798" lon="10.8705541"><ele>104.0</ele><time>2026-04-06T08:15:21.992Z</time></trkpt><trkpt lat="45.452544" lon="10.8702967"><ele>103.66666666666666</ele><time>2026-04-06T08:15:22.992Z</time></trkpt><trkpt lat="45.4526074" lon="10.8700303"><ele>103.33333333333334</ele><time>2026-04-06T08:15:23.992Z</time></trkpt><trkpt lat="45.4526705" lon="10.8697598"><ele>103.0</ele><time>2026-04-06T08:15:24.991Z</time></trkpt><trkpt lat="45.4527359" lon="10.8694856"><ele>103.0</ele><time>2026-04-06T08:15:25.991Z</time></trkpt><trkpt lat="45.4528014" lon="10.8692125"><ele>103.0</ele><time>2026-04-06T08:15:26.991Z</time></trkpt><trkpt lat="45.4528647" lon="10.8689467"><ele>103.0</ele><time>2026-04-06T08:15:27.991Z</time></trkpt><trkpt lat="45.452925" lon="10.8686957"><ele>103.0</ele><time>2026-04-06T08:15:28.992Z</time></trkpt><trkpt lat="45.4529871" lon="10.868444"><ele>103.0</ele><time>2026-04-06T08:15:29.991Z</time></trkpt><trkpt lat="45.4530496" lon="10.8681917"><ele>103.0</ele><time>2026-04-06T08:15:30.991Z</time></trkpt><trkpt lat="45.4531103" lon="10.8679428"><ele>103.33333333333334</ele><time>2026-04-06T08:15:31.991Z</time></trkpt><trkpt lat="45.453168" lon="10.867699"><ele>103.66666666666666</ele><time>2026-04-06T08:15:32.992Z</time></trkpt><trkpt lat="45.4532273" lon="10.8674483"><ele>104.0</ele><time>2026-04-06T08:15:33.992Z</time></trkpt><trkpt lat="45.4532867" lon="10.8671955"><ele>104.0</ele><time>2026-04-06T08:15:34.991Z</time></trkpt><trkpt lat="45.4533465" lon="10.8669394"><ele>104.0</ele><time>2026-04-06T08:15:35.991Z</time></trkpt><trkpt lat="45.4534032" lon="10.8666946"><ele>104.0</ele><time>2026-04-06T08:15:36.991Z</time></trkpt><trkpt lat="45.4534579" lon="10.8664507"><ele>104.0</ele><time>2026-04-06T08:15:37.992Z</time></trkpt><trkpt lat="45.4535086" lon="10.8662078"><ele>104.0</ele><time>2026-04-06T08:15:38.992Z</time></trkpt><trkpt lat="45.453556" lon="10.8659595"><ele>104.0</ele><time>2026-04-06T08:15:39.991Z</time></trkpt><trkpt lat="45.4536007" lon="10.8657098"><ele>103.66666666666666</ele><time>2026-04-06T08:15:40.992Z</time></trkpt><trkpt lat="45.453647" lon="10.8654542"><ele>103.33333333333334</ele><time>2026-04-06T08:15:41.991Z</time></trkpt><trkpt lat="45.4536951" lon="10.8651964"><ele>103.0</ele><time>2026-04-06T08:15:42.992Z</time></trkpt><trkpt lat="45.4537456" lon="10.8649287"><ele>103.0</ele><time>2026-04-06T08:15:43.991Z</time></trkpt><trkpt lat="45.4537975" lon="10.8646546"><ele>103.0</ele><time>2026-04-06T08:15:44.992Z</time></trkpt><trkpt lat="45.4538517" lon="10.8643733"><ele>103.0</ele><time>2026-04-06T08:15:45.992Z</time></trkpt><trkpt lat="45.453905" lon="10.8641003"><ele>103.66666666666667</ele><time>2026-04-06T08:15:46.991Z</time></trkpt><trkpt lat="45.4539563" lon="10.8638396"><ele>104.33333333333334</ele><time>2026-04-06T08:15:47.991Z</time></trkpt><trkpt lat="45.4540055" lon="10.8635866"><ele>105.0</ele><time>2026-04-06T08:15:48.992Z</time></trkpt><trkpt lat="45.4540541" lon="10.8633371"><ele>105.33333333333334</ele><time>2026-04-06T08:15:49.992Z</time></trkpt><trkpt lat="45.4541025" lon="10.8630858"><ele>105.66666666666667</ele><time>2026-04-06T08:15:50.991Z</time></trkpt><trkpt lat="45.4541508" lon="10.8628364"><ele>106.0</ele><time>2026-04-06T08:15:51.992Z</time></trkpt><trkpt lat="45.4541991" lon="10.8625834"><ele>106.66666666666667</ele><time>2026-04-06T08:15:52.991Z</time></trkpt><trkpt lat="45.454246" lon="10.8623366"><ele>107.33333333333334</ele><time>2026-04-06T08:15:53.992Z</time></trkpt><trkpt lat="45.4542925" lon="10.8620909"><ele>108.0</ele><time>2026-04-06T08:15:54.992Z</time></trkpt><trkpt lat="45.4543386" lon="10.861847"><ele>108.33333333333334</ele><time>2026-04-06T08:15:55.992Z</time></trkpt><trkpt lat="45.4543846" lon="10.8615993"><ele>108.66666666666667</ele><time>2026-04-06T08:15:56.992Z</time></trkpt><trkpt lat="45.4544308" lon="10.861349"><ele>109.0</ele><time>2026-04-06T08:15:57.992Z</time></trkpt><trkpt lat="45.454479" lon="10.8610898"><ele>108.66666666666667</ele><time>2026-04-06T08:15:58.991Z</time></trkpt><trkpt lat="45.4545301" lon="10.8608231"><ele>108.33333333333334</ele><time>2026-04-06T08:15:59.992Z</time></trkpt><trkpt lat="45.4545838" lon="10.8605446"><ele>108.0</ele><time>2026-04-06T08:16:00.992Z</time></trkpt><trkpt lat="45.4546432" lon="10.8602567"><ele>108.66666666666666</ele><time>2026-04-06T08:16:02.004Z</time></trkpt><trkpt lat="45.4546983" lon="10.859967"><ele>109.33333333333333</ele><time>2026-04-06T08:16:03.005Z</time></trkpt><trkpt lat="45.4547519" lon="10.8596846"><ele>110.0</ele><time>2026-04-06T08:16:04.005Z</time></trkpt><trkpt lat="45.4548037" lon="10.8593996"><ele>109.33333333333333</ele><time>2026-04-06T08:16:05.004Z</time></trkpt><trkpt lat="45.4548501" lon="10.8591215"><ele>108.66666666666666</ele><time>2026-04-06T08:16:06.005Z</time></trkpt><trkpt lat="45.4548916" lon="10.8588375"><ele>108.0</ele><time>2026-04-06T08:16:07.005Z</time></trkpt><trkpt lat="45.4549272" lon="10.8585484"><ele>107.66666666666666</ele><time>2026-04-06T08:16:08.004Z</time></trkpt><trkpt lat="45.4549634" lon="10.8582556"><ele>107.33333333333333</ele><time>2026-04-06T08:16:09.005Z</time></trkpt><trkpt lat="45.4550055" lon="10.8579608"><ele>107.0</ele><time>2026-04-06T08:16:10.005Z</time></trkpt><trkpt lat="45.4550539" lon="10.8576641"><ele>107.33333333333333</ele><time>2026-04-06T08:16:11.004Z</time></trkpt><trkpt lat="45.4551099" lon="10.857361"><ele>107.66666666666666</ele><time>2026-04-06T08:16:12.006Z</time></trkpt><trkpt lat="45.4551698" lon="10.8570458"><ele>108.0</ele><time>2026-04-06T08:16:13.006Z</time></trkpt><trkpt lat="45.4552284" lon="10.8567293"><ele>108.33333333333334</ele><time>2026-04-06T08:16:14.005Z</time></trkpt><trkpt lat="45.4552849" lon="10.8564341"><ele>108.66666666666667</ele><time>2026-04-06T08:16:15.006Z</time></trkpt><trkpt lat="45.4553401" lon="10.8561521"><ele>109.0</ele><time>2026-04-06T08:16:16.006Z</time></trkpt><trkpt lat="45.4553964" lon="10.855874"><ele>109.0</ele><time>2026-04-06T08:16:17.005Z</time></trkpt><trkpt lat="45.4554553" lon="10.8555927"><ele>109.0</ele><time>2026-04-06T08:16:18.004Z</time></trkpt><trkpt lat="45.4555186" lon="10.8553107"><ele>109.0</ele><time>2026-04-06T08:16:19.005Z</time></trkpt><trkpt lat="45.4555873" lon="10.8550276"><ele>109.0</ele><time>2026-04-06T08:16:20.004Z</time></trkpt><trkpt lat="45.4556588" lon="10.8547469"><ele>109.0</ele><time>2026-04-06T08:16:21.004Z</time></trkpt><trkpt lat="45.4557329" lon="10.8544698"><ele>109.0</ele><time>2026-04-06T08:16:22.004Z</time></trkpt><trkpt lat="45.4558076" lon="10.8541952"><ele>109.0</ele><time>2026-04-06T08:16:23.004Z</time></trkpt><trkpt lat="45.4558786" lon="10.8539311"><ele>109.0</ele><time>2026-04-06T08:16:24.005Z</time></trkpt><trkpt lat="45.455947" lon="10.8536697"><ele>109.0</ele><time>2026-04-06T08:16:25.005Z</time></trkpt><trkpt lat="45.4560139" lon="10.8534048"><ele>109.0</ele><time>2026-04-06T08:16:26.005Z</time></trkpt><trkpt lat="45.4560778" lon="10.8531377"><ele>109.0</ele><time>2026-04-06T08:16:27.005Z</time></trkpt><trkpt lat="45.4561367" lon="10.852861"><ele>109.0</ele><time>2026-04-06T08:16:28.005Z</time></trkpt><trkpt lat="45.4561937" lon="10.8525756"><ele>109.0</ele><time>2026-04-06T08:16:29.006Z</time></trkpt><trkpt lat="45.4562511" lon="10.8522875"><ele>109.0</ele><time>2026-04-06T08:16:30.005Z</time></trkpt><trkpt lat="45.4563078" lon="10.8520123"><ele>109.0</ele><time>2026-04-06T08:16:31.004Z</time></trkpt><trkpt lat="45.4563641" lon="10.8517393"><ele>109.66666666666667</ele><time>2026-04-06T08:16:32.004Z</time></trkpt><trkpt lat="45.4564199" lon="10.8514646"><ele>110.33333333333334</ele><time>2026-04-06T08:16:33.004Z</time></trkpt><trkpt lat="45.4564765" lon="10.8511894"><ele>111.0</ele><time>2026-04-06T08:16:34.004Z</time></trkpt><trkpt lat="45.4565336" lon="10.8509149"><ele>111.33333333333334</ele><time>2026-04-06T08:16:35.004Z</time></trkpt><trkpt lat="45.4565901" lon="10.8506321"><ele>111.66666666666667</ele><time>2026-04-06T08:16:36.004Z</time></trkpt><trkpt lat="45.4566539" lon="10.8503466"><ele>112.0</ele><time>2026-04-06T08:16:37.005Z</time></trkpt><trkpt lat="45.4567237" lon="10.8500571"><ele>112.0</ele><time>2026-04-06T08:16:38.005Z</time></trkpt><trkpt lat="45.4568011" lon="10.8497662"><ele>112.0</ele><time>2026-04-06T08:16:39.005Z</time></trkpt><trkpt lat="45.4568724" lon="10.8494847"><ele>112.0</ele><time>2026-04-06T08:16:40.005Z</time></trkpt><trkpt lat="45.456938" lon="10.8492024"><ele>112.0</ele><time>2026-04-06T08:16:41.005Z</time></trkpt><trkpt lat="45.4569956" lon="10.848914"><ele>112.0</ele><time>2026-04-06T08:16:42.005Z</time></trkpt><trkpt lat="45.4570455" lon="10.8486271"><ele>112.0</ele><time>2026-04-06T08:16:43.005Z</time></trkpt><trkpt lat="45.457094" lon="10.8483405"><ele>112.0</ele><time>2026-04-06T08:16:44.004Z</time></trkpt><trkpt lat="45.4571284" lon="10.8480488"><ele>112.0</ele><time>2026-04-06T08:16:45.004Z</time></trkpt><trkpt lat="45.4571641" lon="10.8477603"><ele>112.0</ele><time>2026-04-06T08:16:46.004Z</time></trkpt><trkpt lat="45.4571942" lon="10.8474816"><ele>112.0</ele><time>2026-04-06T08:16:47.005Z</time></trkpt><trkpt lat="45.457222" lon="10.8472213"><ele>112.0</ele><time>2026-04-06T08:16:48.005Z</time></trkpt><trkpt lat="45.4572509" lon="10.8469651"><ele>112.0</ele><time>2026-04-06T08:16:49.004Z</time></trkpt><trkpt lat="45.457283" lon="10.846709"><ele>112.0</ele><time>2026-04-06T08:16:50.006Z</time></trkpt><trkpt lat="45.4573155" lon="10.8464501"><ele>112.0</ele><time>2026-04-06T08:16:51.006Z</time></trkpt><trkpt lat="45.4573485" lon="10.8461857"><ele>112.0</ele><time>2026-04-06T08:16:52.005Z</time></trkpt><trkpt lat="45.4573829" lon="10.8459145"><ele>112.33333333333334</ele><time>2026-04-06T08:16:53.004Z</time></trkpt><trkpt lat="45.4574185" lon="10.8456334"><ele>112.66666666666666</ele><time>2026-04-06T08:16:54.005Z</time></trkpt><trkpt lat="45.4574579" lon="10.8453493"><ele>113.0</ele><time>2026-04-06T08:16:55.004Z</time></trkpt><trkpt lat="45.4575052" lon="10.8450833"><ele>113.0</ele><time>2026-04-06T08:16:56.005Z</time></trkpt><trkpt lat="45.4575632" lon="10.8448146"><ele>113.0</ele><time>2026-04-06T08:16:57.004Z</time></trkpt><trkpt lat="45.4576242" lon="10.8445626"><ele>113.0</ele><time>2026-04-06T08:16:58.004Z</time></trkpt><trkpt lat="45.4576868" lon="10.8443168"><ele>113.0</ele><time>2026-04-06T08:16:59.005Z</time></trkpt><trkpt lat="45.4577533" lon="10.8440691"><ele>113.0</ele><time>2026-04-06T08:17:00.004Z</time></trkpt><trkpt lat="45.4578236" lon="10.8438239"><ele>113.0</ele><time>2026-04-06T08:17:01.004Z</time></trkpt><trkpt lat="45.4578969" lon="10.8435792"><ele>112.0</ele><time>2026-04-06T08:17:02.006Z</time></trkpt><trkpt lat="45.4579739" lon="10.8433347"><ele>111.0</ele><time>2026-04-06T08:17:03.005Z</time></trkpt><trkpt lat="45.4580518" lon="10.8430925"><ele>110.0</ele><time>2026-04-06T08:17:04.005Z</time></trkpt><trkpt lat="45.458129" lon="10.8428561"><ele>111.0</ele><time>2026-04-06T08:17:05.004Z</time></trkpt><trkpt lat="45.458205" lon="10.8426294"><ele>112.0</ele><time>2026-04-06T08:17:06.004Z</time></trkpt><trkpt lat="45.4582767" lon="10.8424084"><ele>113.0</ele><time>2026-04-06T08:17:07.004Z</time></trkpt><trkpt lat="45.4583417" lon="10.8421947"><ele>113.0</ele><time>2026-04-06T08:17:08.004Z</time></trkpt><trkpt lat="45.4584007" lon="10.8419906"><ele>113.0</ele><time>2026-04-06T08:17:09.004Z</time></trkpt><trkpt lat="45.4584556" lon="10.8417957"><ele>113.0</ele><time>2026-04-06T08:17:10.004Z</time></trkpt><trkpt lat="45.4585063" lon="10.8416101"><ele>113.0</ele><time>2026-04-06T08:17:11.005Z</time></trkpt><trkpt lat="45.4585549" lon="10.8414337"><ele>113.0</ele><time>2026-04-06T08:17:12.005Z</time></trkpt><trkpt lat="45.4586054" lon="10.8412554"><ele>113.0</ele><time>2026-04-06T08:17:13.004Z</time></trkpt><trkpt lat="45.4586584" lon="10.8410864"><ele>113.0</ele><time>2026-04-06T08:17:14.004Z</time></trkpt><trkpt lat="45.4587154" lon="10.840912"><ele>113.0</ele><time>2026-04-06T08:17:15.006Z</time></trkpt><trkpt lat="45.4587729" lon="10.8407379"><ele>113.5</ele><time>2026-04-06T08:17:16.005Z</time></trkpt><trkpt lat="45.4588272" lon="10.8405756"><ele>114.0</ele><time>2026-04-06T08:17:17.004Z</time></trkpt><trkpt lat="45.4588831" lon="10.840412"><ele>114.5</ele><time>2026-04-06T08:17:18.006Z</time></trkpt><trkpt lat="45.4589405" lon="10.8402473"><ele>115.0</ele><time>2026-04-06T08:17:19.004Z</time></trkpt><trkpt lat="45.4589968" lon="10.8400942"><ele>115.25</ele><time>2026-04-06T08:17:20.004Z</time></trkpt><trkpt lat="45.4590516" lon="10.8399456"><ele>115.5</ele><time>2026-04-06T08:17:21.004Z</time></trkpt><trkpt lat="45.4591078" lon="10.8397941"><ele>115.75</ele><time>2026-04-06T08:17:22.006Z</time></trkpt><trkpt lat="45.4591645" lon="10.8396407"><ele>116.0</ele><time>2026-04-06T08:17:23.005Z</time></trkpt><trkpt lat="45.4592246" lon="10.8394785"><ele>116.0</ele><time>2026-04-06T08:17:24.004Z</time></trkpt><trkpt lat="45.4592862" lon="10.839313"><ele>116.0</ele><time>2026-04-06T08:17:25.004Z</time></trkpt><trkpt lat="45.4593469" lon="10.8391526"><ele>116.0</ele><time>2026-04-06T08:17:26.004Z</time></trkpt><trkpt lat="45.4594098" lon="10.8389917"><ele>116.0</ele><time>2026-04-06T08:17:27.005Z</time></trkpt><trkpt lat="45.4594759" lon="10.8388275"><ele>116.4</ele><time>2026-04-06T08:17:28.005Z</time></trkpt><trkpt lat="45.4595372" lon="10.8386811"><ele>116.8</ele><time>2026-04-06T08:17:29.004Z</time></trkpt><trkpt lat="45.4595901" lon="10.8385541"><ele>117.20000000000002</ele><time>2026-04-06T08:17:30.006Z</time></trkpt><trkpt lat="45.4596382" lon="10.8384369"><ele>117.60000000000001</ele><time>2026-04-06T08:17:31.005Z</time></trkpt><trkpt lat="45.459682" lon="10.8383309"><ele>118.0</ele><time>2026-04-06T08:17:32.004Z</time></trkpt><trkpt lat="45.4597242" lon="10.8382308"><ele>118.0</ele><time>2026-04-06T08:17:33.004Z</time></trkpt><trkpt lat="45.4597707" lon="10.8381214"><ele>118.00000000000001</ele><time>2026-04-06T08:17:34.004Z</time></trkpt><trkpt lat="45.45982" lon="10.8380071"><ele>118.00000000000001</ele><time>2026-04-06T08:17:35.005Z</time></trkpt><trkpt lat="45.459872" lon="10.8378864"><ele>118.0</ele><time>2026-04-06T08:17:36.004Z</time></trkpt><trkpt lat="45.4599253" lon="10.8377624"><ele>118.0</ele><time>2026-04-06T08:17:37.005Z</time></trkpt><trkpt lat="45.45998" lon="10.837637"><ele>119.4</ele><time>2026-04-06T08:17:38.004Z</time></trkpt><trkpt lat="45.460035" lon="10.8375068"><ele>120.80000000000001</ele><time>2026-04-06T08:17:39.004Z</time></trkpt><trkpt lat="45.4600908" lon="10.8373746"><ele>122.2</ele><time>2026-04-06T08:17:40.004Z</time></trkpt><trkpt lat="45.4601483" lon="10.837238"><ele>123.6</ele><time>2026-04-06T08:17:41.005Z</time></trkpt><trkpt lat="45.4602082" lon="10.8370954"><ele>125.0</ele><time>2026-04-06T08:17:42.006Z</time></trkpt><trkpt lat="45.4602709" lon="10.8369481"><ele>124.75</ele><time>2026-04-06T08:17:43.006Z</time></trkpt><trkpt lat="45.4603364" lon="10.8367964"><ele>124.5</ele><time>2026-04-06T08:17:44.006Z</time></trkpt><trkpt lat="45.4604051" lon="10.8366387"><ele>124.25</ele><time>2026-04-06T08:17:45.005Z</time></trkpt><trkpt lat="45.460476" lon="10.8364749"><ele>124.0</ele><time>2026-04-06T08:17:46.004Z</time></trkpt><trkpt lat="45.4605492" lon="10.8363051"><ele>123.75</ele><time>2026-04-06T08:17:47.005Z</time></trkpt><trkpt lat="45.460622" lon="10.8361404"><ele>123.5</ele><time>2026-04-06T08:17:48.006Z</time></trkpt><trkpt lat="45.4606943" lon="10.8359766"><ele>123.25</ele><time>2026-04-06T08:17:49.005Z</time></trkpt><trkpt lat="45.4607689" lon="10.8358058"><ele>123.0</ele><time>2026-04-06T08:17:50.004Z</time></trkpt><trkpt lat="45.4608466" lon="10.8356304"><ele>123.0</ele><time>2026-04-06T08:17:51.005Z</time></trkpt><trkpt lat="45.4609296" lon="10.835448"><ele>123.0</ele><time>2026-04-06T08:17:52.006Z</time></trkpt><trkpt lat="45.4610165" lon="10.835258"><ele>123.0</ele><time>2026-04-06T08:17:53.004Z</time></trkpt><trkpt lat="45.4611012" lon="10.8350692"><ele>123.25</ele><time>2026-04-06T08:17:54.005Z</time></trkpt><trkpt lat="45.4611807" lon="10.8348928"><ele>123.5</ele><time>2026-04-06T08:17:55.005Z</time></trkpt><trkpt lat="45.4612619" lon="10.834716"><ele>123.75</ele><time>2026-04-06T08:17:56.005Z</time></trkpt><trkpt lat="45.4613444" lon="10.8345359"><ele>124.0</ele><time>2026-04-06T08:17:57.005Z</time></trkpt><trkpt lat="45.4614272" lon="10.8343524"><ele>125.66666666666667</ele><time>2026-04-06T08:17:58.006Z</time></trkpt><trkpt lat="45.4615116" lon="10.8341635"><ele>127.33333333333334</ele><time>2026-04-06T08:17:59.005Z</time></trkpt><trkpt lat="45.4615989" lon="10.8339644"><ele>129.0</ele><time>2026-04-06T08:18:00.005Z</time></trkpt><trkpt lat="45.4616913" lon="10.8337612"><ele>129.0</ele><time>2026-04-06T08:18:01.005Z</time></trkpt><trkpt lat="45.4617856" lon="10.8335512"><ele>129.0</ele><time>2026-04-06T08:18:02.004Z</time></trkpt><trkpt lat="45.4618803" lon="10.8333436"><ele>129.0</ele><time>2026-04-06T08:18:03.005Z</time></trkpt><trkpt lat="45.4619751" lon="10.8331349"><ele>129.33333333333334</ele><time>2026-04-06T08:18:04.005Z</time></trkpt><trkpt lat="45.4620664" lon="10.8329359"><ele>129.66666666666669</ele><time>2026-04-06T08:18:05.005Z</time></trkpt><trkpt lat="45.4621583" lon="10.8327374"><ele>130.0</ele><time>2026-04-06T08:18:06.005Z</time></trkpt><trkpt lat="45.4622515" lon="10.832536"><ele>130.0</ele><time>2026-04-06T08:18:07.005Z</time></trkpt><trkpt lat="45.4623456" lon="10.8323303"><ele>130.0</ele><time>2026-04-06T08:18:08.005Z</time></trkpt><trkpt lat="45.4624451" lon="10.8321141"><ele>130.0</ele><time>2026-04-06T08:18:09.005Z</time></trkpt><trkpt lat="45.4625431" lon="10.8318983"><ele>130.33333333333334</ele><time>2026-04-06T08:18:10.005Z</time></trkpt><trkpt lat="45.4626414" lon="10.8316751"><ele>130.66666666666666</ele><time>2026-04-06T08:18:11.005Z</time></trkpt><trkpt lat="45.4627456" lon="10.8314405"><ele>131.0</ele><time>2026-04-06T08:18:12.004Z</time></trkpt><trkpt lat="45.46285" lon="10.8312117"><ele>131.33333333333331</ele><time>2026-04-06T08:18:13.004Z</time></trkpt><trkpt lat="45.4629549" lon="10.8309962"><ele>131.66666666666666</ele><time>2026-04-06T08:18:14.005Z</time></trkpt><trkpt lat="45.4630609" lon="10.8307792"><ele>132.0</ele><time>2026-04-06T08:18:15.004Z</time></trkpt><trkpt lat="45.4631692" lon="10.830559"><ele>132.66666666666666</ele><time>2026-04-06T08:18:16.005Z</time></trkpt><trkpt lat="45.4632762" lon="10.8303388"><ele>133.33333333333331</ele><time>2026-04-06T08:18:17.006Z</time></trkpt><trkpt lat="45.4633804" lon="10.8301224"><ele>134.0</ele><time>2026-04-06T08:18:18.004Z</time></trkpt><trkpt lat="45.4634854" lon="10.8299011"><ele>134.66666666666666</ele><time>2026-04-06T08:18:19.004Z</time></trkpt><trkpt lat="45.4635908" lon="10.829682"><ele>135.33333333333334</ele><time>2026-04-06T08:18:20.005Z</time></trkpt><trkpt lat="45.4636881" lon="10.8294766"><ele>136.0</ele><time>2026-04-06T08:18:21.004Z</time></trkpt><trkpt lat="45.4637784" lon="10.8292863"><ele>136.0</ele><time>2026-04-06T08:18:22.005Z</time></trkpt><trkpt lat="45.4638643" lon="10.8291086"><ele>136.0</ele><time>2026-04-06T08:18:23.005Z</time></trkpt><trkpt lat="45.4639449" lon="10.8289373"><ele>136.0</ele><time>2026-04-06T08:18:24.005Z</time></trkpt><trkpt lat="45.4640269" lon="10.8287698"><ele>136.0</ele><time>2026-04-06T08:18:25.005Z</time></trkpt><trkpt lat="45.4641069" lon="10.8286096"><ele>136.5</ele><time>2026-04-06T08:18:26.004Z</time></trkpt><trkpt lat="45.4641772" lon="10.8284589"><ele>137.0</ele><time>2026-04-06T08:18:27.005Z</time></trkpt><trkpt lat="45.4642415" lon="10.8283214"><ele>137.5</ele><time>2026-04-06T08:18:28.004Z</time></trkpt><trkpt lat="45.4643038" lon="10.8281922"><ele>138.0</ele><time>2026-04-06T08:18:29.005Z</time></trkpt><trkpt lat="45.4643678" lon="10.8280617"><ele>138.0</ele><time>2026-04-06T08:18:30.005Z</time></trkpt><trkpt lat="45.4644378" lon="10.8279173"><ele>138.0</ele><time>2026-04-06T08:18:31.004Z</time></trkpt><trkpt lat="45.4645102" lon="10.8277624"><ele>138.0</ele><time>2026-04-06T08:18:32.004Z</time></trkpt><trkpt lat="45.4645886" lon="10.8276031"><ele>138.0</ele><time>2026-04-06T08:18:33.005Z</time></trkpt><trkpt lat="45.4646674" lon="10.8274544"><ele>138.25</ele><time>2026-04-06T08:18:34.004Z</time></trkpt><trkpt lat="45.4647549" lon="10.8273097"><ele>138.5</ele><time>2026-04-06T08:18:35.004Z</time></trkpt><trkpt lat="45.4648497" lon="10.8271739"><ele>138.75</ele><time>2026-04-06T08:18:36.005Z</time></trkpt><trkpt lat="45.4649472" lon="10.8270381"><ele>139.0</ele><time>2026-04-06T08:18:37.005Z</time></trkpt><trkpt lat="45.4650447" lon="10.8269047"><ele>139.5</ele><time>2026-04-06T08:18:38.005Z</time></trkpt><trkpt lat="45.4651342" lon="10.8267843"><ele>140.0</ele><time>2026-04-06T08:18:39.004Z</time></trkpt><trkpt lat="45.4652249" lon="10.8266545"><ele>140.5</ele><time>2026-04-06T08:18:40.004Z</time></trkpt><trkpt lat="45.4653101" lon="10.8265074"><ele>141.0</ele><time>2026-04-06T08:18:41.004Z</time></trkpt><trkpt lat="45.4653941" lon="10.8263383"><ele>140.66666666666666</ele><time>2026-04-06T08:18:42.005Z</time></trkpt><trkpt lat="45.4654786" lon="10.8261306"><ele>140.33333333333331</ele><time>2026-04-06T08:18:43.005Z</time></trkpt><trkpt lat="45.4655651" lon="10.8259054"><ele>140.0</ele><time>2026-04-06T08:18:44.004Z</time></trkpt><trkpt lat="45.4656559" lon="10.8256635"><ele>140.66666666666666</ele><time>2026-04-06T08:18:45.005Z</time></trkpt><trkpt lat="45.4657527" lon="10.8254016"><ele>141.33333333333334</ele><time>2026-04-06T08:18:46.005Z</time></trkpt><trkpt lat="45.4658528" lon="10.8251316"><ele>142.0</ele><time>2026-04-06T08:18:47.004Z</time></trkpt><trkpt lat="45.4659482" lon="10.8248684"><ele>142.66666666666669</ele><time>2026-04-06T08:18:48.004Z</time></trkpt><trkpt lat="45.4660366" lon="10.8246246"><ele>143.33333333333334</ele><time>2026-04-06T08:18:49.006Z</time></trkpt><trkpt lat="45.4661223" lon="10.8243933"><ele>144.0</ele><time>2026-04-06T08:18:50.006Z</time></trkpt><trkpt lat="45.4662047" lon="10.8241721"><ele>145.0</ele><time>2026-04-06T08:18:51.005Z</time></trkpt><trkpt lat="45.466285" lon="10.8239567"><ele>146.0</ele><time>2026-04-06T08:18:52.004Z</time></trkpt><trkpt lat="45.4663597" lon="10.8237502"><ele>147.0</ele><time>2026-04-06T08:18:53.005Z</time></trkpt><trkpt lat="45.4664332" lon="10.8235384"><ele>147.66666666666666</ele><time>2026-04-06T08:18:54.005Z</time></trkpt><trkpt lat="45.4665051" lon="10.8233253"><ele>148.33333333333331</ele><time>2026-04-06T08:18:55.005Z</time></trkpt><trkpt lat="45.4665764" lon="10.8231153"><ele>149.0</ele><time>2026-04-06T08:18:56.005Z</time></trkpt><trkpt lat="45.4666454" lon="10.822918"><ele>149.0</ele><time>2026-04-06T08:18:57.005Z</time></trkpt><trkpt lat="45.4667106" lon="10.8227376"><ele>149.0</ele><time>2026-04-06T08:18:58.004Z</time></trkpt><trkpt lat="45.4667764" lon="10.8225558"><ele>149.0</ele><time>2026-04-06T08:18:59.004Z</time></trkpt><trkpt lat="45.4668446" lon="10.8223756"><ele>149.0</ele><time>2026-04-06T08:19:00.005Z</time></trkpt><trkpt lat="45.466914" lon="10.8221929"><ele>149.0</ele><time>2026-04-06T08:19:01.004Z</time></trkpt><trkpt lat="45.4669814" lon="10.8220059"><ele>149.0</ele><time>2026-04-06T08:19:02.004Z</time></trkpt><trkpt lat="45.4670456" lon="10.821834"><ele>149.0</ele><time>2026-04-06T08:19:03.005Z</time></trkpt><trkpt lat="45.4671129" lon="10.8216599"><ele>149.0</ele><time>2026-04-06T08:19:04.005Z</time></trkpt><trkpt lat="45.4671862" lon="10.8214843"><ele>149.0</ele><time>2026-04-06T08:19:05.004Z</time></trkpt><trkpt lat="45.467266" lon="10.8213086"><ele>149.0</ele><time>2026-04-06T08:19:06.006Z</time></trkpt><trkpt lat="45.4673467" lon="10.8211342"><ele>149.0</ele><time>2026-04-06T08:19:07.005Z</time></trkpt><trkpt lat="45.4674217" lon="10.8209709"><ele>149.0</ele><time>2026-04-06T08:19:08.005Z</time></trkpt><trkpt lat="45.4674997" lon="10.8208065"><ele>150.0</ele><time>2026-04-06T08:19:09.004Z</time></trkpt><trkpt lat="45.4675789" lon="10.8206406"><ele>151.0</ele><time>2026-04-06T08:19:10.005Z</time></trkpt><trkpt lat="45.4676593" lon="10.8204798"><ele>152.0</ele><time>2026-04-06T08:19:11.006Z</time></trkpt><trkpt lat="45.4677374" lon="10.8203209"><ele>153.0</ele><time>2026-04-06T08:19:12.006Z</time></trkpt><trkpt lat="45.4678129" lon="10.8201646"><ele>153.5</ele><time>2026-04-06T08:19:13.005Z</time></trkpt><trkpt lat="45.4678876" lon="10.8200076"><ele>154.0</ele><time>2026-04-06T08:19:14.004Z</time></trkpt><trkpt lat="45.4679588" lon="10.8198551"><ele>154.5</ele><time>2026-04-06T08:19:15.004Z</time></trkpt><trkpt lat="45.4680251" lon="10.8197114"><ele>155.0</ele><time>2026-04-06T08:19:16.004Z</time></trkpt><trkpt lat="45.4680901" lon="10.8195697"><ele>155.0</ele><time>2026-04-06T08:19:17.006Z</time></trkpt><trkpt lat="45.4681595" lon="10.819416"><ele>155.0</ele><time>2026-04-06T08:19:18.004Z</time></trkpt><trkpt lat="45.4682316" lon="10.8192618"><ele>155.0</ele><time>2026-04-06T08:19:19.005Z</time></trkpt><trkpt lat="45.468306" lon="10.8191071"><ele>155.0</ele><time>2026-04-06T08:19:20.004Z</time></trkpt><trkpt lat="45.4683792" lon="10.8189485"><ele>155.75</ele><time>2026-04-06T08:19:21.004Z</time></trkpt><trkpt lat="45.4684508" lon="10.8187842"><ele>156.5</ele><time>2026-04-06T08:19:22.004Z</time></trkpt><trkpt lat="45.4685232" lon="10.8186196"><ele>157.25</ele><time>2026-04-06T08:19:23.005Z</time></trkpt><trkpt lat="45.4685982" lon="10.8184542"><ele>158.0</ele><time>2026-04-06T08:19:24.005Z</time></trkpt><trkpt lat="45.4686798" lon="10.8182773"><ele>158.33333333333331</ele><time>2026-04-06T08:19:25.004Z</time></trkpt><trkpt lat="45.4687665" lon="10.8180925"><ele>158.66666666666666</ele><time>2026-04-06T08:19:26.005Z</time></trkpt><trkpt lat="45.4688527" lon="10.8179098"><ele>159.0</ele><time>2026-04-06T08:19:27.005Z</time></trkpt><trkpt lat="45.4689424" lon="10.8177245"><ele>161.33333333333334</ele><time>2026-04-06T08:19:28.005Z</time></trkpt><trkpt lat="45.469032" lon="10.817547"><ele>163.66666666666669</ele><time>2026-04-06T08:19:29.005Z</time></trkpt><trkpt lat="45.4691263" lon="10.8173671"><ele>166.0</ele><time>2026-04-06T08:19:30.005Z</time></trkpt><trkpt lat="45.4692219" lon="10.8171837"><ele>166.0</ele><time>2026-04-06T08:19:31.004Z</time></trkpt><trkpt lat="45.4693206" lon="10.8170021"><ele>166.0</ele><time>2026-04-06T08:19:32.004Z</time></trkpt><trkpt lat="45.4694249" lon="10.8168144"><ele>166.0</ele><time>2026-04-06T08:19:33.004Z</time></trkpt><trkpt lat="45.4695391" lon="10.8166228"><ele>169.33333333333334</ele><time>2026-04-06T08:19:34.004Z</time></trkpt><trkpt lat="45.469661" lon="10.8164322"><ele>172.66666666666666</ele><time>2026-04-06T08:19:35.005Z</time></trkpt><trkpt lat="45.4697933" lon="10.8162318"><ele>176.0</ele><time>2026-04-06T08:19:36.005Z</time></trkpt><trkpt lat="45.469933" lon="10.8160263"><ele>176.33333333333331</ele><time>2026-04-06T08:19:37.004Z</time></trkpt><trkpt lat="45.4700625" lon="10.8158405"><ele>176.66666666666666</ele><time>2026-04-06T08:19:38.004Z</time></trkpt><trkpt lat="45.4701888" lon="10.8156684"><ele>177.0</ele><time>2026-04-06T08:19:39.005Z</time></trkpt><trkpt lat="45.4703189" lon="10.8154962"><ele>178.33333333333334</ele><time>2026-04-06T08:19:40.004Z</time></trkpt><trkpt lat="45.4704521" lon="10.8153283"><ele>179.66666666666669</ele><time>2026-04-06T08:19:41.005Z</time></trkpt><trkpt lat="45.4705897" lon="10.8151645"><ele>181.0</ele><time>2026-04-06T08:19:42.005Z</time></trkpt><trkpt lat="45.4707313" lon="10.8150051"><ele>181.0</ele><time>2026-04-06T08:19:43.004Z</time></trkpt><trkpt lat="45.4708702" lon="10.8148514"><ele>181.0</ele><time>2026-04-06T08:19:44.005Z</time></trkpt><trkpt lat="45.4710078" lon="10.8147026"><ele>181.0</ele><time>2026-04-06T08:19:45.005Z</time></trkpt><trkpt lat="45.4711478" lon="10.814557"><ele>182.0</ele><time>2026-04-06T08:19:46.006Z</time></trkpt><trkpt lat="45.4712911" lon="10.8144129"><ele>183.0</ele><time>2026-04-06T08:19:47.004Z</time></trkpt><trkpt lat="45.4714371" lon="10.8142643"><ele>184.0</ele><time>2026-04-06T08:19:48.005Z</time></trkpt><trkpt lat="45.4715846" lon="10.814111"><ele>184.33333333333334</ele><time>2026-04-06T08:19:49.004Z</time></trkpt><trkpt lat="45.4717405" lon="10.8139565"><ele>184.66666666666666</ele><time>2026-04-06T08:19:50.005Z</time></trkpt><trkpt lat="45.4719086" lon="10.8138007"><ele>185.0</ele><time>2026-04-06T08:19:51.005Z</time></trkpt><trkpt lat="45.4720858" lon="10.8136488"><ele>186.33333333333331</ele><time>2026-04-06T08:19:52.004Z</time></trkpt><trkpt lat="45.4722666" lon="10.8134989"><ele>187.66666666666666</ele><time>2026-04-06T08:19:53.005Z</time></trkpt><trkpt lat="45.4724419" lon="10.8133533"><ele>189.0</ele><time>2026-04-06T08:19:54.005Z</time></trkpt><trkpt lat="45.472619" lon="10.8132047"><ele>189.0</ele><time>2026-04-06T08:19:55.005Z</time></trkpt><trkpt lat="45.472796" lon="10.8130525"><ele>189.0</ele><time>2026-04-06T08:19:56.004Z</time></trkpt><trkpt lat="45.4729728" lon="10.8128976"><ele>189.0</ele><time>2026-04-06T08:19:57.005Z</time></trkpt><trkpt lat="45.4731468" lon="10.8127461"><ele>190.0</ele><time>2026-04-06T08:19:58.006Z</time></trkpt><trkpt lat="45.4733213" lon="10.8125949"><ele>191.0</ele><time>2026-04-06T08:19:59.005Z</time></trkpt><trkpt lat="45.4734978" lon="10.8124435"><ele>192.0</ele><time>2026-04-06T08:20:00.006Z</time></trkpt><trkpt lat="45.4736829" lon="10.8122899"><ele>193.0</ele><time>2026-04-06T08:20:01.004Z</time></trkpt><trkpt lat="45.4738699" lon="10.8121344"><ele>194.0</ele><time>2026-04-06T08:20:02.004Z</time></trkpt><trkpt lat="45.474048" lon="10.8119841"><ele>195.0</ele><time>2026-04-06T08:20:03.005Z</time></trkpt><trkpt lat="45.4742139" lon="10.8118414"><ele>195.0</ele><time>2026-04-06T08:20:04.004Z</time></trkpt><trkpt lat="45.4743733" lon="10.8117035"><ele>195.0</ele><time>2026-04-06T08:20:05.004Z</time></trkpt><trkpt lat="45.4745348" lon="10.8115654"><ele>195.0</ele><time>2026-04-06T08:20:06.004Z</time></trkpt><trkpt lat="45.4746978" lon="10.8114267"><ele>196.33333333333331</ele><time>2026-04-06T08:20:07.005Z</time></trkpt><trkpt lat="45.4748648" lon="10.811287"><ele>197.66666666666666</ele><time>2026-04-06T08:20:08.004Z</time></trkpt><trkpt lat="45.4750216" lon="10.8111517"><ele>199.0</ele><time>2026-04-06T08:20:09.004Z</time></trkpt><trkpt lat="45.4751765" lon="10.811017"><ele>198.33333333333331</ele><time>2026-04-06T08:20:10.005Z</time></trkpt><trkpt lat="45.4753344" lon="10.8108835"><ele>197.66666666666669</ele><time>2026-04-06T08:20:11.004Z</time></trkpt><trkpt lat="45.4754986" lon="10.8107549"><ele>197.0</ele><time>2026-04-06T08:20:12.004Z</time></trkpt><trkpt lat="45.4756721" lon="10.8106289"><ele>196.66666666666669</ele><time>2026-04-06T08:20:13.005Z</time></trkpt><trkpt lat="45.4758525" lon="10.8105"><ele>196.33333333333331</ele><time>2026-04-06T08:20:14.004Z</time></trkpt><trkpt lat="45.4760249" lon="10.8103711"><ele>196.0</ele><time>2026-04-06T08:20:15.005Z</time></trkpt><trkpt lat="45.4761834" lon="10.8102438"><ele>197.33333333333331</ele><time>2026-04-06T08:20:16.005Z</time></trkpt><trkpt lat="45.4763311" lon="10.8101176"><ele>198.66666666666669</ele><time>2026-04-06T08:20:17.004Z</time></trkpt><trkpt lat="45.4764769" lon="10.8099906"><ele>200.0</ele><time>2026-04-06T08:20:18.004Z</time></trkpt><trkpt lat="45.476628" lon="10.8098625"><ele>200.0</ele><time>2026-04-06T08:20:19.004Z</time></trkpt><trkpt lat="45.4767774" lon="10.8097098"><ele>200.0</ele><time>2026-04-06T08:20:20.005Z</time></trkpt><trkpt lat="45.4769325" lon="10.8095489"><ele>200.0</ele><time>2026-04-06T08:20:21.005Z</time></trkpt><trkpt lat="45.4770802" lon="10.8093729"><ele>200.33333333333334</ele><time>2026-04-06T08:20:22.005Z</time></trkpt><trkpt lat="45.4772358" lon="10.809179"><ele>200.66666666666669</ele><time>2026-04-06T08:20:23.005Z</time></trkpt><trkpt lat="45.4773962" lon="10.8089799"><ele>201.0</ele><time>2026-04-06T08:20:24.004Z</time></trkpt><trkpt lat="45.4775529" lon="10.8087861"><ele>201.0</ele><time>2026-04-06T08:20:25.005Z</time></trkpt><trkpt lat="45.4777139" lon="10.8085948"><ele>201.0</ele><time>2026-04-06T08:20:26.004Z</time></trkpt><trkpt lat="45.4778702" lon="10.8084159"><ele>201.0</ele><time>2026-04-06T08:20:27.004Z</time></trkpt><trkpt lat="45.4780225" lon="10.8082389"><ele>201.0</ele><time>2026-04-06T08:20:28.004Z</time></trkpt><trkpt lat="45.4781779" lon="10.8080546"><ele>201.0</ele><time>2026-04-06T08:20:29.004Z</time></trkpt><trkpt lat="45.4783429" lon="10.8078607"><ele>201.0</ele><time>2026-04-06T08:20:30.005Z</time></trkpt><trkpt lat="45.4785143" lon="10.8076658"><ele>200.5</ele><time>2026-04-06T08:20:31.005Z</time></trkpt><trkpt lat="45.4786933" lon="10.8074615"><ele>200.0</ele><time>2026-04-06T08:20:32.006Z</time></trkpt><trkpt lat="45.4788815" lon="10.8072472"><ele>200.0</ele><time>2026-04-06T08:20:33.004Z</time></trkpt><trkpt lat="45.4790691" lon="10.8070225"><ele>200.0</ele><time>2026-04-06T08:20:34.004Z</time></trkpt><trkpt lat="45.4792481" lon="10.8068006"><ele>198.66666666666669</ele><time>2026-04-06T08:20:35.004Z</time></trkpt><trkpt lat="45.479416" lon="10.8065827"><ele>197.33333333333331</ele><time>2026-04-06T08:20:36.004Z</time></trkpt><trkpt lat="45.4795753" lon="10.8063709"><ele>196.0</ele><time>2026-04-06T08:20:37.004Z</time></trkpt><trkpt lat="45.4797298" lon="10.8061664"><ele>193.66666666666666</ele><time>2026-04-06T08:20:38.005Z</time></trkpt><trkpt lat="45.4798849" lon="10.8059732"><ele>191.33333333333331</ele><time>2026-04-06T08:20:39.005Z</time></trkpt><trkpt lat="45.4800422" lon="10.8057969"><ele>189.0</ele><time>2026-04-06T08:20:40.004Z</time></trkpt><trkpt lat="45.4802081" lon="10.8056423"><ele>189.0</ele><time>2026-04-06T08:20:41.005Z</time></trkpt><trkpt lat="45.4803839" lon="10.8055098"><ele>189.0</ele><time>2026-04-06T08:20:42.005Z</time></trkpt><trkpt lat="45.4805676" lon="10.8054002"><ele>189.0</ele><time>2026-04-06T08:20:43.005Z</time></trkpt><trkpt lat="45.4807599" lon="10.8053174"><ele>188.33333333333334</ele><time>2026-04-06T08:20:44.004Z</time></trkpt><trkpt lat="45.4809614" lon="10.8052575"><ele>187.66666666666669</ele><time>2026-04-06T08:20:45.006Z</time></trkpt><trkpt lat="45.4811744" lon="10.8052186"><ele>187.0</ele><time>2026-04-06T08:20:46.005Z</time></trkpt><trkpt lat="45.4813797" lon="10.8051975"><ele>186.66666666666669</ele><time>2026-04-06T08:20:47.004Z</time></trkpt><trkpt lat="45.4815683" lon="10.8051709"><ele>186.33333333333334</ele><time>2026-04-06T08:20:48.004Z</time></trkpt><trkpt lat="45.4817489" lon="10.8051317"><ele>186.0</ele><time>2026-04-06T08:20:49.005Z</time></trkpt><trkpt lat="45.481916" lon="10.8050707"><ele>185.33333333333334</ele><time>2026-04-06T08:20:50.005Z</time></trkpt><trkpt lat="45.4820706" lon="10.8049925"><ele>184.66666666666669</ele><time>2026-04-06T08:20:51.005Z</time></trkpt><trkpt lat="45.4822121" lon="10.804901"><ele>184.0</ele><time>2026-04-06T08:20:52.004Z</time></trkpt><trkpt lat="45.4823436" lon="10.8047969"><ele>183.75</ele><time>2026-04-06T08:20:53.004Z</time></trkpt><trkpt lat="45.4824729" lon="10.8046811"><ele>183.5</ele><time>2026-04-06T08:20:54.004Z</time></trkpt><trkpt lat="45.4825903" lon="10.8045577"><ele>183.25</ele><time>2026-04-06T08:20:55.004Z</time></trkpt><trkpt lat="45.4826953" lon="10.8044285"><ele>183.0</ele><time>2026-04-06T08:20:56.005Z</time></trkpt><trkpt lat="45.4827812" lon="10.804304"><ele>182.33333333333334</ele><time>2026-04-06T08:20:57.005Z</time></trkpt><trkpt lat="45.4828549" lon="10.8041905"><ele>181.66666666666666</ele><time>2026-04-06T08:20:58.006Z</time></trkpt><trkpt lat="45.4829201" lon="10.8040945"><ele>181.0</ele><time>2026-04-06T08:20:59.005Z</time></trkpt><trkpt lat="45.4829768" lon="10.8040312"><ele>180.33333333333331</ele><time>2026-04-06T08:21:00.005Z</time></trkpt><trkpt lat="45.4830364" lon="10.8039976"><ele>179.66666666666666</ele><time>2026-04-06T08:21:01.005Z</time></trkpt><trkpt lat="45.4831013" lon="10.8039954"><ele>179.0</ele><time>2026-04-06T08:21:02.004Z</time></trkpt><trkpt lat="45.4831669" lon="10.80403"><ele>180.79999999999998</ele><time>2026-04-06T08:21:03.005Z</time></trkpt><trkpt lat="45.4832151" lon="10.8041032"><ele>182.6</ele><time>2026-04-06T08:21:04.005Z</time></trkpt><trkpt lat="45.4832455" lon="10.8042102"><ele>184.4</ele><time>2026-04-06T08:21:05.004Z</time></trkpt><trkpt lat="45.4832615" lon="10.8043521"><ele>186.2</ele><time>2026-04-06T08:21:06.005Z</time></trkpt><trkpt lat="45.4832727" lon="10.8045341"><ele>188.0</ele><time>2026-04-06T08:21:07.004Z</time></trkpt><trkpt lat="45.483283" lon="10.8047243"><ele>188.0</ele><time>2026-04-06T08:21:08.006Z</time></trkpt><trkpt lat="45.4832929" lon="10.8049311"><ele>188.0</ele><time>2026-04-06T08:21:09.004Z</time></trkpt><trkpt lat="45.4833017" lon="10.8051608"><ele>188.0</ele><time>2026-04-06T08:21:10.006Z</time></trkpt><trkpt lat="45.4833108" lon="10.8053686"><ele>188.0</ele><time>2026-04-06T08:21:11.005Z</time></trkpt><trkpt lat="45.4833226" lon="10.8055554"><ele>188.0</ele><time>2026-04-06T08:21:12.004Z</time></trkpt><trkpt lat="45.4833365" lon="10.8057051"><ele>188.0</ele><time>2026-04-06T08:21:13.006Z</time></trkpt><trkpt lat="45.4833492" lon="10.805828"><ele>188.0</ele><time>2026-04-06T08:21:14.004Z</time></trkpt><trkpt lat="45.4833533" lon="10.8059246"><ele>188.0</ele><time>2026-04-06T08:21:15.004Z</time></trkpt><trkpt lat="45.4833071" lon="10.8060516"><ele>188.0</ele><time>2026-04-06T08:21:17.004Z</time></trkpt><trkpt lat="45.4832087" lon="10.8060555"><ele>188.0</ele><time>2026-04-06T08:21:19.004Z</time></trkpt><trkpt lat="45.4831342" lon="10.8059057"><ele>188.0</ele><time>2026-04-06T08:21:21.005Z</time></trkpt><trkpt lat="45.4831145" lon="10.8057623"><ele>188.0</ele><time>2026-04-06T08:21:22.005Z</time></trkpt><trkpt lat="45.4831084" lon="10.8055833"><ele>188.0</ele><time>2026-04-06T08:21:23.004Z</time></trkpt><trkpt lat="45.4831216" lon="10.805403"><ele>188.0</ele><time>2026-04-06T08:21:24.004Z</time></trkpt><trkpt lat="45.483154" lon="10.8052167"><ele>188.0</ele><time>2026-04-06T08:21:25.005Z</time></trkpt><trkpt lat="45.4832068" lon="10.8050682"><ele>188.0</ele><time>2026-04-06T08:21:26.005Z</time></trkpt><trkpt lat="45.4832775" lon="10.8049475"><ele>188.2</ele><time>2026-04-06T08:21:27.005Z</time></trkpt><trkpt lat="45.4833484" lon="10.8048479"><ele>188.4</ele><time>2026-04-06T08:21:28.004Z</time></trkpt><trkpt lat="45.4834073" lon="10.8047545"><ele>188.6</ele><time>2026-04-06T08:21:29.004Z</time></trkpt><trkpt lat="45.4834645" lon="10.8046401"><ele>188.79999999999998</ele><time>2026-04-06T08:21:30.004Z</time></trkpt><trkpt lat="45.4835204" lon="10.8044849"><ele>189.0</ele><time>2026-04-06T08:21:31.006Z</time></trkpt><trkpt lat="45.4835665" lon="10.8043414"><ele>188.75</ele><time>2026-04-06T08:21:32.005Z</time></trkpt><trkpt lat="45.4836144" lon="10.8041924"><ele>188.5</ele><time>2026-04-06T08:21:33.004Z</time></trkpt><trkpt lat="45.4836735" lon="10.8040288"><ele>188.25</ele><time>2026-04-06T08:21:34.004Z</time></trkpt><trkpt lat="45.4837462" lon="10.8038525"><ele>188.0</ele><time>2026-04-06T08:21:35.006Z</time></trkpt><trkpt lat="45.4838253" lon="10.8036874"><ele>191.75</ele><time>2026-04-06T08:21:36.004Z</time></trkpt><trkpt lat="45.4839114" lon="10.8035244"><ele>195.5</ele><time>2026-04-06T08:21:37.004Z</time></trkpt><trkpt lat="45.4840011" lon="10.8033602"><ele>199.25</ele><time>2026-04-06T08:21:38.005Z</time></trkpt><trkpt lat="45.4840893" lon="10.8031957"><ele>203.0</ele><time>2026-04-06T08:21:39.004Z</time></trkpt><trkpt lat="45.4841705" lon="10.8030386"><ele>203.0</ele><time>2026-04-06T08:21:40.005Z</time></trkpt><trkpt lat="45.4842579" lon="10.8028732"><ele>203.0</ele><time>2026-04-06T08:21:41.004Z</time></trkpt><trkpt lat="45.4843475" lon="10.802725"><ele>203.0</ele><time>2026-04-06T08:21:42.004Z</time></trkpt><trkpt lat="45.4844439" lon="10.8025852"><ele>203.0</ele><time>2026-04-06T08:21:43.004Z</time></trkpt><trkpt lat="45.4845375" lon="10.8024578"><ele>206.25</ele><time>2026-04-06T08:21:44.004Z</time></trkpt><trkpt lat="45.4846328" lon="10.8023311"><ele>209.5</ele><time>2026-04-06T08:21:45.006Z</time></trkpt><trkpt lat="45.4847278" lon="10.8022077"><ele>212.75</ele><time>2026-04-06T08:21:46.005Z</time></trkpt><trkpt lat="45.4848211" lon="10.8020907"><ele>216.0</ele><time>2026-04-06T08:21:47.006Z</time></trkpt><trkpt lat="45.4849159" lon="10.8019932"><ele>216.0</ele><time>2026-04-06T08:21:48.004Z</time></trkpt><trkpt lat="45.4850306" lon="10.8019053"><ele>216.0</ele><time>2026-04-06T08:21:49.004Z</time></trkpt><trkpt lat="45.4851669" lon="10.8018273"><ele>216.0</ele><time>2026-04-06T08:21:50.006Z</time></trkpt><trkpt lat="45.4853266" lon="10.8017546"><ele>216.0</ele><time>2026-04-06T08:21:51.005Z</time></trkpt><trkpt lat="45.4854997" lon="10.8016898"><ele>214.33333333333331</ele><time>2026-04-06T08:21:52.004Z</time></trkpt><trkpt lat="45.485657" lon="10.8016487"><ele>212.66666666666666</ele><time>2026-04-06T08:21:53.005Z</time></trkpt><trkpt lat="45.4858036" lon="10.801606"><ele>211.0</ele><time>2026-04-06T08:21:54.004Z</time></trkpt><trkpt lat="45.4859528" lon="10.8015608"><ele>211.0</ele><time>2026-04-06T08:21:55.005Z</time></trkpt><trkpt lat="45.4861063" lon="10.8015143"><ele>211.0</ele><time>2026-04-06T08:21:56.005Z</time></trkpt><trkpt lat="45.4862619" lon="10.8014677"><ele>211.0</ele><time>2026-04-06T08:21:57.004Z</time></trkpt><trkpt lat="45.4864206" lon="10.8014219"><ele>209.66666666666666</ele><time>2026-04-06T08:21:58.005Z</time></trkpt><trkpt lat="45.4865865" lon="10.8013755"><ele>208.33333333333331</ele><time>2026-04-06T08:21:59.004Z</time></trkpt><trkpt lat="45.4867511" lon="10.801324"><ele>207.0</ele><time>2026-04-06T08:22:00.005Z</time></trkpt><trkpt lat="45.4869073" lon="10.8012759"><ele>207.0</ele><time>2026-04-06T08:22:01.004Z</time></trkpt><trkpt lat="45.487061" lon="10.8012304"><ele>207.0</ele><time>2026-04-06T08:22:02.005Z</time></trkpt><trkpt lat="45.4872059" lon="10.8011875"><ele>207.0</ele><time>2026-04-06T08:22:03.005Z</time></trkpt><trkpt lat="45.4873351" lon="10.8011456"><ele>207.0</ele><time>2026-04-06T08:22:04.005Z</time></trkpt><trkpt lat="45.4874558" lon="10.8010947"><ele>207.25</ele><time>2026-04-06T08:22:05.006Z</time></trkpt><trkpt lat="45.4875668" lon="10.8010204"><ele>207.5</ele><time>2026-04-06T08:22:06.006Z</time></trkpt><trkpt lat="45.4876759" lon="10.8009201"><ele>207.75</ele><time>2026-04-06T08:22:07.004Z</time></trkpt><trkpt lat="45.4877833" lon="10.8007982"><ele>208.0</ele><time>2026-04-06T08:22:08.005Z</time></trkpt><trkpt lat="45.4878853" lon="10.8006699"><ele>208.75</ele><time>2026-04-06T08:22:09.005Z</time></trkpt><trkpt lat="45.4879816" lon="10.8005439"><ele>209.5</ele><time>2026-04-06T08:22:10.004Z</time></trkpt><trkpt lat="45.4880766" lon="10.800424"><ele>210.25</ele><time>2026-04-06T08:22:11.005Z</time></trkpt><trkpt lat="45.4881705" lon="10.8003136"><ele>211.0</ele><time>2026-04-06T08:22:12.005Z</time></trkpt><trkpt lat="45.488262" lon="10.8002086"><ele>209.20000000000002</ele><time>2026-04-06T08:22:13.004Z</time></trkpt><trkpt lat="45.4883458" lon="10.8001209"><ele>207.4</ele><time>2026-04-06T08:22:14.004Z</time></trkpt><trkpt lat="45.4884309" lon="10.8000442"><ele>205.6</ele><time>2026-04-06T08:22:15.004Z</time></trkpt><trkpt lat="45.4885187" lon="10.7999824"><ele>203.8</ele><time>2026-04-06T08:22:16.004Z</time></trkpt><trkpt lat="45.4886111" lon="10.799931"><ele>202.0</ele><time>2026-04-06T08:22:17.005Z</time></trkpt><trkpt lat="45.4887061" lon="10.7998859"><ele>201.75</ele><time>2026-04-06T08:22:18.005Z</time></trkpt><trkpt lat="45.4888158" lon="10.7998447"><ele>201.5</ele><time>2026-04-06T08:22:19.004Z</time></trkpt><trkpt lat="45.4889319" lon="10.7998141"><ele>201.25</ele><time>2026-04-06T08:22:20.004Z</time></trkpt><trkpt lat="45.4890498" lon="10.7998021"><ele>201.0</ele><time>2026-04-06T08:22:21.004Z</time></trkpt><trkpt lat="45.4891717" lon="10.7998064"><ele>201.0</ele><time>2026-04-06T08:22:22.004Z</time></trkpt><trkpt lat="45.4893004" lon="10.7998195"><ele>201.0</ele><time>2026-04-06T08:22:23.005Z</time></trkpt><trkpt lat="45.4894315" lon="10.7998435"><ele>201.0</ele><time>2026-04-06T08:22:24.004Z</time></trkpt><trkpt lat="45.489559" lon="10.7998679"><ele>201.0</ele><time>2026-04-06T08:22:25.004Z</time></trkpt><trkpt lat="45.4896874" lon="10.7998975"><ele>198.5</ele><time>2026-04-06T08:22:26.005Z</time></trkpt><trkpt lat="45.4898087" lon="10.7999218"><ele>196.0</ele><time>2026-04-06T08:22:27.005Z</time></trkpt><trkpt lat="45.4899241" lon="10.7999339"><ele>193.5</ele><time>2026-04-06T08:22:28.005Z</time></trkpt><trkpt lat="45.4900349" lon="10.799938"><ele>191.0</ele><time>2026-04-06T08:22:29.004Z</time></trkpt><trkpt lat="45.4901445" lon="10.7999382"><ele>191.0</ele><time>2026-04-06T08:22:30.005Z</time></trkpt><trkpt lat="45.4902588" lon="10.7999335"><ele>191.0</ele><time>2026-04-06T08:22:31.004Z</time></trkpt><trkpt lat="45.4903804" lon="10.7999211"><ele>191.0</ele><time>2026-04-06T08:22:32.005Z</time></trkpt><trkpt lat="45.4905049" lon="10.7998995"><ele>191.0</ele><time>2026-04-06T08:22:33.005Z</time></trkpt><trkpt lat="45.490625" lon="10.7998755"><ele>189.60000000000002</ele><time>2026-04-06T08:22:34.004Z</time></trkpt><trkpt lat="45.4907409" lon="10.7998515"><ele>188.2</ele><time>2026-04-06T08:22:35.004Z</time></trkpt><trkpt lat="45.4908493" lon="10.7998249"><ele>186.8</ele><time>2026-04-06T08:22:36.005Z</time></trkpt><trkpt lat="45.4909477" lon="10.7998006"><ele>185.39999999999998</ele><time>2026-04-06T08:22:37.005Z</time></trkpt><trkpt lat="45.4910343" lon="10.7997753"><ele>184.0</ele><time>2026-04-06T08:22:38.005Z</time></trkpt><trkpt lat="45.4911099" lon="10.7997497"><ele>184.0</ele><time>2026-04-06T08:22:39.005Z</time></trkpt><trkpt lat="45.4911735" lon="10.799729"><ele>184.0</ele><time>2026-04-06T08:22:40.004Z</time></trkpt><trkpt lat="45.4913198" lon="10.7996876"><ele>184.0</ele><time>2026-04-06T08:22:42.004Z</time></trkpt><trkpt lat="45.4914177" lon="10.7996651"><ele>184.0</ele><time>2026-04-06T08:22:43.004Z</time></trkpt><trkpt lat="45.4915243" lon="10.7996539"><ele>184.0</ele><time>2026-04-06T08:22:44.005Z</time></trkpt><trkpt lat="45.4916316" lon="10.7996565"><ele>184.6</ele><time>2026-04-06T08:22:45.005Z</time></trkpt><trkpt lat="45.4917335" lon="10.7996672"><ele>185.2</ele><time>2026-04-06T08:22:46.005Z</time></trkpt><trkpt lat="45.4918231" lon="10.799682"><ele>185.79999999999998</ele><time>2026-04-06T08:22:47.005Z</time></trkpt><trkpt lat="45.4918951" lon="10.7996947"><ele>186.39999999999998</ele><time>2026-04-06T08:22:48.005Z</time></trkpt><trkpt lat="45.4919972" lon="10.7997083"><ele>187.0</ele><time>2026-04-06T08:22:50.006Z</time></trkpt><trkpt lat="45.4920916" lon="10.7997021"><ele>187.39999999999998</ele><time>2026-04-06T08:22:52.004Z</time></trkpt><trkpt lat="45.4922103" lon="10.7996649"><ele>187.79999999999998</ele><time>2026-04-06T08:22:54.005Z</time></trkpt><trkpt lat="45.4922804" lon="10.7996212"><ele>188.2</ele><time>2026-04-06T08:22:55.005Z</time></trkpt><trkpt lat="45.4923584" lon="10.7995463"><ele>188.6</ele><time>2026-04-06T08:22:56.004Z</time></trkpt><trkpt lat="45.4924457" lon="10.7994629"><ele>189.0</ele><time>2026-04-06T08:22:57.005Z</time></trkpt><trkpt lat="45.4925301" lon="10.7993733"><ele>189.0</ele><time>2026-04-06T08:22:58.005Z</time></trkpt><trkpt lat="45.4926081" lon="10.7992933"><ele>189.0</ele><time>2026-04-06T08:22:59.004Z</time></trkpt><trkpt lat="45.4926799" lon="10.7992201"><ele>189.0</ele><time>2026-04-06T08:23:00.005Z</time></trkpt><trkpt lat="45.4927509" lon="10.7991487"><ele>189.0</ele><time>2026-04-06T08:23:01.004Z</time></trkpt><trkpt lat="45.4928173" lon="10.7990938"><ele>189.0</ele><time>2026-04-06T08:23:02.004Z</time></trkpt><trkpt lat="45.4928866" lon="10.7990507"><ele>189.0</ele><time>2026-04-06T08:23:03.005Z</time></trkpt><trkpt lat="45.4929668" lon="10.7990113"><ele>189.0</ele><time>2026-04-06T08:23:04.005Z</time></trkpt><trkpt lat="45.4930561" lon="10.7989806"><ele>189.0</ele><time>2026-04-06T08:23:05.005Z</time></trkpt><trkpt lat="45.4931549" lon="10.7989585"><ele>189.0</ele><time>2026-04-06T08:23:06.005Z</time></trkpt><trkpt lat="45.493251" lon="10.798959"><ele>189.0</ele><time>2026-04-06T08:23:07.005Z</time></trkpt><trkpt lat="45.4933432" lon="10.7989848"><ele>189.0</ele><time>2026-04-06T08:23:08.005Z</time></trkpt><trkpt lat="45.4934452" lon="10.7990401"><ele>189.0</ele><time>2026-04-06T08:23:09.004Z</time></trkpt><trkpt lat="45.4935542" lon="10.7991209"><ele>189.0</ele><time>2026-04-06T08:23:10.004Z</time></trkpt><trkpt lat="45.4936674" lon="10.7992125"><ele>189.0</ele><time>2026-04-06T08:23:11.005Z</time></trkpt><trkpt lat="45.4937856" lon="10.7993093"><ele>189.0</ele><time>2026-04-06T08:23:12.004Z</time></trkpt><trkpt lat="45.4939104" lon="10.7993951"><ele>189.25</ele><time>2026-04-06T08:23:13.005Z</time></trkpt><trkpt lat="45.4940309" lon="10.7994641"><ele>189.5</ele><time>2026-04-06T08:23:14.006Z</time></trkpt><trkpt lat="45.4941586" lon="10.7995215"><ele>189.75</ele><time>2026-04-06T08:23:15.005Z</time></trkpt><trkpt lat="45.4942918" lon="10.7995607"><ele>190.0</ele><time>2026-04-06T08:23:16.005Z</time></trkpt><trkpt lat="45.4944217" lon="10.799587"><ele>190.0</ele><time>2026-04-06T08:23:17.004Z</time></trkpt><trkpt lat="45.494543" lon="10.7996058"><ele>190.0</ele><time>2026-04-06T08:23:18.006Z</time></trkpt><trkpt lat="45.4946677" lon="10.7996262"><ele>190.0</ele><time>2026-04-06T08:23:19.005Z</time></trkpt><trkpt lat="45.4947952" lon="10.7996505"><ele>190.0</ele><time>2026-04-06T08:23:20.004Z</time></trkpt><trkpt lat="45.4949143" lon="10.799673"><ele>189.25</ele><time>2026-04-06T08:23:21.005Z</time></trkpt><trkpt lat="45.4950349" lon="10.799697"><ele>188.5</ele><time>2026-04-06T08:23:22.005Z</time></trkpt><trkpt lat="45.4951574" lon="10.7997203"><ele>187.75</ele><time>2026-04-06T08:23:23.004Z</time></trkpt><trkpt lat="45.4952739" lon="10.7997438"><ele>187.0</ele><time>2026-04-06T08:23:24.006Z</time></trkpt><trkpt lat="45.495393" lon="10.7997636"><ele>186.25</ele><time>2026-04-06T08:23:25.005Z</time></trkpt><trkpt lat="45.4955175" lon="10.7997835"><ele>185.5</ele><time>2026-04-06T08:23:26.005Z</time></trkpt><trkpt lat="45.4956456" lon="10.7998094"><ele>184.75</ele><time>2026-04-06T08:23:27.005Z</time></trkpt><trkpt lat="45.4957774" lon="10.7998319"><ele>184.0</ele><time>2026-04-06T08:23:28.005Z</time></trkpt><trkpt lat="45.4959122" lon="10.7998405"><ele>184.0</ele><time>2026-04-06T08:23:29.006Z</time></trkpt><trkpt lat="45.4960419" lon="10.7998336"><ele>184.0</ele><time>2026-04-06T08:23:30.005Z</time></trkpt><trkpt lat="45.4961757" lon="10.7998153"><ele>184.0</ele><time>2026-04-06T08:23:31.005Z</time></trkpt><trkpt lat="45.4963124" lon="10.7997888"><ele>184.0</ele><time>2026-04-06T08:23:32.004Z</time></trkpt><trkpt lat="45.4964491" lon="10.7997617"><ele>183.5</ele><time>2026-04-06T08:23:33.005Z</time></trkpt><trkpt lat="45.4965903" lon="10.7997375"><ele>183.0</ele><time>2026-04-06T08:23:34.004Z</time></trkpt><trkpt lat="45.4967337" lon="10.7997119"><ele>182.5</ele><time>2026-04-06T08:23:35.005Z</time></trkpt><trkpt lat="45.4968785" lon="10.7996838"><ele>182.0</ele><time>2026-04-06T08:23:36.005Z</time></trkpt><trkpt lat="45.4970189" lon="10.7996562"><ele>181.25</ele><time>2026-04-06T08:23:37.005Z</time></trkpt><trkpt lat="45.4971543" lon="10.7996234"><ele>180.5</ele><time>2026-04-06T08:23:38.004Z</time></trkpt><trkpt lat="45.4972809" lon="10.79958"><ele>179.75</ele><time>2026-04-06T08:23:39.006Z</time></trkpt><trkpt lat="45.4974047" lon="10.7995436"><ele>179.0</ele><time>2026-04-06T08:23:40.004Z</time></trkpt><trkpt lat="45.4975319" lon="10.7995105"><ele>179.0</ele><time>2026-04-06T08:23:41.004Z</time></trkpt><trkpt lat="45.497665" lon="10.7994678"><ele>179.0</ele><time>2026-04-06T08:23:42.004Z</time></trkpt><trkpt lat="45.497799" lon="10.7994163"><ele>179.0</ele><time>2026-04-06T08:23:43.005Z</time></trkpt><trkpt lat="45.4979303" lon="10.7993539"><ele>179.0</ele><time>2026-04-06T08:23:44.005Z</time></trkpt><trkpt lat="45.4980613" lon="10.7992732"><ele>177.75</ele><time>2026-04-06T08:23:45.005Z</time></trkpt><trkpt lat="45.4981922" lon="10.7991848"><ele>176.5</ele><time>2026-04-06T08:23:46.005Z</time></trkpt><trkpt lat="45.4983191" lon="10.7990878"><ele>175.25</ele><time>2026-04-06T08:23:47.005Z</time></trkpt><trkpt lat="45.4984429" lon="10.798996"><ele>174.0</ele><time>2026-04-06T08:23:48.004Z</time></trkpt><trkpt lat="45.4985683" lon="10.7989171"><ele>174.0</ele><time>2026-04-06T08:23:49.004Z</time></trkpt><trkpt lat="45.4986928" lon="10.7988487"><ele>174.0</ele><time>2026-04-06T08:23:50.006Z</time></trkpt><trkpt lat="45.4988147" lon="10.7987884"><ele>174.0</ele><time>2026-04-06T08:23:51.006Z</time></trkpt><trkpt lat="45.4989336" lon="10.7987356"><ele>174.0</ele><time>2026-04-06T08:23:52.004Z</time></trkpt><trkpt lat="45.4990518" lon="10.7986858"><ele>172.75</ele><time>2026-04-06T08:23:53.004Z</time></trkpt><trkpt lat="45.4991793" lon="10.7986304"><ele>171.5</ele><time>2026-04-06T08:23:54.004Z</time></trkpt><trkpt lat="45.4993135" lon="10.7985698"><ele>170.25</ele><time>2026-04-06T08:23:55.005Z</time></trkpt><trkpt lat="45.4994465" lon="10.7985166"><ele>169.0</ele><time>2026-04-06T08:23:56.005Z</time></trkpt><trkpt lat="45.4995761" lon="10.7984772"><ele>167.5</ele><time>2026-04-06T08:23:57.005Z</time></trkpt><trkpt lat="45.4997036" lon="10.7984484"><ele>166.0</ele><time>2026-04-06T08:23:58.006Z</time></trkpt><trkpt lat="45.4998296" lon="10.7984263"><ele>164.5</ele><time>2026-04-06T08:23:59.006Z</time></trkpt><trkpt lat="45.4999597" lon="10.7984088"><ele>163.0</ele><time>2026-04-06T08:24:00.004Z</time></trkpt><trkpt lat="45.5000845" lon="10.7983927"><ele>163.0</ele><time>2026-04-06T08:24:01.004Z</time></trkpt><trkpt lat="45.5002088" lon="10.7983757"><ele>163.0</ele><time>2026-04-06T08:24:02.004Z</time></trkpt><trkpt lat="45.5003362" lon="10.798357"><ele>163.0</ele><time>2026-04-06T08:24:03.004Z</time></trkpt><trkpt lat="45.5004557" lon="10.7983375"><ele>163.0</ele><time>2026-04-06T08:24:04.004Z</time></trkpt><trkpt lat="45.500571" lon="10.7983202"><ele>163.75</ele><time>2026-04-06T08:24:05.006Z</time></trkpt><trkpt lat="45.5006825" lon="10.7983082"><ele>164.5</ele><time>2026-04-06T08:24:06.005Z</time></trkpt><trkpt lat="45.5008024" lon="10.7982964"><ele>165.25</ele><time>2026-04-06T08:24:07.005Z</time></trkpt><trkpt lat="45.5009303" lon="10.7982876"><ele>166.0</ele><time>2026-04-06T08:24:08.004Z</time></trkpt><trkpt lat="45.5010522" lon="10.7982785"><ele>166.0</ele><time>2026-04-06T08:24:09.004Z</time></trkpt><trkpt lat="45.5011695" lon="10.7982713"><ele>166.0</ele><time>2026-04-06T08:24:10.005Z</time></trkpt><trkpt lat="45.5012913" lon="10.7982648"><ele>166.0</ele><time>2026-04-06T08:24:11.004Z</time></trkpt><trkpt lat="45.5014202" lon="10.7982618"><ele>166.0</ele><time>2026-04-06T08:24:12.006Z</time></trkpt><trkpt lat="45.5015528" lon="10.7982598"><ele>165.5</ele><time>2026-04-06T08:24:13.004Z</time></trkpt><trkpt lat="45.501682" lon="10.798258"><ele>165.0</ele><time>2026-04-06T08:24:14.005Z</time></trkpt><trkpt lat="45.5018194" lon="10.7982583"><ele>164.5</ele><time>2026-04-06T08:24:15.005Z</time></trkpt><trkpt lat="45.501964" lon="10.7982598"><ele>164.0</ele><time>2026-04-06T08:24:16.005Z</time></trkpt><trkpt lat="45.5021068" lon="10.7982594"><ele>163.75</ele><time>2026-04-06T08:24:17.004Z</time></trkpt><trkpt lat="45.5022486" lon="10.7982586"><ele>163.5</ele><time>2026-04-06T08:24:18.005Z</time></trkpt><trkpt lat="45.50239" lon="10.7982589"><ele>163.25</ele><time>2026-04-06T08:24:19.005Z</time></trkpt><trkpt lat="45.5025308" lon="10.798257"><ele>163.0</ele><time>2026-04-06T08:24:20.005Z</time></trkpt><trkpt lat="45.5026702" lon="10.7982454"><ele>163.0</ele><time>2026-04-06T08:24:21.005Z</time></trkpt><trkpt lat="45.5028037" lon="10.7982269"><ele>163.0</ele><time>2026-04-06T08:24:22.005Z</time></trkpt><trkpt lat="45.5029405" lon="10.7982061"><ele>163.0</ele><time>2026-04-06T08:24:23.004Z</time></trkpt><trkpt lat="45.5030759" lon="10.7981834"><ele>163.0</ele><time>2026-04-06T08:24:24.005Z</time></trkpt><trkpt lat="45.5032032" lon="10.7981523"><ele>161.8</ele><time>2026-04-06T08:24:25.005Z</time></trkpt><trkpt lat="45.5033235" lon="10.7981206"><ele>160.60000000000002</ele><time>2026-04-06T08:24:26.005Z</time></trkpt><trkpt lat="45.503435" lon="10.7980813"><ele>159.39999999999998</ele><time>2026-04-06T08:24:27.004Z</time></trkpt><trkpt lat="45.5035389" lon="10.7980398"><ele>158.2</ele><time>2026-04-06T08:24:28.004Z</time></trkpt><trkpt lat="45.503637" lon="10.7979944"><ele>157.0</ele><time>2026-04-06T08:24:29.005Z</time></trkpt><trkpt lat="45.50373" lon="10.7979407"><ele>156.6</ele><time>2026-04-06T08:24:30.004Z</time></trkpt><trkpt lat="45.5038219" lon="10.7978749"><ele>156.2</ele><time>2026-04-06T08:24:31.005Z</time></trkpt><trkpt lat="45.5039122" lon="10.7977962"><ele>155.8</ele><time>2026-04-06T08:24:32.005Z</time></trkpt><trkpt lat="45.5039925" lon="10.797706"><ele>155.4</ele><time>2026-04-06T08:24:33.004Z</time></trkpt><trkpt lat="45.5040634" lon="10.7976099"><ele>155.0</ele><time>2026-04-06T08:24:34.004Z</time></trkpt><trkpt lat="45.5041293" lon="10.797501"><ele>154.8</ele><time>2026-04-06T08:24:35.004Z</time></trkpt><trkpt lat="45.5041897" lon="10.7973915"><ele>154.6</ele><time>2026-04-06T08:24:36.004Z</time></trkpt><trkpt lat="45.5042445" lon="10.7972868"><ele>154.4</ele><time>2026-04-06T08:24:37.005Z</time></trkpt><trkpt lat="45.5043007" lon="10.7971785"><ele>154.2</ele><time>2026-04-06T08:24:38.004Z</time></trkpt><trkpt lat="45.5043584" lon="10.7970664"><ele>154.0</ele><time>2026-04-06T08:24:39.006Z</time></trkpt><trkpt lat="45.5044146" lon="10.7969562"><ele>154.0</ele><time>2026-04-06T08:24:40.005Z</time></trkpt><trkpt lat="45.5044737" lon="10.7968366"><ele>154.0</ele><time>2026-04-06T08:24:41.005Z</time></trkpt><trkpt lat="45.5045323" lon="10.796715"><ele>154.0</ele><time>2026-04-06T08:24:42.004Z</time></trkpt><trkpt lat="45.504588" lon="10.796603"><ele>154.0</ele><time>2026-04-06T08:24:43.005Z</time></trkpt><trkpt lat="45.5046409" lon="10.7964984"><ele>154.0</ele><time>2026-04-06T08:24:44.004Z</time></trkpt><trkpt lat="45.50469" lon="10.7964027"><ele>153.85714285714286</ele><time>2026-04-06T08:24:45.004Z</time></trkpt><trkpt lat="45.5047351" lon="10.796318"><ele>153.71428571428572</ele><time>2026-04-06T08:24:46.005Z</time></trkpt><trkpt lat="45.5047742" lon="10.7962413"><ele>153.57142857142856</ele><time>2026-04-06T08:24:47.005Z</time></trkpt><trkpt lat="45.5048144" lon="10.7961706"><ele>153.42857142857144</ele><time>2026-04-06T08:24:48.006Z</time></trkpt><trkpt lat="45.5048596" lon="10.7960998"><ele>153.28571428571428</ele><time>2026-04-06T08:24:49.004Z</time></trkpt><trkpt lat="45.5049127" lon="10.7960291"><ele>153.14285714285714</ele><time>2026-04-06T08:24:50.005Z</time></trkpt><trkpt lat="45.5049748" lon="10.795962"><ele>153.0</ele><time>2026-04-06T08:24:51.004Z</time></trkpt><trkpt lat="45.5050401" lon="10.7959102"><ele>153.0</ele><time>2026-04-06T08:24:52.004Z</time></trkpt><trkpt lat="45.5051231" lon="10.7958733"><ele>153.0</ele><time>2026-04-06T08:24:53.005Z</time></trkpt><trkpt lat="45.5052083" lon="10.7958445"><ele>153.0</ele><time>2026-04-06T08:24:54.005Z</time></trkpt><trkpt lat="45.5052903" lon="10.7958226"><ele>153.0</ele><time>2026-04-06T08:24:55.004Z</time></trkpt><trkpt lat="45.5053701" lon="10.7958006"><ele>153.0</ele><time>2026-04-06T08:24:56.005Z</time></trkpt><trkpt lat="45.5054559" lon="10.7957753"><ele>153.0</ele><time>2026-04-06T08:24:57.004Z</time></trkpt><trkpt lat="45.5055552" lon="10.7957484"><ele>152.4</ele><time>2026-04-06T08:24:58.006Z</time></trkpt><trkpt lat="45.5056569" lon="10.7957207"><ele>151.8</ele><time>2026-04-06T08:24:59.006Z</time></trkpt><trkpt lat="45.5057592" lon="10.7956823"><ele>151.2</ele><time>2026-04-06T08:25:00.004Z</time></trkpt><trkpt lat="45.5058614" lon="10.7956385"><ele>150.6</ele><time>2026-04-06T08:25:01.004Z</time></trkpt><trkpt lat="45.5059666" lon="10.7955888"><ele>150.0</ele><time>2026-04-06T08:25:02.004Z</time></trkpt><trkpt lat="45.506073" lon="10.7955332"><ele>150.0</ele><time>2026-04-06T08:25:03.004Z</time></trkpt><trkpt lat="45.5061681" lon="10.795478"><ele>150.0</ele><time>2026-04-06T08:25:04.005Z</time></trkpt><trkpt lat="45.5062548" lon="10.7954199"><ele>150.0</ele><time>2026-04-06T08:25:05.004Z</time></trkpt><trkpt lat="45.5063343" lon="10.7953697"><ele>150.0</ele><time>2026-04-06T08:25:06.006Z</time></trkpt><trkpt lat="45.5064118" lon="10.7953374"><ele>150.0</ele><time>2026-04-06T08:25:07.006Z</time></trkpt><trkpt lat="45.506487" lon="10.7953264"><ele>150.0</ele><time>2026-04-06T08:25:08.005Z</time></trkpt><trkpt lat="45.5065565" lon="10.7953402"><ele>150.0</ele><time>2026-04-06T08:25:09.004Z</time></trkpt><trkpt lat="45.506629" lon="10.7953791"><ele>150.0</ele><time>2026-04-06T08:25:10.005Z</time></trkpt><trkpt lat="45.5067079" lon="10.7954242"><ele>150.0</ele><time>2026-04-06T08:25:11.005Z</time></trkpt><trkpt lat="45.5068028" lon="10.7954513"><ele>150.0</ele><time>2026-04-06T08:25:12.004Z</time></trkpt><trkpt lat="45.5069115" lon="10.7954593"><ele>150.0</ele><time>2026-04-06T08:25:13.005Z</time></trkpt><trkpt lat="45.5070212" lon="10.7954636"><ele>149.75</ele><time>2026-04-06T08:25:14.004Z</time></trkpt><trkpt lat="45.507153" lon="10.7954655"><ele>149.5</ele><time>2026-04-06T08:25:15.006Z</time></trkpt><trkpt lat="45.5072874" lon="10.7954825"><ele>149.25</ele><time>2026-04-06T08:25:16.005Z</time></trkpt><trkpt lat="45.5074227" lon="10.7955185"><ele>149.0</ele><time>2026-04-06T08:25:17.004Z</time></trkpt><trkpt lat="45.5075561" lon="10.7955735"><ele>149.0</ele><time>2026-04-06T08:25:18.006Z</time></trkpt><trkpt lat="45.5076816" lon="10.7956481"><ele>149.0</ele><time>2026-04-06T08:25:19.004Z</time></trkpt><trkpt lat="45.5077964" lon="10.7957392"><ele>149.0</ele><time>2026-04-06T08:25:20.006Z</time></trkpt><trkpt lat="45.5079038" lon="10.7958461"><ele>149.0</ele><time>2026-04-06T08:25:21.006Z</time></trkpt><trkpt lat="45.5080166" lon="10.7959691"><ele>145.66666666666666</ele><time>2026-04-06T08:25:22.004Z</time></trkpt><trkpt lat="45.5081301" lon="10.7961103"><ele>142.33333333333334</ele><time>2026-04-06T08:25:23.004Z</time></trkpt><trkpt lat="45.5082405" lon="10.7962715"><ele>139.0</ele><time>2026-04-06T08:25:24.005Z</time></trkpt><trkpt lat="45.508355" lon="10.7964517"><ele>139.0</ele><time>2026-04-06T08:25:25.005Z</time></trkpt><trkpt lat="45.5084717" lon="10.7966292"><ele>139.0</ele><time>2026-04-06T08:25:26.004Z</time></trkpt><trkpt lat="45.508594" lon="10.7967996"><ele>139.0</ele><time>2026-04-06T08:25:27.004Z</time></trkpt><trkpt lat="45.5087148" lon="10.7969568"><ele>135.0</ele><time>2026-04-06T08:25:28.005Z</time></trkpt><trkpt lat="45.5088246" lon="10.7970826"><ele>131.0</ele><time>2026-04-06T08:25:29.004Z</time></trkpt><trkpt lat="45.5089295" lon="10.7971986"><ele>127.0</ele><time>2026-04-06T08:25:30.005Z</time></trkpt><trkpt lat="45.5090311" lon="10.7972987"><ele>123.0</ele><time>2026-04-06T08:25:31.005Z</time></trkpt><trkpt lat="45.5091413" lon="10.7973582"><ele>123.0</ele><time>2026-04-06T08:25:32.004Z</time></trkpt><trkpt lat="45.5092673" lon="10.7973835"><ele>123.0</ele><time>2026-04-06T08:25:33.004Z</time></trkpt><trkpt lat="45.5094132" lon="10.7973756"><ele>123.0</ele><time>2026-04-06T08:25:34.005Z</time></trkpt><trkpt lat="45.5095866" lon="10.7973442"><ele>123.0</ele><time>2026-04-06T08:25:35.005Z</time></trkpt><trkpt lat="45.5097807" lon="10.797298"><ele>121.0</ele><time>2026-04-06T08:25:36.005Z</time></trkpt><trkpt lat="45.5099614" lon="10.7972612"><ele>119.0</ele><time>2026-04-06T08:25:37.005Z</time></trkpt><trkpt lat="45.5101391" lon="10.7972268"><ele>117.0</ele><time>2026-04-06T08:25:38.004Z</time></trkpt><trkpt lat="45.5103107" lon="10.7972049"><ele>116.0</ele><time>2026-04-06T08:25:39.005Z</time></trkpt><trkpt lat="45.5104786" lon="10.7972017"><ele>115.0</ele><time>2026-04-06T08:25:40.005Z</time></trkpt><trkpt lat="45.5106461" lon="10.7972188"><ele>114.0</ele><time>2026-04-06T08:25:41.005Z</time></trkpt><trkpt lat="45.5108194" lon="10.7972567"><ele>114.0</ele><time>2026-04-06T08:25:42.004Z</time></trkpt><trkpt lat="45.5110011" lon="10.797309"><ele>114.0</ele><time>2026-04-06T08:25:43.004Z</time></trkpt><trkpt lat="45.5111924" lon="10.797358"><ele>114.0</ele><time>2026-04-06T08:25:44.004Z</time></trkpt><trkpt lat="45.5113768" lon="10.7974081"><ele>113.33333333333334</ele><time>2026-04-06T08:25:45.004Z</time></trkpt><trkpt lat="45.5115583" lon="10.7974643"><ele>112.66666666666667</ele><time>2026-04-06T08:25:46.004Z</time></trkpt><trkpt lat="45.5117416" lon="10.7975195"><ele>112.0</ele><time>2026-04-06T08:25:47.006Z</time></trkpt><trkpt lat="45.5119259" lon="10.7975703"><ele>112.0</ele><time>2026-04-06T08:25:48.004Z</time></trkpt><trkpt lat="45.512109" lon="10.7976205"><ele>112.0</ele><time>2026-04-06T08:25:49.004Z</time></trkpt><trkpt lat="45.512284" lon="10.7976728"><ele>112.0</ele><time>2026-04-06T08:25:50.005Z</time></trkpt><trkpt lat="45.5124517" lon="10.7977301"><ele>109.0</ele><time>2026-04-06T08:25:51.005Z</time></trkpt><trkpt lat="45.5126201" lon="10.7978"><ele>106.0</ele><time>2026-04-06T08:25:52.005Z</time></trkpt><trkpt lat="45.5127912" lon="10.7978914"><ele>103.0</ele><time>2026-04-06T08:25:53.005Z</time></trkpt><trkpt lat="45.5129638" lon="10.7979997"><ele>102.66666666666667</ele><time>2026-04-06T08:25:54.005Z</time></trkpt><trkpt lat="45.5131314" lon="10.7981122"><ele>102.33333333333334</ele><time>2026-04-06T08:25:55.005Z</time></trkpt><trkpt lat="45.5132968" lon="10.798228"><ele>102.0</ele><time>2026-04-06T08:25:56.005Z</time></trkpt><trkpt lat="45.5134655" lon="10.7983505"><ele>102.0</ele><time>2026-04-06T08:25:57.005Z</time></trkpt><trkpt lat="45.513636" lon="10.798479"><ele>102.0</ele><time>2026-04-06T08:25:58.004Z</time></trkpt><trkpt lat="45.5138094" lon="10.7986129"><ele>102.0</ele><time>2026-04-06T08:25:59.005Z</time></trkpt><trkpt lat="45.5139815" lon="10.7987514"><ele>101.33333333333334</ele><time>2026-04-06T08:26:00.005Z</time></trkpt><trkpt lat="45.5141407" lon="10.7988854"><ele>100.66666666666667</ele><time>2026-04-06T08:26:01.005Z</time></trkpt><trkpt lat="45.5142969" lon="10.7990206"><ele>100.0</ele><time>2026-04-06T08:26:02.006Z</time></trkpt><trkpt lat="45.5144504" lon="10.7991579"><ele>99.33333333333334</ele><time>2026-04-06T08:26:03.004Z</time></trkpt><trkpt lat="45.5145921" lon="10.7992894"><ele>98.66666666666666</ele><time>2026-04-06T08:26:04.004Z</time></trkpt><trkpt lat="45.5147253" lon="10.7994154"><ele>98.0</ele><time>2026-04-06T08:26:05.004Z</time></trkpt><trkpt lat="45.5148459" lon="10.7995351"><ele>98.0</ele><time>2026-04-06T08:26:06.004Z</time></trkpt><trkpt lat="45.514946" lon="10.7996439"><ele>98.0</ele><time>2026-04-06T08:26:07.004Z</time></trkpt><trkpt lat="45.5150325" lon="10.7997477"><ele>98.0</ele><time>2026-04-06T08:26:08.005Z</time></trkpt><trkpt lat="45.515105" lon="10.799848"><ele>98.0</ele><time>2026-04-06T08:26:09.005Z</time></trkpt><trkpt lat="45.5151699" lon="10.799956"><ele>98.0</ele><time>2026-04-06T08:26:10.004Z</time></trkpt><trkpt lat="45.5152247" lon="10.8000755"><ele>98.2</ele><time>2026-04-06T08:26:11.004Z</time></trkpt><trkpt lat="45.5152783" lon="10.8001846"><ele>98.4</ele><time>2026-04-06T08:26:12.005Z</time></trkpt><trkpt lat="45.5153458" lon="10.8002691"><ele>98.60000000000001</ele><time>2026-04-06T08:26:13.004Z</time></trkpt><trkpt lat="45.5154258" lon="10.8003243"><ele>98.80000000000001</ele><time>2026-04-06T08:26:14.004Z</time></trkpt><trkpt lat="45.5155286" lon="10.8003626"><ele>99.0</ele><time>2026-04-06T08:26:15.004Z</time></trkpt><trkpt lat="45.5156289" lon="10.800413"><ele>99.25</ele><time>2026-04-06T08:26:16.004Z</time></trkpt><trkpt lat="45.5157249" lon="10.8005041"><ele>99.5</ele><time>2026-04-06T08:26:17.005Z</time></trkpt><trkpt lat="45.51583" lon="10.80063"><ele>99.75</ele><time>2026-04-06T08:26:18.006Z</time></trkpt><trkpt lat="45.5159498" lon="10.800784"><ele>100.0</ele><time>2026-04-06T08:26:19.006Z</time></trkpt><trkpt lat="45.5160638" lon="10.800929"><ele>100.0</ele><time>2026-04-06T08:26:20.005Z</time></trkpt><trkpt lat="45.5161782" lon="10.8010713"><ele>100.0</ele><time>2026-04-06T08:26:21.005Z</time></trkpt><trkpt lat="45.5162956" lon="10.8012149"><ele>100.0</ele><time>2026-04-06T08:26:22.005Z</time></trkpt><trkpt lat="45.5164176" lon="10.8013587"><ele>99.66666666666667</ele><time>2026-04-06T08:26:23.005Z</time></trkpt><trkpt lat="45.5165362" lon="10.8015025"><ele>99.33333333333334</ele><time>2026-04-06T08:26:24.004Z</time></trkpt><trkpt lat="45.5166541" lon="10.8016402"><ele>99.0</ele><time>2026-04-06T08:26:25.004Z</time></trkpt><trkpt lat="45.5167711" lon="10.8017574"><ele>98.25</ele><time>2026-04-06T08:26:26.004Z</time></trkpt><trkpt lat="45.5168941" lon="10.8018635"><ele>97.5</ele><time>2026-04-06T08:26:27.004Z</time></trkpt><trkpt lat="45.5170238" lon="10.8019644"><ele>96.75</ele><time>2026-04-06T08:26:28.005Z</time></trkpt><trkpt lat="45.5171504" lon="10.8020553"><ele>96.0</ele><time>2026-04-06T08:26:29.006Z</time></trkpt><trkpt lat="45.5172652" lon="10.8021384"><ele>96.0</ele><time>2026-04-06T08:26:30.005Z</time></trkpt><trkpt lat="45.5173727" lon="10.8022114"><ele>96.0</ele><time>2026-04-06T08:26:31.004Z</time></trkpt><trkpt lat="45.5174798" lon="10.8022572"><ele>96.0</ele><time>2026-04-06T08:26:32.006Z</time></trkpt><trkpt lat="45.5175874" lon="10.8022712"><ele>96.0</ele><time>2026-04-06T08:26:33.005Z</time></trkpt><trkpt lat="45.5177034" lon="10.8022692"><ele>96.0</ele><time>2026-04-06T08:26:34.005Z</time></trkpt><trkpt lat="45.5178283" lon="10.8022516"><ele>96.0</ele><time>2026-04-06T08:26:35.005Z</time></trkpt><trkpt lat="45.5179628" lon="10.8022104"><ele>96.0</ele><time>2026-04-06T08:26:36.005Z</time></trkpt><trkpt lat="45.5180962" lon="10.8021444"><ele>96.0</ele><time>2026-04-06T08:26:37.005Z</time></trkpt><trkpt lat="45.51822" lon="10.8020689"><ele>96.0</ele><time>2026-04-06T08:26:38.004Z</time></trkpt><trkpt lat="45.518346" lon="10.8019939"><ele>96.0</ele><time>2026-04-06T08:26:39.006Z</time></trkpt><trkpt lat="45.518483" lon="10.8019236"><ele>96.0</ele><time>2026-04-06T08:26:40.004Z</time></trkpt><trkpt lat="45.5186192" lon="10.8018657"><ele>96.0</ele><time>2026-04-06T08:26:41.005Z</time></trkpt><trkpt lat="45.5187502" lon="10.8018289"><ele>96.5</ele><time>2026-04-06T08:26:42.004Z</time></trkpt><trkpt lat="45.5188825" lon="10.8018148"><ele>97.0</ele><time>2026-04-06T08:26:43.004Z</time></trkpt><trkpt lat="45.5190205" lon="10.8018224"><ele>97.5</ele><time>2026-04-06T08:26:44.005Z</time></trkpt><trkpt lat="45.5191585" lon="10.8018565"><ele>98.0</ele><time>2026-04-06T08:26:45.005Z</time></trkpt><trkpt lat="45.5192959" lon="10.8019112"><ele>97.0</ele><time>2026-04-06T08:26:46.006Z</time></trkpt><trkpt lat="45.5194347" lon="10.8019665"><ele>96.0</ele><time>2026-04-06T08:26:47.005Z</time></trkpt><trkpt lat="45.5195786" lon="10.8020149"><ele>95.0</ele><time>2026-04-06T08:26:48.005Z</time></trkpt><trkpt lat="45.5197198" lon="10.8020709"><ele>94.0</ele><time>2026-04-06T08:26:49.005Z</time></trkpt><trkpt lat="45.5198513" lon="10.8021172"><ele>93.75</ele><time>2026-04-06T08:26:50.005Z</time></trkpt><trkpt lat="45.5199765" lon="10.8021582"><ele>93.5</ele><time>2026-04-06T08:26:51.004Z</time></trkpt><trkpt lat="45.5200945" lon="10.8021947"><ele>93.25</ele><time>2026-04-06T08:26:52.005Z</time></trkpt><trkpt lat="45.5202046" lon="10.8022252"><ele>93.0</ele><time>2026-04-06T08:26:53.005Z</time></trkpt><trkpt lat="45.5203089" lon="10.802251"><ele>93.4</ele><time>2026-04-06T08:26:54.005Z</time></trkpt><trkpt lat="45.5204101" lon="10.802273"><ele>93.80000000000001</ele><time>2026-04-06T08:26:55.004Z</time></trkpt><trkpt lat="45.5205162" lon="10.802297"><ele>94.2</ele><time>2026-04-06T08:26:56.004Z</time></trkpt><trkpt lat="45.5206159" lon="10.8023206"><ele>94.6</ele><time>2026-04-06T08:26:57.004Z</time></trkpt><trkpt lat="45.5207167" lon="10.8023429"><ele>95.0</ele><time>2026-04-06T08:26:58.006Z</time></trkpt><trkpt lat="45.520822" lon="10.8023641"><ele>95.0</ele><time>2026-04-06T08:26:59.005Z</time></trkpt><trkpt lat="45.5209334" lon="10.8023912"><ele>95.0</ele><time>2026-04-06T08:27:00.004Z</time></trkpt><trkpt lat="45.5210489" lon="10.8024208"><ele>95.0</ele><time>2026-04-06T08:27:01.005Z</time></trkpt><trkpt lat="45.5211598" lon="10.8024461"><ele>95.0</ele><time>2026-04-06T08:27:02.004Z</time></trkpt><trkpt lat="45.5212617" lon="10.8024699"><ele>95.0</ele><time>2026-04-06T08:27:03.004Z</time></trkpt><trkpt lat="45.5213562" lon="10.802493"><ele>95.33333333333334</ele><time>2026-04-06T08:27:04.005Z</time></trkpt><trkpt lat="45.521443" lon="10.8025131"><ele>95.66666666666667</ele><time>2026-04-06T08:27:05.004Z</time></trkpt><trkpt lat="45.5215216" lon="10.8025301"><ele>96.0</ele><time>2026-04-06T08:27:06.004Z</time></trkpt><trkpt lat="45.5215891" lon="10.8025428"><ele>96.33333333333334</ele><time>2026-04-06T08:27:07.004Z</time></trkpt><trkpt lat="45.5216535" lon="10.8025558"><ele>96.66666666666667</ele><time>2026-04-06T08:27:08.005Z</time></trkpt><trkpt lat="45.5217665" lon="10.8025825"><ele>97.0</ele><time>2026-04-06T08:27:10.005Z</time></trkpt><trkpt lat="45.5218658" lon="10.8026072"><ele>97.00000000000001</ele><time>2026-04-06T08:27:12.005Z</time></trkpt><trkpt lat="45.5219463" lon="10.8026298"><ele>97.0</ele><time>2026-04-06T08:27:14.004Z</time></trkpt><trkpt lat="45.5220153" lon="10.8026448"><ele>97.0</ele><time>2026-04-06T08:27:16.004Z</time></trkpt><trkpt lat="45.5220793" lon="10.8026596"><ele>97.0</ele><time>2026-04-06T08:27:18.005Z</time></trkpt><trkpt lat="45.5221754" lon="10.8026845"><ele>97.00000000000001</ele><time>2026-04-06T08:27:20.005Z</time></trkpt><trkpt lat="45.522263" lon="10.8027026"><ele>97.0</ele><time>2026-04-06T08:27:22.006Z</time></trkpt><trkpt lat="45.5223291" lon="10.8027193"><ele>97.00000000000001</ele><time>2026-04-06T08:27:25.005Z</time></trkpt><trkpt lat="45.5224137" lon="10.8027559"><ele>97.0</ele><time>2026-04-06T08:27:31.004Z</time></trkpt><trkpt lat="45.5225177" lon="10.8028046"><ele>97.0</ele><time>2026-04-06T08:27:33.006Z</time></trkpt><trkpt lat="45.522603" lon="10.8029014"><ele>97.0</ele><time>2026-04-06T08:27:35.005Z</time></trkpt><trkpt lat="45.5226407" lon="10.8029742"><ele>97.00000000000001</ele><time>2026-04-06T08:27:36.006Z</time></trkpt><trkpt lat="45.5226884" lon="10.8030512"><ele>97.0</ele><time>2026-04-06T08:27:37.005Z</time></trkpt><trkpt lat="45.5228025" lon="10.8031273"><ele>97.19999999999999</ele><time>2026-04-06T08:27:39.004Z</time></trkpt><trkpt lat="45.5229213" lon="10.8030802"><ele>97.4</ele><time>2026-04-06T08:27:41.004Z</time></trkpt><trkpt lat="45.5229766" lon="10.803004"><ele>97.6</ele><time>2026-04-06T08:27:42.005Z</time></trkpt><trkpt lat="45.523038" lon="10.8029123"><ele>97.80000000000001</ele><time>2026-04-06T08:27:43.006Z</time></trkpt><trkpt lat="45.5231143" lon="10.8028481"><ele>98.0</ele><time>2026-04-06T08:27:44.005Z</time></trkpt><trkpt lat="45.5232059" lon="10.8028022"><ele>98.0</ele><time>2026-04-06T08:27:45.005Z</time></trkpt><trkpt lat="45.5233048" lon="10.8027769"><ele>98.0</ele><time>2026-04-06T08:27:46.005Z</time></trkpt><trkpt lat="45.5234044" lon="10.8027649"><ele>98.0</ele><time>2026-04-06T08:27:47.006Z</time></trkpt><trkpt lat="45.5235131" lon="10.802753"><ele>98.0</ele><time>2026-04-06T08:27:48.004Z</time></trkpt><trkpt lat="45.5236225" lon="10.8027268"><ele>98.0</ele><time>2026-04-06T08:27:49.005Z</time></trkpt><trkpt lat="45.523718" lon="10.8026813"><ele>98.0</ele><time>2026-04-06T08:27:50.004Z</time></trkpt><trkpt lat="45.5238125" lon="10.802612"><ele>98.0</ele><time>2026-04-06T08:27:51.005Z</time></trkpt><trkpt lat="45.5239051" lon="10.8025194"><ele>98.0</ele><time>2026-04-06T08:27:52.005Z</time></trkpt><trkpt lat="45.5239918" lon="10.8024104"><ele>98.0</ele><time>2026-04-06T08:27:53.004Z</time></trkpt><trkpt lat="45.5240607" lon="10.8023006"><ele>98.0</ele><time>2026-04-06T08:27:54.005Z</time></trkpt><trkpt lat="45.5241334" lon="10.8021931"><ele>98.0</ele><time>2026-04-06T08:27:55.005Z</time></trkpt><trkpt lat="45.5242137" lon="10.8020937"><ele>98.0</ele><time>2026-04-06T08:27:56.005Z</time></trkpt><trkpt lat="45.5242979" lon="10.802009"><ele>98.0</ele><time>2026-04-06T08:27:57.005Z</time></trkpt><trkpt lat="45.5243961" lon="10.8019252"><ele>98.0</ele><time>2026-04-06T08:27:58.005Z</time></trkpt><trkpt lat="45.5244991" lon="10.8018554"><ele>98.0</ele><time>2026-04-06T08:27:59.006Z</time></trkpt><trkpt lat="45.5245971" lon="10.8018008"><ele>98.2</ele><time>2026-04-06T08:28:00.006Z</time></trkpt><trkpt lat="45.5247023" lon="10.8017455"><ele>98.4</ele><time>2026-04-06T08:28:01.005Z</time></trkpt><trkpt lat="45.5248069" lon="10.801689"><ele>98.60000000000001</ele><time>2026-04-06T08:28:02.005Z</time></trkpt><trkpt lat="45.5249007" lon="10.8016401"><ele>98.80000000000001</ele><time>2026-04-06T08:28:03.005Z</time></trkpt><trkpt lat="45.5249846" lon="10.8015917"><ele>99.0</ele><time>2026-04-06T08:28:04.005Z</time></trkpt><trkpt lat="45.5250657" lon="10.8015369"><ele>99.0</ele><time>2026-04-06T08:28:05.005Z</time></trkpt><trkpt lat="45.5251495" lon="10.8014733"><ele>99.0</ele><time>2026-04-06T08:28:06.005Z</time></trkpt><trkpt lat="45.5252337" lon="10.8014072"><ele>99.0</ele><time>2026-04-06T08:28:07.004Z</time></trkpt><trkpt lat="45.5253203" lon="10.8013386"><ele>99.0</ele><time>2026-04-06T08:28:08.004Z</time></trkpt><trkpt lat="45.5254218" lon="10.8012598"><ele>99.0</ele><time>2026-04-06T08:28:09.004Z</time></trkpt><trkpt lat="45.5255222" lon="10.8011775"><ele>99.2</ele><time>2026-04-06T08:28:10.005Z</time></trkpt><trkpt lat="45.5256142" lon="10.8010924"><ele>99.4</ele><time>2026-04-06T08:28:11.005Z</time></trkpt><trkpt lat="45.5256939" lon="10.8010026"><ele>99.6</ele><time>2026-04-06T08:28:12.005Z</time></trkpt><trkpt lat="45.5257628" lon="10.8009102"><ele>99.8</ele><time>2026-04-06T08:28:13.004Z</time></trkpt><trkpt lat="45.5258307" lon="10.8008176"><ele>100.0</ele><time>2026-04-06T08:28:14.004Z</time></trkpt><trkpt lat="45.5258991" lon="10.8007114"><ele>100.0</ele><time>2026-04-06T08:28:15.005Z</time></trkpt><trkpt lat="45.5259664" lon="10.800604"><ele>100.0</ele><time>2026-04-06T08:28:16.006Z</time></trkpt><trkpt lat="45.526034" lon="10.8005038"><ele>100.0</ele><time>2026-04-06T08:28:17.005Z</time></trkpt><trkpt lat="45.5261043" lon="10.8003998"><ele>100.0</ele><time>2026-04-06T08:28:18.006Z</time></trkpt><trkpt lat="45.5261845" lon="10.8003042"><ele>100.0</ele><time>2026-04-06T08:28:19.005Z</time></trkpt><trkpt lat="45.5262699" lon="10.8002332"><ele>100.4</ele><time>2026-04-06T08:28:20.005Z</time></trkpt><trkpt lat="45.5263616" lon="10.8001906"><ele>100.8</ele><time>2026-04-06T08:28:21.006Z</time></trkpt><trkpt lat="45.5264498" lon="10.8001748"><ele>101.19999999999999</ele><time>2026-04-06T08:28:22.004Z</time></trkpt><trkpt lat="45.526561" lon="10.8001763"><ele>101.6</ele><time>2026-04-06T08:28:23.005Z</time></trkpt><trkpt lat="45.5266863" lon="10.8001856"><ele>102.0</ele><time>2026-04-06T08:28:24.004Z</time></trkpt><trkpt lat="45.5268058" lon="10.8001816"><ele>102.0</ele><time>2026-04-06T08:28:25.004Z</time></trkpt><trkpt lat="45.5269196" lon="10.80019"><ele>102.0</ele><time>2026-04-06T08:28:26.005Z</time></trkpt><trkpt lat="45.52703" lon="10.8002325"><ele>102.0</ele><time>2026-04-06T08:28:27.004Z</time></trkpt><trkpt lat="45.5271391" lon="10.8002989"><ele>102.0</ele><time>2026-04-06T08:28:28.004Z</time></trkpt><trkpt lat="45.5272557" lon="10.8003673"><ele>103.25</ele><time>2026-04-06T08:28:29.005Z</time></trkpt><trkpt lat="45.5273767" lon="10.8004306"><ele>104.5</ele><time>2026-04-06T08:28:30.005Z</time></trkpt><trkpt lat="45.5274839" lon="10.8004848"><ele>105.75</ele><time>2026-04-06T08:28:31.005Z</time></trkpt><trkpt lat="45.5275974" lon="10.8005378"><ele>107.0</ele><time>2026-04-06T08:28:32.005Z</time></trkpt><trkpt lat="45.5277143" lon="10.8005882"><ele>107.0</ele><time>2026-04-06T08:28:33.005Z</time></trkpt><trkpt lat="45.5278292" lon="10.8006346"><ele>107.0</ele><time>2026-04-06T08:28:34.004Z</time></trkpt><trkpt lat="45.5279403" lon="10.8006793"><ele>107.0</ele><time>2026-04-06T08:28:35.005Z</time></trkpt><trkpt lat="45.5280534" lon="10.8007254"><ele>107.0</ele><time>2026-04-06T08:28:36.004Z</time></trkpt><trkpt lat="45.5281684" lon="10.8007717"><ele>109.0</ele><time>2026-04-06T08:28:37.004Z</time></trkpt><trkpt lat="45.5282857" lon="10.800815"><ele>111.0</ele><time>2026-04-06T08:28:38.004Z</time></trkpt><trkpt lat="45.5284053" lon="10.8008607"><ele>113.0</ele><time>2026-04-06T08:28:39.006Z</time></trkpt><trkpt lat="45.5285227" lon="10.8009122"><ele>115.0</ele><time>2026-04-06T08:28:40.004Z</time></trkpt><trkpt lat="45.528644" lon="10.8009656"><ele>114.25</ele><time>2026-04-06T08:28:41.005Z</time></trkpt><trkpt lat="45.5287733" lon="10.8010245"><ele>113.5</ele><time>2026-04-06T08:28:42.004Z</time></trkpt><trkpt lat="45.52891" lon="10.8010887"><ele>112.75</ele><time>2026-04-06T08:28:43.006Z</time></trkpt><trkpt lat="45.5290437" lon="10.8011538"><ele>112.0</ele><time>2026-04-06T08:28:44.005Z</time></trkpt><trkpt lat="45.5291916" lon="10.8012258"><ele>112.0</ele><time>2026-04-06T08:28:45.005Z</time></trkpt><trkpt lat="45.5293322" lon="10.8012948"><ele>112.0</ele><time>2026-04-06T08:28:46.005Z</time></trkpt><trkpt lat="45.5294634" lon="10.8013597"><ele>112.0</ele><time>2026-04-06T08:28:47.005Z</time></trkpt><trkpt lat="45.5295931" lon="10.8014269"><ele>112.0</ele><time>2026-04-06T08:28:48.006Z</time></trkpt><trkpt lat="45.5297237" lon="10.8014948"><ele>114.25</ele><time>2026-04-06T08:28:49.004Z</time></trkpt><trkpt lat="45.5298545" lon="10.8015597"><ele>116.5</ele><time>2026-04-06T08:28:50.005Z</time></trkpt><trkpt lat="45.5299851" lon="10.8016252"><ele>118.75</ele><time>2026-04-06T08:28:51.005Z</time></trkpt><trkpt lat="45.5301154" lon="10.8016926"><ele>121.0</ele><time>2026-04-06T08:28:52.005Z</time></trkpt><trkpt lat="45.5302456" lon="10.801761"><ele>121.0</ele><time>2026-04-06T08:28:53.005Z</time></trkpt><trkpt lat="45.5303698" lon="10.8018265"><ele>121.0</ele><time>2026-04-06T08:28:54.004Z</time></trkpt><trkpt lat="45.5304797" lon="10.8018836"><ele>121.0</ele><time>2026-04-06T08:28:55.006Z</time></trkpt><trkpt lat="45.5305792" lon="10.8019348"><ele>121.0</ele><time>2026-04-06T08:28:56.004Z</time></trkpt><trkpt lat="45.5306722" lon="10.8019825"><ele>120.0</ele><time>2026-04-06T08:28:57.005Z</time></trkpt><trkpt lat="45.5307704" lon="10.8020305"><ele>119.0</ele><time>2026-04-06T08:28:58.005Z</time></trkpt><trkpt lat="45.5308702" lon="10.8020814"><ele>118.0</ele><time>2026-04-06T08:28:59.005Z</time></trkpt><trkpt lat="45.5309557" lon="10.802132"><ele>117.0</ele><time>2026-04-06T08:29:00.005Z</time></trkpt><trkpt lat="45.5310377" lon="10.8021814"><ele>116.0</ele><time>2026-04-06T08:29:01.004Z</time></trkpt><trkpt lat="45.531127" lon="10.8022299"><ele>116.0</ele><time>2026-04-06T08:29:02.004Z</time></trkpt><trkpt lat="45.5312124" lon="10.8022673"><ele>116.0</ele><time>2026-04-06T08:29:03.005Z</time></trkpt><trkpt lat="45.5313015" lon="10.8022881"><ele>116.0</ele><time>2026-04-06T08:29:04.005Z</time></trkpt><trkpt lat="45.5313959" lon="10.8022866"><ele>116.0</ele><time>2026-04-06T08:29:05.005Z</time></trkpt><trkpt lat="45.5314868" lon="10.8022608"><ele>116.0</ele><time>2026-04-06T08:29:06.004Z</time></trkpt><trkpt lat="45.5315817" lon="10.8022162"><ele>118.75</ele><time>2026-04-06T08:29:07.005Z</time></trkpt><trkpt lat="45.5316828" lon="10.8021595"><ele>121.5</ele><time>2026-04-06T08:29:08.004Z</time></trkpt><trkpt lat="45.5317902" lon="10.8021008"><ele>124.25</ele><time>2026-04-06T08:29:09.005Z</time></trkpt><trkpt lat="45.5319051" lon="10.8020426"><ele>127.0</ele><time>2026-04-06T08:29:10.005Z</time></trkpt><trkpt lat="45.5320294" lon="10.8019888"><ele>128.75</ele><time>2026-04-06T08:29:11.005Z</time></trkpt><trkpt lat="45.5321617" lon="10.8019458"><ele>130.5</ele><time>2026-04-06T08:29:12.005Z</time></trkpt><trkpt lat="45.5322952" lon="10.8019195"><ele>132.25</ele><time>2026-04-06T08:29:13.004Z</time></trkpt><trkpt lat="45.5324347" lon="10.8019011"><ele>134.0</ele><time>2026-04-06T08:29:14.005Z</time></trkpt><trkpt lat="45.5325791" lon="10.8018831"><ele>134.0</ele><time>2026-04-06T08:29:15.004Z</time></trkpt><trkpt lat="45.5327122" lon="10.801861"><ele>134.0</ele><time>2026-04-06T08:29:16.004Z</time></trkpt><trkpt lat="45.5328368" lon="10.8018411"><ele>134.0</ele><time>2026-04-06T08:29:17.004Z</time></trkpt><trkpt lat="45.5329683" lon="10.801823"><ele>134.0</ele><time>2026-04-06T08:29:18.005Z</time></trkpt><trkpt lat="45.533103" lon="10.8018062"><ele>136.0</ele><time>2026-04-06T08:29:19.005Z</time></trkpt><trkpt lat="45.5332351" lon="10.8017937"><ele>138.0</ele><time>2026-04-06T08:29:20.005Z</time></trkpt><trkpt lat="45.5333749" lon="10.8017863"><ele>140.0</ele><time>2026-04-06T08:29:21.005Z</time></trkpt><trkpt lat="45.5335182" lon="10.8017889"><ele>142.0</ele><time>2026-04-06T08:29:22.005Z</time></trkpt><trkpt lat="45.5336685" lon="10.8018024"><ele>141.66666666666669</ele><time>2026-04-06T08:29:23.006Z</time></trkpt><trkpt lat="45.5338305" lon="10.8018232"><ele>141.33333333333334</ele><time>2026-04-06T08:29:24.004Z</time></trkpt><trkpt lat="45.5340061" lon="10.8018469"><ele>141.0</ele><time>2026-04-06T08:29:25.006Z</time></trkpt><trkpt lat="45.5341825" lon="10.8018768"><ele>141.33333333333334</ele><time>2026-04-06T08:29:26.004Z</time></trkpt><trkpt lat="45.5343567" lon="10.8019065"><ele>141.66666666666669</ele><time>2026-04-06T08:29:27.004Z</time></trkpt><trkpt lat="45.5345315" lon="10.8019349"><ele>142.0</ele><time>2026-04-06T08:29:28.004Z</time></trkpt><trkpt lat="45.5347028" lon="10.8019592"><ele>142.0</ele><time>2026-04-06T08:29:29.004Z</time></trkpt><trkpt lat="45.5348733" lon="10.8019808"><ele>142.0</ele><time>2026-04-06T08:29:30.005Z</time></trkpt><trkpt lat="45.5350426" lon="10.8020024"><ele>142.0</ele><time>2026-04-06T08:29:31.004Z</time></trkpt><trkpt lat="45.5352038" lon="10.8020228"><ele>142.0</ele><time>2026-04-06T08:29:32.004Z</time></trkpt><trkpt lat="45.5353698" lon="10.8020456"><ele>142.0</ele><time>2026-04-06T08:29:33.005Z</time></trkpt><trkpt lat="45.53554" lon="10.8020656"><ele>142.0</ele><time>2026-04-06T08:29:34.004Z</time></trkpt><trkpt lat="45.5357116" lon="10.8020884"><ele>143.33333333333334</ele><time>2026-04-06T08:29:35.006Z</time></trkpt><trkpt lat="45.5358805" lon="10.8021118"><ele>144.66666666666666</ele><time>2026-04-06T08:29:36.005Z</time></trkpt><trkpt lat="45.5360406" lon="10.8021308"><ele>146.0</ele><time>2026-04-06T08:29:37.006Z</time></trkpt><trkpt lat="45.5362041" lon="10.8021407"><ele>146.33333333333331</ele><time>2026-04-06T08:29:38.004Z</time></trkpt><trkpt lat="45.5363699" lon="10.8021367"><ele>146.66666666666666</ele><time>2026-04-06T08:29:39.005Z</time></trkpt><trkpt lat="45.5365338" lon="10.8021203"><ele>147.0</ele><time>2026-04-06T08:29:40.005Z</time></trkpt><trkpt lat="45.5366978" lon="10.8020952"><ele>147.0</ele><time>2026-04-06T08:29:41.004Z</time></trkpt><trkpt lat="45.5368622" lon="10.8020689"><ele>147.0</ele><time>2026-04-06T08:29:42.005Z</time></trkpt><trkpt lat="45.5370278" lon="10.8020397"><ele>147.0</ele><time>2026-04-06T08:29:43.004Z</time></trkpt><trkpt lat="45.5371965" lon="10.8020119"><ele>147.66666666666666</ele><time>2026-04-06T08:29:44.006Z</time></trkpt><trkpt lat="45.5373638" lon="10.8019834"><ele>148.33333333333331</ele><time>2026-04-06T08:29:45.005Z</time></trkpt><trkpt lat="45.537527" lon="10.8019583"><ele>149.0</ele><time>2026-04-06T08:29:46.004Z</time></trkpt><trkpt lat="45.5376911" lon="10.801929"><ele>149.0</ele><time>2026-04-06T08:29:47.004Z</time></trkpt><trkpt lat="45.5378463" lon="10.8018979"><ele>149.0</ele><time>2026-04-06T08:29:48.005Z</time></trkpt><trkpt lat="45.538006" lon="10.8018751"><ele>149.0</ele><time>2026-04-06T08:29:49.005Z</time></trkpt><trkpt lat="45.5381711" lon="10.8018512"><ele>150.0</ele><time>2026-04-06T08:29:50.004Z</time></trkpt><trkpt lat="45.5383413" lon="10.8018232"><ele>151.0</ele><time>2026-04-06T08:29:51.005Z</time></trkpt><trkpt lat="45.5385051" lon="10.8017988"><ele>152.0</ele><time>2026-04-06T08:29:52.005Z</time></trkpt><trkpt lat="45.5386677" lon="10.8017845"><ele>152.66666666666666</ele><time>2026-04-06T08:29:53.006Z</time></trkpt><trkpt lat="45.5388312" lon="10.8017758"><ele>153.33333333333334</ele><time>2026-04-06T08:29:54.005Z</time></trkpt><trkpt lat="45.538995" lon="10.801769"><ele>154.0</ele><time>2026-04-06T08:29:55.005Z</time></trkpt><trkpt lat="45.5391547" lon="10.8017676"><ele>154.0</ele><time>2026-04-06T08:29:56.004Z</time></trkpt><trkpt lat="45.5393114" lon="10.8017713"><ele>154.0</ele><time>2026-04-06T08:29:57.005Z</time></trkpt><trkpt lat="45.5394734" lon="10.8017805"><ele>154.0</ele><time>2026-04-06T08:29:58.005Z</time></trkpt><trkpt lat="45.5396355" lon="10.8017971"><ele>154.66666666666669</ele><time>2026-04-06T08:29:59.005Z</time></trkpt><trkpt lat="45.5397987" lon="10.801819"><ele>155.33333333333334</ele><time>2026-04-06T08:30:00.004Z</time></trkpt><trkpt lat="45.5399571" lon="10.8018448"><ele>156.0</ele><time>2026-04-06T08:30:01.006Z</time></trkpt><trkpt lat="45.5401094" lon="10.8018701"><ele>155.5</ele><time>2026-04-06T08:30:02.004Z</time></trkpt><trkpt lat="45.5402513" lon="10.8018935"><ele>155.0</ele><time>2026-04-06T08:30:03.004Z</time></trkpt><trkpt lat="45.5403862" lon="10.8019158"><ele>154.5</ele><time>2026-04-06T08:30:04.005Z</time></trkpt><trkpt lat="45.5405257" lon="10.801942"><ele>154.0</ele><time>2026-04-06T08:30:05.005Z</time></trkpt><trkpt lat="45.5406653" lon="10.8019729"><ele>154.0</ele><time>2026-04-06T08:30:06.004Z</time></trkpt><trkpt lat="45.5408047" lon="10.8020128"><ele>154.0</ele><time>2026-04-06T08:30:07.004Z</time></trkpt><trkpt lat="45.540945" lon="10.8020503"><ele>154.0</ele><time>2026-04-06T08:30:08.005Z</time></trkpt><trkpt lat="45.5410845" lon="10.8020794"><ele>154.0</ele><time>2026-04-06T08:30:09.004Z</time></trkpt><trkpt lat="45.5412261" lon="10.8021027"><ele>154.25</ele><time>2026-04-06T08:30:10.004Z</time></trkpt><trkpt lat="45.5413708" lon="10.8021229"><ele>154.5</ele><time>2026-04-06T08:30:11.006Z</time></trkpt><trkpt lat="45.541511" lon="10.8021384"><ele>154.75</ele><time>2026-04-06T08:30:12.005Z</time></trkpt><trkpt lat="45.5416438" lon="10.8021481"><ele>155.0</ele><time>2026-04-06T08:30:13.006Z</time></trkpt><trkpt lat="45.5417852" lon="10.8021506"><ele>155.0</ele><time>2026-04-06T08:30:14.006Z</time></trkpt><trkpt lat="45.541931" lon="10.8021469"><ele>155.0</ele><time>2026-04-06T08:30:15.005Z</time></trkpt><trkpt lat="45.5420795" lon="10.8021476"><ele>155.0</ele><time>2026-04-06T08:30:16.004Z</time></trkpt><trkpt lat="45.5422286" lon="10.8021604"><ele>155.0</ele><time>2026-04-06T08:30:17.004Z</time></trkpt><trkpt lat="45.5423792" lon="10.8021788"><ele>156.0</ele><time>2026-04-06T08:30:18.006Z</time></trkpt><trkpt lat="45.5425301" lon="10.8021984"><ele>157.0</ele><time>2026-04-06T08:30:19.004Z</time></trkpt><trkpt lat="45.5426799" lon="10.8022228"><ele>158.0</ele><time>2026-04-06T08:30:20.005Z</time></trkpt><trkpt lat="45.5428287" lon="10.802248"><ele>158.75</ele><time>2026-04-06T08:30:21.004Z</time></trkpt><trkpt lat="45.5429722" lon="10.8022706"><ele>159.5</ele><time>2026-04-06T08:30:22.004Z</time></trkpt><trkpt lat="45.543121" lon="10.8022973"><ele>160.25</ele><time>2026-04-06T08:30:23.005Z</time></trkpt><trkpt lat="45.5432685" lon="10.8023288"><ele>161.0</ele><time>2026-04-06T08:30:24.005Z</time></trkpt><trkpt lat="45.5434131" lon="10.8023591"><ele>161.0</ele><time>2026-04-06T08:30:25.005Z</time></trkpt><trkpt lat="45.5435578" lon="10.8023909"><ele>161.0</ele><time>2026-04-06T08:30:26.005Z</time></trkpt><trkpt lat="45.543703" lon="10.8024208"><ele>161.0</ele><time>2026-04-06T08:30:27.004Z</time></trkpt><trkpt lat="45.5438533" lon="10.8024487"><ele>161.0</ele><time>2026-04-06T08:30:28.005Z</time></trkpt><trkpt lat="45.5440112" lon="10.8024833"><ele>161.33333333333331</ele><time>2026-04-06T08:30:29.006Z</time></trkpt><trkpt lat="45.5441732" lon="10.8025223"><ele>161.66666666666666</ele><time>2026-04-06T08:30:30.005Z</time></trkpt><trkpt lat="45.5443327" lon="10.8025671"><ele>162.0</ele><time>2026-04-06T08:30:31.005Z</time></trkpt><trkpt lat="45.5444931" lon="10.8026143"><ele>162.33333333333334</ele><time>2026-04-06T08:30:32.005Z</time></trkpt><trkpt lat="45.544663" lon="10.8026641"><ele>162.66666666666669</ele><time>2026-04-06T08:30:33.005Z</time></trkpt><trkpt lat="45.5448444" lon="10.8027181"><ele>163.0</ele><time>2026-04-06T08:30:34.004Z</time></trkpt><trkpt lat="45.5450185" lon="10.8027703"><ele>163.33333333333334</ele><time>2026-04-06T08:30:35.005Z</time></trkpt><trkpt lat="45.5451971" lon="10.8028248"><ele>163.66666666666666</ele><time>2026-04-06T08:30:36.005Z</time></trkpt><trkpt lat="45.5453726" lon="10.8028773"><ele>164.0</ele><time>2026-04-06T08:30:37.006Z</time></trkpt><trkpt lat="45.5455443" lon="10.8029282"><ele>164.0</ele><time>2026-04-06T08:30:38.005Z</time></trkpt><trkpt lat="45.5457145" lon="10.8029808"><ele>164.0</ele><time>2026-04-06T08:30:39.005Z</time></trkpt><trkpt lat="45.545875" lon="10.8030275"><ele>164.0</ele><time>2026-04-06T08:30:40.004Z</time></trkpt><trkpt lat="45.5460371" lon="10.8030716"><ele>164.0</ele><time>2026-04-06T08:30:41.005Z</time></trkpt><trkpt lat="45.5462015" lon="10.80312"><ele>164.0</ele><time>2026-04-06T08:30:42.005Z</time></trkpt><trkpt lat="45.5463645" lon="10.8031721"><ele>164.0</ele><time>2026-04-06T08:30:43.004Z</time></trkpt><trkpt lat="45.546524" lon="10.8032255"><ele>164.66666666666666</ele><time>2026-04-06T08:30:44.004Z</time></trkpt><trkpt lat="45.5466838" lon="10.8032739"><ele>165.33333333333334</ele><time>2026-04-06T08:30:45.005Z</time></trkpt><trkpt lat="45.5468466" lon="10.8033191"><ele>166.0</ele><time>2026-04-06T08:30:46.005Z</time></trkpt><trkpt lat="45.5470155" lon="10.8033675"><ele>166.0</ele><time>2026-04-06T08:30:47.006Z</time></trkpt><trkpt lat="45.5471903" lon="10.803424"><ele>166.0</ele><time>2026-04-06T08:30:48.004Z</time></trkpt><trkpt lat="45.5473696" lon="10.8034833"><ele>166.0</ele><time>2026-04-06T08:30:49.004Z</time></trkpt><trkpt lat="45.5475479" lon="10.8035377"><ele>166.0</ele><time>2026-04-06T08:30:50.004Z</time></trkpt><trkpt lat="45.5477274" lon="10.8035896"><ele>166.0</ele><time>2026-04-06T08:30:51.005Z</time></trkpt><trkpt lat="45.5479062" lon="10.8036421"><ele>166.0</ele><time>2026-04-06T08:30:52.006Z</time></trkpt><trkpt lat="45.5480886" lon="10.8036936"><ele>166.0</ele><time>2026-04-06T08:30:53.006Z</time></trkpt><trkpt lat="45.548274" lon="10.803741"><ele>166.0</ele><time>2026-04-06T08:30:54.005Z</time></trkpt><trkpt lat="45.5484568" lon="10.8037911"><ele>166.0</ele><time>2026-04-06T08:30:55.005Z</time></trkpt><trkpt lat="45.5486239" lon="10.8038374"><ele>166.66666666666669</ele><time>2026-04-06T08:30:56.005Z</time></trkpt><trkpt lat="45.5487847" lon="10.8038773"><ele>167.33333333333334</ele><time>2026-04-06T08:30:57.004Z</time></trkpt><trkpt lat="45.5489452" lon="10.8039156"><ele>168.0</ele><time>2026-04-06T08:30:58.004Z</time></trkpt><trkpt lat="45.5491066" lon="10.8039487"><ele>168.0</ele><time>2026-04-06T08:30:59.005Z</time></trkpt><trkpt lat="45.5492578" lon="10.8039652"><ele>168.0</ele><time>2026-04-06T08:31:00.004Z</time></trkpt><trkpt lat="45.5494017" lon="10.80397"><ele>168.0</ele><time>2026-04-06T08:31:01.005Z</time></trkpt><trkpt lat="45.5495378" lon="10.8039715"><ele>168.0</ele><time>2026-04-06T08:31:02.005Z</time></trkpt><trkpt lat="45.5496671" lon="10.8039708"><ele>168.5</ele><time>2026-04-06T08:31:03.005Z</time></trkpt><trkpt lat="45.5497955" lon="10.8039682"><ele>169.0</ele><time>2026-04-06T08:31:04.005Z</time></trkpt><trkpt lat="45.5499235" lon="10.8039681"><ele>169.5</ele><time>2026-04-06T08:31:05.005Z</time></trkpt><trkpt lat="45.5500565" lon="10.8039761"><ele>170.0</ele><time>2026-04-06T08:31:06.004Z</time></trkpt><trkpt lat="45.5501789" lon="10.8039868"><ele>170.0</ele><time>2026-04-06T08:31:07.005Z</time></trkpt><trkpt lat="45.5502849" lon="10.8039913"><ele>170.0</ele><time>2026-04-06T08:31:08.004Z</time></trkpt><trkpt lat="45.5503894" lon="10.8039937"><ele>170.0</ele><time>2026-04-06T08:31:09.005Z</time></trkpt><trkpt lat="45.5505065" lon="10.8040017"><ele>170.0</ele><time>2026-04-06T08:31:10.005Z</time></trkpt><trkpt lat="45.5506344" lon="10.8040137"><ele>170.33333333333331</ele><time>2026-04-06T08:31:11.004Z</time></trkpt><trkpt lat="45.5507777" lon="10.8040216"><ele>170.66666666666666</ele><time>2026-04-06T08:31:12.005Z</time></trkpt><trkpt lat="45.5509362" lon="10.8040154"><ele>171.0</ele><time>2026-04-06T08:31:13.005Z</time></trkpt><trkpt lat="45.5511064" lon="10.8040026"><ele>171.66666666666666</ele><time>2026-04-06T08:31:14.004Z</time></trkpt><trkpt lat="45.5512851" lon="10.803988"><ele>172.33333333333331</ele><time>2026-04-06T08:31:15.004Z</time></trkpt><trkpt lat="45.5514737" lon="10.8039713"><ele>173.0</ele><time>2026-04-06T08:31:16.005Z</time></trkpt><trkpt lat="45.5516717" lon="10.8039551"><ele>173.0</ele><time>2026-04-06T08:31:17.004Z</time></trkpt><trkpt lat="45.5518742" lon="10.8039379"><ele>173.0</ele><time>2026-04-06T08:31:18.005Z</time></trkpt><trkpt lat="45.5520783" lon="10.8039181"><ele>173.0</ele><time>2026-04-06T08:31:19.004Z</time></trkpt><trkpt lat="45.5522898" lon="10.8038957"><ele>172.66666666666666</ele><time>2026-04-06T08:31:20.005Z</time></trkpt><trkpt lat="45.5525058" lon="10.8038671"><ele>172.33333333333334</ele><time>2026-04-06T08:31:21.005Z</time></trkpt><trkpt lat="45.5527317" lon="10.8038279"><ele>172.0</ele><time>2026-04-06T08:31:22.004Z</time></trkpt><trkpt lat="45.5529732" lon="10.8037819"><ele>173.5</ele><time>2026-04-06T08:31:23.005Z</time></trkpt><trkpt lat="45.5532029" lon="10.8037383"><ele>175.0</ele><time>2026-04-06T08:31:24.004Z</time></trkpt><trkpt lat="45.5534238" lon="10.8036978"><ele>175.0</ele><time>2026-04-06T08:31:25.004Z</time></trkpt><trkpt lat="45.5536373" lon="10.8036608"><ele>175.0</ele><time>2026-04-06T08:31:26.005Z</time></trkpt><trkpt lat="45.5538486" lon="10.8036302"><ele>175.0</ele><time>2026-04-06T08:31:27.005Z</time></trkpt><trkpt lat="45.5540491" lon="10.803618"><ele>175.0</ele><time>2026-04-06T08:31:28.006Z</time></trkpt><trkpt lat="45.5542447" lon="10.8036227"><ele>175.0</ele><time>2026-04-06T08:31:29.006Z</time></trkpt><trkpt lat="45.5544435" lon="10.8036385"><ele>175.0</ele><time>2026-04-06T08:31:30.005Z</time></trkpt><trkpt lat="45.5546373" lon="10.8036508"><ele>176.0</ele><time>2026-04-06T08:31:31.005Z</time></trkpt><trkpt lat="45.5548201" lon="10.8036483"><ele>177.0</ele><time>2026-04-06T08:31:32.005Z</time></trkpt><trkpt lat="45.5550052" lon="10.8036222"><ele>178.0</ele><time>2026-04-06T08:31:33.004Z</time></trkpt><trkpt lat="45.5551939" lon="10.803563"><ele>178.0</ele><time>2026-04-06T08:31:34.005Z</time></trkpt><trkpt lat="45.5553867" lon="10.8034628"><ele>178.0</ele><time>2026-04-06T08:31:35.005Z</time></trkpt><trkpt lat="45.5555804" lon="10.8033245"><ele>178.0</ele><time>2026-04-06T08:31:36.004Z</time></trkpt><trkpt lat="45.5557713" lon="10.803169"><ele>178.0</ele><time>2026-04-06T08:31:37.005Z</time></trkpt><trkpt lat="45.5559516" lon="10.8030069"><ele>178.0</ele><time>2026-04-06T08:31:38.005Z</time></trkpt><trkpt lat="45.5561273" lon="10.8028485"><ele>178.0</ele><time>2026-04-06T08:31:39.006Z</time></trkpt><trkpt lat="45.5562977" lon="10.8026937"><ele>178.66666666666669</ele><time>2026-04-06T08:31:40.005Z</time></trkpt><trkpt lat="45.5564633" lon="10.8025397"><ele>179.33333333333334</ele><time>2026-04-06T08:31:41.004Z</time></trkpt><trkpt lat="45.5566252" lon="10.8023931"><ele>180.0</ele><time>2026-04-06T08:31:42.004Z</time></trkpt><trkpt lat="45.5567768" lon="10.8022611"><ele>180.0</ele><time>2026-04-06T08:31:43.004Z</time></trkpt><trkpt lat="45.5569185" lon="10.8021345"><ele>180.0</ele><time>2026-04-06T08:31:44.004Z</time></trkpt><trkpt lat="45.5570488" lon="10.8020118"><ele>180.0</ele><time>2026-04-06T08:31:45.005Z</time></trkpt><trkpt lat="45.5571685" lon="10.8018932"><ele>180.75</ele><time>2026-04-06T08:31:46.004Z</time></trkpt><trkpt lat="45.5572811" lon="10.8017807"><ele>181.5</ele><time>2026-04-06T08:31:47.005Z</time></trkpt><trkpt lat="45.5573939" lon="10.8016726"><ele>182.25</ele><time>2026-04-06T08:31:48.004Z</time></trkpt><trkpt lat="45.5575142" lon="10.8015669"><ele>183.0</ele><time>2026-04-06T08:31:49.005Z</time></trkpt><trkpt lat="45.5576443" lon="10.8014645"><ele>183.0</ele><time>2026-04-06T08:31:50.004Z</time></trkpt><trkpt lat="45.5577792" lon="10.8013653"><ele>183.0</ele><time>2026-04-06T08:31:51.006Z</time></trkpt><trkpt lat="45.5578996" lon="10.8012748"><ele>183.0</ele><time>2026-04-06T08:31:52.006Z</time></trkpt><trkpt lat="45.5580133" lon="10.8011874"><ele>183.0</ele><time>2026-04-06T08:31:53.005Z</time></trkpt><trkpt lat="45.5581313" lon="10.8010987"><ele>183.5</ele><time>2026-04-06T08:31:54.004Z</time></trkpt><trkpt lat="45.5582442" lon="10.8010097"><ele>184.0</ele><time>2026-04-06T08:31:55.004Z</time></trkpt><trkpt lat="45.558348" lon="10.8009173"><ele>184.5</ele><time>2026-04-06T08:31:56.005Z</time></trkpt><trkpt lat="45.5584529" lon="10.8008123"><ele>185.0</ele><time>2026-04-06T08:31:57.006Z</time></trkpt><trkpt lat="45.5585538" lon="10.8006995"><ele>185.0</ele><time>2026-04-06T08:31:58.005Z</time></trkpt><trkpt lat="45.5586524" lon="10.8005778"><ele>185.0</ele><time>2026-04-06T08:31:59.005Z</time></trkpt><trkpt lat="45.5587494" lon="10.8004695"><ele>185.0</ele><time>2026-04-06T08:32:00.004Z</time></trkpt><trkpt lat="45.558842" lon="10.800359"><ele>185.0</ele><time>2026-04-06T08:32:01.005Z</time></trkpt><trkpt lat="45.5589307" lon="10.8002467"><ele>185.0</ele><time>2026-04-06T08:32:02.005Z</time></trkpt><trkpt lat="45.5590158" lon="10.8001717"><ele>185.0</ele><time>2026-04-06T08:32:03.005Z</time></trkpt><trkpt lat="45.5591026" lon="10.8000967"><ele>185.0</ele><time>2026-04-06T08:32:04.004Z</time></trkpt><trkpt lat="45.5591906" lon="10.8000311"><ele>185.0</ele><time>2026-04-06T08:32:05.004Z</time></trkpt><trkpt lat="45.5592805" lon="10.799975"><ele>185.0</ele><time>2026-04-06T08:32:06.004Z</time></trkpt><trkpt lat="45.5593828" lon="10.7999297"><ele>185.0</ele><time>2026-04-06T08:32:07.004Z</time></trkpt><trkpt lat="45.5594898" lon="10.7999027"><ele>185.0</ele><time>2026-04-06T08:32:08.004Z</time></trkpt><trkpt lat="45.5595888" lon="10.7998897"><ele>185.0</ele><time>2026-04-06T08:32:09.004Z</time></trkpt><trkpt lat="45.5597001" lon="10.7998902"><ele>185.0</ele><time>2026-04-06T08:32:10.005Z</time></trkpt><trkpt lat="45.5598166" lon="10.7999032"><ele>185.0</ele><time>2026-04-06T08:32:11.005Z</time></trkpt><trkpt lat="45.5599364" lon="10.799919"><ele>185.0</ele><time>2026-04-06T08:32:12.005Z</time></trkpt><trkpt lat="45.5600595" lon="10.7999321"><ele>185.0</ele><time>2026-04-06T08:32:13.005Z</time></trkpt><trkpt lat="45.5601942" lon="10.7999451"><ele>185.0</ele><time>2026-04-06T08:32:14.006Z</time></trkpt><trkpt lat="45.560331" lon="10.799957"><ele>185.0</ele><time>2026-04-06T08:32:15.004Z</time></trkpt><trkpt lat="45.5604666" lon="10.7999699"><ele>185.0</ele><time>2026-04-06T08:32:16.005Z</time></trkpt><trkpt lat="45.5606102" lon="10.7999849"><ele>185.0</ele><time>2026-04-06T08:32:17.005Z</time></trkpt><trkpt lat="45.5607542" lon="10.8000023"><ele>185.0</ele><time>2026-04-06T08:32:18.004Z</time></trkpt><trkpt lat="45.560905" lon="10.8000204"><ele>185.0</ele><time>2026-04-06T08:32:19.005Z</time></trkpt><trkpt lat="45.561059" lon="10.8000376"><ele>185.33333333333331</ele><time>2026-04-06T08:32:20.005Z</time></trkpt><trkpt lat="45.5612159" lon="10.8000558"><ele>185.66666666666666</ele><time>2026-04-06T08:32:21.004Z</time></trkpt><trkpt lat="45.5613757" lon="10.8000787"><ele>186.0</ele><time>2026-04-06T08:32:22.005Z</time></trkpt><trkpt lat="45.5615384" lon="10.8001073"><ele>186.0</ele><time>2026-04-06T08:32:23.004Z</time></trkpt><trkpt lat="45.5617044" lon="10.8001213"><ele>186.0</ele><time>2026-04-06T08:32:24.005Z</time></trkpt><trkpt lat="45.5618731" lon="10.8001309"><ele>186.0</ele><time>2026-04-06T08:32:25.005Z</time></trkpt><trkpt lat="45.5620324" lon="10.8001533"><ele>186.5</ele><time>2026-04-06T08:32:26.004Z</time></trkpt><trkpt lat="45.5621817" lon="10.8001818"><ele>187.0</ele><time>2026-04-06T08:32:27.004Z</time></trkpt><trkpt lat="45.5623253" lon="10.8002133"><ele>187.5</ele><time>2026-04-06T08:32:28.005Z</time></trkpt><trkpt lat="45.562469" lon="10.8002497"><ele>188.0</ele><time>2026-04-06T08:32:29.004Z</time></trkpt><trkpt lat="45.5626149" lon="10.8002917"><ele>188.0</ele><time>2026-04-06T08:32:30.004Z</time></trkpt><trkpt lat="45.5627639" lon="10.8003367"><ele>188.0</ele><time>2026-04-06T08:32:31.005Z</time></trkpt><trkpt lat="45.5629152" lon="10.800388"><ele>188.0</ele><time>2026-04-06T08:32:32.004Z</time></trkpt><trkpt lat="45.5630629" lon="10.8004465"><ele>188.75</ele><time>2026-04-06T08:32:33.006Z</time></trkpt><trkpt lat="45.5632025" lon="10.8005145"><ele>189.5</ele><time>2026-04-06T08:32:34.006Z</time></trkpt><trkpt lat="45.5633317" lon="10.8005898"><ele>190.25</ele><time>2026-04-06T08:32:35.004Z</time></trkpt><trkpt lat="45.5634594" lon="10.8006741"><ele>191.0</ele><time>2026-04-06T08:32:36.006Z</time></trkpt><trkpt lat="45.5635877" lon="10.8007697"><ele>191.0</ele><time>2026-04-06T08:32:37.006Z</time></trkpt><trkpt lat="45.5637146" lon="10.8008742"><ele>191.0</ele><time>2026-04-06T08:32:38.005Z</time></trkpt><trkpt lat="45.5638342" lon="10.8009739"><ele>191.0</ele><time>2026-04-06T08:32:39.004Z</time></trkpt><trkpt lat="45.5639566" lon="10.8010772"><ele>191.0</ele><time>2026-04-06T08:32:40.005Z</time></trkpt><trkpt lat="45.5640838" lon="10.8011829"><ele>190.33333333333331</ele><time>2026-04-06T08:32:41.004Z</time></trkpt><trkpt lat="45.5642148" lon="10.8012885"><ele>189.66666666666666</ele><time>2026-04-06T08:32:42.004Z</time></trkpt><trkpt lat="45.5643474" lon="10.8013932"><ele>189.0</ele><time>2026-04-06T08:32:43.006Z</time></trkpt><trkpt lat="45.5644826" lon="10.801495"><ele>189.66666666666666</ele><time>2026-04-06T08:32:44.005Z</time></trkpt><trkpt lat="45.5646225" lon="10.8015908"><ele>190.33333333333331</ele><time>2026-04-06T08:32:45.004Z</time></trkpt><trkpt lat="45.5647692" lon="10.8016751"><ele>191.0</ele><time>2026-04-06T08:32:46.004Z</time></trkpt><trkpt lat="45.5649229" lon="10.8017475"><ele>191.0</ele><time>2026-04-06T08:32:47.005Z</time></trkpt><trkpt lat="45.5650824" lon="10.8018081"><ele>191.0</ele><time>2026-04-06T08:32:48.005Z</time></trkpt><trkpt lat="45.5652453" lon="10.8018578"><ele>191.0</ele><time>2026-04-06T08:32:49.005Z</time></trkpt><trkpt lat="45.565403" lon="10.8018992"><ele>191.0</ele><time>2026-04-06T08:32:50.004Z</time></trkpt><trkpt lat="45.5655578" lon="10.8019357"><ele>191.0</ele><time>2026-04-06T08:32:51.004Z</time></trkpt><trkpt lat="45.5657107" lon="10.8019703"><ele>191.0</ele><time>2026-04-06T08:32:52.005Z</time></trkpt><trkpt lat="45.5658657" lon="10.8020069"><ele>191.0</ele><time>2026-04-06T08:32:53.005Z</time></trkpt><trkpt lat="45.5660253" lon="10.802045"><ele>191.0</ele><time>2026-04-06T08:32:54.005Z</time></trkpt><trkpt lat="45.5661854" lon="10.8020863"><ele>191.0</ele><time>2026-04-06T08:32:55.005Z</time></trkpt><trkpt lat="45.5663408" lon="10.8021281"><ele>190.66666666666666</ele><time>2026-04-06T08:32:56.004Z</time></trkpt><trkpt lat="45.5664999" lon="10.8021697"><ele>190.33333333333334</ele><time>2026-04-06T08:32:57.006Z</time></trkpt><trkpt lat="45.5666602" lon="10.8022056"><ele>190.0</ele><time>2026-04-06T08:32:58.006Z</time></trkpt><trkpt lat="45.5668127" lon="10.8022294"><ele>190.0</ele><time>2026-04-06T08:32:59.005Z</time></trkpt><trkpt lat="45.566958" lon="10.8022463"><ele>190.0</ele><time>2026-04-06T08:33:00.005Z</time></trkpt><trkpt lat="45.5670993" lon="10.8022596"><ele>190.0</ele><time>2026-04-06T08:33:01.005Z</time></trkpt><trkpt lat="45.5672451" lon="10.8022669"><ele>190.0</ele><time>2026-04-06T08:33:02.006Z</time></trkpt><trkpt lat="45.5673946" lon="10.8022658"><ele>190.25</ele><time>2026-04-06T08:33:03.005Z</time></trkpt><trkpt lat="45.5675422" lon="10.80226"><ele>190.5</ele><time>2026-04-06T08:33:04.006Z</time></trkpt><trkpt lat="45.567687" lon="10.8022501"><ele>190.75</ele><time>2026-04-06T08:33:05.004Z</time></trkpt><trkpt lat="45.5678259" lon="10.8022365"><ele>191.0</ele><time>2026-04-06T08:33:06.004Z</time></trkpt><trkpt lat="45.5679579" lon="10.8022205"><ele>191.0</ele><time>2026-04-06T08:33:07.004Z</time></trkpt><trkpt lat="45.568093" lon="10.8022027"><ele>191.0</ele><time>2026-04-06T08:33:08.004Z</time></trkpt><trkpt lat="45.5682328" lon="10.802187"><ele>191.0</ele><time>2026-04-06T08:33:09.004Z</time></trkpt><trkpt lat="45.5683775" lon="10.8021721"><ele>191.0</ele><time>2026-04-06T08:33:10.004Z</time></trkpt><trkpt lat="45.5685274" lon="10.8021508"><ele>191.0</ele><time>2026-04-06T08:33:11.004Z</time></trkpt><trkpt lat="45.5686822" lon="10.8021343"><ele>191.0</ele><time>2026-04-06T08:33:12.005Z</time></trkpt><trkpt lat="45.5688283" lon="10.8021354"><ele>191.0</ele><time>2026-04-06T08:33:13.004Z</time></trkpt><trkpt lat="45.5689776" lon="10.8021493"><ele>191.25</ele><time>2026-04-06T08:33:14.004Z</time></trkpt><trkpt lat="45.5691269" lon="10.8021776"><ele>191.5</ele><time>2026-04-06T08:33:15.006Z</time></trkpt><trkpt lat="45.569273" lon="10.8022171"><ele>191.75</ele><time>2026-04-06T08:33:16.005Z</time></trkpt><trkpt lat="45.5694168" lon="10.8022636"><ele>192.0</ele><time>2026-04-06T08:33:17.004Z</time></trkpt><trkpt lat="45.5695633" lon="10.8023159"><ele>192.0</ele><time>2026-04-06T08:33:18.005Z</time></trkpt><trkpt lat="45.5697118" lon="10.8023721"><ele>192.0</ele><time>2026-04-06T08:33:19.005Z</time></trkpt><trkpt lat="45.5698625" lon="10.802434"><ele>192.0</ele><time>2026-04-06T08:33:20.006Z</time></trkpt><trkpt lat="45.5700161" lon="10.8024977"><ele>192.0</ele><time>2026-04-06T08:33:21.006Z</time></trkpt><trkpt lat="45.5701699" lon="10.8025578"><ele>192.0</ele><time>2026-04-06T08:33:22.005Z</time></trkpt><trkpt lat="45.5703228" lon="10.8026155"><ele>192.0</ele><time>2026-04-06T08:33:23.005Z</time></trkpt><trkpt lat="45.5704758" lon="10.8026715"><ele>192.0</ele><time>2026-04-06T08:33:24.005Z</time></trkpt><trkpt lat="45.5706251" lon="10.8027252"><ele>192.0</ele><time>2026-04-06T08:33:25.005Z</time></trkpt><trkpt lat="45.5707778" lon="10.802783"><ele>192.0</ele><time>2026-04-06T08:33:26.005Z</time></trkpt><trkpt lat="45.5709219" lon="10.8028425"><ele>192.0</ele><time>2026-04-06T08:33:27.005Z</time></trkpt><trkpt lat="45.5710605" lon="10.8029032"><ele>192.0</ele><time>2026-04-06T08:33:28.005Z</time></trkpt><trkpt lat="45.5712025" lon="10.8029651"><ele>192.0</ele><time>2026-04-06T08:33:29.004Z</time></trkpt><trkpt lat="45.5713368" lon="10.8030263"><ele>192.0</ele><time>2026-04-06T08:33:30.004Z</time></trkpt><trkpt lat="45.5714761" lon="10.8030897"><ele>192.5</ele><time>2026-04-06T08:33:31.006Z</time></trkpt><trkpt lat="45.5716154" lon="10.8031511"><ele>193.0</ele><time>2026-04-06T08:33:32.004Z</time></trkpt><trkpt lat="45.5717496" lon="10.8032109"><ele>193.5</ele><time>2026-04-06T08:33:33.005Z</time></trkpt><trkpt lat="45.5718886" lon="10.8032735"><ele>194.0</ele><time>2026-04-06T08:33:34.006Z</time></trkpt><trkpt lat="45.5720312" lon="10.8033395"><ele>194.66666666666669</ele><time>2026-04-06T08:33:35.004Z</time></trkpt><trkpt lat="45.572178" lon="10.8034088"><ele>195.33333333333331</ele><time>2026-04-06T08:33:36.005Z</time></trkpt><trkpt lat="45.5723247" lon="10.8034744"><ele>196.0</ele><time>2026-04-06T08:33:37.005Z</time></trkpt><trkpt lat="45.5724634" lon="10.8035374"><ele>195.25</ele><time>2026-04-06T08:33:38.006Z</time></trkpt><trkpt lat="45.572598" lon="10.8035978"><ele>194.5</ele><time>2026-04-06T08:33:39.005Z</time></trkpt><trkpt lat="45.5727311" lon="10.8036575"><ele>193.75</ele><time>2026-04-06T08:33:40.004Z</time></trkpt><trkpt lat="45.5728614" lon="10.8037171"><ele>193.0</ele><time>2026-04-06T08:33:41.005Z</time></trkpt><trkpt lat="45.5729838" lon="10.803773"><ele>193.0</ele><time>2026-04-06T08:33:42.005Z</time></trkpt><trkpt lat="45.5730988" lon="10.803823"><ele>193.0</ele><time>2026-04-06T08:33:43.004Z</time></trkpt><trkpt lat="45.5732045" lon="10.8038742"><ele>193.0</ele><time>2026-04-06T08:33:44.005Z</time></trkpt><trkpt lat="45.5733045" lon="10.8039225"><ele>193.0</ele><time>2026-04-06T08:33:45.005Z</time></trkpt><trkpt lat="45.573398" lon="10.8039659"><ele>193.0</ele><time>2026-04-06T08:33:46.005Z</time></trkpt><trkpt lat="45.5734852" lon="10.8040012"><ele>192.99999999999997</ele><time>2026-04-06T08:33:47.005Z</time></trkpt><trkpt lat="45.5735654" lon="10.8040324"><ele>193.0</ele><time>2026-04-06T08:33:48.004Z</time></trkpt><trkpt lat="45.5736311" lon="10.8040513"><ele>193.0</ele><time>2026-04-06T08:33:49.005Z</time></trkpt><trkpt lat="45.5737371" lon="10.8040676"><ele>193.0</ele><time>2026-04-06T08:33:51.004Z</time></trkpt><trkpt lat="45.5738404" lon="10.8040781"><ele>192.99999999999997</ele><time>2026-04-06T08:33:53.004Z</time></trkpt><trkpt lat="45.5739242" lon="10.8040978"><ele>193.0</ele><time>2026-04-06T08:33:55.005Z</time></trkpt><trkpt lat="45.573994" lon="10.8041384"><ele>193.16666666666666</ele><time>2026-04-06T08:33:57.005Z</time></trkpt><trkpt lat="45.5740799" lon="10.8041855"><ele>193.33333333333331</ele><time>2026-04-06T08:33:59.006Z</time></trkpt><trkpt lat="45.5741444" lon="10.8041938"><ele>193.5</ele><time>2026-04-06T08:34:00.004Z</time></trkpt><trkpt lat="45.5742231" lon="10.8041883"><ele>193.66666666666669</ele><time>2026-04-06T08:34:01.006Z</time></trkpt><trkpt lat="45.574318" lon="10.8041717"><ele>193.83333333333334</ele><time>2026-04-06T08:34:02.005Z</time></trkpt><trkpt lat="45.5744281" lon="10.8041484"><ele>194.0</ele><time>2026-04-06T08:34:03.005Z</time></trkpt><trkpt lat="45.5745478" lon="10.8041274"><ele>193.25</ele><time>2026-04-06T08:34:04.005Z</time></trkpt><trkpt lat="45.5746612" lon="10.8040998"><ele>192.5</ele><time>2026-04-06T08:34:05.005Z</time></trkpt><trkpt lat="45.5747752" lon="10.8040611"><ele>191.75</ele><time>2026-04-06T08:34:06.005Z</time></trkpt><trkpt lat="45.5748967" lon="10.804016"><ele>191.0</ele><time>2026-04-06T08:34:07.004Z</time></trkpt><trkpt lat="45.575026" lon="10.8039693"><ele>191.0</ele><time>2026-04-06T08:34:08.004Z</time></trkpt><trkpt lat="45.5751563" lon="10.8039329"><ele>191.0</ele><time>2026-04-06T08:34:09.004Z</time></trkpt><trkpt lat="45.5752812" lon="10.8039225"><ele>191.0</ele><time>2026-04-06T08:34:10.004Z</time></trkpt><trkpt lat="45.5754183" lon="10.8039332"><ele>191.0</ele><time>2026-04-06T08:34:11.004Z</time></trkpt><trkpt lat="45.5755655" lon="10.8039658"><ele>190.0</ele><time>2026-04-06T08:34:12.005Z</time></trkpt><trkpt lat="45.5757111" lon="10.8040216"><ele>189.0</ele><time>2026-04-06T08:34:13.004Z</time></trkpt><trkpt lat="45.5758632" lon="10.8041055"><ele>188.0</ele><time>2026-04-06T08:34:14.005Z</time></trkpt><trkpt lat="45.5760193" lon="10.8042183"><ele>188.0</ele><time>2026-04-06T08:34:15.005Z</time></trkpt><trkpt lat="45.5761702" lon="10.8043512"><ele>188.0</ele><time>2026-04-06T08:34:16.005Z</time></trkpt><trkpt lat="45.576319" lon="10.8045005"><ele>188.0</ele><time>2026-04-06T08:34:17.004Z</time></trkpt><trkpt lat="45.5764682" lon="10.8046538"><ele>188.0</ele><time>2026-04-06T08:34:18.006Z</time></trkpt><trkpt lat="45.5766052" lon="10.8047988"><ele>188.0</ele><time>2026-04-06T08:34:19.005Z</time></trkpt><trkpt lat="45.5767393" lon="10.8049424"><ele>188.0</ele><time>2026-04-06T08:34:20.005Z</time></trkpt><trkpt lat="45.5768785" lon="10.8050899"><ele>187.0</ele><time>2026-04-06T08:34:21.004Z</time></trkpt><trkpt lat="45.5770149" lon="10.8052355"><ele>186.0</ele><time>2026-04-06T08:34:22.005Z</time></trkpt><trkpt lat="45.5771515" lon="10.8053796"><ele>185.0</ele><time>2026-04-06T08:34:23.004Z</time></trkpt><trkpt lat="45.5772903" lon="10.8055236"><ele>185.0</ele><time>2026-04-06T08:34:24.004Z</time></trkpt><trkpt lat="45.5774223" lon="10.8056733"><ele>185.0</ele><time>2026-04-06T08:34:25.004Z</time></trkpt><trkpt lat="45.5775545" lon="10.8058207"><ele>185.0</ele><time>2026-04-06T08:34:26.004Z</time></trkpt><trkpt lat="45.5776907" lon="10.8059608"><ele>184.66666666666666</ele><time>2026-04-06T08:34:27.005Z</time></trkpt><trkpt lat="45.5778231" lon="10.8060985"><ele>184.33333333333334</ele><time>2026-04-06T08:34:28.004Z</time></trkpt><trkpt lat="45.5779555" lon="10.8062405"><ele>184.0</ele><time>2026-04-06T08:34:29.004Z</time></trkpt><trkpt lat="45.5780907" lon="10.8063832"><ele>183.66666666666669</ele><time>2026-04-06T08:34:30.005Z</time></trkpt><trkpt lat="45.5782296" lon="10.8065246"><ele>183.33333333333334</ele><time>2026-04-06T08:34:31.006Z</time></trkpt><trkpt lat="45.5783684" lon="10.8066618"><ele>183.0</ele><time>2026-04-06T08:34:32.005Z</time></trkpt><trkpt lat="45.5785066" lon="10.8067981"><ele>183.33333333333334</ele><time>2026-04-06T08:34:33.004Z</time></trkpt><trkpt lat="45.578647" lon="10.8069261"><ele>183.66666666666669</ele><time>2026-04-06T08:34:34.005Z</time></trkpt><trkpt lat="45.5787775" lon="10.8070333"><ele>184.0</ele><time>2026-04-06T08:34:35.005Z</time></trkpt><trkpt lat="45.5789055" lon="10.8071252"><ele>184.0</ele><time>2026-04-06T08:34:36.005Z</time></trkpt><trkpt lat="45.5790278" lon="10.8072033"><ele>184.0</ele><time>2026-04-06T08:34:37.004Z</time></trkpt><trkpt lat="45.5791425" lon="10.8072742"><ele>184.0</ele><time>2026-04-06T08:34:38.004Z</time></trkpt><trkpt lat="45.5792498" lon="10.8073387"><ele>184.0</ele><time>2026-04-06T08:34:39.004Z</time></trkpt><trkpt lat="45.5793313" lon="10.8073856"><ele>184.0</ele><time>2026-04-06T08:34:40.004Z</time></trkpt><trkpt lat="45.5794129" lon="10.8074283"><ele>184.0</ele><time>2026-04-06T08:34:42.005Z</time></trkpt><trkpt lat="45.5794799" lon="10.8074494"><ele>184.0</ele><time>2026-04-06T08:34:45.004Z</time></trkpt><trkpt lat="45.5795727" lon="10.8074761"><ele>184.0</ele><time>2026-04-06T08:34:47.006Z</time></trkpt><trkpt lat="45.5796449" lon="10.807516"><ele>184.0</ele><time>2026-04-06T08:34:48.005Z</time></trkpt><trkpt lat="45.5797254" lon="10.8075627"><ele>184.0</ele><time>2026-04-06T08:34:49.004Z</time></trkpt><trkpt lat="45.5798115" lon="10.8076101"><ele>184.0</ele><time>2026-04-06T08:34:50.005Z</time></trkpt><trkpt lat="45.5799083" lon="10.8076582"><ele>184.0</ele><time>2026-04-06T08:34:51.004Z</time></trkpt><trkpt lat="45.5800128" lon="10.8077061"><ele>184.0</ele><time>2026-04-06T08:34:52.005Z</time></trkpt><trkpt lat="45.580133" lon="10.8077555"><ele>184.0</ele><time>2026-04-06T08:34:53.005Z</time></trkpt><trkpt lat="45.5802567" lon="10.8077999"><ele>184.5</ele><time>2026-04-06T08:34:54.005Z</time></trkpt><trkpt lat="45.5803943" lon="10.8078458"><ele>185.0</ele><time>2026-04-06T08:34:55.004Z</time></trkpt><trkpt lat="45.5805301" lon="10.8078877"><ele>185.5</ele><time>2026-04-06T08:34:56.005Z</time></trkpt><trkpt lat="45.5806542" lon="10.8079239"><ele>186.0</ele><time>2026-04-06T08:34:57.004Z</time></trkpt><trkpt lat="45.5807705" lon="10.8079578"><ele>186.0</ele><time>2026-04-06T08:34:58.005Z</time></trkpt><trkpt lat="45.5808778" lon="10.8079891"><ele>186.0</ele><time>2026-04-06T08:34:59.004Z</time></trkpt><trkpt lat="45.5809803" lon="10.8080186"><ele>186.0</ele><time>2026-04-06T08:35:00.005Z</time></trkpt><trkpt lat="45.5810875" lon="10.8080491"><ele>186.0</ele><time>2026-04-06T08:35:01.005Z</time></trkpt><trkpt lat="45.5812005" lon="10.8080794"><ele>186.0</ele><time>2026-04-06T08:35:02.006Z</time></trkpt><trkpt lat="45.5813073" lon="10.8081072"><ele>185.8</ele><time>2026-04-06T08:35:03.004Z</time></trkpt><trkpt lat="45.5814067" lon="10.8081349"><ele>185.60000000000002</ele><time>2026-04-06T08:35:04.005Z</time></trkpt><trkpt lat="45.5815106" lon="10.8081641"><ele>185.4</ele><time>2026-04-06T08:35:05.004Z</time></trkpt><trkpt lat="45.5816205" lon="10.8081942"><ele>185.2</ele><time>2026-04-06T08:35:06.005Z</time></trkpt><trkpt lat="45.5817283" lon="10.8082217"><ele>185.0</ele><time>2026-04-06T08:35:07.006Z</time></trkpt><trkpt lat="45.5818263" lon="10.808248"><ele>185.0</ele><time>2026-04-06T08:35:08.006Z</time></trkpt><trkpt lat="45.5819218" lon="10.8082746"><ele>185.0</ele><time>2026-04-06T08:35:09.005Z</time></trkpt><trkpt lat="45.5820251" lon="10.8083028"><ele>185.0</ele><time>2026-04-06T08:35:10.005Z</time></trkpt><trkpt lat="45.5821347" lon="10.8083337"><ele>185.0</ele><time>2026-04-06T08:35:11.005Z</time></trkpt><trkpt lat="45.5822435" lon="10.8083657"><ele>185.0</ele><time>2026-04-06T08:35:12.005Z</time></trkpt><trkpt lat="45.5823413" lon="10.8083949"><ele>185.2</ele><time>2026-04-06T08:35:13.004Z</time></trkpt><trkpt lat="45.5824364" lon="10.8084269"><ele>185.4</ele><time>2026-04-06T08:35:14.004Z</time></trkpt><trkpt lat="45.5825298" lon="10.8084669"><ele>185.60000000000002</ele><time>2026-04-06T08:35:15.005Z</time></trkpt><trkpt lat="45.5826183" lon="10.8085098"><ele>185.8</ele><time>2026-04-06T08:35:16.006Z</time></trkpt><trkpt lat="45.5827083" lon="10.8085586"><ele>186.0</ele><time>2026-04-06T08:35:17.005Z</time></trkpt><trkpt lat="45.5828015" lon="10.8086167"><ele>185.8</ele><time>2026-04-06T08:35:18.004Z</time></trkpt><trkpt lat="45.5829012" lon="10.8086857"><ele>185.60000000000002</ele><time>2026-04-06T08:35:19.005Z</time></trkpt><trkpt lat="45.5829933" lon="10.80875"><ele>185.4</ele><time>2026-04-06T08:35:20.004Z</time></trkpt><trkpt lat="45.5830719" lon="10.8088082"><ele>185.2</ele><time>2026-04-06T08:35:21.006Z</time></trkpt><trkpt lat="45.5831469" lon="10.8088696"><ele>185.0</ele><time>2026-04-06T08:35:22.005Z</time></trkpt><trkpt lat="45.5832054" lon="10.808919"><ele>185.0</ele><time>2026-04-06T08:35:23.006Z</time></trkpt><trkpt lat="45.5833003" lon="10.8089884"><ele>185.0</ele><time>2026-04-06T08:35:25.004Z</time></trkpt><trkpt lat="45.5833992" lon="10.8090546"><ele>185.0</ele><time>2026-04-06T08:35:27.004Z</time></trkpt><trkpt lat="45.5834755" lon="10.809101"><ele>185.0</ele><time>2026-04-06T08:35:28.004Z</time></trkpt><trkpt lat="45.5835623" lon="10.809158"><ele>185.0</ele><time>2026-04-06T08:35:29.004Z</time></trkpt><trkpt lat="45.583641" lon="10.8092128"><ele>185.0</ele><time>2026-04-06T08:35:30.004Z</time></trkpt><trkpt lat="45.5837207" lon="10.8092699"><ele>185.0</ele><time>2026-04-06T08:35:31.005Z</time></trkpt><trkpt lat="45.5837979" lon="10.8093276"><ele>185.0</ele><time>2026-04-06T08:35:32.004Z</time></trkpt><trkpt lat="45.5838668" lon="10.809378"><ele>185.0</ele><time>2026-04-06T08:35:33.004Z</time></trkpt><trkpt lat="45.5839248" lon="10.8094191"><ele>185.0</ele><time>2026-04-06T08:35:34.005Z</time></trkpt><trkpt lat="45.5840119" lon="10.8094778"><ele>185.0</ele><time>2026-04-06T08:35:36.005Z</time></trkpt><trkpt lat="45.5840686" lon="10.8095251"><ele>185.0</ele><time>2026-04-06T08:35:40.005Z</time></trkpt><trkpt lat="45.5841258" lon="10.8095744"><ele>185.0</ele><time>2026-04-06T08:36:25.004Z</time></trkpt><trkpt lat="45.5842263" lon="10.8096488"><ele>185.0</ele><time>2026-04-06T08:36:27.005Z</time></trkpt><trkpt lat="45.5842892" lon="10.8096961"><ele>185.0</ele><time>2026-04-06T08:36:28.005Z</time></trkpt><trkpt lat="45.5843561" lon="10.8097455"><ele>185.0</ele><time>2026-04-06T08:36:29.004Z</time></trkpt><trkpt lat="45.5844213" lon="10.8098022"><ele>185.0</ele><time>2026-04-06T08:36:30.005Z</time></trkpt><trkpt lat="45.584484" lon="10.8098704"><ele>185.6</ele><time>2026-04-06T08:36:31.004Z</time></trkpt><trkpt lat="45.5845437" lon="10.8099604"><ele>186.2</ele><time>2026-04-06T08:36:32.005Z</time></trkpt><trkpt lat="45.5845994" lon="10.810066"><ele>186.8</ele><time>2026-04-06T08:36:33.005Z</time></trkpt><trkpt lat="45.5846512" lon="10.8101693"><ele>187.4</ele><time>2026-04-06T08:36:33.991Z</time></trkpt><trkpt lat="45.5847079" lon="10.8102769"><ele>188.0</ele><time>2026-04-06T08:36:34.991Z</time></trkpt><trkpt lat="45.584774" lon="10.8103849"><ele>188.25</ele><time>2026-04-06T08:36:35.99Z</time></trkpt><trkpt lat="45.5848446" lon="10.8105004"><ele>188.5</ele><time>2026-04-06T08:36:36.994Z</time></trkpt><trkpt lat="45.5849225" lon="10.8106213"><ele>188.75</ele><time>2026-04-06T08:36:37.986Z</time></trkpt><trkpt lat="45.5850032" lon="10.81075"><ele>189.0</ele><time>2026-04-06T08:36:38.995Z</time></trkpt><trkpt lat="45.5850859" lon="10.8108839"><ele>188.75</ele><time>2026-04-06T08:36:39.994Z</time></trkpt><trkpt lat="45.5851712" lon="10.8110163"><ele>188.5</ele><time>2026-04-06T08:36:40.995Z</time></trkpt><trkpt lat="45.5852632" lon="10.8111395"><ele>188.25</ele><time>2026-04-06T08:36:41.994Z</time></trkpt><trkpt lat="45.5853632" lon="10.811251"><ele>188.0</ele><time>2026-04-06T08:36:42.994Z</time></trkpt><trkpt lat="45.5854672" lon="10.8113556"><ele>188.75</ele><time>2026-04-06T08:36:43.994Z</time></trkpt><trkpt lat="45.5855755" lon="10.8114625"><ele>189.5</ele><time>2026-04-06T08:36:44.995Z</time></trkpt><trkpt lat="45.5856879" lon="10.8115715"><ele>190.25</ele><time>2026-04-06T08:36:45.994Z</time></trkpt><trkpt lat="45.5858058" lon="10.8116844"><ele>191.0</ele><time>2026-04-06T08:36:46.995Z</time></trkpt><trkpt lat="45.5859286" lon="10.8118003"><ele>190.75</ele><time>2026-04-06T08:36:47.995Z</time></trkpt><trkpt lat="45.58605" lon="10.8119067"><ele>190.5</ele><time>2026-04-06T08:36:48.994Z</time></trkpt><trkpt lat="45.5861742" lon="10.8120012"><ele>190.25</ele><time>2026-04-06T08:36:49.994Z</time></trkpt><trkpt lat="45.5863101" lon="10.8120821"><ele>190.0</ele><time>2026-04-06T08:36:50.994Z</time></trkpt><trkpt lat="45.5864538" lon="10.8121491"><ele>192.25</ele><time>2026-04-06T08:36:51.995Z</time></trkpt><trkpt lat="45.5865982" lon="10.8122064"><ele>194.5</ele><time>2026-04-06T08:36:52.995Z</time></trkpt><trkpt lat="45.5867379" lon="10.8122612"><ele>196.75</ele><time>2026-04-06T08:36:53.994Z</time></trkpt><trkpt lat="45.5868794" lon="10.812316"><ele>199.0</ele><time>2026-04-06T08:36:54.994Z</time></trkpt><trkpt lat="45.5870232" lon="10.8123693"><ele>200.66666666666666</ele><time>2026-04-06T08:36:55.994Z</time></trkpt><trkpt lat="45.5871739" lon="10.8124219"><ele>202.33333333333331</ele><time>2026-04-06T08:36:56.994Z</time></trkpt><trkpt lat="45.5873219" lon="10.8124737"><ele>204.0</ele><time>2026-04-06T08:36:57.994Z</time></trkpt><trkpt lat="45.5874666" lon="10.8125294"><ele>204.0</ele><time>2026-04-06T08:36:58.994Z</time></trkpt><trkpt lat="45.5876087" lon="10.812586"><ele>204.0</ele><time>2026-04-06T08:36:59.995Z</time></trkpt><trkpt lat="45.5877521" lon="10.8126457"><ele>204.0</ele><time>2026-04-06T08:37:00.995Z</time></trkpt><trkpt lat="45.5878984" lon="10.8127109"><ele>205.66666666666669</ele><time>2026-04-06T08:37:01.994Z</time></trkpt><trkpt lat="45.5880496" lon="10.8127844"><ele>207.33333333333334</ele><time>2026-04-06T08:37:02.995Z</time></trkpt><trkpt lat="45.5881985" lon="10.8128609"><ele>209.0</ele><time>2026-04-06T08:37:03.995Z</time></trkpt><trkpt lat="45.5883366" lon="10.8129356"><ele>209.0</ele><time>2026-04-06T08:37:04.995Z</time></trkpt><trkpt lat="45.5884737" lon="10.8130108"><ele>209.0</ele><time>2026-04-06T08:37:05.994Z</time></trkpt><trkpt lat="45.5886134" lon="10.8130845"><ele>209.0</ele><time>2026-04-06T08:37:06.994Z</time></trkpt><trkpt lat="45.58876" lon="10.8131581"><ele>209.66666666666669</ele><time>2026-04-06T08:37:07.995Z</time></trkpt><trkpt lat="45.5889104" lon="10.8132337"><ele>210.33333333333331</ele><time>2026-04-06T08:37:08.995Z</time></trkpt><trkpt lat="45.5890627" lon="10.8133126"><ele>211.0</ele><time>2026-04-06T08:37:09.995Z</time></trkpt><trkpt lat="45.5892075" lon="10.8133887"><ele>211.0</ele><time>2026-04-06T08:37:10.994Z</time></trkpt><trkpt lat="45.5893484" lon="10.8134651"><ele>211.0</ele><time>2026-04-06T08:37:11.994Z</time></trkpt><trkpt lat="45.5894888" lon="10.8135396"><ele>211.0</ele><time>2026-04-06T08:37:12.994Z</time></trkpt><trkpt lat="45.5896331" lon="10.8136144"><ele>211.0</ele><time>2026-04-06T08:37:13.995Z</time></trkpt><trkpt lat="45.589779" lon="10.8136873"><ele>211.0</ele><time>2026-04-06T08:37:14.994Z</time></trkpt><trkpt lat="45.5899284" lon="10.8137606"><ele>211.0</ele><time>2026-04-06T08:37:15.994Z</time></trkpt><trkpt lat="45.5900789" lon="10.8138272"><ele>211.0</ele><time>2026-04-06T08:37:16.995Z</time></trkpt><trkpt lat="45.5902345" lon="10.813881"><ele>211.0</ele><time>2026-04-06T08:37:17.995Z</time></trkpt><trkpt lat="45.5903848" lon="10.8139191"><ele>211.0</ele><time>2026-04-06T08:37:18.995Z</time></trkpt><trkpt lat="45.5905281" lon="10.8139481"><ele>213.0</ele><time>2026-04-06T08:37:19.994Z</time></trkpt><trkpt lat="45.5906742" lon="10.8139736"><ele>215.0</ele><time>2026-04-06T08:37:20.994Z</time></trkpt><trkpt lat="45.5908236" lon="10.8139969"><ele>217.0</ele><time>2026-04-06T08:37:21.995Z</time></trkpt><trkpt lat="45.5909766" lon="10.8140178"><ele>217.0</ele><time>2026-04-06T08:37:22.994Z</time></trkpt><trkpt lat="45.5911211" lon="10.8140364"><ele>217.0</ele><time>2026-04-06T08:37:23.994Z</time></trkpt><trkpt lat="45.5912617" lon="10.8140474"><ele>217.0</ele><time>2026-04-06T08:37:24.994Z</time></trkpt><trkpt lat="45.5914019" lon="10.8140349"><ele>217.0</ele><time>2026-04-06T08:37:25.994Z</time></trkpt><trkpt lat="45.5915493" lon="10.8139861"><ele>218.0</ele><time>2026-04-06T08:37:26.995Z</time></trkpt><trkpt lat="45.5916924" lon="10.8139095"><ele>219.0</ele><time>2026-04-06T08:37:27.995Z</time></trkpt><trkpt lat="45.5918238" lon="10.81382"><ele>220.0</ele><time>2026-04-06T08:37:28.995Z</time></trkpt><trkpt lat="45.591952" lon="10.8137252"><ele>221.0</ele><time>2026-04-06T08:37:29.994Z</time></trkpt><trkpt lat="45.5920744" lon="10.8136359"><ele>222.25</ele><time>2026-04-06T08:37:30.995Z</time></trkpt><trkpt lat="45.5921889" lon="10.8135535"><ele>223.5</ele><time>2026-04-06T08:37:31.995Z</time></trkpt><trkpt lat="45.5922935" lon="10.8134791"><ele>224.75</ele><time>2026-04-06T08:37:32.995Z</time></trkpt><trkpt lat="45.5923937" lon="10.8134083"><ele>226.0</ele><time>2026-04-06T08:37:33.994Z</time></trkpt><trkpt lat="45.592496" lon="10.8133329"><ele>226.0</ele><time>2026-04-06T08:37:34.994Z</time></trkpt><trkpt lat="45.5926018" lon="10.8132538"><ele>226.0</ele><time>2026-04-06T08:37:35.995Z</time></trkpt><trkpt lat="45.5927073" lon="10.8131821"><ele>226.0</ele><time>2026-04-06T08:37:36.994Z</time></trkpt><trkpt lat="45.5928185" lon="10.813125"><ele>226.0</ele><time>2026-04-06T08:37:37.994Z</time></trkpt><trkpt lat="45.5929457" lon="10.8130924"><ele>229.33333333333331</ele><time>2026-04-06T08:37:38.994Z</time></trkpt><trkpt lat="45.5930949" lon="10.8130852"><ele>232.66666666666669</ele><time>2026-04-06T08:37:39.995Z</time></trkpt><trkpt lat="45.5932478" lon="10.8131017"><ele>236.0</ele><time>2026-04-06T08:37:40.994Z</time></trkpt><trkpt lat="45.5933976" lon="10.8131312"><ele>236.0</ele><time>2026-04-06T08:37:41.995Z</time></trkpt><trkpt lat="45.5935458" lon="10.8131682"><ele>236.0</ele><time>2026-04-06T08:37:42.994Z</time></trkpt><trkpt lat="45.5936928" lon="10.813206"><ele>236.0</ele><time>2026-04-06T08:37:43.994Z</time></trkpt><trkpt lat="45.5938367" lon="10.8132415"><ele>236.0</ele><time>2026-04-06T08:37:44.994Z</time></trkpt><trkpt lat="45.5939791" lon="10.8132754"><ele>237.75</ele><time>2026-04-06T08:37:45.994Z</time></trkpt><trkpt lat="45.5941184" lon="10.8133094"><ele>239.5</ele><time>2026-04-06T08:37:46.994Z</time></trkpt><trkpt lat="45.5942568" lon="10.813346"><ele>241.25</ele><time>2026-04-06T08:37:47.994Z</time></trkpt><trkpt lat="45.5943905" lon="10.8133808"><ele>243.0</ele><time>2026-04-06T08:37:48.994Z</time></trkpt><trkpt lat="45.5945092" lon="10.8134113"><ele>245.2</ele><time>2026-04-06T08:37:49.994Z</time></trkpt><trkpt lat="45.5946102" lon="10.8134423"><ele>247.4</ele><time>2026-04-06T08:37:50.995Z</time></trkpt><trkpt lat="45.594702" lon="10.813483"><ele>249.59999999999997</ele><time>2026-04-06T08:37:51.995Z</time></trkpt><trkpt lat="45.5947917" lon="10.8135394"><ele>251.79999999999998</ele><time>2026-04-06T08:37:52.995Z</time></trkpt><trkpt lat="45.5948832" lon="10.8136181"><ele>254.0</ele><time>2026-04-06T08:37:53.994Z</time></trkpt><trkpt lat="45.5949722" lon="10.8137208"><ele>254.0</ele><time>2026-04-06T08:37:54.994Z</time></trkpt><trkpt lat="45.5950614" lon="10.8138519"><ele>254.0</ele><time>2026-04-06T08:37:55.995Z</time></trkpt><trkpt lat="45.5951619" lon="10.8140104"><ele>254.0</ele><time>2026-04-06T08:37:56.994Z</time></trkpt><trkpt lat="45.5952706" lon="10.8141801"><ele>254.0</ele><time>2026-04-06T08:37:57.994Z</time></trkpt><trkpt lat="45.5953718" lon="10.8143426"><ele>257.5</ele><time>2026-04-06T08:37:58.994Z</time></trkpt><trkpt lat="45.59547" lon="10.8145046"><ele>261.0</ele><time>2026-04-06T08:37:59.994Z</time></trkpt><trkpt lat="45.595566" lon="10.8146652"><ele>264.5</ele><time>2026-04-06T08:38:00.995Z</time></trkpt><trkpt lat="45.5956555" lon="10.814812"><ele>268.0</ele><time>2026-04-06T08:38:01.995Z</time></trkpt><trkpt lat="45.5957373" lon="10.8149369"><ele>268.0</ele><time>2026-04-06T08:38:02.994Z</time></trkpt><trkpt lat="45.5958184" lon="10.8150432"><ele>268.0</ele><time>2026-04-06T08:38:03.995Z</time></trkpt><trkpt lat="45.5959083" lon="10.8151226"><ele>268.0</ele><time>2026-04-06T08:38:04.994Z</time></trkpt><trkpt lat="45.5960062" lon="10.815173"><ele>268.0</ele><time>2026-04-06T08:38:05.995Z</time></trkpt><trkpt lat="45.5961108" lon="10.815185"><ele>268.0</ele><time>2026-04-06T08:38:06.995Z</time></trkpt><trkpt lat="45.5962244" lon="10.8151686"><ele>269.5</ele><time>2026-04-06T08:38:07.995Z</time></trkpt><trkpt lat="45.5963497" lon="10.8151377"><ele>271.0</ele><time>2026-04-06T08:38:08.995Z</time></trkpt><trkpt lat="45.5964884" lon="10.8151048"><ele>272.5</ele><time>2026-04-06T08:38:09.995Z</time></trkpt><trkpt lat="45.5966456" lon="10.8150637"><ele>274.0</ele><time>2026-04-06T08:38:10.994Z</time></trkpt><trkpt lat="45.5968331" lon="10.8150144"><ele>273.66666666666663</ele><time>2026-04-06T08:38:11.994Z</time></trkpt><trkpt lat="45.5970355" lon="10.8149707"><ele>273.3333333333333</ele><time>2026-04-06T08:38:12.994Z</time></trkpt><trkpt lat="45.5972319" lon="10.8149343"><ele>273.0</ele><time>2026-04-06T08:38:13.994Z</time></trkpt><trkpt lat="45.5974069" lon="10.8149009"><ele>273.0</ele><time>2026-04-06T08:38:14.995Z</time></trkpt><trkpt lat="45.597558" lon="10.8148656"><ele>273.0</ele><time>2026-04-06T08:38:15.994Z</time></trkpt><trkpt lat="45.5976868" lon="10.8148188"><ele>273.0</ele><time>2026-04-06T08:38:16.994Z</time></trkpt><trkpt lat="45.5978028" lon="10.8147534"><ele>273.0</ele><time>2026-04-06T08:38:17.995Z</time></trkpt><trkpt lat="45.5979166" lon="10.814667"><ele>272.0</ele><time>2026-04-06T08:38:18.994Z</time></trkpt><trkpt lat="45.5980224" lon="10.8145646"><ele>271.0</ele><time>2026-04-06T08:38:19.995Z</time></trkpt><trkpt lat="45.5981325" lon="10.8144412"><ele>270.0</ele><time>2026-04-06T08:38:20.995Z</time></trkpt><trkpt lat="45.5982545" lon="10.8143104"><ele>269.0</ele><time>2026-04-06T08:38:21.995Z</time></trkpt><trkpt lat="45.5983923" lon="10.814178"><ele>268.5</ele><time>2026-04-06T08:38:22.994Z</time></trkpt><trkpt lat="45.5985312" lon="10.8140534"><ele>268.0</ele><time>2026-04-06T08:38:23.994Z</time></trkpt><trkpt lat="45.5986572" lon="10.8139453"><ele>267.5</ele><time>2026-04-06T08:38:24.994Z</time></trkpt><trkpt lat="45.5987726" lon="10.8138568"><ele>267.0</ele><time>2026-04-06T08:38:25.994Z</time></trkpt><trkpt lat="45.5988889" lon="10.8137933"><ele>267.0</ele><time>2026-04-06T08:38:26.994Z</time></trkpt><trkpt lat="45.5990141" lon="10.813762"><ele>267.0</ele><time>2026-04-06T08:38:27.994Z</time></trkpt><trkpt lat="45.5991535" lon="10.8137684"><ele>267.0</ele><time>2026-04-06T08:38:28.995Z</time></trkpt><trkpt lat="45.5993088" lon="10.8138115"><ele>267.0</ele><time>2026-04-06T08:38:29.995Z</time></trkpt><trkpt lat="45.5994756" lon="10.8138763"><ele>267.0</ele><time>2026-04-06T08:38:30.994Z</time></trkpt><trkpt lat="45.5996488" lon="10.8139494"><ele>267.0</ele><time>2026-04-06T08:38:31.994Z</time></trkpt><trkpt lat="45.599832" lon="10.8140268"><ele>267.0</ele><time>2026-04-06T08:38:32.995Z</time></trkpt><trkpt lat="45.6000226" lon="10.8141053"><ele>267.0</ele><time>2026-04-06T08:38:33.994Z</time></trkpt><trkpt lat="45.6002148" lon="10.8141846"><ele>267.0</ele><time>2026-04-06T08:38:34.994Z</time></trkpt><trkpt lat="45.6004045" lon="10.8142642"><ele>267.0</ele><time>2026-04-06T08:38:35.994Z</time></trkpt><trkpt lat="45.6005895" lon="10.8143418"><ele>267.3333333333333</ele><time>2026-04-06T08:38:36.995Z</time></trkpt><trkpt lat="45.6007685" lon="10.8144164"><ele>267.66666666666663</ele><time>2026-04-06T08:38:37.995Z</time></trkpt><trkpt lat="45.6009473" lon="10.8144912"><ele>268.0</ele><time>2026-04-06T08:38:38.995Z</time></trkpt><trkpt lat="45.6011215" lon="10.8145641"><ele>267.66666666666663</ele><time>2026-04-06T08:38:39.994Z</time></trkpt><trkpt lat="45.6012919" lon="10.8146356"><ele>267.3333333333333</ele><time>2026-04-06T08:38:40.995Z</time></trkpt><trkpt lat="45.6014596" lon="10.8147057"><ele>267.0</ele><time>2026-04-06T08:38:41.994Z</time></trkpt><trkpt lat="45.6016295" lon="10.8147767"><ele>267.0</ele><time>2026-04-06T08:38:42.995Z</time></trkpt><trkpt lat="45.6018012" lon="10.8148482"><ele>267.0</ele><time>2026-04-06T08:38:43.995Z</time></trkpt><trkpt lat="45.6019739" lon="10.8149204"><ele>267.0</ele><time>2026-04-06T08:38:44.995Z</time></trkpt><trkpt lat="45.6021487" lon="10.8149933"><ele>266.6666666666667</ele><time>2026-04-06T08:38:45.995Z</time></trkpt><trkpt lat="45.6023229" lon="10.8150646"><ele>266.33333333333337</ele><time>2026-04-06T08:38:46.994Z</time></trkpt><trkpt lat="45.602499" lon="10.8151343"><ele>266.0</ele><time>2026-04-06T08:38:47.994Z</time></trkpt><trkpt lat="45.6026746" lon="10.815205"><ele>266.33333333333337</ele><time>2026-04-06T08:38:48.995Z</time></trkpt><trkpt lat="45.6028531" lon="10.8152773"><ele>266.6666666666667</ele><time>2026-04-06T08:38:49.994Z</time></trkpt><trkpt lat="45.6030298" lon="10.8153492"><ele>267.0</ele><time>2026-04-06T08:38:50.994Z</time></trkpt><trkpt lat="45.6032067" lon="10.8154194"><ele>267.0</ele><time>2026-04-06T08:38:51.995Z</time></trkpt><trkpt lat="45.6033818" lon="10.8154859"><ele>267.0</ele><time>2026-04-06T08:38:52.995Z</time></trkpt><trkpt lat="45.6035561" lon="10.8155527"><ele>267.0</ele><time>2026-04-06T08:38:53.994Z</time></trkpt><trkpt lat="45.6037282" lon="10.8156206"><ele>267.0</ele><time>2026-04-06T08:38:54.994Z</time></trkpt><trkpt lat="45.6039021" lon="10.8156882"><ele>267.0</ele><time>2026-04-06T08:38:55.994Z</time></trkpt><trkpt lat="45.6040752" lon="10.8157554"><ele>267.0</ele><time>2026-04-06T08:38:56.994Z</time></trkpt><trkpt lat="45.6042532" lon="10.8158257"><ele>267.0</ele><time>2026-04-06T08:38:57.994Z</time></trkpt><trkpt lat="45.6044334" lon="10.815896"><ele>267.0</ele><time>2026-04-06T08:38:58.994Z</time></trkpt><trkpt lat="45.6046131" lon="10.815962"><ele>267.0</ele><time>2026-04-06T08:38:59.995Z</time></trkpt><trkpt lat="45.6047881" lon="10.8160163"><ele>267.6666666666667</ele><time>2026-04-06T08:39:00.994Z</time></trkpt><trkpt lat="45.6049638" lon="10.8160616"><ele>268.33333333333337</ele><time>2026-04-06T08:39:01.995Z</time></trkpt><trkpt lat="45.6051376" lon="10.8160961"><ele>269.0</ele><time>2026-04-06T08:39:02.995Z</time></trkpt><trkpt lat="45.6053111" lon="10.8161233"><ele>269.6666666666667</ele><time>2026-04-06T08:39:03.995Z</time></trkpt><trkpt lat="45.6054799" lon="10.8161459"><ele>270.3333333333333</ele><time>2026-04-06T08:39:04.994Z</time></trkpt><trkpt lat="45.6056428" lon="10.8161651"><ele>271.0</ele><time>2026-04-06T08:39:05.995Z</time></trkpt><trkpt lat="45.6057994" lon="10.8161792"><ele>271.0</ele><time>2026-04-06T08:39:06.994Z</time></trkpt><trkpt lat="45.6059538" lon="10.8161832"><ele>271.0</ele><time>2026-04-06T08:39:07.995Z</time></trkpt><trkpt lat="45.6061071" lon="10.8161658"><ele>271.0</ele><time>2026-04-06T08:39:08.994Z</time></trkpt><trkpt lat="45.6062641" lon="10.8161211"><ele>271.66666666666663</ele><time>2026-04-06T08:39:09.995Z</time></trkpt><trkpt lat="45.606421" lon="10.8160566"><ele>272.3333333333333</ele><time>2026-04-06T08:39:10.994Z</time></trkpt><trkpt lat="45.6065728" lon="10.8159879"><ele>273.0</ele><time>2026-04-06T08:39:11.995Z</time></trkpt><trkpt lat="45.6067167" lon="10.8159334"><ele>273.5</ele><time>2026-04-06T08:39:12.995Z</time></trkpt><trkpt lat="45.606854" lon="10.8159004"><ele>274.0</ele><time>2026-04-06T08:39:13.995Z</time></trkpt><trkpt lat="45.6069809" lon="10.8158849"><ele>274.5</ele><time>2026-04-06T08:39:14.995Z</time></trkpt><trkpt lat="45.6070994" lon="10.8158797"><ele>275.0</ele><time>2026-04-06T08:39:15.994Z</time></trkpt><trkpt lat="45.6072075" lon="10.8158813"><ele>276.0</ele><time>2026-04-06T08:39:16.994Z</time></trkpt><trkpt lat="45.6073117" lon="10.8158874"><ele>277.0</ele><time>2026-04-06T08:39:17.994Z</time></trkpt><trkpt lat="45.6074213" lon="10.8158992"><ele>278.0</ele><time>2026-04-06T08:39:18.995Z</time></trkpt><trkpt lat="45.6075365" lon="10.8159279"><ele>279.0</ele><time>2026-04-06T08:39:19.995Z</time></trkpt><trkpt lat="45.6076433" lon="10.8159838"><ele>280.0</ele><time>2026-04-06T08:39:20.994Z</time></trkpt><trkpt lat="45.6077349" lon="10.8160555"><ele>280.0</ele><time>2026-04-06T08:39:21.995Z</time></trkpt><trkpt lat="45.6078112" lon="10.8161313"><ele>280.0</ele><time>2026-04-06T08:39:22.994Z</time></trkpt><trkpt lat="45.6078772" lon="10.8162045"><ele>280.0</ele><time>2026-04-06T08:39:23.995Z</time></trkpt><trkpt lat="45.6079354" lon="10.816273"><ele>280.0</ele><time>2026-04-06T08:39:24.995Z</time></trkpt><trkpt lat="45.6079965" lon="10.8163474"><ele>280.0</ele><time>2026-04-06T08:39:25.995Z</time></trkpt><trkpt lat="45.6080634" lon="10.8164335"><ele>280.0</ele><time>2026-04-06T08:39:26.994Z</time></trkpt><trkpt lat="45.6081393" lon="10.816532"><ele>280.5</ele><time>2026-04-06T08:39:27.994Z</time></trkpt><trkpt lat="45.6082273" lon="10.8166396"><ele>281.0</ele><time>2026-04-06T08:39:28.994Z</time></trkpt><trkpt lat="45.6083315" lon="10.8167527"><ele>281.5</ele><time>2026-04-06T08:39:29.994Z</time></trkpt><trkpt lat="45.6084546" lon="10.8168619"><ele>282.0</ele><time>2026-04-06T08:39:30.995Z</time></trkpt><trkpt lat="45.6085965" lon="10.8169624"><ele>283.0</ele><time>2026-04-06T08:39:31.995Z</time></trkpt><trkpt lat="45.6087451" lon="10.8170486"><ele>284.0</ele><time>2026-04-06T08:39:32.995Z</time></trkpt><trkpt lat="45.6088844" lon="10.8171189"><ele>285.0</ele><time>2026-04-06T08:39:33.994Z</time></trkpt><trkpt lat="45.6090005" lon="10.8171743"><ele>286.0</ele><time>2026-04-06T08:39:34.995Z</time></trkpt><trkpt lat="45.6090989" lon="10.817221"><ele>286.0</ele><time>2026-04-06T08:39:35.994Z</time></trkpt><trkpt lat="45.6091876" lon="10.8172679"><ele>286.0</ele><time>2026-04-06T08:39:36.995Z</time></trkpt><trkpt lat="45.6092674" lon="10.8173263"><ele>286.0</ele><time>2026-04-06T08:39:37.995Z</time></trkpt><trkpt lat="45.6093336" lon="10.8174015"><ele>286.0</ele><time>2026-04-06T08:39:38.995Z</time></trkpt><trkpt lat="45.6093914" lon="10.8174986"><ele>286.0</ele><time>2026-04-06T08:39:39.995Z</time></trkpt><trkpt lat="45.6094453" lon="10.8176137"><ele>286.0</ele><time>2026-04-06T08:39:40.995Z</time></trkpt><trkpt lat="45.6094927" lon="10.8177403"><ele>286.0</ele><time>2026-04-06T08:39:41.994Z</time></trkpt><trkpt lat="45.6095305" lon="10.8178819"><ele>286.0</ele><time>2026-04-06T08:39:42.994Z</time></trkpt><trkpt lat="45.6095617" lon="10.8180451"><ele>286.0</ele><time>2026-04-06T08:39:43.995Z</time></trkpt><trkpt lat="45.6095977" lon="10.8182325"><ele>286.0</ele><time>2026-04-06T08:39:44.995Z</time></trkpt><trkpt lat="45.6096384" lon="10.818412"><ele>286.0</ele><time>2026-04-06T08:39:45.995Z</time></trkpt><trkpt lat="45.6096838" lon="10.8185855"><ele>286.0</ele><time>2026-04-06T08:39:46.995Z</time></trkpt><trkpt lat="45.6097372" lon="10.8187559"><ele>286.0</ele><time>2026-04-06T08:39:47.994Z</time></trkpt><trkpt lat="45.6098071" lon="10.818932"><ele>286.25</ele><time>2026-04-06T08:39:48.995Z</time></trkpt><trkpt lat="45.6098863" lon="10.8191005"><ele>286.5</ele><time>2026-04-06T08:39:49.994Z</time></trkpt><trkpt lat="45.6099618" lon="10.8192569"><ele>286.75</ele><time>2026-04-06T08:39:50.995Z</time></trkpt><trkpt lat="45.6100209" lon="10.819403"><ele>287.0</ele><time>2026-04-06T08:39:51.994Z</time></trkpt><trkpt lat="45.6100644" lon="10.8195563"><ele>288.5</ele><time>2026-04-06T08:39:52.994Z</time></trkpt><trkpt lat="45.6100921" lon="10.8197236"><ele>290.0</ele><time>2026-04-06T08:39:53.994Z</time></trkpt><trkpt lat="45.6101061" lon="10.8199126"><ele>291.5</ele><time>2026-04-06T08:39:54.994Z</time></trkpt><trkpt lat="45.6101137" lon="10.8201271"><ele>293.0</ele><time>2026-04-06T08:39:55.995Z</time></trkpt><trkpt lat="45.6101173" lon="10.8203616"><ele>295.0</ele><time>2026-04-06T08:39:56.995Z</time></trkpt><trkpt lat="45.6101183" lon="10.8205988"><ele>297.0</ele><time>2026-04-06T08:39:57.994Z</time></trkpt><trkpt lat="45.6101194" lon="10.8208435"><ele>299.0</ele><time>2026-04-06T08:39:58.995Z</time></trkpt><trkpt lat="45.6101237" lon="10.8210954"><ele>300.0</ele><time>2026-04-06T08:39:59.994Z</time></trkpt><trkpt lat="45.610131" lon="10.8213486"><ele>301.0</ele><time>2026-04-06T08:40:00.995Z</time></trkpt><trkpt lat="45.6101423" lon="10.8215983"><ele>302.0</ele><time>2026-04-06T08:40:01.995Z</time></trkpt><trkpt lat="45.61016" lon="10.8218503"><ele>303.33333333333337</ele><time>2026-04-06T08:40:02.994Z</time></trkpt><trkpt lat="45.6101857" lon="10.8220989"><ele>304.6666666666667</ele><time>2026-04-06T08:40:03.995Z</time></trkpt><trkpt lat="45.6102224" lon="10.822353"><ele>306.0</ele><time>2026-04-06T08:40:04.994Z</time></trkpt><trkpt lat="45.6102684" lon="10.8226124"><ele>307.0</ele><time>2026-04-06T08:40:05.994Z</time></trkpt><trkpt lat="45.6103172" lon="10.822846"><ele>308.0</ele><time>2026-04-06T08:40:06.994Z</time></trkpt><trkpt lat="45.6103735" lon="10.8230737"><ele>309.0</ele><time>2026-04-06T08:40:07.995Z</time></trkpt><trkpt lat="45.6104402" lon="10.8233068"><ele>307.0</ele><time>2026-04-06T08:40:08.994Z</time></trkpt><trkpt lat="45.6105185" lon="10.8235459"><ele>305.0</ele><time>2026-04-06T08:40:09.995Z</time></trkpt><trkpt lat="45.6106038" lon="10.8237758"><ele>303.0</ele><time>2026-04-06T08:40:10.995Z</time></trkpt><trkpt lat="45.6106919" lon="10.82401"><ele>303.0</ele><time>2026-04-06T08:40:11.995Z</time></trkpt><trkpt lat="45.6107693" lon="10.8241711"><ele>303.0</ele><time>2026-04-06T08:40:12.994Z</time></trkpt><trkpt lat="45.6108631" lon="10.8243565"><ele>303.0</ele><time>2026-04-06T08:40:13.994Z</time></trkpt><trkpt lat="45.6109713" lon="10.8245278"><ele>301.3333333333333</ele><time>2026-04-06T08:40:14.995Z</time></trkpt><trkpt lat="45.6110906" lon="10.8246876"><ele>299.66666666666663</ele><time>2026-04-06T08:40:15.994Z</time></trkpt><trkpt lat="45.6112078" lon="10.8248338"><ele>298.0</ele><time>2026-04-06T08:40:16.994Z</time></trkpt><trkpt lat="45.6113188" lon="10.82496"><ele>298.0</ele><time>2026-04-06T08:40:17.994Z</time></trkpt><trkpt lat="45.6114336" lon="10.825069"><ele>298.0</ele><time>2026-04-06T08:40:18.995Z</time></trkpt><trkpt lat="45.6115588" lon="10.8251592"><ele>298.0</ele><time>2026-04-06T08:40:19.995Z</time></trkpt><trkpt lat="45.6116966" lon="10.8252344"><ele>298.0</ele><time>2026-04-06T08:40:20.994Z</time></trkpt><trkpt lat="45.611843" lon="10.8253049"><ele>301.3333333333333</ele><time>2026-04-06T08:40:21.994Z</time></trkpt><trkpt lat="45.6119934" lon="10.8253703"><ele>304.6666666666667</ele><time>2026-04-06T08:40:22.994Z</time></trkpt><trkpt lat="45.6121365" lon="10.8254299"><ele>308.0</ele><time>2026-04-06T08:40:23.994Z</time></trkpt><trkpt lat="45.6122795" lon="10.8254917"><ele>308.0</ele><time>2026-04-06T08:40:24.995Z</time></trkpt><trkpt lat="45.6124273" lon="10.8255506"><ele>308.0</ele><time>2026-04-06T08:40:25.994Z</time></trkpt><trkpt lat="45.6125818" lon="10.8256057"><ele>308.0</ele><time>2026-04-06T08:40:26.994Z</time></trkpt><trkpt lat="45.6127438" lon="10.8256534"><ele>308.33333333333337</ele><time>2026-04-06T08:40:27.995Z</time></trkpt><trkpt lat="45.6128987" lon="10.8256928"><ele>308.6666666666667</ele><time>2026-04-06T08:40:28.994Z</time></trkpt><trkpt lat="45.6130516" lon="10.8257259"><ele>309.0</ele><time>2026-04-06T08:40:29.995Z</time></trkpt><trkpt lat="45.6131963" lon="10.8257551"><ele>309.0</ele><time>2026-04-06T08:40:30.995Z</time></trkpt><trkpt lat="45.6133288" lon="10.8257854"><ele>309.0</ele><time>2026-04-06T08:40:31.995Z</time></trkpt><trkpt lat="45.6134474" lon="10.8258281"><ele>309.0</ele><time>2026-04-06T08:40:32.994Z</time></trkpt><trkpt lat="45.6135645" lon="10.8258871"><ele>309.0</ele><time>2026-04-06T08:40:33.994Z</time></trkpt><trkpt lat="45.6136873" lon="10.825967"><ele>311.0</ele><time>2026-04-06T08:40:34.995Z</time></trkpt><trkpt lat="45.6138196" lon="10.8260622"><ele>313.0</ele><time>2026-04-06T08:40:35.995Z</time></trkpt><trkpt lat="45.613965" lon="10.8261716"><ele>315.0</ele><time>2026-04-06T08:40:36.994Z</time></trkpt><trkpt lat="45.6141075" lon="10.8262831"><ele>315.0</ele><time>2026-04-06T08:40:37.994Z</time></trkpt><trkpt lat="45.6142305" lon="10.8263879"><ele>315.0</ele><time>2026-04-06T08:40:38.994Z</time></trkpt><trkpt lat="45.6143409" lon="10.8264946"><ele>315.0</ele><time>2026-04-06T08:40:39.995Z</time></trkpt><trkpt lat="45.6144472" lon="10.8266104"><ele>315.0</ele><time>2026-04-06T08:40:40.994Z</time></trkpt><trkpt lat="45.6145568" lon="10.8267511"><ele>313.6666666666667</ele><time>2026-04-06T08:40:41.994Z</time></trkpt><trkpt lat="45.6146652" lon="10.8269015"><ele>312.33333333333337</ele><time>2026-04-06T08:40:42.995Z</time></trkpt><trkpt lat="45.6147717" lon="10.8270615"><ele>311.0</ele><time>2026-04-06T08:40:43.995Z</time></trkpt><trkpt lat="45.6148743" lon="10.8272276"><ele>311.0</ele><time>2026-04-06T08:40:44.994Z</time></trkpt><trkpt lat="45.6149668" lon="10.8273917"><ele>311.0</ele><time>2026-04-06T08:40:45.994Z</time></trkpt><trkpt lat="45.6150486" lon="10.8275552"><ele>311.0</ele><time>2026-04-06T08:40:46.994Z</time></trkpt><trkpt lat="45.6151236" lon="10.8277245"><ele>311.0</ele><time>2026-04-06T08:40:47.994Z</time></trkpt><trkpt lat="45.6151924" lon="10.8278953"><ele>311.25</ele><time>2026-04-06T08:40:48.994Z</time></trkpt><trkpt lat="45.6152547" lon="10.8280533"><ele>311.5</ele><time>2026-04-06T08:40:49.994Z</time></trkpt><trkpt lat="45.6153155" lon="10.8282023"><ele>311.75</ele><time>2026-04-06T08:40:50.995Z</time></trkpt><trkpt lat="45.6153816" lon="10.8283483"><ele>312.0</ele><time>2026-04-06T08:40:51.994Z</time></trkpt><trkpt lat="45.615454" lon="10.8284936"><ele>312.8</ele><time>2026-04-06T08:40:52.994Z</time></trkpt><trkpt lat="45.6155258" lon="10.8286376"><ele>313.6</ele><time>2026-04-06T08:40:53.994Z</time></trkpt><trkpt lat="45.6155887" lon="10.8287723"><ele>314.40000000000003</ele><time>2026-04-06T08:40:54.994Z</time></trkpt><trkpt lat="45.6156469" lon="10.8288952"><ele>315.2</ele><time>2026-04-06T08:40:55.994Z</time></trkpt><trkpt lat="45.6157002" lon="10.8290023"><ele>316.0</ele><time>2026-04-06T08:40:56.994Z</time></trkpt><trkpt lat="45.6157484" lon="10.8290976"><ele>316.0</ele><time>2026-04-06T08:40:57.994Z</time></trkpt><trkpt lat="45.6157876" lon="10.8291782"><ele>316.0</ele><time>2026-04-06T08:40:58.994Z</time></trkpt><trkpt lat="45.6158406" lon="10.8292913"><ele>316.0</ele><time>2026-04-06T08:41:00.994Z</time></trkpt><trkpt lat="45.6158926" lon="10.8293874"><ele>316.0</ele><time>2026-04-06T08:41:03.994Z</time></trkpt><trkpt lat="45.6159468" lon="10.8294604"><ele>316.0</ele><time>2026-04-06T08:41:05.995Z</time></trkpt><trkpt lat="45.6160482" lon="10.8295525"><ele>316.0</ele><time>2026-04-06T08:41:07.994Z</time></trkpt><trkpt lat="45.6161337" lon="10.8295866"><ele>316.16666666666663</ele><time>2026-04-06T08:41:09.994Z</time></trkpt><trkpt lat="45.6161929" lon="10.829527"><ele>316.3333333333333</ele><time>2026-04-06T08:41:11.995Z</time></trkpt><trkpt lat="45.6162518" lon="10.8293817"><ele>316.5</ele><time>2026-04-06T08:41:13.995Z</time></trkpt><trkpt lat="45.6162918" lon="10.8292967"><ele>316.6666666666667</ele><time>2026-04-06T08:41:14.995Z</time></trkpt><trkpt lat="45.6163382" lon="10.8292112"><ele>316.83333333333337</ele><time>2026-04-06T08:41:15.995Z</time></trkpt><trkpt lat="45.6163864" lon="10.8291301"><ele>317.0</ele><time>2026-04-06T08:41:16.994Z</time></trkpt><trkpt lat="45.6164326" lon="10.8290567"><ele>317.0</ele><time>2026-04-06T08:41:17.994Z</time></trkpt><trkpt lat="45.6164837" lon="10.8289962"><ele>317.0</ele><time>2026-04-06T08:41:18.995Z</time></trkpt><trkpt lat="45.6165471" lon="10.8289363"><ele>317.0</ele><time>2026-04-06T08:41:19.995Z</time></trkpt><trkpt lat="45.6166108" lon="10.8289114"><ele>317.0</ele><time>2026-04-06T08:41:20.994Z</time></trkpt><trkpt lat="45.6166753" lon="10.8289039"><ele>317.0</ele><time>2026-04-06T08:41:21.995Z</time></trkpt><trkpt lat="45.6167516" lon="10.8289081"><ele>317.0</ele><time>2026-04-06T08:41:22.995Z</time></trkpt><trkpt lat="45.6168295" lon="10.8289185"><ele>317.0</ele><time>2026-04-06T08:41:23.994Z</time></trkpt><trkpt lat="45.6169028" lon="10.8289255"><ele>318.0</ele><time>2026-04-06T08:41:24.995Z</time></trkpt><trkpt lat="45.6169972" lon="10.8289184"><ele>319.0</ele><time>2026-04-06T08:41:25.994Z</time></trkpt><trkpt lat="45.6170982" lon="10.8289067"><ele>320.0</ele><time>2026-04-06T08:41:26.995Z</time></trkpt><trkpt lat="45.6171903" lon="10.8289155"><ele>321.0</ele><time>2026-04-06T08:41:27.994Z</time></trkpt><trkpt lat="45.6172694" lon="10.8289518"><ele>322.0</ele><time>2026-04-06T08:41:28.994Z</time></trkpt><trkpt lat="45.6173397" lon="10.8290014"><ele>322.0</ele><time>2026-04-06T08:41:29.994Z</time></trkpt><trkpt lat="45.6173954" lon="10.8290737"><ele>322.0</ele><time>2026-04-06T08:41:31.995Z</time></trkpt><trkpt lat="45.6174666" lon="10.8290758"><ele>322.0</ele><time>2026-04-06T08:41:32.995Z</time></trkpt><trkpt lat="45.6175382" lon="10.8289776"><ele>322.0</ele><time>2026-04-06T08:41:35.995Z</time></trkpt><trkpt lat="45.6176024" lon="10.828825"><ele>322.0</ele><time>2026-04-06T08:41:37.994Z</time></trkpt><trkpt lat="45.617637" lon="10.8287451"><ele>322.0</ele><time>2026-04-06T08:41:38.995Z</time></trkpt><trkpt lat="45.6177196" lon="10.8286313"><ele>322.0</ele><time>2026-04-06T08:41:40.994Z</time></trkpt><trkpt lat="45.6177781" lon="10.8285808"><ele>322.0</ele><time>2026-04-06T08:41:41.995Z</time></trkpt><trkpt lat="45.6178469" lon="10.8285246"><ele>322.0</ele><time>2026-04-06T08:41:42.995Z</time></trkpt><trkpt lat="45.6179238" lon="10.8284689"><ele>322.0</ele><time>2026-04-06T08:41:43.995Z</time></trkpt><trkpt lat="45.6180046" lon="10.8284165"><ele>322.0</ele><time>2026-04-06T08:41:44.995Z</time></trkpt><trkpt lat="45.6180902" lon="10.8283749"><ele>322.0</ele><time>2026-04-06T08:41:45.995Z</time></trkpt><trkpt lat="45.6181894" lon="10.8283396"><ele>325.6</ele><time>2026-04-06T08:41:46.995Z</time></trkpt><trkpt lat="45.6183004" lon="10.8283059"><ele>329.20000000000005</ele><time>2026-04-06T08:41:47.994Z</time></trkpt><trkpt lat="45.6184084" lon="10.8282686"><ele>332.8</ele><time>2026-04-06T08:41:48.994Z</time></trkpt><trkpt lat="45.6184938" lon="10.8282334"><ele>336.4</ele><time>2026-04-06T08:41:49.994Z</time></trkpt><trkpt lat="45.6185902" lon="10.8281714"><ele>340.0</ele><time>2026-04-06T08:41:51.994Z</time></trkpt><trkpt lat="45.618588" lon="10.8280146"><ele>340.0</ele><time>2026-04-06T08:41:54.994Z</time></trkpt><trkpt lat="45.6185027" lon="10.8278644"><ele>340.0</ele><time>2026-04-06T08:41:56.994Z</time></trkpt><trkpt lat="45.6184496" lon="10.8277631"><ele>340.0</ele><time>2026-04-06T08:41:57.994Z</time></trkpt><trkpt lat="45.6184054" lon="10.8276546"><ele>340.0</ele><time>2026-04-06T08:41:58.995Z</time></trkpt><trkpt lat="45.6183681" lon="10.8275388"><ele>340.0</ele><time>2026-04-06T08:41:59.994Z</time></trkpt><trkpt lat="45.6183381" lon="10.8274085"><ele>342.2</ele><time>2026-04-06T08:42:00.995Z</time></trkpt><trkpt lat="45.6183179" lon="10.8272727"><ele>344.4</ele><time>2026-04-06T08:42:01.994Z</time></trkpt><trkpt lat="45.6183049" lon="10.8271268"><ele>346.6</ele><time>2026-04-06T08:42:02.995Z</time></trkpt><trkpt lat="45.6182905" lon="10.8269786"><ele>348.8</ele><time>2026-04-06T08:42:03.995Z</time></trkpt><trkpt lat="45.6182676" lon="10.8268574"><ele>351.0</ele><time>2026-04-06T08:42:04.994Z</time></trkpt><trkpt lat="45.6182316" lon="10.8267513"><ele>354.0</ele><time>2026-04-06T08:42:05.995Z</time></trkpt><trkpt lat="45.6181883" lon="10.8266526"><ele>357.0</ele><time>2026-04-06T08:42:06.995Z</time></trkpt><trkpt lat="45.6181361" lon="10.8265496"><ele>360.0</ele><time>2026-04-06T08:42:07.994Z</time></trkpt><trkpt lat="45.6180763" lon="10.8264315"><ele>363.0</ele><time>2026-04-06T08:42:08.995Z</time></trkpt><trkpt lat="45.6180114" lon="10.8263173"><ele>366.0</ele><time>2026-04-06T08:42:09.995Z</time></trkpt><trkpt lat="45.6179459" lon="10.8262144"><ele>366.0</ele><time>2026-04-06T08:42:10.995Z</time></trkpt><trkpt lat="45.6178858" lon="10.8261101"><ele>366.0</ele><time>2026-04-06T08:42:11.994Z</time></trkpt><trkpt lat="45.6178357" lon="10.8260105"><ele>366.0</ele><time>2026-04-06T08:42:12.994Z</time></trkpt><trkpt lat="45.6178006" lon="10.8259246"><ele>366.0</ele><time>2026-04-06T08:42:13.994Z</time></trkpt><trkpt lat="45.6177686" lon="10.8257958"><ele>366.0</ele><time>2026-04-06T08:42:15.995Z</time></trkpt><trkpt lat="45.6177864" lon="10.8256755"><ele>366.0</ele><time>2026-04-06T08:42:17.994Z</time></trkpt><trkpt lat="45.6178721" lon="10.8255337"><ele>368.3333333333333</ele><time>2026-04-06T08:42:19.995Z</time></trkpt><trkpt lat="45.6179348" lon="10.8254475"><ele>370.6666666666667</ele><time>2026-04-06T08:42:20.994Z</time></trkpt><trkpt lat="45.6180006" lon="10.8253462"><ele>373.0</ele><time>2026-04-06T08:42:21.995Z</time></trkpt><trkpt lat="45.6180691" lon="10.8252379"><ele>375.33333333333337</ele><time>2026-04-06T08:42:22.994Z</time></trkpt><trkpt lat="45.6181283" lon="10.8251459"><ele>377.6666666666667</ele><time>2026-04-06T08:42:23.994Z</time></trkpt><trkpt lat="45.6181814" lon="10.8250717"><ele>380.0</ele><time>2026-04-06T08:42:24.994Z</time></trkpt><trkpt lat="45.6182335" lon="10.8250027"><ele>380.5</ele><time>2026-04-06T08:42:25.994Z</time></trkpt><trkpt lat="45.6182833" lon="10.824944"><ele>381.0</ele><time>2026-04-06T08:42:26.994Z</time></trkpt><trkpt lat="45.6183477" lon="10.8248706"><ele>381.5</ele><time>2026-04-06T08:42:28.994Z</time></trkpt><trkpt lat="45.6184178" lon="10.8248339"><ele>382.0</ele><time>2026-04-06T08:42:30.994Z</time></trkpt><trkpt lat="45.6185188" lon="10.8248507"><ele>382.5</ele><time>2026-04-06T08:42:32.995Z</time></trkpt><trkpt lat="45.6185849" lon="10.8248763"><ele>383.0</ele><time>2026-04-06T08:42:33.995Z</time></trkpt><trkpt lat="45.6186648" lon="10.8249001"><ele>385.0</ele><time>2026-04-06T08:42:34.994Z</time></trkpt><trkpt lat="45.6187466" lon="10.8249155"><ele>387.0</ele><time>2026-04-06T08:42:35.994Z</time></trkpt><trkpt lat="45.6188315" lon="10.8249155"><ele>389.0</ele><time>2026-04-06T08:42:36.994Z</time></trkpt><trkpt lat="45.6189145" lon="10.8249138"><ele>391.0</ele><time>2026-04-06T08:42:37.995Z</time></trkpt><trkpt lat="45.6189994" lon="10.8249099"><ele>392.99999999999994</ele><time>2026-04-06T08:42:38.995Z</time></trkpt><trkpt lat="45.6190821" lon="10.8249088"><ele>395.0</ele><time>2026-04-06T08:42:39.995Z</time></trkpt><trkpt lat="45.619158" lon="10.8249129"><ele>395.0</ele><time>2026-04-06T08:42:40.994Z</time></trkpt><trkpt lat="45.6192273" lon="10.8249249"><ele>395.0</ele><time>2026-04-06T08:42:41.995Z</time></trkpt><trkpt lat="45.6192942" lon="10.8249494"><ele>395.0</ele><time>2026-04-06T08:42:42.995Z</time></trkpt><trkpt lat="45.6193573" lon="10.8249922"><ele>395.0</ele><time>2026-04-06T08:42:43.995Z</time></trkpt><trkpt lat="45.6194138" lon="10.8250558"><ele>395.0</ele><time>2026-04-06T08:42:44.994Z</time></trkpt><trkpt lat="45.6194657" lon="10.8251386"><ele>395.0</ele><time>2026-04-06T08:42:45.995Z</time></trkpt><trkpt lat="45.6195158" lon="10.8252371"><ele>395.0</ele><time>2026-04-06T08:42:46.995Z</time></trkpt><trkpt lat="45.6195645" lon="10.8253459"><ele>396.16666666666663</ele><time>2026-04-06T08:42:47.995Z</time></trkpt><trkpt lat="45.61961" lon="10.825453"><ele>397.3333333333333</ele><time>2026-04-06T08:42:48.994Z</time></trkpt><trkpt lat="45.6196598" lon="10.8255575"><ele>398.5</ele><time>2026-04-06T08:42:49.994Z</time></trkpt><trkpt lat="45.619719" lon="10.8256489"><ele>399.66666666666663</ele><time>2026-04-06T08:42:50.995Z</time></trkpt><trkpt lat="45.6197876" lon="10.8257324"><ele>400.8333333333333</ele><time>2026-04-06T08:42:51.994Z</time></trkpt><trkpt lat="45.6198599" lon="10.8258085"><ele>402.0</ele><time>2026-04-06T08:42:52.994Z</time></trkpt><trkpt lat="45.6199352" lon="10.8258751"><ele>402.0</ele><time>2026-04-06T08:42:53.994Z</time></trkpt><trkpt lat="45.6200188" lon="10.8259403"><ele>402.0</ele><time>2026-04-06T08:42:54.994Z</time></trkpt><trkpt lat="45.6201033" lon="10.826005"><ele>402.0</ele><time>2026-04-06T08:42:55.994Z</time></trkpt><trkpt lat="45.6201864" lon="10.8260751"><ele>402.0</ele><time>2026-04-06T08:42:56.994Z</time></trkpt><trkpt lat="45.6202759" lon="10.8261415"><ele>402.0</ele><time>2026-04-06T08:42:57.994Z</time></trkpt><trkpt lat="45.6203754" lon="10.826205"><ele>403.8</ele><time>2026-04-06T08:42:58.994Z</time></trkpt><trkpt lat="45.6204756" lon="10.8262682"><ele>405.6</ele><time>2026-04-06T08:42:59.994Z</time></trkpt><trkpt lat="45.6205674" lon="10.8263322"><ele>407.40000000000003</ele><time>2026-04-06T08:43:00.994Z</time></trkpt><trkpt lat="45.620644" lon="10.8263928"><ele>409.20000000000005</ele><time>2026-04-06T08:43:01.994Z</time></trkpt><trkpt lat="45.6207054" lon="10.826448"><ele>411.0</ele><time>2026-04-06T08:43:02.995Z</time></trkpt><trkpt lat="45.6208006" lon="10.8265426"><ele>411.0</ele><time>2026-04-06T08:43:04.994Z</time></trkpt><trkpt lat="45.6208746" lon="10.8266203"><ele>411.0</ele><time>2026-04-06T08:43:06.994Z</time></trkpt><trkpt lat="45.6209536" lon="10.8267088"><ele>411.0</ele><time>2026-04-06T08:43:08.994Z</time></trkpt><trkpt lat="45.6210465" lon="10.8268144"><ele>411.0</ele><time>2026-04-06T08:43:10.995Z</time></trkpt><trkpt lat="45.6211101" lon="10.8268707"><ele>411.0</ele><time>2026-04-06T08:43:11.994Z</time></trkpt><trkpt lat="45.6211835" lon="10.8269358"><ele>412.8333333333333</ele><time>2026-04-06T08:43:12.994Z</time></trkpt><trkpt lat="45.6212541" lon="10.8270007"><ele>414.66666666666663</ele><time>2026-04-06T08:43:13.995Z</time></trkpt><trkpt lat="45.6213224" lon="10.8270681"><ele>416.5</ele><time>2026-04-06T08:43:14.995Z</time></trkpt><trkpt lat="45.6213902" lon="10.8271448"><ele>418.3333333333333</ele><time>2026-04-06T08:43:15.995Z</time></trkpt><trkpt lat="45.6214137" lon="10.8272431"><ele>420.16666666666663</ele><time>2026-04-06T08:43:17.006Z</time></trkpt><trkpt lat="45.6214776" lon="10.8273419"><ele>422.0</ele><time>2026-04-06T08:43:18.005Z</time></trkpt><trkpt lat="45.6215465" lon="10.8274479"><ele>422.0</ele><time>2026-04-06T08:43:19.004Z</time></trkpt><trkpt lat="45.62162" lon="10.8275648"><ele>422.0</ele><time>2026-04-06T08:43:20.005Z</time></trkpt><trkpt lat="45.621678" lon="10.8276809"><ele>422.0</ele><time>2026-04-06T08:43:21.005Z</time></trkpt><trkpt lat="45.6217271" lon="10.8277929"><ele>422.0</ele><time>2026-04-06T08:43:22.004Z</time></trkpt><trkpt lat="45.6217833" lon="10.8279059"><ele>422.0</ele><time>2026-04-06T08:43:23.005Z</time></trkpt><trkpt lat="45.6218418" lon="10.8279959"><ele>423.8</ele><time>2026-04-06T08:43:24.005Z</time></trkpt><trkpt lat="45.6219154" lon="10.8280776"><ele>425.6</ele><time>2026-04-06T08:43:25.004Z</time></trkpt><trkpt lat="45.6220054" lon="10.8281596"><ele>427.40000000000003</ele><time>2026-04-06T08:43:26.005Z</time></trkpt><trkpt lat="45.6221105" lon="10.828236"><ele>429.20000000000005</ele><time>2026-04-06T08:43:27.005Z</time></trkpt><trkpt lat="45.6222063" lon="10.8283038"><ele>431.0</ele><time>2026-04-06T08:43:28.005Z</time></trkpt><trkpt lat="45.6222968" lon="10.8283707"><ele>431.0</ele><time>2026-04-06T08:43:29.005Z</time></trkpt><trkpt lat="45.6223886" lon="10.8284438"><ele>431.0</ele><time>2026-04-06T08:43:30.005Z</time></trkpt><trkpt lat="45.6224817" lon="10.8285187"><ele>431.0</ele><time>2026-04-06T08:43:31.004Z</time></trkpt><trkpt lat="45.622583" lon="10.8285895"><ele>431.0</ele><time>2026-04-06T08:43:32.005Z</time></trkpt><trkpt lat="45.6226951" lon="10.828652"><ele>431.0</ele><time>2026-04-06T08:43:33.004Z</time></trkpt><trkpt lat="45.6228055" lon="10.8287048"><ele>430.0</ele><time>2026-04-06T08:43:34.005Z</time></trkpt><trkpt lat="45.6229164" lon="10.8287455"><ele>429.0</ele><time>2026-04-06T08:43:35.005Z</time></trkpt><trkpt lat="45.6230279" lon="10.8287734"><ele>428.0</ele><time>2026-04-06T08:43:36.004Z</time></trkpt><trkpt lat="45.6231323" lon="10.8287943"><ele>427.0</ele><time>2026-04-06T08:43:37.005Z</time></trkpt><trkpt lat="45.6232319" lon="10.8288101"><ele>426.0</ele><time>2026-04-06T08:43:38.005Z</time></trkpt><trkpt lat="45.6233211" lon="10.8288174"><ele>426.0</ele><time>2026-04-06T08:43:39.004Z</time></trkpt><trkpt lat="45.6234075" lon="10.8288151"><ele>426.0</ele><time>2026-04-06T08:43:40.004Z</time></trkpt><trkpt lat="45.623488" lon="10.8287988"><ele>426.0</ele><time>2026-04-06T08:43:41.004Z</time></trkpt><trkpt lat="45.6235721" lon="10.8287729"><ele>426.0</ele><time>2026-04-06T08:43:42.004Z</time></trkpt><trkpt lat="45.6236456" lon="10.8287442"><ele>426.0</ele><time>2026-04-06T08:43:43.006Z</time></trkpt><trkpt lat="45.623726" lon="10.8287348"><ele>426.0</ele><time>2026-04-06T08:43:44.005Z</time></trkpt><trkpt lat="45.6238147" lon="10.8287476"><ele>427.8</ele><time>2026-04-06T08:43:45.005Z</time></trkpt><trkpt lat="45.6239096" lon="10.8287831"><ele>429.6</ele><time>2026-04-06T08:43:46.005Z</time></trkpt><trkpt lat="45.6240125" lon="10.8288326"><ele>431.4</ele><time>2026-04-06T08:43:47.006Z</time></trkpt><trkpt lat="45.6241114" lon="10.8288903"><ele>433.2</ele><time>2026-04-06T08:43:48.005Z</time></trkpt><trkpt lat="45.6241913" lon="10.8289487"><ele>435.0</ele><time>2026-04-06T08:43:49.005Z</time></trkpt><trkpt lat="45.624269" lon="10.8290104"><ele>435.0</ele><time>2026-04-06T08:43:50.004Z</time></trkpt><trkpt lat="45.6243479" lon="10.8290646"><ele>435.0</ele><time>2026-04-06T08:43:51.004Z</time></trkpt><trkpt lat="45.6244162" lon="10.8291067"><ele>435.0</ele><time>2026-04-06T08:43:52.005Z</time></trkpt><trkpt lat="45.624488" lon="10.8291349"><ele>435.0</ele><time>2026-04-06T08:43:53.005Z</time></trkpt><trkpt lat="45.6245596" lon="10.829142"><ele>435.0</ele><time>2026-04-06T08:43:54.004Z</time></trkpt><trkpt lat="45.624635" lon="10.8291342"><ele>435.0</ele><time>2026-04-06T08:43:55.005Z</time></trkpt><trkpt lat="45.6247212" lon="10.8291117"><ele>437.8</ele><time>2026-04-06T08:43:56.004Z</time></trkpt><trkpt lat="45.6248169" lon="10.8290846"><ele>440.6</ele><time>2026-04-06T08:43:57.005Z</time></trkpt><trkpt lat="45.6249225" lon="10.82907"><ele>443.4</ele><time>2026-04-06T08:43:58.004Z</time></trkpt><trkpt lat="45.625037" lon="10.8290699"><ele>446.2</ele><time>2026-04-06T08:43:59.005Z</time></trkpt><trkpt lat="45.6251598" lon="10.8290761"><ele>449.0</ele><time>2026-04-06T08:44:00.005Z</time></trkpt><trkpt lat="45.625284" lon="10.8290812"><ele>453.0</ele><time>2026-04-06T08:44:01.004Z</time></trkpt><trkpt lat="45.6253995" lon="10.8290766"><ele>457.0</ele><time>2026-04-06T08:44:02.005Z</time></trkpt><trkpt lat="45.6255192" lon="10.829059"><ele>461.0</ele><time>2026-04-06T08:44:03.005Z</time></trkpt><trkpt lat="45.6256406" lon="10.8290347"><ele>465.0</ele><time>2026-04-06T08:44:04.005Z</time></trkpt><trkpt lat="45.6257615" lon="10.8290115"><ele>465.0</ele><time>2026-04-06T08:44:05.005Z</time></trkpt><trkpt lat="45.6258654" lon="10.8289916"><ele>465.0</ele><time>2026-04-06T08:44:06.006Z</time></trkpt><trkpt lat="45.6259697" lon="10.828971"><ele>465.0</ele><time>2026-04-06T08:44:07.005Z</time></trkpt><trkpt lat="45.6260733" lon="10.8289562"><ele>465.0</ele><time>2026-04-06T08:44:08.005Z</time></trkpt><trkpt lat="45.6261767" lon="10.8289542"><ele>465.0</ele><time>2026-04-06T08:44:09.005Z</time></trkpt><trkpt lat="45.6262763" lon="10.8289581"><ele>466.5</ele><time>2026-04-06T08:44:10.005Z</time></trkpt><trkpt lat="45.6263725" lon="10.8289665"><ele>468.0</ele><time>2026-04-06T08:44:11.005Z</time></trkpt><trkpt lat="45.6264529" lon="10.828972"><ele>469.5</ele><time>2026-04-06T08:44:12.005Z</time></trkpt><trkpt lat="45.6265338" lon="10.8289718"><ele>471.0</ele><time>2026-04-06T08:44:13.004Z</time></trkpt><trkpt lat="45.6266009" lon="10.82895"><ele>472.5</ele><time>2026-04-06T08:44:14.005Z</time></trkpt><trkpt lat="45.6266634" lon="10.82891"><ele>474.0</ele><time>2026-04-06T08:44:15.005Z</time></trkpt><trkpt lat="45.6267266" lon="10.8288444"><ele>474.0</ele><time>2026-04-06T08:44:16.004Z</time></trkpt><trkpt lat="45.6267892" lon="10.8287661"><ele>474.0</ele><time>2026-04-06T08:44:17.005Z</time></trkpt><trkpt lat="45.6268367" lon="10.8286954"><ele>474.0</ele><time>2026-04-06T08:44:18.005Z</time></trkpt><trkpt lat="45.6268805" lon="10.8286271"><ele>474.0</ele><time>2026-04-06T08:44:19.005Z</time></trkpt><trkpt lat="45.6269602" lon="10.8285508"><ele>474.0</ele><time>2026-04-06T08:44:21.005Z</time></trkpt><trkpt lat="45.6270595" lon="10.8285026"><ele>474.0</ele><time>2026-04-06T08:44:23.005Z</time></trkpt><trkpt lat="45.6271376" lon="10.8284879"><ele>475.2</ele><time>2026-04-06T08:44:24.005Z</time></trkpt><trkpt lat="45.6272166" lon="10.8284821"><ele>476.4</ele><time>2026-04-06T08:44:25.004Z</time></trkpt><trkpt lat="45.6273149" lon="10.828482"><ele>477.6</ele><time>2026-04-06T08:44:26.005Z</time></trkpt><trkpt lat="45.6274311" lon="10.8284868"><ele>478.8</ele><time>2026-04-06T08:44:27.005Z</time></trkpt><trkpt lat="45.6275688" lon="10.8284936"><ele>480.0</ele><time>2026-04-06T08:44:28.005Z</time></trkpt><trkpt lat="45.6277039" lon="10.8284975"><ele>482.66666666666663</ele><time>2026-04-06T08:44:29.005Z</time></trkpt><trkpt lat="45.6278566" lon="10.8284975"><ele>485.3333333333333</ele><time>2026-04-06T08:44:30.004Z</time></trkpt><trkpt lat="45.6280123" lon="10.8284964"><ele>488.0</ele><time>2026-04-06T08:44:31.005Z</time></trkpt><trkpt lat="45.628162" lon="10.8284992"><ele>488.0</ele><time>2026-04-06T08:44:32.004Z</time></trkpt><trkpt lat="45.6283092" lon="10.8285048"><ele>488.0</ele><time>2026-04-06T08:44:33.006Z</time></trkpt><trkpt lat="45.6284545" lon="10.8285113"><ele>488.0</ele><time>2026-04-06T08:44:34.005Z</time></trkpt><trkpt lat="45.6285982" lon="10.8285146"><ele>488.0</ele><time>2026-04-06T08:44:35.006Z</time></trkpt><trkpt lat="45.628738" lon="10.8285233"><ele>490.5</ele><time>2026-04-06T08:44:36.004Z</time></trkpt><trkpt lat="45.6288698" lon="10.8285476"><ele>493.0</ele><time>2026-04-06T08:44:37.005Z</time></trkpt><trkpt lat="45.6289972" lon="10.8285932"><ele>495.5</ele><time>2026-04-06T08:44:38.005Z</time></trkpt><trkpt lat="45.629123" lon="10.8286595"><ele>498.0</ele><time>2026-04-06T08:44:39.005Z</time></trkpt><trkpt lat="45.6292487" lon="10.8287429"><ele>498.0</ele><time>2026-04-06T08:44:40.006Z</time></trkpt><trkpt lat="45.6293743" lon="10.8288376"><ele>498.0</ele><time>2026-04-06T08:44:41.005Z</time></trkpt><trkpt lat="45.6294982" lon="10.8289397"><ele>498.0</ele><time>2026-04-06T08:44:42.005Z</time></trkpt><trkpt lat="45.6296196" lon="10.8290433"><ele>498.0</ele><time>2026-04-06T08:44:43.006Z</time></trkpt><trkpt lat="45.6297354" lon="10.8291393"><ele>500.75</ele><time>2026-04-06T08:44:44.006Z</time></trkpt><trkpt lat="45.6298497" lon="10.829236"><ele>503.5</ele><time>2026-04-06T08:44:45.004Z</time></trkpt><trkpt lat="45.6299627" lon="10.8293328"><ele>506.25</ele><time>2026-04-06T08:44:46.004Z</time></trkpt><trkpt lat="45.6300762" lon="10.8294297"><ele>509.0</ele><time>2026-04-06T08:44:47.004Z</time></trkpt><trkpt lat="45.6301925" lon="10.8295245"><ele>511.5</ele><time>2026-04-06T08:44:48.005Z</time></trkpt><trkpt lat="45.6303122" lon="10.8296176"><ele>514.0</ele><time>2026-04-06T08:44:49.004Z</time></trkpt><trkpt lat="45.6304319" lon="10.8297182"><ele>516.5</ele><time>2026-04-06T08:44:50.004Z</time></trkpt><trkpt lat="45.630551" lon="10.8298298"><ele>519.0</ele><time>2026-04-06T08:44:51.004Z</time></trkpt><trkpt lat="45.6306722" lon="10.8299467"><ele>519.0</ele><time>2026-04-06T08:44:52.005Z</time></trkpt><trkpt lat="45.6307973" lon="10.8300597"><ele>519.0</ele><time>2026-04-06T08:44:53.006Z</time></trkpt><trkpt lat="45.6309227" lon="10.8301666"><ele>519.0</ele><time>2026-04-06T08:44:54.006Z</time></trkpt><trkpt lat="45.6310486" lon="10.8302684"><ele>519.0</ele><time>2026-04-06T08:44:55.004Z</time></trkpt><trkpt lat="45.631173" lon="10.8303721"><ele>520.0</ele><time>2026-04-06T08:44:56.005Z</time></trkpt><trkpt lat="45.6312987" lon="10.8304771"><ele>521.0</ele><time>2026-04-06T08:44:57.004Z</time></trkpt><trkpt lat="45.6314242" lon="10.830583"><ele>522.0</ele><time>2026-04-06T08:44:58.004Z</time></trkpt><trkpt lat="45.631538" lon="10.8306859"><ele>523.0</ele><time>2026-04-06T08:44:59.005Z</time></trkpt><trkpt lat="45.6316363" lon="10.8307944"><ele>523.0</ele><time>2026-04-06T08:45:00.005Z</time></trkpt><trkpt lat="45.631715" lon="10.8309214"><ele>523.0</ele><time>2026-04-06T08:45:01.005Z</time></trkpt><trkpt lat="45.631777" lon="10.8310745"><ele>523.0</ele><time>2026-04-06T08:45:02.004Z</time></trkpt><trkpt lat="45.6318184" lon="10.8312488"><ele>523.0</ele><time>2026-04-06T08:45:03.005Z</time></trkpt><trkpt lat="45.6318345" lon="10.8314423"><ele>522.6666666666667</ele><time>2026-04-06T08:45:04.006Z</time></trkpt><trkpt lat="45.6318371" lon="10.8316685"><ele>522.3333333333334</ele><time>2026-04-06T08:45:05.004Z</time></trkpt><trkpt lat="45.6318292" lon="10.8319201"><ele>522.0</ele><time>2026-04-06T08:45:06.005Z</time></trkpt><trkpt lat="45.6318224" lon="10.8321648"><ele>522.0</ele><time>2026-04-06T08:45:07.005Z</time></trkpt><trkpt lat="45.6318201" lon="10.8324178"><ele>522.0</ele><time>2026-04-06T08:45:08.004Z</time></trkpt><trkpt lat="45.6318213" lon="10.8326592"><ele>522.0</ele><time>2026-04-06T08:45:09.006Z</time></trkpt><trkpt lat="45.6318182" lon="10.8328805"><ele>524.0</ele><time>2026-04-06T08:45:10.004Z</time></trkpt><trkpt lat="45.6318103" lon="10.8331078"><ele>526.0</ele><time>2026-04-06T08:45:11.005Z</time></trkpt><trkpt lat="45.6318021" lon="10.833335"><ele>528.0</ele><time>2026-04-06T08:45:12.005Z</time></trkpt><trkpt lat="45.6317973" lon="10.8335682"><ele>529.0</ele><time>2026-04-06T08:45:13.004Z</time></trkpt><trkpt lat="45.6317946" lon="10.8338142"><ele>530.0</ele><time>2026-04-06T08:45:14.004Z</time></trkpt><trkpt lat="45.6317883" lon="10.8340401"><ele>531.0</ele><time>2026-04-06T08:45:15.005Z</time></trkpt><trkpt lat="45.6317838" lon="10.8342485"><ele>531.5</ele><time>2026-04-06T08:45:16.005Z</time></trkpt><trkpt lat="45.6317816" lon="10.8344511"><ele>532.0</ele><time>2026-04-06T08:45:17.004Z</time></trkpt><trkpt lat="45.6317822" lon="10.8346381"><ele>532.5</ele><time>2026-04-06T08:45:18.004Z</time></trkpt><trkpt lat="45.6317954" lon="10.8348059"><ele>533.0</ele><time>2026-04-06T08:45:19.005Z</time></trkpt><trkpt lat="45.6318315" lon="10.8349678"><ele>533.0</ele><time>2026-04-06T08:45:20.006Z</time></trkpt><trkpt lat="45.6319001" lon="10.8351147"><ele>533.0</ele><time>2026-04-06T08:45:21.005Z</time></trkpt><trkpt lat="45.6320005" lon="10.8352476"><ele>533.0</ele><time>2026-04-06T08:45:22.005Z</time></trkpt><trkpt lat="45.6321306" lon="10.8353717"><ele>533.0</ele><time>2026-04-06T08:45:23.004Z</time></trkpt><trkpt lat="45.6322838" lon="10.835495"><ele>533.6666666666666</ele><time>2026-04-06T08:45:24.006Z</time></trkpt><trkpt lat="45.6324378" lon="10.8356171"><ele>534.3333333333334</ele><time>2026-04-06T08:45:25.005Z</time></trkpt><trkpt lat="45.6325945" lon="10.835753"><ele>535.0</ele><time>2026-04-06T08:45:26.005Z</time></trkpt><trkpt lat="45.6327393" lon="10.8358819"><ele>537.0</ele><time>2026-04-06T08:45:27.006Z</time></trkpt><trkpt lat="45.632887" lon="10.836006"><ele>539.0</ele><time>2026-04-06T08:45:28.004Z</time></trkpt><trkpt lat="45.6330352" lon="10.8361223"><ele>541.0</ele><time>2026-04-06T08:45:29.005Z</time></trkpt><trkpt lat="45.6331921" lon="10.8362151"><ele>541.0</ele><time>2026-04-06T08:45:30.004Z</time></trkpt><trkpt lat="45.6333608" lon="10.8362777"><ele>541.0</ele><time>2026-04-06T08:45:31.005Z</time></trkpt><trkpt lat="45.6335405" lon="10.8363177"><ele>541.0</ele><time>2026-04-06T08:45:32.004Z</time></trkpt><trkpt lat="45.6337096" lon="10.8363721"><ele>548.0</ele><time>2026-04-06T08:45:33.004Z</time></trkpt><trkpt lat="45.633873" lon="10.8364723"><ele>555.0</ele><time>2026-04-06T08:45:34.004Z</time></trkpt><trkpt lat="45.6340371" lon="10.8366007"><ele>562.0</ele><time>2026-04-06T08:45:35.005Z</time></trkpt><trkpt lat="45.6341905" lon="10.8367395"><ele>561.6666666666667</ele><time>2026-04-06T08:45:36.005Z</time></trkpt><trkpt lat="45.6343331" lon="10.8368741"><ele>561.3333333333334</ele><time>2026-04-06T08:45:37.005Z</time></trkpt><trkpt lat="45.6344781" lon="10.8370146"><ele>561.0</ele><time>2026-04-06T08:45:38.005Z</time></trkpt><trkpt lat="45.634617" lon="10.8371478"><ele>561.0</ele><time>2026-04-06T08:45:39.005Z</time></trkpt><trkpt lat="45.6347485" lon="10.8372736"><ele>561.0</ele><time>2026-04-06T08:45:40.004Z</time></trkpt><trkpt lat="45.634877" lon="10.8373998"><ele>561.0</ele><time>2026-04-06T08:45:41.004Z</time></trkpt><trkpt lat="45.6349981" lon="10.8375135"><ele>561.0</ele><time>2026-04-06T08:45:42.005Z</time></trkpt><trkpt lat="45.6351289" lon="10.8376046"><ele>561.0</ele><time>2026-04-06T08:45:43.004Z</time></trkpt><trkpt lat="45.6352724" lon="10.8376609"><ele>561.0</ele><time>2026-04-06T08:45:44.004Z</time></trkpt><trkpt lat="45.6354258" lon="10.8376903"><ele>561.0</ele><time>2026-04-06T08:45:45.004Z</time></trkpt><trkpt lat="45.6355866" lon="10.8376998"><ele>561.75</ele><time>2026-04-06T08:45:46.005Z</time></trkpt><trkpt lat="45.6357431" lon="10.8376836"><ele>562.5</ele><time>2026-04-06T08:45:47.004Z</time></trkpt><trkpt lat="45.6358843" lon="10.8376387"><ele>563.25</ele><time>2026-04-06T08:45:48.005Z</time></trkpt><trkpt lat="45.6360095" lon="10.8375872"><ele>564.0</ele><time>2026-04-06T08:45:49.005Z</time></trkpt><trkpt lat="45.6361193" lon="10.837568"><ele>566.75</ele><time>2026-04-06T08:45:50.004Z</time></trkpt><trkpt lat="45.6362316" lon="10.8375876"><ele>569.5</ele><time>2026-04-06T08:45:51.006Z</time></trkpt><trkpt lat="45.6363539" lon="10.8376475"><ele>572.25</ele><time>2026-04-06T08:45:52.004Z</time></trkpt><trkpt lat="45.6364774" lon="10.8377247"><ele>575.0</ele><time>2026-04-06T08:45:53.004Z</time></trkpt><trkpt lat="45.6365791" lon="10.8377966"><ele>575.0</ele><time>2026-04-06T08:45:54.004Z</time></trkpt><trkpt lat="45.6366502" lon="10.8378766"><ele>575.0</ele><time>2026-04-06T08:45:55.004Z</time></trkpt><trkpt lat="45.6367101" lon="10.8379935"><ele>575.0</ele><time>2026-04-06T08:45:56.005Z</time></trkpt><trkpt lat="45.6367577" lon="10.8381358"><ele>575.0</ele><time>2026-04-06T08:45:57.005Z</time></trkpt><trkpt lat="45.63678" lon="10.8382713"><ele>575.0</ele><time>2026-04-06T08:45:58.005Z</time></trkpt><trkpt lat="45.6367739" lon="10.8384038"><ele>579.8</ele><time>2026-04-06T08:45:59.005Z</time></trkpt><trkpt lat="45.6367398" lon="10.8385264"><ele>584.6</ele><time>2026-04-06T08:46:00.005Z</time></trkpt><trkpt lat="45.6366607" lon="10.8386208"><ele>589.4</ele><time>2026-04-06T08:46:01.005Z</time></trkpt><trkpt lat="45.6365593" lon="10.8386942"><ele>594.2</ele><time>2026-04-06T08:46:02.006Z</time></trkpt><trkpt lat="45.6364268" lon="10.8387438"><ele>599.0</ele><time>2026-04-06T08:46:03.005Z</time></trkpt><trkpt lat="45.6362691" lon="10.838776"><ele>596.3333333333333</ele><time>2026-04-06T08:46:04.006Z</time></trkpt><trkpt lat="45.6360956" lon="10.8387965"><ele>593.6666666666666</ele><time>2026-04-06T08:46:05.004Z</time></trkpt><trkpt lat="45.6359302" lon="10.8388175"><ele>591.0</ele><time>2026-04-06T08:46:06.005Z</time></trkpt><trkpt lat="45.6357531" lon="10.8388635"><ele>591.0</ele><time>2026-04-06T08:46:07.005Z</time></trkpt><trkpt lat="45.6355807" lon="10.8389334"><ele>591.0</ele><time>2026-04-06T08:46:08.005Z</time></trkpt><trkpt lat="45.6354196" lon="10.8390103"><ele>591.0</ele><time>2026-04-06T08:46:09.005Z</time></trkpt><trkpt lat="45.6352635" lon="10.8390738"><ele>589.6666666666666</ele><time>2026-04-06T08:46:10.006Z</time></trkpt><trkpt lat="45.6351132" lon="10.8391026"><ele>588.3333333333333</ele><time>2026-04-06T08:46:11.006Z</time></trkpt><trkpt lat="45.6349576" lon="10.8391097"><ele>587.0</ele><time>2026-04-06T08:46:12.004Z</time></trkpt><trkpt lat="45.6348003" lon="10.8391069"><ele>587.0</ele><time>2026-04-06T08:46:13.004Z</time></trkpt><trkpt lat="45.634639" lon="10.8391064"><ele>587.0</ele><time>2026-04-06T08:46:14.005Z</time></trkpt><trkpt lat="45.6344741" lon="10.8391098"><ele>587.0</ele><time>2026-04-06T08:46:15.005Z</time></trkpt><trkpt lat="45.6343064" lon="10.8391247"><ele>587.6666666666666</ele><time>2026-04-06T08:46:16.005Z</time></trkpt><trkpt lat="45.6341402" lon="10.8391532"><ele>588.3333333333334</ele><time>2026-04-06T08:46:17.005Z</time></trkpt><trkpt lat="45.633992" lon="10.839183"><ele>589.0</ele><time>2026-04-06T08:46:18.005Z</time></trkpt><trkpt lat="45.6338556" lon="10.8392146"><ele>589.0</ele><time>2026-04-06T08:46:19.005Z</time></trkpt><trkpt lat="45.6337263" lon="10.8392552"><ele>589.0</ele><time>2026-04-06T08:46:20.004Z</time></trkpt><trkpt lat="45.6335967" lon="10.8393129"><ele>589.0</ele><time>2026-04-06T08:46:21.004Z</time></trkpt><trkpt lat="45.6334687" lon="10.8393996"><ele>589.0</ele><time>2026-04-06T08:46:22.005Z</time></trkpt><trkpt lat="45.6333398" lon="10.8395152"><ele>592.0</ele><time>2026-04-06T08:46:23.005Z</time></trkpt><trkpt lat="45.633212" lon="10.8396545"><ele>595.0</ele><time>2026-04-06T08:46:24.005Z</time></trkpt><trkpt lat="45.6330959" lon="10.8397868"><ele>598.0</ele><time>2026-04-06T08:46:25.004Z</time></trkpt><trkpt lat="45.6329876" lon="10.8399106"><ele>601.0</ele><time>2026-04-06T08:46:26.004Z</time></trkpt><trkpt lat="45.6328877" lon="10.8400304"><ele>598.75</ele><time>2026-04-06T08:46:27.004Z</time></trkpt><trkpt lat="45.632801" lon="10.8401557"><ele>596.5</ele><time>2026-04-06T08:46:28.004Z</time></trkpt><trkpt lat="45.6327381" lon="10.8403071"><ele>594.25</ele><time>2026-04-06T08:46:29.004Z</time></trkpt><trkpt lat="45.6327021" lon="10.8404767"><ele>592.0</ele><time>2026-04-06T08:46:30.005Z</time></trkpt><trkpt lat="45.6327116" lon="10.8406654"><ele>592.0</ele><time>2026-04-06T08:46:31.004Z</time></trkpt><trkpt lat="45.6327595" lon="10.8408517"><ele>592.0</ele><time>2026-04-06T08:46:32.005Z</time></trkpt><trkpt lat="45.6328409" lon="10.8410492"><ele>592.0</ele><time>2026-04-06T08:46:33.004Z</time></trkpt><trkpt lat="45.6329485" lon="10.841253"><ele>595.0</ele><time>2026-04-06T08:46:34.005Z</time></trkpt><trkpt lat="45.633067" lon="10.8414529"><ele>598.0</ele><time>2026-04-06T08:46:35.005Z</time></trkpt><trkpt lat="45.633204" lon="10.8416737"><ele>601.0</ele><time>2026-04-06T08:46:36.005Z</time></trkpt><trkpt lat="45.6333533" lon="10.841908"><ele>601.0</ele><time>2026-04-06T08:46:37.005Z</time></trkpt><trkpt lat="45.6334871" lon="10.8421177"><ele>601.0</ele><time>2026-04-06T08:46:38.005Z</time></trkpt><trkpt lat="45.6336125" lon="10.8423184"><ele>601.0</ele><time>2026-04-06T08:46:39.004Z</time></trkpt><trkpt lat="45.6337302" lon="10.842502"><ele>605.25</ele><time>2026-04-06T08:46:40.004Z</time></trkpt><trkpt lat="45.6338387" lon="10.8426722"><ele>609.5</ele><time>2026-04-06T08:46:41.005Z</time></trkpt><trkpt lat="45.6339386" lon="10.8428313"><ele>613.75</ele><time>2026-04-06T08:46:42.004Z</time></trkpt><trkpt lat="45.6340248" lon="10.8429709"><ele>618.0</ele><time>2026-04-06T08:46:43.005Z</time></trkpt><trkpt lat="45.6340983" lon="10.8430971"><ele>618.0</ele><time>2026-04-06T08:46:44.006Z</time></trkpt><trkpt lat="45.6341469" lon="10.8432222"><ele>618.0</ele><time>2026-04-06T08:46:45.005Z</time></trkpt><trkpt lat="45.6341719" lon="10.843353"><ele>618.0</ele><time>2026-04-06T08:46:46.004Z</time></trkpt><trkpt lat="45.6341689" lon="10.8434765"><ele>618.0</ele><time>2026-04-06T08:46:47.006Z</time></trkpt><trkpt lat="45.6341279" lon="10.8435899"><ele>618.0</ele><time>2026-04-06T08:46:48.004Z</time></trkpt><trkpt lat="45.6340641" lon="10.8436825"><ele>619.25</ele><time>2026-04-06T08:46:49.004Z</time></trkpt><trkpt lat="45.6339748" lon="10.8437426"><ele>620.5</ele><time>2026-04-06T08:46:50.006Z</time></trkpt><trkpt lat="45.6338584" lon="10.8437753"><ele>621.75</ele><time>2026-04-06T08:46:51.005Z</time></trkpt><trkpt lat="45.6337172" lon="10.8437996"><ele>623.0</ele><time>2026-04-06T08:46:52.005Z</time></trkpt><trkpt lat="45.6335501" lon="10.8438258"><ele>624.6666666666666</ele><time>2026-04-06T08:46:53.005Z</time></trkpt><trkpt lat="45.6333612" lon="10.8438589"><ele>626.3333333333334</ele><time>2026-04-06T08:46:54.004Z</time></trkpt><trkpt lat="45.6331801" lon="10.8438915"><ele>628.0</ele><time>2026-04-06T08:46:55.005Z</time></trkpt><trkpt lat="45.6329894" lon="10.8439174"><ele>628.0</ele><time>2026-04-06T08:46:56.005Z</time></trkpt><trkpt lat="45.6328134" lon="10.8439138"><ele>628.0</ele><time>2026-04-06T08:46:57.004Z</time></trkpt><trkpt lat="45.6326403" lon="10.8438739"><ele>628.0</ele><time>2026-04-06T08:46:58.005Z</time></trkpt><trkpt lat="45.6324751" lon="10.8438107"><ele>629.3333333333334</ele><time>2026-04-06T08:46:59.005Z</time></trkpt><trkpt lat="45.63231" lon="10.8437559"><ele>630.6666666666666</ele><time>2026-04-06T08:47:00.004Z</time></trkpt><trkpt lat="45.6321518" lon="10.8437165"><ele>632.0</ele><time>2026-04-06T08:47:01.004Z</time></trkpt><trkpt lat="45.6319917" lon="10.8436878"><ele>636.0</ele><time>2026-04-06T08:47:02.005Z</time></trkpt><trkpt lat="45.6318341" lon="10.8436704"><ele>640.0</ele><time>2026-04-06T08:47:03.004Z</time></trkpt><trkpt lat="45.631676" lon="10.8436569"><ele>644.0</ele><time>2026-04-06T08:47:04.006Z</time></trkpt><trkpt lat="45.6315203" lon="10.8436467"><ele>644.0</ele><time>2026-04-06T08:47:05.004Z</time></trkpt><trkpt lat="45.6313746" lon="10.8436378"><ele>644.0</ele><time>2026-04-06T08:47:06.005Z</time></trkpt><trkpt lat="45.6312424" lon="10.8436296"><ele>644.0</ele><time>2026-04-06T08:47:07.005Z</time></trkpt><trkpt lat="45.6311252" lon="10.843626"><ele>644.0</ele><time>2026-04-06T08:47:08.005Z</time></trkpt><trkpt lat="45.6310127" lon="10.8436443"><ele>642.8000000000001</ele><time>2026-04-06T08:47:09.006Z</time></trkpt><trkpt lat="45.6309099" lon="10.8437067"><ele>641.6</ele><time>2026-04-06T08:47:10.004Z</time></trkpt><trkpt lat="45.6308344" lon="10.8438119"><ele>640.4</ele><time>2026-04-06T08:47:11.005Z</time></trkpt><trkpt lat="45.6307896" lon="10.84395"><ele>639.2</ele><time>2026-04-06T08:47:12.004Z</time></trkpt><trkpt lat="45.6307766" lon="10.8441058"><ele>638.0</ele><time>2026-04-06T08:47:13.005Z</time></trkpt><trkpt lat="45.6307933" lon="10.8442781"><ele>640.0</ele><time>2026-04-06T08:47:14.005Z</time></trkpt><trkpt lat="45.6308335" lon="10.8444791"><ele>642.0</ele><time>2026-04-06T08:47:15.005Z</time></trkpt><trkpt lat="45.6308657" lon="10.8447174"><ele>644.0</ele><time>2026-04-06T08:47:16.004Z</time></trkpt><trkpt lat="45.6308785" lon="10.8449491"><ele>646.25</ele><time>2026-04-06T08:47:17.005Z</time></trkpt><trkpt lat="45.63088" lon="10.8451559"><ele>648.5</ele><time>2026-04-06T08:47:18.005Z</time></trkpt><trkpt lat="45.6308786" lon="10.8453357"><ele>650.75</ele><time>2026-04-06T08:47:19.004Z</time></trkpt><trkpt lat="45.630863" lon="10.8454815"><ele>653.0</ele><time>2026-04-06T08:47:20.005Z</time></trkpt><trkpt lat="45.6308303" lon="10.8456066"><ele>653.0</ele><time>2026-04-06T08:47:21.004Z</time></trkpt><trkpt lat="45.6307675" lon="10.8457111"><ele>653.0</ele><time>2026-04-06T08:47:22.005Z</time></trkpt><trkpt lat="45.6306843" lon="10.8457762"><ele>653.0</ele><time>2026-04-06T08:47:23.004Z</time></trkpt><trkpt lat="45.6305766" lon="10.8457967"><ele>653.0</ele><time>2026-04-06T08:47:24.004Z</time></trkpt><trkpt lat="45.6304462" lon="10.8457749"><ele>653.0</ele><time>2026-04-06T08:47:25.005Z</time></trkpt><trkpt lat="45.6303078" lon="10.8457202"><ele>654.75</ele><time>2026-04-06T08:47:26.005Z</time></trkpt><trkpt lat="45.6301689" lon="10.845655"><ele>656.5</ele><time>2026-04-06T08:47:27.004Z</time></trkpt><trkpt lat="45.630026" lon="10.8455888"><ele>658.25</ele><time>2026-04-06T08:47:28.005Z</time></trkpt><trkpt lat="45.6298836" lon="10.8455271"><ele>660.0</ele><time>2026-04-06T08:47:29.005Z</time></trkpt><trkpt lat="45.6297445" lon="10.8454733"><ele>660.0</ele><time>2026-04-06T08:47:30.006Z</time></trkpt><trkpt lat="45.6296152" lon="10.8454188"><ele>660.0</ele><time>2026-04-06T08:47:31.004Z</time></trkpt><trkpt lat="45.6294873" lon="10.8453587"><ele>660.0</ele><time>2026-04-06T08:47:32.004Z</time></trkpt><trkpt lat="45.6293494" lon="10.8452964"><ele>660.0</ele><time>2026-04-06T08:47:33.005Z</time></trkpt><trkpt lat="45.629215" lon="10.8452387"><ele>659.0</ele><time>2026-04-06T08:47:34.004Z</time></trkpt><trkpt lat="45.6290841" lon="10.8451838"><ele>658.0</ele><time>2026-04-06T08:47:35.005Z</time></trkpt><trkpt lat="45.6289544" lon="10.8451246"><ele>657.0</ele><time>2026-04-06T08:47:36.005Z</time></trkpt><trkpt lat="45.6288193" lon="10.8450741"><ele>656.0</ele><time>2026-04-06T08:47:37.006Z</time></trkpt><trkpt lat="45.628683" lon="10.8450416"><ele>658.75</ele><time>2026-04-06T08:47:38.004Z</time></trkpt><trkpt lat="45.6285447" lon="10.8450353"><ele>661.5</ele><time>2026-04-06T08:47:39.005Z</time></trkpt><trkpt lat="45.6284212" lon="10.8450478"><ele>664.25</ele><time>2026-04-06T08:47:40.005Z</time></trkpt><trkpt lat="45.6282995" lon="10.8450798"><ele>667.0</ele><time>2026-04-06T08:47:41.004Z</time></trkpt><trkpt lat="45.6281895" lon="10.8451314"><ele>668.75</ele><time>2026-04-06T08:47:42.004Z</time></trkpt><trkpt lat="45.6280782" lon="10.8452079"><ele>670.5</ele><time>2026-04-06T08:47:43.006Z</time></trkpt><trkpt lat="45.6279637" lon="10.8453124"><ele>672.25</ele><time>2026-04-06T08:47:44.005Z</time></trkpt><trkpt lat="45.6278594" lon="10.8454338"><ele>674.0</ele><time>2026-04-06T08:47:45.004Z</time></trkpt><trkpt lat="45.6277737" lon="10.8455475"><ele>674.0</ele><time>2026-04-06T08:47:46.005Z</time></trkpt><trkpt lat="45.627697" lon="10.8456551"><ele>674.0</ele><time>2026-04-06T08:47:47.006Z</time></trkpt><trkpt lat="45.6276133" lon="10.8457617"><ele>674.0</ele><time>2026-04-06T08:47:48.005Z</time></trkpt><trkpt lat="45.6275226" lon="10.8458606"><ele>674.0</ele><time>2026-04-06T08:47:49.005Z</time></trkpt><trkpt lat="45.6274327" lon="10.8459397"><ele>674.0</ele><time>2026-04-06T08:47:50.004Z</time></trkpt><trkpt lat="45.6273424" lon="10.8460033"><ele>675.0</ele><time>2026-04-06T08:47:51.004Z</time></trkpt><trkpt lat="45.6272485" lon="10.84605"><ele>676.0</ele><time>2026-04-06T08:47:52.005Z</time></trkpt><trkpt lat="45.6271563" lon="10.8461011"><ele>677.0</ele><time>2026-04-06T08:47:53.005Z</time></trkpt><trkpt lat="45.6270627" lon="10.8461617"><ele>678.0</ele><time>2026-04-06T08:47:54.005Z</time></trkpt><trkpt lat="45.6269662" lon="10.8462369"><ele>679.0</ele><time>2026-04-06T08:47:55.004Z</time></trkpt><trkpt lat="45.626871" lon="10.8463286"><ele>679.0</ele><time>2026-04-06T08:47:56.005Z</time></trkpt><trkpt lat="45.6267794" lon="10.8464334"><ele>679.0</ele><time>2026-04-06T08:47:57.004Z</time></trkpt><trkpt lat="45.6266986" lon="10.8465546"><ele>679.0</ele><time>2026-04-06T08:47:58.005Z</time></trkpt><trkpt lat="45.6266235" lon="10.8466889"><ele>679.0</ele><time>2026-04-06T08:47:59.005Z</time></trkpt><trkpt lat="45.6265643" lon="10.8468342"><ele>680.6</ele><time>2026-04-06T08:48:00.005Z</time></trkpt><trkpt lat="45.6265163" lon="10.846988"><ele>682.2</ele><time>2026-04-06T08:48:01.004Z</time></trkpt><trkpt lat="45.6264829" lon="10.8471451"><ele>683.8000000000001</ele><time>2026-04-06T08:48:02.005Z</time></trkpt><trkpt lat="45.6264643" lon="10.8472848"><ele>685.4000000000001</ele><time>2026-04-06T08:48:03.005Z</time></trkpt><trkpt lat="45.6264555" lon="10.8474342"><ele>687.0</ele><time>2026-04-06T08:48:04.004Z</time></trkpt><trkpt lat="45.6264633" lon="10.84759"><ele>688.6</ele><time>2026-04-06T08:48:05.005Z</time></trkpt><trkpt lat="45.6264775" lon="10.8477383"><ele>690.2</ele><time>2026-04-06T08:48:06.004Z</time></trkpt><trkpt lat="45.6264859" lon="10.8478887"><ele>691.8</ele><time>2026-04-06T08:48:07.005Z</time></trkpt><trkpt lat="45.6264926" lon="10.848042"><ele>693.4</ele><time>2026-04-06T08:48:08.004Z</time></trkpt><trkpt lat="45.6265022" lon="10.8481975"><ele>695.0</ele><time>2026-04-06T08:48:09.004Z</time></trkpt><trkpt lat="45.626515" lon="10.8483531"><ele>698.0</ele><time>2026-04-06T08:48:10.006Z</time></trkpt><trkpt lat="45.6265268" lon="10.8485067"><ele>701.0</ele><time>2026-04-06T08:48:11.004Z</time></trkpt><trkpt lat="45.6265535" lon="10.8486366"><ele>704.0</ele><time>2026-04-06T08:48:12.004Z</time></trkpt><trkpt lat="45.6266032" lon="10.848751"><ele>707.0</ele><time>2026-04-06T08:48:13.004Z</time></trkpt><trkpt lat="45.6266739" lon="10.8488365"><ele>710.0</ele><time>2026-04-06T08:48:14.006Z</time></trkpt><trkpt lat="45.6267558" lon="10.8488727"><ele>710.0</ele><time>2026-04-06T08:48:15.006Z</time></trkpt><trkpt lat="45.6268448" lon="10.8488709"><ele>710.0</ele><time>2026-04-06T08:48:16.004Z</time></trkpt><trkpt lat="45.6269348" lon="10.8488024"><ele>710.0</ele><time>2026-04-06T08:48:17.005Z</time></trkpt><trkpt lat="45.6270202" lon="10.8486973"><ele>710.0</ele><time>2026-04-06T08:48:18.005Z</time></trkpt><trkpt lat="45.6271051" lon="10.8485529"><ele>710.0</ele><time>2026-04-06T08:48:19.005Z</time></trkpt><trkpt lat="45.6271848" lon="10.8483901"><ele>711.0</ele><time>2026-04-06T08:48:20.005Z</time></trkpt><trkpt lat="45.6272584" lon="10.8482366"><ele>712.0</ele><time>2026-04-06T08:48:21.005Z</time></trkpt><trkpt lat="45.6273357" lon="10.8480812"><ele>713.0</ele><time>2026-04-06T08:48:22.005Z</time></trkpt><trkpt lat="45.6274075" lon="10.8479421"><ele>714.0</ele><time>2026-04-06T08:48:23.004Z</time></trkpt><trkpt lat="45.6274774" lon="10.8478081"><ele>714.0</ele><time>2026-04-06T08:48:24.004Z</time></trkpt><trkpt lat="45.6275467" lon="10.8476775"><ele>714.0</ele><time>2026-04-06T08:48:25.004Z</time></trkpt><trkpt lat="45.6276189" lon="10.8475542"><ele>714.0</ele><time>2026-04-06T08:48:26.004Z</time></trkpt><trkpt lat="45.6276933" lon="10.8474442"><ele>714.0</ele><time>2026-04-06T08:48:27.004Z</time></trkpt><trkpt lat="45.6277869" lon="10.8473441"><ele>714.25</ele><time>2026-04-06T08:48:28.006Z</time></trkpt><trkpt lat="45.6278933" lon="10.8472622"><ele>714.5</ele><time>2026-04-06T08:48:29.004Z</time></trkpt><trkpt lat="45.628012" lon="10.8472033"><ele>714.75</ele><time>2026-04-06T08:48:30.005Z</time></trkpt><trkpt lat="45.6281383" lon="10.8471732"><ele>715.0</ele><time>2026-04-06T08:48:31.004Z</time></trkpt><trkpt lat="45.6282696" lon="10.8471752"><ele>715.0</ele><time>2026-04-06T08:48:32.005Z</time></trkpt><trkpt lat="45.6283997" lon="10.8472082"><ele>715.0</ele><time>2026-04-06T08:48:33.004Z</time></trkpt><trkpt lat="45.6285136" lon="10.8472678"><ele>715.0</ele><time>2026-04-06T08:48:34.006Z</time></trkpt><trkpt lat="45.6286371" lon="10.8473597"><ele>715.0</ele><time>2026-04-06T08:48:35.004Z</time></trkpt><trkpt lat="45.6287702" lon="10.8474898"><ele>718.0</ele><time>2026-04-06T08:48:36.004Z</time></trkpt><trkpt lat="45.6289041" lon="10.8476318"><ele>721.0</ele><time>2026-04-06T08:48:37.005Z</time></trkpt><trkpt lat="45.6290221" lon="10.8477532"><ele>724.0</ele><time>2026-04-06T08:48:38.006Z</time></trkpt><trkpt lat="45.6291343" lon="10.8478705"><ele>724.0</ele><time>2026-04-06T08:48:39.005Z</time></trkpt><trkpt lat="45.6292384" lon="10.8479853"><ele>724.0</ele><time>2026-04-06T08:48:40.004Z</time></trkpt><trkpt lat="45.6293435" lon="10.8480962"><ele>724.0</ele><time>2026-04-06T08:48:41.005Z</time></trkpt><trkpt lat="45.6294426" lon="10.8481904"><ele>724.0</ele><time>2026-04-06T08:48:42.005Z</time></trkpt><trkpt lat="45.6295481" lon="10.848282"><ele>723.5</ele><time>2026-04-06T08:48:43.004Z</time></trkpt><trkpt lat="45.6296577" lon="10.8483763"><ele>723.0</ele><time>2026-04-06T08:48:44.004Z</time></trkpt><trkpt lat="45.6297799" lon="10.8484643"><ele>722.5</ele><time>2026-04-06T08:48:45.004Z</time></trkpt><trkpt lat="45.6299108" lon="10.8485436"><ele>722.0</ele><time>2026-04-06T08:48:46.004Z</time></trkpt><trkpt lat="45.6300471" lon="10.8486229"><ele>727.0</ele><time>2026-04-06T08:48:47.006Z</time></trkpt><trkpt lat="45.6301831" lon="10.8487041"><ele>732.0</ele><time>2026-04-06T08:48:48.006Z</time></trkpt><trkpt lat="45.6303188" lon="10.8487825"><ele>737.0</ele><time>2026-04-06T08:48:49.004Z</time></trkpt><trkpt lat="45.6304574" lon="10.8488586"><ele>742.0</ele><time>2026-04-06T08:48:50.005Z</time></trkpt><trkpt lat="45.6305977" lon="10.8489312"><ele>742.3333333333334</ele><time>2026-04-06T08:48:51.005Z</time></trkpt><trkpt lat="45.6307418" lon="10.8490068"><ele>742.6666666666666</ele><time>2026-04-06T08:48:52.005Z</time></trkpt><trkpt lat="45.6308882" lon="10.8490891"><ele>743.0</ele><time>2026-04-06T08:48:53.005Z</time></trkpt><trkpt lat="45.6310387" lon="10.8491759"><ele>741.0</ele><time>2026-04-06T08:48:54.005Z</time></trkpt><trkpt lat="45.631193" lon="10.8492631"><ele>739.0</ele><time>2026-04-06T08:48:55.006Z</time></trkpt><trkpt lat="45.6313508" lon="10.8493503"><ele>737.0</ele><time>2026-04-06T08:48:56.005Z</time></trkpt><trkpt lat="45.6315121" lon="10.8494379"><ele>743.0</ele><time>2026-04-06T08:48:57.004Z</time></trkpt><trkpt lat="45.6316755" lon="10.849524"><ele>749.0</ele><time>2026-04-06T08:48:58.004Z</time></trkpt><trkpt lat="45.6318345" lon="10.8496121"><ele>755.0</ele><time>2026-04-06T08:48:59.004Z</time></trkpt><trkpt lat="45.6319888" lon="10.8497027"><ele>755.0</ele><time>2026-04-06T08:49:00.005Z</time></trkpt><trkpt lat="45.6321385" lon="10.8497928"><ele>755.0</ele><time>2026-04-06T08:49:01.006Z</time></trkpt><trkpt lat="45.6322833" lon="10.8498763"><ele>755.0</ele><time>2026-04-06T08:49:02.005Z</time></trkpt><trkpt lat="45.6324161" lon="10.8499486"><ele>755.0</ele><time>2026-04-06T08:49:03.004Z</time></trkpt><trkpt lat="45.6325421" lon="10.850016"><ele>755.0</ele><time>2026-04-06T08:49:04.005Z</time></trkpt><trkpt lat="45.6326679" lon="10.8500851"><ele>755.0</ele><time>2026-04-06T08:49:05.004Z</time></trkpt><trkpt lat="45.632793" lon="10.8501541"><ele>755.0</ele><time>2026-04-06T08:49:06.005Z</time></trkpt><trkpt lat="45.6329189" lon="10.8502228"><ele>758.75</ele><time>2026-04-06T08:49:07.005Z</time></trkpt><trkpt lat="45.6330445" lon="10.8502961"><ele>762.5</ele><time>2026-04-06T08:49:08.004Z</time></trkpt><trkpt lat="45.6331682" lon="10.8503743"><ele>766.25</ele><time>2026-04-06T08:49:09.005Z</time></trkpt><trkpt lat="45.633283" lon="10.8504609"><ele>770.0</ele><time>2026-04-06T08:49:10.005Z</time></trkpt><trkpt lat="45.6333928" lon="10.8505611"><ele>770.0</ele><time>2026-04-06T08:49:11.004Z</time></trkpt><trkpt lat="45.6334939" lon="10.850671"><ele>770.0</ele><time>2026-04-06T08:49:12.006Z</time></trkpt><trkpt lat="45.6335867" lon="10.8507896"><ele>770.0</ele><time>2026-04-06T08:49:13.005Z</time></trkpt><trkpt lat="45.6336737" lon="10.8509121"><ele>770.0</ele><time>2026-04-06T08:49:14.004Z</time></trkpt><trkpt lat="45.6337565" lon="10.8510373"><ele>770.75</ele><time>2026-04-06T08:49:15.004Z</time></trkpt><trkpt lat="45.6338378" lon="10.8511667"><ele>771.5</ele><time>2026-04-06T08:49:16.005Z</time></trkpt><trkpt lat="45.6339191" lon="10.8513017"><ele>772.25</ele><time>2026-04-06T08:49:17.005Z</time></trkpt><trkpt lat="45.6339985" lon="10.8514464"><ele>773.0</ele><time>2026-04-06T08:49:18.004Z</time></trkpt><trkpt lat="45.634076" lon="10.8516"><ele>773.0</ele><time>2026-04-06T08:49:19.004Z</time></trkpt><trkpt lat="45.6341552" lon="10.8517599"><ele>773.0</ele><time>2026-04-06T08:49:20.005Z</time></trkpt><trkpt lat="45.6342389" lon="10.8519252"><ele>773.0</ele><time>2026-04-06T08:49:21.005Z</time></trkpt><trkpt lat="45.6343294" lon="10.8520915"><ele>773.0</ele><time>2026-04-06T08:49:22.004Z</time></trkpt><trkpt lat="45.6344231" lon="10.8522599"><ele>773.6666666666667</ele><time>2026-04-06T08:49:23.005Z</time></trkpt><trkpt lat="45.6345157" lon="10.8524366"><ele>774.3333333333333</ele><time>2026-04-06T08:49:24.004Z</time></trkpt><trkpt lat="45.6346057" lon="10.8526141"><ele>775.0</ele><time>2026-04-06T08:49:25.005Z</time></trkpt><trkpt lat="45.6346956" lon="10.8527782"><ele>780.25</ele><time>2026-04-06T08:49:26.005Z</time></trkpt><trkpt lat="45.6347931" lon="10.8529143"><ele>785.5</ele><time>2026-04-06T08:49:27.005Z</time></trkpt><trkpt lat="45.6349013" lon="10.8530294"><ele>790.75</ele><time>2026-04-06T08:49:28.004Z</time></trkpt><trkpt lat="45.63502" lon="10.8531265"><ele>796.0</ele><time>2026-04-06T08:49:29.005Z</time></trkpt><trkpt lat="45.6351494" lon="10.8532021"><ele>796.0</ele><time>2026-04-06T08:49:30.005Z</time></trkpt><trkpt lat="45.6352887" lon="10.8532558"><ele>796.0</ele><time>2026-04-06T08:49:31.005Z</time></trkpt><trkpt lat="45.635436" lon="10.8532943"><ele>796.0</ele><time>2026-04-06T08:49:32.005Z</time></trkpt><trkpt lat="45.6355891" lon="10.8533262"><ele>796.0</ele><time>2026-04-06T08:49:33.004Z</time></trkpt><trkpt lat="45.635742" lon="10.853358"><ele>795.0</ele><time>2026-04-06T08:49:34.005Z</time></trkpt><trkpt lat="45.6358853" lon="10.8533916"><ele>794.0</ele><time>2026-04-06T08:49:35.004Z</time></trkpt><trkpt lat="45.6360172" lon="10.8534233"><ele>793.0</ele><time>2026-04-06T08:49:36.004Z</time></trkpt><trkpt lat="45.6361513" lon="10.8534526"><ele>792.0</ele><time>2026-04-06T08:49:37.005Z</time></trkpt><trkpt lat="45.6362876" lon="10.8534769"><ele>798.0</ele><time>2026-04-06T08:49:38.006Z</time></trkpt><trkpt lat="45.6364252" lon="10.8534981"><ele>804.0</ele><time>2026-04-06T08:49:39.004Z</time></trkpt><trkpt lat="45.6365669" lon="10.8535128"><ele>810.0</ele><time>2026-04-06T08:49:40.004Z</time></trkpt><trkpt lat="45.6367112" lon="10.8535104"><ele>816.0</ele><time>2026-04-06T08:49:41.006Z</time></trkpt><trkpt lat="45.6368628" lon="10.8534967"><ele>817.3333333333333</ele><time>2026-04-06T08:49:42.004Z</time></trkpt><trkpt lat="45.6370177" lon="10.8534789"><ele>818.6666666666666</ele><time>2026-04-06T08:49:43.005Z</time></trkpt><trkpt lat="45.6371715" lon="10.8534525"><ele>820.0</ele><time>2026-04-06T08:49:44.005Z</time></trkpt><trkpt lat="45.6373263" lon="10.853427"><ele>816.5</ele><time>2026-04-06T08:49:45.004Z</time></trkpt><trkpt lat="45.6374734" lon="10.8534056"><ele>813.0</ele><time>2026-04-06T08:49:46.005Z</time></trkpt><trkpt lat="45.6376202" lon="10.8533832"><ele>809.5</ele><time>2026-04-06T08:49:47.004Z</time></trkpt><trkpt lat="45.6377648" lon="10.8533555"><ele>806.0</ele><time>2026-04-06T08:49:48.006Z</time></trkpt><trkpt lat="45.6379124" lon="10.8533286"><ele>806.0</ele><time>2026-04-06T08:49:49.005Z</time></trkpt><trkpt lat="45.6380573" lon="10.8533043"><ele>806.0</ele><time>2026-04-06T08:49:50.004Z</time></trkpt><trkpt lat="45.6381984" lon="10.8532891"><ele>806.0</ele><time>2026-04-06T08:49:51.006Z</time></trkpt><trkpt lat="45.6383416" lon="10.853292"><ele>806.0</ele><time>2026-04-06T08:49:52.004Z</time></trkpt><trkpt lat="45.6384863" lon="10.853313"><ele>806.3333333333334</ele><time>2026-04-06T08:49:53.004Z</time></trkpt><trkpt lat="45.6386346" lon="10.85335"><ele>806.6666666666667</ele><time>2026-04-06T08:49:54.004Z</time></trkpt><trkpt lat="45.6387877" lon="10.8534063"><ele>807.0</ele><time>2026-04-06T08:49:55.005Z</time></trkpt><trkpt lat="45.6389393" lon="10.8534902"><ele>812.0</ele><time>2026-04-06T08:49:56.004Z</time></trkpt><trkpt lat="45.6390899" lon="10.8535922"><ele>817.0</ele><time>2026-04-06T08:49:57.005Z</time></trkpt><trkpt lat="45.6392402" lon="10.8537108"><ele>822.0</ele><time>2026-04-06T08:49:58.005Z</time></trkpt><trkpt lat="45.6393738" lon="10.8538444"><ele>820.3333333333333</ele><time>2026-04-06T08:49:59.006Z</time></trkpt><trkpt lat="45.6395027" lon="10.8539795"><ele>818.6666666666666</ele><time>2026-04-06T08:50:00.004Z</time></trkpt><trkpt lat="45.6396341" lon="10.8541115"><ele>817.0</ele><time>2026-04-06T08:50:01.004Z</time></trkpt><trkpt lat="45.6397634" lon="10.8542148"><ele>825.6666666666666</ele><time>2026-04-06T08:50:02.005Z</time></trkpt><trkpt lat="45.6399077" lon="10.8542969"><ele>834.3333333333333</ele><time>2026-04-06T08:50:03.005Z</time></trkpt><trkpt lat="45.6400657" lon="10.8543552"><ele>843.0</ele><time>2026-04-06T08:50:04.004Z</time></trkpt><trkpt lat="45.6402204" lon="10.854394"><ele>844.0</ele><time>2026-04-06T08:50:05.005Z</time></trkpt><trkpt lat="45.6403683" lon="10.8544249"><ele>845.0</ele><time>2026-04-06T08:50:06.005Z</time></trkpt><trkpt lat="45.6405183" lon="10.8544559"><ele>846.0</ele><time>2026-04-06T08:50:07.004Z</time></trkpt><trkpt lat="45.6406628" lon="10.8544847"><ele>847.0</ele><time>2026-04-06T08:50:08.005Z</time></trkpt><trkpt lat="45.640797" lon="10.85451"><ele>847.0</ele><time>2026-04-06T08:50:09.005Z</time></trkpt><trkpt lat="45.6409217" lon="10.8545337"><ele>847.0</ele><time>2026-04-06T08:50:10.005Z</time></trkpt><trkpt lat="45.6410505" lon="10.8545583"><ele>847.0</ele><time>2026-04-06T08:50:11.006Z</time></trkpt><trkpt lat="45.6411769" lon="10.8545831"><ele>847.0</ele><time>2026-04-06T08:50:12.004Z</time></trkpt><trkpt lat="45.6413036" lon="10.8546069"><ele>847.0</ele><time>2026-04-06T08:50:13.004Z</time></trkpt><trkpt lat="45.6414312" lon="10.8546322"><ele>847.0</ele><time>2026-04-06T08:50:14.006Z</time></trkpt><trkpt lat="45.6415589" lon="10.8546559"><ele>847.0</ele><time>2026-04-06T08:50:15.005Z</time></trkpt><trkpt lat="45.6416856" lon="10.854679"><ele>847.0</ele><time>2026-04-06T08:50:16.005Z</time></trkpt><trkpt lat="45.6417975" lon="10.854703"><ele>847.0</ele><time>2026-04-06T08:50:17.005Z</time></trkpt><trkpt lat="45.6418963" lon="10.8547229"><ele>847.0</ele><time>2026-04-06T08:50:18.005Z</time></trkpt><trkpt lat="45.6419927" lon="10.8547429"><ele>847.0</ele><time>2026-04-06T08:50:19.004Z</time></trkpt><trkpt lat="45.6420921" lon="10.8547632"><ele>847.0</ele><time>2026-04-06T08:50:20.004Z</time></trkpt><trkpt lat="45.64219" lon="10.8547878"><ele>847.0</ele><time>2026-04-06T08:50:21.005Z</time></trkpt><trkpt lat="45.6422903" lon="10.8548122"><ele>847.0</ele><time>2026-04-06T08:50:22.005Z</time></trkpt><trkpt lat="45.6423917" lon="10.8548307"><ele>847.0</ele><time>2026-04-06T08:50:23.004Z</time></trkpt><trkpt lat="45.6424928" lon="10.8548488"><ele>847.0</ele><time>2026-04-06T08:50:24.005Z</time></trkpt><trkpt lat="45.6425871" lon="10.854859"><ele>847.0</ele><time>2026-04-06T08:50:25.004Z</time></trkpt><trkpt lat="45.6426743" lon="10.8548624"><ele>847.0</ele><time>2026-04-06T08:50:26.005Z</time></trkpt><trkpt lat="45.6427728" lon="10.8548558"><ele>850.25</ele><time>2026-04-06T08:50:27.005Z</time></trkpt><trkpt lat="45.6428756" lon="10.8548336"><ele>853.5</ele><time>2026-04-06T08:50:28.006Z</time></trkpt><trkpt lat="45.6429801" lon="10.8547925"><ele>856.75</ele><time>2026-04-06T08:50:29.005Z</time></trkpt><trkpt lat="45.6430914" lon="10.8547383"><ele>860.0</ele><time>2026-04-06T08:50:30.004Z</time></trkpt><trkpt lat="45.6432111" lon="10.8546772"><ele>860.0</ele><time>2026-04-06T08:50:31.005Z</time></trkpt><trkpt lat="45.6433258" lon="10.8546229"><ele>860.0</ele><time>2026-04-06T08:50:32.005Z</time></trkpt><trkpt lat="45.643428" lon="10.8545573"><ele>860.0</ele><time>2026-04-06T08:50:33.004Z</time></trkpt><trkpt lat="45.6435152" lon="10.8544758"><ele>860.0</ele><time>2026-04-06T08:50:34.005Z</time></trkpt><trkpt lat="45.6435902" lon="10.8543892"><ele>860.0</ele><time>2026-04-06T08:50:35.005Z</time></trkpt><trkpt lat="45.6436556" lon="10.8543014"><ele>860.8</ele><time>2026-04-06T08:50:36.005Z</time></trkpt><trkpt lat="45.643717" lon="10.8541922"><ele>861.6</ele><time>2026-04-06T08:50:37.004Z</time></trkpt><trkpt lat="45.6437711" lon="10.8540643"><ele>862.4000000000001</ele><time>2026-04-06T08:50:38.004Z</time></trkpt><trkpt lat="45.6438158" lon="10.8539301"><ele>863.2</ele><time>2026-04-06T08:50:39.005Z</time></trkpt><trkpt lat="45.6438496" lon="10.8538022"><ele>864.0</ele><time>2026-04-06T08:50:40.005Z</time></trkpt><trkpt lat="45.6438847" lon="10.8536718"><ele>864.0</ele><time>2026-04-06T08:50:41.006Z</time></trkpt><trkpt lat="45.6439306" lon="10.8535619"><ele>864.0000000000001</ele><time>2026-04-06T08:50:42.006Z</time></trkpt><trkpt lat="45.6439862" lon="10.853473"><ele>864.0000000000001</ele><time>2026-04-06T08:50:43.004Z</time></trkpt><trkpt lat="45.6440593" lon="10.8533913"><ele>864.0</ele><time>2026-04-06T08:50:44.005Z</time></trkpt><trkpt lat="45.6441453" lon="10.8533204"><ele>864.0</ele><time>2026-04-06T08:50:45.005Z</time></trkpt><trkpt lat="45.6442415" lon="10.8532605"><ele>864.0</ele><time>2026-04-06T08:50:46.006Z</time></trkpt><trkpt lat="45.6443423" lon="10.8532034"><ele>864.0000000000001</ele><time>2026-04-06T08:50:47.006Z</time></trkpt><trkpt lat="45.6444394" lon="10.8531331"><ele>864.0000000000001</ele><time>2026-04-06T08:50:48.005Z</time></trkpt><trkpt lat="45.6445297" lon="10.8530479"><ele>864.0</ele><time>2026-04-06T08:50:49.004Z</time></trkpt><trkpt lat="45.6446181" lon="10.8529512"><ele>864.0</ele><time>2026-04-06T08:50:50.004Z</time></trkpt><trkpt lat="45.6447092" lon="10.8528556"><ele>864.0</ele><time>2026-04-06T08:50:51.004Z</time></trkpt><trkpt lat="45.6448044" lon="10.8527679"><ele>864.0</ele><time>2026-04-06T08:50:52.005Z</time></trkpt><trkpt lat="45.6449027" lon="10.8526922"><ele>864.0</ele><time>2026-04-06T08:50:53.006Z</time></trkpt><trkpt lat="45.6450052" lon="10.8526251"><ele>864.0</ele><time>2026-04-06T08:50:54.004Z</time></trkpt><trkpt lat="45.6451115" lon="10.8525671"><ele>862.2</ele><time>2026-04-06T08:50:55.005Z</time></trkpt><trkpt lat="45.6452173" lon="10.8525215"><ele>860.4000000000001</ele><time>2026-04-06T08:50:56.005Z</time></trkpt><trkpt lat="45.6453252" lon="10.8524868"><ele>858.6</ele><time>2026-04-06T08:50:57.005Z</time></trkpt><trkpt lat="45.6454242" lon="10.8524612"><ele>856.8</ele><time>2026-04-06T08:50:58.004Z</time></trkpt><trkpt lat="45.6455055" lon="10.8524439"><ele>855.0</ele><time>2026-04-06T08:50:59.005Z</time></trkpt><trkpt lat="45.6455816" lon="10.8524293"><ele>855.0</ele><time>2026-04-06T08:51:00.004Z</time></trkpt><trkpt lat="45.6456486" lon="10.8524172"><ele>855.0</ele><time>2026-04-06T08:51:01.005Z</time></trkpt><trkpt lat="45.6457123" lon="10.8524073"><ele>855.0</ele><time>2026-04-06T08:51:02.005Z</time></trkpt><trkpt lat="45.6458387" lon="10.8523828"><ele>855.0</ele><time>2026-04-06T08:51:04.005Z</time></trkpt><trkpt lat="45.6459421" lon="10.8523642"><ele>855.0</ele><time>2026-04-06T08:51:06.005Z</time></trkpt><trkpt lat="45.6460086" lon="10.8523534"><ele>855.0</ele><time>2026-04-06T08:51:08.004Z</time></trkpt><trkpt lat="45.6460738" lon="10.8523465"><ele>856.1666666666666</ele><time>2026-04-06T08:51:12.005Z</time></trkpt><trkpt lat="45.6461771" lon="10.8523402"><ele>857.3333333333333</ele><time>2026-04-06T08:51:17.004Z</time></trkpt><trkpt lat="45.6462479" lon="10.8523335"><ele>858.5</ele><time>2026-04-06T08:51:19.004Z</time></trkpt><trkpt lat="45.6463406" lon="10.852323"><ele>859.6666666666666</ele><time>2026-04-06T08:51:22.004Z</time></trkpt><trkpt lat="45.6464185" lon="10.8523027"><ele>860.8333333333333</ele><time>2026-04-06T08:51:25.005Z</time></trkpt><trkpt lat="45.6464903" lon="10.8522896"><ele>862.0</ele><time>2026-04-06T08:51:28.004Z</time></trkpt><trkpt lat="45.646573" lon="10.8522764"><ele>862.0</ele><time>2026-04-06T08:51:30.004Z</time></trkpt><trkpt lat="45.6467067" lon="10.8522753"><ele>862.0</ele><time>2026-04-06T08:51:32.004Z</time></trkpt><trkpt lat="45.6467785" lon="10.8522754"><ele>862.0</ele><time>2026-04-06T08:51:33.005Z</time></trkpt><trkpt lat="45.6468891" lon="10.8522745"><ele>862.0</ele><time>2026-04-06T08:51:35.005Z</time></trkpt><trkpt lat="45.6469668" lon="10.8522708"><ele>862.0</ele><time>2026-04-06T08:51:37.004Z</time></trkpt><trkpt lat="45.6470516" lon="10.85227"><ele>862.4000000000001</ele><time>2026-04-06T08:51:41.005Z</time></trkpt><trkpt lat="45.6471553" lon="10.8522438"><ele>862.8000000000001</ele><time>2026-04-06T08:51:43.004Z</time></trkpt><trkpt lat="45.6472224" lon="10.8522223"><ele>863.2</ele><time>2026-04-06T08:51:44.005Z</time></trkpt><trkpt lat="45.6473461" lon="10.8522278"><ele>863.6</ele><time>2026-04-06T08:51:46.005Z</time></trkpt><trkpt lat="45.6474066" lon="10.8522604"><ele>864.0</ele><time>2026-04-06T08:51:47.004Z</time></trkpt><trkpt lat="45.6474998" lon="10.8523108"><ele>864.0</ele><time>2026-04-06T08:51:49.006Z</time></trkpt><trkpt lat="45.6476044" lon="10.8523385"><ele>864.0000000000001</ele><time>2026-04-06T08:51:51.004Z</time></trkpt><trkpt lat="45.6477209" lon="10.8523236"><ele>864.0000000000001</ele><time>2026-04-06T08:51:53.005Z</time></trkpt><trkpt lat="45.6477826" lon="10.8523012"><ele>864.0</ele><time>2026-04-06T08:51:54.004Z</time></trkpt><trkpt lat="45.6478772" lon="10.8522617"><ele>864.0</ele><time>2026-04-06T08:51:56.004Z</time></trkpt><trkpt lat="45.647947" lon="10.8522398"><ele>864.0</ele><time>2026-04-06T08:51:59.005Z</time></trkpt><trkpt lat="45.6478813" lon="10.8522642"><ele>864.0000000000001</ele><time>2026-04-06T08:52:52.005Z</time></trkpt><trkpt lat="45.6478985" lon="10.8521311"><ele>864.0000000000001</ele><time>2026-04-06T08:52:58.005Z</time></trkpt><trkpt lat="45.6479565" lon="10.8520443"><ele>864.0</ele><time>2026-04-06T08:53:00.006Z</time></trkpt><trkpt lat="45.6480466" lon="10.8519703"><ele>864.0</ele><time>2026-04-06T08:53:02.004Z</time></trkpt><trkpt lat="45.6481534" lon="10.8518819"><ele>864.0</ele><time>2026-04-06T08:53:04.004Z</time></trkpt><trkpt lat="45.6482103" lon="10.851836"><ele>864.0</ele><time>2026-04-06T08:53:05.004Z</time></trkpt><trkpt lat="45.6482692" lon="10.8517971"><ele>864.0</ele><time>2026-04-06T08:53:06.004Z</time></trkpt><trkpt lat="45.6483276" lon="10.8517627"><ele>864.0</ele><time>2026-04-06T08:53:07.006Z</time></trkpt><trkpt lat="45.6483878" lon="10.8517249"><ele>864.0</ele><time>2026-04-06T08:53:08.005Z</time></trkpt><trkpt lat="45.6484457" lon="10.8516893"><ele>864.0</ele><time>2026-04-06T08:53:09.004Z</time></trkpt><trkpt lat="45.6485612" lon="10.8516418"><ele>864.0</ele><time>2026-04-06T08:53:11.005Z</time></trkpt><trkpt lat="45.6486776" lon="10.851599"><ele>868.1666666666666</ele><time>2026-04-06T08:53:13.005Z</time></trkpt><trkpt lat="45.6487873" lon="10.8515243"><ele>872.3333333333333</ele><time>2026-04-06T08:53:15.005Z</time></trkpt><trkpt lat="45.6488403" lon="10.8514647"><ele>876.5</ele><time>2026-04-06T08:53:16.004Z</time></trkpt><trkpt lat="45.6488965" lon="10.8514098"><ele>880.6666666666666</ele><time>2026-04-06T08:53:17.004Z</time></trkpt><trkpt lat="45.6489613" lon="10.8513581"><ele>884.8333333333333</ele><time>2026-04-06T08:53:18.004Z</time></trkpt><trkpt lat="45.6490205" lon="10.8513042"><ele>889.0</ele><time>2026-04-06T08:53:19.005Z</time></trkpt><trkpt lat="45.6490791" lon="10.8512532"><ele>889.0</ele><time>2026-04-06T08:53:20.003Z</time></trkpt><trkpt lat="45.6491408" lon="10.8511913"><ele>889.0</ele><time>2026-04-06T08:53:21.005Z</time></trkpt><trkpt lat="45.6492005" lon="10.8511323"><ele>889.0</ele><time>2026-04-06T08:53:22.004Z</time></trkpt><trkpt lat="45.6492571" lon="10.8510636"><ele>889.0</ele><time>2026-04-06T08:53:23.005Z</time></trkpt><trkpt lat="45.6493159" lon="10.8509936"><ele>889.0</ele><time>2026-04-06T08:53:24.004Z</time></trkpt><trkpt lat="45.6493713" lon="10.8509393"><ele>889.0</ele><time>2026-04-06T08:53:25.004Z</time></trkpt><trkpt lat="45.6494247" lon="10.8508901"><ele>889.0</ele><time>2026-04-06T08:53:26.004Z</time></trkpt><trkpt lat="45.6495422" lon="10.8508336"><ele>891.4999999999999</ele><time>2026-04-06T08:53:28.003Z</time></trkpt><trkpt lat="45.6496277" lon="10.8508217"><ele>894.0</ele><time>2026-04-06T08:53:30.005Z</time></trkpt><trkpt lat="45.6496996" lon="10.8508504"><ele>896.5</ele><time>2026-04-06T08:53:40.003Z</time></trkpt><trkpt lat="45.6496734" lon="10.8507347"><ele>899.0</ele><time>2026-04-06T08:53:49.004Z</time></trkpt><trkpt lat="45.6496507" lon="10.8506366"><ele>901.4999999999999</ele><time>2026-04-06T08:53:51.004Z</time></trkpt><trkpt lat="45.6496502" lon="10.8505316"><ele>904.0</ele><time>2026-04-06T08:53:53.005Z</time></trkpt><trkpt lat="45.6496596" lon="10.8504254"><ele>903.9999999999999</ele><time>2026-04-06T08:53:55.004Z</time></trkpt><trkpt lat="45.6496629" lon="10.8503104"><ele>904.0</ele><time>2026-04-06T08:53:57.003Z</time></trkpt><trkpt lat="45.6496524" lon="10.8501977"><ele>904.0</ele><time>2026-04-06T08:53:59.004Z</time></trkpt><trkpt lat="45.6496151" lon="10.8501213"><ele>904.0</ele><time>2026-04-06T08:54:01.004Z</time></trkpt><trkpt lat="45.6495464" lon="10.8500631"><ele>903.9999999999999</ele><time>2026-04-06T08:54:03.005Z</time></trkpt><trkpt lat="45.6494767" lon="10.8500063"><ele>904.0</ele><time>2026-04-06T08:54:05.004Z</time></trkpt><trkpt lat="45.6494547" lon="10.8499184"><ele>902.8333333333333</ele><time>2026-04-06T08:54:07.003Z</time></trkpt><trkpt lat="45.649479" lon="10.8498202"><ele>901.6666666666666</ele><time>2026-04-06T08:54:09.004Z</time></trkpt><trkpt lat="45.6495207" lon="10.8497361"><ele>900.5</ele><time>2026-04-06T08:54:11.004Z</time></trkpt><trkpt lat="45.6495778" lon="10.8496506"><ele>899.3333333333333</ele><time>2026-04-06T08:54:13.005Z</time></trkpt><trkpt lat="45.6496369" lon="10.8495709"><ele>898.1666666666666</ele><time>2026-04-06T08:54:15.005Z</time></trkpt><trkpt lat="45.649701" lon="10.8494805"><ele>897.0</ele><time>2026-04-06T08:54:18.004Z</time></trkpt><trkpt lat="45.6497447" lon="10.8494135"><ele>897.0</ele><time>2026-04-06T08:54:22.003Z</time></trkpt><trkpt lat="45.6497409" lon="10.8493029"><ele>897.0</ele><time>2026-04-06T08:54:31.005Z</time></trkpt><trkpt lat="45.6496659" lon="10.8493019"><ele>897.0</ele><time>2026-04-06T08:54:33.004Z</time></trkpt><trkpt lat="45.6495527" lon="10.8493587"><ele>897.0</ele><time>2026-04-06T08:54:35.003Z</time></trkpt><trkpt lat="45.6494866" lon="10.849398"><ele>897.0</ele><time>2026-04-06T08:54:36.003Z</time></trkpt><trkpt lat="45.6494217" lon="10.8494384"><ele>897.0</ele><time>2026-04-06T08:54:37.004Z</time></trkpt><trkpt lat="45.6493631" lon="10.8494902"><ele>894.0</ele><time>2026-04-06T08:54:38.005Z</time></trkpt><trkpt lat="45.6493048" lon="10.8495541"><ele>891.0</ele><time>2026-04-06T08:54:39.004Z</time></trkpt><trkpt lat="45.6492551" lon="10.8496366"><ele>888.0</ele><time>2026-04-06T08:54:40.005Z</time></trkpt><trkpt lat="45.6492051" lon="10.8497335"><ele>885.0</ele><time>2026-04-06T08:54:41.004Z</time></trkpt><trkpt lat="45.6491612" lon="10.849835"><ele>882.0</ele><time>2026-04-06T08:54:42.003Z</time></trkpt><trkpt lat="45.6491141" lon="10.8499433"><ele>879.0</ele><time>2026-04-06T08:54:43.004Z</time></trkpt><trkpt lat="45.6490582" lon="10.8500436"><ele>880.5</ele><time>2026-04-06T08:54:44.003Z</time></trkpt><trkpt lat="45.6490011" lon="10.8501443"><ele>882.0</ele><time>2026-04-06T08:54:45.003Z</time></trkpt><trkpt lat="45.6489453" lon="10.8502412"><ele>883.5</ele><time>2026-04-06T08:54:46.003Z</time></trkpt><trkpt lat="45.6488896" lon="10.8503298"><ele>885.0</ele><time>2026-04-06T08:54:47.003Z</time></trkpt><trkpt lat="45.6488448" lon="10.8504065"><ele>886.5</ele><time>2026-04-06T08:54:48.003Z</time></trkpt><trkpt lat="45.6487948" lon="10.850467"><ele>888.0</ele><time>2026-04-06T08:54:49.005Z</time></trkpt><trkpt lat="45.6487347" lon="10.850498"><ele>888.0</ele><time>2026-04-06T08:54:50.005Z</time></trkpt><trkpt lat="45.6486718" lon="10.8505203"><ele>888.0</ele><time>2026-04-06T08:54:51.003Z</time></trkpt><trkpt lat="45.6485981" lon="10.8505116"><ele>888.0</ele><time>2026-04-06T08:54:52.004Z</time></trkpt><trkpt lat="45.648526" lon="10.8505094"><ele>888.0</ele><time>2026-04-06T08:54:53.004Z</time></trkpt><trkpt lat="45.6484621" lon="10.8505247"><ele>888.0</ele><time>2026-04-06T08:54:54.004Z</time></trkpt><trkpt lat="45.6484026" lon="10.85057"><ele>888.0</ele><time>2026-04-06T08:54:55.005Z</time></trkpt><trkpt lat="45.6483503" lon="10.8506471"><ele>888.0</ele><time>2026-04-06T08:54:56.003Z</time></trkpt><trkpt lat="45.6483051" lon="10.8507386"><ele>884.8</ele><time>2026-04-06T08:54:57.004Z</time></trkpt><trkpt lat="45.6482741" lon="10.8508403"><ele>881.5999999999999</ele><time>2026-04-06T08:54:58.003Z</time></trkpt><trkpt lat="45.6482709" lon="10.8509744"><ele>878.4000000000001</ele><time>2026-04-06T08:54:59.003Z</time></trkpt><trkpt lat="45.6482343" lon="10.8510829"><ele>875.2</ele><time>2026-04-06T08:55:00.005Z</time></trkpt><trkpt lat="45.6481768" lon="10.8511826"><ele>872.0</ele><time>2026-04-06T08:55:01.004Z</time></trkpt><trkpt lat="45.6480927" lon="10.8512863"><ele>872.0</ele><time>2026-04-06T08:55:02.005Z</time></trkpt><trkpt lat="45.6479991" lon="10.8513908"><ele>872.0</ele><time>2026-04-06T08:55:03.004Z</time></trkpt><trkpt lat="45.6479125" lon="10.8514816"><ele>872.0</ele><time>2026-04-06T08:55:04.005Z</time></trkpt><trkpt lat="45.6478279" lon="10.8515647"><ele>872.0</ele><time>2026-04-06T08:55:05.005Z</time></trkpt><trkpt lat="45.647743" lon="10.8516341"><ele>872.0</ele><time>2026-04-06T08:55:06.004Z</time></trkpt><trkpt lat="45.6476576" lon="10.8516892"><ele>870.4000000000001</ele><time>2026-04-06T08:55:07.003Z</time></trkpt><trkpt lat="45.6475719" lon="10.8517412"><ele>868.8000000000001</ele><time>2026-04-06T08:55:08.004Z</time></trkpt><trkpt lat="45.6474793" lon="10.8517903"><ele>867.2</ele><time>2026-04-06T08:55:09.003Z</time></trkpt><trkpt lat="45.6473847" lon="10.8518485"><ele>865.6</ele><time>2026-04-06T08:55:10.003Z</time></trkpt><trkpt lat="45.6472916" lon="10.851907"><ele>864.0</ele><time>2026-04-06T08:55:11.003Z</time></trkpt><trkpt lat="45.6472035" lon="10.8519641"><ele>864.0</ele><time>2026-04-06T08:55:12.003Z</time></trkpt><trkpt lat="45.6471257" lon="10.8520091"><ele>864.0</ele><time>2026-04-06T08:55:13.005Z</time></trkpt><trkpt lat="45.6470507" lon="10.8520436"><ele>864.0</ele><time>2026-04-06T08:55:14.004Z</time></trkpt><trkpt lat="45.6469727" lon="10.8520713"><ele>864.0</ele><time>2026-04-06T08:55:15.005Z</time></trkpt><trkpt lat="45.6469013" lon="10.8520919"><ele>864.0</ele><time>2026-04-06T08:55:16.003Z</time></trkpt><trkpt lat="45.6468304" lon="10.8521036"><ele>864.0</ele><time>2026-04-06T08:55:17.004Z</time></trkpt><trkpt lat="45.6467638" lon="10.8521101"><ele>863.6666666666666</ele><time>2026-04-06T08:55:18.004Z</time></trkpt><trkpt lat="45.6466389" lon="10.8521376"><ele>863.3333333333333</ele><time>2026-04-06T08:55:20.004Z</time></trkpt><trkpt lat="45.6465753" lon="10.8521441"><ele>863.0</ele><time>2026-04-06T08:55:21.003Z</time></trkpt><trkpt lat="45.6464647" lon="10.8521424"><ele>862.6666666666666</ele><time>2026-04-06T08:55:23.003Z</time></trkpt><trkpt lat="45.6463961" lon="10.852154"><ele>862.3333333333333</ele><time>2026-04-06T08:55:25.004Z</time></trkpt><trkpt lat="45.6463538" lon="10.8522362"><ele>862.0</ele><time>2026-04-06T08:55:30.004Z</time></trkpt><trkpt lat="45.6464321" lon="10.8523171"><ele>862.0</ele><time>2026-04-06T08:55:33.003Z</time></trkpt><trkpt lat="45.6465635" lon="10.852316"><ele>862.0</ele><time>2026-04-06T08:55:35.005Z</time></trkpt><trkpt lat="45.6466581" lon="10.8523107"><ele>862.0</ele><time>2026-04-06T08:55:36.004Z</time></trkpt><trkpt lat="45.6467472" lon="10.8523078"><ele>862.0</ele><time>2026-04-06T08:55:37.003Z</time></trkpt><trkpt lat="45.6468408" lon="10.8523091"><ele>862.0</ele><time>2026-04-06T08:55:38.004Z</time></trkpt><trkpt lat="45.6469399" lon="10.8522986"><ele>862.4000000000001</ele><time>2026-04-06T08:55:39.003Z</time></trkpt><trkpt lat="45.6470521" lon="10.852281"><ele>862.8000000000001</ele><time>2026-04-06T08:55:40.004Z</time></trkpt><trkpt lat="45.6471339" lon="10.8522629"><ele>863.2</ele><time>2026-04-06T08:55:41.003Z</time></trkpt><trkpt lat="45.6472039" lon="10.8522407"><ele>863.6</ele><time>2026-04-06T08:55:42.003Z</time></trkpt><trkpt lat="45.6473217" lon="10.852233"><ele>864.0</ele><time>2026-04-06T08:55:44.004Z</time></trkpt><trkpt lat="45.6473861" lon="10.8522489"><ele>864.0</ele><time>2026-04-06T08:55:45.004Z</time></trkpt><trkpt lat="45.6474728" lon="10.8522917"><ele>864.0</ele><time>2026-04-06T08:55:46.003Z</time></trkpt><trkpt lat="45.6475452" lon="10.8523308"><ele>864.0</ele><time>2026-04-06T08:55:47.004Z</time></trkpt><trkpt lat="45.6476117" lon="10.8523483"><ele>864.0</ele><time>2026-04-06T08:55:48.004Z</time></trkpt><trkpt lat="45.6476896" lon="10.8523462"><ele>864.0</ele><time>2026-04-06T08:55:49.004Z</time></trkpt><trkpt lat="45.6477702" lon="10.8523194"><ele>864.0</ele><time>2026-04-06T08:55:50.004Z</time></trkpt><trkpt lat="45.6478584" lon="10.8522808"><ele>864.0</ele><time>2026-04-06T08:55:51.004Z</time></trkpt><trkpt lat="45.6479397" lon="10.8522428"><ele>864.0</ele><time>2026-04-06T08:55:52.004Z</time></trkpt><trkpt lat="45.6480182" lon="10.8522061"><ele>864.0</ele><time>2026-04-06T08:55:53.005Z</time></trkpt><trkpt lat="45.6481026" lon="10.8521678"><ele>864.0</ele><time>2026-04-06T08:55:54.003Z</time></trkpt><trkpt lat="45.6481894" lon="10.8521357"><ele>864.0</ele><time>2026-04-06T08:55:55.004Z</time></trkpt><trkpt lat="45.6482724" lon="10.8521149"><ele>864.0</ele><time>2026-04-06T08:55:56.003Z</time></trkpt><trkpt lat="45.6483502" lon="10.8521053"><ele>864.0</ele><time>2026-04-06T08:55:57.003Z</time></trkpt><trkpt lat="45.6484424" lon="10.8521107"><ele>864.0000000000001</ele><time>2026-04-06T08:55:58.003Z</time></trkpt><trkpt lat="45.6485393" lon="10.8521383"><ele>864.0000000000001</ele><time>2026-04-06T08:55:59.004Z</time></trkpt><trkpt lat="45.648633" lon="10.8521813"><ele>864.0</ele><time>2026-04-06T08:56:00.004Z</time></trkpt><trkpt lat="45.6487283" lon="10.8522307"><ele>864.0</ele><time>2026-04-06T08:56:01.005Z</time></trkpt><trkpt lat="45.6488207" lon="10.8522806"><ele>866.0</ele><time>2026-04-06T08:56:02.004Z</time></trkpt><trkpt lat="45.6488933" lon="10.8523259"><ele>868.0</ele><time>2026-04-06T08:56:03.004Z</time></trkpt><trkpt lat="45.6489552" lon="10.8523657"><ele>870.0</ele><time>2026-04-06T08:56:04.005Z</time></trkpt><trkpt lat="45.6490149" lon="10.8524034"><ele>872.0</ele><time>2026-04-06T08:56:05.004Z</time></trkpt><trkpt lat="45.6491268" lon="10.8524893"><ele>874.0</ele><time>2026-04-06T08:56:07.003Z</time></trkpt><trkpt lat="45.6491859" lon="10.852535"><ele>876.0</ele><time>2026-04-06T08:56:08.003Z</time></trkpt><trkpt lat="45.6492473" lon="10.8525882"><ele>877.5</ele><time>2026-04-06T08:56:09.005Z</time></trkpt><trkpt lat="45.6493081" lon="10.8526543"><ele>879.0</ele><time>2026-04-06T08:56:10.005Z</time></trkpt><trkpt lat="45.6493746" lon="10.8527354"><ele>880.5</ele><time>2026-04-06T08:56:11.003Z</time></trkpt><trkpt lat="45.6494451" lon="10.852816"><ele>882.0</ele><time>2026-04-06T08:56:12.004Z</time></trkpt><trkpt lat="45.6495192" lon="10.8528939"><ele>883.5</ele><time>2026-04-06T08:56:13.003Z</time></trkpt><trkpt lat="45.6495965" lon="10.8529728"><ele>885.0</ele><time>2026-04-06T08:56:14.003Z</time></trkpt><trkpt lat="45.6496749" lon="10.8530538"><ele>885.0</ele><time>2026-04-06T08:56:15.004Z</time></trkpt><trkpt lat="45.6497567" lon="10.8531339"><ele>885.0</ele><time>2026-04-06T08:56:16.004Z</time></trkpt><trkpt lat="45.6498469" lon="10.8532055"><ele>885.0</ele><time>2026-04-06T08:56:17.003Z</time></trkpt><trkpt lat="45.6499491" lon="10.8532768"><ele>885.0</ele><time>2026-04-06T08:56:18.004Z</time></trkpt><trkpt lat="45.6500626" lon="10.8533537"><ele>885.0</ele><time>2026-04-06T08:56:19.003Z</time></trkpt><trkpt lat="45.6501742" lon="10.8534303"><ele>886.0</ele><time>2026-04-06T08:56:20.004Z</time></trkpt><trkpt lat="45.6502776" lon="10.8535026"><ele>887.0</ele><time>2026-04-06T08:56:21.003Z</time></trkpt><trkpt lat="45.6503819" lon="10.853574"><ele>888.0</ele><time>2026-04-06T08:56:22.003Z</time></trkpt><trkpt lat="45.6504859" lon="10.8536427"><ele>889.0</ele><time>2026-04-06T08:56:23.003Z</time></trkpt><trkpt lat="45.6505899" lon="10.853711"><ele>889.0</ele><time>2026-04-06T08:56:24.003Z</time></trkpt><trkpt lat="45.6506924" lon="10.8537868"><ele>889.0</ele><time>2026-04-06T08:56:25.004Z</time></trkpt><trkpt lat="45.6507931" lon="10.8538733"><ele>889.0</ele><time>2026-04-06T08:56:26.003Z</time></trkpt><trkpt lat="45.650885" lon="10.8539736"><ele>889.0</ele><time>2026-04-06T08:56:27.003Z</time></trkpt><trkpt lat="45.6509597" lon="10.854075"><ele>889.0</ele><time>2026-04-06T08:56:28.003Z</time></trkpt><trkpt lat="45.6510314" lon="10.8541863"><ele>889.0000000000001</ele><time>2026-04-06T08:56:29.003Z</time></trkpt><trkpt lat="45.6510989" lon="10.8542938"><ele>889.0000000000001</ele><time>2026-04-06T08:56:30.004Z</time></trkpt><trkpt lat="45.6511646" lon="10.8543923"><ele>889.0</ele><time>2026-04-06T08:56:31.005Z</time></trkpt><trkpt lat="45.6512378" lon="10.8544823"><ele>889.0</ele><time>2026-04-06T08:56:32.003Z</time></trkpt><trkpt lat="45.6513119" lon="10.8545514"><ele>888.0</ele><time>2026-04-06T08:56:33.003Z</time></trkpt><trkpt lat="45.6513981" lon="10.8546176"><ele>887.0000000000001</ele><time>2026-04-06T08:56:34.005Z</time></trkpt><trkpt lat="45.6514941" lon="10.8546835"><ele>886.0000000000001</ele><time>2026-04-06T08:56:35.004Z</time></trkpt><trkpt lat="45.6516011" lon="10.8547272"><ele>885.0</ele><time>2026-04-06T08:56:36.003Z</time></trkpt><trkpt lat="45.6517116" lon="10.8547409"><ele>884.0</ele><time>2026-04-06T08:56:37.003Z</time></trkpt><trkpt lat="45.6518249" lon="10.8547284"><ele>884.0</ele><time>2026-04-06T08:56:38.003Z</time></trkpt><trkpt lat="45.6519275" lon="10.8546861"><ele>884.0</ele><time>2026-04-06T08:56:39.004Z</time></trkpt><trkpt lat="45.6520346" lon="10.854607"><ele>884.0</ele><time>2026-04-06T08:56:40.003Z</time></trkpt><trkpt lat="45.6521476" lon="10.8544864"><ele>884.0</ele><time>2026-04-06T08:56:41.003Z</time></trkpt><trkpt lat="45.6522579" lon="10.8543438"><ele>884.3333333333334</ele><time>2026-04-06T08:56:42.004Z</time></trkpt><trkpt lat="45.6523809" lon="10.8541776"><ele>884.6666666666667</ele><time>2026-04-06T08:56:43.004Z</time></trkpt><trkpt lat="45.6524918" lon="10.8540291"><ele>885.0</ele><time>2026-04-06T08:56:44.004Z</time></trkpt><trkpt lat="45.652595" lon="10.8538956"><ele>885.0</ele><time>2026-04-06T08:56:45.005Z</time></trkpt><trkpt lat="45.6526939" lon="10.8537709"><ele>885.0</ele><time>2026-04-06T08:56:46.004Z</time></trkpt><trkpt lat="45.6527889" lon="10.8536618"><ele>885.0</ele><time>2026-04-06T08:56:47.003Z</time></trkpt><trkpt lat="45.652884" lon="10.8535673"><ele>885.0</ele><time>2026-04-06T08:56:48.004Z</time></trkpt><trkpt lat="45.6529793" lon="10.8534898"><ele>886.5</ele><time>2026-04-06T08:56:49.003Z</time></trkpt><trkpt lat="45.653082" lon="10.8534278"><ele>888.0</ele><time>2026-04-06T08:56:50.004Z</time></trkpt><trkpt lat="45.653197" lon="10.8533735"><ele>889.5</ele><time>2026-04-06T08:56:51.004Z</time></trkpt><trkpt lat="45.6533196" lon="10.8533213"><ele>891.0</ele><time>2026-04-06T08:56:52.004Z</time></trkpt><trkpt lat="45.6534394" lon="10.853284"><ele>891.0</ele><time>2026-04-06T08:56:53.004Z</time></trkpt><trkpt lat="45.6535547" lon="10.8532818"><ele>891.0</ele><time>2026-04-06T08:56:54.004Z</time></trkpt><trkpt lat="45.6536678" lon="10.8533153"><ele>891.0</ele><time>2026-04-06T08:56:55.003Z</time></trkpt><trkpt lat="45.6537814" lon="10.853386"><ele>891.0</ele><time>2026-04-06T08:56:56.004Z</time></trkpt><trkpt lat="45.6538827" lon="10.8534821"><ele>891.8</ele><time>2026-04-06T08:56:57.005Z</time></trkpt><trkpt lat="45.6539641" lon="10.8535943"><ele>892.5999999999999</ele><time>2026-04-06T08:56:58.004Z</time></trkpt><trkpt lat="45.6540271" lon="10.8537207"><ele>893.4</ele><time>2026-04-06T08:56:59.003Z</time></trkpt><trkpt lat="45.6540768" lon="10.8538583"><ele>894.2</ele><time>2026-04-06T08:57:00.005Z</time></trkpt><trkpt lat="45.6541309" lon="10.8540003"><ele>895.0</ele><time>2026-04-06T08:57:01.003Z</time></trkpt><trkpt lat="45.6541987" lon="10.8541374"><ele>895.0</ele><time>2026-04-06T08:57:02.004Z</time></trkpt><trkpt lat="45.6542751" lon="10.8542688"><ele>895.0</ele><time>2026-04-06T08:57:03.004Z</time></trkpt><trkpt lat="45.6543669" lon="10.8543862"><ele>895.0</ele><time>2026-04-06T08:57:04.005Z</time></trkpt><trkpt lat="45.6544763" lon="10.8544824"><ele>895.0</ele><time>2026-04-06T08:57:05.003Z</time></trkpt><trkpt lat="45.654593" lon="10.8545582"><ele>896.0</ele><time>2026-04-06T08:57:06.003Z</time></trkpt><trkpt lat="45.6547127" lon="10.8546178"><ele>897.0</ele><time>2026-04-06T08:57:07.003Z</time></trkpt><trkpt lat="45.6548382" lon="10.8546679"><ele>898.0</ele><time>2026-04-06T08:57:08.004Z</time></trkpt><trkpt lat="45.6549649" lon="10.854719"><ele>899.0</ele><time>2026-04-06T08:57:09.004Z</time></trkpt><trkpt lat="45.6550911" lon="10.8547787"><ele>899.0</ele><time>2026-04-06T08:57:10.004Z</time></trkpt><trkpt lat="45.655218" lon="10.8548429"><ele>899.0</ele><time>2026-04-06T08:57:11.005Z</time></trkpt><trkpt lat="45.6553309" lon="10.854914"><ele>899.0</ele><time>2026-04-06T08:57:12.003Z</time></trkpt><trkpt lat="45.655437" lon="10.8549999"><ele>899.0</ele><time>2026-04-06T08:57:13.004Z</time></trkpt><trkpt lat="45.655534" lon="10.8551017"><ele>898.75</ele><time>2026-04-06T08:57:14.004Z</time></trkpt><trkpt lat="45.6556214" lon="10.8552179"><ele>898.5</ele><time>2026-04-06T08:57:15.004Z</time></trkpt><trkpt lat="45.655711" lon="10.8553332"><ele>898.25</ele><time>2026-04-06T08:57:16.003Z</time></trkpt><trkpt lat="45.655814" lon="10.8554363"><ele>898.0</ele><time>2026-04-06T08:57:17.003Z</time></trkpt><trkpt lat="45.6559313" lon="10.8555246"><ele>898.0</ele><time>2026-04-06T08:57:18.003Z</time></trkpt><trkpt lat="45.6560617" lon="10.8555935"><ele>898.0</ele><time>2026-04-06T08:57:19.005Z</time></trkpt><trkpt lat="45.6561963" lon="10.8556482"><ele>898.0</ele><time>2026-04-06T08:57:20.003Z</time></trkpt><trkpt lat="45.6563273" lon="10.8556951"><ele>898.0</ele><time>2026-04-06T08:57:21.004Z</time></trkpt><trkpt lat="45.6564657" lon="10.8557357"><ele>897.25</ele><time>2026-04-06T08:57:22.005Z</time></trkpt><trkpt lat="45.656609" lon="10.8557546"><ele>896.5</ele><time>2026-04-06T08:57:23.005Z</time></trkpt><trkpt lat="45.6567518" lon="10.8557513"><ele>895.75</ele><time>2026-04-06T08:57:24.005Z</time></trkpt><trkpt lat="45.6568946" lon="10.8557233"><ele>895.0</ele><time>2026-04-06T08:57:25.005Z</time></trkpt><trkpt lat="45.6570434" lon="10.8556664"><ele>893.6666666666666</ele><time>2026-04-06T08:57:26.005Z</time></trkpt><trkpt lat="45.6572021" lon="10.8555816"><ele>892.3333333333333</ele><time>2026-04-06T08:57:27.004Z</time></trkpt><trkpt lat="45.6573458" lon="10.855485"><ele>891.0</ele><time>2026-04-06T08:57:28.003Z</time></trkpt><trkpt lat="45.6574809" lon="10.8553893"><ele>891.0</ele><time>2026-04-06T08:57:29.004Z</time></trkpt><trkpt lat="45.6576072" lon="10.8553048"><ele>891.0</ele><time>2026-04-06T08:57:30.004Z</time></trkpt><trkpt lat="45.6577253" lon="10.855227"><ele>891.0</ele><time>2026-04-06T08:57:31.004Z</time></trkpt><trkpt lat="45.6578368" lon="10.8551543"><ele>891.0</ele><time>2026-04-06T08:57:32.005Z</time></trkpt><trkpt lat="45.6579402" lon="10.8550879"><ele>893.25</ele><time>2026-04-06T08:57:33.004Z</time></trkpt><trkpt lat="45.6580454" lon="10.8550328"><ele>895.5</ele><time>2026-04-06T08:57:34.003Z</time></trkpt><trkpt lat="45.6581602" lon="10.8549953"><ele>897.75</ele><time>2026-04-06T08:57:35.003Z</time></trkpt><trkpt lat="45.6582816" lon="10.8549882"><ele>900.0</ele><time>2026-04-06T08:57:36.005Z</time></trkpt><trkpt lat="45.6584133" lon="10.855019"><ele>900.0</ele><time>2026-04-06T08:57:37.004Z</time></trkpt><trkpt lat="45.6585567" lon="10.855085"><ele>900.0</ele><time>2026-04-06T08:57:38.003Z</time></trkpt><trkpt lat="45.6586951" lon="10.855154"><ele>900.0</ele><time>2026-04-06T08:57:39.005Z</time></trkpt><trkpt lat="45.6588209" lon="10.8552012"><ele>900.0</ele><time>2026-04-06T08:57:40.005Z</time></trkpt><trkpt lat="45.6589357" lon="10.8552176"><ele>899.25</ele><time>2026-04-06T08:57:41.003Z</time></trkpt><trkpt lat="45.6590464" lon="10.8551862"><ele>898.5</ele><time>2026-04-06T08:57:42.003Z</time></trkpt><trkpt lat="45.659169" lon="10.8551188"><ele>897.75</ele><time>2026-04-06T08:57:43.004Z</time></trkpt><trkpt lat="45.6593001" lon="10.8550212"><ele>897.0</ele><time>2026-04-06T08:57:44.004Z</time></trkpt><trkpt lat="45.6594321" lon="10.854916"><ele>896.75</ele><time>2026-04-06T08:57:45.003Z</time></trkpt><trkpt lat="45.6595533" lon="10.854816"><ele>896.5</ele><time>2026-04-06T08:57:46.004Z</time></trkpt><trkpt lat="45.6596676" lon="10.8547478"><ele>896.25</ele><time>2026-04-06T08:57:47.003Z</time></trkpt><trkpt lat="45.6597844" lon="10.8547196"><ele>896.0</ele><time>2026-04-06T08:57:48.004Z</time></trkpt><trkpt lat="45.6598949" lon="10.8547428"><ele>896.0</ele><time>2026-04-06T08:57:49.005Z</time></trkpt><trkpt lat="45.6600092" lon="10.8548171"><ele>896.0</ele><time>2026-04-06T08:57:50.003Z</time></trkpt><trkpt lat="45.6601223" lon="10.8549476"><ele>896.0</ele><time>2026-04-06T08:57:51.003Z</time></trkpt><trkpt lat="45.660235" lon="10.8551148"><ele>896.0</ele><time>2026-04-06T08:57:52.003Z</time></trkpt><trkpt lat="45.6603557" lon="10.855319"><ele>898.3333333333334</ele><time>2026-04-06T08:57:53.003Z</time></trkpt><trkpt lat="45.6604789" lon="10.8555188"><ele>900.6666666666667</ele><time>2026-04-06T08:57:54.004Z</time></trkpt><trkpt lat="45.6605889" lon="10.8556959"><ele>903.0</ele><time>2026-04-06T08:57:55.004Z</time></trkpt><trkpt lat="45.6606813" lon="10.855839"><ele>903.0</ele><time>2026-04-06T08:57:56.004Z</time></trkpt><trkpt lat="45.660774" lon="10.8559522"><ele>903.0</ele><time>2026-04-06T08:57:57.004Z</time></trkpt><trkpt lat="45.6608783" lon="10.8560209"><ele>903.0</ele><time>2026-04-06T08:57:58.004Z</time></trkpt><trkpt lat="45.6609907" lon="10.8560385"><ele>903.0</ele><time>2026-04-06T08:57:59.005Z</time></trkpt><trkpt lat="45.661118" lon="10.8560112"><ele>901.3333333333333</ele><time>2026-04-06T08:58:00.004Z</time></trkpt><trkpt lat="45.6612575" lon="10.855936"><ele>899.6666666666666</ele><time>2026-04-06T08:58:01.003Z</time></trkpt><trkpt lat="45.6613979" lon="10.8558283"><ele>898.0</ele><time>2026-04-06T08:58:02.003Z</time></trkpt><trkpt lat="45.6615201" lon="10.8557212"><ele>898.0</ele><time>2026-04-06T08:58:03.003Z</time></trkpt><trkpt lat="45.6616369" lon="10.8556404"><ele>898.0</ele><time>2026-04-06T08:58:04.004Z</time></trkpt><trkpt lat="45.661746" lon="10.8556016"><ele>898.0</ele><time>2026-04-06T08:58:05.003Z</time></trkpt><trkpt lat="45.6618613" lon="10.8556132"><ele>898.0</ele><time>2026-04-06T08:58:06.003Z</time></trkpt><trkpt lat="45.6619851" lon="10.8556832"><ele>896.3333333333333</ele><time>2026-04-06T08:58:07.004Z</time></trkpt><trkpt lat="45.6621114" lon="10.8558075"><ele>894.6666666666667</ele><time>2026-04-06T08:58:08.004Z</time></trkpt><trkpt lat="45.6622498" lon="10.8559666"><ele>893.0</ele><time>2026-04-06T08:58:09.003Z</time></trkpt><trkpt lat="45.6623902" lon="10.8561235"><ele>893.0</ele><time>2026-04-06T08:58:10.003Z</time></trkpt><trkpt lat="45.6625189" lon="10.8562633"><ele>893.0</ele><time>2026-04-06T08:58:11.003Z</time></trkpt><trkpt lat="45.6626433" lon="10.8563923"><ele>893.0</ele><time>2026-04-06T08:58:12.003Z</time></trkpt><trkpt lat="45.6627655" lon="10.8565082"><ele>894.75</ele><time>2026-04-06T08:58:13.003Z</time></trkpt><trkpt lat="45.6628887" lon="10.8566048"><ele>896.5</ele><time>2026-04-06T08:58:14.003Z</time></trkpt><trkpt lat="45.6630081" lon="10.8566729"><ele>898.25</ele><time>2026-04-06T08:58:15.004Z</time></trkpt><trkpt lat="45.6631166" lon="10.8567033"><ele>900.0</ele><time>2026-04-06T08:58:16.004Z</time></trkpt><trkpt lat="45.6632184" lon="10.8566957"><ele>900.0</ele><time>2026-04-06T08:58:17.003Z</time></trkpt><trkpt lat="45.6633178" lon="10.856645"><ele>900.0</ele><time>2026-04-06T08:58:18.003Z</time></trkpt><trkpt lat="45.6634164" lon="10.8565452"><ele>900.0</ele><time>2026-04-06T08:58:19.004Z</time></trkpt><trkpt lat="45.6635202" lon="10.8563934"><ele>900.0</ele><time>2026-04-06T08:58:20.004Z</time></trkpt><trkpt lat="45.6636269" lon="10.8562287"><ele>896.0</ele><time>2026-04-06T08:58:21.005Z</time></trkpt><trkpt lat="45.6637342" lon="10.8560751"><ele>892.0</ele><time>2026-04-06T08:58:22.004Z</time></trkpt><trkpt lat="45.6638388" lon="10.8559236"><ele>888.0</ele><time>2026-04-06T08:58:23.005Z</time></trkpt><trkpt lat="45.6639372" lon="10.8557707"><ele>884.0</ele><time>2026-04-06T08:58:24.004Z</time></trkpt><trkpt lat="45.6640182" lon="10.855607"><ele>884.0</ele><time>2026-04-06T08:58:25.004Z</time></trkpt><trkpt lat="45.6640819" lon="10.8554295"><ele>884.0</ele><time>2026-04-06T08:58:26.003Z</time></trkpt><trkpt lat="45.6641268" lon="10.8552438"><ele>884.0</ele><time>2026-04-06T08:58:27.004Z</time></trkpt><trkpt lat="45.6641536" lon="10.855056"><ele>884.0</ele><time>2026-04-06T08:58:28.005Z</time></trkpt><trkpt lat="45.6641816" lon="10.8548853"><ele>886.2</ele><time>2026-04-06T08:58:29.003Z</time></trkpt><trkpt lat="45.6642146" lon="10.8547421"><ele>888.4000000000001</ele><time>2026-04-06T08:58:30.004Z</time></trkpt><trkpt lat="45.6642499" lon="10.8546277"><ele>890.6</ele><time>2026-04-06T08:58:31.004Z</time></trkpt><trkpt lat="45.6642942" lon="10.8545201"><ele>892.8</ele><time>2026-04-06T08:58:32.004Z</time></trkpt><trkpt lat="45.6643632" lon="10.8544366"><ele>895.0</ele><time>2026-04-06T08:58:33.005Z</time></trkpt><trkpt lat="45.6644566" lon="10.8543871"><ele>896.2</ele><time>2026-04-06T08:58:34.003Z</time></trkpt><trkpt lat="45.6645678" lon="10.8543417"><ele>897.4</ele><time>2026-04-06T08:58:35.004Z</time></trkpt><trkpt lat="45.6646806" lon="10.8542796"><ele>898.5999999999999</ele><time>2026-04-06T08:58:36.004Z</time></trkpt><trkpt lat="45.6647816" lon="10.8542066"><ele>899.8</ele><time>2026-04-06T08:58:37.005Z</time></trkpt><trkpt lat="45.6648691" lon="10.8541426"><ele>901.0</ele><time>2026-04-06T08:58:38.005Z</time></trkpt><trkpt lat="45.6649426" lon="10.8540831"><ele>900.9999999999999</ele><time>2026-04-06T08:58:39.003Z</time></trkpt><trkpt lat="45.6650116" lon="10.8540256"><ele>901.0</ele><time>2026-04-06T08:58:40.003Z</time></trkpt><trkpt lat="45.6650753" lon="10.8539773"><ele>901.0</ele><time>2026-04-06T08:58:41.004Z</time></trkpt><trkpt lat="45.6651344" lon="10.8539348"><ele>901.0</ele><time>2026-04-06T08:58:42.003Z</time></trkpt><trkpt lat="45.6652554" lon="10.8539154"><ele>900.9999999999999</ele><time>2026-04-06T08:58:44.003Z</time></trkpt><trkpt lat="45.6653143" lon="10.853958"><ele>901.0</ele><time>2026-04-06T08:58:45.005Z</time></trkpt><trkpt lat="45.6653713" lon="10.8540347"><ele>902.1999999999999</ele><time>2026-04-06T08:58:46.004Z</time></trkpt><trkpt lat="45.6654245" lon="10.8541362"><ele>903.3999999999999</ele><time>2026-04-06T08:58:47.004Z</time></trkpt><trkpt lat="45.6654814" lon="10.854241"><ele>904.6</ele><time>2026-04-06T08:58:48.003Z</time></trkpt><trkpt lat="45.665533" lon="10.854343"><ele>905.8</ele><time>2026-04-06T08:58:49.004Z</time></trkpt><trkpt lat="45.6655885" lon="10.8544476"><ele>907.0</ele><time>2026-04-06T08:58:50.004Z</time></trkpt><trkpt lat="45.6656392" lon="10.8545526"><ele>903.4999999999999</ele><time>2026-04-06T08:58:51.003Z</time></trkpt><trkpt lat="45.6656932" lon="10.8546416"><ele>900.0</ele><time>2026-04-06T08:58:52.004Z</time></trkpt><trkpt lat="45.6657588" lon="10.8547066"><ele>896.5</ele><time>2026-04-06T08:58:53.004Z</time></trkpt><trkpt lat="45.6658379" lon="10.8547458"><ele>893.0</ele><time>2026-04-06T08:58:54.004Z</time></trkpt><trkpt lat="45.6659348" lon="10.8547612"><ele>889.4999999999999</ele><time>2026-04-06T08:58:55.003Z</time></trkpt><trkpt lat="45.6660373" lon="10.8547595"><ele>886.0</ele><time>2026-04-06T08:58:56.003Z</time></trkpt><trkpt lat="45.6661376" lon="10.8547538"><ele>886.0</ele><time>2026-04-06T08:58:57.004Z</time></trkpt><trkpt lat="45.6662338" lon="10.8547645"><ele>885.9999999999999</ele><time>2026-04-06T08:58:58.003Z</time></trkpt><trkpt lat="45.6663273" lon="10.8547989"><ele>885.9999999999999</ele><time>2026-04-06T08:58:59.004Z</time></trkpt><trkpt lat="45.6664188" lon="10.85486"><ele>886.0</ele><time>2026-04-06T08:59:00.003Z</time></trkpt><trkpt lat="45.6665204" lon="10.8549547"><ele>886.0</ele><time>2026-04-06T08:59:01.005Z</time></trkpt><trkpt lat="45.66664" lon="10.8550784"><ele>880.75</ele><time>2026-04-06T08:59:02.003Z</time></trkpt><trkpt lat="45.6667461" lon="10.8551934"><ele>875.5</ele><time>2026-04-06T08:59:03.004Z</time></trkpt><trkpt lat="45.6668464" lon="10.8553071"><ele>870.25</ele><time>2026-04-06T08:59:04.004Z</time></trkpt><trkpt lat="45.6669375" lon="10.8554096"><ele>865.0</ele><time>2026-04-06T08:59:05.004Z</time></trkpt><trkpt lat="45.6670147" lon="10.8554824"><ele>865.0</ele><time>2026-04-06T08:59:06.003Z</time></trkpt><trkpt lat="45.6670983" lon="10.8555397"><ele>865.0</ele><time>2026-04-06T08:59:07.004Z</time></trkpt><trkpt lat="45.667181" lon="10.8555634"><ele>865.0</ele><time>2026-04-06T08:59:08.003Z</time></trkpt><trkpt lat="45.6672662" lon="10.8555671"><ele>865.0</ele><time>2026-04-06T08:59:09.004Z</time></trkpt><trkpt lat="45.6673531" lon="10.8555424"><ele>865.0</ele><time>2026-04-06T08:59:10.004Z</time></trkpt><trkpt lat="45.6674441" lon="10.8554871"><ele>865.0</ele><time>2026-04-06T08:59:11.003Z</time></trkpt><trkpt lat="45.6675374" lon="10.8554016"><ele>865.0</ele><time>2026-04-06T08:59:12.005Z</time></trkpt><trkpt lat="45.6676306" lon="10.8552894"><ele>865.0</ele><time>2026-04-06T08:59:13.004Z</time></trkpt><trkpt lat="45.6677123" lon="10.8551732"><ele>865.0</ele><time>2026-04-06T08:59:14.004Z</time></trkpt><trkpt lat="45.6677867" lon="10.8550591"><ele>863.4</ele><time>2026-04-06T08:59:15.004Z</time></trkpt><trkpt lat="45.6678626" lon="10.8549549"><ele>861.8</ele><time>2026-04-06T08:59:16.004Z</time></trkpt><trkpt lat="45.6679481" lon="10.8548768"><ele>860.2</ele><time>2026-04-06T08:59:17.005Z</time></trkpt><trkpt lat="45.6680407" lon="10.8548216"><ele>858.6</ele><time>2026-04-06T08:59:18.004Z</time></trkpt><trkpt lat="45.6681375" lon="10.8547871"><ele>857.0</ele><time>2026-04-06T08:59:19.003Z</time></trkpt><trkpt lat="45.6682355" lon="10.8547809"><ele>857.0</ele><time>2026-04-06T08:59:20.005Z</time></trkpt><trkpt lat="45.6683324" lon="10.8548014"><ele>857.0</ele><time>2026-04-06T08:59:21.003Z</time></trkpt><trkpt lat="45.668425" lon="10.8548318"><ele>857.0</ele><time>2026-04-06T08:59:22.004Z</time></trkpt><trkpt lat="45.6685177" lon="10.8548726"><ele>857.0</ele><time>2026-04-06T08:59:23.004Z</time></trkpt><trkpt lat="45.6686126" lon="10.8549105"><ele>857.0</ele><time>2026-04-06T08:59:24.003Z</time></trkpt><trkpt lat="45.6687127" lon="10.8549629"><ele>855.6</ele><time>2026-04-06T08:59:25.004Z</time></trkpt><trkpt lat="45.6688081" lon="10.8550482"><ele>854.2</ele><time>2026-04-06T08:59:26.003Z</time></trkpt><trkpt lat="45.6688894" lon="10.8551512"><ele>852.8</ele><time>2026-04-06T08:59:27.004Z</time></trkpt><trkpt lat="45.6689591" lon="10.8552665"><ele>851.4</ele><time>2026-04-06T08:59:28.003Z</time></trkpt><trkpt lat="45.6690295" lon="10.8553901"><ele>850.0</ele><time>2026-04-06T08:59:29.004Z</time></trkpt><trkpt lat="45.6691044" lon="10.8555129"><ele>848.2</ele><time>2026-04-06T08:59:30.003Z</time></trkpt><trkpt lat="45.6691771" lon="10.855626"><ele>846.4</ele><time>2026-04-06T08:59:31.003Z</time></trkpt><trkpt lat="45.6692547" lon="10.8557245"><ele>844.5999999999999</ele><time>2026-04-06T08:59:32.004Z</time></trkpt><trkpt lat="45.6693361" lon="10.8557924"><ele>842.8</ele><time>2026-04-06T08:59:33.003Z</time></trkpt><trkpt lat="45.6694207" lon="10.8558131"><ele>841.0</ele><time>2026-04-06T08:59:34.004Z</time></trkpt><trkpt lat="45.6694971" lon="10.8557835"><ele>837.5999999999999</ele><time>2026-04-06T08:59:35.004Z</time></trkpt><trkpt lat="45.6695635" lon="10.8557093"><ele>834.2</ele><time>2026-04-06T08:59:36.004Z</time></trkpt><trkpt lat="45.6696074" lon="10.8555986"><ele>830.8</ele><time>2026-04-06T08:59:37.003Z</time></trkpt><trkpt lat="45.6696187" lon="10.8554701"><ele>827.4000000000001</ele><time>2026-04-06T08:59:38.003Z</time></trkpt><trkpt lat="45.669598" lon="10.8553201"><ele>824.0</ele><time>2026-04-06T08:59:39.003Z</time></trkpt><trkpt lat="45.669552" lon="10.8551606"><ele>824.75</ele><time>2026-04-06T08:59:40.003Z</time></trkpt><trkpt lat="45.6695091" lon="10.8549937"><ele>825.5</ele><time>2026-04-06T08:59:41.004Z</time></trkpt><trkpt lat="45.6695062" lon="10.8547987"><ele>826.25</ele><time>2026-04-06T08:59:42.003Z</time></trkpt><trkpt lat="45.6695243" lon="10.8545684"><ele>827.0</ele><time>2026-04-06T08:59:43.003Z</time></trkpt><trkpt lat="45.6695571" lon="10.8543533"><ele>828.0</ele><time>2026-04-06T08:59:44.003Z</time></trkpt><trkpt lat="45.669595" lon="10.8541311"><ele>829.0</ele><time>2026-04-06T08:59:45.003Z</time></trkpt><trkpt lat="45.6696339" lon="10.85392"><ele>830.0</ele><time>2026-04-06T08:59:46.004Z</time></trkpt><trkpt lat="45.6696692" lon="10.8537353"><ele>831.0</ele><time>2026-04-06T08:59:47.003Z</time></trkpt><trkpt lat="45.6697065" lon="10.8535583"><ele>832.4</ele><time>2026-04-06T08:59:48.004Z</time></trkpt><trkpt lat="45.6697413" lon="10.8534059"><ele>833.8</ele><time>2026-04-06T08:59:49.004Z</time></trkpt><trkpt lat="45.6697837" lon="10.8532696"><ele>835.1999999999999</ele><time>2026-04-06T08:59:50.004Z</time></trkpt><trkpt lat="45.6698484" lon="10.8531561"><ele>836.5999999999999</ele><time>2026-04-06T08:59:51.004Z</time></trkpt><trkpt lat="45.6699316" lon="10.8530779"><ele>838.0</ele><time>2026-04-06T08:59:52.005Z</time></trkpt><trkpt lat="45.6700274" lon="10.8530379"><ele>838.0</ele><time>2026-04-06T08:59:53.004Z</time></trkpt><trkpt lat="45.6701413" lon="10.8530291"><ele>838.0</ele><time>2026-04-06T08:59:54.004Z</time></trkpt><trkpt lat="45.6702653" lon="10.8530514"><ele>838.0</ele><time>2026-04-06T08:59:55.004Z</time></trkpt><trkpt lat="45.6703975" lon="10.8530895"><ele>838.0</ele><time>2026-04-06T08:59:56.003Z</time></trkpt><trkpt lat="45.6705247" lon="10.853133"><ele>836.25</ele><time>2026-04-06T08:59:57.004Z</time></trkpt><trkpt lat="45.6706455" lon="10.8531858"><ele>834.5</ele><time>2026-04-06T08:59:58.005Z</time></trkpt><trkpt lat="45.6707629" lon="10.8532468"><ele>832.75</ele><time>2026-04-06T08:59:59.004Z</time></trkpt><trkpt lat="45.6708783" lon="10.853313"><ele>831.0</ele><time>2026-04-06T09:00:00.004Z</time></trkpt><trkpt lat="45.6709943" lon="10.8533812"><ele>829.5</ele><time>2026-04-06T09:00:01.004Z</time></trkpt><trkpt lat="45.6711128" lon="10.8534557"><ele>828.0</ele><time>2026-04-06T09:00:02.004Z</time></trkpt><trkpt lat="45.6712248" lon="10.8535419"><ele>826.5</ele><time>2026-04-06T09:00:03.004Z</time></trkpt><trkpt lat="45.6713296" lon="10.85365"><ele>825.0</ele><time>2026-04-06T09:00:04.003Z</time></trkpt><trkpt lat="45.6714228" lon="10.853783"><ele>825.0</ele><time>2026-04-06T09:00:05.004Z</time></trkpt><trkpt lat="45.6715138" lon="10.8539517"><ele>825.0</ele><time>2026-04-06T09:00:06.004Z</time></trkpt><trkpt lat="45.6715911" lon="10.8541163"><ele>825.0</ele><time>2026-04-06T09:00:07.004Z</time></trkpt><trkpt lat="45.6716596" lon="10.8542746"><ele>825.0</ele><time>2026-04-06T09:00:08.005Z</time></trkpt><trkpt lat="45.6717267" lon="10.8544286"><ele>823.0</ele><time>2026-04-06T09:00:09.003Z</time></trkpt><trkpt lat="45.6717972" lon="10.8545602"><ele>821.0</ele><time>2026-04-06T09:00:10.004Z</time></trkpt><trkpt lat="45.6718756" lon="10.8546572"><ele>819.0</ele><time>2026-04-06T09:00:11.004Z</time></trkpt><trkpt lat="45.671965" lon="10.8547267"><ele>817.0</ele><time>2026-04-06T09:00:12.003Z</time></trkpt><trkpt lat="45.672068" lon="10.8547662"><ele>815.0</ele><time>2026-04-06T09:00:13.004Z</time></trkpt><trkpt lat="45.6721764" lon="10.8547719"><ele>815.0</ele><time>2026-04-06T09:00:14.003Z</time></trkpt><trkpt lat="45.6722829" lon="10.8547485"><ele>815.0</ele><time>2026-04-06T09:00:15.003Z</time></trkpt><trkpt lat="45.6723989" lon="10.8547024"><ele>815.0</ele><time>2026-04-06T09:00:16.004Z</time></trkpt><trkpt lat="45.6725234" lon="10.8546566"><ele>815.0</ele><time>2026-04-06T09:00:17.004Z</time></trkpt><trkpt lat="45.6726601" lon="10.8546135"><ele>814.6666666666667</ele><time>2026-04-06T09:00:18.003Z</time></trkpt><trkpt lat="45.6728036" lon="10.8545755"><ele>814.3333333333333</ele><time>2026-04-06T09:00:19.004Z</time></trkpt><trkpt lat="45.672971" lon="10.8545138"><ele>814.0</ele><time>2026-04-06T09:00:20.003Z</time></trkpt><trkpt lat="45.6731557" lon="10.854452"><ele>814.0</ele><time>2026-04-06T09:00:21.003Z</time></trkpt><trkpt lat="45.6733561" lon="10.8543803"><ele>814.0</ele><time>2026-04-06T09:00:22.004Z</time></trkpt><trkpt lat="45.6735541" lon="10.8543138"><ele>814.0</ele><time>2026-04-06T09:00:23.004Z</time></trkpt><trkpt lat="45.6737422" lon="10.8542592"><ele>816.0</ele><time>2026-04-06T09:00:24.004Z</time></trkpt><trkpt lat="45.6739295" lon="10.85421"><ele>818.0</ele><time>2026-04-06T09:00:25.004Z</time></trkpt><trkpt lat="45.674108" lon="10.8541709"><ele>820.0</ele><time>2026-04-06T09:00:26.004Z</time></trkpt><trkpt lat="45.6742959" lon="10.8541147"><ele>816.3333333333333</ele><time>2026-04-06T09:00:27.003Z</time></trkpt><trkpt lat="45.6745024" lon="10.8540376"><ele>812.6666666666667</ele><time>2026-04-06T09:00:28.004Z</time></trkpt><trkpt lat="45.6746873" lon="10.8539639"><ele>809.0</ele><time>2026-04-06T09:00:29.004Z</time></trkpt><trkpt lat="45.6748448" lon="10.8539018"><ele>809.0</ele><time>2026-04-06T09:00:30.004Z</time></trkpt><trkpt lat="45.6749775" lon="10.8538491"><ele>809.0</ele><time>2026-04-06T09:00:31.003Z</time></trkpt><trkpt lat="45.6750946" lon="10.853806"><ele>809.0</ele><time>2026-04-06T09:00:32.005Z</time></trkpt><trkpt lat="45.6751941" lon="10.8537772"><ele>809.0</ele><time>2026-04-06T09:00:33.003Z</time></trkpt><trkpt lat="45.6752886" lon="10.8537605"><ele>810.3333333333334</ele><time>2026-04-06T09:00:34.003Z</time></trkpt><trkpt lat="45.6753753" lon="10.8537636"><ele>811.6666666666667</ele><time>2026-04-06T09:00:35.003Z</time></trkpt><trkpt lat="45.6754543" lon="10.8537847"><ele>813.0</ele><time>2026-04-06T09:00:36.004Z</time></trkpt><trkpt lat="45.6755287" lon="10.8538179"><ele>814.3333333333333</ele><time>2026-04-06T09:00:37.003Z</time></trkpt><trkpt lat="45.6756093" lon="10.8538735"><ele>815.6666666666666</ele><time>2026-04-06T09:00:38.004Z</time></trkpt><trkpt lat="45.6756952" lon="10.8539399"><ele>817.0</ele><time>2026-04-06T09:00:39.003Z</time></trkpt><trkpt lat="45.6757919" lon="10.8539956"><ele>817.0</ele><time>2026-04-06T09:00:40.004Z</time></trkpt><trkpt lat="45.6758879" lon="10.8540463"><ele>817.0</ele><time>2026-04-06T09:00:41.004Z</time></trkpt><trkpt lat="45.6759734" lon="10.8541032"><ele>817.0</ele><time>2026-04-06T09:00:42.003Z</time></trkpt><trkpt lat="45.6760505" lon="10.8541768"><ele>817.0</ele><time>2026-04-06T09:00:43.003Z</time></trkpt><trkpt lat="45.6761124" lon="10.8542631"><ele>817.0</ele><time>2026-04-06T09:00:44.004Z</time></trkpt><trkpt lat="45.6761619" lon="10.8543494"><ele>820.2</ele><time>2026-04-06T09:00:45.004Z</time></trkpt><trkpt lat="45.6762057" lon="10.8544486"><ele>823.4000000000001</ele><time>2026-04-06T09:00:46.004Z</time></trkpt><trkpt lat="45.6762504" lon="10.8545529"><ele>826.5999999999999</ele><time>2026-04-06T09:00:47.003Z</time></trkpt><trkpt lat="45.676295" lon="10.8546342"><ele>829.8</ele><time>2026-04-06T09:00:48.003Z</time></trkpt><trkpt lat="45.6763941" lon="10.8547037"><ele>833.0</ele><time>2026-04-06T09:00:50.004Z</time></trkpt><trkpt lat="45.676502" lon="10.8546509"><ele>833.0000000000001</ele><time>2026-04-06T09:00:52.004Z</time></trkpt><trkpt lat="45.6765677" lon="10.8545455"><ele>833.0</ele><time>2026-04-06T09:00:54.004Z</time></trkpt><trkpt lat="45.6766459" lon="10.8544921"><ele>833.0</ele><time>2026-04-06T09:00:57.003Z</time></trkpt><trkpt lat="45.6767248" lon="10.8545131"><ele>833.0</ele><time>2026-04-06T09:00:59.005Z</time></trkpt><trkpt lat="45.6768254" lon="10.8545781"><ele>833.0000000000001</ele><time>2026-04-06T09:01:01.003Z</time></trkpt><trkpt lat="45.6768887" lon="10.8546126"><ele>833.0</ele><time>2026-04-06T09:01:02.004Z</time></trkpt><trkpt lat="45.6769958" lon="10.8546817"><ele>834.5000000000001</ele><time>2026-04-06T09:01:04.003Z</time></trkpt><trkpt lat="45.6771019" lon="10.8547867"><ele>836.0</ele><time>2026-04-06T09:01:06.005Z</time></trkpt><trkpt lat="45.6771577" lon="10.8548611"><ele>837.5</ele><time>2026-04-06T09:01:07.004Z</time></trkpt><trkpt lat="45.6772099" lon="10.8549486"><ele>839.0</ele><time>2026-04-06T09:01:08.004Z</time></trkpt><trkpt lat="45.6772515" lon="10.8550312"><ele>840.5000000000001</ele><time>2026-04-06T09:01:09.004Z</time></trkpt><trkpt lat="45.677295" lon="10.855117"><ele>842.0</ele><time>2026-04-06T09:01:10.003Z</time></trkpt><trkpt lat="45.6773383" lon="10.8551985"><ele>842.0</ele><time>2026-04-06T09:01:11.004Z</time></trkpt><trkpt lat="45.677379" lon="10.8552723"><ele>842.0</ele><time>2026-04-06T09:01:12.004Z</time></trkpt><trkpt lat="45.6774446" lon="10.8553863"><ele>842.0</ele><time>2026-04-06T09:01:14.003Z</time></trkpt><trkpt lat="45.677528" lon="10.855467"><ele>842.0</ele><time>2026-04-06T09:01:16.004Z</time></trkpt><trkpt lat="45.677618" lon="10.8554554"><ele>842.0</ele><time>2026-04-06T09:01:18.004Z</time></trkpt><trkpt lat="45.6777068" lon="10.8553691"><ele>844.0000000000001</ele><time>2026-04-06T09:01:20.004Z</time></trkpt><trkpt lat="45.6777925" lon="10.8552367"><ele>846.0</ele><time>2026-04-06T09:01:22.003Z</time></trkpt><trkpt lat="45.6778347" lon="10.8551659"><ele>848.0</ele><time>2026-04-06T09:01:23.003Z</time></trkpt><trkpt lat="45.6778798" lon="10.8550916"><ele>850.0</ele><time>2026-04-06T09:01:24.004Z</time></trkpt><trkpt lat="45.6779372" lon="10.8550238"><ele>852.0000000000001</ele><time>2026-04-06T09:01:25.004Z</time></trkpt><trkpt lat="45.6780057" lon="10.8549706"><ele>854.0</ele><time>2026-04-06T09:01:26.003Z</time></trkpt><trkpt lat="45.6780859" lon="10.8549323"><ele>854.8000000000001</ele><time>2026-04-06T09:01:27.004Z</time></trkpt><trkpt lat="45.678175" lon="10.8549097"><ele>855.6000000000001</ele><time>2026-04-06T09:01:28.005Z</time></trkpt><trkpt lat="45.6782648" lon="10.8548904"><ele>856.4</ele><time>2026-04-06T09:01:29.003Z</time></trkpt><trkpt lat="45.6783637" lon="10.8548725"><ele>857.2</ele><time>2026-04-06T09:01:30.003Z</time></trkpt><trkpt lat="45.678469" lon="10.8548637"><ele>858.0</ele><time>2026-04-06T09:01:31.003Z</time></trkpt><trkpt lat="45.6785797" lon="10.8548756"><ele>861.75</ele><time>2026-04-06T09:01:32.004Z</time></trkpt><trkpt lat="45.6786962" lon="10.8548923"><ele>865.5</ele><time>2026-04-06T09:01:33.004Z</time></trkpt><trkpt lat="45.6788088" lon="10.8548912"><ele>869.25</ele><time>2026-04-06T09:01:34.003Z</time></trkpt><trkpt lat="45.678926" lon="10.8548615"><ele>873.0</ele><time>2026-04-06T09:01:35.003Z</time></trkpt><trkpt lat="45.6790453" lon="10.8548085"><ele>873.0</ele><time>2026-04-06T09:01:36.004Z</time></trkpt><trkpt lat="45.6791452" lon="10.8547548"><ele>873.0</ele><time>2026-04-06T09:01:37.004Z</time></trkpt><trkpt lat="45.6792458" lon="10.8547029"><ele>873.0</ele><time>2026-04-06T09:01:38.004Z</time></trkpt><trkpt lat="45.6793469" lon="10.8546572"><ele>873.0</ele><time>2026-04-06T09:01:39.003Z</time></trkpt><trkpt lat="45.6794398" lon="10.8546317"><ele>873.0</ele><time>2026-04-06T09:01:40.003Z</time></trkpt><trkpt lat="45.6795154" lon="10.8546256"><ele>875.1666666666666</ele><time>2026-04-06T09:01:41.004Z</time></trkpt><trkpt lat="45.6795843" lon="10.8546329"><ele>877.3333333333333</ele><time>2026-04-06T09:01:42.004Z</time></trkpt><trkpt lat="45.6796454" lon="10.8546547"><ele>879.5</ele><time>2026-04-06T09:01:43.004Z</time></trkpt><trkpt lat="45.6797226" lon="10.8547674"><ele>881.6666666666666</ele><time>2026-04-06T09:01:45.003Z</time></trkpt><trkpt lat="45.6797501" lon="10.8548675"><ele>883.8333333333333</ele><time>2026-04-06T09:01:46.004Z</time></trkpt><trkpt lat="45.6797625" lon="10.8549957"><ele>886.0</ele><time>2026-04-06T09:01:47.003Z</time></trkpt><trkpt lat="45.6797522" lon="10.855138"><ele>886.0</ele><time>2026-04-06T09:01:48.004Z</time></trkpt><trkpt lat="45.6797252" lon="10.855266"><ele>885.9999999999999</ele><time>2026-04-06T09:01:49.005Z</time></trkpt><trkpt lat="45.6796921" lon="10.8553641"><ele>885.9999999999999</ele><time>2026-04-06T09:01:50.004Z</time></trkpt><trkpt lat="45.6796666" lon="10.8554657"><ele>886.0</ele><time>2026-04-06T09:01:51.004Z</time></trkpt><trkpt lat="45.6796817" lon="10.8556255"><ele>886.0</ele><time>2026-04-06T09:01:53.003Z</time></trkpt><trkpt lat="45.6797807" lon="10.8557174"><ele>886.0</ele><time>2026-04-06T09:01:55.004Z</time></trkpt><trkpt lat="45.6798532" lon="10.8557268"><ele>885.9999999999999</ele><time>2026-04-06T09:01:56.004Z</time></trkpt><trkpt lat="45.6799478" lon="10.8557241"><ele>885.9999999999999</ele><time>2026-04-06T09:01:57.004Z</time></trkpt><trkpt lat="45.6800611" lon="10.8557122"><ele>886.0</ele><time>2026-04-06T09:01:58.004Z</time></trkpt><trkpt lat="45.6801835" lon="10.8556961"><ele>886.0</ele><time>2026-04-06T09:01:59.004Z</time></trkpt><trkpt lat="45.6802787" lon="10.8556796"><ele>885.8333333333333</ele><time>2026-04-06T09:02:00.004Z</time></trkpt><trkpt lat="45.6803636" lon="10.855655"><ele>885.6666666666666</ele><time>2026-04-06T09:02:01.003Z</time></trkpt><trkpt lat="45.6804366" lon="10.8556166"><ele>885.5</ele><time>2026-04-06T09:02:02.003Z</time></trkpt><trkpt lat="45.6804947" lon="10.855554"><ele>885.3333333333333</ele><time>2026-04-06T09:02:03.003Z</time></trkpt><trkpt lat="45.6805438" lon="10.8554638"><ele>885.1666666666666</ele><time>2026-04-06T09:02:04.004Z</time></trkpt><trkpt lat="45.6805884" lon="10.8553457"><ele>885.0</ele><time>2026-04-06T09:02:05.003Z</time></trkpt><trkpt lat="45.6806358" lon="10.8552042"><ele>888.0</ele><time>2026-04-06T09:02:06.004Z</time></trkpt><trkpt lat="45.6806922" lon="10.8550528"><ele>891.0</ele><time>2026-04-06T09:02:07.005Z</time></trkpt><trkpt lat="45.680753" lon="10.8549291"><ele>894.0</ele><time>2026-04-06T09:02:08.004Z</time></trkpt><trkpt lat="45.6808212" lon="10.8548252"><ele>897.0</ele><time>2026-04-06T09:02:09.004Z</time></trkpt><trkpt lat="45.6808953" lon="10.8547616"><ele>900.0</ele><time>2026-04-06T09:02:10.003Z</time></trkpt><trkpt lat="45.680994" lon="10.8547068"><ele>902.5</ele><time>2026-04-06T09:02:11.003Z</time></trkpt><trkpt lat="45.6811192" lon="10.8546675"><ele>905.0</ele><time>2026-04-06T09:02:12.004Z</time></trkpt><trkpt lat="45.6812492" lon="10.8546258"><ele>907.5</ele><time>2026-04-06T09:02:13.003Z</time></trkpt><trkpt lat="45.681391" lon="10.85457"><ele>910.0</ele><time>2026-04-06T09:02:14.003Z</time></trkpt><trkpt lat="45.68155" lon="10.8544968"><ele>910.0</ele><time>2026-04-06T09:02:15.003Z</time></trkpt><trkpt lat="45.6816969" lon="10.854421"><ele>910.0</ele><time>2026-04-06T09:02:16.003Z</time></trkpt><trkpt lat="45.6818214" lon="10.8543543"><ele>910.0</ele><time>2026-04-06T09:02:17.003Z</time></trkpt><trkpt lat="45.6819381" lon="10.8542924"><ele>910.0</ele><time>2026-04-06T09:02:18.003Z</time></trkpt><trkpt lat="45.6820541" lon="10.8542382"><ele>916.75</ele><time>2026-04-06T09:02:19.004Z</time></trkpt><trkpt lat="45.6821676" lon="10.8541878"><ele>923.5</ele><time>2026-04-06T09:02:20.005Z</time></trkpt><trkpt lat="45.6822792" lon="10.8541348"><ele>930.25</ele><time>2026-04-06T09:02:21.003Z</time></trkpt><trkpt lat="45.682387" lon="10.8540827"><ele>937.0</ele><time>2026-04-06T09:02:22.004Z</time></trkpt><trkpt lat="45.6824863" lon="10.8540361"><ele>936.9999999999999</ele><time>2026-04-06T09:02:23.003Z</time></trkpt><trkpt lat="45.6825794" lon="10.8539869"><ele>937.0</ele><time>2026-04-06T09:02:24.003Z</time></trkpt><trkpt lat="45.6826538" lon="10.8539391"><ele>937.0</ele><time>2026-04-06T09:02:25.004Z</time></trkpt><trkpt lat="45.6827179" lon="10.8538806"><ele>937.0</ele><time>2026-04-06T09:02:26.005Z</time></trkpt><trkpt lat="45.6827633" lon="10.8538035"><ele>936.9999999999999</ele><time>2026-04-06T09:02:27.003Z</time></trkpt><trkpt lat="45.6827903" lon="10.8537172"><ele>937.0</ele><time>2026-04-06T09:02:28.005Z</time></trkpt><trkpt lat="45.6827708" lon="10.8535473"><ele>937.0</ele><time>2026-04-06T09:02:30.003Z</time></trkpt><trkpt lat="45.6827269" lon="10.8534775"><ele>937.0</ele><time>2026-04-06T09:02:31.004Z</time></trkpt><trkpt lat="45.6826143" lon="10.8534353"><ele>937.0</ele><time>2026-04-06T09:02:33.003Z</time></trkpt><trkpt lat="45.6825104" lon="10.8534241"><ele>937.0</ele><time>2026-04-06T09:02:35.003Z</time></trkpt><trkpt lat="45.682482" lon="10.8533121"><ele>937.0</ele><time>2026-04-06T09:02:37.003Z</time></trkpt><trkpt lat="45.6825511" lon="10.8531766"><ele>938.4000000000001</ele><time>2026-04-06T09:02:39.004Z</time></trkpt><trkpt lat="45.6826284" lon="10.8531177"><ele>939.8000000000001</ele><time>2026-04-06T09:02:40.004Z</time></trkpt><trkpt lat="45.6827168" lon="10.8530713"><ele>941.2</ele><time>2026-04-06T09:02:41.005Z</time></trkpt><trkpt lat="45.6828065" lon="10.8530498"><ele>942.6</ele><time>2026-04-06T09:02:42.005Z</time></trkpt><trkpt lat="45.682908" lon="10.8530397"><ele>944.0</ele><time>2026-04-06T09:02:43.003Z</time></trkpt><trkpt lat="45.683025" lon="10.8530528"><ele>949.5</ele><time>2026-04-06T09:02:44.004Z</time></trkpt><trkpt lat="45.6831562" lon="10.8530933"><ele>955.0</ele><time>2026-04-06T09:02:45.003Z</time></trkpt><trkpt lat="45.6832774" lon="10.853143"><ele>960.5</ele><time>2026-04-06T09:02:46.003Z</time></trkpt><trkpt lat="45.6833877" lon="10.853181"><ele>966.0</ele><time>2026-04-06T09:02:47.004Z</time></trkpt><trkpt lat="45.6834865" lon="10.8532002"><ele>966.0</ele><time>2026-04-06T09:02:48.005Z</time></trkpt><trkpt lat="45.6835833" lon="10.8532093"><ele>966.0</ele><time>2026-04-06T09:02:49.004Z</time></trkpt><trkpt lat="45.6836777" lon="10.8532133"><ele>966.0</ele><time>2026-04-06T09:02:50.003Z</time></trkpt><trkpt lat="45.6837568" lon="10.8532048"><ele>966.0</ele><time>2026-04-06T09:02:51.003Z</time></trkpt><trkpt lat="45.6838213" lon="10.8531993"><ele>966.0</ele><time>2026-04-06T09:02:52.004Z</time></trkpt><trkpt lat="45.6839126" lon="10.8532012"><ele>966.0</ele><time>2026-04-06T09:02:54.004Z</time></trkpt><trkpt lat="45.6839697" lon="10.8532827"><ele>970.1999999999999</ele><time>2026-04-06T09:02:56.003Z</time></trkpt><trkpt lat="45.6839394" lon="10.8533832"><ele>974.3999999999999</ele><time>2026-04-06T09:02:58.004Z</time></trkpt><trkpt lat="45.6838292" lon="10.8534395"><ele>978.6</ele><time>2026-04-06T09:03:00.005Z</time></trkpt><trkpt lat="45.6837579" lon="10.85347"><ele>982.8</ele><time>2026-04-06T09:03:01.004Z</time></trkpt><trkpt lat="45.6836717" lon="10.8535711"><ele>987.0</ele><time>2026-04-06T09:03:03.003Z</time></trkpt><trkpt lat="45.6836638" lon="10.8537651"><ele>987.2</ele><time>2026-04-06T09:03:05.003Z</time></trkpt><trkpt lat="45.6836741" lon="10.8538905"><ele>987.4000000000001</ele><time>2026-04-06T09:03:06.003Z</time></trkpt><trkpt lat="45.6836875" lon="10.8540082"><ele>987.5999999999999</ele><time>2026-04-06T09:03:07.003Z</time></trkpt><trkpt lat="45.6837088" lon="10.8541292"><ele>987.8</ele><time>2026-04-06T09:03:08.003Z</time></trkpt><trkpt lat="45.6837418" lon="10.8542512"><ele>988.0</ele><time>2026-04-06T09:03:09.003Z</time></trkpt><trkpt lat="45.6837961" lon="10.85438"><ele>988.0</ele><time>2026-04-06T09:03:10.003Z</time></trkpt><trkpt lat="45.6838573" lon="10.854487"><ele>988.0</ele><time>2026-04-06T09:03:11.003Z</time></trkpt><trkpt lat="45.6839295" lon="10.8545928"><ele>988.0</ele><time>2026-04-06T09:03:12.004Z</time></trkpt><trkpt lat="45.6840138" lon="10.8546947"><ele>988.0</ele><time>2026-04-06T09:03:13.004Z</time></trkpt><trkpt lat="45.6840976" lon="10.8547845"><ele>988.0</ele><time>2026-04-06T09:03:14.004Z</time></trkpt><trkpt lat="45.6841729" lon="10.8548564"><ele>987.9999999999999</ele><time>2026-04-06T09:03:15.004Z</time></trkpt><trkpt lat="45.6842461" lon="10.8549105"><ele>988.0</ele><time>2026-04-06T09:03:16.004Z</time></trkpt><trkpt lat="45.684326" lon="10.8549517"><ele>988.0</ele><time>2026-04-06T09:03:17.004Z</time></trkpt><trkpt lat="45.6844027" lon="10.8549534"><ele>988.0</ele><time>2026-04-06T09:03:18.004Z</time></trkpt><trkpt lat="45.6844801" lon="10.8549257"><ele>987.9999999999999</ele><time>2026-04-06T09:03:19.004Z</time></trkpt><trkpt lat="45.6845546" lon="10.8548568"><ele>988.0</ele><time>2026-04-06T09:03:20.004Z</time></trkpt><trkpt lat="45.684627" lon="10.8547545"><ele>990.75</ele><time>2026-04-06T09:03:21.004Z</time></trkpt><trkpt lat="45.6847083" lon="10.8546251"><ele>993.5</ele><time>2026-04-06T09:03:22.003Z</time></trkpt><trkpt lat="45.6848043" lon="10.8544908"><ele>996.25</ele><time>2026-04-06T09:03:23.004Z</time></trkpt><trkpt lat="45.6849113" lon="10.8543578"><ele>999.0</ele><time>2026-04-06T09:03:24.004Z</time></trkpt><trkpt lat="45.6850289" lon="10.8542378"><ele>1001.5</ele><time>2026-04-06T09:03:25.004Z</time></trkpt><trkpt lat="45.6851585" lon="10.8541386"><ele>1004.0</ele><time>2026-04-06T09:03:26.003Z</time></trkpt><trkpt lat="45.6852896" lon="10.8540734"><ele>1006.5</ele><time>2026-04-06T09:03:27.004Z</time></trkpt><trkpt lat="45.6854242" lon="10.8540406"><ele>1009.0</ele><time>2026-04-06T09:03:28.004Z</time></trkpt><trkpt lat="45.6855605" lon="10.8540411"><ele>1012.6666666666666</ele><time>2026-04-06T09:03:29.003Z</time></trkpt><trkpt lat="45.685715" lon="10.8540657"><ele>1016.3333333333333</ele><time>2026-04-06T09:03:30.004Z</time></trkpt><trkpt lat="45.6858907" lon="10.8541006"><ele>1020.0</ele><time>2026-04-06T09:03:31.004Z</time></trkpt><trkpt lat="45.6860736" lon="10.8541315"><ele>1023.6666666666667</ele><time>2026-04-06T09:03:32.004Z</time></trkpt><trkpt lat="45.6862348" lon="10.8541629"><ele>1027.3333333333335</ele><time>2026-04-06T09:03:33.004Z</time></trkpt><trkpt lat="45.6864104" lon="10.8542131"><ele>1031.0</ele><time>2026-04-06T09:03:34.005Z</time></trkpt><trkpt lat="45.6865874" lon="10.8542819"><ele>1032.0</ele><time>2026-04-06T09:03:35.003Z</time></trkpt><trkpt lat="45.6867567" lon="10.8543613"><ele>1033.0</ele><time>2026-04-06T09:03:36.004Z</time></trkpt><trkpt lat="45.6869044" lon="10.8544361"><ele>1034.0</ele><time>2026-04-06T09:03:37.005Z</time></trkpt><trkpt lat="45.6870559" lon="10.8545031"><ele>1034.0</ele><time>2026-04-06T09:03:38.004Z</time></trkpt><trkpt lat="45.6872164" lon="10.8545377"><ele>1034.0</ele><time>2026-04-06T09:03:39.004Z</time></trkpt><trkpt lat="45.6873879" lon="10.8545435"><ele>1034.0</ele><time>2026-04-06T09:03:40.003Z</time></trkpt><trkpt lat="45.6875685" lon="10.8545404"><ele>1034.0</ele><time>2026-04-06T09:03:41.004Z</time></trkpt><trkpt lat="45.6877549" lon="10.8545334"><ele>1034.0</ele><time>2026-04-06T09:03:42.004Z</time></trkpt><trkpt lat="45.6879203" lon="10.8545134"><ele>1034.0</ele><time>2026-04-06T09:03:43.004Z</time></trkpt><trkpt lat="45.6880955" lon="10.8544882"><ele>1038.25</ele><time>2026-04-06T09:03:44.003Z</time></trkpt><trkpt lat="45.6882463" lon="10.8544718"><ele>1042.5</ele><time>2026-04-06T09:03:45.003Z</time></trkpt><trkpt lat="45.6883814" lon="10.8544759"><ele>1046.75</ele><time>2026-04-06T09:03:46.003Z</time></trkpt><trkpt lat="45.6884998" lon="10.8545106"><ele>1051.0</ele><time>2026-04-06T09:03:47.004Z</time></trkpt><trkpt lat="45.6885866" lon="10.8545664"><ele>1053.0</ele><time>2026-04-06T09:03:48.005Z</time></trkpt><trkpt lat="45.6886508" lon="10.8546341"><ele>1055.0</ele><time>2026-04-06T09:03:49.004Z</time></trkpt><trkpt lat="45.6887415" lon="10.854732"><ele>1057.0</ele><time>2026-04-06T09:03:51.005Z</time></trkpt><trkpt lat="45.6888712" lon="10.8547762"><ele>1059.0</ele><time>2026-04-06T09:03:53.003Z</time></trkpt><trkpt lat="45.6889742" lon="10.8547882"><ele>1061.0</ele><time>2026-04-06T09:03:54.004Z</time></trkpt><trkpt lat="45.6891046" lon="10.8547936"><ele>1061.0</ele><time>2026-04-06T09:03:55.004Z</time></trkpt><trkpt lat="45.6892512" lon="10.8547879"><ele>1061.0</ele><time>2026-04-06T09:03:56.005Z</time></trkpt><trkpt lat="45.6893994" lon="10.8547711"><ele>1061.0</ele><time>2026-04-06T09:03:57.004Z</time></trkpt><trkpt lat="45.6895637" lon="10.8547468"><ele>1061.6666666666667</ele><time>2026-04-06T09:03:58.004Z</time></trkpt><trkpt lat="45.6897397" lon="10.8547185"><ele>1062.3333333333333</ele><time>2026-04-06T09:03:59.004Z</time></trkpt><trkpt lat="45.6899063" lon="10.8546889"><ele>1063.0</ele><time>2026-04-06T09:04:00.003Z</time></trkpt><trkpt lat="45.6900609" lon="10.8546494"><ele>1063.0</ele><time>2026-04-06T09:04:01.003Z</time></trkpt><trkpt lat="45.6902107" lon="10.8545802"><ele>1063.0</ele><time>2026-04-06T09:04:02.003Z</time></trkpt><trkpt lat="45.6903572" lon="10.8544873"><ele>1063.0</ele><time>2026-04-06T09:04:03.004Z</time></trkpt><trkpt lat="45.6904777" lon="10.854401"><ele>1065.0</ele><time>2026-04-06T09:04:04.004Z</time></trkpt><trkpt lat="45.6905688" lon="10.8543362"><ele>1067.0</ele><time>2026-04-06T09:04:05.004Z</time></trkpt><trkpt lat="45.6906407" lon="10.8542855"><ele>1069.0</ele><time>2026-04-06T09:04:06.004Z</time></trkpt><trkpt lat="45.6906919" lon="10.8542276"><ele>1071.0</ele><time>2026-04-06T09:04:07.003Z</time></trkpt><trkpt lat="45.6907217" lon="10.8541452"><ele>1073.0</ele><time>2026-04-06T09:04:08.003Z</time></trkpt><trkpt lat="45.69069" lon="10.8539775"><ele>1075.0</ele><time>2026-04-06T09:04:10.003Z</time></trkpt><trkpt lat="45.6906267" lon="10.8539241"><ele>1078.25</ele><time>2026-04-06T09:04:11.004Z</time></trkpt><trkpt lat="45.690528" lon="10.8538934"><ele>1081.5</ele><time>2026-04-06T09:04:12.003Z</time></trkpt><trkpt lat="45.6903953" lon="10.8538737"><ele>1084.75</ele><time>2026-04-06T09:04:13.004Z</time></trkpt><trkpt lat="45.6902509" lon="10.8538504"><ele>1088.0</ele><time>2026-04-06T09:04:14.005Z</time></trkpt><trkpt lat="45.690115" lon="10.853806"><ele>1088.0</ele><time>2026-04-06T09:04:15.004Z</time></trkpt><trkpt lat="45.6899936" lon="10.8537328"><ele>1088.0</ele><time>2026-04-06T09:04:16.004Z</time></trkpt><trkpt lat="45.689887" lon="10.8536392"><ele>1088.0</ele><time>2026-04-06T09:04:17.005Z</time></trkpt><trkpt lat="45.6897773" lon="10.8535156"><ele>1088.0</ele><time>2026-04-06T09:04:18.003Z</time></trkpt><trkpt lat="45.6896705" lon="10.8533701"><ele>1090.3333333333335</ele><time>2026-04-06T09:04:19.003Z</time></trkpt><trkpt lat="45.6895715" lon="10.853196"><ele>1092.6666666666667</ele><time>2026-04-06T09:04:20.004Z</time></trkpt><trkpt lat="45.6894808" lon="10.8529854"><ele>1095.0</ele><time>2026-04-06T09:04:21.004Z</time></trkpt><trkpt lat="45.689394" lon="10.8527519"><ele>1099.25</ele><time>2026-04-06T09:04:22.005Z</time></trkpt><trkpt lat="45.6893225" lon="10.8525548"><ele>1103.5</ele><time>2026-04-06T09:04:23.004Z</time></trkpt><trkpt lat="45.6892588" lon="10.8523746"><ele>1107.75</ele><time>2026-04-06T09:04:24.003Z</time></trkpt><trkpt lat="45.6892068" lon="10.8522277"><ele>1112.0</ele><time>2026-04-06T09:04:25.005Z</time></trkpt><trkpt lat="45.6891671" lon="10.8521139"><ele>1112.0</ele><time>2026-04-06T09:04:26.005Z</time></trkpt><trkpt lat="45.6891359" lon="10.852013"><ele>1112.0</ele><time>2026-04-06T09:04:27.004Z</time></trkpt><trkpt lat="45.6891228" lon="10.8518605"><ele>1112.0</ele><time>2026-04-06T09:04:29.003Z</time></trkpt><trkpt lat="45.6891774" lon="10.8517899"><ele>1112.0</ele><time>2026-04-06T09:04:31.005Z</time></trkpt><trkpt lat="45.6892988" lon="10.8517853"><ele>1112.0</ele><time>2026-04-06T09:04:33.003Z</time></trkpt><trkpt lat="45.6893899" lon="10.8518395"><ele>1115.0</ele><time>2026-04-06T09:04:34.003Z</time></trkpt><trkpt lat="45.6894868" lon="10.8519068"><ele>1118.0</ele><time>2026-04-06T09:04:35.003Z</time></trkpt><trkpt lat="45.689601" lon="10.8519946"><ele>1121.0</ele><time>2026-04-06T09:04:36.004Z</time></trkpt><trkpt lat="45.6897147" lon="10.8520757"><ele>1124.0</ele><time>2026-04-06T09:04:37.005Z</time></trkpt><trkpt lat="45.6898501" lon="10.8521643"><ele>1124.0</ele><time>2026-04-06T09:04:38.004Z</time></trkpt><trkpt lat="45.6899851" lon="10.8522315"><ele>1124.0</ele><time>2026-04-06T09:04:39.005Z</time></trkpt><trkpt lat="45.6901395" lon="10.8522803"><ele>1124.0</ele><time>2026-04-06T09:04:40.003Z</time></trkpt><trkpt lat="45.6902888" lon="10.8523058"><ele>1125.75</ele><time>2026-04-06T09:04:41.003Z</time></trkpt><trkpt lat="45.6904194" lon="10.8523191"><ele>1127.5</ele><time>2026-04-06T09:04:42.004Z</time></trkpt><trkpt lat="45.6905417" lon="10.8523346"><ele>1129.25</ele><time>2026-04-06T09:04:43.004Z</time></trkpt><trkpt lat="45.690671" lon="10.8523437"><ele>1131.0</ele><time>2026-04-06T09:04:44.003Z</time></trkpt><trkpt lat="45.6908047" lon="10.852329"><ele>1131.0</ele><time>2026-04-06T09:04:45.003Z</time></trkpt><trkpt lat="45.6909443" lon="10.8522851"><ele>1131.0</ele><time>2026-04-06T09:04:46.003Z</time></trkpt><trkpt lat="45.6910899" lon="10.8522275"><ele>1131.0</ele><time>2026-04-06T09:04:47.003Z</time></trkpt><trkpt lat="45.691223" lon="10.8521727"><ele>1131.0</ele><time>2026-04-06T09:04:48.005Z</time></trkpt><trkpt lat="45.6913451" lon="10.852123"><ele>1133.0</ele><time>2026-04-06T09:04:49.004Z</time></trkpt><trkpt lat="45.6914585" lon="10.8520747"><ele>1135.0</ele><time>2026-04-06T09:04:50.004Z</time></trkpt><trkpt lat="45.6915713" lon="10.852028"><ele>1137.0</ele><time>2026-04-06T09:04:51.004Z</time></trkpt><trkpt lat="45.6916836" lon="10.8519789"><ele>1139.0</ele><time>2026-04-06T09:04:52.003Z</time></trkpt><trkpt lat="45.691795" lon="10.8519072"><ele>1139.0</ele><time>2026-04-06T09:04:53.004Z</time></trkpt><trkpt lat="45.6919001" lon="10.8518173"><ele>1139.0</ele><time>2026-04-06T09:04:54.004Z</time></trkpt><trkpt lat="45.6919936" lon="10.8517348"><ele>1139.0</ele><time>2026-04-06T09:04:55.004Z</time></trkpt><trkpt lat="45.6920908" lon="10.8516657"><ele>1139.0</ele><time>2026-04-06T09:04:56.003Z</time></trkpt><trkpt lat="45.6921899" lon="10.8516319"><ele>1139.0</ele><time>2026-04-06T09:04:57.003Z</time></trkpt><trkpt lat="45.692303" lon="10.851622"><ele>1144.25</ele><time>2026-04-06T09:04:58.003Z</time></trkpt><trkpt lat="45.6924259" lon="10.8515964"><ele>1149.5</ele><time>2026-04-06T09:04:59.003Z</time></trkpt><trkpt lat="45.69256" lon="10.8515547"><ele>1154.75</ele><time>2026-04-06T09:05:00.004Z</time></trkpt><trkpt lat="45.6926727" lon="10.8515204"><ele>1160.0</ele><time>2026-04-06T09:05:01.005Z</time></trkpt><trkpt lat="45.6927929" lon="10.8515065"><ele>1160.8</ele><time>2026-04-06T09:05:02.003Z</time></trkpt><trkpt lat="45.692903" lon="10.8515164"><ele>1161.6</ele><time>2026-04-06T09:05:03.004Z</time></trkpt><trkpt lat="45.6930051" lon="10.8515161"><ele>1162.4</ele><time>2026-04-06T09:05:04.003Z</time></trkpt><trkpt lat="45.6931174" lon="10.8514908"><ele>1163.2</ele><time>2026-04-06T09:05:05.004Z</time></trkpt><trkpt lat="45.6932361" lon="10.8514494"><ele>1164.0</ele><time>2026-04-06T09:05:06.003Z</time></trkpt><trkpt lat="45.6933427" lon="10.8513978"><ele>1164.0</ele><time>2026-04-06T09:05:07.003Z</time></trkpt><trkpt lat="45.6934358" lon="10.8513567"><ele>1164.0</ele><time>2026-04-06T09:05:08.004Z</time></trkpt><trkpt lat="45.693517" lon="10.8513219"><ele>1164.0</ele><time>2026-04-06T09:05:09.003Z</time></trkpt><trkpt lat="45.6936003" lon="10.8513121"><ele>1164.0</ele><time>2026-04-06T09:05:10.004Z</time></trkpt><trkpt lat="45.6936835" lon="10.8513355"><ele>1164.0</ele><time>2026-04-06T09:05:11.003Z</time></trkpt><trkpt lat="45.6937643" lon="10.8513979"><ele>1164.0</ele><time>2026-04-06T09:05:12.004Z</time></trkpt><trkpt lat="45.6938387" lon="10.8514897"><ele>1167.4</ele><time>2026-04-06T09:05:13.003Z</time></trkpt><trkpt lat="45.6939014" lon="10.8516139"><ele>1170.8000000000002</ele><time>2026-04-06T09:05:14.003Z</time></trkpt><trkpt lat="45.6939361" lon="10.8517454"><ele>1174.1999999999998</ele><time>2026-04-06T09:05:15.003Z</time></trkpt><trkpt lat="45.6939484" lon="10.851881"><ele>1177.6</ele><time>2026-04-06T09:05:16.004Z</time></trkpt><trkpt lat="45.6939478" lon="10.8520343"><ele>1181.0</ele><time>2026-04-06T09:05:17.005Z</time></trkpt><trkpt lat="45.6939672" lon="10.8521733"><ele>1181.0</ele><time>2026-04-06T09:05:18.003Z</time></trkpt><trkpt lat="45.6940222" lon="10.8523449"><ele>1181.0</ele><time>2026-04-06T09:05:19.004Z</time></trkpt><trkpt lat="45.6940883" lon="10.8525198"><ele>1181.0</ele><time>2026-04-06T09:05:20.005Z</time></trkpt><trkpt lat="45.6941589" lon="10.8526474"><ele>1181.0</ele><time>2026-04-06T09:05:21.004Z</time></trkpt><trkpt lat="45.694252" lon="10.8527506"><ele>1183.25</ele><time>2026-04-06T09:05:22.003Z</time></trkpt><trkpt lat="45.6943611" lon="10.8528413"><ele>1185.5</ele><time>2026-04-06T09:05:23.004Z</time></trkpt><trkpt lat="45.6944603" lon="10.8529341"><ele>1187.75</ele><time>2026-04-06T09:05:24.003Z</time></trkpt><trkpt lat="45.694537" lon="10.8530434"><ele>1190.0</ele><time>2026-04-06T09:05:25.003Z</time></trkpt><trkpt lat="45.694585" lon="10.8531685"><ele>1190.0</ele><time>2026-04-06T09:05:26.003Z</time></trkpt><trkpt lat="45.6946099" lon="10.8533059"><ele>1190.0</ele><time>2026-04-06T09:05:27.003Z</time></trkpt><trkpt lat="45.6946167" lon="10.8534496"><ele>1190.0</ele><time>2026-04-06T09:05:28.003Z</time></trkpt><trkpt lat="45.694607" lon="10.8535969"><ele>1190.0</ele><time>2026-04-06T09:05:29.003Z</time></trkpt><trkpt lat="45.6945998" lon="10.853731"><ele>1190.0</ele><time>2026-04-06T09:05:30.003Z</time></trkpt><trkpt lat="45.6946137" lon="10.8538679"><ele>1189.0</ele><time>2026-04-06T09:05:31.003Z</time></trkpt><trkpt lat="45.6946519" lon="10.8539813"><ele>1188.0</ele><time>2026-04-06T09:05:32.003Z</time></trkpt><trkpt lat="45.6947156" lon="10.8540701"><ele>1187.0</ele><time>2026-04-06T09:05:33.004Z</time></trkpt><trkpt lat="45.6948041" lon="10.854131"><ele>1186.0</ele><time>2026-04-06T09:05:34.003Z</time></trkpt><trkpt lat="45.6949174" lon="10.8541714"><ele>1185.0</ele><time>2026-04-06T09:05:35.004Z</time></trkpt><trkpt lat="45.6950319" lon="10.8542081"><ele>1185.0</ele><time>2026-04-06T09:05:36.003Z</time></trkpt><trkpt lat="45.695124" lon="10.8542521"><ele>1185.0</ele><time>2026-04-06T09:05:37.005Z</time></trkpt><trkpt lat="45.6951837" lon="10.854307"><ele>1185.0</ele><time>2026-04-06T09:05:38.003Z</time></trkpt><trkpt lat="45.695217" lon="10.8544579"><ele>1185.0</ele><time>2026-04-06T09:05:40.005Z</time></trkpt><trkpt lat="45.6951636" lon="10.8546036"><ele>1185.0</ele><time>2026-04-06T09:05:42.004Z</time></trkpt><trkpt lat="45.6951445" lon="10.8547022"><ele>1184.0</ele><time>2026-04-06T09:05:43.003Z</time></trkpt><trkpt lat="45.6951529" lon="10.8548274"><ele>1183.0</ele><time>2026-04-06T09:05:44.003Z</time></trkpt><trkpt lat="45.695194" lon="10.8549603"><ele>1182.0</ele><time>2026-04-06T09:05:45.003Z</time></trkpt><trkpt lat="45.6952616" lon="10.8551098"><ele>1181.0</ele><time>2026-04-06T09:05:46.004Z</time></trkpt><trkpt lat="45.6953515" lon="10.8552797"><ele>1186.0</ele><time>2026-04-06T09:05:47.003Z</time></trkpt><trkpt lat="45.6954434" lon="10.855445"><ele>1191.0</ele><time>2026-04-06T09:05:48.005Z</time></trkpt><trkpt lat="45.6955526" lon="10.8556048"><ele>1196.0</ele><time>2026-04-06T09:05:49.004Z</time></trkpt><trkpt lat="45.6956842" lon="10.8557455"><ele>1196.0</ele><time>2026-04-06T09:05:50.003Z</time></trkpt><trkpt lat="45.6958337" lon="10.8558813"><ele>1196.0</ele><time>2026-04-06T09:05:51.003Z</time></trkpt><trkpt lat="45.695961" lon="10.8559951"><ele>1196.0</ele><time>2026-04-06T09:05:52.003Z</time></trkpt><trkpt lat="45.6960791" lon="10.8560894"><ele>1198.5</ele><time>2026-04-06T09:05:53.004Z</time></trkpt><trkpt lat="45.6961969" lon="10.8561632"><ele>1201.0</ele><time>2026-04-06T09:05:54.004Z</time></trkpt><trkpt lat="45.696323" lon="10.8562316"><ele>1203.5</ele><time>2026-04-06T09:05:55.003Z</time></trkpt><trkpt lat="45.6964569" lon="10.8563119"><ele>1206.0</ele><time>2026-04-06T09:05:56.004Z</time></trkpt><trkpt lat="45.6966114" lon="10.8564144"><ele>1206.0</ele><time>2026-04-06T09:05:57.003Z</time></trkpt><trkpt lat="45.6967542" lon="10.8565168"><ele>1206.0</ele><time>2026-04-06T09:05:58.003Z</time></trkpt><trkpt lat="45.6968801" lon="10.8566098"><ele>1206.0</ele><time>2026-04-06T09:05:59.004Z</time></trkpt><trkpt lat="45.6969935" lon="10.8566979"><ele>1206.0</ele><time>2026-04-06T09:06:00.004Z</time></trkpt><trkpt lat="45.6971013" lon="10.8567832"><ele>1207.25</ele><time>2026-04-06T09:06:01.005Z</time></trkpt><trkpt lat="45.6972114" lon="10.8568689"><ele>1208.5</ele><time>2026-04-06T09:06:02.005Z</time></trkpt><trkpt lat="45.697316" lon="10.8569611"><ele>1209.75</ele><time>2026-04-06T09:06:03.004Z</time></trkpt><trkpt lat="45.6974132" lon="10.8570622"><ele>1211.0</ele><time>2026-04-06T09:06:04.003Z</time></trkpt><trkpt lat="45.6975009" lon="10.8571592"><ele>1211.0</ele><time>2026-04-06T09:06:05.003Z</time></trkpt><trkpt lat="45.6975924" lon="10.8572544"><ele>1211.0</ele><time>2026-04-06T09:06:06.003Z</time></trkpt><trkpt lat="45.6976721" lon="10.8573329"><ele>1211.0</ele><time>2026-04-06T09:06:07.004Z</time></trkpt><trkpt lat="45.6977442" lon="10.8573978"><ele>1211.0</ele><time>2026-04-06T09:06:08.003Z</time></trkpt><trkpt lat="45.6978097" lon="10.8574508"><ele>1211.0</ele><time>2026-04-06T09:06:09.003Z</time></trkpt><trkpt lat="45.6979089" lon="10.8574897"><ele>1214.8</ele><time>2026-04-06T09:06:11.003Z</time></trkpt><trkpt lat="45.6979757" lon="10.8574093"><ele>1218.6</ele><time>2026-04-06T09:06:13.003Z</time></trkpt><trkpt lat="45.6979494" lon="10.8572524"><ele>1222.4</ele><time>2026-04-06T09:06:15.002Z</time></trkpt><trkpt lat="45.6978874" lon="10.8571293"><ele>1226.2</ele><time>2026-04-06T09:06:16.003Z</time></trkpt><trkpt lat="45.6978379" lon="10.8570254"><ele>1230.0</ele><time>2026-04-06T09:06:17.002Z</time></trkpt><trkpt lat="45.6978008" lon="10.8569352"><ele>1230.0</ele><time>2026-04-06T09:06:18.003Z</time></trkpt><trkpt lat="45.6977739" lon="10.8568532"><ele>1230.0</ele><time>2026-04-06T09:06:19.003Z</time></trkpt><trkpt lat="45.6977857" lon="10.8567184"><ele>1230.0</ele><time>2026-04-06T09:06:21.004Z</time></trkpt><trkpt lat="45.6978669" lon="10.8567006"><ele>1230.0</ele><time>2026-04-06T09:06:23.003Z</time></trkpt><trkpt lat="45.6979716" lon="10.8568179"><ele>1230.0</ele><time>2026-04-06T09:06:25.003Z</time></trkpt><trkpt lat="45.6980691" lon="10.8569035"><ele>1230.0</ele><time>2026-04-06T09:06:26.002Z</time></trkpt><trkpt lat="45.6981727" lon="10.8569741"><ele>1230.0</ele><time>2026-04-06T09:06:27.003Z</time></trkpt><trkpt lat="45.6982995" lon="10.8570445"><ele>1230.0</ele><time>2026-04-06T09:06:28.002Z</time></trkpt><trkpt lat="45.6984009" lon="10.8570953"><ele>1230.0</ele><time>2026-04-06T09:06:29.003Z</time></trkpt><trkpt lat="45.6984794" lon="10.8571498"><ele>1230.0</ele><time>2026-04-06T09:06:30.004Z</time></trkpt><trkpt lat="45.6985359" lon="10.8572216"><ele>1230.0</ele><time>2026-04-06T09:06:31.004Z</time></trkpt><trkpt lat="45.6985747" lon="10.8573271"><ele>1230.0</ele><time>2026-04-06T09:06:32.003Z</time></trkpt><trkpt lat="45.6985979" lon="10.8574624"><ele>1230.0</ele><time>2026-04-06T09:06:33.002Z</time></trkpt><trkpt lat="45.6986273" lon="10.8576049"><ele>1230.0</ele><time>2026-04-06T09:06:34.003Z</time></trkpt><trkpt lat="45.6986736" lon="10.8577256"><ele>1230.0</ele><time>2026-04-06T09:06:35.003Z</time></trkpt><trkpt lat="45.6987374" lon="10.8578277"><ele>1231.8</ele><time>2026-04-06T09:06:36.002Z</time></trkpt><trkpt lat="45.6988028" lon="10.8579021"><ele>1233.6</ele><time>2026-04-06T09:06:37.002Z</time></trkpt><trkpt lat="45.6988773" lon="10.8579726"><ele>1235.4</ele><time>2026-04-06T09:06:38.003Z</time></trkpt><trkpt lat="45.6989473" lon="10.8580571"><ele>1237.2</ele><time>2026-04-06T09:06:39.002Z</time></trkpt><trkpt lat="45.6990157" lon="10.8581593"><ele>1239.0</ele><time>2026-04-06T09:06:40.002Z</time></trkpt><trkpt lat="45.6990802" lon="10.858259"><ele>1239.0</ele><time>2026-04-06T09:06:41.002Z</time></trkpt><trkpt lat="45.6991342" lon="10.8583379"><ele>1239.0</ele><time>2026-04-06T09:06:42.004Z</time></trkpt><trkpt lat="45.6991836" lon="10.8584099"><ele>1239.0</ele><time>2026-04-06T09:06:43.003Z</time></trkpt><trkpt lat="45.6992313" lon="10.8584703"><ele>1239.0</ele><time>2026-04-06T09:06:44.003Z</time></trkpt><trkpt lat="45.6993218" lon="10.8585174"><ele>1239.0</ele><time>2026-04-06T09:06:46.003Z</time></trkpt><trkpt lat="45.6993942" lon="10.858427"><ele>1239.0</ele><time>2026-04-06T09:06:48.003Z</time></trkpt><trkpt lat="45.6994007" lon="10.8583346"><ele>1239.0</ele><time>2026-04-06T09:06:49.002Z</time></trkpt><trkpt lat="45.6993777" lon="10.8582058"><ele>1239.0</ele><time>2026-04-06T09:06:50.003Z</time></trkpt><trkpt lat="45.6993467" lon="10.8580656"><ele>1239.0</ele><time>2026-04-06T09:06:51.003Z</time></trkpt><trkpt lat="45.6993124" lon="10.8579138"><ele>1239.0</ele><time>2026-04-06T09:06:52.003Z</time></trkpt><trkpt lat="45.6992596" lon="10.8577654"><ele>1239.0</ele><time>2026-04-06T09:06:53.002Z</time></trkpt><trkpt lat="45.6991917" lon="10.8576232"><ele>1241.0</ele><time>2026-04-06T09:06:54.002Z</time></trkpt><trkpt lat="45.6991201" lon="10.8574753"><ele>1243.0</ele><time>2026-04-06T09:06:55.002Z</time></trkpt><trkpt lat="45.6990575" lon="10.857317"><ele>1245.0</ele><time>2026-04-06T09:06:56.002Z</time></trkpt><trkpt lat="45.6990065" lon="10.8571585"><ele>1247.0</ele><time>2026-04-06T09:06:57.002Z</time></trkpt><trkpt lat="45.6989579" lon="10.8570095"><ele>1247.0</ele><time>2026-04-06T09:06:58.003Z</time></trkpt><trkpt lat="45.6988982" lon="10.8568672"><ele>1247.0</ele><time>2026-04-06T09:06:59.003Z</time></trkpt><trkpt lat="45.6988303" lon="10.8567241"><ele>1247.0</ele><time>2026-04-06T09:07:00.002Z</time></trkpt><trkpt lat="45.6987564" lon="10.8565789"><ele>1247.0</ele><time>2026-04-06T09:07:01.002Z</time></trkpt><trkpt lat="45.6986838" lon="10.8564309"><ele>1247.0</ele><time>2026-04-06T09:07:02.002Z</time></trkpt><trkpt lat="45.698616" lon="10.8562766"><ele>1247.0</ele><time>2026-04-06T09:07:03.002Z</time></trkpt><trkpt lat="45.6985453" lon="10.8561238"><ele>1247.0</ele><time>2026-04-06T09:07:04.002Z</time></trkpt><trkpt lat="45.698481" lon="10.8559847"><ele>1247.0</ele><time>2026-04-06T09:07:05.003Z</time></trkpt><trkpt lat="45.6984161" lon="10.8558396"><ele>1247.0</ele><time>2026-04-06T09:07:06.002Z</time></trkpt><trkpt lat="45.6983453" lon="10.8556801"><ele>1247.0</ele><time>2026-04-06T09:07:07.002Z</time></trkpt><trkpt lat="45.6982804" lon="10.8555422"><ele>1247.0</ele><time>2026-04-06T09:07:08.002Z</time></trkpt><trkpt lat="45.6982125" lon="10.8554224"><ele>1247.0</ele><time>2026-04-06T09:07:09.003Z</time></trkpt><trkpt lat="45.6981418" lon="10.8553164"><ele>1247.0</ele><time>2026-04-06T09:07:10.002Z</time></trkpt><trkpt lat="45.6980711" lon="10.855224"><ele>1247.0</ele><time>2026-04-06T09:07:11.003Z</time></trkpt><trkpt lat="45.6980109" lon="10.855146"><ele>1247.0</ele><time>2026-04-06T09:07:12.002Z</time></trkpt><trkpt lat="45.6979614" lon="10.8550748"><ele>1247.0</ele><time>2026-04-06T09:07:13.002Z</time></trkpt><trkpt lat="45.6979176" lon="10.854945"><ele>1247.0</ele><time>2026-04-06T09:07:15.002Z</time></trkpt><trkpt lat="45.6979608" lon="10.8548475"><ele>1247.0</ele><time>2026-04-06T09:07:17.003Z</time></trkpt><trkpt lat="45.6980522" lon="10.8548538"><ele>1247.0</ele><time>2026-04-06T09:07:19.003Z</time></trkpt><trkpt lat="45.6981199" lon="10.8549111"><ele>1247.0</ele><time>2026-04-06T09:07:20.004Z</time></trkpt><trkpt lat="45.6982095" lon="10.8549816"><ele>1247.0</ele><time>2026-04-06T09:07:21.003Z</time></trkpt><trkpt lat="45.6983248" lon="10.8550622"><ele>1247.0</ele><time>2026-04-06T09:07:22.002Z</time></trkpt><trkpt lat="45.6984439" lon="10.8551399"><ele>1247.0</ele><time>2026-04-06T09:07:23.003Z</time></trkpt><trkpt lat="45.6985671" lon="10.8552129"><ele>1252.0</ele><time>2026-04-06T09:07:24.002Z</time></trkpt><trkpt lat="45.6987076" lon="10.8552828"><ele>1257.0</ele><time>2026-04-06T09:07:25.003Z</time></trkpt><trkpt lat="45.698869" lon="10.8553496"><ele>1262.0</ele><time>2026-04-06T09:07:26.002Z</time></trkpt><trkpt lat="45.6990399" lon="10.8554118"><ele>1262.0</ele><time>2026-04-06T09:07:27.002Z</time></trkpt><trkpt lat="45.6992056" lon="10.855474"><ele>1262.0</ele><time>2026-04-06T09:07:28.003Z</time></trkpt><trkpt lat="45.6993869" lon="10.8555457"><ele>1262.0</ele><time>2026-04-06T09:07:29.003Z</time></trkpt><trkpt lat="45.6995819" lon="10.8556223"><ele>1268.3333333333335</ele><time>2026-04-06T09:07:30.004Z</time></trkpt><trkpt lat="45.6997816" lon="10.8557"><ele>1274.6666666666667</ele><time>2026-04-06T09:07:31.003Z</time></trkpt><trkpt lat="45.6999543" lon="10.8557702"><ele>1281.0</ele><time>2026-04-06T09:07:32.004Z</time></trkpt><trkpt lat="45.7001189" lon="10.8558522"><ele>1284.6666666666667</ele><time>2026-04-06T09:07:33.003Z</time></trkpt><trkpt lat="45.7002726" lon="10.8559574"><ele>1288.3333333333335</ele><time>2026-04-06T09:07:34.003Z</time></trkpt><trkpt lat="45.7004108" lon="10.8560878"><ele>1292.0</ele><time>2026-04-06T09:07:35.003Z</time></trkpt><trkpt lat="45.7005379" lon="10.8562378"><ele>1292.0</ele><time>2026-04-06T09:07:36.002Z</time></trkpt><trkpt lat="45.7006588" lon="10.8563954"><ele>1292.0</ele><time>2026-04-06T09:07:37.003Z</time></trkpt><trkpt lat="45.7007712" lon="10.8565428"><ele>1292.0</ele><time>2026-04-06T09:07:38.003Z</time></trkpt><trkpt lat="45.7008851" lon="10.8566901"><ele>1292.25</ele><time>2026-04-06T09:07:39.002Z</time></trkpt><trkpt lat="45.700995" lon="10.8568235"><ele>1292.5</ele><time>2026-04-06T09:07:40.003Z</time></trkpt><trkpt lat="45.7011039" lon="10.856946"><ele>1292.75</ele><time>2026-04-06T09:07:41.003Z</time></trkpt><trkpt lat="45.7012224" lon="10.8570644"><ele>1293.0</ele><time>2026-04-06T09:07:42.002Z</time></trkpt><trkpt lat="45.7013563" lon="10.8571784"><ele>1295.5</ele><time>2026-04-06T09:07:43.003Z</time></trkpt><trkpt lat="45.701484" lon="10.8572779"><ele>1298.0</ele><time>2026-04-06T09:07:44.004Z</time></trkpt><trkpt lat="45.7015974" lon="10.8573667"><ele>1300.5</ele><time>2026-04-06T09:07:45.004Z</time></trkpt><trkpt lat="45.7017085" lon="10.8574555"><ele>1303.0</ele><time>2026-04-06T09:07:46.002Z</time></trkpt><trkpt lat="45.7018228" lon="10.8575483"><ele>1306.75</ele><time>2026-04-06T09:07:47.002Z</time></trkpt><trkpt lat="45.7019384" lon="10.8576395"><ele>1310.5</ele><time>2026-04-06T09:07:48.002Z</time></trkpt><trkpt lat="45.7020547" lon="10.8577299"><ele>1314.25</ele><time>2026-04-06T09:07:49.002Z</time></trkpt><trkpt lat="45.7021656" lon="10.8578181"><ele>1318.0</ele><time>2026-04-06T09:07:50.003Z</time></trkpt><trkpt lat="45.7022723" lon="10.8579023"><ele>1318.0</ele><time>2026-04-06T09:07:51.002Z</time></trkpt><trkpt lat="45.7023799" lon="10.8579832"><ele>1318.0</ele><time>2026-04-06T09:07:52.002Z</time></trkpt><trkpt lat="45.70248" lon="10.8580601"><ele>1318.0</ele><time>2026-04-06T09:07:53.002Z</time></trkpt><trkpt lat="45.7025864" lon="10.8581401"><ele>1318.0</ele><time>2026-04-06T09:07:54.002Z</time></trkpt><trkpt lat="45.7027" lon="10.8582265"><ele>1320.75</ele><time>2026-04-06T09:07:55.003Z</time></trkpt><trkpt lat="45.7028215" lon="10.8583189"><ele>1323.5</ele><time>2026-04-06T09:07:56.002Z</time></trkpt><trkpt lat="45.7029474" lon="10.8584144"><ele>1326.25</ele><time>2026-04-06T09:07:57.003Z</time></trkpt><trkpt lat="45.7030863" lon="10.8585196"><ele>1329.0</ele><time>2026-04-06T09:07:58.004Z</time></trkpt><trkpt lat="45.70324" lon="10.8586337"><ele>1331.0</ele><time>2026-04-06T09:07:59.004Z</time></trkpt><trkpt lat="45.7033789" lon="10.8587363"><ele>1333.0</ele><time>2026-04-06T09:08:00.003Z</time></trkpt><trkpt lat="45.7035211" lon="10.858835"><ele>1335.0</ele><time>2026-04-06T09:08:01.004Z</time></trkpt><trkpt lat="45.7036652" lon="10.8589136"><ele>1335.0</ele><time>2026-04-06T09:08:02.003Z</time></trkpt><trkpt lat="45.7038117" lon="10.8589687"><ele>1335.0</ele><time>2026-04-06T09:08:03.002Z</time></trkpt><trkpt lat="45.7039628" lon="10.8590118"><ele>1335.0</ele><time>2026-04-06T09:08:04.002Z</time></trkpt><trkpt lat="45.7041122" lon="10.8590507"><ele>1335.0</ele><time>2026-04-06T09:08:05.003Z</time></trkpt><trkpt lat="45.7042422" lon="10.8590834"><ele>1335.0</ele><time>2026-04-06T09:08:06.003Z</time></trkpt><trkpt lat="45.7043613" lon="10.859113"><ele>1335.0</ele><time>2026-04-06T09:08:07.003Z</time></trkpt><trkpt lat="45.7044782" lon="10.8591408"><ele>1335.0</ele><time>2026-04-06T09:08:08.002Z</time></trkpt><trkpt lat="45.7045962" lon="10.8591704"><ele>1337.25</ele><time>2026-04-06T09:08:09.003Z</time></trkpt><trkpt lat="45.7047177" lon="10.8592101"><ele>1339.5</ele><time>2026-04-06T09:08:10.003Z</time></trkpt><trkpt lat="45.7048429" lon="10.859257"><ele>1341.75</ele><time>2026-04-06T09:08:11.002Z</time></trkpt><trkpt lat="45.7049733" lon="10.859303"><ele>1344.0</ele><time>2026-04-06T09:08:12.003Z</time></trkpt><trkpt lat="45.705095" lon="10.8593545"><ele>1344.6</ele><time>2026-04-06T09:08:13.002Z</time></trkpt><trkpt lat="45.7051996" lon="10.8594054"><ele>1345.2</ele><time>2026-04-06T09:08:14.002Z</time></trkpt><trkpt lat="45.7053048" lon="10.8594552"><ele>1345.8</ele><time>2026-04-06T09:08:15.003Z</time></trkpt><trkpt lat="45.7054081" lon="10.8595026"><ele>1346.3999999999999</ele><time>2026-04-06T09:08:16.004Z</time></trkpt><trkpt lat="45.7055071" lon="10.8595471"><ele>1347.0</ele><time>2026-04-06T09:08:17.003Z</time></trkpt><trkpt lat="45.7055981" lon="10.8595894"><ele>1348.3999999999999</ele><time>2026-04-06T09:08:18.003Z</time></trkpt><trkpt lat="45.7056901" lon="10.8596348"><ele>1349.8</ele><time>2026-04-06T09:08:19.002Z</time></trkpt><trkpt lat="45.7057802" lon="10.8596838"><ele>1351.2</ele><time>2026-04-06T09:08:20.003Z</time></trkpt><trkpt lat="45.7058643" lon="10.8597272"><ele>1352.6</ele><time>2026-04-06T09:08:21.002Z</time></trkpt><trkpt lat="45.7059522" lon="10.8597699"><ele>1354.0</ele><time>2026-04-06T09:08:22.004Z</time></trkpt><trkpt lat="45.7060415" lon="10.8598106"><ele>1355.4</ele><time>2026-04-06T09:08:23.004Z</time></trkpt><trkpt lat="45.7061324" lon="10.8598516"><ele>1356.8000000000002</ele><time>2026-04-06T09:08:24.003Z</time></trkpt><trkpt lat="45.7062239" lon="10.8598946"><ele>1358.1999999999998</ele><time>2026-04-06T09:08:25.003Z</time></trkpt><trkpt lat="45.7063166" lon="10.8599369"><ele>1359.6</ele><time>2026-04-06T09:08:26.002Z</time></trkpt><trkpt lat="45.7064095" lon="10.8599822"><ele>1361.0</ele><time>2026-04-06T09:08:27.003Z</time></trkpt><trkpt lat="45.7065037" lon="10.8600222"><ele>1361.0</ele><time>2026-04-06T09:08:28.003Z</time></trkpt><trkpt lat="45.7065941" lon="10.8600622"><ele>1361.0</ele><time>2026-04-06T09:08:29.002Z</time></trkpt><trkpt lat="45.7066827" lon="10.8601001"><ele>1361.0</ele><time>2026-04-06T09:08:30.004Z</time></trkpt><trkpt lat="45.7067636" lon="10.860136"><ele>1361.0</ele><time>2026-04-06T09:08:31.003Z</time></trkpt><trkpt lat="45.7068439" lon="10.8601712"><ele>1361.0</ele><time>2026-04-06T09:08:32.003Z</time></trkpt><trkpt lat="45.7069285" lon="10.8602046"><ele>1361.0</ele><time>2026-04-06T09:08:33.003Z</time></trkpt><trkpt lat="45.707017" lon="10.8602403"><ele>1363.6</ele><time>2026-04-06T09:08:34.004Z</time></trkpt><trkpt lat="45.7071147" lon="10.8602819"><ele>1366.1999999999998</ele><time>2026-04-06T09:08:35.002Z</time></trkpt><trkpt lat="45.7072195" lon="10.8603288"><ele>1368.8000000000002</ele><time>2026-04-06T09:08:36.003Z</time></trkpt><trkpt lat="45.7073328" lon="10.8603744"><ele>1371.4</ele><time>2026-04-06T09:08:37.002Z</time></trkpt><trkpt lat="45.7074412" lon="10.8604097"><ele>1374.0</ele><time>2026-04-06T09:08:38.003Z</time></trkpt><trkpt lat="45.7075372" lon="10.8604384"><ele>1374.0</ele><time>2026-04-06T09:08:39.003Z</time></trkpt><trkpt lat="45.7076247" lon="10.8604624"><ele>1374.0</ele><time>2026-04-06T09:08:40.003Z</time></trkpt><trkpt lat="45.7077052" lon="10.8604846"><ele>1374.0</ele><time>2026-04-06T09:08:41.002Z</time></trkpt><trkpt lat="45.7077771" lon="10.8604968"><ele>1374.0</ele><time>2026-04-06T09:08:42.002Z</time></trkpt><trkpt lat="45.7078543" lon="10.8605038"><ele>1374.0</ele><time>2026-04-06T09:08:43.003Z</time></trkpt><trkpt lat="45.7079372" lon="10.8605165"><ele>1374.0</ele><time>2026-04-06T09:08:44.002Z</time></trkpt><trkpt lat="45.7080246" lon="10.8605384"><ele>1375.8333333333333</ele><time>2026-04-06T09:08:45.003Z</time></trkpt><trkpt lat="45.7081127" lon="10.8605636"><ele>1377.6666666666667</ele><time>2026-04-06T09:08:46.002Z</time></trkpt><trkpt lat="45.7081976" lon="10.8605858"><ele>1379.5</ele><time>2026-04-06T09:08:47.002Z</time></trkpt><trkpt lat="45.7082856" lon="10.8606072"><ele>1381.3333333333335</ele><time>2026-04-06T09:08:48.003Z</time></trkpt><trkpt lat="45.7083753" lon="10.8606252"><ele>1383.1666666666667</ele><time>2026-04-06T09:08:49.003Z</time></trkpt><trkpt lat="45.7084669" lon="10.8606403"><ele>1385.0</ele><time>2026-04-06T09:08:50.003Z</time></trkpt><trkpt lat="45.7085614" lon="10.8606525"><ele>1386.4</ele><time>2026-04-06T09:08:51.003Z</time></trkpt><trkpt lat="45.7086583" lon="10.8606603"><ele>1387.8</ele><time>2026-04-06T09:08:52.002Z</time></trkpt><trkpt lat="45.7087539" lon="10.8606747"><ele>1389.1999999999998</ele><time>2026-04-06T09:08:53.002Z</time></trkpt><trkpt lat="45.7088491" lon="10.8606888"><ele>1390.6</ele><time>2026-04-06T09:08:54.002Z</time></trkpt><trkpt lat="45.7089452" lon="10.8606993"><ele>1392.0</ele><time>2026-04-06T09:08:55.002Z</time></trkpt><trkpt lat="45.7090402" lon="10.8607081"><ele>1392.0</ele><time>2026-04-06T09:08:56.002Z</time></trkpt><trkpt lat="45.709139" lon="10.8607157"><ele>1392.0</ele><time>2026-04-06T09:08:57.003Z</time></trkpt><trkpt lat="45.7092375" lon="10.8607193"><ele>1392.0</ele><time>2026-04-06T09:08:58.004Z</time></trkpt><trkpt lat="45.7093413" lon="10.8607268"><ele>1392.0</ele><time>2026-04-06T09:08:59.002Z</time></trkpt><trkpt lat="45.7094578" lon="10.860734"><ele>1392.0</ele><time>2026-04-06T09:09:00.003Z</time></trkpt><trkpt lat="45.7095824" lon="10.8607389"><ele>1395.0</ele><time>2026-04-06T09:09:01.002Z</time></trkpt><trkpt lat="45.709698" lon="10.8607427"><ele>1398.0</ele><time>2026-04-06T09:09:02.002Z</time></trkpt><trkpt lat="45.7098138" lon="10.8607482"><ele>1401.0</ele><time>2026-04-06T09:09:03.004Z</time></trkpt><trkpt lat="45.7099263" lon="10.860756"><ele>1404.0</ele><time>2026-04-06T09:09:04.003Z</time></trkpt><trkpt lat="45.710039" lon="10.8607582"><ele>1404.0</ele><time>2026-04-06T09:09:05.002Z</time></trkpt><trkpt lat="45.7101521" lon="10.8607537"><ele>1404.0</ele><time>2026-04-06T09:09:06.003Z</time></trkpt><trkpt lat="45.7102651" lon="10.8607566"><ele>1404.0</ele><time>2026-04-06T09:09:07.004Z</time></trkpt><trkpt lat="45.7103795" lon="10.8607604"><ele>1404.0</ele><time>2026-04-06T09:09:08.004Z</time></trkpt><trkpt lat="45.7104956" lon="10.8607617"><ele>1406.5</ele><time>2026-04-06T09:09:09.003Z</time></trkpt><trkpt lat="45.7106144" lon="10.8607678"><ele>1409.0</ele><time>2026-04-06T09:09:10.003Z</time></trkpt><trkpt lat="45.7107389" lon="10.8607784"><ele>1411.5</ele><time>2026-04-06T09:09:11.003Z</time></trkpt><trkpt lat="45.710864" lon="10.8607869"><ele>1414.0</ele><time>2026-04-06T09:09:12.004Z</time></trkpt><trkpt lat="45.7109881" lon="10.8607958"><ele>1416.5</ele><time>2026-04-06T09:09:13.002Z</time></trkpt><trkpt lat="45.7111198" lon="10.8608044"><ele>1419.0</ele><time>2026-04-06T09:09:14.003Z</time></trkpt><trkpt lat="45.7112582" lon="10.8608088"><ele>1421.5</ele><time>2026-04-06T09:09:15.003Z</time></trkpt><trkpt lat="45.7113921" lon="10.8608114"><ele>1424.0</ele><time>2026-04-06T09:09:16.003Z</time></trkpt><trkpt lat="45.711519" lon="10.8608161"><ele>1424.0</ele><time>2026-04-06T09:09:17.004Z</time></trkpt><trkpt lat="45.7116414" lon="10.8608257"><ele>1424.0</ele><time>2026-04-06T09:09:18.003Z</time></trkpt><trkpt lat="45.7117616" lon="10.8608414"><ele>1424.0</ele><time>2026-04-06T09:09:19.002Z</time></trkpt><trkpt lat="45.7118792" lon="10.8608706"><ele>1424.0</ele><time>2026-04-06T09:09:20.003Z</time></trkpt><trkpt lat="45.7119972" lon="10.8609216"><ele>1424.75</ele><time>2026-04-06T09:09:21.002Z</time></trkpt><trkpt lat="45.7121209" lon="10.8609848"><ele>1425.5</ele><time>2026-04-06T09:09:22.002Z</time></trkpt><trkpt lat="45.7122461" lon="10.8610502"><ele>1426.25</ele><time>2026-04-06T09:09:23.002Z</time></trkpt><trkpt lat="45.7123504" lon="10.8611028"><ele>1427.0</ele><time>2026-04-06T09:09:24.002Z</time></trkpt><trkpt lat="45.7124264" lon="10.8611367"><ele>1427.0</ele><time>2026-04-06T09:09:25.002Z</time></trkpt><trkpt lat="45.7125056" lon="10.8611617"><ele>1427.0</ele><time>2026-04-06T09:09:26.003Z</time></trkpt><trkpt lat="45.712588" lon="10.8611762"><ele>1427.0</ele><time>2026-04-06T09:09:27.003Z</time></trkpt><trkpt lat="45.7126704" lon="10.861184"><ele>1427.0</ele><time>2026-04-06T09:09:28.004Z</time></trkpt><trkpt lat="45.7127449" lon="10.8611843"><ele>1427.0</ele><time>2026-04-06T09:09:29.003Z</time></trkpt><trkpt lat="45.7128569" lon="10.8611502"><ele>1427.0</ele><time>2026-04-06T09:09:31.003Z</time></trkpt><trkpt lat="45.7129575" lon="10.8610685"><ele>1427.1999999999998</ele><time>2026-04-06T09:09:33.004Z</time></trkpt><trkpt lat="45.7130126" lon="10.8610001"><ele>1427.4</ele><time>2026-04-06T09:09:34.002Z</time></trkpt><trkpt lat="45.7130845" lon="10.8608888"><ele>1427.6</ele><time>2026-04-06T09:09:36.003Z</time></trkpt><trkpt lat="45.7131314" lon="10.8608127"><ele>1427.8000000000002</ele><time>2026-04-06T09:09:49.003Z</time></trkpt><trkpt lat="45.7131944" lon="10.8607002"><ele>1428.0</ele><time>2026-04-06T09:13:52.002Z</time></trkpt><trkpt lat="45.7132871" lon="10.8605594"><ele>1428.8000000000002</ele><time>2026-04-06T09:13:54.002Z</time></trkpt><trkpt lat="45.7133455" lon="10.8604853"><ele>1429.6</ele><time>2026-04-06T09:13:55.003Z</time></trkpt><trkpt lat="45.7134092" lon="10.8604049"><ele>1430.4</ele><time>2026-04-06T09:13:56.003Z</time></trkpt><trkpt lat="45.7134799" lon="10.860319"><ele>1431.1999999999998</ele><time>2026-04-06T09:13:57.003Z</time></trkpt><trkpt lat="45.7135624" lon="10.8602243"><ele>1432.0</ele><time>2026-04-06T09:13:58.003Z</time></trkpt><trkpt lat="45.7136444" lon="10.8601368"><ele>1433.5</ele><time>2026-04-06T09:13:59.003Z</time></trkpt><trkpt lat="45.7137397" lon="10.8600743"><ele>1435.0</ele><time>2026-04-06T09:13:59.99Z</time></trkpt><trkpt lat="45.7138449" lon="10.8599964"><ele>1436.5</ele><time>2026-04-06T09:14:00.994Z</time></trkpt><trkpt lat="45.7139572" lon="10.8599265"><ele>1438.0</ele><time>2026-04-06T09:14:01.987Z</time></trkpt><trkpt lat="45.7140786" lon="10.859836"><ele>1438.0</ele><time>2026-04-06T09:14:02.989Z</time></trkpt><trkpt lat="45.714208" lon="10.8597321"><ele>1438.0</ele><time>2026-04-06T09:14:03.988Z</time></trkpt><trkpt lat="45.7143319" lon="10.8596078"><ele>1438.0</ele><time>2026-04-06T09:14:04.991Z</time></trkpt><trkpt lat="45.7144596" lon="10.8595165"><ele>1438.0</ele><time>2026-04-06T09:14:06.991Z</time></trkpt><trkpt lat="45.7145286" lon="10.8594277"><ele>1438.1666666666665</ele><time>2026-04-06T09:14:08.003Z</time></trkpt><trkpt lat="45.7146083" lon="10.85937"><ele>1438.3333333333333</ele><time>2026-04-06T09:14:09.003Z</time></trkpt><trkpt lat="45.7146871" lon="10.8593224"><ele>1438.5</ele><time>2026-04-06T09:14:10.003Z</time></trkpt><trkpt lat="45.7147616" lon="10.8592717"><ele>1438.6666666666667</ele><time>2026-04-06T09:14:11.004Z</time></trkpt><trkpt lat="45.7148329" lon="10.8592086"><ele>1438.8333333333335</ele><time>2026-04-06T09:14:12.002Z</time></trkpt><trkpt lat="45.7149113" lon="10.8591364"><ele>1439.0</ele><time>2026-04-06T09:14:13.004Z</time></trkpt><trkpt lat="45.7149909" lon="10.8590508"><ele>1440.0</ele><time>2026-04-06T09:14:14.003Z</time></trkpt><trkpt lat="45.7150596" lon="10.8589807"><ele>1441.0</ele><time>2026-04-06T09:14:15.002Z</time></trkpt><trkpt lat="45.7151186" lon="10.8589197"><ele>1442.0</ele><time>2026-04-06T09:14:16.002Z</time></trkpt><trkpt lat="45.7151699" lon="10.8588642"><ele>1443.0</ele><time>2026-04-06T09:14:17.004Z</time></trkpt><trkpt lat="45.7152478" lon="10.8587636"><ele>1444.0</ele><time>2026-04-06T09:14:19.004Z</time></trkpt><trkpt lat="45.7152895" lon="10.8586848"><ele>1445.0</ele><time>2026-04-06T09:14:28.003Z</time></trkpt><trkpt lat="45.715232" lon="10.8587886"><ele>1446.6666666666667</ele><time>2026-04-06T09:17:53.003Z</time></trkpt><trkpt lat="45.7151795" lon="10.8588545"><ele>1448.3333333333335</ele><time>2026-04-06T09:17:59.004Z</time></trkpt><trkpt lat="45.7151175" lon="10.8589279"><ele>1450.0</ele><time>2026-04-06T09:20:39.002Z</time></trkpt><trkpt lat="45.7150415" lon="10.8590081"><ele>1451.6666666666667</ele><time>2026-04-06T09:20:41.002Z</time></trkpt><trkpt lat="45.7149525" lon="10.859096"><ele>1453.3333333333333</ele><time>2026-04-06T09:20:43.003Z</time></trkpt><trkpt lat="45.7148979" lon="10.8591464"><ele>1455.0</ele><time>2026-04-06T09:20:44.002Z</time></trkpt><trkpt lat="45.7148397" lon="10.8591975"><ele>1455.0</ele><time>2026-04-06T09:20:45.002Z</time></trkpt><trkpt lat="45.71478" lon="10.8592494"><ele>1455.0</ele><time>2026-04-06T09:20:46.003Z</time></trkpt><trkpt lat="45.7147169" lon="10.8592992"><ele>1455.0</ele><time>2026-04-06T09:20:47.001Z</time></trkpt><trkpt lat="45.7146478" lon="10.8593426"><ele>1455.0</ele><time>2026-04-06T09:20:48.002Z</time></trkpt><trkpt lat="45.714574" lon="10.8593914"><ele>1455.0</ele><time>2026-04-06T09:20:49.003Z</time></trkpt><trkpt lat="45.7144996" lon="10.8594471"><ele>1455.0</ele><time>2026-04-06T09:20:50.002Z</time></trkpt><trkpt lat="45.7144205" lon="10.8595119"><ele>1451.6</ele><time>2026-04-06T09:20:51.002Z</time></trkpt><trkpt lat="45.7143434" lon="10.8595885"><ele>1448.2</ele><time>2026-04-06T09:20:52.001Z</time></trkpt><trkpt lat="45.7142609" lon="10.8596706"><ele>1444.8000000000002</ele><time>2026-04-06T09:20:53.002Z</time></trkpt><trkpt lat="45.7141706" lon="10.8597501"><ele>1441.4</ele><time>2026-04-06T09:20:54.001Z</time></trkpt><trkpt lat="45.714069" lon="10.8598284"><ele>1438.0</ele><time>2026-04-06T09:20:55.002Z</time></trkpt><trkpt lat="45.7139656" lon="10.8599019"><ele>1438.0</ele><time>2026-04-06T09:20:56.002Z</time></trkpt><trkpt lat="45.7138618" lon="10.8599651"><ele>1438.0</ele><time>2026-04-06T09:20:57.001Z</time></trkpt><trkpt lat="45.7137597" lon="10.8600384"><ele>1438.0</ele><time>2026-04-06T09:20:58.002Z</time></trkpt><trkpt lat="45.7136611" lon="10.8601268"><ele>1438.0</ele><time>2026-04-06T09:20:59.001Z</time></trkpt><trkpt lat="45.7135615" lon="10.8602264"><ele>1436.5</ele><time>2026-04-06T09:21:00.001Z</time></trkpt><trkpt lat="45.7134712" lon="10.8603298"><ele>1435.0</ele><time>2026-04-06T09:21:01.003Z</time></trkpt><trkpt lat="45.7133756" lon="10.8604513"><ele>1433.5</ele><time>2026-04-06T09:21:02.001Z</time></trkpt><trkpt lat="45.7132873" lon="10.8605675"><ele>1432.0</ele><time>2026-04-06T09:21:03.001Z</time></trkpt><trkpt lat="45.713203" lon="10.8606847"><ele>1432.0</ele><time>2026-04-06T09:21:04.002Z</time></trkpt><trkpt lat="45.7131316" lon="10.8607937"><ele>1432.0</ele><time>2026-04-06T09:21:05.002Z</time></trkpt><trkpt lat="45.7130685" lon="10.8608922"><ele>1432.0</ele><time>2026-04-06T09:21:06.002Z</time></trkpt><trkpt lat="45.7130089" lon="10.8609844"><ele>1432.0</ele><time>2026-04-06T09:21:07.002Z</time></trkpt><trkpt lat="45.7129593" lon="10.8610538"><ele>1432.0</ele><time>2026-04-06T09:21:08.001Z</time></trkpt><trkpt lat="45.7128726" lon="10.8611407"><ele>1431.1999999999998</ele><time>2026-04-06T09:21:10.002Z</time></trkpt><trkpt lat="45.7128049" lon="10.8611712"><ele>1430.4</ele><time>2026-04-06T09:21:12.002Z</time></trkpt><trkpt lat="45.712708" lon="10.8611876"><ele>1429.6</ele><time>2026-04-06T09:21:14.003Z</time></trkpt><trkpt lat="45.7125933" lon="10.8611878"><ele>1428.8000000000002</ele><time>2026-04-06T09:21:16.002Z</time></trkpt><trkpt lat="45.7124758" lon="10.8611494"><ele>1428.0</ele><time>2026-04-06T09:21:18.001Z</time></trkpt><trkpt lat="45.7123642" lon="10.8610881"><ele>1427.8333333333333</ele><time>2026-04-06T09:21:20.003Z</time></trkpt><trkpt lat="45.7122544" lon="10.8610236"><ele>1427.6666666666667</ele><time>2026-04-06T09:21:22.001Z</time></trkpt><trkpt lat="45.7121939" lon="10.8609912"><ele>1427.5</ele><time>2026-04-06T09:21:23.002Z</time></trkpt><trkpt lat="45.7121261" lon="10.8609563"><ele>1427.3333333333335</ele><time>2026-04-06T09:21:24.001Z</time></trkpt><trkpt lat="45.7120502" lon="10.8609105"><ele>1427.1666666666667</ele><time>2026-04-06T09:21:25.002Z</time></trkpt><trkpt lat="45.7119711" lon="10.8608744"><ele>1427.0</ele><time>2026-04-06T09:21:26.003Z</time></trkpt><trkpt lat="45.7119021" lon="10.8608514"><ele>1426.5</ele><time>2026-04-06T09:21:27.001Z</time></trkpt><trkpt lat="45.711836" lon="10.8608301"><ele>1426.0</ele><time>2026-04-06T09:21:28.001Z</time></trkpt><trkpt lat="45.7117619" lon="10.8608135"><ele>1425.5</ele><time>2026-04-06T09:21:29.001Z</time></trkpt><trkpt lat="45.7116815" lon="10.8608088"><ele>1425.0</ele><time>2026-04-06T09:21:30.001Z</time></trkpt><trkpt lat="45.7115932" lon="10.8607991"><ele>1424.5</ele><time>2026-04-06T09:21:31.002Z</time></trkpt><trkpt lat="45.711507" lon="10.8607907"><ele>1424.0</ele><time>2026-04-06T09:21:32.002Z</time></trkpt><trkpt lat="45.7114146" lon="10.8607859"><ele>1424.0</ele><time>2026-04-06T09:21:33.003Z</time></trkpt><trkpt lat="45.7113253" lon="10.8607805"><ele>1424.0</ele><time>2026-04-06T09:21:34.001Z</time></trkpt><trkpt lat="45.7112269" lon="10.86078"><ele>1424.0</ele><time>2026-04-06T09:21:35.001Z</time></trkpt><trkpt lat="45.7111083" lon="10.8607793"><ele>1424.0</ele><time>2026-04-06T09:21:36.002Z</time></trkpt><trkpt lat="45.7109812" lon="10.8607741"><ele>1424.0</ele><time>2026-04-06T09:21:37.003Z</time></trkpt><trkpt lat="45.7108594" lon="10.8607685"><ele>1421.5</ele><time>2026-04-06T09:21:38.001Z</time></trkpt><trkpt lat="45.7107348" lon="10.8607594"><ele>1419.0</ele><time>2026-04-06T09:21:39.002Z</time></trkpt><trkpt lat="45.7106199" lon="10.8607455"><ele>1416.5</ele><time>2026-04-06T09:21:40.002Z</time></trkpt><trkpt lat="45.7105084" lon="10.8607391"><ele>1414.0</ele><time>2026-04-06T09:21:41.001Z</time></trkpt><trkpt lat="45.7104004" lon="10.8607368"><ele>1414.0</ele><time>2026-04-06T09:21:42.002Z</time></trkpt><trkpt lat="45.7102942" lon="10.860731"><ele>1414.0</ele><time>2026-04-06T09:21:43.002Z</time></trkpt><trkpt lat="45.7101869" lon="10.8607303"><ele>1414.0</ele><time>2026-04-06T09:21:44.002Z</time></trkpt><trkpt lat="45.7100818" lon="10.8607297"><ele>1414.0</ele><time>2026-04-06T09:21:45.001Z</time></trkpt><trkpt lat="45.7099601" lon="10.860728"><ele>1414.0</ele><time>2026-04-06T09:21:46.003Z</time></trkpt><trkpt lat="45.7098317" lon="10.8607243"><ele>1411.5</ele><time>2026-04-06T09:21:47.002Z</time></trkpt><trkpt lat="45.709702" lon="10.8607194"><ele>1409.0</ele><time>2026-04-06T09:21:48.002Z</time></trkpt><trkpt lat="45.7095682" lon="10.8607149"><ele>1406.5</ele><time>2026-04-06T09:21:49.002Z</time></trkpt><trkpt lat="45.7094358" lon="10.8607069"><ele>1404.0</ele><time>2026-04-06T09:21:50.001Z</time></trkpt><trkpt lat="45.7092995" lon="10.8606994"><ele>1401.0</ele><time>2026-04-06T09:21:51.001Z</time></trkpt><trkpt lat="45.7091717" lon="10.8606908"><ele>1398.0</ele><time>2026-04-06T09:21:52.001Z</time></trkpt><trkpt lat="45.7090521" lon="10.8606794"><ele>1395.0</ele><time>2026-04-06T09:21:53.002Z</time></trkpt><trkpt lat="45.7089415" lon="10.86067"><ele>1392.0</ele><time>2026-04-06T09:21:54.001Z</time></trkpt><trkpt lat="45.7088363" lon="10.8606603"><ele>1392.0</ele><time>2026-04-06T09:21:55.001Z</time></trkpt><trkpt lat="45.7087491" lon="10.8606519"><ele>1392.0</ele><time>2026-04-06T09:21:56.003Z</time></trkpt><trkpt lat="45.7086662" lon="10.8606405"><ele>1392.0</ele><time>2026-04-06T09:21:57.001Z</time></trkpt><trkpt lat="45.7085866" lon="10.8606248"><ele>1392.0</ele><time>2026-04-06T09:21:58.002Z</time></trkpt><trkpt lat="45.7085065" lon="10.8606038"><ele>1392.0</ele><time>2026-04-06T09:21:59.003Z</time></trkpt><trkpt lat="45.7084288" lon="10.8605878"><ele>1392.0</ele><time>2026-04-06T09:22:00.003Z</time></trkpt><trkpt lat="45.708353" lon="10.8605739"><ele>1390.8333333333333</ele><time>2026-04-06T09:22:01.002Z</time></trkpt><trkpt lat="45.7082813" lon="10.8605642"><ele>1389.6666666666667</ele><time>2026-04-06T09:22:02.001Z</time></trkpt><trkpt lat="45.7082144" lon="10.8605569"><ele>1388.5</ele><time>2026-04-06T09:22:03.001Z</time></trkpt><trkpt lat="45.7081094" lon="10.8605529"><ele>1387.3333333333335</ele><time>2026-04-06T09:22:05.001Z</time></trkpt><trkpt lat="45.7080324" lon="10.8605756"><ele>1386.1666666666667</ele><time>2026-04-06T09:22:07.002Z</time></trkpt><trkpt lat="45.707964" lon="10.8606509"><ele>1385.0</ele><time>2026-04-06T09:22:10.001Z</time></trkpt><trkpt lat="45.7079271" lon="10.8607341"><ele>1385.0</ele><time>2026-04-06T09:22:12.001Z</time></trkpt><trkpt lat="45.7079296" lon="10.8608313"><ele>1385.0</ele><time>2026-04-06T09:22:14.002Z</time></trkpt><trkpt lat="45.7079862" lon="10.8608831"><ele>1385.0</ele><time>2026-04-06T09:22:16.002Z</time></trkpt><trkpt lat="45.7080506" lon="10.8608425"><ele>1385.0</ele><time>2026-04-06T09:22:18.001Z</time></trkpt><trkpt lat="45.7080441" lon="10.8607206"><ele>1385.0</ele><time>2026-04-06T09:22:21.003Z</time></trkpt><trkpt lat="45.7080228" lon="10.8606345"><ele>1385.0</ele><time>2026-04-06T09:22:25.001Z</time></trkpt><trkpt lat="45.7080699" lon="10.8605551"><ele>1385.0</ele><time>2026-04-06T09:22:29.002Z</time></trkpt><trkpt lat="45.7081536" lon="10.8605715"><ele>1385.0</ele><time>2026-04-06T09:22:31.001Z</time></trkpt><trkpt lat="45.7082736" lon="10.860615"><ele>1385.0</ele><time>2026-04-06T09:22:33.002Z</time></trkpt><trkpt lat="45.7083437" lon="10.8606407"><ele>1385.0</ele><time>2026-04-06T09:22:34.003Z</time></trkpt><trkpt lat="45.7084082" lon="10.8606632"><ele>1385.0</ele><time>2026-04-06T09:22:35.003Z</time></trkpt><trkpt lat="45.7084692" lon="10.8606869"><ele>1385.0</ele><time>2026-04-06T09:22:36.003Z</time></trkpt><trkpt lat="45.7085587" lon="10.8607286"><ele>1385.0</ele><time>2026-04-06T09:22:38.001Z</time></trkpt><trkpt lat="45.7086314" lon="10.8607575"><ele>1385.0</ele><time>2026-04-06T09:22:41.001Z</time></trkpt><trkpt lat="45.7086896" lon="10.8607045"><ele>1385.0</ele><time>2026-04-06T09:26:45.001Z</time></trkpt><trkpt lat="45.7086214" lon="10.8606137"><ele>1385.0</ele><time>2026-04-06T09:26:47.995Z</time></trkpt><trkpt lat="45.7085187" lon="10.8606149"><ele>1385.0</ele><time>2026-04-06T09:26:50Z</time></trkpt><trkpt lat="45.7084132" lon="10.8605922"><ele>1385.0</ele><time>2026-04-06T09:26:52.001Z</time></trkpt><trkpt lat="45.7082948" lon="10.8605622"><ele>1385.0</ele><time>2026-04-06T09:26:53.998Z</time></trkpt><trkpt lat="45.7082312" lon="10.8605465"><ele>1385.0</ele><time>2026-04-06T09:26:54.996Z</time></trkpt><trkpt lat="45.7081621" lon="10.8605318"><ele>1385.0</ele><time>2026-04-06T09:26:56.006Z</time></trkpt><trkpt lat="45.7080924" lon="10.8605194"><ele>1385.0</ele><time>2026-04-06T09:26:57.004Z</time></trkpt><trkpt lat="45.708023" lon="10.8605018"><ele>1385.0</ele><time>2026-04-06T09:26:58Z</time></trkpt><trkpt lat="45.7079455" lon="10.8604888"><ele>1385.0</ele><time>2026-04-06T09:26:58.996Z</time></trkpt><trkpt lat="45.707858" lon="10.8604726"><ele>1385.0</ele><time>2026-04-06T09:27:00.005Z</time></trkpt><trkpt lat="45.7077596" lon="10.8604456"><ele>1382.8</ele><time>2026-04-06T09:27:01.005Z</time></trkpt><trkpt lat="45.7076567" lon="10.8604205"><ele>1380.6</ele><time>2026-04-06T09:27:01.996Z</time></trkpt><trkpt lat="45.7075478" lon="10.8603941"><ele>1378.4</ele><time>2026-04-06T09:27:03.007Z</time></trkpt><trkpt lat="45.7074338" lon="10.8603607"><ele>1376.2</ele><time>2026-04-06T09:27:04Z</time></trkpt><trkpt lat="45.7073196" lon="10.8603246"><ele>1374.0</ele><time>2026-04-06T09:27:04.995Z</time></trkpt><trkpt lat="45.7072081" lon="10.8602821"><ele>1374.0</ele><time>2026-04-06T09:27:06.002Z</time></trkpt><trkpt lat="45.7070954" lon="10.8602351"><ele>1374.0</ele><time>2026-04-06T09:27:07Z</time></trkpt><trkpt lat="45.7069769" lon="10.8601829"><ele>1374.0</ele><time>2026-04-06T09:27:07.998Z</time></trkpt><trkpt lat="45.7068434" lon="10.8601215"><ele>1374.0</ele><time>2026-04-06T09:27:09.002Z</time></trkpt><trkpt lat="45.706694" lon="10.8600571"><ele>1369.6666666666667</ele><time>2026-04-06T09:27:09.996Z</time></trkpt><trkpt lat="45.7065362" lon="10.8599911"><ele>1365.3333333333335</ele><time>2026-04-06T09:27:11.007Z</time></trkpt><trkpt lat="45.7063667" lon="10.8599194"><ele>1361.0</ele><time>2026-04-06T09:27:12.001Z</time></trkpt><trkpt lat="45.706197" lon="10.8598442"><ele>1358.6666666666667</ele><time>2026-04-06T09:27:13.003Z</time></trkpt><trkpt lat="45.7060222" lon="10.8597655"><ele>1356.3333333333333</ele><time>2026-04-06T09:27:13.996Z</time></trkpt><trkpt lat="45.7058431" lon="10.8596823"><ele>1354.0</ele><time>2026-04-06T09:27:15.003Z</time></trkpt><trkpt lat="45.7056625" lon="10.8595977"><ele>1354.0</ele><time>2026-04-06T09:27:16.007Z</time></trkpt><trkpt lat="45.7054861" lon="10.8595122"><ele>1354.0</ele><time>2026-04-06T09:27:16.999Z</time></trkpt><trkpt lat="45.7053229" lon="10.8594357"><ele>1354.0</ele><time>2026-04-06T09:27:18.004Z</time></trkpt><trkpt lat="45.7051642" lon="10.8593638"><ele>1351.6666666666665</ele><time>2026-04-06T09:27:19.004Z</time></trkpt><trkpt lat="45.7050069" lon="10.859296"><ele>1349.3333333333333</ele><time>2026-04-06T09:27:20.007Z</time></trkpt><trkpt lat="45.7048472" lon="10.8592314"><ele>1347.0</ele><time>2026-04-06T09:27:21.008Z</time></trkpt><trkpt lat="45.7046835" lon="10.8591767"><ele>1346.0</ele><time>2026-04-06T09:27:22Z</time></trkpt><trkpt lat="45.7045168" lon="10.859131"><ele>1345.0</ele><time>2026-04-06T09:27:23.001Z</time></trkpt><trkpt lat="45.7043473" lon="10.8590902"><ele>1344.0</ele><time>2026-04-06T09:27:23.995Z</time></trkpt><trkpt lat="45.7041838" lon="10.8590513"><ele>1341.0</ele><time>2026-04-06T09:27:24.995Z</time></trkpt><trkpt lat="45.7040205" lon="10.8590105"><ele>1338.0</ele><time>2026-04-06T09:27:26.001Z</time></trkpt><trkpt lat="45.7038576" lon="10.8589629"><ele>1335.0</ele><time>2026-04-06T09:27:26.996Z</time></trkpt><trkpt lat="45.7036958" lon="10.858901"><ele>1335.3333333333333</ele><time>2026-04-06T09:27:28.007Z</time></trkpt><trkpt lat="45.7035383" lon="10.8588158"><ele>1335.6666666666665</ele><time>2026-04-06T09:27:29.003Z</time></trkpt><trkpt lat="45.7033786" lon="10.8587094"><ele>1336.0</ele><time>2026-04-06T09:27:29.999Z</time></trkpt><trkpt lat="45.7032147" lon="10.8585877"><ele>1336.0</ele><time>2026-04-06T09:27:30.998Z</time></trkpt><trkpt lat="45.7030432" lon="10.8584566"><ele>1336.0</ele><time>2026-04-06T09:27:31.998Z</time></trkpt><trkpt lat="45.7028684" lon="10.8583235"><ele>1336.0</ele><time>2026-04-06T09:27:33.001Z</time></trkpt><trkpt lat="45.7026988" lon="10.8581946"><ele>1330.0</ele><time>2026-04-06T09:27:33.997Z</time></trkpt><trkpt lat="45.7025306" lon="10.8580641"><ele>1324.0</ele><time>2026-04-06T09:27:35.003Z</time></trkpt><trkpt lat="45.7023655" lon="10.857938"><ele>1318.0</ele><time>2026-04-06T09:27:35.996Z</time></trkpt><trkpt lat="45.7022032" lon="10.8578133"><ele>1318.0</ele><time>2026-04-06T09:27:37Z</time></trkpt><trkpt lat="45.7020433" lon="10.8576915"><ele>1318.0</ele><time>2026-04-06T09:27:38.001Z</time></trkpt><trkpt lat="45.701886" lon="10.8575746"><ele>1318.0</ele><time>2026-04-06T09:27:39.002Z</time></trkpt><trkpt lat="45.7017377" lon="10.857463"><ele>1313.0</ele><time>2026-04-06T09:27:40.006Z</time></trkpt><trkpt lat="45.7015923" lon="10.8573492"><ele>1308.0</ele><time>2026-04-06T09:27:41Z</time></trkpt><trkpt lat="45.7014546" lon="10.8572389"><ele>1303.0</ele><time>2026-04-06T09:27:42.002Z</time></trkpt><trkpt lat="45.7013254" lon="10.8571309"><ele>1303.0</ele><time>2026-04-06T09:27:43.006Z</time></trkpt><trkpt lat="45.7012024" lon="10.8570194"><ele>1303.0</ele><time>2026-04-06T09:27:43.996Z</time></trkpt><trkpt lat="45.7010829" lon="10.8568998"><ele>1303.0</ele><time>2026-04-06T09:27:45.008Z</time></trkpt><trkpt lat="45.7009626" lon="10.8567576"><ele>1303.0</ele><time>2026-04-06T09:27:45.999Z</time></trkpt><trkpt lat="45.70084" lon="10.8565954"><ele>1299.3333333333333</ele><time>2026-04-06T09:27:47.008Z</time></trkpt><trkpt lat="45.7007191" lon="10.8564297"><ele>1295.6666666666667</ele><time>2026-04-06T09:27:48.003Z</time></trkpt><trkpt lat="45.7006002" lon="10.8562716"><ele>1292.0</ele><time>2026-04-06T09:27:49.001Z</time></trkpt><trkpt lat="45.7004769" lon="10.8561233"><ele>1292.0</ele><time>2026-04-06T09:27:50.006Z</time></trkpt><trkpt lat="45.7003454" lon="10.8559937"><ele>1292.0</ele><time>2026-04-06T09:27:51.002Z</time></trkpt><trkpt lat="45.7002079" lon="10.8558869"><ele>1292.0</ele><time>2026-04-06T09:27:52.003Z</time></trkpt><trkpt lat="45.7000644" lon="10.8558024"><ele>1288.3333333333335</ele><time>2026-04-06T09:27:53.002Z</time></trkpt><trkpt lat="45.6999157" lon="10.8557293"><ele>1284.6666666666667</ele><time>2026-04-06T09:27:54.002Z</time></trkpt><trkpt lat="45.6997602" lon="10.8556658"><ele>1281.0</ele><time>2026-04-06T09:27:55.002Z</time></trkpt><trkpt lat="45.6996015" lon="10.8556003"><ele>1281.0</ele><time>2026-04-06T09:27:56.003Z</time></trkpt><trkpt lat="45.6994351" lon="10.8555366"><ele>1281.0</ele><time>2026-04-06T09:27:57.003Z</time></trkpt><trkpt lat="45.6992584" lon="10.8554715"><ele>1281.0</ele><time>2026-04-06T09:27:58.002Z</time></trkpt><trkpt lat="45.6990785" lon="10.8554032"><ele>1274.6666666666667</ele><time>2026-04-06T09:27:59.003Z</time></trkpt><trkpt lat="45.6989106" lon="10.8553375"><ele>1268.3333333333335</ele><time>2026-04-06T09:28:00.002Z</time></trkpt><trkpt lat="45.6987611" lon="10.8552756"><ele>1262.0</ele><time>2026-04-06T09:28:01.002Z</time></trkpt><trkpt lat="45.6986138" lon="10.8552055"><ele>1261.5</ele><time>2026-04-06T09:28:02.002Z</time></trkpt><trkpt lat="45.6984783" lon="10.8551287"><ele>1261.0</ele><time>2026-04-06T09:28:03.002Z</time></trkpt><trkpt lat="45.6983577" lon="10.8550502"><ele>1260.5</ele><time>2026-04-06T09:28:04.002Z</time></trkpt><trkpt lat="45.6982537" lon="10.8549752"><ele>1260.0</ele><time>2026-04-06T09:28:05.003Z</time></trkpt><trkpt lat="45.6981654" lon="10.8549069"><ele>1260.0</ele><time>2026-04-06T09:28:06.003Z</time></trkpt><trkpt lat="45.6980937" lon="10.8548511"><ele>1260.0</ele><time>2026-04-06T09:28:07.002Z</time></trkpt><trkpt lat="45.6980342" lon="10.8548176"><ele>1260.0</ele><time>2026-04-06T09:28:08.002Z</time></trkpt><trkpt lat="45.697936" lon="10.8548275"><ele>1260.0</ele><time>2026-04-06T09:28:10.003Z</time></trkpt><trkpt lat="45.6978979" lon="10.8549329"><ele>1260.0</ele><time>2026-04-06T09:28:12.003Z</time></trkpt><trkpt lat="45.6979579" lon="10.8550664"><ele>1260.0</ele><time>2026-04-06T09:28:14.003Z</time></trkpt><trkpt lat="45.6980296" lon="10.8551532"><ele>1256.75</ele><time>2026-04-06T09:28:15.003Z</time></trkpt><trkpt lat="45.6981084" lon="10.8552599"><ele>1253.5</ele><time>2026-04-06T09:28:16.002Z</time></trkpt><trkpt lat="45.6981864" lon="10.8553888"><ele>1250.25</ele><time>2026-04-06T09:28:17.002Z</time></trkpt><trkpt lat="45.698273" lon="10.8555541"><ele>1247.0</ele><time>2026-04-06T09:28:18.003Z</time></trkpt><trkpt lat="45.6983669" lon="10.8557532"><ele>1248.3333333333335</ele><time>2026-04-06T09:28:19.002Z</time></trkpt><trkpt lat="45.698459" lon="10.8559609"><ele>1249.6666666666667</ele><time>2026-04-06T09:28:20.003Z</time></trkpt><trkpt lat="45.6985469" lon="10.8561575"><ele>1251.0</ele><time>2026-04-06T09:28:21.002Z</time></trkpt><trkpt lat="45.6986325" lon="10.8563472"><ele>1251.0</ele><time>2026-04-06T09:28:22.003Z</time></trkpt><trkpt lat="45.6987125" lon="10.8565073"><ele>1251.0</ele><time>2026-04-06T09:28:23.002Z</time></trkpt><trkpt lat="45.6987828" lon="10.8566445"><ele>1251.0</ele><time>2026-04-06T09:28:24.002Z</time></trkpt><trkpt lat="45.6988454" lon="10.8567639"><ele>1251.0</ele><time>2026-04-06T09:28:25.003Z</time></trkpt><trkpt lat="45.698902" lon="10.8568817"><ele>1250.0</ele><time>2026-04-06T09:28:26.003Z</time></trkpt><trkpt lat="45.6989488" lon="10.8570126"><ele>1249.0</ele><time>2026-04-06T09:28:27.003Z</time></trkpt><trkpt lat="45.6989953" lon="10.8571654"><ele>1248.0</ele><time>2026-04-06T09:28:28.003Z</time></trkpt><trkpt lat="45.6990549" lon="10.8573259"><ele>1247.0</ele><time>2026-04-06T09:28:29.003Z</time></trkpt><trkpt lat="45.6991276" lon="10.8574917"><ele>1245.4</ele><time>2026-04-06T09:28:30.003Z</time></trkpt><trkpt lat="45.6991933" lon="10.8576414"><ele>1243.8000000000002</ele><time>2026-04-06T09:28:31.003Z</time></trkpt><trkpt lat="45.6992481" lon="10.8577838"><ele>1242.2</ele><time>2026-04-06T09:28:32.003Z</time></trkpt><trkpt lat="45.6992925" lon="10.8579212"><ele>1240.6000000000001</ele><time>2026-04-06T09:28:33.002Z</time></trkpt><trkpt lat="45.6993287" lon="10.8580442"><ele>1239.0</ele><time>2026-04-06T09:28:34.003Z</time></trkpt><trkpt lat="45.699358" lon="10.8581529"><ele>1239.0</ele><time>2026-04-06T09:28:35.003Z</time></trkpt><trkpt lat="45.6993797" lon="10.8582485"><ele>1239.0</ele><time>2026-04-06T09:28:36.002Z</time></trkpt><trkpt lat="45.6993896" lon="10.8583941"><ele>1239.0</ele><time>2026-04-06T09:28:38.003Z</time></trkpt><trkpt lat="45.699342" lon="10.8584755"><ele>1239.0</ele><time>2026-04-06T09:28:40.002Z</time></trkpt><trkpt lat="45.6992448" lon="10.8584382"><ele>1239.0</ele><time>2026-04-06T09:28:42.002Z</time></trkpt><trkpt lat="45.6991743" lon="10.8583546"><ele>1239.0</ele><time>2026-04-06T09:28:43.003Z</time></trkpt><trkpt lat="45.699094" lon="10.8582499"><ele>1239.0</ele><time>2026-04-06T09:28:44.003Z</time></trkpt><trkpt lat="45.6989838" lon="10.8581154"><ele>1239.0</ele><time>2026-04-06T09:28:45.002Z</time></trkpt><trkpt lat="45.6988874" lon="10.8579982"><ele>1239.0</ele><time>2026-04-06T09:28:46.003Z</time></trkpt><trkpt lat="45.6987936" lon="10.857878"><ele>1239.0</ele><time>2026-04-06T09:28:47.002Z</time></trkpt><trkpt lat="45.6987103" lon="10.857748"><ele>1240.6000000000001</ele><time>2026-04-06T09:28:48.002Z</time></trkpt><trkpt lat="45.6986539" lon="10.8576156"><ele>1242.2</ele><time>2026-04-06T09:28:49.003Z</time></trkpt><trkpt lat="45.6986233" lon="10.8574745"><ele>1243.8000000000002</ele><time>2026-04-06T09:28:50.002Z</time></trkpt><trkpt lat="45.698601" lon="10.8573451"><ele>1245.4</ele><time>2026-04-06T09:28:51.002Z</time></trkpt><trkpt lat="45.6985618" lon="10.8572487"><ele>1247.0</ele><time>2026-04-06T09:28:52.002Z</time></trkpt><trkpt lat="45.6984982" lon="10.8571669"><ele>1242.75</ele><time>2026-04-06T09:28:53.002Z</time></trkpt><trkpt lat="45.6984092" lon="10.8570986"><ele>1238.5</ele><time>2026-04-06T09:28:54.002Z</time></trkpt><trkpt lat="45.6982929" lon="10.857031"><ele>1234.25</ele><time>2026-04-06T09:28:55.002Z</time></trkpt><trkpt lat="45.6981698" lon="10.8569503"><ele>1230.0</ele><time>2026-04-06T09:28:56.002Z</time></trkpt><trkpt lat="45.6980625" lon="10.8568559"><ele>1230.0</ele><time>2026-04-06T09:28:57.003Z</time></trkpt><trkpt lat="45.6979739" lon="10.8567711"><ele>1230.0</ele><time>2026-04-06T09:28:58.002Z</time></trkpt><trkpt lat="45.6979059" lon="10.8567056"><ele>1230.0</ele><time>2026-04-06T09:28:59.002Z</time></trkpt><trkpt lat="45.6978104" lon="10.8566691"><ele>1230.0</ele><time>2026-04-06T09:29:01.002Z</time></trkpt><trkpt lat="45.6977591" lon="10.8567567"><ele>1230.0</ele><time>2026-04-06T09:29:03.002Z</time></trkpt><trkpt lat="45.6977952" lon="10.8569249"><ele>1230.0</ele><time>2026-04-06T09:29:05.002Z</time></trkpt><trkpt lat="45.6978423" lon="10.8570522"><ele>1230.0</ele><time>2026-04-06T09:29:06.002Z</time></trkpt><trkpt lat="45.6978935" lon="10.8571649"><ele>1230.0</ele><time>2026-04-06T09:29:07.003Z</time></trkpt><trkpt lat="45.6979308" lon="10.8572461"><ele>1230.0</ele><time>2026-04-06T09:29:08.002Z</time></trkpt><trkpt lat="45.6979692" lon="10.8573769"><ele>1230.0</ele><time>2026-04-06T09:29:10.002Z</time></trkpt><trkpt lat="45.6979271" lon="10.8574598"><ele>1230.0</ele><time>2026-04-06T09:29:12.003Z</time></trkpt><trkpt lat="45.6978348" lon="10.8574387"><ele>1230.0</ele><time>2026-04-06T09:29:14.003Z</time></trkpt><trkpt lat="45.6977685" lon="10.8573833"><ele>1230.0</ele><time>2026-04-06T09:29:15.002Z</time></trkpt><trkpt lat="45.6976925" lon="10.8573106"><ele>1230.0</ele><time>2026-04-06T09:29:16.003Z</time></trkpt><trkpt lat="45.6976048" lon="10.8572249"><ele>1230.0</ele><time>2026-04-06T09:29:17.002Z</time></trkpt><trkpt lat="45.6975189" lon="10.8571396"><ele>1230.0</ele><time>2026-04-06T09:29:18.002Z</time></trkpt><trkpt lat="45.6974305" lon="10.8570403"><ele>1227.0</ele><time>2026-04-06T09:29:19.002Z</time></trkpt><trkpt lat="45.697335" lon="10.8569392"><ele>1224.0</ele><time>2026-04-06T09:29:20.003Z</time></trkpt><trkpt lat="45.6972304" lon="10.8568451"><ele>1221.0</ele><time>2026-04-06T09:29:21.002Z</time></trkpt><trkpt lat="45.6971165" lon="10.8567535"><ele>1218.0</ele><time>2026-04-06T09:29:22.002Z</time></trkpt><trkpt lat="45.6969921" lon="10.8566601"><ele>1215.0</ele><time>2026-04-06T09:29:23.003Z</time></trkpt><trkpt lat="45.6968634" lon="10.8565629"><ele>1212.0</ele><time>2026-04-06T09:29:24.002Z</time></trkpt><trkpt lat="45.696733" lon="10.8564637"><ele>1209.0</ele><time>2026-04-06T09:29:25.002Z</time></trkpt><trkpt lat="45.6966" lon="10.8563717"><ele>1206.0</ele><time>2026-04-06T09:29:26.002Z</time></trkpt><trkpt lat="45.6964717" lon="10.8562903"><ele>1206.0</ele><time>2026-04-06T09:29:27.002Z</time></trkpt><trkpt lat="45.6963593" lon="10.8562241"><ele>1206.0</ele><time>2026-04-06T09:29:28.002Z</time></trkpt><trkpt lat="45.6962577" lon="10.8561668"><ele>1206.0</ele><time>2026-04-06T09:29:29.003Z</time></trkpt><trkpt lat="45.6961601" lon="10.8561048"><ele>1206.0</ele><time>2026-04-06T09:29:30.002Z</time></trkpt><trkpt lat="45.6960734" lon="10.8560449"><ele>1206.0</ele><time>2026-04-06T09:29:31.002Z</time></trkpt><trkpt lat="45.695984" lon="10.8559804"><ele>1204.0</ele><time>2026-04-06T09:29:32.002Z</time></trkpt><trkpt lat="45.6958943" lon="10.8559092"><ele>1202.0</ele><time>2026-04-06T09:29:33.002Z</time></trkpt><trkpt lat="45.6958044" lon="10.8558302"><ele>1200.0</ele><time>2026-04-06T09:29:34.003Z</time></trkpt><trkpt lat="45.6957103" lon="10.8557452"><ele>1198.0</ele><time>2026-04-06T09:29:35.003Z</time></trkpt><trkpt lat="45.6956145" lon="10.8556421"><ele>1196.0</ele><time>2026-04-06T09:29:36.002Z</time></trkpt><trkpt lat="45.6955225" lon="10.8555123"><ele>1196.0</ele><time>2026-04-06T09:29:37.003Z</time></trkpt><trkpt lat="45.6954328" lon="10.8553668"><ele>1196.0</ele><time>2026-04-06T09:29:38.002Z</time></trkpt><trkpt lat="45.6953535" lon="10.8552328"><ele>1196.0</ele><time>2026-04-06T09:29:39.003Z</time></trkpt><trkpt lat="45.6952876" lon="10.8551138"><ele>1196.0</ele><time>2026-04-06T09:29:40.002Z</time></trkpt><trkpt lat="45.6952343" lon="10.8550052"><ele>1193.5</ele><time>2026-04-06T09:29:41.002Z</time></trkpt><trkpt lat="45.6951984" lon="10.854893"><ele>1191.0</ele><time>2026-04-06T09:29:42.002Z</time></trkpt><trkpt lat="45.6951862" lon="10.8547736"><ele>1188.5</ele><time>2026-04-06T09:29:43.002Z</time></trkpt><trkpt lat="45.6952001" lon="10.8546642"><ele>1186.0</ele><time>2026-04-06T09:29:44.002Z</time></trkpt><trkpt lat="45.6952333" lon="10.8545664"><ele>1183.5</ele><time>2026-04-06T09:29:45.002Z</time></trkpt><trkpt lat="45.6952524" lon="10.8544131"><ele>1181.0</ele><time>2026-04-06T09:29:47.003Z</time></trkpt><trkpt lat="45.695224" lon="10.8543279"><ele>1181.8</ele><time>2026-04-06T09:29:48.002Z</time></trkpt><trkpt lat="45.6951589" lon="10.8542587"><ele>1182.6</ele><time>2026-04-06T09:29:49.003Z</time></trkpt><trkpt lat="45.6950593" lon="10.8542041"><ele>1183.4</ele><time>2026-04-06T09:29:50.003Z</time></trkpt><trkpt lat="45.6949337" lon="10.854159"><ele>1184.2</ele><time>2026-04-06T09:29:51.002Z</time></trkpt><trkpt lat="45.694826" lon="10.8541224"><ele>1185.0</ele><time>2026-04-06T09:29:52.003Z</time></trkpt><trkpt lat="45.6947432" lon="10.8540672"><ele>1185.0</ele><time>2026-04-06T09:29:53.003Z</time></trkpt><trkpt lat="45.694677" lon="10.8539795"><ele>1185.0</ele><time>2026-04-06T09:29:54.003Z</time></trkpt><trkpt lat="45.6946401" lon="10.8538648"><ele>1185.0</ele><time>2026-04-06T09:29:55.002Z</time></trkpt><trkpt lat="45.6946272" lon="10.8537157"><ele>1185.0</ele><time>2026-04-06T09:29:56.003Z</time></trkpt><trkpt lat="45.6946347" lon="10.8535427"><ele>1185.0</ele><time>2026-04-06T09:29:57.003Z</time></trkpt><trkpt lat="45.6946349" lon="10.8533811"><ele>1186.0</ele><time>2026-04-06T09:29:58.003Z</time></trkpt><trkpt lat="45.6946191" lon="10.8532396"><ele>1187.0</ele><time>2026-04-06T09:29:59.003Z</time></trkpt><trkpt lat="45.6945864" lon="10.853114"><ele>1188.0</ele><time>2026-04-06T09:30:00.003Z</time></trkpt><trkpt lat="45.6945286" lon="10.8530058"><ele>1189.0</ele><time>2026-04-06T09:30:01.003Z</time></trkpt><trkpt lat="45.6944368" lon="10.8528967"><ele>1190.0</ele><time>2026-04-06T09:30:02.003Z</time></trkpt><trkpt lat="45.6943201" lon="10.8527985"><ele>1187.75</ele><time>2026-04-06T09:30:03.002Z</time></trkpt><trkpt lat="45.6942244" lon="10.852704"><ele>1185.5</ele><time>2026-04-06T09:30:04.002Z</time></trkpt><trkpt lat="45.6941525" lon="10.8525876"><ele>1183.25</ele><time>2026-04-06T09:30:05.002Z</time></trkpt><trkpt lat="45.6940862" lon="10.8524466"><ele>1181.0</ele><time>2026-04-06T09:30:06.003Z</time></trkpt><trkpt lat="45.6940289" lon="10.8523066"><ele>1181.0</ele><time>2026-04-06T09:30:07.003Z</time></trkpt><trkpt lat="45.6939907" lon="10.8521838"><ele>1181.0</ele><time>2026-04-06T09:30:08.002Z</time></trkpt><trkpt lat="45.6939819" lon="10.8520426"><ele>1181.0</ele><time>2026-04-06T09:30:09.003Z</time></trkpt><trkpt lat="45.6939755" lon="10.8519003"><ele>1181.0</ele><time>2026-04-06T09:30:10.002Z</time></trkpt><trkpt lat="45.6939603" lon="10.8517615"><ele>1181.0</ele><time>2026-04-06T09:30:11.002Z</time></trkpt><trkpt lat="45.6939195" lon="10.8516298"><ele>1182.0</ele><time>2026-04-06T09:30:12.002Z</time></trkpt><trkpt lat="45.6938635" lon="10.8515014"><ele>1183.0</ele><time>2026-04-06T09:30:13.002Z</time></trkpt><trkpt lat="45.6937932" lon="10.8513991"><ele>1184.0</ele><time>2026-04-06T09:30:14.003Z</time></trkpt><trkpt lat="45.6937161" lon="10.8513222"><ele>1185.0</ele><time>2026-04-06T09:30:15.003Z</time></trkpt><trkpt lat="45.6936431" lon="10.8512801"><ele>1186.0</ele><time>2026-04-06T09:30:16.003Z</time></trkpt><trkpt lat="45.6935719" lon="10.8512805"><ele>1180.5</ele><time>2026-04-06T09:30:17.003Z</time></trkpt><trkpt lat="45.6934851" lon="10.8513111"><ele>1175.0</ele><time>2026-04-06T09:30:18.003Z</time></trkpt><trkpt lat="45.6933765" lon="10.8513706"><ele>1169.5</ele><time>2026-04-06T09:30:19.002Z</time></trkpt><trkpt lat="45.6932557" lon="10.8514298"><ele>1164.0</ele><time>2026-04-06T09:30:20.002Z</time></trkpt><trkpt lat="45.6931404" lon="10.8514671"><ele>1164.0</ele><time>2026-04-06T09:30:21.003Z</time></trkpt><trkpt lat="45.693012" lon="10.8514875"><ele>1164.0</ele><time>2026-04-06T09:30:22.002Z</time></trkpt><trkpt lat="45.6928821" lon="10.8514836"><ele>1164.0</ele><time>2026-04-06T09:30:23.002Z</time></trkpt><trkpt lat="45.6927524" lon="10.8514947"><ele>1164.0</ele><time>2026-04-06T09:30:24.002Z</time></trkpt><trkpt lat="45.6926052" lon="10.8515084"><ele>1163.0</ele><time>2026-04-06T09:30:25.003Z</time></trkpt><trkpt lat="45.6924658" lon="10.8515694"><ele>1162.0</ele><time>2026-04-06T09:30:26.002Z</time></trkpt><trkpt lat="45.6923288" lon="10.8515869"><ele>1161.0</ele><time>2026-04-06T09:30:27.003Z</time></trkpt><trkpt lat="45.6922081" lon="10.8516056"><ele>1160.0</ele><time>2026-04-06T09:30:28.002Z</time></trkpt><trkpt lat="45.692092" lon="10.8516541"><ele>1160.0</ele><time>2026-04-06T09:30:29.003Z</time></trkpt><trkpt lat="45.6919687" lon="10.8517453"><ele>1160.0</ele><time>2026-04-06T09:30:30.003Z</time></trkpt><trkpt lat="45.6918419" lon="10.8518437"><ele>1160.0</ele><time>2026-04-06T09:30:31.002Z</time></trkpt><trkpt lat="45.6917114" lon="10.8519219"><ele>1160.0</ele><time>2026-04-06T09:30:32.002Z</time></trkpt><trkpt lat="45.6915607" lon="10.851992"><ele>1153.0</ele><time>2026-04-06T09:30:33.002Z</time></trkpt><trkpt lat="45.6914056" lon="10.8520567"><ele>1146.0</ele><time>2026-04-06T09:30:34.002Z</time></trkpt><trkpt lat="45.691255" lon="10.8521252"><ele>1139.0</ele><time>2026-04-06T09:30:35.003Z</time></trkpt><trkpt lat="45.6911071" lon="10.8521882"><ele>1137.0</ele><time>2026-04-06T09:30:36.002Z</time></trkpt><trkpt lat="45.6909663" lon="10.8522443"><ele>1135.0</ele><time>2026-04-06T09:30:37.003Z</time></trkpt><trkpt lat="45.6908358" lon="10.8522862"><ele>1133.0</ele><time>2026-04-06T09:30:38.002Z</time></trkpt><trkpt lat="45.6907097" lon="10.8523096"><ele>1131.0</ele><time>2026-04-06T09:30:39.003Z</time></trkpt><trkpt lat="45.6905861" lon="10.8523099"><ele>1131.0</ele><time>2026-04-06T09:30:40.003Z</time></trkpt><trkpt lat="45.6904599" lon="10.8523031"><ele>1131.0</ele><time>2026-04-06T09:30:41.003Z</time></trkpt><trkpt lat="45.6903277" lon="10.8522886"><ele>1131.0</ele><time>2026-04-06T09:30:42.003Z</time></trkpt><trkpt lat="45.6901969" lon="10.8522699"><ele>1131.0</ele><time>2026-04-06T09:30:43.003Z</time></trkpt><trkpt lat="45.6900733" lon="10.852244"><ele>1129.25</ele><time>2026-04-06T09:30:44.002Z</time></trkpt><trkpt lat="45.689956" lon="10.8521987"><ele>1127.5</ele><time>2026-04-06T09:30:45.002Z</time></trkpt><trkpt lat="45.6898491" lon="10.8521394"><ele>1125.75</ele><time>2026-04-06T09:30:46.003Z</time></trkpt><trkpt lat="45.689753" lon="10.8520697"><ele>1124.0</ele><time>2026-04-06T09:30:47.002Z</time></trkpt><trkpt lat="45.6896554" lon="10.8519977"><ele>1124.0</ele><time>2026-04-06T09:30:48.002Z</time></trkpt><trkpt lat="45.68956" lon="10.8519249"><ele>1124.0</ele><time>2026-04-06T09:30:49.002Z</time></trkpt><trkpt lat="45.6894701" lon="10.8518593"><ele>1124.0</ele><time>2026-04-06T09:30:50.002Z</time></trkpt><trkpt lat="45.6893924" lon="10.8518021"><ele>1124.0</ele><time>2026-04-06T09:30:51.002Z</time></trkpt><trkpt lat="45.6893111" lon="10.8517464"><ele>1124.0</ele><time>2026-04-06T09:30:52.002Z</time></trkpt><trkpt lat="45.6892389" lon="10.8516915"><ele>1124.0</ele><time>2026-04-06T09:30:53.003Z</time></trkpt><trkpt lat="45.6891701" lon="10.851636"><ele>1124.0</ele><time>2026-04-06T09:30:54.002Z</time></trkpt><trkpt lat="45.6890991" lon="10.8515734"><ele>1124.0</ele><time>2026-04-06T09:30:55.003Z</time></trkpt><trkpt lat="45.6890169" lon="10.8515003"><ele>1124.0</ele><time>2026-04-06T09:30:56.002Z</time></trkpt><trkpt lat="45.6889327" lon="10.8514142"><ele>1124.0</ele><time>2026-04-06T09:30:57.002Z</time></trkpt><trkpt lat="45.6888476" lon="10.8513259"><ele>1124.0</ele><time>2026-04-06T09:30:58.002Z</time></trkpt><trkpt lat="45.6887705" lon="10.8512351"><ele>1124.0</ele><time>2026-04-06T09:30:59.002Z</time></trkpt><trkpt lat="45.6887075" lon="10.8511396"><ele>1124.0</ele><time>2026-04-06T09:31:00.002Z</time></trkpt><trkpt lat="45.6886676" lon="10.8510445"><ele>1124.0</ele><time>2026-04-06T09:31:01.002Z</time></trkpt><trkpt lat="45.6886525" lon="10.8509469"><ele>1124.0</ele><time>2026-04-06T09:31:02.002Z</time></trkpt><trkpt lat="45.6886576" lon="10.8508321"><ele>1124.0</ele><time>2026-04-06T09:31:03.002Z</time></trkpt><trkpt lat="45.6886777" lon="10.8506893"><ele>1125.0</ele><time>2026-04-06T09:31:04.003Z</time></trkpt><trkpt lat="45.6886898" lon="10.8505396"><ele>1126.0</ele><time>2026-04-06T09:31:05.003Z</time></trkpt><trkpt lat="45.6886733" lon="10.8504074"><ele>1127.0</ele><time>2026-04-06T09:31:06.003Z</time></trkpt><trkpt lat="45.6886337" lon="10.8502767"><ele>1128.0</ele><time>2026-04-06T09:31:07.003Z</time></trkpt><trkpt lat="45.688567" lon="10.8501409"><ele>1129.0</ele><time>2026-04-06T09:31:08.002Z</time></trkpt><trkpt lat="45.6884917" lon="10.8500059"><ele>1124.6000000000001</ele><time>2026-04-06T09:31:09.002Z</time></trkpt><trkpt lat="45.6884215" lon="10.8498809"><ele>1120.2</ele><time>2026-04-06T09:31:10.002Z</time></trkpt><trkpt lat="45.6883524" lon="10.8497597"><ele>1115.8000000000002</ele><time>2026-04-06T09:31:11.002Z</time></trkpt><trkpt lat="45.6882829" lon="10.8496487"><ele>1111.4</ele><time>2026-04-06T09:31:12.003Z</time></trkpt><trkpt lat="45.6882229" lon="10.8495562"><ele>1107.0</ele><time>2026-04-06T09:31:13.003Z</time></trkpt><trkpt lat="45.6881659" lon="10.849492"><ele>1107.0</ele><time>2026-04-06T09:31:14.002Z</time></trkpt><trkpt lat="45.6881019" lon="10.8494745"><ele>1107.0</ele><time>2026-04-06T09:31:15.003Z</time></trkpt><trkpt lat="45.6880233" lon="10.8494922"><ele>1107.0</ele><time>2026-04-06T09:31:16.002Z</time></trkpt><trkpt lat="45.6879332" lon="10.8495567"><ele>1107.0</ele><time>2026-04-06T09:31:17.002Z</time></trkpt><trkpt lat="45.687824" lon="10.8496575"><ele>1107.0</ele><time>2026-04-06T09:31:18.002Z</time></trkpt><trkpt lat="45.6877115" lon="10.849762"><ele>1105.5</ele><time>2026-04-06T09:31:19.002Z</time></trkpt><trkpt lat="45.6875863" lon="10.8498878"><ele>1104.0</ele><time>2026-04-06T09:31:20.003Z</time></trkpt><trkpt lat="45.6874631" lon="10.8500258"><ele>1102.5</ele><time>2026-04-06T09:31:21.002Z</time></trkpt><trkpt lat="45.6873635" lon="10.8501448"><ele>1101.0</ele><time>2026-04-06T09:31:22.003Z</time></trkpt><trkpt lat="45.6872681" lon="10.8502361"><ele>1097.2</ele><time>2026-04-06T09:31:23.002Z</time></trkpt><trkpt lat="45.6871706" lon="10.850303"><ele>1093.3999999999999</ele><time>2026-04-06T09:31:24.003Z</time></trkpt><trkpt lat="45.6870703" lon="10.8503458"><ele>1089.6</ele><time>2026-04-06T09:31:25.003Z</time></trkpt><trkpt lat="45.6869654" lon="10.8503575"><ele>1085.8</ele><time>2026-04-06T09:31:26.002Z</time></trkpt><trkpt lat="45.6868629" lon="10.8503299"><ele>1082.0</ele><time>2026-04-06T09:31:27.003Z</time></trkpt><trkpt lat="45.686769" lon="10.8502606"><ele>1079.3333333333335</ele><time>2026-04-06T09:31:28.002Z</time></trkpt><trkpt lat="45.686663" lon="10.8501488"><ele>1076.6666666666667</ele><time>2026-04-06T09:31:29.002Z</time></trkpt><trkpt lat="45.6865294" lon="10.8500338"><ele>1074.0</ele><time>2026-04-06T09:31:30.003Z</time></trkpt><trkpt lat="45.6863697" lon="10.8499194"><ele>1073.5</ele><time>2026-04-06T09:31:31.002Z</time></trkpt><trkpt lat="45.6862278" lon="10.8498176"><ele>1073.0</ele><time>2026-04-06T09:31:32.003Z</time></trkpt><trkpt lat="45.6861035" lon="10.8497143"><ele>1072.5</ele><time>2026-04-06T09:31:33.002Z</time></trkpt><trkpt lat="45.6859839" lon="10.8496096"><ele>1072.0</ele><time>2026-04-06T09:31:34.002Z</time></trkpt><trkpt lat="45.6858792" lon="10.8494933"><ele>1072.0</ele><time>2026-04-06T09:31:35.003Z</time></trkpt><trkpt lat="45.6857842" lon="10.8493658"><ele>1072.0</ele><time>2026-04-06T09:31:36.002Z</time></trkpt><trkpt lat="45.6856944" lon="10.8492213"><ele>1072.0</ele><time>2026-04-06T09:31:37.002Z</time></trkpt><trkpt lat="45.685603" lon="10.8490605"><ele>1072.0</ele><time>2026-04-06T09:31:38.003Z</time></trkpt><trkpt lat="45.6855064" lon="10.848888"><ele>1071.25</ele><time>2026-04-06T09:31:38.997Z</time></trkpt><trkpt lat="45.6854019" lon="10.8487268"><ele>1070.5</ele><time>2026-04-06T09:31:40.003Z</time></trkpt><trkpt lat="45.685295" lon="10.848584"><ele>1069.75</ele><time>2026-04-06T09:31:41.003Z</time></trkpt><trkpt lat="45.6851889" lon="10.8484573"><ele>1069.0</ele><time>2026-04-06T09:31:42.003Z</time></trkpt><trkpt lat="45.685083" lon="10.8483416"><ele>1069.0</ele><time>2026-04-06T09:31:43.002Z</time></trkpt><trkpt lat="45.6849857" lon="10.8482366"><ele>1069.0</ele><time>2026-04-06T09:31:44.003Z</time></trkpt><trkpt lat="45.6849064" lon="10.8481406"><ele>1069.0</ele><time>2026-04-06T09:31:45.003Z</time></trkpt><trkpt lat="45.6848418" lon="10.8480498"><ele>1069.0</ele><time>2026-04-06T09:31:46.003Z</time></trkpt><trkpt lat="45.684797" lon="10.847939"><ele>1069.0</ele><time>2026-04-06T09:31:47.002Z</time></trkpt><trkpt lat="45.684768" lon="10.8478096"><ele>1069.0</ele><time>2026-04-06T09:31:48.002Z</time></trkpt><trkpt lat="45.6847464" lon="10.8476573"><ele>1069.0</ele><time>2026-04-06T09:31:49.003Z</time></trkpt><trkpt lat="45.6847167" lon="10.8475089"><ele>1069.0</ele><time>2026-04-06T09:31:50.003Z</time></trkpt><trkpt lat="45.6846687" lon="10.8473643"><ele>1069.0</ele><time>2026-04-06T09:31:51.003Z</time></trkpt><trkpt lat="45.6845947" lon="10.8472306"><ele>1069.0</ele><time>2026-04-06T09:31:52.003Z</time></trkpt><trkpt lat="45.684518" lon="10.8471194"><ele>1064.75</ele><time>2026-04-06T09:31:53.003Z</time></trkpt><trkpt lat="45.6844237" lon="10.8470135"><ele>1060.5</ele><time>2026-04-06T09:31:54.002Z</time></trkpt><trkpt lat="45.6843097" lon="10.8469239"><ele>1056.25</ele><time>2026-04-06T09:31:55.003Z</time></trkpt><trkpt lat="45.6841805" lon="10.846853"><ele>1052.0</ele><time>2026-04-06T09:31:56.003Z</time></trkpt><trkpt lat="45.6840365" lon="10.8467952"><ele>1051.5</ele><time>2026-04-06T09:31:57.003Z</time></trkpt><trkpt lat="45.6838862" lon="10.8467455"><ele>1051.0</ele><time>2026-04-06T09:31:58.002Z</time></trkpt><trkpt lat="45.6837589" lon="10.8467047"><ele>1050.5</ele><time>2026-04-06T09:31:59.002Z</time></trkpt><trkpt lat="45.6836408" lon="10.8466542"><ele>1050.0</ele><time>2026-04-06T09:32:00.002Z</time></trkpt><trkpt lat="45.6835318" lon="10.8465899"><ele>1050.0</ele><time>2026-04-06T09:32:01.002Z</time></trkpt><trkpt lat="45.683437" lon="10.8465074"><ele>1050.0</ele><time>2026-04-06T09:32:02.003Z</time></trkpt><trkpt lat="45.6833517" lon="10.8464104"><ele>1050.0</ele><time>2026-04-06T09:32:03.003Z</time></trkpt><trkpt lat="45.683265" lon="10.8462955"><ele>1050.0</ele><time>2026-04-06T09:32:04.003Z</time></trkpt><trkpt lat="45.6831798" lon="10.8461633"><ele>1050.0</ele><time>2026-04-06T09:32:05.003Z</time></trkpt><trkpt lat="45.6830954" lon="10.8460097"><ele>1050.0</ele><time>2026-04-06T09:32:06.002Z</time></trkpt><trkpt lat="45.6830195" lon="10.8458534"><ele>1050.0</ele><time>2026-04-06T09:32:07.003Z</time></trkpt><trkpt lat="45.682954" lon="10.8457114"><ele>1050.0</ele><time>2026-04-06T09:32:08.003Z</time></trkpt><trkpt lat="45.6828975" lon="10.8455779"><ele>1053.4</ele><time>2026-04-06T09:32:09.002Z</time></trkpt><trkpt lat="45.6828471" lon="10.8454479"><ele>1056.8</ele><time>2026-04-06T09:32:10.002Z</time></trkpt><trkpt lat="45.6828102" lon="10.8453251"><ele>1060.2</ele><time>2026-04-06T09:32:11.003Z</time></trkpt><trkpt lat="45.6827892" lon="10.8452082"><ele>1063.6</ele><time>2026-04-06T09:32:12.002Z</time></trkpt><trkpt lat="45.6827838" lon="10.8450945"><ele>1067.0</ele><time>2026-04-06T09:32:13.002Z</time></trkpt><trkpt lat="45.6827977" lon="10.8449616"><ele>1067.25</ele><time>2026-04-06T09:32:14.002Z</time></trkpt><trkpt lat="45.6828307" lon="10.8448033"><ele>1067.5</ele><time>2026-04-06T09:32:15.003Z</time></trkpt><trkpt lat="45.6828681" lon="10.8446296"><ele>1067.75</ele><time>2026-04-06T09:32:16.002Z</time></trkpt><trkpt lat="45.6829034" lon="10.8444527"><ele>1068.0</ele><time>2026-04-06T09:32:17.003Z</time></trkpt><trkpt lat="45.6829284" lon="10.8442798"><ele>1066.75</ele><time>2026-04-06T09:32:18.002Z</time></trkpt><trkpt lat="45.6829352" lon="10.844106"><ele>1065.5</ele><time>2026-04-06T09:32:19.002Z</time></trkpt><trkpt lat="45.6829152" lon="10.8439206"><ele>1064.25</ele><time>2026-04-06T09:32:20.002Z</time></trkpt><trkpt lat="45.6828666" lon="10.8437307"><ele>1063.0</ele><time>2026-04-06T09:32:21.003Z</time></trkpt><trkpt lat="45.6827933" lon="10.8435311"><ele>1054.0</ele><time>2026-04-06T09:32:22.002Z</time></trkpt><trkpt lat="45.6827039" lon="10.8433072"><ele>1045.0</ele><time>2026-04-06T09:32:23.002Z</time></trkpt><trkpt lat="45.6826253" lon="10.8431017"><ele>1036.0</ele><time>2026-04-06T09:32:24.003Z</time></trkpt><trkpt lat="45.6825576" lon="10.8429186"><ele>1036.0</ele><time>2026-04-06T09:32:25.002Z</time></trkpt><trkpt lat="45.6825002" lon="10.8427694"><ele>1036.0</ele><time>2026-04-06T09:32:26.002Z</time></trkpt><trkpt lat="45.6824469" lon="10.8426433"><ele>1036.0</ele><time>2026-04-06T09:32:27.003Z</time></trkpt><trkpt lat="45.6823964" lon="10.8425509"><ele>1036.0</ele><time>2026-04-06T09:32:28.003Z</time></trkpt><trkpt lat="45.682346" lon="10.8424944"><ele>1036.0</ele><time>2026-04-06T09:32:29.002Z</time></trkpt><trkpt lat="45.6822375" lon="10.8424947"><ele>1036.0</ele><time>2026-04-06T09:32:31.003Z</time></trkpt><trkpt lat="45.6821991" lon="10.8426574"><ele>1036.0</ele><time>2026-04-06T09:32:33.002Z</time></trkpt><trkpt lat="45.6822255" lon="10.8427825"><ele>1036.0</ele><time>2026-04-06T09:32:34.002Z</time></trkpt><trkpt lat="45.6822562" lon="10.8429303"><ele>1036.0</ele><time>2026-04-06T09:32:35.002Z</time></trkpt><trkpt lat="45.6822636" lon="10.843112"><ele>1036.0</ele><time>2026-04-06T09:32:36.003Z</time></trkpt><trkpt lat="45.6822491" lon="10.8433277"><ele>1036.25</ele><time>2026-04-06T09:32:37.002Z</time></trkpt><trkpt lat="45.6822227" lon="10.8435519"><ele>1036.5</ele><time>2026-04-06T09:32:38.003Z</time></trkpt><trkpt lat="45.6821985" lon="10.8437324"><ele>1036.75</ele><time>2026-04-06T09:32:39.002Z</time></trkpt><trkpt lat="45.6821776" lon="10.8438893"><ele>1037.0</ele><time>2026-04-06T09:32:40.002Z</time></trkpt><trkpt lat="45.682153" lon="10.8440122"><ele>1037.0</ele><time>2026-04-06T09:32:41.002Z</time></trkpt><trkpt lat="45.6821165" lon="10.8440959"><ele>1037.0</ele><time>2026-04-06T09:32:42.002Z</time></trkpt><trkpt lat="45.6820144" lon="10.8441445"><ele>1037.0</ele><time>2026-04-06T09:32:44.002Z</time></trkpt><trkpt lat="45.6819361" lon="10.8440231"><ele>1037.0</ele><time>2026-04-06T09:32:46.003Z</time></trkpt><trkpt lat="45.681909" lon="10.8438838"><ele>1037.0</ele><time>2026-04-06T09:32:47.003Z</time></trkpt><trkpt lat="45.6818893" lon="10.8436821"><ele>1033.75</ele><time>2026-04-06T09:32:48.002Z</time></trkpt><trkpt lat="45.6818721" lon="10.8434779"><ele>1030.5</ele><time>2026-04-06T09:32:49.003Z</time></trkpt><trkpt lat="45.6818481" lon="10.843278"><ele>1027.25</ele><time>2026-04-06T09:32:50.002Z</time></trkpt><trkpt lat="45.6818109" lon="10.8431053"><ele>1024.0</ele><time>2026-04-06T09:32:51.002Z</time></trkpt><trkpt lat="45.68176" lon="10.8429608"><ele>1024.0</ele><time>2026-04-06T09:32:52.003Z</time></trkpt><trkpt lat="45.6816903" lon="10.8428384"><ele>1024.0</ele><time>2026-04-06T09:32:53.002Z</time></trkpt><trkpt lat="45.6815924" lon="10.8427339"><ele>1024.0</ele><time>2026-04-06T09:32:54.003Z</time></trkpt><trkpt lat="45.6814684" lon="10.8426472"><ele>1024.0</ele><time>2026-04-06T09:32:55.002Z</time></trkpt><trkpt lat="45.6813237" lon="10.8425876"><ele>1024.0</ele><time>2026-04-06T09:32:56.003Z</time></trkpt><trkpt lat="45.681166" lon="10.8425489"><ele>1024.0</ele><time>2026-04-06T09:32:57.002Z</time></trkpt><trkpt lat="45.681018" lon="10.8425198"><ele>1024.0</ele><time>2026-04-06T09:32:58.003Z</time></trkpt><trkpt lat="45.6808849" lon="10.8424876"><ele>1024.0</ele><time>2026-04-06T09:32:59.003Z</time></trkpt><trkpt lat="45.6807584" lon="10.8424474"><ele>1019.0</ele><time>2026-04-06T09:33:00.003Z</time></trkpt><trkpt lat="45.6806438" lon="10.8423918"><ele>1014.0</ele><time>2026-04-06T09:33:01.002Z</time></trkpt><trkpt lat="45.6805428" lon="10.8423144"><ele>1009.0</ele><time>2026-04-06T09:33:02.003Z</time></trkpt><trkpt lat="45.6804587" lon="10.8422134"><ele>1004.0</ele><time>2026-04-06T09:33:03.003Z</time></trkpt><trkpt lat="45.680383" lon="10.8420869"><ele>1004.0</ele><time>2026-04-06T09:33:04.003Z</time></trkpt><trkpt lat="45.6803193" lon="10.8419509"><ele>1004.0000000000001</ele><time>2026-04-06T09:33:05.003Z</time></trkpt><trkpt lat="45.6802735" lon="10.8418149"><ele>1004.0000000000001</ele><time>2026-04-06T09:33:06.003Z</time></trkpt><trkpt lat="45.6802462" lon="10.8416778"><ele>1004.0</ele><time>2026-04-06T09:33:07.002Z</time></trkpt><trkpt lat="45.6802399" lon="10.8415355"><ele>1004.0</ele><time>2026-04-06T09:33:08.003Z</time></trkpt><trkpt lat="45.6802455" lon="10.8413748"><ele>1003.2</ele><time>2026-04-06T09:33:09.002Z</time></trkpt><trkpt lat="45.6802491" lon="10.8412179"><ele>1002.4000000000001</ele><time>2026-04-06T09:33:10.003Z</time></trkpt><trkpt lat="45.6802347" lon="10.8410683"><ele>1001.6</ele><time>2026-04-06T09:33:11.003Z</time></trkpt><trkpt lat="45.6802035" lon="10.8409289"><ele>1000.8</ele><time>2026-04-06T09:33:12.003Z</time></trkpt><trkpt lat="45.6801592" lon="10.8408047"><ele>1000.0</ele><time>2026-04-06T09:33:13.003Z</time></trkpt><trkpt lat="45.6800987" lon="10.8406911"><ele>1000.0</ele><time>2026-04-06T09:33:14.002Z</time></trkpt><trkpt lat="45.6800189" lon="10.8405919"><ele>1000.0</ele><time>2026-04-06T09:33:15.002Z</time></trkpt><trkpt lat="45.6799274" lon="10.8405133"><ele>1000.0</ele><time>2026-04-06T09:33:16.003Z</time></trkpt><trkpt lat="45.679824" lon="10.8404453"><ele>1000.0</ele><time>2026-04-06T09:33:17.002Z</time></trkpt><trkpt lat="45.6797029" lon="10.8404138"><ele>1000.0</ele><time>2026-04-06T09:33:18.003Z</time></trkpt><trkpt lat="45.6795753" lon="10.8404105"><ele>1000.0</ele><time>2026-04-06T09:33:19.003Z</time></trkpt><trkpt lat="45.6794407" lon="10.8404433"><ele>1000.0</ele><time>2026-04-06T09:33:20.003Z</time></trkpt><trkpt lat="45.6792981" lon="10.8405147"><ele>1000.0</ele><time>2026-04-06T09:33:21.003Z</time></trkpt><trkpt lat="45.6791419" lon="10.8406094"><ele>996.6666666666666</ele><time>2026-04-06T09:33:22.003Z</time></trkpt><trkpt lat="45.6789889" lon="10.8407044"><ele>993.3333333333333</ele><time>2026-04-06T09:33:23.002Z</time></trkpt><trkpt lat="45.6788387" lon="10.8407955"><ele>990.0</ele><time>2026-04-06T09:33:24.003Z</time></trkpt><trkpt lat="45.6786943" lon="10.8408806"><ele>988.5</ele><time>2026-04-06T09:33:25.002Z</time></trkpt><trkpt lat="45.6785607" lon="10.8409602"><ele>987.0</ele><time>2026-04-06T09:33:26.002Z</time></trkpt><trkpt lat="45.6784436" lon="10.8410527"><ele>985.5</ele><time>2026-04-06T09:33:27.003Z</time></trkpt><trkpt lat="45.6783297" lon="10.8411704"><ele>984.0</ele><time>2026-04-06T09:33:28.003Z</time></trkpt><trkpt lat="45.6782179" lon="10.8413592"><ele>984.0</ele><time>2026-04-06T09:33:29.002Z</time></trkpt><trkpt lat="45.6781015" lon="10.841549"><ele>984.0</ele><time>2026-04-06T09:33:30.003Z</time></trkpt><trkpt lat="45.6779964" lon="10.8417243"><ele>984.0</ele><time>2026-04-06T09:33:31.002Z</time></trkpt><trkpt lat="45.6779025" lon="10.8418809"><ele>984.5</ele><time>2026-04-06T09:33:32.002Z</time></trkpt><trkpt lat="45.6778136" lon="10.8420144"><ele>985.0</ele><time>2026-04-06T09:33:33.002Z</time></trkpt><trkpt lat="45.6777264" lon="10.8421249"><ele>985.5</ele><time>2026-04-06T09:33:34.002Z</time></trkpt><trkpt lat="45.6776253" lon="10.8422109"><ele>986.0</ele><time>2026-04-06T09:33:35.003Z</time></trkpt><trkpt lat="45.6775095" lon="10.8422843"><ele>986.0</ele><time>2026-04-06T09:33:36.003Z</time></trkpt><trkpt lat="45.6773774" lon="10.8423681"><ele>986.0</ele><time>2026-04-06T09:33:37.002Z</time></trkpt><trkpt lat="45.6772261" lon="10.8424608"><ele>986.0</ele><time>2026-04-06T09:33:38.002Z</time></trkpt><trkpt lat="45.6770577" lon="10.8425561"><ele>983.75</ele><time>2026-04-06T09:33:39.003Z</time></trkpt><trkpt lat="45.6769016" lon="10.8426319"><ele>981.5</ele><time>2026-04-06T09:33:40.002Z</time></trkpt><trkpt lat="45.6767536" lon="10.8426836"><ele>979.25</ele><time>2026-04-06T09:33:41.003Z</time></trkpt><trkpt lat="45.676627" lon="10.8427201"><ele>977.0</ele><time>2026-04-06T09:33:42.002Z</time></trkpt><trkpt lat="45.6765221" lon="10.8427753"><ele>977.0</ele><time>2026-04-06T09:33:43.003Z</time></trkpt><trkpt lat="45.676409" lon="10.8428675"><ele>977.0</ele><time>2026-04-06T09:33:44.003Z</time></trkpt><trkpt lat="45.6762923" lon="10.8429887"><ele>977.0</ele><time>2026-04-06T09:33:45.003Z</time></trkpt><trkpt lat="45.6761734" lon="10.8431364"><ele>977.0</ele><time>2026-04-06T09:33:46.003Z</time></trkpt><trkpt lat="45.6760614" lon="10.8432982"><ele>983.6666666666667</ele><time>2026-04-06T09:33:47.002Z</time></trkpt><trkpt lat="45.6759564" lon="10.8434644"><ele>990.3333333333333</ele><time>2026-04-06T09:33:48.003Z</time></trkpt><trkpt lat="45.6758556" lon="10.843642"><ele>997.0</ele><time>2026-04-06T09:33:49.002Z</time></trkpt><trkpt lat="45.675775" lon="10.8438179"><ele>997.0</ele><time>2026-04-06T09:33:50.002Z</time></trkpt><trkpt lat="45.6756966" lon="10.8440013"><ele>997.0</ele><time>2026-04-06T09:33:51.002Z</time></trkpt><trkpt lat="45.6756695" lon="10.8441964"><ele>997.0</ele><time>2026-04-06T09:33:52.002Z</time></trkpt><trkpt lat="45.67563" lon="10.8443912"><ele>997.0</ele><time>2026-04-06T09:33:53.002Z</time></trkpt><trkpt lat="45.6755937" lon="10.8445629"><ele>998.6666666666666</ele><time>2026-04-06T09:33:54.003Z</time></trkpt><trkpt lat="45.6755578" lon="10.8446982"><ele>1000.3333333333333</ele><time>2026-04-06T09:33:55.002Z</time></trkpt><trkpt lat="45.6755268" lon="10.8448075"><ele>1002.0</ele><time>2026-04-06T09:33:56.002Z</time></trkpt><trkpt lat="45.6754891" lon="10.8448855"><ele>1003.6666666666667</ele><time>2026-04-06T09:33:57.002Z</time></trkpt><trkpt lat="45.6754359" lon="10.844939"><ele>1005.3333333333334</ele><time>2026-04-06T09:33:58.002Z</time></trkpt><trkpt lat="45.6753546" lon="10.8449785"><ele>1007.0</ele><time>2026-04-06T09:33:59.003Z</time></trkpt><trkpt lat="45.6752538" lon="10.8450095"><ele>1007.0</ele><time>2026-04-06T09:34:00.003Z</time></trkpt><trkpt lat="45.6751253" lon="10.8450133"><ele>1007.0</ele><time>2026-04-06T09:34:01.002Z</time></trkpt><trkpt lat="45.674989" lon="10.8450014"><ele>1007.0</ele><time>2026-04-06T09:34:02.003Z</time></trkpt><trkpt lat="45.6748494" lon="10.8449864"><ele>1007.0</ele><time>2026-04-06T09:34:03.003Z</time></trkpt><trkpt lat="45.6746982" lon="10.8449953"><ele>1007.0</ele><time>2026-04-06T09:34:04.002Z</time></trkpt><trkpt lat="45.6745706" lon="10.8450115"><ele>1007.0</ele><time>2026-04-06T09:34:05.002Z</time></trkpt><trkpt lat="45.674452" lon="10.8450481"><ele>1007.0</ele><time>2026-04-06T09:34:06.003Z</time></trkpt><trkpt lat="45.6743407" lon="10.8451048"><ele>1007.0</ele><time>2026-04-06T09:34:07.002Z</time></trkpt><trkpt lat="45.6742204" lon="10.8451776"><ele>1004.8</ele><time>2026-04-06T09:34:08.003Z</time></trkpt><trkpt lat="45.6741056" lon="10.8452561"><ele>1002.6</ele><time>2026-04-06T09:34:09.002Z</time></trkpt><trkpt lat="45.6740082" lon="10.8453417"><ele>1000.3999999999999</ele><time>2026-04-06T09:34:10.002Z</time></trkpt><trkpt lat="45.6739267" lon="10.8454264"><ele>998.1999999999999</ele><time>2026-04-06T09:34:11.002Z</time></trkpt><trkpt lat="45.6738585" lon="10.8455038"><ele>996.0</ele><time>2026-04-06T09:34:12.002Z</time></trkpt><trkpt lat="45.6737962" lon="10.84559"><ele>996.0</ele><time>2026-04-06T09:34:13.002Z</time></trkpt><trkpt lat="45.6737429" lon="10.8456771"><ele>996.0</ele><time>2026-04-06T09:34:14.002Z</time></trkpt><trkpt lat="45.6736954" lon="10.8457614"><ele>996.0</ele><time>2026-04-06T09:34:15.002Z</time></trkpt><trkpt lat="45.6736478" lon="10.8458402"><ele>996.0</ele><time>2026-04-06T09:34:16.002Z</time></trkpt><trkpt lat="45.6735931" lon="10.8459353"><ele>996.0</ele><time>2026-04-06T09:34:17.002Z</time></trkpt><trkpt lat="45.6735317" lon="10.8460517"><ele>996.0</ele><time>2026-04-06T09:34:18.002Z</time></trkpt><trkpt lat="45.6734623" lon="10.8461829"><ele>996.4</ele><time>2026-04-06T09:34:19.002Z</time></trkpt><trkpt lat="45.6733861" lon="10.8463164"><ele>996.8</ele><time>2026-04-06T09:34:20.002Z</time></trkpt><trkpt lat="45.6733162" lon="10.8464394"><ele>997.1999999999999</ele><time>2026-04-06T09:34:21.002Z</time></trkpt><trkpt lat="45.6732528" lon="10.8465526"><ele>997.5999999999999</ele><time>2026-04-06T09:34:22.003Z</time></trkpt><trkpt lat="45.6731863" lon="10.8466746"><ele>998.0</ele><time>2026-04-06T09:34:23.003Z</time></trkpt><trkpt lat="45.6731146" lon="10.8468103"><ele>998.0</ele><time>2026-04-06T09:34:24.002Z</time></trkpt><trkpt lat="45.673046" lon="10.8469335"><ele>998.0</ele><time>2026-04-06T09:34:25.003Z</time></trkpt><trkpt lat="45.6729727" lon="10.8470607"><ele>998.0</ele><time>2026-04-06T09:34:26.002Z</time></trkpt><trkpt lat="45.6728974" lon="10.8471887"><ele>998.0</ele><time>2026-04-06T09:34:27.002Z</time></trkpt><trkpt lat="45.6728206" lon="10.8473206"><ele>998.5</ele><time>2026-04-06T09:34:28.002Z</time></trkpt><trkpt lat="45.6727421" lon="10.8474615"><ele>999.0</ele><time>2026-04-06T09:34:29.002Z</time></trkpt><trkpt lat="45.6726632" lon="10.847608"><ele>999.5</ele><time>2026-04-06T09:34:30.003Z</time></trkpt><trkpt lat="45.6725823" lon="10.8477577"><ele>1000.0</ele><time>2026-04-06T09:34:31.003Z</time></trkpt><trkpt lat="45.6725014" lon="10.8479112"><ele>1000.0</ele><time>2026-04-06T09:34:32.002Z</time></trkpt><trkpt lat="45.6724233" lon="10.8480495"><ele>1000.0</ele><time>2026-04-06T09:34:33.003Z</time></trkpt><trkpt lat="45.6723419" lon="10.8481861"><ele>1000.0</ele><time>2026-04-06T09:34:34.002Z</time></trkpt><trkpt lat="45.6722714" lon="10.8483124"><ele>1000.0</ele><time>2026-04-06T09:34:35.002Z</time></trkpt><trkpt lat="45.6722069" lon="10.8484282"><ele>998.1666666666666</ele><time>2026-04-06T09:34:36.003Z</time></trkpt><trkpt lat="45.6721517" lon="10.8485342"><ele>996.3333333333333</ele><time>2026-04-06T09:34:37.003Z</time></trkpt><trkpt lat="45.6721009" lon="10.8486336"><ele>994.5</ele><time>2026-04-06T09:34:38.002Z</time></trkpt><trkpt lat="45.6720489" lon="10.8487217"><ele>992.6666666666667</ele><time>2026-04-06T09:34:39.003Z</time></trkpt><trkpt lat="45.6719869" lon="10.8487915"><ele>990.8333333333334</ele><time>2026-04-06T09:34:40.003Z</time></trkpt><trkpt lat="45.6719227" lon="10.8488315"><ele>989.0</ele><time>2026-04-06T09:34:41.002Z</time></trkpt><trkpt lat="45.6718494" lon="10.8488455"><ele>989.0</ele><time>2026-04-06T09:34:42.002Z</time></trkpt><trkpt lat="45.6717646" lon="10.8488184"><ele>989.0</ele><time>2026-04-06T09:34:43.002Z</time></trkpt><trkpt lat="45.6716576" lon="10.8487552"><ele>989.0</ele><time>2026-04-06T09:34:44.003Z</time></trkpt><trkpt lat="45.6715355" lon="10.8486752"><ele>989.0</ele><time>2026-04-06T09:34:45.002Z</time></trkpt><trkpt lat="45.6714046" lon="10.848584"><ele>989.0</ele><time>2026-04-06T09:34:46.003Z</time></trkpt><trkpt lat="45.6712797" lon="10.8484966"><ele>989.0</ele><time>2026-04-06T09:34:47.002Z</time></trkpt><trkpt lat="45.6711592" lon="10.8484184"><ele>989.0</ele><time>2026-04-06T09:34:48.002Z</time></trkpt><trkpt lat="45.6710433" lon="10.8483681"><ele>989.0</ele><time>2026-04-06T09:34:49.003Z</time></trkpt><trkpt lat="45.6709294" lon="10.848356"><ele>987.5</ele><time>2026-04-06T09:34:50.003Z</time></trkpt><trkpt lat="45.6708205" lon="10.848348"><ele>986.0</ele><time>2026-04-06T09:34:51.002Z</time></trkpt><trkpt lat="45.6707063" lon="10.8484405"><ele>984.5</ele><time>2026-04-06T09:34:52.002Z</time></trkpt><trkpt lat="45.6705866" lon="10.8485688"><ele>983.0</ele><time>2026-04-06T09:34:53.002Z</time></trkpt><trkpt lat="45.6704632" lon="10.8487034"><ele>983.0</ele><time>2026-04-06T09:34:54.003Z</time></trkpt><trkpt lat="45.6703463" lon="10.8488077"><ele>983.0</ele><time>2026-04-06T09:34:55.003Z</time></trkpt><trkpt lat="45.6702062" lon="10.8488882"><ele>983.0</ele><time>2026-04-06T09:34:56.003Z</time></trkpt><trkpt lat="45.6700558" lon="10.8489585"><ele>983.0</ele><time>2026-04-06T09:34:57.002Z</time></trkpt><trkpt lat="45.6698895" lon="10.8490194"><ele>987.6666666666667</ele><time>2026-04-06T09:34:58.003Z</time></trkpt><trkpt lat="45.6697304" lon="10.8490752"><ele>992.3333333333333</ele><time>2026-04-06T09:34:59.002Z</time></trkpt><trkpt lat="45.6695531" lon="10.8491317"><ele>997.0</ele><time>2026-04-06T09:35:00.002Z</time></trkpt><trkpt lat="45.6693566" lon="10.84919"><ele>1000.6666666666666</ele><time>2026-04-06T09:35:01.002Z</time></trkpt><trkpt lat="45.6691582" lon="10.8492508"><ele>1004.3333333333333</ele><time>2026-04-06T09:35:02.002Z</time></trkpt><trkpt lat="45.6689802" lon="10.8493276"><ele>1008.0</ele><time>2026-04-06T09:35:03.002Z</time></trkpt><trkpt lat="45.6688151" lon="10.8493949"><ele>1003.0</ele><time>2026-04-06T09:35:04.002Z</time></trkpt><trkpt lat="45.6686449" lon="10.8494502"><ele>998.0</ele><time>2026-04-06T09:35:05.003Z</time></trkpt><trkpt lat="45.668489" lon="10.8495025"><ele>993.0</ele><time>2026-04-06T09:35:06.002Z</time></trkpt><trkpt lat="45.6683461" lon="10.8495578"><ele>993.0</ele><time>2026-04-06T09:35:07.003Z</time></trkpt><trkpt lat="45.6682126" lon="10.8496114"><ele>993.0</ele><time>2026-04-06T09:35:08.003Z</time></trkpt><trkpt lat="45.6680746" lon="10.8496482"><ele>993.0</ele><time>2026-04-06T09:35:09.002Z</time></trkpt><trkpt lat="45.6679361" lon="10.8496597"><ele>993.0</ele><time>2026-04-06T09:35:10.003Z</time></trkpt><trkpt lat="45.6678009" lon="10.8496543"><ele>995.25</ele><time>2026-04-06T09:35:11.003Z</time></trkpt><trkpt lat="45.6676654" lon="10.8496277"><ele>997.5</ele><time>2026-04-06T09:35:12.002Z</time></trkpt><trkpt lat="45.6675229" lon="10.8495781"><ele>999.75</ele><time>2026-04-06T09:35:13.002Z</time></trkpt><trkpt lat="45.6673686" lon="10.8495014"><ele>1002.0</ele><time>2026-04-06T09:35:14.003Z</time></trkpt><trkpt lat="45.6672256" lon="10.8494229"><ele>1002.0</ele><time>2026-04-06T09:35:15.003Z</time></trkpt><trkpt lat="45.6670989" lon="10.8493568"><ele>1002.0</ele><time>2026-04-06T09:35:16.003Z</time></trkpt><trkpt lat="45.6669886" lon="10.849312"><ele>1002.0</ele><time>2026-04-06T09:35:17.003Z</time></trkpt><trkpt lat="45.6668751" lon="10.8492767"><ele>1002.0</ele><time>2026-04-06T09:35:18.003Z</time></trkpt><trkpt lat="45.6667588" lon="10.8492587"><ele>1003.2</ele><time>2026-04-06T09:35:19.002Z</time></trkpt><trkpt lat="45.6666537" lon="10.8492628"><ele>1004.4000000000001</ele><time>2026-04-06T09:35:20.002Z</time></trkpt><trkpt lat="45.6665545" lon="10.8492761"><ele>1005.5999999999999</ele><time>2026-04-06T09:35:21.002Z</time></trkpt><trkpt lat="45.6664563" lon="10.8492895"><ele>1006.8</ele><time>2026-04-06T09:35:22.002Z</time></trkpt><trkpt lat="45.6663407" lon="10.8492824"><ele>1008.0</ele><time>2026-04-06T09:35:23.003Z</time></trkpt><trkpt lat="45.6662026" lon="10.849253"><ele>1007.5</ele><time>2026-04-06T09:35:24.003Z</time></trkpt><trkpt lat="45.6660519" lon="10.8492047"><ele>1007.0</ele><time>2026-04-06T09:35:25.003Z</time></trkpt><trkpt lat="45.6659138" lon="10.8491768"><ele>1006.5</ele><time>2026-04-06T09:35:26.003Z</time></trkpt><trkpt lat="45.6657746" lon="10.8491836"><ele>1006.0</ele><time>2026-04-06T09:35:27.002Z</time></trkpt><trkpt lat="45.6656192" lon="10.8492194"><ele>1006.0</ele><time>2026-04-06T09:35:28.002Z</time></trkpt><trkpt lat="45.665463" lon="10.8492636"><ele>1006.0</ele><time>2026-04-06T09:35:29.003Z</time></trkpt><trkpt lat="45.6653143" lon="10.8492875"><ele>1006.0</ele><time>2026-04-06T09:35:30.003Z</time></trkpt><trkpt lat="45.665154" lon="10.8492793"><ele>1004.6666666666666</ele><time>2026-04-06T09:35:31.003Z</time></trkpt><trkpt lat="45.6649863" lon="10.849231"><ele>1003.3333333333333</ele><time>2026-04-06T09:35:32.003Z</time></trkpt><trkpt lat="45.6648178" lon="10.8491729"><ele>1002.0</ele><time>2026-04-06T09:35:33.003Z</time></trkpt><trkpt lat="45.6646684" lon="10.8491413"><ele>1002.0</ele><time>2026-04-06T09:35:34.002Z</time></trkpt><trkpt lat="45.6645159" lon="10.8491482"><ele>1002.0</ele><time>2026-04-06T09:35:35.002Z</time></trkpt><trkpt lat="45.6643339" lon="10.8491831"><ele>1002.0</ele><time>2026-04-06T09:35:36.003Z</time></trkpt><trkpt lat="45.6641519" lon="10.8492291"><ele>1001.6666666666667</ele><time>2026-04-06T09:35:37.002Z</time></trkpt><trkpt lat="45.663968" lon="10.8492798"><ele>1001.3333333333334</ele><time>2026-04-06T09:35:38.003Z</time></trkpt><trkpt lat="45.6638081" lon="10.849333"><ele>1001.0</ele><time>2026-04-06T09:35:39.003Z</time></trkpt><trkpt lat="45.6636728" lon="10.8493828"><ele>1003.0</ele><time>2026-04-06T09:35:40.003Z</time></trkpt><trkpt lat="45.6635436" lon="10.8494198"><ele>1005.0</ele><time>2026-04-06T09:35:41.003Z</time></trkpt><trkpt lat="45.6634248" lon="10.849423"><ele>1007.0</ele><time>2026-04-06T09:35:42.002Z</time></trkpt><trkpt lat="45.6633242" lon="10.8493813"><ele>1009.0</ele><time>2026-04-06T09:35:43.003Z</time></trkpt><trkpt lat="45.663225" lon="10.8493134"><ele>1006.0</ele><time>2026-04-06T09:35:44.002Z</time></trkpt><trkpt lat="45.6631137" lon="10.8492531"><ele>1003.0</ele><time>2026-04-06T09:35:45.002Z</time></trkpt><trkpt lat="45.6629812" lon="10.8492288"><ele>1000.0</ele><time>2026-04-06T09:35:46.002Z</time></trkpt><trkpt lat="45.662827" lon="10.8492216"><ele>997.0</ele><time>2026-04-06T09:35:47.003Z</time></trkpt><trkpt lat="45.6626818" lon="10.8492294"><ele>996.0</ele><time>2026-04-06T09:35:48.002Z</time></trkpt><trkpt lat="45.6625145" lon="10.8492704"><ele>995.0</ele><time>2026-04-06T09:35:49.002Z</time></trkpt><trkpt lat="45.6623408" lon="10.8493282"><ele>994.0</ele><time>2026-04-06T09:35:50.003Z</time></trkpt><trkpt lat="45.6621809" lon="10.8493637"><ele>996.25</ele><time>2026-04-06T09:35:51.003Z</time></trkpt><trkpt lat="45.662028" lon="10.8493823"><ele>998.5</ele><time>2026-04-06T09:35:52.002Z</time></trkpt><trkpt lat="45.6618845" lon="10.8494009"><ele>1000.75</ele><time>2026-04-06T09:35:53.003Z</time></trkpt><trkpt lat="45.6617495" lon="10.8494256"><ele>1003.0</ele><time>2026-04-06T09:35:54.002Z</time></trkpt><trkpt lat="45.661624" lon="10.8494645"><ele>1003.0</ele><time>2026-04-06T09:35:55.002Z</time></trkpt><trkpt lat="45.661514" lon="10.8495294"><ele>1003.0</ele><time>2026-04-06T09:35:56.003Z</time></trkpt><trkpt lat="45.6614033" lon="10.8496405"><ele>1003.0</ele><time>2026-04-06T09:35:57.003Z</time></trkpt><trkpt lat="45.661288" lon="10.8497749"><ele>1003.0</ele><time>2026-04-06T09:35:58.002Z</time></trkpt><trkpt lat="45.6611762" lon="10.8498762"><ele>1000.3333333333333</ele><time>2026-04-06T09:35:59.003Z</time></trkpt><trkpt lat="45.6610523" lon="10.8499462"><ele>997.6666666666667</ele><time>2026-04-06T09:36:00.003Z</time></trkpt><trkpt lat="45.6609119" lon="10.8499858"><ele>995.0</ele><time>2026-04-06T09:36:01.002Z</time></trkpt><trkpt lat="45.6607354" lon="10.8499961"><ele>995.0</ele><time>2026-04-06T09:36:02.002Z</time></trkpt><trkpt lat="45.6605618" lon="10.8500142"><ele>995.0</ele><time>2026-04-06T09:36:03.003Z</time></trkpt><trkpt lat="45.6604257" lon="10.8500265"><ele>995.0</ele><time>2026-04-06T09:36:04.002Z</time></trkpt><trkpt lat="45.6603043" lon="10.8500269"><ele>995.0</ele><time>2026-04-06T09:36:05.003Z</time></trkpt><trkpt lat="45.6601904" lon="10.8499952"><ele>995.75</ele><time>2026-04-06T09:36:06.003Z</time></trkpt><trkpt lat="45.6600866" lon="10.8499216"><ele>996.5</ele><time>2026-04-06T09:36:07.003Z</time></trkpt><trkpt lat="45.6599915" lon="10.8497865"><ele>997.25</ele><time>2026-04-06T09:36:08.002Z</time></trkpt><trkpt lat="45.6598968" lon="10.8496003"><ele>998.0</ele><time>2026-04-06T09:36:09.002Z</time></trkpt><trkpt lat="45.6598161" lon="10.8494045"><ele>995.0</ele><time>2026-04-06T09:36:10.002Z</time></trkpt><trkpt lat="45.6597468" lon="10.8492242"><ele>992.0</ele><time>2026-04-06T09:36:11.003Z</time></trkpt><trkpt lat="45.6597077" lon="10.8490503"><ele>989.0</ele><time>2026-04-06T09:36:12.002Z</time></trkpt><trkpt lat="45.6596922" lon="10.8488785"><ele>986.0</ele><time>2026-04-06T09:36:13.003Z</time></trkpt><trkpt lat="45.6597072" lon="10.8487249"><ele>986.0</ele><time>2026-04-06T09:36:14.003Z</time></trkpt><trkpt lat="45.6597265" lon="10.8485859"><ele>985.9999999999999</ele><time>2026-04-06T09:36:15.003Z</time></trkpt><trkpt lat="45.6597248" lon="10.8484647"><ele>985.9999999999999</ele><time>2026-04-06T09:36:16.002Z</time></trkpt><trkpt lat="45.6597021" lon="10.8483426"><ele>986.0</ele><time>2026-04-06T09:36:17.003Z</time></trkpt><trkpt lat="45.6596535" lon="10.8482441"><ele>986.0</ele><time>2026-04-06T09:36:18.002Z</time></trkpt><trkpt lat="45.6595735" lon="10.8481453"><ele>987.6666666666667</ele><time>2026-04-06T09:36:19.002Z</time></trkpt><trkpt lat="45.6594629" lon="10.8480519"><ele>989.3333333333333</ele><time>2026-04-06T09:36:20.002Z</time></trkpt><trkpt lat="45.6593126" lon="10.8479603"><ele>991.0</ele><time>2026-04-06T09:36:21.003Z</time></trkpt><trkpt lat="45.6591496" lon="10.8478775"><ele>991.0</ele><time>2026-04-06T09:36:22.002Z</time></trkpt><trkpt lat="45.6589746" lon="10.8477892"><ele>991.0</ele><time>2026-04-06T09:36:23.002Z</time></trkpt><trkpt lat="45.658807" lon="10.8476942"><ele>991.0</ele><time>2026-04-06T09:36:24.002Z</time></trkpt><trkpt lat="45.6586409" lon="10.847591"><ele>987.0</ele><time>2026-04-06T09:36:25.002Z</time></trkpt><trkpt lat="45.6584748" lon="10.8474871"><ele>983.0</ele><time>2026-04-06T09:36:26.003Z</time></trkpt><trkpt lat="45.6583068" lon="10.8473807"><ele>979.0</ele><time>2026-04-06T09:36:27.003Z</time></trkpt><trkpt lat="45.6581359" lon="10.8472833"><ele>979.0</ele><time>2026-04-06T09:36:28.002Z</time></trkpt><trkpt lat="45.6579662" lon="10.8471933"><ele>979.0</ele><time>2026-04-06T09:36:29.003Z</time></trkpt><trkpt lat="45.6578002" lon="10.8471104"><ele>979.0</ele><time>2026-04-06T09:36:30.002Z</time></trkpt><trkpt lat="45.6576395" lon="10.8470296"><ele>979.6666666666666</ele><time>2026-04-06T09:36:31.002Z</time></trkpt><trkpt lat="45.6574834" lon="10.8469531"><ele>980.3333333333333</ele><time>2026-04-06T09:36:32.002Z</time></trkpt><trkpt lat="45.6573294" lon="10.8468865"><ele>981.0</ele><time>2026-04-06T09:36:33.002Z</time></trkpt><trkpt lat="45.6571657" lon="10.8468243"><ele>977.0</ele><time>2026-04-06T09:36:34.003Z</time></trkpt><trkpt lat="45.6569958" lon="10.8467598"><ele>973.0</ele><time>2026-04-06T09:36:35.002Z</time></trkpt><trkpt lat="45.656826" lon="10.8466979"><ele>969.0</ele><time>2026-04-06T09:36:36.003Z</time></trkpt><trkpt lat="45.6566666" lon="10.8466424"><ele>969.0</ele><time>2026-04-06T09:36:37.002Z</time></trkpt><trkpt lat="45.6565154" lon="10.8465796"><ele>969.0</ele><time>2026-04-06T09:36:38.003Z</time></trkpt><trkpt lat="45.6563726" lon="10.8464984"><ele>969.0</ele><time>2026-04-06T09:36:39.002Z</time></trkpt><trkpt lat="45.6562306" lon="10.8464052"><ele>969.0</ele><time>2026-04-06T09:36:40.002Z</time></trkpt><trkpt lat="45.6560871" lon="10.8462965"><ele>969.0</ele><time>2026-04-06T09:36:41.002Z</time></trkpt><trkpt lat="45.6559402" lon="10.8461833"><ele>969.0</ele><time>2026-04-06T09:36:42.002Z</time></trkpt><trkpt lat="45.6557985" lon="10.8460775"><ele>969.0</ele><time>2026-04-06T09:36:43.003Z</time></trkpt><trkpt lat="45.6556699" lon="10.8459847"><ele>969.0</ele><time>2026-04-06T09:36:44.003Z</time></trkpt><trkpt lat="45.6555429" lon="10.8459157"><ele>969.0</ele><time>2026-04-06T09:36:45.003Z</time></trkpt><trkpt lat="45.6554131" lon="10.8458655"><ele>969.0</ele><time>2026-04-06T09:36:46.002Z</time></trkpt><trkpt lat="45.6552786" lon="10.8458269"><ele>965.5</ele><time>2026-04-06T09:36:47.002Z</time></trkpt><trkpt lat="45.6551471" lon="10.8458007"><ele>962.0</ele><time>2026-04-06T09:36:48.002Z</time></trkpt><trkpt lat="45.6550119" lon="10.8457759"><ele>958.5</ele><time>2026-04-06T09:36:49.003Z</time></trkpt><trkpt lat="45.6548967" lon="10.8457473"><ele>955.0</ele><time>2026-04-06T09:36:50.003Z</time></trkpt><trkpt lat="45.6547933" lon="10.8456912"><ele>955.0</ele><time>2026-04-06T09:36:51.002Z</time></trkpt><trkpt lat="45.6546973" lon="10.8455923"><ele>955.0</ele><time>2026-04-06T09:36:52.003Z</time></trkpt><trkpt lat="45.6545977" lon="10.8454771"><ele>955.0</ele><time>2026-04-06T09:36:53.003Z</time></trkpt><trkpt lat="45.6544678" lon="10.8453668"><ele>955.0</ele><time>2026-04-06T09:36:54.002Z</time></trkpt><trkpt lat="45.6543027" lon="10.8452592"><ele>955.0</ele><time>2026-04-06T09:36:55.003Z</time></trkpt><trkpt lat="45.6541357" lon="10.845158"><ele>955.0</ele><time>2026-04-06T09:36:56.003Z</time></trkpt><trkpt lat="45.6539555" lon="10.8450464"><ele>955.0</ele><time>2026-04-06T09:36:57.003Z</time></trkpt><trkpt lat="45.6537906" lon="10.8449447"><ele>951.6666666666666</ele><time>2026-04-06T09:36:58.003Z</time></trkpt><trkpt lat="45.6536383" lon="10.8448506"><ele>948.3333333333333</ele><time>2026-04-06T09:36:59.003Z</time></trkpt><trkpt lat="45.6534983" lon="10.8447598"><ele>945.0</ele><time>2026-04-06T09:37:00.002Z</time></trkpt><trkpt lat="45.653366" lon="10.8446503"><ele>943.5</ele><time>2026-04-06T09:37:01.002Z</time></trkpt><trkpt lat="45.653236" lon="10.844514"><ele>942.0</ele><time>2026-04-06T09:37:02.002Z</time></trkpt><trkpt lat="45.6531188" lon="10.8443782"><ele>940.5</ele><time>2026-04-06T09:37:03.003Z</time></trkpt><trkpt lat="45.6530293" lon="10.8442655"><ele>939.0</ele><time>2026-04-06T09:37:04.003Z</time></trkpt><trkpt lat="45.6529558" lon="10.8441508"><ele>937.8000000000001</ele><time>2026-04-06T09:37:05.002Z</time></trkpt><trkpt lat="45.652898" lon="10.8440357"><ele>936.6000000000001</ele><time>2026-04-06T09:37:06.002Z</time></trkpt><trkpt lat="45.6528639" lon="10.8439313"><ele>935.4</ele><time>2026-04-06T09:37:07.003Z</time></trkpt><trkpt lat="45.6528385" lon="10.8438405"><ele>934.2</ele><time>2026-04-06T09:37:08.003Z</time></trkpt><trkpt lat="45.6527555" lon="10.8437332"><ele>933.0</ele><time>2026-04-06T09:37:10.002Z</time></trkpt><trkpt lat="45.6526401" lon="10.8437813"><ele>931.5999999999999</ele><time>2026-04-06T09:37:12.003Z</time></trkpt><trkpt lat="45.6526026" lon="10.8438665"><ele>930.1999999999999</ele><time>2026-04-06T09:37:13.003Z</time></trkpt><trkpt lat="45.6525898" lon="10.8439787"><ele>928.8</ele><time>2026-04-06T09:37:14.003Z</time></trkpt><trkpt lat="45.6525985" lon="10.844128"><ele>927.4</ele><time>2026-04-06T09:37:15.003Z</time></trkpt><trkpt lat="45.6526181" lon="10.8443104"><ele>926.0</ele><time>2026-04-06T09:37:16.002Z</time></trkpt><trkpt lat="45.6526509" lon="10.8444816"><ele>923.3333333333334</ele><time>2026-04-06T09:37:17.002Z</time></trkpt><trkpt lat="45.6527145" lon="10.8446671"><ele>920.6666666666667</ele><time>2026-04-06T09:37:18.002Z</time></trkpt><trkpt lat="45.6528052" lon="10.844871"><ele>918.0</ele><time>2026-04-06T09:37:19.002Z</time></trkpt><trkpt lat="45.6529001" lon="10.8450787"><ele>923.6666666666667</ele><time>2026-04-06T09:37:20.002Z</time></trkpt><trkpt lat="45.6529832" lon="10.8452823"><ele>929.3333333333334</ele><time>2026-04-06T09:37:21.002Z</time></trkpt><trkpt lat="45.6530604" lon="10.8454953"><ele>935.0</ele><time>2026-04-06T09:37:22.002Z</time></trkpt><trkpt lat="45.6531358" lon="10.8457271"><ele>933.3333333333334</ele><time>2026-04-06T09:37:23.002Z</time></trkpt><trkpt lat="45.6532088" lon="10.8459751"><ele>931.6666666666667</ele><time>2026-04-06T09:37:24.003Z</time></trkpt><trkpt lat="45.6532751" lon="10.8462089"><ele>930.0</ele><time>2026-04-06T09:37:25.002Z</time></trkpt><trkpt lat="45.6533336" lon="10.8464222"><ele>930.0</ele><time>2026-04-06T09:37:26.003Z</time></trkpt><trkpt lat="45.653385" lon="10.846604"><ele>930.0</ele><time>2026-04-06T09:37:27.002Z</time></trkpt><trkpt lat="45.6534313" lon="10.846758"><ele>930.0</ele><time>2026-04-06T09:37:28.003Z</time></trkpt><trkpt lat="45.6534687" lon="10.8469032"><ele>930.0</ele><time>2026-04-06T09:37:29.003Z</time></trkpt><trkpt lat="45.6534862" lon="10.8470288"><ele>931.2</ele><time>2026-04-06T09:37:30.002Z</time></trkpt><trkpt lat="45.6534788" lon="10.8471432"><ele>932.4</ele><time>2026-04-06T09:37:31.003Z</time></trkpt><trkpt lat="45.6534445" lon="10.8472411"><ele>933.5999999999999</ele><time>2026-04-06T09:37:32.002Z</time></trkpt><trkpt lat="45.6533825" lon="10.8473239"><ele>934.8</ele><time>2026-04-06T09:37:33.003Z</time></trkpt><trkpt lat="45.6532964" lon="10.8473941"><ele>936.0</ele><time>2026-04-06T09:37:34.003Z</time></trkpt><trkpt lat="45.653187" lon="10.8474559"><ele>936.0</ele><time>2026-04-06T09:37:35.002Z</time></trkpt><trkpt lat="45.6530677" lon="10.8474887"><ele>936.0</ele><time>2026-04-06T09:37:36.003Z</time></trkpt><trkpt lat="45.6529537" lon="10.8474855"><ele>936.0</ele><time>2026-04-06T09:37:37.002Z</time></trkpt><trkpt lat="45.6528423" lon="10.8474486"><ele>936.0</ele><time>2026-04-06T09:37:38.003Z</time></trkpt><trkpt lat="45.6527371" lon="10.8473773"><ele>933.6666666666666</ele><time>2026-04-06T09:37:39.002Z</time></trkpt><trkpt lat="45.6526472" lon="10.847303"><ele>931.3333333333333</ele><time>2026-04-06T09:37:40.002Z</time></trkpt><trkpt lat="45.6525716" lon="10.8472462"><ele>929.0</ele><time>2026-04-06T09:37:41.003Z</time></trkpt><trkpt lat="45.6524986" lon="10.8472159"><ele>926.6666666666666</ele><time>2026-04-06T09:37:42.003Z</time></trkpt><trkpt lat="45.6524326" lon="10.8472308"><ele>924.3333333333333</ele><time>2026-04-06T09:37:43.002Z</time></trkpt><trkpt lat="45.6523806" lon="10.8472863"><ele>922.0</ele><time>2026-04-06T09:37:44.003Z</time></trkpt><trkpt lat="45.6523469" lon="10.8473764"><ele>921.9999999999999</ele><time>2026-04-06T09:37:45.003Z</time></trkpt><trkpt lat="45.6523373" lon="10.8474899"><ele>922.0</ele><time>2026-04-06T09:37:46.002Z</time></trkpt><trkpt lat="45.6523561" lon="10.8476193"><ele>922.0</ele><time>2026-04-06T09:37:47.003Z</time></trkpt><trkpt lat="45.6523841" lon="10.8477505"><ele>922.0</ele><time>2026-04-06T09:37:48.003Z</time></trkpt><trkpt lat="45.6524139" lon="10.8478659"><ele>921.9999999999999</ele><time>2026-04-06T09:37:49.002Z</time></trkpt><trkpt lat="45.65242" lon="10.847966"><ele>922.0</ele><time>2026-04-06T09:37:50.003Z</time></trkpt><trkpt lat="45.6523571" lon="10.8481176"><ele>922.4000000000001</ele><time>2026-04-06T09:37:52.003Z</time></trkpt><trkpt lat="45.6522899" lon="10.848158"><ele>922.8000000000001</ele><time>2026-04-06T09:37:53.003Z</time></trkpt><trkpt lat="45.6522042" lon="10.8481419"><ele>923.2</ele><time>2026-04-06T09:37:54.003Z</time></trkpt><trkpt lat="45.6521003" lon="10.8480858"><ele>923.6</ele><time>2026-04-06T09:37:55.002Z</time></trkpt><trkpt lat="45.6519866" lon="10.8480075"><ele>924.0</ele><time>2026-04-06T09:37:56.003Z</time></trkpt><trkpt lat="45.6518647" lon="10.8479191"><ele>924.0</ele><time>2026-04-06T09:37:57.003Z</time></trkpt><trkpt lat="45.6517421" lon="10.8478358"><ele>924.0</ele><time>2026-04-06T09:37:58.002Z</time></trkpt><trkpt lat="45.651626" lon="10.8477561"><ele>924.0</ele><time>2026-04-06T09:37:59.003Z</time></trkpt><trkpt lat="45.6515212" lon="10.8476729"><ele>924.0</ele><time>2026-04-06T09:38:00.003Z</time></trkpt><trkpt lat="45.6514175" lon="10.8475969"><ele>924.0</ele><time>2026-04-06T09:38:01.002Z</time></trkpt><trkpt lat="45.6513371" lon="10.8475552"><ele>924.0</ele><time>2026-04-06T09:38:02.002Z</time></trkpt><trkpt lat="45.6512589" lon="10.847524"><ele>924.0</ele><time>2026-04-06T09:38:03.002Z</time></trkpt><trkpt lat="45.6511843" lon="10.8475719"><ele>924.0</ele><time>2026-04-06T09:38:04.002Z</time></trkpt><trkpt lat="45.6511355" lon="10.8476304"><ele>924.0</ele><time>2026-04-06T09:38:05.002Z</time></trkpt><trkpt lat="45.6510691" lon="10.8476874"><ele>924.0</ele><time>2026-04-06T09:38:06.003Z</time></trkpt><trkpt lat="45.6510005" lon="10.8478382"><ele>919.5</ele><time>2026-04-06T09:38:07.003Z</time></trkpt><trkpt lat="45.6509012" lon="10.8479602"><ele>915.0</ele><time>2026-04-06T09:38:08.002Z</time></trkpt><trkpt lat="45.6507883" lon="10.8480918"><ele>910.5</ele><time>2026-04-06T09:38:09.002Z</time></trkpt><trkpt lat="45.6506566" lon="10.8482146"><ele>906.0</ele><time>2026-04-06T09:38:10.002Z</time></trkpt><trkpt lat="45.6505571" lon="10.8483279"><ele>906.0</ele><time>2026-04-06T09:38:11.003Z</time></trkpt><trkpt lat="45.6504721" lon="10.8484358"><ele>906.0</ele><time>2026-04-06T09:38:12.002Z</time></trkpt><trkpt lat="45.6503961" lon="10.8485653"><ele>906.0</ele><time>2026-04-06T09:38:13.002Z</time></trkpt><trkpt lat="45.6503375" lon="10.8487397"><ele>906.0</ele><time>2026-04-06T09:38:14.003Z</time></trkpt><trkpt lat="45.6502765" lon="10.8489108"><ele>904.1999999999999</ele><time>2026-04-06T09:38:15.003Z</time></trkpt><trkpt lat="45.6502254" lon="10.849065"><ele>902.3999999999999</ele><time>2026-04-06T09:38:16.002Z</time></trkpt><trkpt lat="45.65017" lon="10.8491915"><ele>900.6</ele><time>2026-04-06T09:38:17.002Z</time></trkpt><trkpt lat="45.6501159" lon="10.8493111"><ele>898.8</ele><time>2026-04-06T09:38:18.003Z</time></trkpt><trkpt lat="45.6500421" lon="10.849371"><ele>897.0</ele><time>2026-04-06T09:38:19.002Z</time></trkpt><trkpt lat="45.6499668" lon="10.8493735"><ele>897.0</ele><time>2026-04-06T09:38:20.002Z</time></trkpt><trkpt lat="45.6498924" lon="10.8493642"><ele>897.0</ele><time>2026-04-06T09:38:21.003Z</time></trkpt><trkpt lat="45.6498186" lon="10.8493346"><ele>897.0</ele><time>2026-04-06T09:38:22.003Z</time></trkpt><trkpt lat="45.6497544" lon="10.8493084"><ele>897.0</ele><time>2026-04-06T09:38:23.002Z</time></trkpt><trkpt lat="45.6496818" lon="10.8493132"><ele>897.0</ele><time>2026-04-06T09:38:24.002Z</time></trkpt><trkpt lat="45.6495947" lon="10.8493466"><ele>897.0</ele><time>2026-04-06T09:38:25.002Z</time></trkpt><trkpt lat="45.6494973" lon="10.8493962"><ele>893.4000000000001</ele><time>2026-04-06T09:38:26.003Z</time></trkpt><trkpt lat="45.6494055" lon="10.8494548"><ele>889.8000000000001</ele><time>2026-04-06T09:38:27.003Z</time></trkpt><trkpt lat="45.6493266" lon="10.8495334"><ele>886.2</ele><time>2026-04-06T09:38:28.002Z</time></trkpt><trkpt lat="45.649261" lon="10.8496309"><ele>882.6</ele><time>2026-04-06T09:38:29.002Z</time></trkpt><trkpt lat="45.6492008" lon="10.8497415"><ele>879.0</ele><time>2026-04-06T09:38:30.002Z</time></trkpt><trkpt lat="45.6491468" lon="10.8498619"><ele>879.0</ele><time>2026-04-06T09:38:31.003Z</time></trkpt><trkpt lat="45.6490826" lon="10.8499827"><ele>879.0000000000001</ele><time>2026-04-06T09:38:32.003Z</time></trkpt><trkpt lat="45.6490105" lon="10.8501084"><ele>879.0000000000001</ele><time>2026-04-06T09:38:33.002Z</time></trkpt><trkpt lat="45.6489431" lon="10.8502253"><ele>879.0</ele><time>2026-04-06T09:38:34.003Z</time></trkpt><trkpt lat="45.6488874" lon="10.8503223"><ele>879.0</ele><time>2026-04-06T09:38:35.002Z</time></trkpt><trkpt lat="45.6488273" lon="10.8504127"><ele>880.2857142857143</ele><time>2026-04-06T09:38:36.002Z</time></trkpt><trkpt lat="45.6487641" lon="10.8504746"><ele>881.5714285714287</ele><time>2026-04-06T09:38:37.003Z</time></trkpt><trkpt lat="45.6486979" lon="10.8505055"><ele>882.8571428571429</ele><time>2026-04-06T09:38:38.002Z</time></trkpt><trkpt lat="45.6486287" lon="10.8505058"><ele>884.1428571428571</ele><time>2026-04-06T09:38:39.002Z</time></trkpt><trkpt lat="45.6485604" lon="10.8504973"><ele>885.4285714285714</ele><time>2026-04-06T09:38:40.003Z</time></trkpt><trkpt lat="45.6484975" lon="10.8505031"><ele>886.7142857142857</ele><time>2026-04-06T09:38:41.003Z</time></trkpt><trkpt lat="45.6484364" lon="10.8505293"><ele>888.0</ele><time>2026-04-06T09:38:42.003Z</time></trkpt><trkpt lat="45.6483729" lon="10.850596"><ele>885.3333333333334</ele><time>2026-04-06T09:38:43.002Z</time></trkpt><trkpt lat="45.6483239" lon="10.850675"><ele>882.6666666666667</ele><time>2026-04-06T09:38:44.003Z</time></trkpt><trkpt lat="45.6482961" lon="10.8507661"><ele>880.0</ele><time>2026-04-06T09:38:45.003Z</time></trkpt><trkpt lat="45.6482764" lon="10.8508678"><ele>877.3333333333334</ele><time>2026-04-06T09:38:46.002Z</time></trkpt><trkpt lat="45.6482615" lon="10.8509745"><ele>874.6666666666667</ele><time>2026-04-06T09:38:47.003Z</time></trkpt><trkpt lat="45.6482341" lon="10.8510688"><ele>872.0</ele><time>2026-04-06T09:38:48.002Z</time></trkpt><trkpt lat="45.6481835" lon="10.8511727"><ele>872.0</ele><time>2026-04-06T09:38:49.003Z</time></trkpt><trkpt lat="45.648112" lon="10.8512727"><ele>872.0</ele><time>2026-04-06T09:38:50.003Z</time></trkpt><trkpt lat="45.648027" lon="10.8513712"><ele>872.0</ele><time>2026-04-06T09:38:51.003Z</time></trkpt><trkpt lat="45.6479348" lon="10.8514683"><ele>872.0</ele><time>2026-04-06T09:38:52.002Z</time></trkpt><trkpt lat="45.6478429" lon="10.8515549"><ele>872.0</ele><time>2026-04-06T09:38:53.003Z</time></trkpt><trkpt lat="45.647744" lon="10.8516331"><ele>870.0</ele><time>2026-04-06T09:38:54.002Z</time></trkpt><trkpt lat="45.6476373" lon="10.8517069"><ele>868.0</ele><time>2026-04-06T09:38:55.002Z</time></trkpt><trkpt lat="45.647519" lon="10.8517781"><ele>866.0</ele><time>2026-04-06T09:38:56.003Z</time></trkpt><trkpt lat="45.6473935" lon="10.8518527"><ele>864.0</ele><time>2026-04-06T09:38:57.002Z</time></trkpt><trkpt lat="45.6472752" lon="10.8519216"><ele>864.0</ele><time>2026-04-06T09:38:58.002Z</time></trkpt><trkpt lat="45.6471611" lon="10.8519826"><ele>864.0</ele><time>2026-04-06T09:38:59.002Z</time></trkpt><trkpt lat="45.647052" lon="10.8520317"><ele>864.0</ele><time>2026-04-06T09:39:00.002Z</time></trkpt><trkpt lat="45.6469482" lon="10.8520795"><ele>864.0</ele><time>2026-04-06T09:39:01.003Z</time></trkpt><trkpt lat="45.6468455" lon="10.8521135"><ele>863.6666666666666</ele><time>2026-04-06T09:39:02.002Z</time></trkpt><trkpt lat="45.6467482" lon="10.8521308"><ele>863.3333333333333</ele><time>2026-04-06T09:39:03.002Z</time></trkpt><trkpt lat="45.6466548" lon="10.8521392"><ele>863.0</ele><time>2026-04-06T09:39:04.003Z</time></trkpt><trkpt lat="45.6465654" lon="10.8521438"><ele>862.6666666666666</ele><time>2026-04-06T09:39:05.002Z</time></trkpt><trkpt lat="45.6464903" lon="10.8521513"><ele>862.3333333333333</ele><time>2026-04-06T09:39:06.003Z</time></trkpt><trkpt lat="45.6464249" lon="10.8521624"><ele>862.0</ele><time>2026-04-06T09:39:07.002Z</time></trkpt><trkpt lat="45.6462897" lon="10.8522101"><ele>862.0</ele><time>2026-04-06T09:39:09.002Z</time></trkpt><trkpt lat="45.646184" lon="10.8522606"><ele>862.0</ele><time>2026-04-06T09:39:10.003Z</time></trkpt><trkpt lat="45.64605" lon="10.8522961"><ele>862.0</ele><time>2026-04-06T09:39:11.003Z</time></trkpt><trkpt lat="45.6459141" lon="10.8523152"><ele>862.0</ele><time>2026-04-06T09:39:12.003Z</time></trkpt><trkpt lat="45.6457715" lon="10.8523374"><ele>859.6666666666666</ele><time>2026-04-06T09:39:13.003Z</time></trkpt><trkpt lat="45.6456092" lon="10.852368"><ele>857.3333333333333</ele><time>2026-04-06T09:39:14.003Z</time></trkpt><trkpt lat="45.6454423" lon="10.8524086"><ele>855.0</ele><time>2026-04-06T09:39:15.003Z</time></trkpt><trkpt lat="45.6452911" lon="10.8524578"><ele>854.25</ele><time>2026-04-06T09:39:16.002Z</time></trkpt><trkpt lat="45.6451467" lon="10.8525152"><ele>853.5</ele><time>2026-04-06T09:39:17.003Z</time></trkpt><trkpt lat="45.6450145" lon="10.8525864"><ele>852.75</ele><time>2026-04-06T09:39:18.002Z</time></trkpt><trkpt lat="45.6448922" lon="10.8526675"><ele>852.0</ele><time>2026-04-06T09:39:19.003Z</time></trkpt><trkpt lat="45.6447687" lon="10.8527617"><ele>851.75</ele><time>2026-04-06T09:39:20.002Z</time></trkpt><trkpt lat="45.6446476" lon="10.852879"><ele>851.5</ele><time>2026-04-06T09:39:21.002Z</time></trkpt><trkpt lat="45.6445264" lon="10.8530038"><ele>851.25</ele><time>2026-04-06T09:39:22.002Z</time></trkpt><trkpt lat="45.6444042" lon="10.8531027"><ele>851.0</ele><time>2026-04-06T09:39:23.003Z</time></trkpt><trkpt lat="45.6442793" lon="10.8531836"><ele>851.0</ele><time>2026-04-06T09:39:24.002Z</time></trkpt><trkpt lat="45.6441585" lon="10.8532622"><ele>851.0</ele><time>2026-04-06T09:39:25.003Z</time></trkpt><trkpt lat="45.6440493" lon="10.8533585"><ele>851.0</ele><time>2026-04-06T09:39:26.003Z</time></trkpt><trkpt lat="45.6439573" lon="10.8534825"><ele>851.0</ele><time>2026-04-06T09:39:27.002Z</time></trkpt><trkpt lat="45.6438834" lon="10.8536335"><ele>853.25</ele><time>2026-04-06T09:39:28.002Z</time></trkpt><trkpt lat="45.6438307" lon="10.8538119"><ele>855.5</ele><time>2026-04-06T09:39:29.002Z</time></trkpt><trkpt lat="45.643775" lon="10.8539968"><ele>857.75</ele><time>2026-04-06T09:39:30.003Z</time></trkpt><trkpt lat="45.6437012" lon="10.8541585"><ele>860.0</ele><time>2026-04-06T09:39:31.002Z</time></trkpt><trkpt lat="45.643616" lon="10.8543026"><ele>860.0</ele><time>2026-04-06T09:39:32.003Z</time></trkpt><trkpt lat="45.6435195" lon="10.8544216"><ele>860.0</ele><time>2026-04-06T09:39:33.003Z</time></trkpt><trkpt lat="45.6434026" lon="10.8545265"><ele>860.0</ele><time>2026-04-06T09:39:34.003Z</time></trkpt><trkpt lat="45.6432688" lon="10.8546116"><ele>860.0</ele><time>2026-04-06T09:39:35.003Z</time></trkpt><trkpt lat="45.6431264" lon="10.8546831"><ele>860.0</ele><time>2026-04-06T09:39:36.002Z</time></trkpt><trkpt lat="45.6429903" lon="10.8547454"><ele>860.0</ele><time>2026-04-06T09:39:37.003Z</time></trkpt><trkpt lat="45.6428575" lon="10.8547948"><ele>860.0</ele><time>2026-04-06T09:39:38.003Z</time></trkpt><trkpt lat="45.6427254" lon="10.8548144"><ele>860.0</ele><time>2026-04-06T09:39:39.003Z</time></trkpt><trkpt lat="45.6425971" lon="10.8548121"><ele>857.4</ele><time>2026-04-06T09:39:40.003Z</time></trkpt><trkpt lat="45.6424911" lon="10.8548026"><ele>854.8</ele><time>2026-04-06T09:39:41.002Z</time></trkpt><trkpt lat="45.6423958" lon="10.8547842"><ele>852.2</ele><time>2026-04-06T09:39:42.002Z</time></trkpt><trkpt lat="45.6422906" lon="10.8547623"><ele>849.6</ele><time>2026-04-06T09:39:43.003Z</time></trkpt><trkpt lat="45.642174" lon="10.8547366"><ele>847.0</ele><time>2026-04-06T09:39:44.002Z</time></trkpt><trkpt lat="45.6420401" lon="10.8547066"><ele>847.0</ele><time>2026-04-06T09:39:45.003Z</time></trkpt><trkpt lat="45.6418922" lon="10.8546838"><ele>847.0</ele><time>2026-04-06T09:39:46.002Z</time></trkpt><trkpt lat="45.6417344" lon="10.8546603"><ele>847.0</ele><time>2026-04-06T09:39:47.002Z</time></trkpt><trkpt lat="45.6415736" lon="10.8546324"><ele>847.0</ele><time>2026-04-06T09:39:48.002Z</time></trkpt><trkpt lat="45.6414136" lon="10.8545984"><ele>847.0</ele><time>2026-04-06T09:39:49.002Z</time></trkpt><trkpt lat="45.6412453" lon="10.8545619"><ele>847.0</ele><time>2026-04-06T09:39:50.003Z</time></trkpt><trkpt lat="45.64107" lon="10.8545242"><ele>847.0</ele><time>2026-04-06T09:39:51.002Z</time></trkpt><trkpt lat="45.6408947" lon="10.8544843"><ele>847.0</ele><time>2026-04-06T09:39:52.002Z</time></trkpt><trkpt lat="45.6407213" lon="10.8544488"><ele>847.0</ele><time>2026-04-06T09:39:53.002Z</time></trkpt><trkpt lat="45.6405495" lon="10.8544181"><ele>847.0</ele><time>2026-04-06T09:39:54.003Z</time></trkpt><trkpt lat="45.6403795" lon="10.8543878"><ele>847.0</ele><time>2026-04-06T09:39:55.002Z</time></trkpt><trkpt lat="45.6402219" lon="10.8543579"><ele>847.0</ele><time>2026-04-06T09:39:56.003Z</time></trkpt><trkpt lat="45.6400778" lon="10.854321"><ele>837.0</ele><time>2026-04-06T09:39:57.003Z</time></trkpt><trkpt lat="45.6399406" lon="10.8542651"><ele>827.0</ele><time>2026-04-06T09:39:58.002Z</time></trkpt><trkpt lat="45.6398054" lon="10.8541839"><ele>817.0</ele><time>2026-04-06T09:39:59.003Z</time></trkpt><trkpt lat="45.6396646" lon="10.8540713"><ele>817.0</ele><time>2026-04-06T09:40:00.002Z</time></trkpt><trkpt lat="45.6395335" lon="10.8539432"><ele>817.0</ele><time>2026-04-06T09:40:01.002Z</time></trkpt><trkpt lat="45.6394073" lon="10.8538183"><ele>817.0</ele><time>2026-04-06T09:40:02.003Z</time></trkpt><trkpt lat="45.6392825" lon="10.8537004"><ele>818.6666666666666</ele><time>2026-04-06T09:40:03.002Z</time></trkpt><trkpt lat="45.6391475" lon="10.8535869"><ele>820.3333333333333</ele><time>2026-04-06T09:40:04.002Z</time></trkpt><trkpt lat="45.6390012" lon="10.8534779"><ele>822.0</ele><time>2026-04-06T09:40:05.002Z</time></trkpt><trkpt lat="45.638844" lon="10.853387"><ele>817.0</ele><time>2026-04-06T09:40:06.002Z</time></trkpt><trkpt lat="45.6386779" lon="10.8533201"><ele>812.0</ele><time>2026-04-06T09:40:07.003Z</time></trkpt><trkpt lat="45.6385079" lon="10.8532718"><ele>807.0</ele><time>2026-04-06T09:40:08.003Z</time></trkpt><trkpt lat="45.6383368" lon="10.8532536"><ele>806.6666666666667</ele><time>2026-04-06T09:40:09.002Z</time></trkpt><trkpt lat="45.6381489" lon="10.8532588"><ele>806.3333333333334</ele><time>2026-04-06T09:40:10.002Z</time></trkpt><trkpt lat="45.6379495" lon="10.8532806"><ele>806.0</ele><time>2026-04-06T09:40:11.003Z</time></trkpt><trkpt lat="45.6377543" lon="10.8533064"><ele>804.0</ele><time>2026-04-06T09:40:12.002Z</time></trkpt><trkpt lat="45.6375546" lon="10.8533385"><ele>802.0</ele><time>2026-04-06T09:40:13.002Z</time></trkpt><trkpt lat="45.6373553" lon="10.8533747"><ele>800.0</ele><time>2026-04-06T09:40:14.002Z</time></trkpt><trkpt lat="45.6371576" lon="10.8534117"><ele>797.0</ele><time>2026-04-06T09:40:15.002Z</time></trkpt><trkpt lat="45.6369639" lon="10.8534459"><ele>794.0</ele><time>2026-04-06T09:40:16.002Z</time></trkpt><trkpt lat="45.6367798" lon="10.853469"><ele>791.0</ele><time>2026-04-06T09:40:17.003Z</time></trkpt><trkpt lat="45.6365865" lon="10.8534706"><ele>791.0</ele><time>2026-04-06T09:40:18.002Z</time></trkpt><trkpt lat="45.6363737" lon="10.8534491"><ele>791.0</ele><time>2026-04-06T09:40:19.003Z</time></trkpt><trkpt lat="45.6361617" lon="10.853408"><ele>791.0</ele><time>2026-04-06T09:40:20.003Z</time></trkpt><trkpt lat="45.6359565" lon="10.853359"><ele>791.3333333333334</ele><time>2026-04-06T09:40:21.002Z</time></trkpt><trkpt lat="45.6357678" lon="10.8533197"><ele>791.6666666666667</ele><time>2026-04-06T09:40:22.002Z</time></trkpt><trkpt lat="45.6355996" lon="10.8532845"><ele>792.0</ele><time>2026-04-06T09:40:23.002Z</time></trkpt><trkpt lat="45.6354295" lon="10.8532441"><ele>793.3333333333333</ele><time>2026-04-06T09:40:24.003Z</time></trkpt><trkpt lat="45.635272" lon="10.8531971"><ele>794.6666666666666</ele><time>2026-04-06T09:40:25.002Z</time></trkpt><trkpt lat="45.6351181" lon="10.8531327"><ele>796.0</ele><time>2026-04-06T09:40:26.002Z</time></trkpt><trkpt lat="45.6349774" lon="10.8530345"><ele>796.0</ele><time>2026-04-06T09:40:27.002Z</time></trkpt><trkpt lat="45.634842" lon="10.8529007"><ele>796.0</ele><time>2026-04-06T09:40:28.002Z</time></trkpt><trkpt lat="45.6347143" lon="10.8527141"><ele>796.0</ele><time>2026-04-06T09:40:29.003Z</time></trkpt><trkpt lat="45.634591" lon="10.8525055"><ele>817.0</ele><time>2026-04-06T09:40:30.003Z</time></trkpt><trkpt lat="45.6396646" lon="10.8540713"><ele>817.0</ele><time>2026-04-06T09:40:00.002Z</time></trkpt><trkpt lat="45.6395335" lon="10.8539432"><ele>817.0</ele><time>2026-04-06T09:40:01.002Z</time></trkpt><trkpt lat="45.6394073" lon="10.8538183"><ele>817.0</ele><time>2026-04-06T09:40:02.003Z</time></trkpt><trkpt lat="45.6392825" lon="10.8537004"><ele>818.6666666666666</ele><time>2026-04-06T09:40:03.002Z</time></trkpt><trkpt lat="45.6391475" lon="10.8535869"><ele>820.3333333333333</ele><time>2026-04-06T09:40:04.002Z</time></trkpt><trkpt lat="45.6390012" lon="10.8534779"><ele>822.0</ele><time>2026-04-06T09:40:05.002Z</time></trkpt><trkpt lat="45.638844" lon="10.853387"><ele>817.0</ele><time>2026-04-06T09:40:06.002Z</time></trkpt><trkpt lat="45.6386779" lon="10.8533201"><ele>812.0</ele><time>2026-04-06T09:40:07.003Z</time></trkpt><trkpt lat="45.6385079" lon="10.8532718"><ele>807.0</ele><time>2026-04-06T09:40:08.003Z</time></trkpt><trkpt lat="45.6383368" lon="10.8532536"><ele>806.6666666666667</ele><time>2026-04-06T09:40:09.002Z</time></trkpt><trkpt lat="45.6381489" lon="10.8532588"><ele>806.3333333333334</ele><time>2026-04-06T09:40:10.002Z</time></trkpt><trkpt lat="45.6379495" lon="10.8532806"><ele>806.0</ele><time>2026-04-06T09:40:11.003Z</time></trkpt><trkpt lat="45.6377543" lon="10.8533064"><ele>804.0</ele><time>2026-04-06T09:40:12.002Z</time></trkpt><trkpt lat="45.6375546" lon="10.8533385"><ele>802.0</ele><time>2026-04-06T09:40:13.002Z</time></trkpt><trkpt lat="45.6373553" lon="10.8533747"><ele>800.0</ele><time>2026-04-06T09:40:14.002Z</time></trkpt><trkpt lat="45.6371576" lon="10.8534117"><ele>797.0</ele><time>2026-04-06T09:40:15.002Z</time></trkpt><trkpt lat="45.6369639" lon="10.8534459"><ele>794.0</ele><time>2026-04-06T09:40:16.002Z</time></trkpt><trkpt lat="45.6367798" lon="10.853469"><ele>791.0</ele><time>2026-04-06T09:40:17.003Z</time></trkpt><trkpt lat="45.6365865" lon="10.8534706"><ele>791.0</ele><time>2026-04-06T09:40:18.002Z</time></trkpt><trkpt lat="45.6363737" lon="10.8534491"><ele>791.0</ele><time>2026-04-06T09:40:19.003Z</time></trkpt><trkpt lat="45.6361617" lon="10.853408"><ele>791.0</ele><time>2026-04-06T09:40:20.003Z</time></trkpt><trkpt lat="45.6359565" lon="10.853359"><ele>791.3333333333334</ele><time>2026-04-06T09:40:21.002Z</time></trkpt><trkpt lat="45.6357678" lon="10.8533197"><ele>791.6666666666667</ele><time>2026-04-06T09:40:22.002Z</time></trkpt><trkpt lat="45.6355996" lon="10.8532845"><ele>792.0</ele><time>2026-04-06T09:40:23.002Z</time></trkpt><trkpt lat="45.6354295" lon="10.8532441"><ele>793.3333333333333</ele><time>2026-04-06T09:40:24.003Z</time></trkpt><trkpt lat="45.635272" lon="10.8531971"><ele>794.6666666666666</ele><time>2026-04-06T09:40:25.002Z</time></trkpt><trkpt lat="45.6351181" lon="10.8531327"><ele>796.0</ele><time>2026-04-06T09:40:26.002Z</time></trkpt><trkpt lat="45.6349774" lon="10.8530345"><ele>796.0</ele><time>2026-04-06T09:40:27.002Z</time></trkpt><trkpt lat="45.634842" lon="10.8529007"><ele>796.0</ele><time>2026-04-06T09:40:28.002Z</time></trkpt><trkpt lat="45.6347143" lon="10.8527141"><ele>796.0</ele><time>2026-04-06T09:40:29.003Z</time></trkpt><trkpt lat="45.634591" lon="10.8525055"><ele>795.0</ele><time>2026-04-06T09:40:30.003Z</time></trkpt><trkpt lat="45.6344641" lon="10.8522656"><ele>794.0</ele><time>2026-04-06T09:40:31.002Z</time></trkpt><trkpt lat="45.6343304" lon="10.8520159"><ele>793.0</ele><time>2026-04-06T09:40:32.002Z</time></trkpt><trkpt lat="45.6342033" lon="10.8517811"><ele>786.3333333333333</ele><time>2026-04-06T09:40:33.003Z</time></trkpt><trkpt lat="45.6340869" lon="10.8515606"><ele>779.6666666666667</ele><time>2026-04-06T09:40:34.002Z</time></trkpt><trkpt lat="45.6339803" lon="10.8513602"><ele>773.0</ele><time>2026-04-06T09:40:35.002Z</time></trkpt><trkpt lat="45.6338706" lon="10.8511613"><ele>773.0</ele><time>2026-04-06T09:40:36.002Z</time></trkpt><trkpt lat="45.6337583" lon="10.8509731"><ele>773.0</ele><time>2026-04-06T09:40:37.003Z</time></trkpt><trkpt lat="45.6336381" lon="10.8508023"><ele>773.0</ele><time>2026-04-06T09:40:38.003Z</time></trkpt><trkpt lat="45.6334999" lon="10.850638"><ele>772.0</ele><time>2026-04-06T09:40:39.003Z</time></trkpt><trkpt lat="45.6333384" lon="10.8504796"><ele>771.0</ele><time>2026-04-06T09:40:40.002Z</time></trkpt><trkpt lat="45.6331507" lon="10.8503374"><ele>770.0</ele><time>2026-04-06T09:40:41.003Z</time></trkpt><trkpt lat="45.6329358" lon="10.8502012"><ele>762.5</ele><time>2026-04-06T09:40:42.003Z</time></trkpt><trkpt lat="45.6327077" lon="10.8500701"><ele>755.0</ele><time>2026-04-06T09:40:43.003Z</time></trkpt><trkpt lat="45.6324931" lon="10.8499482"><ele>755.0</ele><time>2026-04-06T09:40:44.002Z</time></trkpt><trkpt lat="45.632282" lon="10.8498299"><ele>755.0</ele><time>2026-04-06T09:40:45.002Z</time></trkpt><trkpt lat="45.6320768" lon="10.8497154"><ele>755.0</ele><time>2026-04-06T09:40:46.002Z</time></trkpt><trkpt lat="45.6318757" lon="10.849604"><ele>757.0</ele><time>2026-04-06T09:40:47.003Z</time></trkpt><trkpt lat="45.6316769" lon="10.8494911"><ele>759.0</ele><time>2026-04-06T09:40:48.002Z</time></trkpt><trkpt lat="45.6314712" lon="10.8493741"><ele>761.0</ele><time>2026-04-06T09:40:49.003Z</time></trkpt><trkpt lat="45.6312564" lon="10.849252"><ele>752.0</ele><time>2026-04-06T09:40:50.002Z</time></trkpt><trkpt lat="45.6310296" lon="10.8491212"><ele>743.0</ele><time>2026-04-06T09:40:51.003Z</time></trkpt><trkpt lat="45.6307959" lon="10.8489892"><ele>743.0</ele><time>2026-04-06T09:40:52.003Z</time></trkpt><trkpt lat="45.6305586" lon="10.8488602"><ele>743.0</ele><time>2026-04-06T09:40:53.003Z</time></trkpt><trkpt lat="45.6303307" lon="10.8487371"><ele>742.6666666666666</ele><time>2026-04-06T09:40:54.002Z</time></trkpt><trkpt lat="45.6301218" lon="10.8486187"><ele>742.3333333333334</ele><time>2026-04-06T09:40:55.003Z</time></trkpt><trkpt lat="45.6299282" lon="10.8485058"><ele>742.0</ele><time>2026-04-06T09:40:56.003Z</time></trkpt><trkpt lat="45.6297413" lon="10.848387"><ele>736.0</ele><time>2026-04-06T09:40:57.002Z</time></trkpt><trkpt lat="45.6295673" lon="10.8482505"><ele>730.0</ele><time>2026-04-06T09:40:58.003Z</time></trkpt><trkpt lat="45.6293998" lon="10.8480914"><ele>724.0</ele><time>2026-04-06T09:40:59.002Z</time></trkpt><trkpt lat="45.6292337" lon="10.8479195"><ele>724.0</ele><time>2026-04-06T09:41:00.002Z</time></trkpt><trkpt lat="45.6290785" lon="10.8477534"><ele>724.0</ele><time>2026-04-06T09:41:01.002Z</time></trkpt><trkpt lat="45.6289344" lon="10.8476048"><ele>724.0</ele><time>2026-04-06T09:41:02.002Z</time></trkpt><trkpt lat="45.6287983" lon="10.8474636"><ele>721.75</ele><time>2026-04-06T09:41:03.002Z</time></trkpt><trkpt lat="45.6286717" lon="10.8473389"><ele>719.5</ele><time>2026-04-06T09:41:04.002Z</time></trkpt><trkpt lat="45.6285481" lon="10.8472323"><ele>717.25</ele><time>2026-04-06T09:41:05.003Z</time></trkpt><trkpt lat="45.6284203" lon="10.8471662"><ele>715.0</ele><time>2026-04-06T09:41:06.002Z</time></trkpt><trkpt lat="45.6282779" lon="10.847134"><ele>715.0</ele><time>2026-04-06T09:41:07.002Z</time></trkpt><trkpt lat="45.6281279" lon="10.847136"><ele>715.0</ele><time>2026-04-06T09:41:08.003Z</time></trkpt><trkpt lat="45.6279816" lon="10.8471721"><ele>715.0</ele><time>2026-04-06T09:41:09.002Z</time></trkpt><trkpt lat="45.6278368" lon="10.8472726"><ele>714.6666666666667</ele><time>2026-04-06T09:41:10.002Z</time></trkpt><trkpt lat="45.6277044" lon="10.8474079"><ele>714.3333333333334</ele><time>2026-04-06T09:41:11.002Z</time></trkpt><trkpt lat="45.6275846" lon="10.8475883"><ele>714.0</ele><time>2026-04-06T09:41:12.002Z</time></trkpt><trkpt lat="45.6274544" lon="10.8478189"><ele>714.0</ele><time>2026-04-06T09:41:13.002Z</time></trkpt><trkpt lat="45.6273245" lon="10.8480596"><ele>714.0</ele><time>2026-04-06T09:41:14.002Z</time></trkpt><trkpt lat="45.6272169" lon="10.8482621"><ele>714.0</ele><time>2026-04-06T09:41:15.003Z</time></trkpt><trkpt lat="45.6271264" lon="10.8484282"><ele>713.2</ele><time>2026-04-06T09:41:16.003Z</time></trkpt><trkpt lat="45.6270495" lon="10.8485655"><ele>712.4000000000001</ele><time>2026-04-06T09:41:17.002Z</time></trkpt><trkpt lat="45.6269825" lon="10.8486748"><ele>711.6</ele><time>2026-04-06T09:41:18.002Z</time></trkpt><trkpt lat="45.6269149" lon="10.8487529"><ele>710.8</ele><time>2026-04-06T09:41:19.003Z</time></trkpt><trkpt lat="45.6268398" lon="10.8488013"><ele>710.0</ele><time>2026-04-06T09:41:20.002Z</time></trkpt><trkpt lat="45.6267635" lon="10.8488129"><ele>710.0</ele><time>2026-04-06T09:41:21.003Z</time></trkpt><trkpt lat="45.6266841" lon="10.8487868"><ele>710.0</ele><time>2026-04-06T09:41:22.002Z</time></trkpt><trkpt lat="45.6266129" lon="10.8486922"><ele>710.0</ele><time>2026-04-06T09:41:23.003Z</time></trkpt><trkpt lat="45.6265687" lon="10.8485673"><ele>710.0</ele><time>2026-04-06T09:41:24.003Z</time></trkpt><trkpt lat="45.6265454" lon="10.8483914"><ele>710.0</ele><time>2026-04-06T09:41:25.002Z</time></trkpt><trkpt lat="45.6265321" lon="10.8481869"><ele>705.0</ele><time>2026-04-06T09:41:26.003Z</time></trkpt><trkpt lat="45.6265172" lon="10.8479598"><ele>700.0</ele><time>2026-04-06T09:41:27.002Z</time></trkpt><trkpt lat="45.626502" lon="10.8477323"><ele>695.0</ele><time>2026-04-06T09:41:28.002Z</time></trkpt><trkpt lat="45.6264947" lon="10.8475157"><ele>693.0</ele><time>2026-04-06T09:41:29.002Z</time></trkpt><trkpt lat="45.6265015" lon="10.8473212"><ele>691.0</ele><time>2026-04-06T09:41:30.002Z</time></trkpt><trkpt lat="45.6265251" lon="10.8471307"><ele>689.0</ele><time>2026-04-06T09:41:31.003Z</time></trkpt><trkpt lat="45.6265774" lon="10.8469322"><ele>687.0</ele><time>2026-04-06T09:41:32.003Z</time></trkpt><trkpt lat="45.6266551" lon="10.8467321"><ele>688.3333333333334</ele><time>2026-04-06T09:41:33.003Z</time></trkpt><trkpt lat="45.6267456" lon="10.8465537"><ele>689.6666666666667</ele><time>2026-04-06T09:41:34.002Z</time></trkpt><trkpt lat="45.6268715" lon="10.8463974"><ele>691.0</ele><time>2026-04-06T09:41:35.003Z</time></trkpt><trkpt lat="45.6270187" lon="10.8462635"><ele>691.0</ele><time>2026-04-06T09:41:36.003Z</time></trkpt><trkpt lat="45.6271767" lon="10.8461446"><ele>691.0</ele><time>2026-04-06T09:41:37.003Z</time></trkpt><trkpt lat="45.6273431" lon="10.8460383"><ele>691.0</ele><time>2026-04-06T09:41:38.002Z</time></trkpt><trkpt lat="45.6274934" lon="10.8459104"><ele>689.3333333333334</ele><time>2026-04-06T09:41:39.003Z</time></trkpt><trkpt lat="45.6276337" lon="10.8457621"><ele>687.6666666666666</ele><time>2026-04-06T09:41:40.003Z</time></trkpt><trkpt lat="45.6277644" lon="10.8455954"><ele>686.0</ele><time>2026-04-06T09:41:41.003Z</time></trkpt><trkpt lat="45.6278946" lon="10.8454446"><ele>686.0</ele><time>2026-04-06T09:41:42.003Z</time></trkpt><trkpt lat="45.6280285" lon="10.8453089"><ele>686.0</ele><time>2026-04-06T09:41:43.003Z</time></trkpt><trkpt lat="45.62817" lon="10.845192"><ele>686.0</ele><time>2026-04-06T09:41:44.003Z</time></trkpt><trkpt lat="45.6283366" lon="10.8451169"><ele>683.3333333333333</ele><time>2026-04-06T09:41:45.003Z</time></trkpt><trkpt lat="45.6285044" lon="10.8450831"><ele>680.6666666666666</ele><time>2026-04-06T09:41:46.002Z</time></trkpt><trkpt lat="45.6286806" lon="10.8450827"><ele>678.0</ele><time>2026-04-06T09:41:47.003Z</time></trkpt><trkpt lat="45.6288671" lon="10.8451343"><ele>678.0</ele><time>2026-04-06T09:41:48.003Z</time></trkpt><trkpt lat="45.6290661" lon="10.8452107"><ele>678.0</ele><time>2026-04-06T09:41:49.002Z</time></trkpt><trkpt lat="45.6292768" lon="10.8452986"><ele>678.0</ele><time>2026-04-06T09:41:50.003Z</time></trkpt><trkpt lat="45.629503" lon="10.8454005"><ele>672.0</ele><time>2026-04-06T09:41:51.003Z</time></trkpt><trkpt lat="45.6297246" lon="10.8454972"><ele>666.0</ele><time>2026-04-06T09:41:52.002Z</time></trkpt><trkpt lat="45.6299284" lon="10.8455834"><ele>660.0</ele><time>2026-04-06T09:41:53.002Z</time></trkpt><trkpt lat="45.6300995" lon="10.8456597"><ele>660.0</ele><time>2026-04-06T09:41:54.003Z</time></trkpt><trkpt lat="45.6302529" lon="10.8457323"><ele>660.0</ele><time>2026-04-06T09:41:55.003Z</time></trkpt><trkpt lat="45.6303747" lon="10.8457902"><ele>660.0</ele><time>2026-04-06T09:41:56.002Z</time></trkpt><trkpt lat="45.6304906" lon="10.8458308"><ele>660.0</ele><time>2026-04-06T09:41:57.003Z</time></trkpt><trkpt lat="45.6305951" lon="10.8458507"><ele>658.6</ele><time>2026-04-06T09:41:58.002Z</time></trkpt><trkpt lat="45.6306936" lon="10.8458294"><ele>657.2</ele><time>2026-04-06T09:41:59.003Z</time></trkpt><trkpt lat="45.6307821" lon="10.8457645"><ele>655.8</ele><time>2026-04-06T09:42:00.003Z</time></trkpt><trkpt lat="45.6308552" lon="10.8456469"><ele>654.4</ele><time>2026-04-06T09:42:01.002Z</time></trkpt><trkpt lat="45.6309027" lon="10.8455027"><ele>653.0</ele><time>2026-04-06T09:42:02.003Z</time></trkpt><trkpt lat="45.6309154" lon="10.8452934"><ele>650.0</ele><time>2026-04-06T09:42:03.003Z</time></trkpt><trkpt lat="45.630916" lon="10.8450684"><ele>647.0</ele><time>2026-04-06T09:42:04.003Z</time></trkpt><trkpt lat="45.6309042" lon="10.844804"><ele>644.0</ele><time>2026-04-06T09:42:05.003Z</time></trkpt><trkpt lat="45.6308696" lon="10.8445576"><ele>644.0</ele><time>2026-04-06T09:42:06.003Z</time></trkpt><trkpt lat="45.6308382" lon="10.8443731"><ele>644.0</ele><time>2026-04-06T09:42:07.003Z</time></trkpt><trkpt lat="45.6308131" lon="10.844207"><ele>644.0</ele><time>2026-04-06T09:42:08.003Z</time></trkpt><trkpt lat="45.6308063" lon="10.8440446"><ele>644.0</ele><time>2026-04-06T09:42:09.002Z</time></trkpt><trkpt lat="45.6308346" lon="10.8438984"><ele>644.0</ele><time>2026-04-06T09:42:10.002Z</time></trkpt><trkpt lat="45.6308958" lon="10.8437786"><ele>644.0</ele><time>2026-04-06T09:42:11.002Z</time></trkpt><trkpt lat="45.6309874" lon="10.8437009"><ele>644.0</ele><time>2026-04-06T09:42:12.003Z</time></trkpt><trkpt lat="45.6311087" lon="10.8436668"><ele>644.0</ele><time>2026-04-06T09:42:13.002Z</time></trkpt><trkpt lat="45.6312687" lon="10.8436696"><ele>644.0</ele><time>2026-04-06T09:42:14.002Z</time></trkpt><trkpt lat="45.6314566" lon="10.8436855"><ele>644.0</ele><time>2026-04-06T09:42:15.003Z</time></trkpt><trkpt lat="45.6316499" lon="10.8436963"><ele>644.0</ele><time>2026-04-06T09:42:16.003Z</time></trkpt><trkpt lat="45.6318523" lon="10.8437093"><ele>640.0</ele><time>2026-04-06T09:42:17.003Z</time></trkpt><trkpt lat="45.6320427" lon="10.843738"><ele>636.0</ele><time>2026-04-06T09:42:18.002Z</time></trkpt><trkpt lat="45.6322268" lon="10.843786"><ele>632.0</ele><time>2026-04-06T09:42:19.002Z</time></trkpt><trkpt lat="45.6324047" lon="10.8438476"><ele>632.0</ele><time>2026-04-06T09:42:20.002Z</time></trkpt><trkpt lat="45.632578" lon="10.8439088"><ele>632.0</ele><time>2026-04-06T09:42:21.002Z</time></trkpt><trkpt lat="45.6327493" lon="10.8439513"><ele>632.0</ele><time>2026-04-06T09:42:22.003Z</time></trkpt><trkpt lat="45.6329176" lon="10.8439654"><ele>630.6666666666666</ele><time>2026-04-06T09:42:23.002Z</time></trkpt><trkpt lat="45.6330754" lon="10.8439558"><ele>629.3333333333334</ele><time>2026-04-06T09:42:24.003Z</time></trkpt><trkpt lat="45.6332277" lon="10.8439302"><ele>628.0</ele><time>2026-04-06T09:42:25.003Z</time></trkpt><trkpt lat="45.6333785" lon="10.8439054"><ele>628.0</ele><time>2026-04-06T09:42:26.003Z</time></trkpt><trkpt lat="45.6335251" lon="10.843884"><ele>628.0</ele><time>2026-04-06T09:42:27.003Z</time></trkpt><trkpt lat="45.6336546" lon="10.8438652"><ele>628.0</ele><time>2026-04-06T09:42:28.002Z</time></trkpt><trkpt lat="45.633772" lon="10.8438462"><ele>628.0</ele><time>2026-04-06T09:42:29.003Z</time></trkpt><trkpt lat="45.6338647" lon="10.8438304"><ele>627.1666666666667</ele><time>2026-04-06T09:42:30.002Z</time></trkpt><trkpt lat="45.6339432" lon="10.843812"><ele>626.3333333333334</ele><time>2026-04-06T09:42:31.002Z</time></trkpt><trkpt lat="45.6340165" lon="10.843785"><ele>625.5</ele><time>2026-04-06T09:42:32.002Z</time></trkpt><trkpt lat="45.6340766" lon="10.8437354"><ele>624.6666666666666</ele><time>2026-04-06T09:42:33.002Z</time></trkpt><trkpt lat="45.6341304" lon="10.8436699"><ele>623.8333333333333</ele><time>2026-04-06T09:42:34.002Z</time></trkpt><trkpt lat="45.634175" lon="10.8435772"><ele>623.0</ele><time>2026-04-06T09:42:35.002Z</time></trkpt><trkpt lat="45.6341983" lon="10.8434667"><ele>622.0</ele><time>2026-04-06T09:42:36.002Z</time></trkpt><trkpt lat="45.634196" lon="10.8433422"><ele>621.0</ele><time>2026-04-06T09:42:37.002Z</time></trkpt><trkpt lat="45.6341657" lon="10.8432122"><ele>620.0</ele><time>2026-04-06T09:42:38.003Z</time></trkpt><trkpt lat="45.6341097" lon="10.8430809"><ele>619.0</ele><time>2026-04-06T09:42:39.003Z</time></trkpt><trkpt lat="45.6340314" lon="10.8429445"><ele>618.0</ele><time>2026-04-06T09:42:40.002Z</time></trkpt><trkpt lat="45.633939" lon="10.842798"><ele>618.0</ele><time>2026-04-06T09:42:41.002Z</time></trkpt><trkpt lat="45.6338471" lon="10.842654"><ele>618.0</ele><time>2026-04-06T09:42:42.002Z</time></trkpt><trkpt lat="45.6337582" lon="10.8425129"><ele>618.0</ele><time>2026-04-06T09:42:43.003Z</time></trkpt><trkpt lat="45.6336707" lon="10.8423727"><ele>618.0</ele><time>2026-04-06T09:42:44.002Z</time></trkpt><trkpt lat="45.6335816" lon="10.8422289"><ele>615.75</ele><time>2026-04-06T09:42:45.003Z</time></trkpt><trkpt lat="45.6334873" lon="10.8420821"><ele>613.5</ele><time>2026-04-06T09:42:46.003Z</time></trkpt><trkpt lat="45.6333879" lon="10.8419329"><ele>611.25</ele><time>2026-04-06T09:42:47.002Z</time></trkpt><trkpt lat="45.6332842" lon="10.8417756"><ele>609.0</ele><time>2026-04-06T09:42:48.003Z</time></trkpt><trkpt lat="45.6331805" lon="10.8416102"><ele>609.0</ele><time>2026-04-06T09:42:49.003Z</time></trkpt><trkpt lat="45.6330785" lon="10.8414388"><ele>609.0</ele><time>2026-04-06T09:42:50.003Z</time></trkpt><trkpt lat="45.6329816" lon="10.8412604"><ele>609.0</ele><time>2026-04-06T09:42:51.003Z</time></trkpt><trkpt lat="45.6328931" lon="10.8410872"><ele>610.0</ele><time>2026-04-06T09:42:52.003Z</time></trkpt><trkpt lat="45.6328221" lon="10.8409267"><ele>611.0</ele><time>2026-04-06T09:42:53.002Z</time></trkpt><trkpt lat="45.632767" lon="10.8407663"><ele>612.0</ele><time>2026-04-06T09:42:54.003Z</time></trkpt><trkpt lat="45.6327415" lon="10.8406044"><ele>613.0</ele><time>2026-04-06T09:42:55.002Z</time></trkpt><trkpt lat="45.6327496" lon="10.8404417"><ele>610.0</ele><time>2026-04-06T09:42:56.003Z</time></trkpt><trkpt lat="45.6327928" lon="10.8402757"><ele>607.0</ele><time>2026-04-06T09:42:57.003Z</time></trkpt><trkpt lat="45.6328729" lon="10.8401174"><ele>604.0</ele><time>2026-04-06T09:42:58.002Z</time></trkpt><trkpt lat="45.6329918" lon="10.8399617"><ele>601.0</ele><time>2026-04-06T09:42:59.002Z</time></trkpt><trkpt lat="45.6331287" lon="10.8398059"><ele>601.0</ele><time>2026-04-06T09:43:00.002Z</time></trkpt><trkpt lat="45.6332512" lon="10.8396569"><ele>601.0</ele><time>2026-04-06T09:43:01.003Z</time></trkpt><trkpt lat="45.6333729" lon="10.8395274"><ele>601.0</ele><time>2026-04-06T09:43:02.003Z</time></trkpt><trkpt lat="45.6334974" lon="10.8394272"><ele>601.0</ele><time>2026-04-06T09:43:03.002Z</time></trkpt><trkpt lat="45.6336309" lon="10.8393465"><ele>601.0</ele><time>2026-04-06T09:43:04.003Z</time></trkpt><trkpt lat="45.6337784" lon="10.8392763"><ele>601.0</ele><time>2026-04-06T09:43:05.002Z</time></trkpt><trkpt lat="45.6339306" lon="10.8392304"><ele>598.0</ele><time>2026-04-06T09:43:06.003Z</time></trkpt><trkpt lat="45.6340793" lon="10.8392039"><ele>595.0</ele><time>2026-04-06T09:43:07.003Z</time></trkpt><trkpt lat="45.6342265" lon="10.8391824"><ele>592.0</ele><time>2026-04-06T09:43:08.003Z</time></trkpt><trkpt lat="45.6343686" lon="10.8391688"><ele>589.0</ele><time>2026-04-06T09:43:09.003Z</time></trkpt><trkpt lat="45.6345084" lon="10.8391576"><ele>588.5</ele><time>2026-04-06T09:43:10.003Z</time></trkpt><trkpt lat="45.6346474" lon="10.8391526"><ele>588.0</ele><time>2026-04-06T09:43:11.003Z</time></trkpt><trkpt lat="45.6347902" lon="10.8391562"><ele>587.5</ele><time>2026-04-06T09:43:12.003Z</time></trkpt><trkpt lat="45.6349411" lon="10.8391618"><ele>587.0</ele><time>2026-04-06T09:43:13.002Z</time></trkpt><trkpt lat="45.6350847" lon="10.839154"><ele>587.0</ele><time>2026-04-06T09:43:14.003Z</time></trkpt><trkpt lat="45.6352256" lon="10.8391286"><ele>587.0</ele><time>2026-04-06T09:43:15.002Z</time></trkpt><trkpt lat="45.6353619" lon="10.8390769"><ele>587.0</ele><time>2026-04-06T09:43:16.003Z</time></trkpt><trkpt lat="45.6354981" lon="10.8390102"><ele>587.0</ele><time>2026-04-06T09:43:17.002Z</time></trkpt><trkpt lat="45.6356339" lon="10.8389451"><ele>588.0</ele><time>2026-04-06T09:43:18.002Z</time></trkpt><trkpt lat="45.6357713" lon="10.8388992"><ele>589.0</ele><time>2026-04-06T09:43:19.002Z</time></trkpt><trkpt lat="45.6359064" lon="10.8388707"><ele>590.0</ele><time>2026-04-06T09:43:20.002Z</time></trkpt><trkpt lat="45.6360398" lon="10.8388509"><ele>591.0</ele><time>2026-04-06T09:43:21.002Z</time></trkpt><trkpt lat="45.6361728" lon="10.8388335"><ele>593.0</ele><time>2026-04-06T09:43:22.002Z</time></trkpt><trkpt lat="45.6362996" lon="10.8388136"><ele>595.0</ele><time>2026-04-06T09:43:23.002Z</time></trkpt><trkpt lat="45.6364176" lon="10.8387907"><ele>597.0</ele><time>2026-04-06T09:43:24.003Z</time></trkpt><trkpt lat="45.6365291" lon="10.8387608"><ele>599.0</ele><time>2026-04-06T09:43:25.003Z</time></trkpt><trkpt lat="45.6366247" lon="10.8387111"><ele>599.0</ele><time>2026-04-06T09:43:26.003Z</time></trkpt><trkpt lat="45.6367072" lon="10.8386359"><ele>599.0</ele><time>2026-04-06T09:43:27.002Z</time></trkpt><trkpt lat="45.6367732" lon="10.8385395"><ele>599.0</ele><time>2026-04-06T09:43:28.003Z</time></trkpt><trkpt lat="45.6368068" lon="10.8384082"><ele>599.0</ele><time>2026-04-06T09:43:29.002Z</time></trkpt><trkpt lat="45.636809" lon="10.8382629"><ele>599.0</ele><time>2026-04-06T09:43:30.002Z</time></trkpt><trkpt lat="45.636782" lon="10.8381001"><ele>594.5</ele><time>2026-04-06T09:43:31.002Z</time></trkpt><trkpt lat="45.6367263" lon="10.837952"><ele>590.0</ele><time>2026-04-06T09:43:32.002Z</time></trkpt><trkpt lat="45.6366365" lon="10.8378232"><ele>585.5</ele><time>2026-04-06T09:43:33.002Z</time></trkpt><trkpt lat="45.6365105" lon="10.8377086"><ele>581.0</ele><time>2026-04-06T09:43:34.002Z</time></trkpt><trkpt lat="45.6363676" lon="10.837611"><ele>581.0</ele><time>2026-04-06T09:43:35.002Z</time></trkpt><trkpt lat="45.6362299" lon="10.8375637"><ele>581.0</ele><time>2026-04-06T09:43:36.003Z</time></trkpt><trkpt lat="45.6360966" lon="10.8375439"><ele>581.0</ele><time>2026-04-06T09:43:37.002Z</time></trkpt><trkpt lat="45.6359652" lon="10.8375699"><ele>581.0</ele><time>2026-04-06T09:43:38.002Z</time></trkpt><trkpt lat="45.6358264" lon="10.837625"><ele>576.75</ele><time>2026-04-06T09:43:39.002Z</time></trkpt><trkpt lat="45.6356881" lon="10.837655"><ele>572.5</ele><time>2026-04-06T09:43:40.002Z</time></trkpt><trkpt lat="45.6355538" lon="10.837657"><ele>568.25</ele><time>2026-04-06T09:43:41.002Z</time></trkpt><trkpt lat="45.6354209" lon="10.8376421"><ele>564.0</ele><time>2026-04-06T09:43:42.002Z</time></trkpt><trkpt lat="45.6352919" lon="10.8376177"><ele>563.25</ele><time>2026-04-06T09:43:43.002Z</time></trkpt><trkpt lat="45.6351672" lon="10.8375718"><ele>562.5</ele><time>2026-04-06T09:43:44.003Z</time></trkpt><trkpt lat="45.6350471" lon="10.8374935"><ele>561.75</ele><time>2026-04-06T09:43:45.003Z</time></trkpt><trkpt lat="45.6349261" lon="10.8373884"><ele>561.0</ele><time>2026-04-06T09:43:46.003Z</time></trkpt><trkpt lat="45.6347959" lon="10.8372693"><ele>561.0</ele><time>2026-04-06T09:43:47.002Z</time></trkpt><trkpt lat="45.634663" lon="10.8371442"><ele>561.0</ele><time>2026-04-06T09:43:48.002Z</time></trkpt><trkpt lat="45.6345244" lon="10.837011"><ele>561.0</ele><time>2026-04-06T09:43:49.002Z</time></trkpt><trkpt lat="45.6343921" lon="10.8368789"><ele>561.3333333333334</ele><time>2026-04-06T09:43:50.002Z</time></trkpt><trkpt lat="45.6342635" lon="10.8367497"><ele>561.6666666666667</ele><time>2026-04-06T09:43:51.002Z</time></trkpt><trkpt lat="45.6341398" lon="10.8366247"><ele>562.0</ele><time>2026-04-06T09:43:52.002Z</time></trkpt><trkpt lat="45.6340203" lon="10.8365135"><ele>562.0</ele><time>2026-04-06T09:43:53.002Z</time></trkpt><trkpt lat="45.6338956" lon="10.8364219"><ele>562.0</ele><time>2026-04-06T09:43:54.002Z</time></trkpt><trkpt lat="45.6337582" lon="10.8363457"><ele>562.0</ele><time>2026-04-06T09:43:55.002Z</time></trkpt><trkpt lat="45.6336151" lon="10.8363003"><ele>562.0</ele><time>2026-04-06T09:43:56.002Z</time></trkpt><trkpt lat="45.6334792" lon="10.8362638"><ele>556.75</ele><time>2026-04-06T09:43:57.003Z</time></trkpt><trkpt lat="45.6333447" lon="10.8362229"><ele>551.5</ele><time>2026-04-06T09:43:58.003Z</time></trkpt><trkpt lat="45.6332063" lon="10.836161"><ele>546.25</ele><time>2026-04-06T09:43:59.002Z</time></trkpt><trkpt lat="45.6330637" lon="10.836075"><ele>541.0</ele><time>2026-04-06T09:44:00.003Z</time></trkpt><trkpt lat="45.632916" lon="10.8359727"><ele>539.0</ele><time>2026-04-06T09:44:01.002Z</time></trkpt><trkpt lat="45.6327579" lon="10.8358414"><ele>537.0</ele><time>2026-04-06T09:44:02.002Z</time></trkpt><trkpt lat="45.6325964" lon="10.8357146"><ele>535.0</ele><time>2026-04-06T09:44:03.002Z</time></trkpt><trkpt lat="45.6324479" lon="10.835594"><ele>535.0</ele><time>2026-04-06T09:44:04.002Z</time></trkpt><trkpt lat="45.632308" lon="10.83548"><ele>535.0</ele><time>2026-04-06T09:44:05.003Z</time></trkpt><trkpt lat="45.6321772" lon="10.8353733"><ele>535.0</ele><time>2026-04-06T09:44:06.002Z</time></trkpt><trkpt lat="45.6320645" lon="10.8352683"><ele>535.0</ele><time>2026-04-06T09:44:07.002Z</time></trkpt><trkpt lat="45.6319721" lon="10.8351536"><ele>534.5</ele><time>2026-04-06T09:44:08.002Z</time></trkpt><trkpt lat="45.6318933" lon="10.8350192"><ele>534.0</ele><time>2026-04-06T09:44:09.003Z</time></trkpt><trkpt lat="45.631843" lon="10.8348546"><ele>533.5</ele><time>2026-04-06T09:44:10.002Z</time></trkpt><trkpt lat="45.6318175" lon="10.8346763"><ele>533.0</ele><time>2026-04-06T09:44:11.003Z</time></trkpt><trkpt lat="45.6318073" lon="10.8344495"><ele>532.5</ele><time>2026-04-06T09:44:12.003Z</time></trkpt><trkpt lat="45.631806" lon="10.834235"><ele>532.0</ele><time>2026-04-06T09:44:13.003Z</time></trkpt><trkpt lat="45.6318083" lon="10.8340272"><ele>531.5</ele><time>2026-04-06T09:44:14.002Z</time></trkpt><trkpt lat="45.631816" lon="10.8338224"><ele>531.0</ele><time>2026-04-06T09:44:15.003Z</time></trkpt><trkpt lat="45.6318207" lon="10.8336126"><ele>530.0</ele><time>2026-04-06T09:44:16.002Z</time></trkpt><trkpt lat="45.6318237" lon="10.8333963"><ele>529.0</ele><time>2026-04-06T09:44:17.003Z</time></trkpt><trkpt lat="45.6318298" lon="10.8331779"><ele>528.0</ele><time>2026-04-06T09:44:18.003Z</time></trkpt><trkpt lat="45.6318337" lon="10.8329516"><ele>528.0</ele><time>2026-04-06T09:44:19.003Z</time></trkpt><trkpt lat="45.6318362" lon="10.8327147"><ele>528.0</ele><time>2026-04-06T09:44:20.003Z</time></trkpt><trkpt lat="45.6318388" lon="10.8324708"><ele>528.0</ele><time>2026-04-06T09:44:21.003Z</time></trkpt><trkpt lat="45.631843" lon="10.8322332"><ele>526.0</ele><time>2026-04-06T09:44:22.002Z</time></trkpt><trkpt lat="45.6318507" lon="10.8320045"><ele>524.0</ele><time>2026-04-06T09:44:23.003Z</time></trkpt><trkpt lat="45.6318584" lon="10.8317831"><ele>522.0</ele><time>2026-04-06T09:44:24.002Z</time></trkpt><trkpt lat="45.6318617" lon="10.8315757"><ele>522.25</ele><time>2026-04-06T09:44:25.002Z</time></trkpt><trkpt lat="45.6318613" lon="10.8313871"><ele>522.5</ele><time>2026-04-06T09:44:26.003Z</time></trkpt><trkpt lat="45.6318497" lon="10.831215"><ele>522.75</ele><time>2026-04-06T09:44:27.002Z</time></trkpt><trkpt lat="45.6318156" lon="10.8310627"><ele>523.0</ele><time>2026-04-06T09:44:28.003Z</time></trkpt><trkpt lat="45.6317566" lon="10.8309201"><ele>523.0</ele><time>2026-04-06T09:44:29.002Z</time></trkpt><trkpt lat="45.6316675" lon="10.8307868"><ele>523.0</ele><time>2026-04-06T09:44:30.003Z</time></trkpt><trkpt lat="45.6315599" lon="10.8306636"><ele>523.0</ele><time>2026-04-06T09:44:31.002Z</time></trkpt><trkpt lat="45.6314366" lon="10.8305545"><ele>523.0</ele><time>2026-04-06T09:44:32.002Z</time></trkpt><trkpt lat="45.631316" lon="10.8304504"><ele>523.0</ele><time>2026-04-06T09:44:33.003Z</time></trkpt><trkpt lat="45.631192" lon="10.830344"><ele>523.0</ele><time>2026-04-06T09:44:34.002Z</time></trkpt><trkpt lat="45.6310698" lon="10.830236"><ele>523.0</ele><time>2026-04-06T09:44:35.003Z</time></trkpt><trkpt lat="45.6309499" lon="10.8301287"><ele>523.0</ele><time>2026-04-06T09:44:36.002Z</time></trkpt><trkpt lat="45.6308241" lon="10.8300177"><ele>521.6666666666667</ele><time>2026-04-06T09:44:37.002Z</time></trkpt><trkpt lat="45.630689" lon="10.8299008"><ele>520.3333333333334</ele><time>2026-04-06T09:44:38.002Z</time></trkpt><trkpt lat="45.6305526" lon="10.8297815"><ele>519.0</ele><time>2026-04-06T09:44:39.002Z</time></trkpt><trkpt lat="45.6304234" lon="10.8296722"><ele>519.0</ele><time>2026-04-06T09:44:40.003Z</time></trkpt><trkpt lat="45.6303081" lon="10.8295756"><ele>519.0</ele><time>2026-04-06T09:44:41.002Z</time></trkpt><trkpt lat="45.630195" lon="10.8294798"><ele>519.0</ele><time>2026-04-06T09:44:42.002Z</time></trkpt><trkpt lat="45.6300882" lon="10.8293902"><ele>519.0</ele><time>2026-04-06T09:44:43.003Z</time></trkpt><trkpt lat="45.6299835" lon="10.8293003"><ele>516.5</ele><time>2026-04-06T09:44:44.002Z</time></trkpt><trkpt lat="45.6298712" lon="10.8292047"><ele>514.0</ele><time>2026-04-06T09:44:45.002Z</time></trkpt><trkpt lat="45.6297565" lon="10.8291048"><ele>511.5</ele><time>2026-04-06T09:44:46.002Z</time></trkpt><trkpt lat="45.6296464" lon="10.8290096"><ele>509.0</ele><time>2026-04-06T09:44:47.003Z</time></trkpt><trkpt lat="45.6295349" lon="10.828916"><ele>506.25</ele><time>2026-04-06T09:44:48.003Z</time></trkpt><trkpt lat="45.6294136" lon="10.8288155"><ele>503.5</ele><time>2026-04-06T09:44:49.003Z</time></trkpt><trkpt lat="45.6292972" lon="10.8287211"><ele>500.75</ele><time>2026-04-06T09:44:50.003Z</time></trkpt><trkpt lat="45.6291775" lon="10.8286388"><ele>498.0</ele><time>2026-04-06T09:44:51.002Z</time></trkpt><trkpt lat="45.6290529" lon="10.8285716"><ele>498.0</ele><time>2026-04-06T09:44:52.002Z</time></trkpt><trkpt lat="45.628915" lon="10.8285184"><ele>498.0</ele><time>2026-04-06T09:44:53.003Z</time></trkpt><trkpt lat="45.6287815" lon="10.8284876"><ele>498.0</ele><time>2026-04-06T09:44:54.003Z</time></trkpt><trkpt lat="45.6286428" lon="10.8284723"><ele>498.0</ele><time>2026-04-06T09:44:55.003Z</time></trkpt><trkpt lat="45.6284929" lon="10.8284689"><ele>500.33333333333337</ele><time>2026-04-06T09:44:56.002Z</time></trkpt><trkpt lat="45.628348" lon="10.8284696"><ele>502.6666666666667</ele><time>2026-04-06T09:44:57.002Z</time></trkpt><trkpt lat="45.628195" lon="10.8284686"><ele>505.0</ele><time>2026-04-06T09:44:58.002Z</time></trkpt><trkpt lat="45.6280298" lon="10.8284678"><ele>505.0</ele><time>2026-04-06T09:44:59.003Z</time></trkpt><trkpt lat="45.6278698" lon="10.8284682"><ele>505.0</ele><time>2026-04-06T09:45:00.003Z</time></trkpt><trkpt lat="45.627718" lon="10.8284636"><ele>505.0</ele><time>2026-04-06T09:45:01.003Z</time></trkpt><trkpt lat="45.6275639" lon="10.8284587"><ele>501.6666666666667</ele><time>2026-04-06T09:45:02.002Z</time></trkpt><trkpt lat="45.6273985" lon="10.8284572"><ele>498.33333333333337</ele><time>2026-04-06T09:45:03.003Z</time></trkpt><trkpt lat="45.6272303" lon="10.828455"><ele>495.0</ele><time>2026-04-06T09:45:04.002Z</time></trkpt><trkpt lat="45.6270638" lon="10.8284472"><ele>492.33333333333337</ele><time>2026-04-06T09:45:05.003Z</time></trkpt><trkpt lat="45.6269014" lon="10.8284236"><ele>489.6666666666667</ele><time>2026-04-06T09:45:06.003Z</time></trkpt><trkpt lat="45.6267193" lon="10.8283707"><ele>487.0</ele><time>2026-04-06T09:45:07.002Z</time></trkpt><trkpt lat="45.6265193" lon="10.8282885"><ele>487.0</ele><time>2026-04-06T09:45:08.002Z</time></trkpt><trkpt lat="45.6263279" lon="10.8281995"><ele>487.0</ele><time>2026-04-06T09:45:09.003Z</time></trkpt><trkpt lat="45.626138" lon="10.8281087"><ele>487.0</ele><time>2026-04-06T09:45:10.002Z</time></trkpt><trkpt lat="45.6259549" lon="10.8280246"><ele>482.6666666666667</ele><time>2026-04-06T09:45:11.002Z</time></trkpt><trkpt lat="45.6257707" lon="10.8279555"><ele>478.33333333333337</ele><time>2026-04-06T09:45:12.002Z</time></trkpt><trkpt lat="45.6255708" lon="10.8279031"><ele>474.0</ele><time>2026-04-06T09:45:13.002Z</time></trkpt><trkpt lat="45.6253586" lon="10.8278706"><ele>469.66666666666663</ele><time>2026-04-06T09:45:14.002Z</time></trkpt><trkpt lat="45.625145" lon="10.8278488"><ele>465.3333333333333</ele><time>2026-04-06T09:45:15.003Z</time></trkpt><trkpt lat="45.6249386" lon="10.8278295"><ele>461.0</ele><time>2026-04-06T09:45:16.003Z</time></trkpt><trkpt lat="45.6247356" lon="10.8278099"><ele>461.0</ele><time>2026-04-06T09:45:17.002Z</time></trkpt><trkpt lat="45.6245289" lon="10.8277885"><ele>461.0</ele><time>2026-04-06T09:45:18.002Z</time></trkpt><trkpt lat="45.624318" lon="10.8277649"><ele>461.0</ele><time>2026-04-06T09:45:19.003Z</time></trkpt><trkpt lat="45.6241011" lon="10.8277436"><ele>457.0</ele><time>2026-04-06T09:45:20.002Z</time></trkpt><trkpt lat="45.6238921" lon="10.827724"><ele>453.0</ele><time>2026-04-06T09:45:21.002Z</time></trkpt><trkpt lat="45.6237016" lon="10.8277049"><ele>449.0</ele><time>2026-04-06T09:45:22.002Z</time></trkpt><trkpt lat="45.6235308" lon="10.8276857"><ele>447.0</ele><time>2026-04-06T09:45:23.003Z</time></trkpt><trkpt lat="45.6233647" lon="10.8276643"><ele>445.0</ele><time>2026-04-06T09:45:24.002Z</time></trkpt><trkpt lat="45.6232097" lon="10.8276373"><ele>443.0</ele><time>2026-04-06T09:45:25.002Z</time></trkpt><trkpt lat="45.6230686" lon="10.8275943"><ele>443.25</ele><time>2026-04-06T09:45:26.003Z</time></trkpt><trkpt lat="45.62294" lon="10.8275185"><ele>443.5</ele><time>2026-04-06T09:45:27.002Z</time></trkpt><trkpt lat="45.6228252" lon="10.8274078"><ele>443.75</ele><time>2026-04-06T09:45:28.002Z</time></trkpt><trkpt lat="45.6227267" lon="10.8272623"><ele>444.0</ele><time>2026-04-06T09:45:29.002Z</time></trkpt><trkpt lat="45.622649" lon="10.8270779"><ele>444.0</ele><time>2026-04-06T09:45:30.003Z</time></trkpt><trkpt lat="45.6225926" lon="10.8268532"><ele>444.0</ele><time>2026-04-06T09:45:31.002Z</time></trkpt><trkpt lat="45.6225547" lon="10.8266002"><ele>444.0</ele><time>2026-04-06T09:45:32.003Z</time></trkpt><trkpt lat="45.6225192" lon="10.8263099"><ele>444.0</ele><time>2026-04-06T09:45:33.002Z</time></trkpt><trkpt lat="45.6224782" lon="10.8260006"><ele>444.0</ele><time>2026-04-06T09:45:34.003Z</time></trkpt><trkpt lat="45.6224397" lon="10.8257163"><ele>444.0</ele><time>2026-04-06T09:45:35.002Z</time></trkpt><trkpt lat="45.6224042" lon="10.8254638"><ele>444.0</ele><time>2026-04-06T09:45:36.002Z</time></trkpt><trkpt lat="45.6223652" lon="10.8252534"><ele>444.0</ele><time>2026-04-06T09:45:37.002Z</time></trkpt><trkpt lat="45.6223146" lon="10.8250592"><ele>444.0</ele><time>2026-04-06T09:45:38.003Z</time></trkpt><trkpt lat="45.6222344" lon="10.8249116"><ele>444.0</ele><time>2026-04-06T09:45:39.002Z</time></trkpt><trkpt lat="45.6221288" lon="10.8247775"><ele>445.66666666666663</ele><time>2026-04-06T09:45:40.003Z</time></trkpt><trkpt lat="45.6219922" lon="10.8246517"><ele>447.3333333333333</ele><time>2026-04-06T09:45:41.002Z</time></trkpt><trkpt lat="45.6218362" lon="10.8245207"><ele>449.0</ele><time>2026-04-06T09:45:42.002Z</time></trkpt><trkpt lat="45.6216641" lon="10.824372"><ele>446.0</ele><time>2026-04-06T09:45:43.002Z</time></trkpt><trkpt lat="45.6214991" lon="10.8242316"><ele>443.0</ele><time>2026-04-06T09:45:44.003Z</time></trkpt><trkpt lat="45.6213422" lon="10.8240991"><ele>440.0</ele><time>2026-04-06T09:45:45.002Z</time></trkpt><trkpt lat="45.6211895" lon="10.8239744"><ele>435.0</ele><time>2026-04-06T09:45:46.003Z</time></trkpt><trkpt lat="45.6210288" lon="10.8238481"><ele>430.0</ele><time>2026-04-06T09:45:47.003Z</time></trkpt><trkpt lat="45.6208736" lon="10.8237232"><ele>425.0</ele><time>2026-04-06T09:45:48.003Z</time></trkpt><trkpt lat="45.6207308" lon="10.8235963"><ele>423.3333333333333</ele><time>2026-04-06T09:45:49.003Z</time></trkpt><trkpt lat="45.620587" lon="10.8234428"><ele>421.66666666666663</ele><time>2026-04-06T09:45:50.003Z</time></trkpt><trkpt lat="45.6204412" lon="10.8232647"><ele>420.0</ele><time>2026-04-06T09:45:51.002Z</time></trkpt><trkpt lat="45.6202882" lon="10.8230684"><ele>420.0</ele><time>2026-04-06T09:45:52.003Z</time></trkpt><trkpt lat="45.6201415" lon="10.8228714"><ele>420.0</ele><time>2026-04-06T09:45:53.002Z</time></trkpt><trkpt lat="45.6200014" lon="10.8226863"><ele>420.0</ele><time>2026-04-06T09:45:54.002Z</time></trkpt><trkpt lat="45.6198735" lon="10.822515"><ele>422.33333333333337</ele><time>2026-04-06T09:45:55.002Z</time></trkpt><trkpt lat="45.6197623" lon="10.8223602"><ele>424.6666666666667</ele><time>2026-04-06T09:45:56.003Z</time></trkpt><trkpt lat="45.6196486" lon="10.8222087"><ele>427.0</ele><time>2026-04-06T09:45:57.002Z</time></trkpt><trkpt lat="45.6195356" lon="10.8220553"><ele>424.0</ele><time>2026-04-06T09:45:58.003Z</time></trkpt><trkpt lat="45.6194258" lon="10.8219022"><ele>421.0</ele><time>2026-04-06T09:45:59.003Z</time></trkpt><trkpt lat="45.6193282" lon="10.8217522"><ele>418.0</ele><time>2026-04-06T09:46:00.003Z</time></trkpt><trkpt lat="45.6192561" lon="10.8215876"><ele>415.0</ele><time>2026-04-06T09:46:01.003Z</time></trkpt><trkpt lat="45.6192062" lon="10.8213961"><ele>415.0</ele><time>2026-04-06T09:46:02.003Z</time></trkpt><trkpt lat="45.6191722" lon="10.821166"><ele>415.0</ele><time>2026-04-06T09:46:03.003Z</time></trkpt><trkpt lat="45.6191485" lon="10.8209015"><ele>415.0</ele><time>2026-04-06T09:46:04.002Z</time></trkpt><trkpt lat="45.6191226" lon="10.8206415"><ele>414.6666666666667</ele><time>2026-04-06T09:46:05.002Z</time></trkpt><trkpt lat="45.6191028" lon="10.8203999"><ele>414.33333333333337</ele><time>2026-04-06T09:46:06.003Z</time></trkpt><trkpt lat="45.6190834" lon="10.8201807"><ele>414.0</ele><time>2026-04-06T09:46:07.002Z</time></trkpt><trkpt lat="45.6190616" lon="10.8199895"><ele>414.0</ele><time>2026-04-06T09:46:08.002Z</time></trkpt><trkpt lat="45.6190335" lon="10.8198334"><ele>414.0</ele><time>2026-04-06T09:46:09.002Z</time></trkpt><trkpt lat="45.6189854" lon="10.8197044"><ele>414.0</ele><time>2026-04-06T09:46:10.003Z</time></trkpt><trkpt lat="45.618917" lon="10.8196192"><ele>414.0</ele><time>2026-04-06T09:46:11.003Z</time></trkpt><trkpt lat="45.6188325" lon="10.8195794"><ele>414.0</ele><time>2026-04-06T09:46:12.003Z</time></trkpt><trkpt lat="45.6187316" lon="10.8195816"><ele>409.79999999999995</ele><time>2026-04-06T09:46:13.003Z</time></trkpt><trkpt lat="45.6186446" lon="10.8196298"><ele>405.59999999999997</ele><time>2026-04-06T09:46:14.003Z</time></trkpt><trkpt lat="45.61857" lon="10.8197276"><ele>401.4</ele><time>2026-04-06T09:46:15.002Z</time></trkpt><trkpt lat="45.6185159" lon="10.819873"><ele>397.2</ele><time>2026-04-06T09:46:16.002Z</time></trkpt><trkpt lat="45.618494" lon="10.8200505"><ele>393.0</ele><time>2026-04-06T09:46:17.002Z</time></trkpt><trkpt lat="45.6184902" lon="10.8202733"><ele>393.0</ele><time>2026-04-06T09:46:18.002Z</time></trkpt><trkpt lat="45.6184912" lon="10.8205313"><ele>393.0</ele><time>2026-04-06T09:46:19.003Z</time></trkpt><trkpt lat="45.6184906" lon="10.8207771"><ele>393.0</ele><time>2026-04-06T09:46:20.002Z</time></trkpt><trkpt lat="45.6184931" lon="10.8210305"><ele>391.66666666666663</ele><time>2026-04-06T09:46:21.003Z</time></trkpt><trkpt lat="45.6184925" lon="10.8212724"><ele>390.3333333333333</ele><time>2026-04-06T09:46:22.003Z</time></trkpt><trkpt lat="45.6184941" lon="10.8215107"><ele>389.0</ele><time>2026-04-06T09:46:23.002Z</time></trkpt><trkpt lat="45.6184947" lon="10.8217435"><ele>387.3333333333333</ele><time>2026-04-06T09:46:24.002Z</time></trkpt><trkpt lat="45.6184957" lon="10.8219742"><ele>385.66666666666663</ele><time>2026-04-06T09:46:25.003Z</time></trkpt><trkpt lat="45.6185028" lon="10.8222041"><ele>384.0</ele><time>2026-04-06T09:46:26.002Z</time></trkpt><trkpt lat="45.6185136" lon="10.8224357"><ele>382.6666666666667</ele><time>2026-04-06T09:46:27.003Z</time></trkpt><trkpt lat="45.6185259" lon="10.8226655"><ele>381.33333333333337</ele><time>2026-04-06T09:46:28.003Z</time></trkpt><trkpt lat="45.6185381" lon="10.8228927"><ele>380.0</ele><time>2026-04-06T09:46:29.003Z</time></trkpt><trkpt lat="45.6185483" lon="10.8231153"><ele>380.0</ele><time>2026-04-06T09:46:30.002Z</time></trkpt><trkpt lat="45.6185582" lon="10.8233205"><ele>380.0</ele><time>2026-04-06T09:46:31.002Z</time></trkpt><trkpt lat="45.6185638" lon="10.8234991"><ele>380.0</ele><time>2026-04-06T09:46:32.002Z</time></trkpt><trkpt lat="45.6185641" lon="10.8236587"><ele>380.0</ele><time>2026-04-06T09:46:33.003Z</time></trkpt><trkpt lat="45.6185566" lon="10.8237973"><ele>380.5</ele><time>2026-04-06T09:46:34.002Z</time></trkpt><trkpt lat="45.6185298" lon="10.8239191"><ele>381.0</ele><time>2026-04-06T09:46:35.003Z</time></trkpt><trkpt lat="45.6184811" lon="10.8240215"><ele>381.5</ele><time>2026-04-06T09:46:36.003Z</time></trkpt><trkpt lat="45.6184151" lon="10.824092"><ele>382.0</ele><time>2026-04-06T09:46:37.002Z</time></trkpt><trkpt lat="45.6183357" lon="10.824125"><ele>382.5</ele><time>2026-04-06T09:46:38.003Z</time></trkpt><trkpt lat="45.6182467" lon="10.8241074"><ele>383.0</ele><time>2026-04-06T09:46:39.002Z</time></trkpt><trkpt lat="45.6181698" lon="10.8240405"><ele>383.0</ele><time>2026-04-06T09:46:40.003Z</time></trkpt><trkpt lat="45.6181113" lon="10.8239335"><ele>383.0</ele><time>2026-04-06T09:46:41.002Z</time></trkpt><trkpt lat="45.618063" lon="10.823779"><ele>383.0</ele><time>2026-04-06T09:46:42.003Z</time></trkpt><trkpt lat="45.618024" lon="10.8235704"><ele>383.0</ele><time>2026-04-06T09:46:43.003Z</time></trkpt><trkpt lat="45.6179844" lon="10.8233212"><ele>383.33333333333337</ele><time>2026-04-06T09:46:44.002Z</time></trkpt><trkpt lat="45.6179459" lon="10.8230848"><ele>383.6666666666667</ele><time>2026-04-06T09:46:45.002Z</time></trkpt><trkpt lat="45.6179017" lon="10.8228519"><ele>384.0</ele><time>2026-04-06T09:46:46.003Z</time></trkpt><trkpt lat="45.617841" lon="10.8226349"><ele>376.6666666666667</ele><time>2026-04-06T09:46:47.002Z</time></trkpt><trkpt lat="45.6177649" lon="10.8224327"><ele>369.33333333333337</ele><time>2026-04-06T09:46:48.003Z</time></trkpt><trkpt lat="45.6176834" lon="10.8222428"><ele>362.0</ele><time>2026-04-06T09:46:49.002Z</time></trkpt><trkpt lat="45.6176054" lon="10.8220541"><ele>362.0</ele><time>2026-04-06T09:46:50.003Z</time></trkpt><trkpt lat="45.6175379" lon="10.8218539"><ele>362.0</ele><time>2026-04-06T09:46:51.003Z</time></trkpt><trkpt lat="45.6174821" lon="10.8216256"><ele>362.0</ele><time>2026-04-06T09:46:52.003Z</time></trkpt><trkpt lat="45.6174356" lon="10.8213771"><ele>362.0</ele><time>2026-04-06T09:46:53.002Z</time></trkpt><trkpt lat="45.6173945" lon="10.8211416"><ele>362.0</ele><time>2026-04-06T09:46:54.002Z</time></trkpt><trkpt lat="45.6173545" lon="10.8209089"><ele>362.0</ele><time>2026-04-06T09:46:55.003Z</time></trkpt><trkpt lat="45.6173072" lon="10.8206845"><ele>362.33333333333337</ele><time>2026-04-06T09:46:56.002Z</time></trkpt><trkpt lat="45.6172532" lon="10.8204691"><ele>362.6666666666667</ele><time>2026-04-06T09:46:57.002Z</time></trkpt><trkpt lat="45.6171977" lon="10.8202529"><ele>363.0</ele><time>2026-04-06T09:46:58.002Z</time></trkpt><trkpt lat="45.6171353" lon="10.820029"><ele>364.3333333333333</ele><time>2026-04-06T09:46:59.003Z</time></trkpt><trkpt lat="45.6170669" lon="10.8198204"><ele>365.66666666666663</ele><time>2026-04-06T09:47:00.003Z</time></trkpt><trkpt lat="45.6169887" lon="10.8196173"><ele>367.0</ele><time>2026-04-06T09:47:01.003Z</time></trkpt><trkpt lat="45.6168974" lon="10.8194072"><ele>361.0</ele><time>2026-04-06T09:47:02.003Z</time></trkpt><trkpt lat="45.6168041" lon="10.819196"><ele>355.0</ele><time>2026-04-06T09:47:03.002Z</time></trkpt><trkpt lat="45.6167137" lon="10.8189971"><ele>349.0</ele><time>2026-04-06T09:47:04.003Z</time></trkpt><trkpt lat="45.6166243" lon="10.8188038"><ele>349.0</ele><time>2026-04-06T09:47:05.003Z</time></trkpt><trkpt lat="45.6165383" lon="10.818616"><ele>349.0</ele><time>2026-04-06T09:47:06.003Z</time></trkpt><trkpt lat="45.6164565" lon="10.8184339"><ele>349.0</ele><time>2026-04-06T09:47:07.002Z</time></trkpt><trkpt lat="45.6163768" lon="10.8182579"><ele>350.0</ele><time>2026-04-06T09:47:08.003Z</time></trkpt><trkpt lat="45.616302" lon="10.8180912"><ele>351.0</ele><time>2026-04-06T09:47:09.002Z</time></trkpt><trkpt lat="45.6162341" lon="10.8179349"><ele>352.0</ele><time>2026-04-06T09:47:10.003Z</time></trkpt><trkpt lat="45.6161776" lon="10.8178015"><ele>353.0</ele><time>2026-04-06T09:47:11.002Z</time></trkpt><trkpt lat="45.6161211" lon="10.8176879"><ele>349.0</ele><time>2026-04-06T09:47:12.003Z</time></trkpt><trkpt lat="45.616053" lon="10.8175903"><ele>345.0</ele><time>2026-04-06T09:47:13.002Z</time></trkpt><trkpt lat="45.6159521" lon="10.8174938"><ele>341.0</ele><time>2026-04-06T09:47:14.002Z</time></trkpt><trkpt lat="45.6158187" lon="10.8173866"><ele>337.0</ele><time>2026-04-06T09:47:15.003Z</time></trkpt><trkpt lat="45.6156583" lon="10.817271"><ele>337.0</ele><time>2026-04-06T09:47:16.002Z</time></trkpt><trkpt lat="45.6154812" lon="10.8171576"><ele>337.0</ele><time>2026-04-06T09:47:17.002Z</time></trkpt><trkpt lat="45.6152889" lon="10.8170361"><ele>337.0</ele><time>2026-04-06T09:47:18.002Z</time></trkpt><trkpt lat="45.61511" lon="10.8169205"><ele>333.66666666666663</ele><time>2026-04-06T09:47:19.003Z</time></trkpt><trkpt lat="45.6149365" lon="10.8168173"><ele>330.3333333333333</ele><time>2026-04-06T09:47:20.003Z</time></trkpt><trkpt lat="45.6147513" lon="10.816743"><ele>327.0</ele><time>2026-04-06T09:47:21.002Z</time></trkpt><trkpt lat="45.6145307" lon="10.8166997"><ele>322.5</ele><time>2026-04-06T09:47:22.002Z</time></trkpt><trkpt lat="45.6143044" lon="10.8166745"><ele>318.0</ele><time>2026-04-06T09:47:23.002Z</time></trkpt><trkpt lat="45.6140564" lon="10.8166485"><ele>318.0</ele><time>2026-04-06T09:47:24.003Z</time></trkpt><trkpt lat="45.6138072" lon="10.8166272"><ele>318.0</ele><time>2026-04-06T09:47:25.003Z</time></trkpt><trkpt lat="45.6135485" lon="10.816606"><ele>314.5</ele><time>2026-04-06T09:47:26.003Z</time></trkpt><trkpt lat="45.6132916" lon="10.8165854"><ele>311.0</ele><time>2026-04-06T09:47:27.002Z</time></trkpt><trkpt lat="45.613038" lon="10.8165624"><ele>307.0</ele><time>2026-04-06T09:47:28.002Z</time></trkpt><trkpt lat="45.6127949" lon="10.8165374"><ele>303.0</ele><time>2026-04-06T09:47:29.003Z</time></trkpt><trkpt lat="45.6125687" lon="10.8165191"><ele>303.0</ele><time>2026-04-06T09:47:30.003Z</time></trkpt><trkpt lat="45.6123615" lon="10.8165139"><ele>303.0</ele><time>2026-04-06T09:47:31.003Z</time></trkpt><trkpt lat="45.6121594" lon="10.8165377"><ele>303.0</ele><time>2026-04-06T09:47:32.003Z</time></trkpt><trkpt lat="45.6119431" lon="10.8166059"><ele>302.0</ele><time>2026-04-06T09:47:33.003Z</time></trkpt><trkpt lat="45.6117239" lon="10.8166987"><ele>301.0</ele><time>2026-04-06T09:47:34.003Z</time></trkpt><trkpt lat="45.6115155" lon="10.8167878"><ele>300.0</ele><time>2026-04-06T09:47:35.002Z</time></trkpt><trkpt lat="45.6113135" lon="10.8168742"><ele>299.6666666666667</ele><time>2026-04-06T09:47:36.002Z</time></trkpt><trkpt lat="45.611126" lon="10.8169571"><ele>299.33333333333337</ele><time>2026-04-06T09:47:37.003Z</time></trkpt><trkpt lat="45.6109633" lon="10.8170297"><ele>299.0</ele><time>2026-04-06T09:47:38.002Z</time></trkpt><trkpt lat="45.6108081" lon="10.8170888"><ele>299.0</ele><time>2026-04-06T09:47:39.002Z</time></trkpt><trkpt lat="45.610655" lon="10.8171286"><ele>299.0</ele><time>2026-04-06T09:47:40.003Z</time></trkpt><trkpt lat="45.6105004" lon="10.8171453"><ele>299.0</ele><time>2026-04-06T09:47:41.003Z</time></trkpt><trkpt lat="45.6103445" lon="10.8171245"><ele>295.33333333333337</ele><time>2026-04-06T09:47:42.003Z</time></trkpt><trkpt lat="45.610183" lon="10.8171111"><ele>291.6666666666667</ele><time>2026-04-06T09:47:43.002Z</time></trkpt><trkpt lat="45.6100163" lon="10.8171255"><ele>288.0</ele><time>2026-04-06T09:47:44.002Z</time></trkpt><trkpt lat="45.6098493" lon="10.817154"><ele>288.0</ele><time>2026-04-06T09:47:45.003Z</time></trkpt><trkpt lat="45.6097045" lon="10.8171806"><ele>288.0</ele><time>2026-04-06T09:47:46.003Z</time></trkpt><trkpt lat="45.6095616" lon="10.8172082"><ele>288.0</ele><time>2026-04-06T09:47:47.002Z</time></trkpt><trkpt lat="45.6094253" lon="10.8172273"><ele>288.0</ele><time>2026-04-06T09:47:48.003Z</time></trkpt><trkpt lat="45.6092934" lon="10.8172344"><ele>287.5</ele><time>2026-04-06T09:47:49.003Z</time></trkpt><trkpt lat="45.6091631" lon="10.817206"><ele>287.0</ele><time>2026-04-06T09:47:50.002Z</time></trkpt><trkpt lat="45.6090262" lon="10.8171541"><ele>286.5</ele><time>2026-04-06T09:47:51.003Z</time></trkpt><trkpt lat="45.60889" lon="10.8170855"><ele>286.0</ele><time>2026-04-06T09:47:52.003Z</time></trkpt><trkpt lat="45.6087512" lon="10.817011"><ele>285.66666666666663</ele><time>2026-04-06T09:47:53.003Z</time></trkpt><trkpt lat="45.6086135" lon="10.816927"><ele>285.3333333333333</ele><time>2026-04-06T09:47:54.002Z</time></trkpt><trkpt lat="45.6084852" lon="10.8168229"><ele>285.0</ele><time>2026-04-06T09:47:55.002Z</time></trkpt><trkpt lat="45.6083599" lon="10.8166951"><ele>284.25</ele><time>2026-04-06T09:47:56.002Z</time></trkpt><trkpt lat="45.6082467" lon="10.8165704"><ele>283.5</ele><time>2026-04-06T09:47:57.002Z</time></trkpt><trkpt lat="45.6081416" lon="10.8164475"><ele>282.75</ele><time>2026-04-06T09:47:58.003Z</time></trkpt><trkpt lat="45.6080412" lon="10.8163216"><ele>282.0</ele><time>2026-04-06T09:47:59.002Z</time></trkpt><trkpt lat="45.6079379" lon="10.816196"><ele>282.0</ele><time>2026-04-06T09:48:00.002Z</time></trkpt><trkpt lat="45.6078306" lon="10.816079"><ele>282.0</ele><time>2026-04-06T09:48:01.003Z</time></trkpt><trkpt lat="45.6077205" lon="10.8159814"><ele>282.0</ele><time>2026-04-06T09:48:02.002Z</time></trkpt><trkpt lat="45.6076052" lon="10.8159099"><ele>282.0</ele><time>2026-04-06T09:48:03.002Z</time></trkpt><trkpt lat="45.6074675" lon="10.8158642"><ele>282.0</ele><time>2026-04-06T09:48:04.003Z</time></trkpt><trkpt lat="45.6073193" lon="10.815845"><ele>282.0</ele><time>2026-04-06T09:48:05.002Z</time></trkpt><trkpt lat="45.6071705" lon="10.8158353"><ele>282.0</ele><time>2026-04-06T09:48:06.002Z</time></trkpt><trkpt lat="45.607027" lon="10.815833"><ele>282.0</ele><time>2026-04-06T09:48:07.002Z</time></trkpt><trkpt lat="45.6068935" lon="10.8158442"><ele>280.25</ele><time>2026-04-06T09:48:08.002Z</time></trkpt><trkpt lat="45.6067696" lon="10.8158698"><ele>278.5</ele><time>2026-04-06T09:48:09.002Z</time></trkpt><trkpt lat="45.6066589" lon="10.8159066"><ele>276.75</ele><time>2026-04-06T09:48:10.003Z</time></trkpt><trkpt lat="45.6065541" lon="10.8159498"><ele>275.0</ele><time>2026-04-06T09:48:11.003Z</time></trkpt><trkpt lat="45.6064522" lon="10.8159972"><ele>274.5</ele><time>2026-04-06T09:48:12.002Z</time></trkpt><trkpt lat="45.6063492" lon="10.8160432"><ele>274.0</ele><time>2026-04-06T09:48:13.002Z</time></trkpt><trkpt lat="45.6062335" lon="10.8160925"><ele>273.5</ele><time>2026-04-06T09:48:14.002Z</time></trkpt><trkpt lat="45.6061044" lon="10.8161282"><ele>273.0</ele><time>2026-04-06T09:48:15.002Z</time></trkpt><trkpt lat="45.6059527" lon="10.8161414"><ele>272.3333333333333</ele><time>2026-04-06T09:48:16.003Z</time></trkpt><trkpt lat="45.6058032" lon="10.8161342"><ele>271.66666666666663</ele><time>2026-04-06T09:48:17.002Z</time></trkpt><trkpt lat="45.6056511" lon="10.8161155"><ele>271.0</ele><time>2026-04-06T09:48:18.002Z</time></trkpt><trkpt lat="45.6054996" lon="10.8161004"><ele>271.0</ele><time>2026-04-06T09:48:19.003Z</time></trkpt><trkpt lat="45.6053555" lon="10.8160859"><ele>271.0</ele><time>2026-04-06T09:48:20.002Z</time></trkpt><trkpt lat="45.6052091" lon="10.816068"><ele>271.0</ele><time>2026-04-06T09:48:21.003Z</time></trkpt><trkpt lat="45.6050557" lon="10.8160466"><ele>271.0</ele><time>2026-04-06T09:48:22.002Z</time></trkpt><trkpt lat="45.604905" lon="10.8160103"><ele>270.66666666666663</ele><time>2026-04-06T09:48:23.002Z</time></trkpt><trkpt lat="45.6047598" lon="10.8159621"><ele>270.3333333333333</ele><time>2026-04-06T09:48:24.002Z</time></trkpt><trkpt lat="45.6046099" lon="10.8159098"><ele>270.0</ele><time>2026-04-06T09:48:25.002Z</time></trkpt><trkpt lat="45.6044533" lon="10.8158538"><ele>269.0</ele><time>2026-04-06T09:48:26.003Z</time></trkpt><trkpt lat="45.6042887" lon="10.8157938"><ele>268.0</ele><time>2026-04-06T09:48:27.003Z</time></trkpt><trkpt lat="45.6041211" lon="10.8157308"><ele>267.0</ele><time>2026-04-06T09:48:28.003Z</time></trkpt><trkpt lat="45.6039512" lon="10.8156676"><ele>267.0</ele><time>2026-04-06T09:48:29.003Z</time></trkpt><trkpt lat="45.6037918" lon="10.8156055"><ele>267.0</ele><time>2026-04-06T09:48:30.003Z</time></trkpt><trkpt lat="45.6036349" lon="10.8155422"><ele>267.0</ele><time>2026-04-06T09:48:31.002Z</time></trkpt><trkpt lat="45.6034802" lon="10.8154811"><ele>267.0</ele><time>2026-04-06T09:48:32.002Z</time></trkpt><trkpt lat="45.603334" lon="10.8154229"><ele>267.0</ele><time>2026-04-06T09:48:33.003Z</time></trkpt><trkpt lat="45.603197" lon="10.8153694"><ele>267.0</ele><time>2026-04-06T09:48:34.002Z</time></trkpt><trkpt lat="45.6030651" lon="10.8153202"><ele>267.0</ele><time>2026-04-06T09:48:35.002Z</time></trkpt><trkpt lat="45.6029299" lon="10.8152675"><ele>267.25</ele><time>2026-04-06T09:48:36.002Z</time></trkpt><trkpt lat="45.6027959" lon="10.8152126"><ele>267.5</ele><time>2026-04-06T09:48:37.003Z</time></trkpt><trkpt lat="45.6026571" lon="10.8151545"><ele>267.75</ele><time>2026-04-06T09:48:38.003Z</time></trkpt><trkpt lat="45.6025115" lon="10.8150947"><ele>268.0</ele><time>2026-04-06T09:48:39.002Z</time></trkpt><trkpt lat="45.602361" lon="10.8150338"><ele>267.66666666666663</ele><time>2026-04-06T09:48:40.002Z</time></trkpt><trkpt lat="45.6022108" lon="10.8149733"><ele>267.3333333333333</ele><time>2026-04-06T09:48:41.003Z</time></trkpt><trkpt lat="45.6020538" lon="10.8149091"><ele>267.0</ele><time>2026-04-06T09:48:42.002Z</time></trkpt><trkpt lat="45.6018908" lon="10.8148413"><ele>267.0</ele><time>2026-04-06T09:48:43.003Z</time></trkpt><trkpt lat="45.6017234" lon="10.8147702"><ele>267.0</ele><time>2026-04-06T09:48:44.002Z</time></trkpt><trkpt lat="45.6015661" lon="10.8147063"><ele>267.0</ele><time>2026-04-06T09:48:45.003Z</time></trkpt><trkpt lat="45.6014109" lon="10.8146433"><ele>267.0</ele><time>2026-04-06T09:48:46.003Z</time></trkpt><trkpt lat="45.601255" lon="10.8145769"><ele>267.0</ele><time>2026-04-06T09:48:47.002Z</time></trkpt><trkpt lat="45.6010992" lon="10.8145097"><ele>267.0</ele><time>2026-04-06T09:48:48.002Z</time></trkpt><trkpt lat="45.6009431" lon="10.8144417"><ele>267.3333333333333</ele><time>2026-04-06T09:48:49.003Z</time></trkpt><trkpt lat="45.6007863" lon="10.8143741"><ele>267.66666666666663</ele><time>2026-04-06T09:48:50.003Z</time></trkpt><trkpt lat="45.6006302" lon="10.8143116"><ele>268.0</ele><time>2026-04-06T09:48:51.003Z</time></trkpt><trkpt lat="45.6004718" lon="10.8142478"><ele>267.66666666666663</ele><time>2026-04-06T09:48:52.003Z</time></trkpt><trkpt lat="45.6002972" lon="10.8141721"><ele>267.3333333333333</ele><time>2026-04-06T09:48:53.003Z</time></trkpt><trkpt lat="45.6001222" lon="10.8140992"><ele>267.0</ele><time>2026-04-06T09:48:54.002Z</time></trkpt><trkpt lat="45.5999632" lon="10.8140325"><ele>267.0</ele><time>2026-04-06T09:48:55.002Z</time></trkpt><trkpt lat="45.5998111" lon="10.8139668"><ele>267.0</ele><time>2026-04-06T09:48:56.002Z</time></trkpt><trkpt lat="45.5996694" lon="10.8139047"><ele>267.0</ele><time>2026-04-06T09:48:57.002Z</time></trkpt><trkpt lat="45.5995312" lon="10.8138455"><ele>267.0</ele><time>2026-04-06T09:48:58.003Z</time></trkpt><trkpt lat="45.5994023" lon="10.8137938"><ele>267.0</ele><time>2026-04-06T09:48:59.003Z</time></trkpt><trkpt lat="45.5992794" lon="10.8137471"><ele>267.0</ele><time>2026-04-06T09:49:00.003Z</time></trkpt><trkpt lat="45.599156" lon="10.8137097"><ele>267.0</ele><time>2026-04-06T09:49:01.003Z</time></trkpt><trkpt lat="45.5990389" lon="10.8137036"><ele>267.0</ele><time>2026-04-06T09:49:02.002Z</time></trkpt><trkpt lat="45.5989107" lon="10.8137416"><ele>267.0</ele><time>2026-04-06T09:49:03.003Z</time></trkpt><trkpt lat="45.5987622" lon="10.8138377"><ele>267.0</ele><time>2026-04-06T09:49:04.003Z</time></trkpt><trkpt lat="45.5986076" lon="10.8139706"><ele>266.3333333333333</ele><time>2026-04-06T09:49:05.002Z</time></trkpt><trkpt lat="45.5984748" lon="10.8140939"><ele>265.66666666666663</ele><time>2026-04-06T09:49:06.002Z</time></trkpt><trkpt lat="45.5983482" lon="10.8142129"><ele>265.0</ele><time>2026-04-06T09:49:07.002Z</time></trkpt><trkpt lat="45.5982306" lon="10.8143253"><ele>266.0</ele><time>2026-04-06T09:49:08.002Z</time></trkpt><trkpt lat="45.5981232" lon="10.8144327"><ele>267.0</ele><time>2026-04-06T09:49:09.002Z</time></trkpt><trkpt lat="45.598013" lon="10.8145419"><ele>268.0</ele><time>2026-04-06T09:49:10.002Z</time></trkpt><trkpt lat="45.5979051" lon="10.8146415"><ele>269.0</ele><time>2026-04-06T09:49:11.003Z</time></trkpt><trkpt lat="45.5977851" lon="10.8147302"><ele>270.0</ele><time>2026-04-06T09:49:12.002Z</time></trkpt><trkpt lat="45.5976525" lon="10.8147961"><ele>271.0</ele><time>2026-04-06T09:49:13.002Z</time></trkpt><trkpt lat="45.5975134" lon="10.8148468"><ele>272.0</ele><time>2026-04-06T09:49:14.003Z</time></trkpt><trkpt lat="45.5973759" lon="10.8148856"><ele>273.0</ele><time>2026-04-06T09:49:15.003Z</time></trkpt><trkpt lat="45.5972328" lon="10.8149193"><ele>273.0</ele><time>2026-04-06T09:49:16.002Z</time></trkpt><trkpt lat="45.5970777" lon="10.8149577"><ele>273.0</ele><time>2026-04-06T09:49:17.002Z</time></trkpt><trkpt lat="45.5968979" lon="10.8150089"><ele>273.0</ele><time>2026-04-06T09:49:18.003Z</time></trkpt><trkpt lat="45.5967057" lon="10.8150557"><ele>273.3333333333333</ele><time>2026-04-06T09:49:19.003Z</time></trkpt><trkpt lat="45.5964941" lon="10.8150959"><ele>273.66666666666663</ele><time>2026-04-06T09:49:20.002Z</time></trkpt><trkpt lat="45.5963035" lon="10.8151204"><ele>274.0</ele><time>2026-04-06T09:49:21.003Z</time></trkpt><trkpt lat="45.5961582" lon="10.8151348"><ele>272.5</ele><time>2026-04-06T09:49:22.003Z</time></trkpt><trkpt lat="45.5960199" lon="10.815116"><ele>271.0</ele><time>2026-04-06T09:49:23.002Z</time></trkpt><trkpt lat="45.5958946" lon="10.8150431"><ele>269.5</ele><time>2026-04-06T09:49:24.003Z</time></trkpt><trkpt lat="45.5957718" lon="10.8149049"><ele>268.0</ele><time>2026-04-06T09:49:25.003Z</time></trkpt><trkpt lat="45.5956454" lon="10.8147113"><ele>268.0</ele><time>2026-04-06T09:49:26.002Z</time></trkpt><trkpt lat="45.5955027" lon="10.8144814"><ele>268.0</ele><time>2026-04-06T09:49:27.003Z</time></trkpt><trkpt lat="45.5953499" lon="10.814249"><ele>268.0</ele><time>2026-04-06T09:49:28.003Z</time></trkpt><trkpt lat="45.5952146" lon="10.814035"><ele>263.3333333333333</ele><time>2026-04-06T09:49:29.002Z</time></trkpt><trkpt lat="45.5950916" lon="10.8138411"><ele>258.6666666666667</ele><time>2026-04-06T09:49:30.002Z</time></trkpt><trkpt lat="45.5949714" lon="10.8136732"><ele>254.0</ele><time>2026-04-06T09:49:31.002Z</time></trkpt><trkpt lat="45.5948374" lon="10.8135356"><ele>254.33333333333334</ele><time>2026-04-06T09:49:32.002Z</time></trkpt><trkpt lat="45.5946725" lon="10.8134264"><ele>254.66666666666669</ele><time>2026-04-06T09:49:33.003Z</time></trkpt><trkpt lat="45.5945008" lon="10.813362"><ele>255.0</ele><time>2026-04-06T09:49:34.003Z</time></trkpt><trkpt lat="45.5942875" lon="10.8133061"><ele>251.0</ele><time>2026-04-06T09:49:35.002Z</time></trkpt><trkpt lat="45.5940785" lon="10.8132545"><ele>247.0</ele><time>2026-04-06T09:49:36.003Z</time></trkpt><trkpt lat="45.5938632" lon="10.8131971"><ele>243.0</ele><time>2026-04-06T09:49:37.003Z</time></trkpt><trkpt lat="45.5936481" lon="10.8131416"><ele>240.66666666666669</ele><time>2026-04-06T09:49:38.002Z</time></trkpt><trkpt lat="45.5934421" lon="10.8130885"><ele>238.33333333333334</ele><time>2026-04-06T09:49:39.003Z</time></trkpt><trkpt lat="45.5932472" lon="10.813043"><ele>236.0</ele><time>2026-04-06T09:49:40.003Z</time></trkpt><trkpt lat="45.5930767" lon="10.8130234"><ele>236.0</ele><time>2026-04-06T09:49:41.003Z</time></trkpt><trkpt lat="45.5929138" lon="10.8130458"><ele>236.0</ele><time>2026-04-06T09:49:42.003Z</time></trkpt><trkpt lat="45.5927407" lon="10.8131165"><ele>236.0</ele><time>2026-04-06T09:49:43.003Z</time></trkpt><trkpt lat="45.5925539" lon="10.8132344"><ele>234.66666666666669</ele><time>2026-04-06T09:49:44.002Z</time></trkpt><trkpt lat="45.5923607" lon="10.8133779"><ele>233.33333333333331</ele><time>2026-04-06T09:49:45.002Z</time></trkpt><trkpt lat="45.5921803" lon="10.8135124"><ele>232.0</ele><time>2026-04-06T09:49:46.002Z</time></trkpt><trkpt lat="45.5920018" lon="10.8136433"><ele>228.33333333333331</ele><time>2026-04-06T09:49:47.003Z</time></trkpt><trkpt lat="45.5918285" lon="10.8137709"><ele>224.66666666666669</ele><time>2026-04-06T09:49:48.002Z</time></trkpt><trkpt lat="45.5916587" lon="10.8138838"><ele>221.0</ele><time>2026-04-06T09:49:49.003Z</time></trkpt><trkpt lat="45.5914903" lon="10.8139644"><ele>221.0</ele><time>2026-04-06T09:49:50.002Z</time></trkpt><trkpt lat="45.5913115" lon="10.8139959"><ele>221.0</ele><time>2026-04-06T09:49:51.002Z</time></trkpt><trkpt lat="45.5911161" lon="10.8139883"><ele>221.0</ele><time>2026-04-06T09:49:52.002Z</time></trkpt><trkpt lat="45.5908976" lon="10.8139629"><ele>219.0</ele><time>2026-04-06T09:49:53.002Z</time></trkpt><trkpt lat="45.5906594" lon="10.81393"><ele>217.0</ele><time>2026-04-06T09:49:54.003Z</time></trkpt><trkpt lat="45.590428" lon="10.8138889"><ele>214.0</ele><time>2026-04-06T09:49:55.002Z</time></trkpt><trkpt lat="45.5901918" lon="10.8138257"><ele>211.0</ele><time>2026-04-06T09:49:56.002Z</time></trkpt><trkpt lat="45.5899709" lon="10.8137328"><ele>211.0</ele><time>2026-04-06T09:49:57.002Z</time></trkpt><trkpt lat="45.5897642" lon="10.8136322"><ele>211.0</ele><time>2026-04-06T09:49:58.003Z</time></trkpt><trkpt lat="45.5895672" lon="10.8135329"><ele>211.0</ele><time>2026-04-06T09:49:59.003Z</time></trkpt><trkpt lat="45.5893802" lon="10.8134348"><ele>211.0</ele><time>2026-04-06T09:50:00.002Z</time></trkpt><trkpt lat="45.5892013" lon="10.8133394"><ele>211.0</ele><time>2026-04-06T09:50:01.003Z</time></trkpt><trkpt lat="45.5890274" lon="10.8132502"><ele>211.0</ele><time>2026-04-06T09:50:02.003Z</time></trkpt><trkpt lat="45.5888752" lon="10.8131717"><ele>211.0</ele><time>2026-04-06T09:50:03.003Z</time></trkpt><trkpt lat="45.5887539" lon="10.8131067"><ele>211.0</ele><time>2026-04-06T09:50:04.003Z</time></trkpt><trkpt lat="45.5886455" lon="10.8130481"><ele>211.0</ele><time>2026-04-06T09:50:05.003Z</time></trkpt><trkpt lat="45.5885407" lon="10.8129881"><ele>211.0</ele><time>2026-04-06T09:50:06.002Z</time></trkpt><trkpt lat="45.5884375" lon="10.8129287"><ele>210.33333333333331</ele><time>2026-04-06T09:50:07.003Z</time></trkpt><trkpt lat="45.5883143" lon="10.8128633"><ele>209.66666666666669</ele><time>2026-04-06T09:50:08.003Z</time></trkpt><trkpt lat="45.5881734" lon="10.8127875"><ele>209.0</ele><time>2026-04-06T09:50:09.002Z</time></trkpt><trkpt lat="45.5880094" lon="10.8127047"><ele>207.33333333333334</ele><time>2026-04-06T09:50:10.002Z</time></trkpt><trkpt lat="45.58782" lon="10.8126227"><ele>205.66666666666669</ele><time>2026-04-06T09:50:11.002Z</time></trkpt><trkpt lat="45.5876235" lon="10.8125464"><ele>204.0</ele><time>2026-04-06T09:50:12.003Z</time></trkpt><trkpt lat="45.5874386" lon="10.8124782"><ele>204.0</ele><time>2026-04-06T09:50:13.003Z</time></trkpt><trkpt lat="45.5872584" lon="10.8124076"><ele>204.0</ele><time>2026-04-06T09:50:14.002Z</time></trkpt><trkpt lat="45.5870843" lon="10.8123393"><ele>204.0</ele><time>2026-04-06T09:50:15.003Z</time></trkpt><trkpt lat="45.5869152" lon="10.8122777"><ele>202.33333333333331</ele><time>2026-04-06T09:50:16.002Z</time></trkpt><trkpt lat="45.5867507" lon="10.812219"><ele>200.66666666666666</ele><time>2026-04-06T09:50:17.003Z</time></trkpt><trkpt lat="45.5865918" lon="10.8121603"><ele>199.0</ele><time>2026-04-06T09:50:18.003Z</time></trkpt><trkpt lat="45.5864359" lon="10.8120996"><ele>199.0</ele><time>2026-04-06T09:50:19.003Z</time></trkpt><trkpt lat="45.5862796" lon="10.8120193"><ele>199.0</ele><time>2026-04-06T09:50:20.002Z</time></trkpt><trkpt lat="45.5861343" lon="10.811918"><ele>199.0</ele><time>2026-04-06T09:50:21.002Z</time></trkpt><trkpt lat="45.585981" lon="10.8117966"><ele>196.33333333333331</ele><time>2026-04-06T09:50:22.002Z</time></trkpt><trkpt lat="45.585826" lon="10.8116598"><ele>193.66666666666666</ele><time>2026-04-06T09:50:23.002Z</time></trkpt><trkpt lat="45.5856826" lon="10.8115215"><ele>191.0</ele><time>2026-04-06T09:50:24.002Z</time></trkpt><trkpt lat="45.5855471" lon="10.8113863"><ele>191.0</ele><time>2026-04-06T09:50:25.002Z</time></trkpt><trkpt lat="45.5854248" lon="10.8112595"><ele>191.0</ele><time>2026-04-06T09:50:26.002Z</time></trkpt><trkpt lat="45.585315" lon="10.8111409"><ele>191.0</ele><time>2026-04-06T09:50:27.002Z</time></trkpt><trkpt lat="45.585221" lon="10.8110235"><ele>191.0</ele><time>2026-04-06T09:50:28.002Z</time></trkpt><trkpt lat="45.5851389" lon="10.8109075"><ele>190.66666666666666</ele><time>2026-04-06T09:50:29.003Z</time></trkpt><trkpt lat="45.5850687" lon="10.8107972"><ele>190.33333333333331</ele><time>2026-04-06T09:50:30.002Z</time></trkpt><trkpt lat="45.5850028" lon="10.8106894"><ele>190.0</ele><time>2026-04-06T09:50:31.003Z</time></trkpt><trkpt lat="45.5849509" lon="10.8106043"><ele>189.66666666666666</ele><time>2026-04-06T09:50:32.002Z</time></trkpt><trkpt lat="45.5848854" lon="10.8104976"><ele>189.33333333333334</ele><time>2026-04-06T09:50:34.002Z</time></trkpt><trkpt lat="45.5848435" lon="10.8104269"><ele>189.0</ele><time>2026-04-06T09:50:36.003Z</time></trkpt><trkpt lat="45.5847984" lon="10.810358"><ele>189.0</ele><time>2026-04-06T09:50:40.003Z</time></trkpt><trkpt lat="45.5847366" lon="10.810315"><ele>189.0</ele><time>2026-04-06T09:51:01.003Z</time></trkpt><trkpt lat="45.5846703" lon="10.8103847"><ele>189.0</ele><time>2026-04-06T09:51:03.003Z</time></trkpt><trkpt lat="45.5846406" lon="10.8105422"><ele>189.0</ele><time>2026-04-06T09:51:05.003Z</time></trkpt><trkpt lat="45.584639" lon="10.8106551"><ele>189.0</ele><time>2026-04-06T09:51:06.002Z</time></trkpt><trkpt lat="45.5846415" lon="10.8107863"><ele>189.0</ele><time>2026-04-06T09:51:07.002Z</time></trkpt><trkpt lat="45.5846428" lon="10.8109533"><ele>188.75</ele><time>2026-04-06T09:51:08.003Z</time></trkpt><trkpt lat="45.5846427" lon="10.8111305"><ele>188.5</ele><time>2026-04-06T09:51:09.002Z</time></trkpt><trkpt lat="45.5846335" lon="10.8113196"><ele>188.25</ele><time>2026-04-06T09:51:10.003Z</time></trkpt><trkpt lat="45.5846117" lon="10.8115248"><ele>188.0</ele><time>2026-04-06T09:51:11.003Z</time></trkpt><trkpt lat="45.5845828" lon="10.8117448"><ele>187.75</ele><time>2026-04-06T09:51:12.002Z</time></trkpt><trkpt lat="45.5845545" lon="10.8119414"><ele>187.5</ele><time>2026-04-06T09:51:13.002Z</time></trkpt><trkpt lat="45.5845295" lon="10.8121298"><ele>187.25</ele><time>2026-04-06T09:51:14.003Z</time></trkpt><trkpt lat="45.5845034" lon="10.8123275"><ele>187.0</ele><time>2026-04-06T09:51:15.002Z</time></trkpt><trkpt lat="45.584482" lon="10.812539"><ele>187.33333333333334</ele><time>2026-04-06T09:51:16.002Z</time></trkpt><trkpt lat="45.5844776" lon="10.8127421"><ele>187.66666666666666</ele><time>2026-04-06T09:51:17.003Z</time></trkpt><trkpt lat="45.5844906" lon="10.8129538"><ele>188.0</ele><time>2026-04-06T09:51:18.002Z</time></trkpt><trkpt lat="45.5845258" lon="10.8131764"><ele>188.0</ele><time>2026-04-06T09:51:19.002Z</time></trkpt><trkpt lat="45.5845794" lon="10.8134024"><ele>188.0</ele><time>2026-04-06T09:51:20.002Z</time></trkpt><trkpt lat="45.5846393" lon="10.8136187"><ele>188.0</ele><time>2026-04-06T09:51:21.003Z</time></trkpt><trkpt lat="45.5847067" lon="10.8138399"><ele>187.0</ele><time>2026-04-06T09:51:22.003Z</time></trkpt><trkpt lat="45.5847727" lon="10.8140545"><ele>186.0</ele><time>2026-04-06T09:51:23.002Z</time></trkpt><trkpt lat="45.5848359" lon="10.8142619"><ele>185.0</ele><time>2026-04-06T09:51:24.002Z</time></trkpt><trkpt lat="45.5848926" lon="10.8144598"><ele>184.0</ele><time>2026-04-06T09:51:25.003Z</time></trkpt><trkpt lat="45.5849358" lon="10.8146551"><ele>183.0</ele><time>2026-04-06T09:51:26.002Z</time></trkpt><trkpt lat="45.5849567" lon="10.8148555"><ele>182.0</ele><time>2026-04-06T09:51:27.002Z</time></trkpt><trkpt lat="45.5849513" lon="10.8150702"><ele>181.0</ele><time>2026-04-06T09:51:28.002Z</time></trkpt><trkpt lat="45.5849254" lon="10.8152939"><ele>181.0</ele><time>2026-04-06T09:51:29.002Z</time></trkpt><trkpt lat="45.5848924" lon="10.8155154"><ele>181.0</ele><time>2026-04-06T09:51:30.002Z</time></trkpt><trkpt lat="45.5848433" lon="10.8157197"><ele>181.0</ele><time>2026-04-06T09:51:31.002Z</time></trkpt><trkpt lat="45.5847671" lon="10.8159229"><ele>182.25</ele><time>2026-04-06T09:51:32.003Z</time></trkpt><trkpt lat="45.5846803" lon="10.8161072"><ele>183.5</ele><time>2026-04-06T09:51:33.002Z</time></trkpt><trkpt lat="45.5845916" lon="10.8162699"><ele>184.75</ele><time>2026-04-06T09:51:34.002Z</time></trkpt><trkpt lat="45.5845029" lon="10.8164273"><ele>186.0</ele><time>2026-04-06T09:51:35.002Z</time></trkpt><trkpt lat="45.5844219" lon="10.8165753"><ele>182.75</ele><time>2026-04-06T09:51:36.003Z</time></trkpt><trkpt lat="45.5843431" lon="10.8167206"><ele>179.5</ele><time>2026-04-06T09:51:37.003Z</time></trkpt><trkpt lat="45.5842753" lon="10.8168675"><ele>176.25</ele><time>2026-04-06T09:51:38.003Z</time></trkpt><trkpt lat="45.5842224" lon="10.8170218"><ele>173.0</ele><time>2026-04-06T09:51:39.003Z</time></trkpt><trkpt lat="45.5841906" lon="10.8171968"><ele>173.0</ele><time>2026-04-06T09:51:40.003Z</time></trkpt><trkpt lat="45.5841768" lon="10.8173942"><ele>173.0</ele><time>2026-04-06T09:51:41.003Z</time></trkpt><trkpt lat="45.5841722" lon="10.8175982"><ele>173.0</ele><time>2026-04-06T09:51:42.003Z</time></trkpt><trkpt lat="45.5841701" lon="10.8177979"><ele>173.0</ele><time>2026-04-06T09:51:43.002Z</time></trkpt><trkpt lat="45.584167" lon="10.818"><ele>171.75</ele><time>2026-04-06T09:51:44.002Z</time></trkpt><trkpt lat="45.584155" lon="10.8182041"><ele>170.5</ele><time>2026-04-06T09:51:45.003Z</time></trkpt><trkpt lat="45.5841346" lon="10.8184063"><ele>169.25</ele><time>2026-04-06T09:51:46.003Z</time></trkpt><trkpt lat="45.5841168" lon="10.818615"><ele>168.0</ele><time>2026-04-06T09:51:47.003Z</time></trkpt><trkpt lat="45.5841102" lon="10.8188211"><ele>167.25</ele><time>2026-04-06T09:51:48.002Z</time></trkpt><trkpt lat="45.5841205" lon="10.8190243"><ele>166.5</ele><time>2026-04-06T09:51:49.003Z</time></trkpt><trkpt lat="45.584145" lon="10.8192362"><ele>165.75</ele><time>2026-04-06T09:51:50.003Z</time></trkpt><trkpt lat="45.5841789" lon="10.8194354"><ele>165.0</ele><time>2026-04-06T09:51:51.003Z</time></trkpt><trkpt lat="45.5842132" lon="10.8196052"><ele>164.2</ele><time>2026-04-06T09:51:52.002Z</time></trkpt><trkpt lat="45.5842468" lon="10.8197595"><ele>163.4</ele><time>2026-04-06T09:51:53.002Z</time></trkpt><trkpt lat="45.5842729" lon="10.8198926"><ele>162.60000000000002</ele><time>2026-04-06T09:51:54.002Z</time></trkpt><trkpt lat="45.5842883" lon="10.8200092"><ele>161.8</ele><time>2026-04-06T09:51:55.002Z</time></trkpt><trkpt lat="45.5842923" lon="10.8201109"><ele>161.0</ele><time>2026-04-06T09:51:56.002Z</time></trkpt><trkpt lat="45.5842324" lon="10.8202517"><ele>161.0</ele><time>2026-04-06T09:51:58.002Z</time></trkpt><trkpt lat="45.5841105" lon="10.8202623"><ele>161.0</ele><time>2026-04-06T09:52:00.003Z</time></trkpt><trkpt lat="45.5840468" lon="10.8202049"><ele>161.0</ele><time>2026-04-06T09:52:01.002Z</time></trkpt><trkpt lat="45.5839709" lon="10.8200929"><ele>161.0</ele><time>2026-04-06T09:52:02.002Z</time></trkpt><trkpt lat="45.583899" lon="10.8199508"><ele>161.0</ele><time>2026-04-06T09:52:03.003Z</time></trkpt><trkpt lat="45.5838337" lon="10.8197972"><ele>161.0</ele><time>2026-04-06T09:52:04.003Z</time></trkpt><trkpt lat="45.583779" lon="10.8196183"><ele>161.0</ele><time>2026-04-06T09:52:05.003Z</time></trkpt><trkpt lat="45.5837423" lon="10.8194257"><ele>161.0</ele><time>2026-04-06T09:52:06.003Z</time></trkpt><trkpt lat="45.5837146" lon="10.8192401"><ele>161.0</ele><time>2026-04-06T09:52:07.002Z</time></trkpt><trkpt lat="45.5836917" lon="10.8190665"><ele>158.0</ele><time>2026-04-06T09:52:08.002Z</time></trkpt><trkpt lat="45.5836676" lon="10.8189113"><ele>155.0</ele><time>2026-04-06T09:52:09.002Z</time></trkpt><trkpt lat="45.583639" lon="10.8187724"><ele>152.0</ele><time>2026-04-06T09:52:10.002Z</time></trkpt><trkpt lat="45.5836019" lon="10.8186523"><ele>149.0</ele><time>2026-04-06T09:52:11.002Z</time></trkpt><trkpt lat="45.583552" lon="10.8185548"><ele>146.0</ele><time>2026-04-06T09:52:12.002Z</time></trkpt><trkpt lat="45.5834863" lon="10.8184982"><ele>146.0</ele><time>2026-04-06T09:52:13.002Z</time></trkpt><trkpt lat="45.5834153" lon="10.8184858"><ele>146.0</ele><time>2026-04-06T09:52:14.003Z</time></trkpt><trkpt lat="45.5833463" lon="10.8185153"><ele>146.0</ele><time>2026-04-06T09:52:15.002Z</time></trkpt><trkpt lat="45.583291" lon="10.818585"><ele>146.0</ele><time>2026-04-06T09:52:16.003Z</time></trkpt><trkpt lat="45.5832587" lon="10.8186845"><ele>146.0</ele><time>2026-04-06T09:52:17.003Z</time></trkpt><trkpt lat="45.583248" lon="10.818807"><ele>146.0</ele><time>2026-04-06T09:52:18.003Z</time></trkpt><trkpt lat="45.5832588" lon="10.8189532"><ele>146.0</ele><time>2026-04-06T09:52:19.002Z</time></trkpt><trkpt lat="45.5832859" lon="10.8191178"><ele>146.0</ele><time>2026-04-06T09:52:20.002Z</time></trkpt><trkpt lat="45.5832998" lon="10.8192797"><ele>146.0</ele><time>2026-04-06T09:52:21.003Z</time></trkpt><trkpt lat="45.5832897" lon="10.8194396"><ele>146.0</ele><time>2026-04-06T09:52:22.002Z</time></trkpt><trkpt lat="45.5832617" lon="10.8196071"><ele>144.25</ele><time>2026-04-06T09:52:23.003Z</time></trkpt><trkpt lat="45.5832155" lon="10.8197608"><ele>142.5</ele><time>2026-04-06T09:52:24.003Z</time></trkpt><trkpt lat="45.5831527" lon="10.8198983"><ele>140.75</ele><time>2026-04-06T09:52:25.003Z</time></trkpt><trkpt lat="45.5830738" lon="10.8200191"><ele>139.0</ele><time>2026-04-06T09:52:26.002Z</time></trkpt><trkpt lat="45.5829974" lon="10.8201368"><ele>138.0</ele><time>2026-04-06T09:52:27.002Z</time></trkpt><trkpt lat="45.5829481" lon="10.8202553"><ele>137.0</ele><time>2026-04-06T09:52:28.003Z</time></trkpt><trkpt lat="45.5829109" lon="10.8204006"><ele>136.0</ele><time>2026-04-06T09:52:29.003Z</time></trkpt><trkpt lat="45.5828806" lon="10.8205893"><ele>135.0</ele><time>2026-04-06T09:52:30.002Z</time></trkpt><trkpt lat="45.5828665" lon="10.8208013"><ele>133.0</ele><time>2026-04-06T09:52:31.002Z</time></trkpt><trkpt lat="45.5828704" lon="10.8210225"><ele>131.0</ele><time>2026-04-06T09:52:32.003Z</time></trkpt><trkpt lat="45.5828963" lon="10.8212632"><ele>129.0</ele><time>2026-04-06T09:52:33.003Z</time></trkpt><trkpt lat="45.5829332" lon="10.8214909"><ele>129.0</ele><time>2026-04-06T09:52:34.002Z</time></trkpt><trkpt lat="45.5829737" lon="10.8217149"><ele>129.0</ele><time>2026-04-06T09:52:35.002Z</time></trkpt><trkpt lat="45.5830109" lon="10.8219356"><ele>129.0</ele><time>2026-04-06T09:52:36.002Z</time></trkpt><trkpt lat="45.583045" lon="10.8221524"><ele>127.0</ele><time>2026-04-06T09:52:37.003Z</time></trkpt><trkpt lat="45.5830778" lon="10.8223694"><ele>125.0</ele><time>2026-04-06T09:52:38.002Z</time></trkpt><trkpt lat="45.5831106" lon="10.8225884"><ele>123.0</ele><time>2026-04-06T09:52:39.003Z</time></trkpt><trkpt lat="45.5831439" lon="10.8228033"><ele>122.25</ele><time>2026-04-06T09:52:40.002Z</time></trkpt><trkpt lat="45.5831815" lon="10.8230113"><ele>121.5</ele><time>2026-04-06T09:52:41.003Z</time></trkpt><trkpt lat="45.5832228" lon="10.8231922"><ele>120.75</ele><time>2026-04-06T09:52:42.003Z</time></trkpt><trkpt lat="45.5832876" lon="10.8233359"><ele>120.0</ele><time>2026-04-06T09:52:43.002Z</time></trkpt><trkpt lat="45.5833775" lon="10.8234496"><ele>117.0</ele><time>2026-04-06T09:52:44.002Z</time></trkpt><trkpt lat="45.5834921" lon="10.8235301"><ele>114.0</ele><time>2026-04-06T09:52:45.002Z</time></trkpt><trkpt lat="45.5836388" lon="10.8235855"><ele>111.0</ele><time>2026-04-06T09:52:46.002Z</time></trkpt><trkpt lat="45.5838179" lon="10.8236341"><ele>110.33333333333334</ele><time>2026-04-06T09:52:47.003Z</time></trkpt><trkpt lat="45.5839887" lon="10.8236809"><ele>109.66666666666667</ele><time>2026-04-06T09:52:48.003Z</time></trkpt><trkpt lat="45.5841524" lon="10.8237336"><ele>109.0</ele><time>2026-04-06T09:52:49.002Z</time></trkpt><trkpt lat="45.5842936" lon="10.823785"><ele>109.0</ele><time>2026-04-06T09:52:50.002Z</time></trkpt><trkpt lat="45.5844166" lon="10.8238532"><ele>109.0</ele><time>2026-04-06T09:52:51.003Z</time></trkpt><trkpt lat="45.5845184" lon="10.8239574"><ele>109.0</ele><time>2026-04-06T09:52:52.002Z</time></trkpt><trkpt lat="45.5846091" lon="10.8241101"><ele>109.0</ele><time>2026-04-06T09:52:53.003Z</time></trkpt><trkpt lat="45.5846964" lon="10.8243158"><ele>118.66666666666667</ele><time>2026-04-06T09:52:54.003Z</time></trkpt><trkpt lat="45.5847901" lon="10.8245679"><ele>128.33333333333334</ele><time>2026-04-06T09:52:55.002Z</time></trkpt><trkpt lat="45.5848943" lon="10.8248482"><ele>138.0</ele><time>2026-04-06T09:52:56.002Z</time></trkpt><trkpt lat="45.5850045" lon="10.8251337"><ele>124.5</ele><time>2026-04-06T09:52:57.002Z</time></trkpt><trkpt lat="45.5851152" lon="10.825445"><ele>111.0</ele><time>2026-04-06T09:52:58.003Z</time></trkpt><trkpt lat="45.5852158" lon="10.8257411"><ele>108.0</ele><time>2026-04-06T09:52:59.002Z</time></trkpt><trkpt lat="45.5853044" lon="10.8260037"><ele>105.0</ele><time>2026-04-06T09:53:00.002Z</time></trkpt><trkpt lat="45.5853805" lon="10.8262419"><ele>102.0</ele><time>2026-04-06T09:53:01.003Z</time></trkpt><trkpt lat="45.5854423" lon="10.8264689"><ele>107.33333333333334</ele><time>2026-04-06T09:53:02.003Z</time></trkpt><trkpt lat="45.5854798" lon="10.8266849"><ele>112.66666666666667</ele><time>2026-04-06T09:53:03.002Z</time></trkpt><trkpt lat="45.5854943" lon="10.8268979"><ele>118.0</ele><time>2026-04-06T09:53:04.003Z</time></trkpt><trkpt lat="45.5854921" lon="10.827113"><ele>118.0</ele><time>2026-04-06T09:53:05.002Z</time></trkpt><trkpt lat="45.5854683" lon="10.827332"><ele>118.0</ele><time>2026-04-06T09:53:06.002Z</time></trkpt><trkpt lat="45.585422" lon="10.8275441"><ele>118.0</ele><time>2026-04-06T09:53:07.003Z</time></trkpt><trkpt lat="45.585356" lon="10.8277473"><ele>111.33333333333334</ele><time>2026-04-06T09:53:08.002Z</time></trkpt><trkpt lat="45.5852797" lon="10.827945"><ele>104.66666666666666</ele><time>2026-04-06T09:53:09.002Z</time></trkpt><trkpt lat="45.585202" lon="10.8281457"><ele>98.0</ele><time>2026-04-06T09:53:10.003Z</time></trkpt><trkpt lat="45.5851252" lon="10.8283399"><ele>98.66666666666666</ele><time>2026-04-06T09:53:11.003Z</time></trkpt><trkpt lat="45.5850487" lon="10.8285319"><ele>99.33333333333334</ele><time>2026-04-06T09:53:12.002Z</time></trkpt><trkpt lat="45.5849699" lon="10.8287307"><ele>100.0</ele><time>2026-04-06T09:53:13.002Z</time></trkpt><trkpt lat="45.5848907" lon="10.8289345"><ele>100.0</ele><time>2026-04-06T09:53:14.002Z</time></trkpt><trkpt lat="45.5848059" lon="10.8291472"><ele>100.0</ele><time>2026-04-06T09:53:15.002Z</time></trkpt><trkpt lat="45.5847194" lon="10.8293578"><ele>100.0</ele><time>2026-04-06T09:53:16.002Z</time></trkpt><trkpt lat="45.5846383" lon="10.8295593"><ele>99.66666666666667</ele><time>2026-04-06T09:53:17.003Z</time></trkpt><trkpt lat="45.5845588" lon="10.8297715"><ele>99.33333333333334</ele><time>2026-04-06T09:53:18.002Z</time></trkpt><trkpt lat="45.584493" lon="10.829946"><ele>99.0</ele><time>2026-04-06T09:53:19.003Z</time></trkpt><trkpt lat="45.5844374" lon="10.830134"><ele>98.75</ele><time>2026-04-06T09:53:20.003Z</time></trkpt><trkpt lat="45.5843965" lon="10.8303113"><ele>98.5</ele><time>2026-04-06T09:53:21.002Z</time></trkpt><trkpt lat="45.5843734" lon="10.8304956"><ele>98.25</ele><time>2026-04-06T09:53:22.002Z</time></trkpt><trkpt lat="45.5843686" lon="10.8306947"><ele>98.0</ele><time>2026-04-06T09:53:23.003Z</time></trkpt><trkpt lat="45.5843871" lon="10.8308898"><ele>98.5</ele><time>2026-04-06T09:53:24.002Z</time></trkpt><trkpt lat="45.5844283" lon="10.8310843"><ele>99.0</ele><time>2026-04-06T09:53:25.002Z</time></trkpt><trkpt lat="45.584492" lon="10.8312679"><ele>99.5</ele><time>2026-04-06T09:53:26.002Z</time></trkpt><trkpt lat="45.5845798" lon="10.8314435"><ele>100.0</ele><time>2026-04-06T09:53:27.002Z</time></trkpt><trkpt lat="45.5846963" lon="10.8316085"><ele>100.33333333333334</ele><time>2026-04-06T09:53:28.003Z</time></trkpt><trkpt lat="45.5848225" lon="10.8317539"><ele>100.66666666666666</ele><time>2026-04-06T09:53:29.003Z</time></trkpt><trkpt lat="45.5849544" lon="10.8319001"><ele>101.0</ele><time>2026-04-06T09:53:30.003Z</time></trkpt><trkpt lat="45.5850921" lon="10.8320517"><ele>101.0</ele><time>2026-04-06T09:53:31.003Z</time></trkpt><trkpt lat="45.5852361" lon="10.83221"><ele>101.0</ele><time>2026-04-06T09:53:32.002Z</time></trkpt><trkpt lat="45.585392" lon="10.8323723"><ele>101.0</ele><time>2026-04-06T09:53:33.002Z</time></trkpt><trkpt lat="45.5855709" lon="10.8325522"><ele>100.5</ele><time>2026-04-06T09:53:34.003Z</time></trkpt><trkpt lat="45.5857593" lon="10.832745"><ele>100.0</ele><time>2026-04-06T09:53:35.002Z</time></trkpt><trkpt lat="45.5859541" lon="10.8329496"><ele>100.0</ele><time>2026-04-06T09:53:36.002Z</time></trkpt><trkpt lat="45.5861606" lon="10.8331754"><ele>100.0</ele><time>2026-04-06T09:53:37.002Z</time></trkpt><trkpt lat="45.5863671" lon="10.8334039"><ele>102.0</ele><time>2026-04-06T09:53:38.002Z</time></trkpt><trkpt lat="45.5865862" lon="10.8336467"><ele>104.0</ele><time>2026-04-06T09:53:39.002Z</time></trkpt><trkpt lat="45.5868131" lon="10.8338939"><ele>103.0</ele><time>2026-04-06T09:53:40.003Z</time></trkpt><trkpt lat="45.5870298" lon="10.8341288"><ele>102.0</ele><time>2026-04-06T09:53:41.002Z</time></trkpt><trkpt lat="45.5872448" lon="10.8343634"><ele>102.0</ele><time>2026-04-06T09:53:42.003Z</time></trkpt><trkpt lat="45.5874608" lon="10.8345949"><ele>102.0</ele><time>2026-04-06T09:53:43.002Z</time></trkpt><trkpt lat="45.5876753" lon="10.834816"><ele>102.0</ele><time>2026-04-06T09:53:44.002Z</time></trkpt><trkpt lat="45.5878946" lon="10.8350276"><ele>102.0</ele><time>2026-04-06T09:53:45.002Z</time></trkpt><trkpt lat="45.5881211" lon="10.8352211"><ele>102.0</ele><time>2026-04-06T09:53:46.002Z</time></trkpt><trkpt lat="45.5883589" lon="10.8354107"><ele>102.0</ele><time>2026-04-06T09:53:47.002Z</time></trkpt><trkpt lat="45.5886105" lon="10.8356133"><ele>102.0</ele><time>2026-04-06T09:53:48.003Z</time></trkpt><trkpt lat="45.5888697" lon="10.835823"><ele>102.0</ele><time>2026-04-06T09:53:49.002Z</time></trkpt><trkpt lat="45.5891154" lon="10.8360205"><ele>102.0</ele><time>2026-04-06T09:53:50.003Z</time></trkpt><trkpt lat="45.589352" lon="10.8362097"><ele>102.0</ele><time>2026-04-06T09:53:51.002Z</time></trkpt><trkpt lat="45.5895722" lon="10.8363849"><ele>103.0</ele><time>2026-04-06T09:53:52.003Z</time></trkpt><trkpt lat="45.5897857" lon="10.8365466"><ele>104.0</ele><time>2026-04-06T09:53:53.003Z</time></trkpt><trkpt lat="45.5899959" lon="10.8366876"><ele>103.0</ele><time>2026-04-06T09:53:54.002Z</time></trkpt><trkpt lat="45.5902173" lon="10.8368042"><ele>102.0</ele><time>2026-04-06T09:53:55.003Z</time></trkpt><trkpt lat="45.5904558" lon="10.836907"><ele>105.0</ele><time>2026-04-06T09:53:56.002Z</time></trkpt><trkpt lat="45.5907039" lon="10.8370043"><ele>108.0</ele><time>2026-04-06T09:53:57.003Z</time></trkpt><trkpt lat="45.5909623" lon="10.8371025"><ele>113.0</ele><time>2026-04-06T09:53:58.003Z</time></trkpt><trkpt lat="45.5912051" lon="10.8371899"><ele>118.0</ele><time>2026-04-06T09:53:59.002Z</time></trkpt><trkpt lat="45.5914281" lon="10.837272"><ele>118.0</ele><time>2026-04-06T09:54:00.002Z</time></trkpt><trkpt lat="45.5916354" lon="10.8373544"><ele>118.0</ele><time>2026-04-06T09:54:01.002Z</time></trkpt><trkpt lat="45.5918386" lon="10.8374486"><ele>118.0</ele><time>2026-04-06T09:54:02.003Z</time></trkpt><trkpt lat="45.5920396" lon="10.8375558"><ele>121.0</ele><time>2026-04-06T09:54:03.002Z</time></trkpt><trkpt lat="45.5922379" lon="10.8376729"><ele>124.0</ele><time>2026-04-06T09:54:04.003Z</time></trkpt><trkpt lat="45.5924364" lon="10.837795"><ele>127.0</ele><time>2026-04-06T09:54:05.003Z</time></trkpt><trkpt lat="45.5926263" lon="10.8379111"><ele>127.0</ele><time>2026-04-06T09:54:06.002Z</time></trkpt><trkpt lat="45.5928052" lon="10.8380178"><ele>127.0</ele><time>2026-04-06T09:54:07.002Z</time></trkpt><trkpt lat="45.5929904" lon="10.8381297"><ele>127.0</ele><time>2026-04-06T09:54:08.003Z</time></trkpt><trkpt lat="45.5931811" lon="10.8382464"><ele>126.66666666666667</ele><time>2026-04-06T09:54:09.003Z</time></trkpt><trkpt lat="45.5933783" lon="10.8383673"><ele>126.33333333333334</ele><time>2026-04-06T09:54:10.002Z</time></trkpt><trkpt lat="45.5935818" lon="10.8384881"><ele>126.0</ele><time>2026-04-06T09:54:11.003Z</time></trkpt><trkpt lat="45.5937904" lon="10.8386147"><ele>127.5</ele><time>2026-04-06T09:54:12.002Z</time></trkpt><trkpt lat="45.5940058" lon="10.8387497"><ele>129.0</ele><time>2026-04-06T09:54:13.002Z</time></trkpt><trkpt lat="45.5942303" lon="10.8388866"><ele>129.0</ele><time>2026-04-06T09:54:14.002Z</time></trkpt><trkpt lat="45.5944643" lon="10.8390277"><ele>129.0</ele><time>2026-04-06T09:54:15.003Z</time></trkpt><trkpt lat="45.5947089" lon="10.8391804"><ele>128.5</ele><time>2026-04-06T09:54:16.002Z</time></trkpt><trkpt lat="45.5949567" lon="10.8393416"><ele>128.0</ele><time>2026-04-06T09:54:17.002Z</time></trkpt><trkpt lat="45.5951931" lon="10.8395045"><ele>128.0</ele><time>2026-04-06T09:54:18.003Z</time></trkpt><trkpt lat="45.5954292" lon="10.8396782"><ele>128.0</ele><time>2026-04-06T09:54:19.002Z</time></trkpt><trkpt lat="45.5956547" lon="10.8398518"><ele>128.0</ele><time>2026-04-06T09:54:20.002Z</time></trkpt><trkpt lat="45.595866" lon="10.8400225"><ele>128.0</ele><time>2026-04-06T09:54:21.003Z</time></trkpt><trkpt lat="45.5960601" lon="10.8401802"><ele>127.66666666666666</ele><time>2026-04-06T09:54:22.002Z</time></trkpt><trkpt lat="45.5962289" lon="10.8403223"><ele>127.33333333333334</ele><time>2026-04-06T09:54:23.003Z</time></trkpt><trkpt lat="45.5963862" lon="10.8404617"><ele>127.0</ele><time>2026-04-06T09:54:24.002Z</time></trkpt><trkpt lat="45.5965341" lon="10.8406091"><ele>127.0</ele><time>2026-04-06T09:54:25.002Z</time></trkpt><trkpt lat="45.5966791" lon="10.8407761"><ele>127.0</ele><time>2026-04-06T09:54:26.003Z</time></trkpt><trkpt lat="45.5968167" lon="10.8409615"><ele>127.0</ele><time>2026-04-06T09:54:27.002Z</time></trkpt><trkpt lat="45.5969522" lon="10.8411622"><ele>127.0</ele><time>2026-04-06T09:54:28.002Z</time></trkpt><trkpt lat="45.5970844" lon="10.8413779"><ele>127.0</ele><time>2026-04-06T09:54:29.003Z</time></trkpt><trkpt lat="45.5972206" lon="10.8416004"><ele>127.0</ele><time>2026-04-06T09:54:30.003Z</time></trkpt><trkpt lat="45.5973614" lon="10.8418319"><ele>126.0</ele><time>2026-04-06T09:54:31.002Z</time></trkpt><trkpt lat="45.5974996" lon="10.8420508"><ele>125.0</ele><time>2026-04-06T09:54:32.002Z</time></trkpt><trkpt lat="45.5976412" lon="10.8422508"><ele>124.0</ele><time>2026-04-06T09:54:33.002Z</time></trkpt><trkpt lat="45.5977986" lon="10.8424342"><ele>124.33333333333334</ele><time>2026-04-06T09:54:34.002Z</time></trkpt><trkpt lat="45.597977" lon="10.8425973"><ele>124.66666666666666</ele><time>2026-04-06T09:54:35.002Z</time></trkpt><trkpt lat="45.5981689" lon="10.8427494"><ele>125.0</ele><time>2026-04-06T09:54:36.002Z</time></trkpt><trkpt lat="45.59836" lon="10.8428897"><ele>124.66666666666666</ele><time>2026-04-06T09:54:37.002Z</time></trkpt><trkpt lat="45.5985463" lon="10.8430242"><ele>124.33333333333334</ele><time>2026-04-06T09:54:38.003Z</time></trkpt><trkpt lat="45.5987335" lon="10.843156"><ele>124.0</ele><time>2026-04-06T09:54:39.002Z</time></trkpt><trkpt lat="45.5989206" lon="10.8432855"><ele>124.0</ele><time>2026-04-06T09:54:40.002Z</time></trkpt><trkpt lat="45.5991062" lon="10.8434221"><ele>124.0</ele><time>2026-04-06T09:54:41.003Z</time></trkpt><trkpt lat="45.5992927" lon="10.8435635"><ele>124.0</ele><time>2026-04-06T09:54:42.003Z</time></trkpt><trkpt lat="45.599477" lon="10.8436958"><ele>123.33333333333334</ele><time>2026-04-06T09:54:43.002Z</time></trkpt><trkpt lat="45.5996623" lon="10.8438204"><ele>122.66666666666666</ele><time>2026-04-06T09:54:44.002Z</time></trkpt><trkpt lat="45.5998421" lon="10.8439398"><ele>122.0</ele><time>2026-04-06T09:54:45.002Z</time></trkpt><trkpt lat="45.6000227" lon="10.8440605"><ele>122.0</ele><time>2026-04-06T09:54:46.002Z</time></trkpt><trkpt lat="45.6002032" lon="10.8441824"><ele>122.0</ele><time>2026-04-06T09:54:47.003Z</time></trkpt><trkpt lat="45.6003816" lon="10.8443137"><ele>122.0</ele><time>2026-04-06T09:54:48.003Z</time></trkpt><trkpt lat="45.6005534" lon="10.84446"><ele>120.66666666666666</ele><time>2026-04-06T09:54:49.002Z</time></trkpt><trkpt lat="45.6007192" lon="10.844621"><ele>119.33333333333334</ele><time>2026-04-06T09:54:50.003Z</time></trkpt><trkpt lat="45.6008905" lon="10.8447892"><ele>118.0</ele><time>2026-04-06T09:54:51.003Z</time></trkpt><trkpt lat="45.6010737" lon="10.8449549"><ele>118.33333333333334</ele><time>2026-04-06T09:54:52.002Z</time></trkpt><trkpt lat="45.6012658" lon="10.8451164"><ele>118.66666666666666</ele><time>2026-04-06T09:54:53.002Z</time></trkpt><trkpt lat="45.6014579" lon="10.8452722"><ele>119.0</ele><time>2026-04-06T09:54:54.003Z</time></trkpt><trkpt lat="45.6016428" lon="10.845419"><ele>119.0</ele><time>2026-04-06T09:54:55.003Z</time></trkpt><trkpt lat="45.6018344" lon="10.8455664"><ele>119.0</ele><time>2026-04-06T09:54:56.003Z</time></trkpt><trkpt lat="45.6020287" lon="10.8457138"><ele>119.0</ele><time>2026-04-06T09:54:57.002Z</time></trkpt><trkpt lat="45.6022223" lon="10.8458638"><ele>118.66666666666666</ele><time>2026-04-06T09:54:58.003Z</time></trkpt><trkpt lat="45.602414" lon="10.8460185"><ele>118.33333333333334</ele><time>2026-04-06T09:54:59.002Z</time></trkpt><trkpt lat="45.602606" lon="10.846181"><ele>118.0</ele><time>2026-04-06T09:55:00.003Z</time></trkpt><trkpt lat="45.6028017" lon="10.8463506"><ele>117.0</ele><time>2026-04-06T09:55:01.003Z</time></trkpt><trkpt lat="45.6030053" lon="10.8465246"><ele>116.0</ele><time>2026-04-06T09:55:02.003Z</time></trkpt><trkpt lat="45.6032148" lon="10.846705"><ele>115.0</ele><time>2026-04-06T09:55:03.002Z</time></trkpt><trkpt lat="45.6034298" lon="10.8468925"><ele>114.0</ele><time>2026-04-06T09:55:04.003Z</time></trkpt><trkpt lat="45.6036502" lon="10.8470878"><ele>115.5</ele><time>2026-04-06T09:55:05.002Z</time></trkpt><trkpt lat="45.6038749" lon="10.8472848"><ele>117.0</ele><time>2026-04-06T09:55:06.003Z</time></trkpt><trkpt lat="45.6040922" lon="10.8474775"><ele>116.5</ele><time>2026-04-06T09:55:07.002Z</time></trkpt><trkpt lat="45.6043058" lon="10.8476698"><ele>116.0</ele><time>2026-04-06T09:55:08.002Z</time></trkpt><trkpt lat="45.604514" lon="10.847854"><ele>116.0</ele><time>2026-04-06T09:55:09.002Z</time></trkpt><trkpt lat="45.6047125" lon="10.8480267"><ele>116.0</ele><time>2026-04-06T09:55:10.002Z</time></trkpt><trkpt lat="45.6049052" lon="10.8481951"><ele>116.0</ele><time>2026-04-06T09:55:11.003Z</time></trkpt><trkpt lat="45.6051015" lon="10.8483677"><ele>116.0</ele><time>2026-04-06T09:55:12.002Z</time></trkpt><trkpt lat="45.6053004" lon="10.8485414"><ele>115.0</ele><time>2026-04-06T09:55:13.002Z</time></trkpt><trkpt lat="45.6054992" lon="10.8487145"><ele>114.0</ele><time>2026-04-06T09:55:14.002Z</time></trkpt><trkpt lat="45.6056867" lon="10.8488786"><ele>114.0</ele><time>2026-04-06T09:55:15.002Z</time></trkpt><trkpt lat="45.6058751" lon="10.8490453"><ele>114.0</ele><time>2026-04-06T09:55:16.003Z</time></trkpt><trkpt lat="45.6060658" lon="10.849213"><ele>114.0</ele><time>2026-04-06T09:55:17.002Z</time></trkpt><trkpt lat="45.6062587" lon="10.8493806"><ele>114.0</ele><time>2026-04-06T09:55:18.003Z</time></trkpt><trkpt lat="45.6064501" lon="10.8495484"><ele>114.0</ele><time>2026-04-06T09:55:19.003Z</time></trkpt><trkpt lat="45.6066328" lon="10.8497064"><ele>114.0</ele><time>2026-04-06T09:55:20.003Z</time></trkpt><trkpt lat="45.6068192" lon="10.849861"><ele>113.33333333333334</ele><time>2026-04-06T09:55:21.002Z</time></trkpt><trkpt lat="45.6070129" lon="10.8500059"><ele>112.66666666666667</ele><time>2026-04-06T09:55:22.003Z</time></trkpt><trkpt lat="45.6072167" lon="10.850138"><ele>112.0</ele><time>2026-04-06T09:55:23.003Z</time></trkpt><trkpt lat="45.6074285" lon="10.8502589"><ele>112.0</ele><time>2026-04-06T09:55:24.002Z</time></trkpt><trkpt lat="45.6076558" lon="10.8503742"><ele>112.0</ele><time>2026-04-06T09:55:25.003Z</time></trkpt><trkpt lat="45.6078822" lon="10.8504814"><ele>112.0</ele><time>2026-04-06T09:55:26.003Z</time></trkpt><trkpt lat="45.6080974" lon="10.850581"><ele>112.0</ele><time>2026-04-06T09:55:27.002Z</time></trkpt><trkpt lat="45.6082951" lon="10.8506726"><ele>112.0</ele><time>2026-04-06T09:55:28.002Z</time></trkpt><trkpt lat="45.608479" lon="10.8507574"><ele>112.0</ele><time>2026-04-06T09:55:29.002Z</time></trkpt><trkpt lat="45.6086526" lon="10.8508349"><ele>112.0</ele><time>2026-04-06T09:55:30.002Z</time></trkpt><trkpt lat="45.6088191" lon="10.8509092"><ele>112.0</ele><time>2026-04-06T09:55:31.003Z</time></trkpt><trkpt lat="45.6089811" lon="10.8509817"><ele>112.33333333333334</ele><time>2026-04-06T09:55:32.003Z</time></trkpt><trkpt lat="45.6091468" lon="10.8510576"><ele>112.66666666666666</ele><time>2026-04-06T09:55:33.002Z</time></trkpt><trkpt lat="45.6093074" lon="10.8511344"><ele>113.0</ele><time>2026-04-06T09:55:34.003Z</time></trkpt><trkpt lat="45.6094696" lon="10.8512181"><ele>112.66666666666666</ele><time>2026-04-06T09:55:35.003Z</time></trkpt><trkpt lat="45.609636" lon="10.8513204"><ele>112.33333333333334</ele><time>2026-04-06T09:55:36.002Z</time></trkpt><trkpt lat="45.609815" lon="10.8514489"><ele>112.0</ele><time>2026-04-06T09:55:37.003Z</time></trkpt><trkpt lat="45.6099956" lon="10.8515826"><ele>112.0</ele><time>2026-04-06T09:55:38.002Z</time></trkpt><trkpt lat="45.6101663" lon="10.8517091"><ele>112.0</ele><time>2026-04-06T09:55:39.003Z</time></trkpt><trkpt lat="45.6103373" lon="10.8518386"><ele>112.0</ele><time>2026-04-06T09:55:40.002Z</time></trkpt><trkpt lat="45.6105089" lon="10.8519676"><ele>111.33333333333334</ele><time>2026-04-06T09:55:41.002Z</time></trkpt><trkpt lat="45.610681" lon="10.8520939"><ele>110.66666666666666</ele><time>2026-04-06T09:55:42.003Z</time></trkpt><trkpt lat="45.6108447" lon="10.8522113"><ele>110.0</ele><time>2026-04-06T09:55:43.003Z</time></trkpt><trkpt lat="45.6109995" lon="10.8523257"><ele>110.0</ele><time>2026-04-06T09:55:44.002Z</time></trkpt><trkpt lat="45.6111378" lon="10.8524271"><ele>110.0</ele><time>2026-04-06T09:55:45.003Z</time></trkpt><trkpt lat="45.6112709" lon="10.8525132"><ele>110.0</ele><time>2026-04-06T09:55:46.003Z</time></trkpt><trkpt lat="45.6114041" lon="10.8525734"><ele>110.0</ele><time>2026-04-06T09:55:47.003Z</time></trkpt><trkpt lat="45.6115419" lon="10.8526064"><ele>109.33333333333333</ele><time>2026-04-06T09:55:48.003Z</time></trkpt><trkpt lat="45.6116766" lon="10.8526099"><ele>108.66666666666666</ele><time>2026-04-06T09:55:49.003Z</time></trkpt><trkpt lat="45.6118284" lon="10.8525822"><ele>108.0</ele><time>2026-04-06T09:55:50.002Z</time></trkpt><trkpt lat="45.6119971" lon="10.852521"><ele>107.33333333333334</ele><time>2026-04-06T09:55:51.002Z</time></trkpt><trkpt lat="45.6121832" lon="10.8524401"><ele>106.66666666666667</ele><time>2026-04-06T09:55:52.002Z</time></trkpt><trkpt lat="45.6123671" lon="10.8523669"><ele>106.0</ele><time>2026-04-06T09:55:53.002Z</time></trkpt><trkpt lat="45.6125454" lon="10.8522954"><ele>106.0</ele><time>2026-04-06T09:55:54.003Z</time></trkpt><trkpt lat="45.6127233" lon="10.8522153"><ele>106.0</ele><time>2026-04-06T09:55:55.002Z</time></trkpt><trkpt lat="45.6128879" lon="10.8521443"><ele>106.0</ele><time>2026-04-06T09:55:56.002Z</time></trkpt><trkpt lat="45.6130419" lon="10.852076"><ele>104.66666666666667</ele><time>2026-04-06T09:55:57.002Z</time></trkpt><trkpt lat="45.613188" lon="10.8520149"><ele>103.33333333333334</ele><time>2026-04-06T09:55:58.003Z</time></trkpt><trkpt lat="45.6133328" lon="10.8519531"><ele>102.0</ele><time>2026-04-06T09:55:59.002Z</time></trkpt><trkpt lat="45.613486" lon="10.8518855"><ele>102.0</ele><time>2026-04-06T09:56:00.003Z</time></trkpt><trkpt lat="45.6136348" lon="10.8518347"><ele>102.0</ele><time>2026-04-06T09:56:01.002Z</time></trkpt><trkpt lat="45.6137772" lon="10.8518121"><ele>102.0</ele><time>2026-04-06T09:56:02.002Z</time></trkpt><trkpt lat="45.6139246" lon="10.8518138"><ele>102.0</ele><time>2026-04-06T09:56:03.003Z</time></trkpt><trkpt lat="45.6140795" lon="10.8518304"><ele>102.0</ele><time>2026-04-06T09:56:04.002Z</time></trkpt><trkpt lat="45.6142383" lon="10.8518475"><ele>102.0</ele><time>2026-04-06T09:56:05.002Z</time></trkpt><trkpt lat="45.6143996" lon="10.8518494"><ele>102.0</ele><time>2026-04-06T09:56:06.002Z</time></trkpt><trkpt lat="45.6145598" lon="10.8518687"><ele>103.0</ele><time>2026-04-06T09:56:07.003Z</time></trkpt><trkpt lat="45.6147105" lon="10.851898"><ele>104.0</ele><time>2026-04-06T09:56:08.002Z</time></trkpt><trkpt lat="45.6148641" lon="10.8519358"><ele>105.0</ele><time>2026-04-06T09:56:09.003Z</time></trkpt><trkpt lat="45.6150145" lon="10.8519763"><ele>105.0</ele><time>2026-04-06T09:56:10.002Z</time></trkpt><trkpt lat="45.6151594" lon="10.8520137"><ele>105.0</ele><time>2026-04-06T09:56:11.003Z</time></trkpt><trkpt lat="45.6153221" lon="10.8520526"><ele>105.0</ele><time>2026-04-06T09:56:12.002Z</time></trkpt><trkpt lat="45.6154987" lon="10.85209"><ele>104.66666666666666</ele><time>2026-04-06T09:56:13.002Z</time></trkpt><trkpt lat="45.6157017" lon="10.8521283"><ele>104.33333333333333</ele><time>2026-04-06T09:56:14.002Z</time></trkpt><trkpt lat="45.6159076" lon="10.8521634"><ele>104.0</ele><time>2026-04-06T09:56:15.003Z</time></trkpt><trkpt lat="45.6161051" lon="10.8521904"><ele>104.0</ele><time>2026-04-06T09:56:16.003Z</time></trkpt><trkpt lat="45.6162939" lon="10.852207"><ele>104.0</ele><time>2026-04-06T09:56:17.003Z</time></trkpt><trkpt lat="45.6164737" lon="10.8522247"><ele>104.0</ele><time>2026-04-06T09:56:18.003Z</time></trkpt><trkpt lat="45.6166486" lon="10.8522472"><ele>104.0</ele><time>2026-04-06T09:56:19.002Z</time></trkpt><trkpt lat="45.6168381" lon="10.8522754"><ele>104.0</ele><time>2026-04-06T09:56:20.003Z</time></trkpt><trkpt lat="45.6170462" lon="10.852316"><ele>104.0</ele><time>2026-04-06T09:56:21.002Z</time></trkpt><trkpt lat="45.6172736" lon="10.8523591"><ele>105.5</ele><time>2026-04-06T09:56:22.002Z</time></trkpt><trkpt lat="45.6175066" lon="10.8524139"><ele>107.0</ele><time>2026-04-06T09:56:23.003Z</time></trkpt><trkpt lat="45.6177624" lon="10.8524874"><ele>103.5</ele><time>2026-04-06T09:56:24.002Z</time></trkpt><trkpt lat="45.6180222" lon="10.8525635"><ele>100.0</ele><time>2026-04-06T09:56:25.002Z</time></trkpt><trkpt lat="45.6182608" lon="10.8526243"><ele>100.0</ele><time>2026-04-06T09:56:26.002Z</time></trkpt><trkpt lat="45.6184898" lon="10.8526727"><ele>100.0</ele><time>2026-04-06T09:56:27.002Z</time></trkpt><trkpt lat="45.6187057" lon="10.8527176"><ele>100.66666666666667</ele><time>2026-04-06T09:56:28.002Z</time></trkpt><trkpt lat="45.6189135" lon="10.8527748"><ele>101.33333333333334</ele><time>2026-04-06T09:56:29.003Z</time></trkpt><trkpt lat="45.6191266" lon="10.8528684"><ele>102.0</ele><time>2026-04-06T09:56:30.003Z</time></trkpt><trkpt lat="45.6193427" lon="10.8529915"><ele>107.0</ele><time>2026-04-06T09:56:31.002Z</time></trkpt><trkpt lat="45.6195664" lon="10.8531214"><ele>112.0</ele><time>2026-04-06T09:56:32.002Z</time></trkpt><trkpt lat="45.6197998" lon="10.8532518"><ele>112.0</ele><time>2026-04-06T09:56:33.002Z</time></trkpt><trkpt lat="45.6200295" lon="10.853386"><ele>112.0</ele><time>2026-04-06T09:56:34.003Z</time></trkpt><trkpt lat="45.6202494" lon="10.8535142"><ele>110.33333333333334</ele><time>2026-04-06T09:56:35.003Z</time></trkpt><trkpt lat="45.6204581" lon="10.8536315"><ele>108.66666666666666</ele><time>2026-04-06T09:56:36.003Z</time></trkpt><trkpt lat="45.6206564" lon="10.8537461"><ele>107.0</ele><time>2026-04-06T09:56:37.002Z</time></trkpt><trkpt lat="45.6208523" lon="10.8538752"><ele>107.0</ele><time>2026-04-06T09:56:38.002Z</time></trkpt><trkpt lat="45.6210409" lon="10.8540316"><ele>107.0</ele><time>2026-04-06T09:56:39.003Z</time></trkpt><trkpt lat="45.6212182" lon="10.8542075"><ele>107.0</ele><time>2026-04-06T09:56:40.003Z</time></trkpt><trkpt lat="45.6213959" lon="10.8543953"><ele>109.0</ele><time>2026-04-06T09:56:41.003Z</time></trkpt><trkpt lat="45.6215781" lon="10.8545908"><ele>111.0</ele><time>2026-04-06T09:56:42.002Z</time></trkpt><trkpt lat="45.6217612" lon="10.8547762"><ele>111.0</ele><time>2026-04-06T09:56:43.002Z</time></trkpt><trkpt lat="45.621926" lon="10.8549608"><ele>111.0</ele><time>2026-04-06T09:56:44.002Z</time></trkpt><trkpt lat="45.6220704" lon="10.8551579"><ele>111.0</ele><time>2026-04-06T09:56:45.002Z</time></trkpt><trkpt lat="45.6221981" lon="10.8553664"><ele>111.66666666666666</ele><time>2026-04-06T09:56:46.002Z</time></trkpt><trkpt lat="45.6223182" lon="10.8555929"><ele>112.33333333333333</ele><time>2026-04-06T09:56:47.002Z</time></trkpt><trkpt lat="45.6224387" lon="10.8558422"><ele>113.0</ele><time>2026-04-06T09:56:48.002Z</time></trkpt><trkpt lat="45.6225637" lon="10.8560991"><ele>113.0</ele><time>2026-04-06T09:56:49.003Z</time></trkpt><trkpt lat="45.6226867" lon="10.8563414"><ele>113.0</ele><time>2026-04-06T09:56:50.003Z</time></trkpt><trkpt lat="45.6228031" lon="10.8565695"><ele>113.0</ele><time>2026-04-06T09:56:51.003Z</time></trkpt><trkpt lat="45.6229134" lon="10.8567883"><ele>115.33333333333333</ele><time>2026-04-06T09:56:52.003Z</time></trkpt><trkpt lat="45.6230239" lon="10.8570072"><ele>117.66666666666666</ele><time>2026-04-06T09:56:53.003Z</time></trkpt><trkpt lat="45.6231329" lon="10.8572276"><ele>120.0</ele><time>2026-04-06T09:56:54.002Z</time></trkpt><trkpt lat="45.6232454" lon="10.857451"><ele>120.0</ele><time>2026-04-06T09:56:55.003Z</time></trkpt><trkpt lat="45.6233654" lon="10.8576866"><ele>120.0</ele><time>2026-04-06T09:56:56.003Z</time></trkpt><trkpt lat="45.6234783" lon="10.8579087"><ele>120.0</ele><time>2026-04-06T09:56:57.002Z</time></trkpt><trkpt lat="45.6235812" lon="10.8581168"><ele>122.66666666666666</ele><time>2026-04-06T09:56:58.003Z</time></trkpt><trkpt lat="45.6236738" lon="10.8583151"><ele>125.33333333333333</ele><time>2026-04-06T09:56:59.002Z</time></trkpt><trkpt lat="45.6237565" lon="10.8585135"><ele>128.0</ele><time>2026-04-06T09:57:00.003Z</time></trkpt><trkpt lat="45.6238303" lon="10.8587283"><ele>128.66666666666666</ele><time>2026-04-06T09:57:01.002Z</time></trkpt><trkpt lat="45.6238945" lon="10.8589553"><ele>129.33333333333334</ele><time>2026-04-06T09:57:02.002Z</time></trkpt><trkpt lat="45.6239502" lon="10.8591948"><ele>130.0</ele><time>2026-04-06T09:57:03.002Z</time></trkpt><trkpt lat="45.6240028" lon="10.8594369"><ele>130.0</ele><time>2026-04-06T09:57:04.002Z</time></trkpt><trkpt lat="45.624047" lon="10.8596457"><ele>130.0</ele><time>2026-04-06T09:57:05.002Z</time></trkpt><trkpt lat="45.6240866" lon="10.8598405"><ele>130.0</ele><time>2026-04-06T09:57:06.003Z</time></trkpt><trkpt lat="45.6241257" lon="10.8600222"><ele>130.0</ele><time>2026-04-06T09:57:07.002Z</time></trkpt><trkpt lat="45.6241622" lon="10.8601935"><ele>130.5</ele><time>2026-04-06T09:57:08.003Z</time></trkpt><trkpt lat="45.6242005" lon="10.8603679"><ele>131.0</ele><time>2026-04-06T09:57:09.003Z</time></trkpt><trkpt lat="45.6242426" lon="10.8605521"><ele>131.5</ele><time>2026-04-06T09:57:10.002Z</time></trkpt><trkpt lat="45.6242902" lon="10.8607435"><ele>132.0</ele><time>2026-04-06T09:57:11.003Z</time></trkpt><trkpt lat="45.6243392" lon="10.8609226"><ele>131.25</ele><time>2026-04-06T09:57:12.002Z</time></trkpt><trkpt lat="45.6243914" lon="10.8610873"><ele>130.5</ele><time>2026-04-06T09:57:13.002Z</time></trkpt><trkpt lat="45.6244482" lon="10.8612454"><ele>129.75</ele><time>2026-04-06T09:57:14.003Z</time></trkpt><trkpt lat="45.6245196" lon="10.8614239"><ele>129.0</ele><time>2026-04-06T09:57:15.003Z</time></trkpt><trkpt lat="45.6245976" lon="10.8616142"><ele>129.0</ele><time>2026-04-06T09:57:16.003Z</time></trkpt><trkpt lat="45.6246707" lon="10.8618214"><ele>129.0</ele><time>2026-04-06T09:57:17.003Z</time></trkpt><trkpt lat="45.624744" lon="10.8620419"><ele>129.0</ele><time>2026-04-06T09:57:18.002Z</time></trkpt><trkpt lat="45.6248182" lon="10.8622494"><ele>129.0</ele><time>2026-04-06T09:57:19.002Z</time></trkpt><trkpt lat="45.6248964" lon="10.8624395"><ele>129.0</ele><time>2026-04-06T09:57:20.003Z</time></trkpt><trkpt lat="45.6249833" lon="10.8626184"><ele>129.0</ele><time>2026-04-06T09:57:21.003Z</time></trkpt><trkpt lat="45.6250756" lon="10.8627748"><ele>129.0</ele><time>2026-04-06T09:57:22.003Z</time></trkpt><trkpt lat="45.6251771" lon="10.8629058"><ele>129.0</ele><time>2026-04-06T09:57:23.002Z</time></trkpt><trkpt lat="45.6252963" lon="10.8630226"><ele>129.0</ele><time>2026-04-06T09:57:24.002Z</time></trkpt><trkpt lat="45.6254332" lon="10.8631198"><ele>129.0</ele><time>2026-04-06T09:57:25.002Z</time></trkpt><trkpt lat="45.6255896" lon="10.8632047"><ele>129.0</ele><time>2026-04-06T09:57:26.003Z</time></trkpt><trkpt lat="45.62577" lon="10.863284"><ele>129.0</ele><time>2026-04-06T09:57:27.003Z</time></trkpt><trkpt lat="45.6259504" lon="10.8633543"><ele>129.0</ele><time>2026-04-06T09:57:28.002Z</time></trkpt><trkpt lat="45.6261461" lon="10.8634334"><ele>128.0</ele><time>2026-04-06T09:57:29.002Z</time></trkpt><trkpt lat="45.6263531" lon="10.8635214"><ele>127.0</ele><time>2026-04-06T09:57:30.002Z</time></trkpt><trkpt lat="45.6265631" lon="10.8636265"><ele>126.0</ele><time>2026-04-06T09:57:31.003Z</time></trkpt><trkpt lat="45.6267618" lon="10.8637381"><ele>126.0</ele><time>2026-04-06T09:57:32.002Z</time></trkpt><trkpt lat="45.6269631" lon="10.8638567"><ele>126.0</ele><time>2026-04-06T09:57:33.002Z</time></trkpt><trkpt lat="45.6271615" lon="10.8639814"><ele>126.0</ele><time>2026-04-06T09:57:34.002Z</time></trkpt><trkpt lat="45.6273534" lon="10.8641152"><ele>126.33333333333334</ele><time>2026-04-06T09:57:35.002Z</time></trkpt><trkpt lat="45.6275418" lon="10.8642576"><ele>126.66666666666667</ele><time>2026-04-06T09:57:36.003Z</time></trkpt><trkpt lat="45.6277275" lon="10.8644138"><ele>127.0</ele><time>2026-04-06T09:57:37.003Z</time></trkpt><trkpt lat="45.6279166" lon="10.8645873"><ele>128.0</ele><time>2026-04-06T09:57:38.003Z</time></trkpt><trkpt lat="45.6281097" lon="10.8647724"><ele>129.0</ele><time>2026-04-06T09:57:39.002Z</time></trkpt><trkpt lat="45.6283025" lon="10.8649488"><ele>129.0</ele><time>2026-04-06T09:57:40.002Z</time></trkpt><trkpt lat="45.6284872" lon="10.8651061"><ele>129.0</ele><time>2026-04-06T09:57:41.003Z</time></trkpt><trkpt lat="45.6286725" lon="10.8652571"><ele>129.0</ele><time>2026-04-06T09:57:42.003Z</time></trkpt><trkpt lat="45.6288615" lon="10.8654068"><ele>128.66666666666666</ele><time>2026-04-06T09:57:43.002Z</time></trkpt><trkpt lat="45.6290521" lon="10.8655435"><ele>128.33333333333331</ele><time>2026-04-06T09:57:44.002Z</time></trkpt><trkpt lat="45.6292451" lon="10.8656676"><ele>128.0</ele><time>2026-04-06T09:57:45.002Z</time></trkpt><trkpt lat="45.6294365" lon="10.8657839"><ele>127.66666666666666</ele><time>2026-04-06T09:57:46.002Z</time></trkpt><trkpt lat="45.6296279" lon="10.8659025"><ele>127.33333333333334</ele><time>2026-04-06T09:57:47.002Z</time></trkpt><trkpt lat="45.6298161" lon="10.8660415"><ele>127.0</ele><time>2026-04-06T09:57:48.002Z</time></trkpt><trkpt lat="45.6299856" lon="10.8661905"><ele>127.0</ele><time>2026-04-06T09:57:49.002Z</time></trkpt><trkpt lat="45.6301493" lon="10.8663589"><ele>127.0</ele><time>2026-04-06T09:57:50.002Z</time></trkpt><trkpt lat="45.6303167" lon="10.8665537"><ele>127.0</ele><time>2026-04-06T09:57:51.003Z</time></trkpt><trkpt lat="45.6304989" lon="10.8667746"><ele>127.0</ele><time>2026-04-06T09:57:52.003Z</time></trkpt><trkpt lat="45.6306836" lon="10.8670012"><ele>127.0</ele><time>2026-04-06T09:57:53.002Z</time></trkpt><trkpt lat="45.630879" lon="10.8672415"><ele>127.0</ele><time>2026-04-06T09:57:54.003Z</time></trkpt><trkpt lat="45.6310871" lon="10.8674948"><ele>127.0</ele><time>2026-04-06T09:57:55.003Z</time></trkpt><trkpt lat="45.6313057" lon="10.8677568"><ele>127.0</ele><time>2026-04-06T09:57:56.003Z</time></trkpt><trkpt lat="45.6315216" lon="10.8680155"><ele>127.0</ele><time>2026-04-06T09:57:57.002Z</time></trkpt><trkpt lat="45.6317232" lon="10.868262"><ele>127.0</ele><time>2026-04-06T09:57:58.003Z</time></trkpt><trkpt lat="45.6319222" lon="10.8685059"><ele>127.0</ele><time>2026-04-06T09:57:59.002Z</time></trkpt><trkpt lat="45.6321156" lon="10.8687334"><ele>127.0</ele><time>2026-04-06T09:58:00.003Z</time></trkpt><trkpt lat="45.6323184" lon="10.868947"><ele>127.0</ele><time>2026-04-06T09:58:01.002Z</time></trkpt><trkpt lat="45.6325305" lon="10.869151"><ele>126.5</ele><time>2026-04-06T09:58:02.003Z</time></trkpt><trkpt lat="45.6327482" lon="10.8693527"><ele>126.0</ele><time>2026-04-06T09:58:03.002Z</time></trkpt><trkpt lat="45.6329657" lon="10.8695472"><ele>126.0</ele><time>2026-04-06T09:58:04.003Z</time></trkpt><trkpt lat="45.633166" lon="10.8697254"><ele>126.0</ele><time>2026-04-06T09:58:05.003Z</time></trkpt><trkpt lat="45.633357" lon="10.8699003"><ele>126.0</ele><time>2026-04-06T09:58:06.002Z</time></trkpt><trkpt lat="45.6335392" lon="10.8700649"><ele>126.0</ele><time>2026-04-06T09:58:07.002Z</time></trkpt><trkpt lat="45.6337142" lon="10.8702224"><ele>126.0</ele><time>2026-04-06T09:58:08.003Z</time></trkpt><trkpt lat="45.6338962" lon="10.8703876"><ele>126.0</ele><time>2026-04-06T09:58:09.002Z</time></trkpt><trkpt lat="45.6340857" lon="10.8705585"><ele>126.0</ele><time>2026-04-06T09:58:10.002Z</time></trkpt><trkpt lat="45.634283" lon="10.8707332"><ele>126.5</ele><time>2026-04-06T09:58:11.003Z</time></trkpt><trkpt lat="45.6344793" lon="10.8709121"><ele>127.0</ele><time>2026-04-06T09:58:12.002Z</time></trkpt><trkpt lat="45.6346765" lon="10.871098"><ele>127.0</ele><time>2026-04-06T09:58:13.003Z</time></trkpt><trkpt lat="45.6348789" lon="10.8712933"><ele>127.0</ele><time>2026-04-06T09:58:14.003Z</time></trkpt><trkpt lat="45.6350836" lon="10.8714986"><ele>127.0</ele><time>2026-04-06T09:58:15.002Z</time></trkpt><trkpt lat="45.6352892" lon="10.8717144"><ele>127.0</ele><time>2026-04-06T09:58:16.002Z</time></trkpt><trkpt lat="45.635497" lon="10.8719371"><ele>125.5</ele><time>2026-04-06T09:58:17.003Z</time></trkpt><trkpt lat="45.6357096" lon="10.8721617"><ele>124.0</ele><time>2026-04-06T09:58:18.002Z</time></trkpt><trkpt lat="45.635925" lon="10.8723853"><ele>124.0</ele><time>2026-04-06T09:58:19.003Z</time></trkpt><trkpt lat="45.6361342" lon="10.8726035"><ele>124.0</ele><time>2026-04-06T09:58:20.002Z</time></trkpt><trkpt lat="45.6363411" lon="10.8728225"><ele>125.5</ele><time>2026-04-06T09:58:21.002Z</time></trkpt><trkpt lat="45.6365475" lon="10.873039"><ele>127.0</ele><time>2026-04-06T09:58:22.002Z</time></trkpt><trkpt lat="45.6367539" lon="10.8732557"><ele>126.5</ele><time>2026-04-06T09:58:23.002Z</time></trkpt><trkpt lat="45.6369607" lon="10.8734716"><ele>126.0</ele><time>2026-04-06T09:58:24.002Z</time></trkpt><trkpt lat="45.6371677" lon="10.8736891"><ele>126.0</ele><time>2026-04-06T09:58:25.002Z</time></trkpt><trkpt lat="45.6373696" lon="10.8739017"><ele>126.0</ele><time>2026-04-06T09:58:26.002Z</time></trkpt><trkpt lat="45.6375603" lon="10.8741012"><ele>125.0</ele><time>2026-04-06T09:58:27.003Z</time></trkpt><trkpt lat="45.6377346" lon="10.8742842"><ele>124.0</ele><time>2026-04-06T09:58:28.003Z</time></trkpt><trkpt lat="45.6379029" lon="10.8744614"><ele>123.0</ele><time>2026-04-06T09:58:29.003Z</time></trkpt><trkpt lat="45.6380607" lon="10.8746314"><ele>123.33333333333334</ele><time>2026-04-06T09:58:30.002Z</time></trkpt><trkpt lat="45.6382107" lon="10.8747999"><ele>123.66666666666667</ele><time>2026-04-06T09:58:31.002Z</time></trkpt><trkpt lat="45.6383632" lon="10.8749801"><ele>124.0</ele><time>2026-04-06T09:58:32.003Z</time></trkpt><trkpt lat="45.6385205" lon="10.8751756"><ele>125.66666666666667</ele><time>2026-04-06T09:58:33.002Z</time></trkpt><trkpt lat="45.6386825" lon="10.8753794"><ele>127.33333333333334</ele><time>2026-04-06T09:58:34.003Z</time></trkpt><trkpt lat="45.6388459" lon="10.8755876"><ele>129.0</ele><time>2026-04-06T09:58:35.003Z</time></trkpt><trkpt lat="45.6390075" lon="10.8757799"><ele>128.66666666666666</ele><time>2026-04-06T09:58:36.002Z</time></trkpt><trkpt lat="45.6391796" lon="10.8759666"><ele>128.33333333333331</ele><time>2026-04-06T09:58:37.002Z</time></trkpt><trkpt lat="45.6393555" lon="10.8761484"><ele>128.0</ele><time>2026-04-06T09:58:38.002Z</time></trkpt><trkpt lat="45.6395259" lon="10.8763206"><ele>128.0</ele><time>2026-04-06T09:58:39.003Z</time></trkpt><trkpt lat="45.639694" lon="10.8764879"><ele>128.0</ele><time>2026-04-06T09:58:40.002Z</time></trkpt><trkpt lat="45.639869" lon="10.8766532"><ele>128.0</ele><time>2026-04-06T09:58:41.003Z</time></trkpt><trkpt lat="45.6400497" lon="10.8768166"><ele>128.33333333333331</ele><time>2026-04-06T09:58:42.002Z</time></trkpt><trkpt lat="45.6402328" lon="10.8769848"><ele>128.66666666666666</ele><time>2026-04-06T09:58:43.002Z</time></trkpt><trkpt lat="45.6404164" lon="10.8771479"><ele>129.0</ele><time>2026-04-06T09:58:44.003Z</time></trkpt><trkpt lat="45.6406046" lon="10.8773072"><ele>129.0</ele><time>2026-04-06T09:58:45.002Z</time></trkpt><trkpt lat="45.640797" lon="10.8774569"><ele>129.0</ele><time>2026-04-06T09:58:46.003Z</time></trkpt><trkpt lat="45.6409932" lon="10.8775862"><ele>129.0</ele><time>2026-04-06T09:58:47.002Z</time></trkpt><trkpt lat="45.6411852" lon="10.8776968"><ele>127.66666666666666</ele><time>2026-04-06T09:58:48.003Z</time></trkpt><trkpt lat="45.6413729" lon="10.8777861"><ele>126.33333333333333</ele><time>2026-04-06T09:58:49.002Z</time></trkpt><trkpt lat="45.6415713" lon="10.8778741"><ele>125.0</ele><time>2026-04-06T09:58:50.002Z</time></trkpt><trkpt lat="45.6417755" lon="10.8779529"><ele>124.0</ele><time>2026-04-06T09:58:51.002Z</time></trkpt><trkpt lat="45.6419832" lon="10.8780274"><ele>123.0</ele><time>2026-04-06T09:58:52.003Z</time></trkpt><trkpt lat="45.6421892" lon="10.8781005"><ele>122.0</ele><time>2026-04-06T09:58:53.003Z</time></trkpt><trkpt lat="45.6423886" lon="10.8781709"><ele>122.0</ele><time>2026-04-06T09:58:54.002Z</time></trkpt><trkpt lat="45.6425868" lon="10.8782393"><ele>122.0</ele><time>2026-04-06T09:58:55.003Z</time></trkpt><trkpt lat="45.6427849" lon="10.8783103"><ele>122.0</ele><time>2026-04-06T09:58:56.003Z</time></trkpt><trkpt lat="45.6429851" lon="10.8783829"><ele>119.33333333333333</ele><time>2026-04-06T09:58:57.003Z</time></trkpt><trkpt lat="45.6431874" lon="10.8784542"><ele>116.66666666666666</ele><time>2026-04-06T09:58:58.003Z</time></trkpt><trkpt lat="45.6433927" lon="10.8785254"><ele>114.0</ele><time>2026-04-06T09:58:59.003Z</time></trkpt><trkpt lat="45.6435998" lon="10.8785955"><ele>114.66666666666666</ele><time>2026-04-06T09:59:00.002Z</time></trkpt><trkpt lat="45.6438071" lon="10.8786673"><ele>115.33333333333333</ele><time>2026-04-06T09:59:01.002Z</time></trkpt><trkpt lat="45.6440057" lon="10.8787369"><ele>116.0</ele><time>2026-04-06T09:59:02.003Z</time></trkpt><trkpt lat="45.6442046" lon="10.8788061"><ele>116.0</ele><time>2026-04-06T09:59:03.003Z</time></trkpt><trkpt lat="45.6444049" lon="10.8788764"><ele>116.0</ele><time>2026-04-06T09:59:04.002Z</time></trkpt><trkpt lat="45.6446082" lon="10.8789466"><ele>116.0</ele><time>2026-04-06T09:59:05.003Z</time></trkpt><trkpt lat="45.6448129" lon="10.8790188"><ele>118.0</ele><time>2026-04-06T09:59:06.002Z</time></trkpt><trkpt lat="45.6450037" lon="10.8790844"><ele>120.0</ele><time>2026-04-06T09:59:07.003Z</time></trkpt><trkpt lat="45.6451864" lon="10.8791462"><ele>122.0</ele><time>2026-04-06T09:59:08.002Z</time></trkpt><trkpt lat="45.645361" lon="10.8792059"><ele>124.0</ele><time>2026-04-06T09:59:09.002Z</time></trkpt><trkpt lat="45.6455308" lon="10.8792644"><ele>126.0</ele><time>2026-04-06T09:59:10.003Z</time></trkpt><trkpt lat="45.6456931" lon="10.8793193"><ele>128.0</ele><time>2026-04-06T09:59:11.003Z</time></trkpt><trkpt lat="45.6458463" lon="10.8793704"><ele>129.33333333333331</ele><time>2026-04-06T09:59:12.003Z</time></trkpt><trkpt lat="45.6459997" lon="10.8794262"><ele>130.66666666666666</ele><time>2026-04-06T09:59:13.002Z</time></trkpt><trkpt lat="45.6461535" lon="10.8794936"><ele>132.0</ele><time>2026-04-06T09:59:14.002Z</time></trkpt><trkpt lat="45.6463043" lon="10.8795819"><ele>132.0</ele><time>2026-04-06T09:59:15.003Z</time></trkpt><trkpt lat="45.6464464" lon="10.8796996"><ele>132.0</ele><time>2026-04-06T09:59:16.002Z</time></trkpt><trkpt lat="45.646577" lon="10.8798434"><ele>132.0</ele><time>2026-04-06T09:59:17.002Z</time></trkpt><trkpt lat="45.6466978" lon="10.8800164"><ele>127.33333333333334</ele><time>2026-04-06T09:59:18.002Z</time></trkpt><trkpt lat="45.6468136" lon="10.8802192"><ele>122.66666666666667</ele><time>2026-04-06T09:59:19.002Z</time></trkpt><trkpt lat="45.6469295" lon="10.8804457"><ele>118.0</ele><time>2026-04-06T09:59:20.003Z</time></trkpt><trkpt lat="45.6470523" lon="10.8807034"><ele>122.66666666666667</ele><time>2026-04-06T09:59:21.003Z</time></trkpt><trkpt lat="45.647175" lon="10.88095"><ele>127.33333333333334</ele><time>2026-04-06T09:59:22.002Z</time></trkpt><trkpt lat="45.6472928" lon="10.8811937"><ele>132.0</ele><time>2026-04-06T09:59:23.002Z</time></trkpt><trkpt lat="45.6474115" lon="10.8814363"><ele>132.0</ele><time>2026-04-06T09:59:24.003Z</time></trkpt><trkpt lat="45.6475283" lon="10.8816795"><ele>132.0</ele><time>2026-04-06T09:59:25.002Z</time></trkpt><trkpt lat="45.6476446" lon="10.8819224"><ele>132.0</ele><time>2026-04-06T09:59:26.002Z</time></trkpt><trkpt lat="45.6477585" lon="10.8821513"><ele>132.33333333333334</ele><time>2026-04-06T09:59:27.002Z</time></trkpt><trkpt lat="45.6478753" lon="10.8823719"><ele>132.66666666666669</ele><time>2026-04-06T09:59:28.003Z</time></trkpt><trkpt lat="45.6480067" lon="10.8825952"><ele>133.0</ele><time>2026-04-06T09:59:29.003Z</time></trkpt><trkpt lat="45.6481503" lon="10.8828087"><ele>129.66666666666669</ele><time>2026-04-06T09:59:30.003Z</time></trkpt><trkpt lat="45.6482974" lon="10.8830046"><ele>126.33333333333334</ele><time>2026-04-06T09:59:31.002Z</time></trkpt><trkpt lat="45.6484466" lon="10.8831821"><ele>123.0</ele><time>2026-04-06T09:59:32.002Z</time></trkpt><trkpt lat="45.648604" lon="10.8833571"><ele>123.0</ele><time>2026-04-06T09:59:33.002Z</time></trkpt><trkpt lat="45.6487684" lon="10.883524"><ele>123.0</ele><time>2026-04-06T09:59:34.003Z</time></trkpt><trkpt lat="45.6489414" lon="10.8836846"><ele>123.0</ele><time>2026-04-06T09:59:35.003Z</time></trkpt><trkpt lat="45.6491168" lon="10.8838467"><ele>123.0</ele><time>2026-04-06T09:59:36.003Z</time></trkpt><trkpt lat="45.6492824" lon="10.8840038"><ele>123.0</ele><time>2026-04-06T09:59:37.003Z</time></trkpt><trkpt lat="45.6494538" lon="10.8841629"><ele>123.0</ele><time>2026-04-06T09:59:38.002Z</time></trkpt><trkpt lat="45.6496277" lon="10.884318"><ele>125.0</ele><time>2026-04-06T09:59:39.002Z</time></trkpt><trkpt lat="45.6497993" lon="10.8844743"><ele>127.0</ele><time>2026-04-06T09:59:40.002Z</time></trkpt><trkpt lat="45.6499705" lon="10.8846366"><ele>129.0</ele><time>2026-04-06T09:59:41.002Z</time></trkpt><trkpt lat="45.6501434" lon="10.8848031"><ele>129.0</ele><time>2026-04-06T09:59:42.002Z</time></trkpt><trkpt lat="45.6503164" lon="10.884983"><ele>129.0</ele><time>2026-04-06T09:59:43.003Z</time></trkpt><trkpt lat="45.6504797" lon="10.8851839"><ele>129.0</ele><time>2026-04-06T09:59:44.003Z</time></trkpt><trkpt lat="45.650634" lon="10.8854043"><ele>129.0</ele><time>2026-04-06T09:59:45.002Z</time></trkpt><trkpt lat="45.6507906" lon="10.8856324"><ele>129.0</ele><time>2026-04-06T09:59:46.002Z</time></trkpt><trkpt lat="45.6509529" lon="10.8858666"><ele>131.0</ele><time>2026-04-06T09:59:47.003Z</time></trkpt><trkpt lat="45.6511247" lon="10.8861171"><ele>133.0</ele><time>2026-04-06T09:59:48.002Z</time></trkpt><trkpt lat="45.6512993" lon="10.8863702"><ele>133.0</ele><time>2026-04-06T09:59:49.002Z</time></trkpt><trkpt lat="45.6514633" lon="10.8866104"><ele>133.0</ele><time>2026-04-06T09:59:50.003Z</time></trkpt><trkpt lat="45.6516178" lon="10.8868359"><ele>133.0</ele><time>2026-04-06T09:59:51.003Z</time></trkpt><trkpt lat="45.6517558" lon="10.8870362"><ele>133.0</ele><time>2026-04-06T09:59:52.003Z</time></trkpt><trkpt lat="45.6518896" lon="10.8872275"><ele>133.0</ele><time>2026-04-06T09:59:53.002Z</time></trkpt><trkpt lat="45.6520275" lon="10.8874116"><ele>133.0</ele><time>2026-04-06T09:59:54.002Z</time></trkpt><trkpt lat="45.652165" lon="10.8875878"><ele>133.0</ele><time>2026-04-06T09:59:55.002Z</time></trkpt><trkpt lat="45.6522914" lon="10.887745"><ele>133.0</ele><time>2026-04-06T09:59:56.002Z</time></trkpt><trkpt lat="45.6524149" lon="10.8878844"><ele>132.75</ele><time>2026-04-06T09:59:57.003Z</time></trkpt><trkpt lat="45.6525302" lon="10.8879916"><ele>132.5</ele><time>2026-04-06T09:59:58.003Z</time></trkpt><trkpt lat="45.6526373" lon="10.8880903"><ele>132.25</ele><time>2026-04-06T09:59:59.003Z</time></trkpt><trkpt lat="45.6527268" lon="10.8881901"><ele>132.0</ele><time>2026-04-06T10:00:00.002Z</time></trkpt><trkpt lat="45.65279" lon="10.888308"><ele>131.75</ele><time>2026-04-06T10:00:01.003Z</time></trkpt><trkpt lat="45.652839" lon="10.8884494"><ele>131.5</ele><time>2026-04-06T10:00:02.002Z</time></trkpt><trkpt lat="45.6528821" lon="10.8886148"><ele>131.25</ele><time>2026-04-06T10:00:03.002Z</time></trkpt><trkpt lat="45.6529296" lon="10.8888041"><ele>131.0</ele><time>2026-04-06T10:00:04.002Z</time></trkpt><trkpt lat="45.6529873" lon="10.8890122"><ele>131.0</ele><time>2026-04-06T10:00:05.003Z</time></trkpt><trkpt lat="45.6530436" lon="10.8892261"><ele>131.0</ele><time>2026-04-06T10:00:06.002Z</time></trkpt><trkpt lat="45.6530968" lon="10.8894366"><ele>131.0</ele><time>2026-04-06T10:00:07.002Z</time></trkpt><trkpt lat="45.653153" lon="10.8896592"><ele>130.33333333333331</ele><time>2026-04-06T10:00:08.003Z</time></trkpt><trkpt lat="45.6532098" lon="10.8898763"><ele>129.66666666666666</ele><time>2026-04-06T10:00:09.003Z</time></trkpt><trkpt lat="45.6532635" lon="10.8900875"><ele>129.0</ele><time>2026-04-06T10:00:10.003Z</time></trkpt><trkpt lat="45.6533171" lon="10.8902936"><ele>128.5</ele><time>2026-04-06T10:00:11.002Z</time></trkpt><trkpt lat="45.6533774" lon="10.89049"><ele>128.0</ele><time>2026-04-06T10:00:12.003Z</time></trkpt><trkpt lat="45.6534482" lon="10.8906779"><ele>127.5</ele><time>2026-04-06T10:00:13.002Z</time></trkpt><trkpt lat="45.6535275" lon="10.8908527"><ele>127.0</ele><time>2026-04-06T10:00:14.002Z</time></trkpt><trkpt lat="45.6536117" lon="10.8910195"><ele>127.0</ele><time>2026-04-06T10:00:15.003Z</time></trkpt><trkpt lat="45.6536972" lon="10.8911748"><ele>127.0</ele><time>2026-04-06T10:00:16.003Z</time></trkpt><trkpt lat="45.653783" lon="10.8913207"><ele>127.0</ele><time>2026-04-06T10:00:17.003Z</time></trkpt><trkpt lat="45.6538623" lon="10.8914532"><ele>127.0</ele><time>2026-04-06T10:00:18.003Z</time></trkpt><trkpt lat="45.6539361" lon="10.8915869"><ele>127.0</ele><time>2026-04-06T10:00:19.002Z</time></trkpt><trkpt lat="45.6540117" lon="10.891737"><ele>127.0</ele><time>2026-04-06T10:00:20.003Z</time></trkpt><trkpt lat="45.6540947" lon="10.8919055"><ele>127.0</ele><time>2026-04-06T10:00:21.002Z</time></trkpt><trkpt lat="45.6541711" lon="10.8920767"><ele>127.0</ele><time>2026-04-06T10:00:22.002Z</time></trkpt><trkpt lat="45.6542343" lon="10.892256"><ele>126.75</ele><time>2026-04-06T10:00:23.003Z</time></trkpt><trkpt lat="45.6542925" lon="10.8924483"><ele>126.5</ele><time>2026-04-06T10:00:24.003Z</time></trkpt><trkpt lat="45.6543411" lon="10.8926327"><ele>126.25</ele><time>2026-04-06T10:00:25.002Z</time></trkpt><trkpt lat="45.6543905" lon="10.8928071"><ele>126.0</ele><time>2026-04-06T10:00:26.003Z</time></trkpt><trkpt lat="45.6544426" lon="10.8929734"><ele>125.25</ele><time>2026-04-06T10:00:27.002Z</time></trkpt><trkpt lat="45.6545027" lon="10.8931405"><ele>124.5</ele><time>2026-04-06T10:00:28.002Z</time></trkpt><trkpt lat="45.6545707" lon="10.8932901"><ele>123.75</ele><time>2026-04-06T10:00:29.002Z</time></trkpt><trkpt lat="45.6546412" lon="10.8934266"><ele>123.0</ele><time>2026-04-06T10:00:30.002Z</time></trkpt><trkpt lat="45.6547207" lon="10.8935522"><ele>122.0</ele><time>2026-04-06T10:00:31.003Z</time></trkpt><trkpt lat="45.6548105" lon="10.8936465"><ele>121.0</ele><time>2026-04-06T10:00:32.003Z</time></trkpt><trkpt lat="45.6549101" lon="10.8937227"><ele>120.0</ele><time>2026-04-06T10:00:33.003Z</time></trkpt><trkpt lat="45.6550282" lon="10.8937817"><ele>119.0</ele><time>2026-04-06T10:00:34.002Z</time></trkpt><trkpt lat="45.6551552" lon="10.8938235"><ele>119.0</ele><time>2026-04-06T10:00:35.003Z</time></trkpt><trkpt lat="45.6552731" lon="10.8938544"><ele>119.0</ele><time>2026-04-06T10:00:36.002Z</time></trkpt><trkpt lat="45.6553909" lon="10.8938769"><ele>119.0</ele><time>2026-04-06T10:00:37.002Z</time></trkpt><trkpt lat="45.6555142" lon="10.8938868"><ele>119.0</ele><time>2026-04-06T10:00:38.002Z</time></trkpt><trkpt lat="45.6556368" lon="10.8938907"><ele>119.0</ele><time>2026-04-06T10:00:39.003Z</time></trkpt><trkpt lat="45.6557626" lon="10.8939032"><ele>119.0</ele><time>2026-04-06T10:00:40.002Z</time></trkpt><trkpt lat="45.6558663" lon="10.8939226"><ele>119.0</ele><time>2026-04-06T10:00:41.003Z</time></trkpt><trkpt lat="45.6559729" lon="10.8939467"><ele>119.0</ele><time>2026-04-06T10:00:42.003Z</time></trkpt><trkpt lat="45.6560778" lon="10.893969"><ele>119.0</ele><time>2026-04-06T10:00:43.002Z</time></trkpt><trkpt lat="45.6561835" lon="10.8939872"><ele>119.0</ele><time>2026-04-06T10:00:44.003Z</time></trkpt><trkpt lat="45.6562971" lon="10.8940043"><ele>119.0</ele><time>2026-04-06T10:00:45.003Z</time></trkpt><trkpt lat="45.6564123" lon="10.8940294"><ele>119.0</ele><time>2026-04-06T10:00:46.002Z</time></trkpt><trkpt lat="45.656522" lon="10.8940609"><ele>119.0</ele><time>2026-04-06T10:00:47.002Z</time></trkpt><trkpt lat="45.6566378" lon="10.8940928"><ele>119.0</ele><time>2026-04-06T10:00:48.003Z</time></trkpt><trkpt lat="45.6567583" lon="10.8941204"><ele>119.0</ele><time>2026-04-06T10:00:49.003Z</time></trkpt><trkpt lat="45.6568815" lon="10.8941427"><ele>119.0</ele><time>2026-04-06T10:00:50.002Z</time></trkpt><trkpt lat="45.6570058" lon="10.8941506"><ele>119.0</ele><time>2026-04-06T10:00:51.003Z</time></trkpt><trkpt lat="45.6571307" lon="10.8941582"><ele>119.5</ele><time>2026-04-06T10:00:52.003Z</time></trkpt><trkpt lat="45.6572557" lon="10.8941648"><ele>120.0</ele><time>2026-04-06T10:00:53.002Z</time></trkpt><trkpt lat="45.6573798" lon="10.8941723"><ele>120.5</ele><time>2026-04-06T10:00:54.003Z</time></trkpt><trkpt lat="45.6575016" lon="10.894178"><ele>121.0</ele><time>2026-04-06T10:00:55.003Z</time></trkpt><trkpt lat="45.657608" lon="10.8941855"><ele>121.0</ele><time>2026-04-06T10:00:56.002Z</time></trkpt><trkpt lat="45.6577111" lon="10.8941945"><ele>121.0</ele><time>2026-04-06T10:00:57.003Z</time></trkpt><trkpt lat="45.6578222" lon="10.8942094"><ele>121.0</ele><time>2026-04-06T10:00:58.003Z</time></trkpt><trkpt lat="45.6579262" lon="10.8942295"><ele>121.0</ele><time>2026-04-06T10:00:59.003Z</time></trkpt><trkpt lat="45.6580299" lon="10.894254"><ele>121.0</ele><time>2026-04-06T10:01:00.002Z</time></trkpt><trkpt lat="45.6581404" lon="10.8942836"><ele>121.0</ele><time>2026-04-06T10:01:01.002Z</time></trkpt><trkpt lat="45.6582479" lon="10.8943153"><ele>121.0</ele><time>2026-04-06T10:01:02.003Z</time></trkpt><trkpt lat="45.6583537" lon="10.8943465"><ele>121.0</ele><time>2026-04-06T10:01:03.003Z</time></trkpt><trkpt lat="45.6584683" lon="10.8943803"><ele>121.0</ele><time>2026-04-06T10:01:04.002Z</time></trkpt><trkpt lat="45.6585774" lon="10.8944237"><ele>121.0</ele><time>2026-04-06T10:01:05.002Z</time></trkpt><trkpt lat="45.6586759" lon="10.8944746"><ele>121.0</ele><time>2026-04-06T10:01:06.002Z</time></trkpt><trkpt lat="45.6587756" lon="10.8945434"><ele>121.0</ele><time>2026-04-06T10:01:07.002Z</time></trkpt><trkpt lat="45.6588745" lon="10.8946272"><ele>121.0</ele><time>2026-04-06T10:01:08.003Z</time></trkpt><trkpt lat="45.6589679" lon="10.8947107"><ele>121.0</ele><time>2026-04-06T10:01:09.002Z</time></trkpt><trkpt lat="45.6590388" lon="10.8947757"><ele>121.0</ele><time>2026-04-06T10:01:10.002Z</time></trkpt><trkpt lat="45.6590991" lon="10.8948313"><ele>121.00000000000001</ele><time>2026-04-06T10:01:11.003Z</time></trkpt><trkpt lat="45.6591772" lon="10.8949384"><ele>121.0</ele><time>2026-04-06T10:01:13.002Z</time></trkpt><trkpt lat="45.6592151" lon="10.8950281"><ele>121.0</ele><time>2026-04-06T10:01:15.002Z</time></trkpt><trkpt lat="45.6592682" lon="10.8950881"><ele>121.0</ele><time>2026-04-06T10:01:19.003Z</time></trkpt><trkpt lat="45.6593535" lon="10.8951317"><ele>121.00000000000001</ele><time>2026-04-06T10:02:07.003Z</time></trkpt><trkpt lat="45.659457" lon="10.8951773"><ele>121.0</ele><time>2026-04-06T10:02:09.003Z</time></trkpt><trkpt lat="45.6595255" lon="10.8951705"><ele>121.0</ele><time>2026-04-06T10:02:12.003Z</time></trkpt><trkpt lat="45.6594932" lon="10.8950589"><ele>121.0</ele><time>2026-04-06T10:02:16.003Z</time></trkpt><trkpt lat="45.6593756" lon="10.8949727"><ele>121.0</ele><time>2026-04-06T10:02:18.002Z</time></trkpt><trkpt lat="45.6593024" lon="10.8949266"><ele>121.0</ele><time>2026-04-06T10:02:19.003Z</time></trkpt><trkpt lat="45.6592124" lon="10.8948648"><ele>121.0</ele><time>2026-04-06T10:02:20.002Z</time></trkpt><trkpt lat="45.6591173" lon="10.8947903"><ele>121.0</ele><time>2026-04-06T10:02:21.003Z</time></trkpt><trkpt lat="45.6590359" lon="10.8947137"><ele>121.0</ele><time>2026-04-06T10:02:22.002Z</time></trkpt><trkpt lat="45.658952" lon="10.8946379"><ele>121.0</ele><time>2026-04-06T10:02:23.002Z</time></trkpt><trkpt lat="45.6588667" lon="10.8945634"><ele>121.0</ele><time>2026-04-06T10:02:24.003Z</time></trkpt><trkpt lat="45.6587805" lon="10.8944943"><ele>121.0</ele><time>2026-04-06T10:02:25.002Z</time></trkpt><trkpt lat="45.65869" lon="10.8944344"><ele>120.6</ele><time>2026-04-06T10:02:26.002Z</time></trkpt><trkpt lat="45.6585881" lon="10.8943799"><ele>120.19999999999999</ele><time>2026-04-06T10:02:27.002Z</time></trkpt><trkpt lat="45.6584802" lon="10.8943343"><ele>119.80000000000001</ele><time>2026-04-06T10:02:28.002Z</time></trkpt><trkpt lat="45.658384" lon="10.8943028"><ele>119.4</ele><time>2026-04-06T10:02:29.003Z</time></trkpt><trkpt lat="45.6582954" lon="10.8942758"><ele>119.0</ele><time>2026-04-06T10:02:30.002Z</time></trkpt><trkpt lat="45.6582121" lon="10.8942532"><ele>119.4</ele><time>2026-04-06T10:02:31.002Z</time></trkpt><trkpt lat="45.658125" lon="10.8942275"><ele>119.80000000000001</ele><time>2026-04-06T10:02:32.002Z</time></trkpt><trkpt lat="45.6580243" lon="10.8941983"><ele>120.19999999999999</ele><time>2026-04-06T10:02:33.002Z</time></trkpt><trkpt lat="45.6579123" lon="10.8941778"><ele>120.6</ele><time>2026-04-06T10:02:34.003Z</time></trkpt><trkpt lat="45.6577972" lon="10.8941626"><ele>121.0</ele><time>2026-04-06T10:02:35.003Z</time></trkpt><trkpt lat="45.6576715" lon="10.8941529"><ele>121.0</ele><time>2026-04-06T10:02:36.003Z</time></trkpt><trkpt lat="45.6575481" lon="10.8941442"><ele>121.0</ele><time>2026-04-06T10:02:37.002Z</time></trkpt><trkpt lat="45.6574314" lon="10.8941377"><ele>121.0</ele><time>2026-04-06T10:02:38.002Z</time></trkpt><trkpt lat="45.6573189" lon="10.8941317"><ele>121.0</ele><time>2026-04-06T10:02:39.003Z</time></trkpt><trkpt lat="45.6572121" lon="10.8941252"><ele>121.00000000000001</ele><time>2026-04-06T10:02:40.002Z</time></trkpt><trkpt lat="45.6571104" lon="10.8941209"><ele>121.0</ele><time>2026-04-06T10:02:41.003Z</time></trkpt><trkpt lat="45.6570199" lon="10.8941124"><ele>121.0</ele><time>2026-04-06T10:02:42.002Z</time></trkpt><trkpt lat="45.656941" lon="10.8941062"><ele>121.0</ele><time>2026-04-06T10:02:43.002Z</time></trkpt><trkpt lat="45.6568738" lon="10.8941013"><ele>121.00000000000001</ele><time>2026-04-06T10:02:44.002Z</time></trkpt><trkpt lat="45.6567738" lon="10.8941265"><ele>121.0</ele><time>2026-04-06T10:02:46.002Z</time></trkpt><trkpt lat="45.6567201" lon="10.894247"><ele>119.4</ele><time>2026-04-06T10:02:48.002Z</time></trkpt><trkpt lat="45.6567069" lon="10.8943477"><ele>117.8</ele><time>2026-04-06T10:02:49.002Z</time></trkpt><trkpt lat="45.6566953" lon="10.8944759"><ele>116.20000000000002</ele><time>2026-04-06T10:02:50.002Z</time></trkpt><trkpt lat="45.6566824" lon="10.8946227"><ele>114.60000000000001</ele><time>2026-04-06T10:02:51.002Z</time></trkpt><trkpt lat="45.656667" lon="10.8947719"><ele>113.0</ele><time>2026-04-06T10:02:52.003Z</time></trkpt><trkpt lat="45.6566525" lon="10.8949378"><ele>113.0</ele><time>2026-04-06T10:02:53.002Z</time></trkpt><trkpt lat="45.6566389" lon="10.895102"><ele>113.0</ele><time>2026-04-06T10:02:54.003Z</time></trkpt><trkpt lat="45.6566232" lon="10.8952625"><ele>113.0</ele><time>2026-04-06T10:02:55.002Z</time></trkpt><trkpt lat="45.6566064" lon="10.8954306"><ele>113.0</ele><time>2026-04-06T10:02:56.002Z</time></trkpt><trkpt lat="45.6565904" lon="10.8956094"><ele>113.0</ele><time>2026-04-06T10:02:57.003Z</time></trkpt><trkpt lat="45.6565733" lon="10.8957844"><ele>113.0</ele><time>2026-04-06T10:02:58.003Z</time></trkpt><trkpt lat="45.6565559" lon="10.8959629"><ele>113.0</ele><time>2026-04-06T10:02:59.003Z</time></trkpt><trkpt lat="45.6565366" lon="10.8961524"><ele>113.0</ele><time>2026-04-06T10:03:00.002Z</time></trkpt><trkpt lat="45.6565194" lon="10.8963277"><ele>114.0</ele><time>2026-04-06T10:03:01.002Z</time></trkpt><trkpt lat="45.6565047" lon="10.8965035"><ele>115.0</ele><time>2026-04-06T10:03:02.003Z</time></trkpt><trkpt lat="45.6564862" lon="10.8966888"><ele>116.0</ele><time>2026-04-06T10:03:03.003Z</time></trkpt><trkpt lat="45.6564656" lon="10.8968708"><ele>117.0</ele><time>2026-04-06T10:03:04.003Z</time></trkpt><trkpt lat="45.6564476" lon="10.8970377"><ele>117.39999999999999</ele><time>2026-04-06T10:03:05.003Z</time></trkpt><trkpt lat="45.6564308" lon="10.8971939"><ele>117.79999999999998</ele><time>2026-04-06T10:03:06.003Z</time></trkpt><trkpt lat="45.6564135" lon="10.897343"><ele>118.2</ele><time>2026-04-06T10:03:07.003Z</time></trkpt><trkpt lat="45.6563938" lon="10.8974964"><ele>118.6</ele><time>2026-04-06T10:03:08.002Z</time></trkpt><trkpt lat="45.6563722" lon="10.8976428"><ele>119.0</ele><time>2026-04-06T10:03:09.003Z</time></trkpt><trkpt lat="45.6563467" lon="10.8977711"><ele>118.99999999999999</ele><time>2026-04-06T10:03:10.002Z</time></trkpt><trkpt lat="45.6563115" lon="10.8978722"><ele>119.0</ele><time>2026-04-06T10:03:11.003Z</time></trkpt><trkpt lat="45.6562598" lon="10.8979548"><ele>119.0</ele><time>2026-04-06T10:03:12.002Z</time></trkpt><trkpt lat="45.6561897" lon="10.8980156"><ele>119.0</ele><time>2026-04-06T10:03:13.003Z</time></trkpt><trkpt lat="45.6560997" lon="10.8980429"><ele>118.99999999999999</ele><time>2026-04-06T10:03:14.003Z</time></trkpt><trkpt lat="45.6559921" lon="10.8980397"><ele>119.0</ele><time>2026-04-06T10:03:15.003Z</time></trkpt><trkpt lat="45.6558695" lon="10.8980179"><ele>119.0</ele><time>2026-04-06T10:03:16.002Z</time></trkpt><trkpt lat="45.6557402" lon="10.8980116"><ele>119.0</ele><time>2026-04-06T10:03:17.003Z</time></trkpt><trkpt lat="45.655625" lon="10.8980286"><ele>119.0</ele><time>2026-04-06T10:03:18.002Z</time></trkpt><trkpt lat="45.6555092" lon="10.8980686"><ele>119.0</ele><time>2026-04-06T10:03:19.002Z</time></trkpt><trkpt lat="45.6553966" lon="10.8981398"><ele>119.0</ele><time>2026-04-06T10:03:20.002Z</time></trkpt><trkpt lat="45.6552995" lon="10.8982317"><ele>119.0</ele><time>2026-04-06T10:03:21.003Z</time></trkpt><trkpt lat="45.6552089" lon="10.8983539"><ele>119.0</ele><time>2026-04-06T10:03:22.003Z</time></trkpt><trkpt lat="45.6551326" lon="10.8985051"><ele>119.0</ele><time>2026-04-06T10:03:23.003Z</time></trkpt><trkpt lat="45.6550677" lon="10.8986927"><ele>119.66666666666666</ele><time>2026-04-06T10:03:24.002Z</time></trkpt><trkpt lat="45.6550141" lon="10.898897"><ele>120.33333333333334</ele><time>2026-04-06T10:03:25.002Z</time></trkpt><trkpt lat="45.6549605" lon="10.8991289"><ele>121.0</ele><time>2026-04-06T10:03:26.002Z</time></trkpt><trkpt lat="45.6549042" lon="10.8993627"><ele>122.33333333333334</ele><time>2026-04-06T10:03:27.002Z</time></trkpt><trkpt lat="45.6548369" lon="10.8996558"><ele>123.66666666666666</ele><time>2026-04-06T10:03:28.002Z</time></trkpt><trkpt lat="45.6547764" lon="10.8999029"><ele>125.0</ele><time>2026-04-06T10:03:29.002Z</time></trkpt><trkpt lat="45.6547219" lon="10.900133"><ele>126.0</ele><time>2026-04-06T10:03:30.003Z</time></trkpt><trkpt lat="45.654672" lon="10.9003363"><ele>127.0</ele><time>2026-04-06T10:03:31.003Z</time></trkpt><trkpt lat="45.6546278" lon="10.9005139"><ele>128.0</ele><time>2026-04-06T10:03:32.002Z</time></trkpt><trkpt lat="45.654589" lon="10.9006695"><ele>129.0</ele><time>2026-04-06T10:03:33.003Z</time></trkpt><trkpt lat="45.6545543" lon="10.9007986"><ele>129.0</ele><time>2026-04-06T10:03:34.003Z</time></trkpt><trkpt lat="45.6545182" lon="10.9009017"><ele>129.0</ele><time>2026-04-06T10:03:35.003Z</time></trkpt><trkpt lat="45.6544883" lon="10.900983"><ele>129.0</ele><time>2026-04-06T10:03:36.003Z</time></trkpt><trkpt lat="45.6544595" lon="10.9010812"><ele>129.0</ele><time>2026-04-06T10:03:38.002Z</time></trkpt><trkpt lat="45.6544567" lon="10.90121"><ele>129.0</ele><time>2026-04-06T10:04:22.003Z</time></trkpt><trkpt lat="45.6545074" lon="10.9013148"><ele>129.0</ele><time>2026-04-06T10:04:24.002Z</time></trkpt><trkpt lat="45.6546289" lon="10.901414"><ele>130.6</ele><time>2026-04-06T10:04:26.002Z</time></trkpt><trkpt lat="45.6547196" lon="10.9014525"><ele>132.2</ele><time>2026-04-06T10:04:27.002Z</time></trkpt><trkpt lat="45.6548225" lon="10.9014841"><ele>133.79999999999998</ele><time>2026-04-06T10:04:28.003Z</time></trkpt><trkpt lat="45.6549339" lon="10.9015195"><ele>135.4</ele><time>2026-04-06T10:04:29.003Z</time></trkpt><trkpt lat="45.6550485" lon="10.9015625"><ele>137.0</ele><time>2026-04-06T10:04:30.003Z</time></trkpt><trkpt lat="45.6551735" lon="10.9016106"><ele>137.5</ele><time>2026-04-06T10:04:31.003Z</time></trkpt><trkpt lat="45.6552905" lon="10.9016537"><ele>138.0</ele><time>2026-04-06T10:04:32.002Z</time></trkpt><trkpt lat="45.6554137" lon="10.9016992"><ele>138.5</ele><time>2026-04-06T10:04:33.002Z</time></trkpt><trkpt lat="45.6555423" lon="10.9017512"><ele>139.0</ele><time>2026-04-06T10:04:34.002Z</time></trkpt><trkpt lat="45.6556752" lon="10.9018032"><ele>140.0</ele><time>2026-04-06T10:04:35.003Z</time></trkpt><trkpt lat="45.6558008" lon="10.9018522"><ele>141.0</ele><time>2026-04-06T10:04:36.002Z</time></trkpt><trkpt lat="45.6559256" lon="10.9018962"><ele>142.0</ele><time>2026-04-06T10:04:37.003Z</time></trkpt><trkpt lat="45.6560553" lon="10.9019519"><ele>143.0</ele><time>2026-04-06T10:04:38.002Z</time></trkpt><trkpt lat="45.6561873" lon="10.9020044"><ele>143.0</ele><time>2026-04-06T10:04:39.003Z</time></trkpt><trkpt lat="45.6563159" lon="10.9020519"><ele>143.0</ele><time>2026-04-06T10:04:40.002Z</time></trkpt><trkpt lat="45.6564394" lon="10.9020999"><ele>143.0</ele><time>2026-04-06T10:04:41.003Z</time></trkpt><trkpt lat="45.6565667" lon="10.9021506"><ele>143.0</ele><time>2026-04-06T10:04:42.002Z</time></trkpt><trkpt lat="45.6567023" lon="10.9022055"><ele>143.0</ele><time>2026-04-06T10:04:43.003Z</time></trkpt><trkpt lat="45.6568206" lon="10.9022477"><ele>143.0</ele><time>2026-04-06T10:04:44.003Z</time></trkpt><trkpt lat="45.6569185" lon="10.9022887"><ele>143.0</ele><time>2026-04-06T10:04:45.003Z</time></trkpt><trkpt lat="45.6570026" lon="10.9023231"><ele>143.0</ele><time>2026-04-06T10:04:46.003Z</time></trkpt><trkpt lat="45.6570791" lon="10.9023547"><ele>143.0</ele><time>2026-04-06T10:04:47.002Z</time></trkpt><trkpt lat="45.6571399" lon="10.9023812"><ele>142.16666666666666</ele><time>2026-04-06T10:04:48.003Z</time></trkpt><trkpt lat="45.6572134" lon="10.9024213"><ele>141.33333333333331</ele><time>2026-04-06T10:04:50.002Z</time></trkpt><trkpt lat="45.6572225" lon="10.9025203"><ele>140.5</ele><time>2026-04-06T10:04:55.003Z</time></trkpt><trkpt lat="45.6571513" lon="10.9025514"><ele>139.66666666666666</ele><time>2026-04-06T10:04:58.002Z</time></trkpt><trkpt lat="45.6570731" lon="10.902519"><ele>138.83333333333334</ele><time>2026-04-06T10:05:01.003Z</time></trkpt><trkpt lat="45.6569944" lon="10.9024882"><ele>138.0</ele><time>2026-04-06T10:05:04.002Z</time></trkpt><trkpt lat="45.656986" lon="10.9023953"><ele>138.0</ele><time>2026-04-06T10:05:08.002Z</time></trkpt><trkpt lat="45.657053" lon="10.902416"><ele>138.0</ele><time>2026-04-06T10:05:36.003Z</time></trkpt><trkpt lat="45.6571157" lon="10.9024461"><ele>138.0</ele><time>2026-04-06T10:05:42.003Z</time></trkpt><trkpt lat="45.6571779" lon="10.9024834"><ele>138.0</ele><time>2026-04-06T10:11:11.003Z</time></trkpt><trkpt lat="45.6572422" lon="10.9024862"><ele>138.0</ele><time>2026-04-06T10:11:33.003Z</time></trkpt><trkpt lat="45.6572999" lon="10.9024491"><ele>138.0</ele><time>2026-04-06T10:11:36.002Z</time></trkpt><trkpt lat="45.6573833" lon="10.9024577"><ele>138.0</ele><time>2026-04-06T10:11:38.003Z</time></trkpt><trkpt lat="45.6575012" lon="10.9024999"><ele>138.0</ele><time>2026-04-06T10:11:40.002Z</time></trkpt><trkpt lat="45.6575715" lon="10.9025297"><ele>138.0</ele><time>2026-04-06T10:11:41.002Z</time></trkpt><trkpt lat="45.6576452" lon="10.9025594"><ele>138.0</ele><time>2026-04-06T10:11:42.002Z</time></trkpt><trkpt lat="45.6577332" lon="10.9025932"><ele>138.0</ele><time>2026-04-06T10:11:43.003Z</time></trkpt><trkpt lat="45.6578289" lon="10.9026295"><ele>138.0</ele><time>2026-04-06T10:11:44.002Z</time></trkpt><trkpt lat="45.657933" lon="10.9026693"><ele>138.0</ele><time>2026-04-06T10:11:45.002Z</time></trkpt><trkpt lat="45.6580398" lon="10.9027108"><ele>142.25</ele><time>2026-04-06T10:11:46.002Z</time></trkpt><trkpt lat="45.6581557" lon="10.9027558"><ele>146.5</ele><time>2026-04-06T10:11:47.002Z</time></trkpt><trkpt lat="45.6582705" lon="10.9028007"><ele>150.75</ele><time>2026-04-06T10:11:48.002Z</time></trkpt><trkpt lat="45.6583766" lon="10.9028437"><ele>155.0</ele><time>2026-04-06T10:11:49.002Z</time></trkpt><trkpt lat="45.6584912" lon="10.9028895"><ele>155.0</ele><time>2026-04-06T10:11:50.002Z</time></trkpt><trkpt lat="45.6586084" lon="10.9029351"><ele>155.0</ele><time>2026-04-06T10:11:51.002Z</time></trkpt><trkpt lat="45.658721" lon="10.9029763"><ele>155.0</ele><time>2026-04-06T10:11:52.003Z</time></trkpt><trkpt lat="45.6588332" lon="10.9030165"><ele>155.0</ele><time>2026-04-06T10:11:53.002Z</time></trkpt><trkpt lat="45.6589421" lon="10.9030529"><ele>153.66666666666666</ele><time>2026-04-06T10:11:54.003Z</time></trkpt><trkpt lat="45.6590415" lon="10.9030859"><ele>152.33333333333331</ele><time>2026-04-06T10:11:55.003Z</time></trkpt><trkpt lat="45.6591324" lon="10.9031193"><ele>151.0</ele><time>2026-04-06T10:11:56.002Z</time></trkpt><trkpt lat="45.6592143" lon="10.903152"><ele>149.66666666666666</ele><time>2026-04-06T10:11:57.003Z</time></trkpt><trkpt lat="45.6592883" lon="10.9031859"><ele>148.33333333333334</ele><time>2026-04-06T10:11:58.003Z</time></trkpt><trkpt lat="45.6593513" lon="10.9032202"><ele>147.0</ele><time>2026-04-06T10:11:59.003Z</time></trkpt><trkpt lat="45.6594126" lon="10.9032645"><ele>148.4</ele><time>2026-04-06T10:12:00.003Z</time></trkpt><trkpt lat="45.6594653" lon="10.9033198"><ele>149.79999999999998</ele><time>2026-04-06T10:12:01.002Z</time></trkpt><trkpt lat="45.6595321" lon="10.9034502"><ele>151.2</ele><time>2026-04-06T10:12:03.003Z</time></trkpt><trkpt lat="45.6595301" lon="10.9036111"><ele>152.6</ele><time>2026-04-06T10:12:05.003Z</time></trkpt><trkpt lat="45.65951" lon="10.9037089"><ele>154.0</ele><time>2026-04-06T10:12:06.002Z</time></trkpt><trkpt lat="45.6594833" lon="10.9038281"><ele>154.4</ele><time>2026-04-06T10:12:07.003Z</time></trkpt><trkpt lat="45.6594545" lon="10.9039628"><ele>154.8</ele><time>2026-04-06T10:12:08.003Z</time></trkpt><trkpt lat="45.6594249" lon="10.904114"><ele>155.2</ele><time>2026-04-06T10:12:09.003Z</time></trkpt><trkpt lat="45.6593986" lon="10.9042682"><ele>155.6</ele><time>2026-04-06T10:12:10.003Z</time></trkpt><trkpt lat="45.6593652" lon="10.9044241"><ele>156.0</ele><time>2026-04-06T10:12:11.002Z</time></trkpt><trkpt lat="45.659315" lon="10.9045772"><ele>158.75</ele><time>2026-04-06T10:12:12.003Z</time></trkpt><trkpt lat="45.659248" lon="10.9047336"><ele>161.5</ele><time>2026-04-06T10:12:13.003Z</time></trkpt><trkpt lat="45.6591735" lon="10.9049031"><ele>164.25</ele><time>2026-04-06T10:12:14.002Z</time></trkpt><trkpt lat="45.6591136" lon="10.905051"><ele>167.0</ele><time>2026-04-06T10:12:15.003Z</time></trkpt><trkpt lat="45.659059" lon="10.9051915"><ele>169.0</ele><time>2026-04-06T10:12:16.002Z</time></trkpt><trkpt lat="45.6590084" lon="10.9053441"><ele>171.0</ele><time>2026-04-06T10:12:17.002Z</time></trkpt><trkpt lat="45.6589689" lon="10.9055091"><ele>173.0</ele><time>2026-04-06T10:12:18.003Z</time></trkpt><trkpt lat="45.6589486" lon="10.9056815"><ele>175.0</ele><time>2026-04-06T10:12:19.003Z</time></trkpt><trkpt lat="45.6589435" lon="10.90588"><ele>177.33333333333334</ele><time>2026-04-06T10:12:20.002Z</time></trkpt><trkpt lat="45.6589444" lon="10.9061127"><ele>179.66666666666666</ele><time>2026-04-06T10:12:21.002Z</time></trkpt><trkpt lat="45.6589449" lon="10.906343"><ele>182.0</ele><time>2026-04-06T10:12:22.003Z</time></trkpt><trkpt lat="45.6589493" lon="10.9065728"><ele>185.0</ele><time>2026-04-06T10:12:23.002Z</time></trkpt><trkpt lat="45.6589669" lon="10.9068149"><ele>188.0</ele><time>2026-04-06T10:12:24.002Z</time></trkpt><trkpt lat="45.6589997" lon="10.9070471"><ele>191.0</ele><time>2026-04-06T10:12:25.002Z</time></trkpt><trkpt lat="45.6590367" lon="10.9072682"><ele>191.0</ele><time>2026-04-06T10:12:26.003Z</time></trkpt><trkpt lat="45.6590696" lon="10.9074616"><ele>191.0</ele><time>2026-04-06T10:12:27.002Z</time></trkpt><trkpt lat="45.6590927" lon="10.9076131"><ele>191.0</ele><time>2026-04-06T10:12:28.003Z</time></trkpt><trkpt lat="45.6591072" lon="10.9077372"><ele>191.0</ele><time>2026-04-06T10:12:29.002Z</time></trkpt><trkpt lat="45.6591075" lon="10.90784"><ele>191.0</ele><time>2026-04-06T10:12:30.002Z</time></trkpt><trkpt lat="45.6590847" lon="10.9079376"><ele>192.5</ele><time>2026-04-06T10:12:31.002Z</time></trkpt><trkpt lat="45.6590389" lon="10.9080102"><ele>194.0</ele><time>2026-04-06T10:12:32.002Z</time></trkpt><trkpt lat="45.6589786" lon="10.9080492"><ele>195.5</ele><time>2026-04-06T10:12:33.002Z</time></trkpt><trkpt lat="45.6589153" lon="10.908042"><ele>197.0</ele><time>2026-04-06T10:12:34.003Z</time></trkpt><trkpt lat="45.6588465" lon="10.9079928"><ele>198.50000000000003</ele><time>2026-04-06T10:12:35.002Z</time></trkpt><trkpt lat="45.6587718" lon="10.9078974"><ele>200.0</ele><time>2026-04-06T10:12:36.003Z</time></trkpt><trkpt lat="45.6586833" lon="10.9077576"><ele>202.0</ele><time>2026-04-06T10:12:37.003Z</time></trkpt><trkpt lat="45.6585992" lon="10.9076103"><ele>204.0</ele><time>2026-04-06T10:12:38.003Z</time></trkpt><trkpt lat="45.6585208" lon="10.9074429"><ele>206.0</ele><time>2026-04-06T10:12:39.002Z</time></trkpt><trkpt lat="45.6584523" lon="10.907252"><ele>208.0</ele><time>2026-04-06T10:12:40.003Z</time></trkpt><trkpt lat="45.6583891" lon="10.9070507"><ele>207.99999999999997</ele><time>2026-04-06T10:12:41.003Z</time></trkpt><trkpt lat="45.6583524" lon="10.90687"><ele>208.0</ele><time>2026-04-06T10:12:42.002Z</time></trkpt><trkpt lat="45.6583195" lon="10.9067421"><ele>208.0</ele><time>2026-04-06T10:12:43.003Z</time></trkpt><trkpt lat="45.658279" lon="10.9066465"><ele>208.0</ele><time>2026-04-06T10:12:44.002Z</time></trkpt><trkpt lat="45.6582281" lon="10.9065781"><ele>207.99999999999997</ele><time>2026-04-06T10:12:45.002Z</time></trkpt><trkpt lat="45.6581602" lon="10.9065438"><ele>208.0</ele><time>2026-04-06T10:12:46.002Z</time></trkpt><trkpt lat="45.6580814" lon="10.906546"><ele>208.8</ele><time>2026-04-06T10:12:47.003Z</time></trkpt><trkpt lat="45.6579873" lon="10.9065667"><ele>209.60000000000002</ele><time>2026-04-06T10:12:48.002Z</time></trkpt><trkpt lat="45.6578762" lon="10.9065936"><ele>210.39999999999998</ele><time>2026-04-06T10:12:49.002Z</time></trkpt><trkpt lat="45.6577575" lon="10.9065999"><ele>211.2</ele><time>2026-04-06T10:12:50.002Z</time></trkpt><trkpt lat="45.6576613" lon="10.9065723"><ele>212.0</ele><time>2026-04-06T10:12:51.002Z</time></trkpt><trkpt lat="45.657587" lon="10.9065149"><ele>212.0</ele><time>2026-04-06T10:12:52.002Z</time></trkpt><trkpt lat="45.6575273" lon="10.9064238"><ele>212.0</ele><time>2026-04-06T10:12:53.003Z</time></trkpt><trkpt lat="45.6574588" lon="10.9063052"><ele>212.0</ele><time>2026-04-06T10:12:54.002Z</time></trkpt><trkpt lat="45.6573653" lon="10.9061812"><ele>212.0</ele><time>2026-04-06T10:12:55.003Z</time></trkpt><trkpt lat="45.6572683" lon="10.9060685"><ele>212.0</ele><time>2026-04-06T10:12:56.002Z</time></trkpt><trkpt lat="45.6571784" lon="10.9059853"><ele>212.0</ele><time>2026-04-06T10:12:57.003Z</time></trkpt><trkpt lat="45.6570767" lon="10.9059476"><ele>212.0</ele><time>2026-04-06T10:12:58.003Z</time></trkpt><trkpt lat="45.656954" lon="10.9059381"><ele>212.0</ele><time>2026-04-06T10:12:59.002Z</time></trkpt><trkpt lat="45.6568123" lon="10.9059758"><ele>212.0</ele><time>2026-04-06T10:13:00.002Z</time></trkpt><trkpt lat="45.6566784" lon="10.9060292"><ele>216.75</ele><time>2026-04-06T10:13:01.002Z</time></trkpt><trkpt lat="45.6565677" lon="10.906105"><ele>221.5</ele><time>2026-04-06T10:13:02.003Z</time></trkpt><trkpt lat="45.6564633" lon="10.9062216"><ele>226.25</ele><time>2026-04-06T10:13:03.002Z</time></trkpt><trkpt lat="45.65637" lon="10.9063375"><ele>231.0</ele><time>2026-04-06T10:13:04.003Z</time></trkpt><trkpt lat="45.6562617" lon="10.9064065"><ele>231.0</ele><time>2026-04-06T10:13:05.002Z</time></trkpt><trkpt lat="45.6561278" lon="10.9064561"><ele>231.0</ele><time>2026-04-06T10:13:06.003Z</time></trkpt><trkpt lat="45.6559756" lon="10.9065013"><ele>231.0</ele><time>2026-04-06T10:13:07.003Z</time></trkpt><trkpt lat="45.655808" lon="10.9065628"><ele>231.66666666666669</ele><time>2026-04-06T10:13:08.003Z</time></trkpt><trkpt lat="45.6556418" lon="10.9066277"><ele>232.33333333333334</ele><time>2026-04-06T10:13:09.003Z</time></trkpt><trkpt lat="45.6554563" lon="10.906688"><ele>233.0</ele><time>2026-04-06T10:13:10.002Z</time></trkpt><trkpt lat="45.6552602" lon="10.9067541"><ele>242.33333333333334</ele><time>2026-04-06T10:13:11.003Z</time></trkpt><trkpt lat="45.6550677" lon="10.9068496"><ele>251.66666666666669</ele><time>2026-04-06T10:13:12.002Z</time></trkpt><trkpt lat="45.6548783" lon="10.9069551"><ele>261.0</ele><time>2026-04-06T10:13:13.002Z</time></trkpt><trkpt lat="45.6546864" lon="10.9070839"><ele>261.0</ele><time>2026-04-06T10:13:14.003Z</time></trkpt><trkpt lat="45.6545228" lon="10.9072051"><ele>261.0</ele><time>2026-04-06T10:13:15.003Z</time></trkpt><trkpt lat="45.6543826" lon="10.907296"><ele>261.0</ele><time>2026-04-06T10:13:16.002Z</time></trkpt><trkpt lat="45.6542547" lon="10.9073628"><ele>258.6</ele><time>2026-04-06T10:13:17.002Z</time></trkpt><trkpt lat="45.6541457" lon="10.9074072"><ele>256.20000000000005</ele><time>2026-04-06T10:13:18.003Z</time></trkpt><trkpt lat="45.6540566" lon="10.9074368"><ele>253.79999999999998</ele><time>2026-04-06T10:13:19.003Z</time></trkpt><trkpt lat="45.6539907" lon="10.907466"><ele>251.39999999999998</ele><time>2026-04-06T10:13:20.002Z</time></trkpt><trkpt lat="45.6538973" lon="10.9075525"><ele>249.0</ele><time>2026-04-06T10:13:22.003Z</time></trkpt><trkpt lat="45.653909" lon="10.907701"><ele>257.75</ele><time>2026-04-06T10:13:24.002Z</time></trkpt><trkpt lat="45.6540176" lon="10.9077661"><ele>266.5</ele><time>2026-04-06T10:13:26.002Z</time></trkpt><trkpt lat="45.6541104" lon="10.9077492"><ele>275.25</ele><time>2026-04-06T10:13:27.002Z</time></trkpt><trkpt lat="45.6542126" lon="10.9077213"><ele>284.0</ele><time>2026-04-06T10:13:28.003Z</time></trkpt><trkpt lat="45.6543465" lon="10.9076845"><ele>287.0</ele><time>2026-04-06T10:13:29.002Z</time></trkpt><trkpt lat="45.6544969" lon="10.9076485"><ele>290.0</ele><time>2026-04-06T10:13:30.002Z</time></trkpt><trkpt lat="45.6546549" lon="10.9076114"><ele>293.0</ele><time>2026-04-06T10:13:31.003Z</time></trkpt><trkpt lat="45.6548359" lon="10.907564"><ele>285.0</ele><time>2026-04-06T10:13:32.003Z</time></trkpt><trkpt lat="45.6549974" lon="10.9075259"><ele>277.0</ele><time>2026-04-06T10:13:33.002Z</time></trkpt><trkpt lat="45.6551309" lon="10.9075004"><ele>269.0</ele><time>2026-04-06T10:13:34.003Z</time></trkpt><trkpt lat="45.6552478" lon="10.9075076"><ele>261.0</ele><time>2026-04-06T10:13:35.003Z</time></trkpt><trkpt lat="45.6553649" lon="10.9075623"><ele>269.3333333333333</ele><time>2026-04-06T10:13:36.003Z</time></trkpt><trkpt lat="45.6554967" lon="10.9076513"><ele>277.66666666666663</ele><time>2026-04-06T10:13:37.002Z</time></trkpt><trkpt lat="45.6556515" lon="10.9077436"><ele>286.0</ele><time>2026-04-06T10:13:38.002Z</time></trkpt><trkpt lat="45.6558172" lon="10.9078204"><ele>286.0</ele><time>2026-04-06T10:13:39.003Z</time></trkpt><trkpt lat="45.6559654" lon="10.9078638"><ele>286.0</ele><time>2026-04-06T10:13:40.003Z</time></trkpt><trkpt lat="45.6561052" lon="10.907885"><ele>286.0</ele><time>2026-04-06T10:13:41.002Z</time></trkpt><trkpt lat="45.6562294" lon="10.9079031"><ele>286.0</ele><time>2026-04-06T10:13:42.003Z</time></trkpt><trkpt lat="45.6563394" lon="10.907937"><ele>283.2</ele><time>2026-04-06T10:13:43.002Z</time></trkpt><trkpt lat="45.6564315" lon="10.9079958"><ele>280.40000000000003</ele><time>2026-04-06T10:13:44.002Z</time></trkpt><trkpt lat="45.6565025" lon="10.9080949"><ele>277.6</ele><time>2026-04-06T10:13:45.002Z</time></trkpt><trkpt lat="45.6565525" lon="10.9082262"><ele>274.8</ele><time>2026-04-06T10:13:46.002Z</time></trkpt><trkpt lat="45.6566017" lon="10.908388"><ele>272.0</ele><time>2026-04-06T10:13:47.003Z</time></trkpt><trkpt lat="45.6566648" lon="10.9085573"><ele>273.8</ele><time>2026-04-06T10:13:48.002Z</time></trkpt><trkpt lat="45.6567299" lon="10.9086932"><ele>275.6</ele><time>2026-04-06T10:13:49.003Z</time></trkpt><trkpt lat="45.6568049" lon="10.9087846"><ele>277.40000000000003</ele><time>2026-04-06T10:13:50.002Z</time></trkpt><trkpt lat="45.6568921" lon="10.9088412"><ele>279.2</ele><time>2026-04-06T10:13:51.002Z</time></trkpt><trkpt lat="45.6569912" lon="10.9088637"><ele>281.0</ele><time>2026-04-06T10:13:52.003Z</time></trkpt><trkpt lat="45.6571026" lon="10.9088729"><ele>281.0</ele><time>2026-04-06T10:13:53.003Z</time></trkpt><trkpt lat="45.6572091" lon="10.9089208"><ele>281.0</ele><time>2026-04-06T10:13:54.002Z</time></trkpt><trkpt lat="45.6573096" lon="10.9090243"><ele>281.0</ele><time>2026-04-06T10:13:55.002Z</time></trkpt><trkpt lat="45.657418" lon="10.9091653"><ele>281.0</ele><time>2026-04-06T10:13:56.002Z</time></trkpt><trkpt lat="45.6575357" lon="10.9093162"><ele>285.2</ele><time>2026-04-06T10:13:57.002Z</time></trkpt><trkpt lat="45.6576267" lon="10.9094148"><ele>289.40000000000003</ele><time>2026-04-06T10:13:58.002Z</time></trkpt><trkpt lat="45.6576993" lon="10.9094892"><ele>293.6</ele><time>2026-04-06T10:13:59.002Z</time></trkpt><trkpt lat="45.6577634" lon="10.9096103"><ele>297.8</ele><time>2026-04-06T10:14:01.002Z</time></trkpt><trkpt lat="45.6577322" lon="10.9097093"><ele>302.0</ele><time>2026-04-06T10:14:03.003Z</time></trkpt><trkpt lat="45.65765" lon="10.90968"><ele>302.0</ele><time>2026-04-06T10:14:05.002Z</time></trkpt><trkpt lat="45.6575907" lon="10.9096071"><ele>302.0</ele><time>2026-04-06T10:14:06.002Z</time></trkpt><trkpt lat="45.6575174" lon="10.9095165"><ele>302.0</ele><time>2026-04-06T10:14:07.003Z</time></trkpt><trkpt lat="45.6574411" lon="10.9094275"><ele>302.0</ele><time>2026-04-06T10:14:08.003Z</time></trkpt><trkpt lat="45.6573501" lon="10.9093404"><ele>302.0</ele><time>2026-04-06T10:14:09.003Z</time></trkpt><trkpt lat="45.6572663" lon="10.9092896"><ele>302.0</ele><time>2026-04-06T10:14:10.002Z</time></trkpt><trkpt lat="45.6571681" lon="10.909277"><ele>302.0</ele><time>2026-04-06T10:14:11.003Z</time></trkpt><trkpt lat="45.6570547" lon="10.9093151"><ele>302.0</ele><time>2026-04-06T10:14:12.002Z</time></trkpt><trkpt lat="45.6569363" lon="10.9093676"><ele>302.0</ele><time>2026-04-06T10:14:13.002Z</time></trkpt><trkpt lat="45.6568162" lon="10.9093823"><ele>301.5</ele><time>2026-04-06T10:14:14.003Z</time></trkpt><trkpt lat="45.6566969" lon="10.9093498"><ele>301.0</ele><time>2026-04-06T10:14:15.003Z</time></trkpt><trkpt lat="45.6565779" lon="10.9092887"><ele>300.5</ele><time>2026-04-06T10:14:16.003Z</time></trkpt><trkpt lat="45.6564611" lon="10.9092313"><ele>300.0</ele><time>2026-04-06T10:14:17.003Z</time></trkpt><trkpt lat="45.6563396" lon="10.909205"><ele>300.0</ele><time>2026-04-06T10:14:18.003Z</time></trkpt><trkpt lat="45.6561992" lon="10.909208"><ele>300.0</ele><time>2026-04-06T10:14:19.002Z</time></trkpt><trkpt lat="45.656044" lon="10.9092254"><ele>300.0</ele><time>2026-04-06T10:14:20.002Z</time></trkpt><trkpt lat="45.6558834" lon="10.9092443"><ele>302.5</ele><time>2026-04-06T10:14:21.003Z</time></trkpt><trkpt lat="45.6557518" lon="10.9092463"><ele>305.0</ele><time>2026-04-06T10:14:22.002Z</time></trkpt><trkpt lat="45.6556278" lon="10.9092147"><ele>307.5</ele><time>2026-04-06T10:14:23.002Z</time></trkpt><trkpt lat="45.6555227" lon="10.9091481"><ele>310.0</ele><time>2026-04-06T10:14:24.002Z</time></trkpt><trkpt lat="45.6554204" lon="10.9090634"><ele>310.0</ele><time>2026-04-06T10:14:25.003Z</time></trkpt><trkpt lat="45.6553289" lon="10.909003"><ele>310.0</ele><time>2026-04-06T10:14:26.003Z</time></trkpt><trkpt lat="45.6552347" lon="10.9089838"><ele>310.0</ele><time>2026-04-06T10:14:27.003Z</time></trkpt><trkpt lat="45.655125" lon="10.9090065"><ele>310.0</ele><time>2026-04-06T10:14:28.003Z</time></trkpt><trkpt lat="45.6549991" lon="10.9090545"><ele>310.0</ele><time>2026-04-06T10:14:29.003Z</time></trkpt><trkpt lat="45.6548536" lon="10.9090917"><ele>313.25</ele><time>2026-04-06T10:14:30.003Z</time></trkpt><trkpt lat="45.6546914" lon="10.9091139"><ele>316.5</ele><time>2026-04-06T10:14:31.003Z</time></trkpt><trkpt lat="45.6545505" lon="10.9091371"><ele>319.75</ele><time>2026-04-06T10:14:32.003Z</time></trkpt><trkpt lat="45.6544219" lon="10.9091769"><ele>323.0</ele><time>2026-04-06T10:14:33.003Z</time></trkpt><trkpt lat="45.654305" lon="10.9092513"><ele>330.25</ele><time>2026-04-06T10:14:34.002Z</time></trkpt><trkpt lat="45.654196" lon="10.9093547"><ele>337.5</ele><time>2026-04-06T10:14:35.002Z</time></trkpt><trkpt lat="45.6541113" lon="10.9094683"><ele>344.75</ele><time>2026-04-06T10:14:36.002Z</time></trkpt><trkpt lat="45.6540497" lon="10.9096094"><ele>352.0</ele><time>2026-04-06T10:14:37.002Z</time></trkpt><trkpt lat="45.6540101" lon="10.9097602"><ele>352.0</ele><time>2026-04-06T10:14:38.002Z</time></trkpt><trkpt lat="45.653968" lon="10.9098793"><ele>352.0</ele><time>2026-04-06T10:14:39.002Z</time></trkpt><trkpt lat="45.6539129" lon="10.9099638"><ele>352.0</ele><time>2026-04-06T10:14:40.003Z</time></trkpt><trkpt lat="45.653841" lon="10.9100231"><ele>352.0</ele><time>2026-04-06T10:14:41.002Z</time></trkpt><trkpt lat="45.6537609" lon="10.9100343"><ele>352.0</ele><time>2026-04-06T10:14:42.003Z</time></trkpt><trkpt lat="45.6536597" lon="10.9099979"><ele>352.0</ele><time>2026-04-06T10:14:43.002Z</time></trkpt><trkpt lat="45.6535381" lon="10.909945"><ele>349.0</ele><time>2026-04-06T10:14:44.003Z</time></trkpt><trkpt lat="45.6534184" lon="10.9099143"><ele>346.0</ele><time>2026-04-06T10:14:45.003Z</time></trkpt><trkpt lat="45.6533047" lon="10.9099091"><ele>343.0</ele><time>2026-04-06T10:14:46.003Z</time></trkpt><trkpt lat="45.6531813" lon="10.9099375"><ele>340.0</ele><time>2026-04-06T10:14:47.003Z</time></trkpt><trkpt lat="45.6530529" lon="10.9099999"><ele>348.5</ele><time>2026-04-06T10:14:48.003Z</time></trkpt><trkpt lat="45.6529229" lon="10.9100873"><ele>357.0</ele><time>2026-04-06T10:14:49.002Z</time></trkpt><trkpt lat="45.6528073" lon="10.9101616"><ele>365.5</ele><time>2026-04-06T10:14:50.002Z</time></trkpt><trkpt lat="45.6526873" lon="10.9102202"><ele>374.0</ele><time>2026-04-06T10:14:51.002Z</time></trkpt><trkpt lat="45.6525818" lon="10.9102457"><ele>374.0</ele><time>2026-04-06T10:14:52.002Z</time></trkpt><trkpt lat="45.6524987" lon="10.9102557"><ele>374.0</ele><time>2026-04-06T10:14:53.002Z</time></trkpt><trkpt lat="45.652433" lon="10.9102678"><ele>374.0</ele><time>2026-04-06T10:14:54.003Z</time></trkpt><trkpt lat="45.6523461" lon="10.9103642"><ele>374.0</ele><time>2026-04-06T10:14:56.002Z</time></trkpt><trkpt lat="45.652367" lon="10.9105027"><ele>374.0</ele><time>2026-04-06T10:14:58.003Z</time></trkpt><trkpt lat="45.6524771" lon="10.9105392"><ele>374.0</ele><time>2026-04-06T10:15:00.002Z</time></trkpt><trkpt lat="45.6525604" lon="10.9105005"><ele>374.0</ele><time>2026-04-06T10:15:01.002Z</time></trkpt><trkpt lat="45.652659" lon="10.9104482"><ele>374.0</ele><time>2026-04-06T10:15:02.003Z</time></trkpt><trkpt lat="45.6527738" lon="10.9104022"><ele>374.0</ele><time>2026-04-06T10:15:03.002Z</time></trkpt><trkpt lat="45.6529111" lon="10.9103716"><ele>376.0</ele><time>2026-04-06T10:15:04.002Z</time></trkpt><trkpt lat="45.6530442" lon="10.9103616"><ele>378.0</ele><time>2026-04-06T10:15:05.002Z</time></trkpt><trkpt lat="45.6531665" lon="10.910366"><ele>380.0</ele><time>2026-04-06T10:15:06.002Z</time></trkpt><trkpt lat="45.653292" lon="10.9104015"><ele>382.0</ele><time>2026-04-06T10:15:07.002Z</time></trkpt><trkpt lat="45.6534286" lon="10.9104796"><ele>382.0</ele><time>2026-04-06T10:15:08.002Z</time></trkpt><trkpt lat="45.6535704" lon="10.9105732"><ele>382.0</ele><time>2026-04-06T10:15:09.002Z</time></trkpt><trkpt lat="45.6537012" lon="10.9106348"><ele>382.0</ele><time>2026-04-06T10:15:10.002Z</time></trkpt><trkpt lat="45.6538476" lon="10.910669"><ele>382.0</ele><time>2026-04-06T10:15:11.002Z</time></trkpt><trkpt lat="45.6540121" lon="10.9106562"><ele>379.66666666666663</ele><time>2026-04-06T10:15:12.002Z</time></trkpt><trkpt lat="45.654183" lon="10.9106225"><ele>377.3333333333333</ele><time>2026-04-06T10:15:13.002Z</time></trkpt><trkpt lat="45.6543355" lon="10.9105944"><ele>375.0</ele><time>2026-04-06T10:15:14.002Z</time></trkpt><trkpt lat="45.6544743" lon="10.910585"><ele>373.5</ele><time>2026-04-06T10:15:15.002Z</time></trkpt><trkpt lat="45.6545966" lon="10.910609"><ele>372.0</ele><time>2026-04-06T10:15:16.002Z</time></trkpt><trkpt lat="45.654703" lon="10.9106751"><ele>370.5</ele><time>2026-04-06T10:15:17.003Z</time></trkpt><trkpt lat="45.6547962" lon="10.9107814"><ele>369.0</ele><time>2026-04-06T10:15:18.003Z</time></trkpt><trkpt lat="45.6548757" lon="10.9108897"><ele>370.0</ele><time>2026-04-06T10:15:19.002Z</time></trkpt><trkpt lat="45.6549559" lon="10.9109963"><ele>371.0</ele><time>2026-04-06T10:15:20.002Z</time></trkpt><trkpt lat="45.6550432" lon="10.9111013"><ele>372.0</ele><time>2026-04-06T10:15:21.003Z</time></trkpt><trkpt lat="45.6551551" lon="10.9111998"><ele>373.0</ele><time>2026-04-06T10:15:22.002Z</time></trkpt><trkpt lat="45.6552891" lon="10.9112902"><ele>373.0</ele><time>2026-04-06T10:15:23.003Z</time></trkpt><trkpt lat="45.6554175" lon="10.9113629"><ele>373.0</ele><time>2026-04-06T10:15:24.002Z</time></trkpt><trkpt lat="45.6555243" lon="10.9114411"><ele>373.0</ele><time>2026-04-06T10:15:25.003Z</time></trkpt><trkpt lat="45.6556233" lon="10.9115545"><ele>373.0</ele><time>2026-04-06T10:15:26.003Z</time></trkpt><trkpt lat="45.6557145" lon="10.9116934"><ele>377.0</ele><time>2026-04-06T10:15:27.002Z</time></trkpt><trkpt lat="45.6557957" lon="10.9118534"><ele>381.0</ele><time>2026-04-06T10:15:28.002Z</time></trkpt><trkpt lat="45.6558549" lon="10.9120291"><ele>385.0</ele><time>2026-04-06T10:15:29.002Z</time></trkpt><trkpt lat="45.6558921" lon="10.912221"><ele>389.0</ele><time>2026-04-06T10:15:30.003Z</time></trkpt><trkpt lat="45.6559128" lon="10.912456"><ele>390.0</ele><time>2026-04-06T10:15:31.002Z</time></trkpt><trkpt lat="45.6559111" lon="10.9127147"><ele>391.0</ele><time>2026-04-06T10:15:32.003Z</time></trkpt><trkpt lat="45.6559045" lon="10.9129458"><ele>392.0</ele><time>2026-04-06T10:15:33.002Z</time></trkpt><trkpt lat="45.6559024" lon="10.9131734"><ele>392.0</ele><time>2026-04-06T10:15:34.003Z</time></trkpt><trkpt lat="45.6559006" lon="10.9133633"><ele>392.0</ele><time>2026-04-06T10:15:35.003Z</time></trkpt><trkpt lat="45.6558884" lon="10.9135247"><ele>392.0</ele><time>2026-04-06T10:15:36.002Z</time></trkpt><trkpt lat="45.6558766" lon="10.9136557"><ele>392.0</ele><time>2026-04-06T10:15:37.002Z</time></trkpt><trkpt lat="45.6558589" lon="10.9137721"><ele>392.0</ele><time>2026-04-06T10:15:38.003Z</time></trkpt><trkpt lat="45.6558326" lon="10.9138672"><ele>389.20000000000005</ele><time>2026-04-06T10:15:39.003Z</time></trkpt><trkpt lat="45.6557511" lon="10.9139507"><ele>386.4</ele><time>2026-04-06T10:15:41.002Z</time></trkpt><trkpt lat="45.6556746" lon="10.9138789"><ele>383.6</ele><time>2026-04-06T10:15:43.002Z</time></trkpt><trkpt lat="45.6556938" lon="10.9137548"><ele>380.79999999999995</ele><time>2026-04-06T10:15:45.003Z</time></trkpt><trkpt lat="45.6557379" lon="10.9136586"><ele>378.0</ele><time>2026-04-06T10:15:46.003Z</time></trkpt><trkpt lat="45.6557724" lon="10.9135317"><ele>381.5</ele><time>2026-04-06T10:15:47.002Z</time></trkpt><trkpt lat="45.6557859" lon="10.913388"><ele>385.0</ele><time>2026-04-06T10:15:48.003Z</time></trkpt><trkpt lat="45.6557575" lon="10.9131979"><ele>388.5</ele><time>2026-04-06T10:15:49.002Z</time></trkpt><trkpt lat="45.6557211" lon="10.913024"><ele>392.0</ele><time>2026-04-06T10:15:50.002Z</time></trkpt><trkpt lat="45.6556786" lon="10.9128254"><ele>392.0</ele><time>2026-04-06T10:15:51.002Z</time></trkpt><trkpt lat="45.6556418" lon="10.9126334"><ele>392.0</ele><time>2026-04-06T10:15:52.003Z</time></trkpt><trkpt lat="45.6556058" lon="10.912476"><ele>392.0</ele><time>2026-04-06T10:15:53.002Z</time></trkpt><trkpt lat="45.6555543" lon="10.9123509"><ele>392.0</ele><time>2026-04-06T10:15:54.002Z</time></trkpt><trkpt lat="45.6554821" lon="10.9122546"><ele>391.25</ele><time>2026-04-06T10:15:55.002Z</time></trkpt><trkpt lat="45.6553983" lon="10.9121948"><ele>390.5</ele><time>2026-04-06T10:15:56.003Z</time></trkpt><trkpt lat="45.6552847" lon="10.9122013"><ele>389.75</ele><time>2026-04-06T10:15:57.003Z</time></trkpt><trkpt lat="45.6551574" lon="10.9122338"><ele>389.0</ele><time>2026-04-06T10:15:58.003Z</time></trkpt><trkpt lat="45.6550337" lon="10.9122297"><ele>399.0</ele><time>2026-04-06T10:15:59.002Z</time></trkpt><trkpt lat="45.6548988" lon="10.9121807"><ele>409.0</ele><time>2026-04-06T10:16:00.003Z</time></trkpt><trkpt lat="45.6547439" lon="10.9121109"><ele>419.0</ele><time>2026-04-06T10:16:01.003Z</time></trkpt><trkpt lat="45.6545724" lon="10.9120397"><ele>426.3333333333333</ele><time>2026-04-06T10:16:02.003Z</time></trkpt><trkpt lat="45.6543979" lon="10.9119749"><ele>433.66666666666663</ele><time>2026-04-06T10:16:03.002Z</time></trkpt><trkpt lat="45.6542024" lon="10.9119193"><ele>441.0</ele><time>2026-04-06T10:16:04.002Z</time></trkpt><trkpt lat="45.6540265" lon="10.9118887"><ele>441.0</ele><time>2026-04-06T10:16:05.002Z</time></trkpt><trkpt lat="45.6538485" lon="10.9118654"><ele>441.0</ele><time>2026-04-06T10:16:06.003Z</time></trkpt><trkpt lat="45.6536704" lon="10.9118645"><ele>441.0</ele><time>2026-04-06T10:16:07.003Z</time></trkpt><trkpt lat="45.6534848" lon="10.9119045"><ele>445.66666666666663</ele><time>2026-04-06T10:16:08.002Z</time></trkpt><trkpt lat="45.6532843" lon="10.9119701"><ele>450.3333333333333</ele><time>2026-04-06T10:16:09.003Z</time></trkpt><trkpt lat="45.6530893" lon="10.9120314"><ele>455.0</ele><time>2026-04-06T10:16:10.002Z</time></trkpt><trkpt lat="45.652917" lon="10.9120834"><ele>453.0</ele><time>2026-04-06T10:16:11.003Z</time></trkpt><trkpt lat="45.6527646" lon="10.9121344"><ele>451.0</ele><time>2026-04-06T10:16:12.003Z</time></trkpt><trkpt lat="45.6526169" lon="10.9122078"><ele>449.0</ele><time>2026-04-06T10:16:13.002Z</time></trkpt><trkpt lat="45.6524677" lon="10.9123232"><ele>449.0</ele><time>2026-04-06T10:16:14.002Z</time></trkpt><trkpt lat="45.6523168" lon="10.9124601"><ele>449.0</ele><time>2026-04-06T10:16:15.003Z</time></trkpt><trkpt lat="45.652168" lon="10.9125668"><ele>449.0</ele><time>2026-04-06T10:16:16.003Z</time></trkpt><trkpt lat="45.6520068" lon="10.9126844"><ele>451.25</ele><time>2026-04-06T10:16:17.002Z</time></trkpt><trkpt lat="45.6518801" lon="10.9127933"><ele>453.5</ele><time>2026-04-06T10:16:18.002Z</time></trkpt><trkpt lat="45.6517698" lon="10.9128822"><ele>455.75</ele><time>2026-04-06T10:16:19.003Z</time></trkpt><trkpt lat="45.651681" lon="10.9129459"><ele>458.0</ele><time>2026-04-06T10:16:20.003Z</time></trkpt><trkpt lat="45.6516049" lon="10.9130048"><ele>457.99999999999994</ele><time>2026-04-06T10:16:21.002Z</time></trkpt><trkpt lat="45.6515527" lon="10.9130574"><ele>458.0</ele><time>2026-04-06T10:16:22.002Z</time></trkpt><trkpt lat="45.6515226" lon="10.9132126"><ele>458.0</ele><time>2026-04-06T10:16:24.003Z</time></trkpt><trkpt lat="45.6516048" lon="10.9133053"><ele>458.0</ele><time>2026-04-06T10:16:26.003Z</time></trkpt><trkpt lat="45.651667" lon="10.9132801"><ele>457.99999999999994</ele><time>2026-04-06T10:16:27.002Z</time></trkpt><trkpt lat="45.6517329" lon="10.913211"><ele>458.0</ele><time>2026-04-06T10:16:28.002Z</time></trkpt><trkpt lat="45.6518116" lon="10.9131122"><ele>458.0</ele><time>2026-04-06T10:16:29.002Z</time></trkpt><trkpt lat="45.6519041" lon="10.9130293"><ele>458.0</ele><time>2026-04-06T10:16:30.002Z</time></trkpt><trkpt lat="45.6520243" lon="10.9129636"><ele>458.0</ele><time>2026-04-06T10:16:31.002Z</time></trkpt><trkpt lat="45.652161" lon="10.9129056"><ele>458.0</ele><time>2026-04-06T10:16:32.003Z</time></trkpt><trkpt lat="45.6523091" lon="10.9128574"><ele>464.66666666666663</ele><time>2026-04-06T10:16:33.002Z</time></trkpt><trkpt lat="45.6524857" lon="10.912818"><ele>471.33333333333337</ele><time>2026-04-06T10:16:34.002Z</time></trkpt><trkpt lat="45.6526687" lon="10.9127939"><ele>478.0</ele><time>2026-04-06T10:16:35.002Z</time></trkpt><trkpt lat="45.6528298" lon="10.912786"><ele>479.6666666666667</ele><time>2026-04-06T10:16:36.003Z</time></trkpt><trkpt lat="45.6529953" lon="10.912786"><ele>481.33333333333337</ele><time>2026-04-06T10:16:37.003Z</time></trkpt><trkpt lat="45.6531594" lon="10.9128081"><ele>483.0</ele><time>2026-04-06T10:16:38.003Z</time></trkpt><trkpt lat="45.6533208" lon="10.9128659"><ele>483.0</ele><time>2026-04-06T10:16:39.002Z</time></trkpt><trkpt lat="45.6534811" lon="10.9129498"><ele>483.0</ele><time>2026-04-06T10:16:40.002Z</time></trkpt><trkpt lat="45.653621" lon="10.9130408"><ele>483.0</ele><time>2026-04-06T10:16:41.002Z</time></trkpt><trkpt lat="45.653756" lon="10.9131343"><ele>481.25</ele><time>2026-04-06T10:16:42.003Z</time></trkpt><trkpt lat="45.6538713" lon="10.9132463"><ele>479.5</ele><time>2026-04-06T10:16:43.003Z</time></trkpt><trkpt lat="45.6539814" lon="10.9133921"><ele>477.75</ele><time>2026-04-06T10:16:44.002Z</time></trkpt><trkpt lat="45.65407" lon="10.9135419"><ele>476.0</ele><time>2026-04-06T10:16:45.002Z</time></trkpt><trkpt lat="45.6541332" lon="10.9136829"><ele>476.0</ele><time>2026-04-06T10:16:46.003Z</time></trkpt><trkpt lat="45.6541675" lon="10.9138352"><ele>476.0</ele><time>2026-04-06T10:16:47.003Z</time></trkpt><trkpt lat="45.6541734" lon="10.9139791"><ele>476.0</ele><time>2026-04-06T10:16:48.002Z</time></trkpt><trkpt lat="45.6541494" lon="10.9141402"><ele>476.0</ele><time>2026-04-06T10:16:49.003Z</time></trkpt><trkpt lat="45.6540902" lon="10.9143121"><ele>473.0</ele><time>2026-04-06T10:16:50.003Z</time></trkpt><trkpt lat="45.6539975" lon="10.914491"><ele>470.0</ele><time>2026-04-06T10:16:51.003Z</time></trkpt><trkpt lat="45.6538824" lon="10.9146864"><ele>467.0</ele><time>2026-04-06T10:16:52.003Z</time></trkpt><trkpt lat="45.6537833" lon="10.9148724"><ele>467.0</ele><time>2026-04-06T10:16:53.003Z</time></trkpt><trkpt lat="45.6536602" lon="10.9150579"><ele>467.0</ele><time>2026-04-06T10:16:54.002Z</time></trkpt><trkpt lat="45.6535117" lon="10.9152389"><ele>467.0</ele><time>2026-04-06T10:16:55.003Z</time></trkpt><trkpt lat="45.653376" lon="10.9153954"><ele>472.66666666666663</ele><time>2026-04-06T10:16:56.003Z</time></trkpt><trkpt lat="45.6532616" lon="10.9155656"><ele>478.33333333333337</ele><time>2026-04-06T10:16:57.002Z</time></trkpt><trkpt lat="45.65316" lon="10.9157435"><ele>484.0</ele><time>2026-04-06T10:16:58.002Z</time></trkpt><trkpt lat="45.6530575" lon="10.9158807"><ele>481.0</ele><time>2026-04-06T10:16:59.002Z</time></trkpt><trkpt lat="45.6529435" lon="10.915983"><ele>478.0</ele><time>2026-04-06T10:17:00.003Z</time></trkpt><trkpt lat="45.652829" lon="10.9160689"><ele>475.0</ele><time>2026-04-06T10:17:01.002Z</time></trkpt><trkpt lat="45.6527264" lon="10.9161661"><ele>472.0</ele><time>2026-04-06T10:17:02.002Z</time></trkpt><trkpt lat="45.6526422" lon="10.9162967"><ele>481.8</ele><time>2026-04-06T10:17:03.003Z</time></trkpt><trkpt lat="45.6525714" lon="10.9164264"><ele>491.6</ele><time>2026-04-06T10:17:04.003Z</time></trkpt><trkpt lat="45.6525197" lon="10.9165308"><ele>501.40000000000003</ele><time>2026-04-06T10:17:05.002Z</time></trkpt><trkpt lat="45.6524912" lon="10.916635"><ele>511.20000000000005</ele><time>2026-04-06T10:17:06.002Z</time></trkpt><trkpt lat="45.6524907" lon="10.9167507"><ele>521.0</ele><time>2026-04-06T10:17:07.002Z</time></trkpt><trkpt lat="45.6525227" lon="10.9168764"><ele>524.5</ele><time>2026-04-06T10:17:08.003Z</time></trkpt><trkpt lat="45.6525824" lon="10.9170266"><ele>528.0</ele><time>2026-04-06T10:17:09.002Z</time></trkpt><trkpt lat="45.6526507" lon="10.9171972"><ele>531.5</ele><time>2026-04-06T10:17:10.003Z</time></trkpt><trkpt lat="45.6527102" lon="10.9173784"><ele>535.0</ele><time>2026-04-06T10:17:11.003Z</time></trkpt><trkpt lat="45.6527801" lon="10.9175877"><ele>523.3333333333334</ele><time>2026-04-06T10:17:12.002Z</time></trkpt><trkpt lat="45.6528626" lon="10.9177839"><ele>511.66666666666663</ele><time>2026-04-06T10:17:13.003Z</time></trkpt><trkpt lat="45.6529407" lon="10.91798"><ele>500.0</ele><time>2026-04-06T10:17:14.003Z</time></trkpt><trkpt lat="45.652999" lon="10.918191"><ele>504.66666666666663</ele><time>2026-04-06T10:17:15.003Z</time></trkpt><trkpt lat="45.6530472" lon="10.9184292"><ele>509.33333333333337</ele><time>2026-04-06T10:17:16.002Z</time></trkpt><trkpt lat="45.6530918" lon="10.9186897"><ele>514.0</ele><time>2026-04-06T10:17:17.003Z</time></trkpt><trkpt lat="45.653127" lon="10.9189275"><ele>514.0</ele><time>2026-04-06T10:17:18.002Z</time></trkpt><trkpt lat="45.6531545" lon="10.919146"><ele>514.0</ele><time>2026-04-06T10:17:19.002Z</time></trkpt><trkpt lat="45.6531832" lon="10.9193394"><ele>514.0</ele><time>2026-04-06T10:17:20.002Z</time></trkpt><trkpt lat="45.65321" lon="10.9195063"><ele>514.0</ele><time>2026-04-06T10:17:21.002Z</time></trkpt><trkpt lat="45.6532381" lon="10.9196511"><ele>515.6666666666667</ele><time>2026-04-06T10:17:22.003Z</time></trkpt><trkpt lat="45.6532573" lon="10.9197658"><ele>517.3333333333334</ele><time>2026-04-06T10:17:23.003Z</time></trkpt><trkpt lat="45.6532692" lon="10.9199182"><ele>519.0</ele><time>2026-04-06T10:17:25.002Z</time></trkpt><trkpt lat="45.6531993" lon="10.9200132"><ele>520.6666666666666</ele><time>2026-04-06T10:17:27.003Z</time></trkpt><trkpt lat="45.653132" lon="10.9199403"><ele>522.3333333333333</ele><time>2026-04-06T10:17:29.002Z</time></trkpt><trkpt lat="45.6531194" lon="10.919852"><ele>524.0</ele><time>2026-04-06T10:17:30.002Z</time></trkpt><trkpt lat="45.6531187" lon="10.919707"><ele>524.0</ele><time>2026-04-06T10:17:31.003Z</time></trkpt><trkpt lat="45.6530986" lon="10.9195546"><ele>524.0</ele><time>2026-04-06T10:17:32.002Z</time></trkpt><trkpt lat="45.6530629" lon="10.9193715"><ele>524.0</ele><time>2026-04-06T10:17:33.003Z</time></trkpt><trkpt lat="45.6530193" lon="10.919192"><ele>524.0</ele><time>2026-04-06T10:17:34.002Z</time></trkpt><trkpt lat="45.6529737" lon="10.9190231"><ele>520.6666666666666</ele><time>2026-04-06T10:17:35.002Z</time></trkpt><trkpt lat="45.6528978" lon="10.9188364"><ele>517.3333333333334</ele><time>2026-04-06T10:17:36.002Z</time></trkpt><trkpt lat="45.6527977" lon="10.91864"><ele>514.0</ele><time>2026-04-06T10:17:37.002Z</time></trkpt><trkpt lat="45.6526952" lon="10.9184203"><ele>526.6666666666667</ele><time>2026-04-06T10:17:38.002Z</time></trkpt><trkpt lat="45.652597" lon="10.9181865"><ele>539.3333333333334</ele><time>2026-04-06T10:17:39.003Z</time></trkpt><trkpt lat="45.6524891" lon="10.9179629"><ele>552.0</ele><time>2026-04-06T10:17:40.002Z</time></trkpt><trkpt lat="45.6523569" lon="10.9177241"><ele>546.3333333333334</ele><time>2026-04-06T10:17:41.003Z</time></trkpt><trkpt lat="45.6522127" lon="10.9174866"><ele>540.6666666666667</ele><time>2026-04-06T10:17:42.003Z</time></trkpt><trkpt lat="45.6520854" lon="10.9172789"><ele>535.0</ele><time>2026-04-06T10:17:43.002Z</time></trkpt><trkpt lat="45.6519651" lon="10.9170889"><ele>541.25</ele><time>2026-04-06T10:17:44.002Z</time></trkpt><trkpt lat="45.6518558" lon="10.9169251"><ele>547.5</ele><time>2026-04-06T10:17:45.002Z</time></trkpt><trkpt lat="45.6517616" lon="10.9167838"><ele>553.75</ele><time>2026-04-06T10:17:46.003Z</time></trkpt><trkpt lat="45.651671" lon="10.9166748"><ele>560.0</ele><time>2026-04-06T10:17:47.003Z</time></trkpt><trkpt lat="45.6515742" lon="10.9166162"><ele>560.0</ele><time>2026-04-06T10:17:48.003Z</time></trkpt><trkpt lat="45.6514636" lon="10.9165935"><ele>560.0</ele><time>2026-04-06T10:17:49.003Z</time></trkpt><trkpt lat="45.6513324" lon="10.916586"><ele>560.0</ele><time>2026-04-06T10:17:50.002Z</time></trkpt><trkpt lat="45.6511802" lon="10.9165523"><ele>560.0</ele><time>2026-04-06T10:17:51.002Z</time></trkpt><trkpt lat="45.6510051" lon="10.916502"><ele>567.6666666666666</ele><time>2026-04-06T10:17:52.003Z</time></trkpt><trkpt lat="45.6508427" lon="10.9164511"><ele>575.3333333333334</ele><time>2026-04-06T10:17:53.002Z</time></trkpt><trkpt lat="45.6506888" lon="10.9163851"><ele>583.0</ele><time>2026-04-06T10:17:54.003Z</time></trkpt><trkpt lat="45.650538" lon="10.916301"><ele>583.0</ele><time>2026-04-06T10:17:55.003Z</time></trkpt><trkpt lat="45.6503923" lon="10.9162195"><ele>583.0</ele><time>2026-04-06T10:17:56.002Z</time></trkpt><trkpt lat="45.6502601" lon="10.916143"><ele>583.0</ele><time>2026-04-06T10:17:57.002Z</time></trkpt><trkpt lat="45.6501255" lon="10.9160526"><ele>583.0</ele><time>2026-04-06T10:17:58.002Z</time></trkpt><trkpt lat="45.649992" lon="10.9159589"><ele>579.25</ele><time>2026-04-06T10:17:59.003Z</time></trkpt><trkpt lat="45.6498629" lon="10.9158955"><ele>575.5</ele><time>2026-04-06T10:18:00.003Z</time></trkpt><trkpt lat="45.6497401" lon="10.9158551"><ele>571.75</ele><time>2026-04-06T10:18:01.003Z</time></trkpt><trkpt lat="45.6496303" lon="10.9158144"><ele>568.0</ele><time>2026-04-06T10:18:02.003Z</time></trkpt><trkpt lat="45.6495296" lon="10.9157513"><ele>577.5</ele><time>2026-04-06T10:18:03.002Z</time></trkpt><trkpt lat="45.649441" lon="10.9156613"><ele>587.0</ele><time>2026-04-06T10:18:04.003Z</time></trkpt><trkpt lat="45.649343" lon="10.9155525"><ele>596.5</ele><time>2026-04-06T10:18:05.002Z</time></trkpt><trkpt lat="45.6492237" lon="10.9154544"><ele>606.0</ele><time>2026-04-06T10:18:06.002Z</time></trkpt><trkpt lat="45.6490886" lon="10.915363"><ele>606.0</ele><time>2026-04-06T10:18:07.002Z</time></trkpt><trkpt lat="45.6489415" lon="10.9152775"><ele>606.0</ele><time>2026-04-06T10:18:08.003Z</time></trkpt><trkpt lat="45.648812" lon="10.9152161"><ele>606.0</ele><time>2026-04-06T10:18:09.002Z</time></trkpt><trkpt lat="45.648691" lon="10.9151592"><ele>606.0</ele><time>2026-04-06T10:18:10.003Z</time></trkpt><trkpt lat="45.6485849" lon="10.9150913"><ele>604.6</ele><time>2026-04-06T10:18:11.002Z</time></trkpt><trkpt lat="45.6484982" lon="10.915021"><ele>603.2</ele><time>2026-04-06T10:18:12.002Z</time></trkpt><trkpt lat="45.648427" lon="10.9149562"><ele>601.8</ele><time>2026-04-06T10:18:13.003Z</time></trkpt><trkpt lat="45.6483713" lon="10.9148978"><ele>600.4</ele><time>2026-04-06T10:18:14.002Z</time></trkpt><trkpt lat="45.648259" lon="10.9148279"><ele>599.0</ele><time>2026-04-06T10:18:16.002Z</time></trkpt><trkpt lat="45.6481861" lon="10.9149048"><ele>599.0</ele><time>2026-04-06T10:18:18.003Z</time></trkpt><trkpt lat="45.648222" lon="10.9150298"><ele>599.0</ele><time>2026-04-06T10:18:20.002Z</time></trkpt><trkpt lat="45.6483649" lon="10.9151077"><ele>599.0</ele><time>2026-04-06T10:18:22.003Z</time></trkpt><trkpt lat="45.6484556" lon="10.9151748"><ele>599.0</ele><time>2026-04-06T10:18:23.003Z</time></trkpt><trkpt lat="45.6485661" lon="10.9152722"><ele>601.3333333333333</ele><time>2026-04-06T10:18:24.002Z</time></trkpt><trkpt lat="45.6486957" lon="10.9153897"><ele>603.6666666666666</ele><time>2026-04-06T10:18:25.003Z</time></trkpt><trkpt lat="45.6488263" lon="10.9155026"><ele>606.0</ele><time>2026-04-06T10:18:26.003Z</time></trkpt><trkpt lat="45.6489678" lon="10.9156206"><ele>606.0</ele><time>2026-04-06T10:18:27.003Z</time></trkpt><trkpt lat="45.6490834" lon="10.9157383"><ele>606.0</ele><time>2026-04-06T10:18:28.002Z</time></trkpt><trkpt lat="45.6491762" lon="10.9158681"><ele>606.0</ele><time>2026-04-06T10:18:29.002Z</time></trkpt><trkpt lat="45.6492419" lon="10.9160002"><ele>606.0</ele><time>2026-04-06T10:18:30.003Z</time></trkpt><trkpt lat="45.6493057" lon="10.9161079"><ele>610.25</ele><time>2026-04-06T10:18:31.002Z</time></trkpt><trkpt lat="45.6493969" lon="10.9161979"><ele>614.5</ele><time>2026-04-06T10:18:32.002Z</time></trkpt><trkpt lat="45.6495129" lon="10.9162789"><ele>618.75</ele><time>2026-04-06T10:18:33.002Z</time></trkpt><trkpt lat="45.6496481" lon="10.9163694"><ele>623.0</ele><time>2026-04-06T10:18:34.003Z</time></trkpt><trkpt lat="45.6498074" lon="10.9164739"><ele>623.0</ele><time>2026-04-06T10:18:35.003Z</time></trkpt><trkpt lat="45.6499735" lon="10.9165868"><ele>623.0</ele><time>2026-04-06T10:18:36.003Z</time></trkpt><trkpt lat="45.6501105" lon="10.9167"><ele>623.0</ele><time>2026-04-06T10:18:37.002Z</time></trkpt><trkpt lat="45.6502499" lon="10.9168316"><ele>624.3333333333333</ele><time>2026-04-06T10:18:38.002Z</time></trkpt><trkpt lat="45.6503848" lon="10.916994"><ele>625.6666666666666</ele><time>2026-04-06T10:18:39.002Z</time></trkpt><trkpt lat="45.6505098" lon="10.9171563"><ele>627.0</ele><time>2026-04-06T10:18:40.003Z</time></trkpt><trkpt lat="45.6506486" lon="10.9173058"><ele>627.0</ele><time>2026-04-06T10:18:41.002Z</time></trkpt><trkpt lat="45.6507818" lon="10.9174315"><ele>627.0</ele><time>2026-04-06T10:18:42.003Z</time></trkpt><trkpt lat="45.650907" lon="10.9175733"><ele>627.0</ele><time>2026-04-06T10:18:43.002Z</time></trkpt><trkpt lat="45.6510223" lon="10.9177417"><ele>628.6666666666666</ele><time>2026-04-06T10:18:44.003Z</time></trkpt><trkpt lat="45.6511376" lon="10.9179435"><ele>630.3333333333333</ele><time>2026-04-06T10:18:45.002Z</time></trkpt><trkpt lat="45.6512512" lon="10.9181737"><ele>632.0</ele><time>2026-04-06T10:18:46.003Z</time></trkpt><trkpt lat="45.6513494" lon="10.9184054"><ele>632.0</ele><time>2026-04-06T10:18:47.002Z</time></trkpt><trkpt lat="45.6514309" lon="10.9186406"><ele>632.0</ele><time>2026-04-06T10:18:48.003Z</time></trkpt><trkpt lat="45.6514921" lon="10.9188989"><ele>632.0</ele><time>2026-04-06T10:18:49.003Z</time></trkpt><trkpt lat="45.6515385" lon="10.9191751"><ele>636.3333333333333</ele><time>2026-04-06T10:18:50.002Z</time></trkpt><trkpt lat="45.6515798" lon="10.9194825"><ele>640.6666666666666</ele><time>2026-04-06T10:18:51.002Z</time></trkpt><trkpt lat="45.6516099" lon="10.9197871"><ele>645.0</ele><time>2026-04-06T10:18:52.002Z</time></trkpt><trkpt lat="45.6516325" lon="10.9200546"><ele>649.0</ele><time>2026-04-06T10:18:53.002Z</time></trkpt><trkpt lat="45.6516577" lon="10.9202922"><ele>653.0</ele><time>2026-04-06T10:18:54.002Z</time></trkpt><trkpt lat="45.6516958" lon="10.920506"><ele>657.0</ele><time>2026-04-06T10:18:55.003Z</time></trkpt><trkpt lat="45.6517486" lon="10.920696"><ele>657.0</ele><time>2026-04-06T10:18:56.003Z</time></trkpt><trkpt lat="45.6518135" lon="10.9208418"><ele>657.0</ele><time>2026-04-06T10:18:57.002Z</time></trkpt><trkpt lat="45.651869" lon="10.9209521"><ele>657.0</ele><time>2026-04-06T10:18:58.002Z</time></trkpt><trkpt lat="45.6519141" lon="10.9210379"><ele>657.0</ele><time>2026-04-06T10:18:59.003Z</time></trkpt><trkpt lat="45.6519258" lon="10.9211869"><ele>657.0</ele><time>2026-04-06T10:19:01.003Z</time></trkpt><trkpt lat="45.6518513" lon="10.9212411"><ele>657.0</ele><time>2026-04-06T10:19:03.003Z</time></trkpt><trkpt lat="45.6517571" lon="10.9211216"><ele>657.0</ele><time>2026-04-06T10:19:05.003Z</time></trkpt><trkpt lat="45.6516987" lon="10.9209904"><ele>657.0</ele><time>2026-04-06T10:19:06.003Z</time></trkpt><trkpt lat="45.6516374" lon="10.9208499"><ele>657.0</ele><time>2026-04-06T10:19:07.003Z</time></trkpt><trkpt lat="45.6515597" lon="10.9206614"><ele>657.0</ele><time>2026-04-06T10:19:08.002Z</time></trkpt><trkpt lat="45.6514933" lon="10.9204629"><ele>657.0</ele><time>2026-04-06T10:19:09.002Z</time></trkpt><trkpt lat="45.6514326" lon="10.920238"><ele>657.0</ele><time>2026-04-06T10:19:10.003Z</time></trkpt><trkpt lat="45.6513585" lon="10.9199972"><ele>653.0</ele><time>2026-04-06T10:19:11.002Z</time></trkpt><trkpt lat="45.6512687" lon="10.9197477"><ele>649.0</ele><time>2026-04-06T10:19:12.003Z</time></trkpt><trkpt lat="45.6511721" lon="10.9194929"><ele>645.0</ele><time>2026-04-06T10:19:13.002Z</time></trkpt><trkpt lat="45.6510719" lon="10.9192137"><ele>658.6666666666666</ele><time>2026-04-06T10:19:14.002Z</time></trkpt><trkpt lat="45.650992" lon="10.9189722"><ele>672.3333333333333</ele><time>2026-04-06T10:19:15.002Z</time></trkpt><trkpt lat="45.6509218" lon="10.9187633"><ele>686.0</ele><time>2026-04-06T10:19:16.003Z</time></trkpt><trkpt lat="45.6508503" lon="10.9185944"><ele>686.0</ele><time>2026-04-06T10:19:17.002Z</time></trkpt><trkpt lat="45.6507519" lon="10.9184331"><ele>686.0</ele><time>2026-04-06T10:19:18.002Z</time></trkpt><trkpt lat="45.6506342" lon="10.9182718"><ele>686.0</ele><time>2026-04-06T10:19:19.003Z</time></trkpt><trkpt lat="45.6505199" lon="10.91813"><ele>678.6666666666666</ele><time>2026-04-06T10:19:20.003Z</time></trkpt><trkpt lat="45.6503847" lon="10.9180113"><ele>671.3333333333334</ele><time>2026-04-06T10:19:21.003Z</time></trkpt><trkpt lat="45.6502267" lon="10.9179105"><ele>664.0</ele><time>2026-04-06T10:19:22.003Z</time></trkpt><trkpt lat="45.6500495" lon="10.9178091"><ele>666.0</ele><time>2026-04-06T10:19:23.002Z</time></trkpt><trkpt lat="45.6498607" lon="10.9176902"><ele>668.0</ele><time>2026-04-06T10:19:24.002Z</time></trkpt><trkpt lat="45.649679" lon="10.9175852"><ele>670.0</ele><time>2026-04-06T10:19:25.003Z</time></trkpt><trkpt lat="45.649514" lon="10.9175003"><ele>677.0</ele><time>2026-04-06T10:19:26.003Z</time></trkpt><trkpt lat="45.6493725" lon="10.9174351"><ele>684.0</ele><time>2026-04-06T10:19:27.002Z</time></trkpt><trkpt lat="45.6492501" lon="10.9174052"><ele>691.0</ele><time>2026-04-06T10:19:28.002Z</time></trkpt><trkpt lat="45.649136" lon="10.9174153"><ele>698.0</ele><time>2026-04-06T10:19:29.002Z</time></trkpt><trkpt lat="45.6490178" lon="10.9174281"><ele>698.0</ele><time>2026-04-06T10:19:30.002Z</time></trkpt><trkpt lat="45.6489046" lon="10.917395"><ele>698.0</ele><time>2026-04-06T10:19:31.003Z</time></trkpt><trkpt lat="45.6487901" lon="10.917321"><ele>698.0</ele><time>2026-04-06T10:19:32.002Z</time></trkpt><trkpt lat="45.6486724" lon="10.9172193"><ele>698.0</ele><time>2026-04-06T10:19:33.002Z</time></trkpt><trkpt lat="45.6485367" lon="10.9171138"><ele>707.3333333333333</ele><time>2026-04-06T10:19:34.002Z</time></trkpt><trkpt lat="45.6483807" lon="10.9170231"><ele>716.6666666666666</ele><time>2026-04-06T10:19:35.002Z</time></trkpt><trkpt lat="45.6482067" lon="10.9169336"><ele>726.0</ele><time>2026-04-06T10:19:36.003Z</time></trkpt><trkpt lat="45.6480217" lon="10.9168382"><ele>724.0</ele><time>2026-04-06T10:19:37.002Z</time></trkpt><trkpt lat="45.647863" lon="10.9167347"><ele>722.0</ele><time>2026-04-06T10:19:38.002Z</time></trkpt><trkpt lat="45.647717" lon="10.9166172"><ele>720.0</ele><time>2026-04-06T10:19:39.003Z</time></trkpt><trkpt lat="45.6475923" lon="10.9164884"><ele>720.0</ele><time>2026-04-06T10:19:40.002Z</time></trkpt><trkpt lat="45.6474931" lon="10.9163747"><ele>720.0</ele><time>2026-04-06T10:19:41.002Z</time></trkpt><trkpt lat="45.6474092" lon="10.9162946"><ele>720.0</ele><time>2026-04-06T10:19:42.003Z</time></trkpt><trkpt lat="45.6473327" lon="10.9162535"><ele>720.0</ele><time>2026-04-06T10:19:43.002Z</time></trkpt><trkpt lat="45.6472559" lon="10.9162478"><ele>720.0</ele><time>2026-04-06T10:19:44.003Z</time></trkpt><trkpt lat="45.6471701" lon="10.9162859"><ele>720.0</ele><time>2026-04-06T10:19:45.002Z</time></trkpt><trkpt lat="45.6470799" lon="10.91635"><ele>720.0</ele><time>2026-04-06T10:19:46.003Z</time></trkpt><trkpt lat="45.646991" lon="10.9163955"><ele>720.0</ele><time>2026-04-06T10:19:47.003Z</time></trkpt><trkpt lat="45.6469126" lon="10.9164144"><ele>720.0</ele><time>2026-04-06T10:19:48.003Z</time></trkpt><trkpt lat="45.6468453" lon="10.9164231"><ele>720.0</ele><time>2026-04-06T10:19:49.002Z</time></trkpt><trkpt lat="45.6467455" lon="10.9164619"><ele>720.0</ele><time>2026-04-06T10:19:51.002Z</time></trkpt><trkpt lat="45.6467216" lon="10.9165736"><ele>720.0</ele><time>2026-04-06T10:19:53.003Z</time></trkpt><trkpt lat="45.6468005" lon="10.9166251"><ele>720.0</ele><time>2026-04-06T10:19:55.003Z</time></trkpt><trkpt lat="45.6468654" lon="10.9166015"><ele>720.0</ele><time>2026-04-06T10:19:56.002Z</time></trkpt><trkpt lat="45.6469573" lon="10.9165502"><ele>720.0</ele><time>2026-04-06T10:19:57.003Z</time></trkpt><trkpt lat="45.6470497" lon="10.9165078"><ele>720.0</ele><time>2026-04-06T10:19:58.003Z</time></trkpt><trkpt lat="45.6471389" lon="10.9164758"><ele>720.0</ele><time>2026-04-06T10:19:59.002Z</time></trkpt><trkpt lat="45.6472204" lon="10.9164716"><ele>720.0</ele><time>2026-04-06T10:20:00.003Z</time></trkpt><trkpt lat="45.6472947" lon="10.9165025"><ele>720.0</ele><time>2026-04-06T10:20:01.003Z</time></trkpt><trkpt lat="45.6473689" lon="10.9165813"><ele>720.0</ele><time>2026-04-06T10:20:02.002Z</time></trkpt><trkpt lat="45.6474441" lon="10.9166988"><ele>720.0</ele><time>2026-04-06T10:20:03.003Z</time></trkpt><trkpt lat="45.6475228" lon="10.9168424"><ele>720.0</ele><time>2026-04-06T10:20:04.003Z</time></trkpt><trkpt lat="45.6476112" lon="10.9169742"><ele>722.0</ele><time>2026-04-06T10:20:05.003Z</time></trkpt><trkpt lat="45.6477302" lon="10.9171083"><ele>724.0</ele><time>2026-04-06T10:20:06.003Z</time></trkpt><trkpt lat="45.6478689" lon="10.917241"><ele>726.0</ele><time>2026-04-06T10:20:07.003Z</time></trkpt><trkpt lat="45.6480213" lon="10.9173776"><ele>726.0</ele><time>2026-04-06T10:20:08.002Z</time></trkpt><trkpt lat="45.6481476" lon="10.9174903"><ele>726.0</ele><time>2026-04-06T10:20:09.002Z</time></trkpt><trkpt lat="45.6482489" lon="10.917591"><ele>726.0</ele><time>2026-04-06T10:20:10.003Z</time></trkpt><trkpt lat="45.6483304" lon="10.9177037"><ele>726.0</ele><time>2026-04-06T10:20:11.003Z</time></trkpt><trkpt lat="45.6483989" lon="10.9178409"><ele>728.4</ele><time>2026-04-06T10:20:12.003Z</time></trkpt><trkpt lat="45.6484552" lon="10.9179913"><ele>730.8</ele><time>2026-04-06T10:20:13.003Z</time></trkpt><trkpt lat="45.6485" lon="10.9181342"><ele>733.1999999999999</ele><time>2026-04-06T10:20:14.002Z</time></trkpt><trkpt lat="45.6485417" lon="10.9182506"><ele>735.5999999999999</ele><time>2026-04-06T10:20:15.002Z</time></trkpt><trkpt lat="45.6485983" lon="10.9183339"><ele>738.0</ele><time>2026-04-06T10:20:16.003Z</time></trkpt><trkpt lat="45.648676" lon="10.9183858"><ele>743.2</ele><time>2026-04-06T10:20:17.002Z</time></trkpt><trkpt lat="45.648771" lon="10.9184107"><ele>748.4</ele><time>2026-04-06T10:20:18.003Z</time></trkpt><trkpt lat="45.6488832" lon="10.918417"><ele>753.6</ele><time>2026-04-06T10:20:19.002Z</time></trkpt><trkpt lat="45.6489936" lon="10.9184476"><ele>758.8000000000001</ele><time>2026-04-06T10:20:20.002Z</time></trkpt><trkpt lat="45.6491001" lon="10.9185174"><ele>764.0</ele><time>2026-04-06T10:20:21.003Z</time></trkpt><trkpt lat="45.6492122" lon="10.9186259"><ele>764.0</ele><time>2026-04-06T10:20:22.003Z</time></trkpt><trkpt lat="45.6493236" lon="10.9187637"><ele>764.0</ele><time>2026-04-06T10:20:23.002Z</time></trkpt><trkpt lat="45.6494104" lon="10.9189017"><ele>764.0</ele><time>2026-04-06T10:20:24.002Z</time></trkpt><trkpt lat="45.6494887" lon="10.9190833"><ele>764.0</ele><time>2026-04-06T10:20:25.003Z</time></trkpt><trkpt lat="45.6495589" lon="10.9192985"><ele>761.6666666666666</ele><time>2026-04-06T10:20:26.003Z</time></trkpt><trkpt lat="45.6496295" lon="10.9195185"><ele>759.3333333333334</ele><time>2026-04-06T10:20:27.003Z</time></trkpt><trkpt lat="45.6496948" lon="10.9197262"><ele>757.0</ele><time>2026-04-06T10:20:28.003Z</time></trkpt><trkpt lat="45.6497571" lon="10.9199349"><ele>763.3333333333334</ele><time>2026-04-06T10:20:29.002Z</time></trkpt><trkpt lat="45.6498153" lon="10.9201469"><ele>769.6666666666667</ele><time>2026-04-06T10:20:30.002Z</time></trkpt><trkpt lat="45.6498654" lon="10.9203644"><ele>776.0</ele><time>2026-04-06T10:20:31.002Z</time></trkpt><trkpt lat="45.6499147" lon="10.9205891"><ele>776.0</ele><time>2026-04-06T10:20:32.003Z</time></trkpt><trkpt lat="45.6499744" lon="10.9208182"><ele>776.0</ele><time>2026-04-06T10:20:33.003Z</time></trkpt><trkpt lat="45.6500434" lon="10.9210327"><ele>776.0</ele><time>2026-04-06T10:20:34.002Z</time></trkpt><trkpt lat="45.6501058" lon="10.9212113"><ele>782.0</ele><time>2026-04-06T10:20:35.002Z</time></trkpt><trkpt lat="45.6501663" lon="10.9213826"><ele>788.0</ele><time>2026-04-06T10:20:36.002Z</time></trkpt><trkpt lat="45.6502079" lon="10.9215589"><ele>794.0</ele><time>2026-04-06T10:20:37.003Z</time></trkpt><trkpt lat="45.650225" lon="10.9217375"><ele>800.0</ele><time>2026-04-06T10:20:38.002Z</time></trkpt><trkpt lat="45.6502267" lon="10.9219256"><ele>805.75</ele><time>2026-04-06T10:20:39.002Z</time></trkpt><trkpt lat="45.6502407" lon="10.9221192"><ele>811.5</ele><time>2026-04-06T10:20:40.003Z</time></trkpt><trkpt lat="45.6502758" lon="10.9223052"><ele>817.25</ele><time>2026-04-06T10:20:41.002Z</time></trkpt><trkpt lat="45.650314" lon="10.9224775"><ele>823.0</ele><time>2026-04-06T10:20:42.002Z</time></trkpt><trkpt lat="45.6503411" lon="10.9226351"><ele>825.0</ele><time>2026-04-06T10:20:43.003Z</time></trkpt><trkpt lat="45.6503498" lon="10.9227912"><ele>827.0</ele><time>2026-04-06T10:20:44.003Z</time></trkpt><trkpt lat="45.6503313" lon="10.9229358"><ele>829.0</ele><time>2026-04-06T10:20:45.003Z</time></trkpt><trkpt lat="45.650285" lon="10.9230566"><ele>831.0</ele><time>2026-04-06T10:20:46.002Z</time></trkpt><trkpt lat="45.6502301" lon="10.9231755"><ele>833.0</ele><time>2026-04-06T10:20:47.002Z</time></trkpt><trkpt lat="45.6501916" lon="10.9232957"><ele>832.8333333333334</ele><time>2026-04-06T10:20:48.002Z</time></trkpt><trkpt lat="45.650174" lon="10.923419"><ele>832.6666666666667</ele><time>2026-04-06T10:20:49.002Z</time></trkpt><trkpt lat="45.6501902" lon="10.9235572"><ele>832.5</ele><time>2026-04-06T10:20:50.002Z</time></trkpt><trkpt lat="45.6501976" lon="10.9237013"><ele>832.3333333333333</ele><time>2026-04-06T10:20:51.002Z</time></trkpt><trkpt lat="45.6501774" lon="10.923811"><ele>832.1666666666666</ele><time>2026-04-06T10:20:52.002Z</time></trkpt><trkpt lat="45.6501533" lon="10.9239122"><ele>832.0</ele><time>2026-04-06T10:20:53.002Z</time></trkpt><trkpt lat="45.6501422" lon="10.9240051"><ele>832.0</ele><time>2026-04-06T10:20:54.003Z</time></trkpt><trkpt lat="45.6501638" lon="10.9241094"><ele>832.0</ele><time>2026-04-06T10:20:55.003Z</time></trkpt><trkpt lat="45.6502125" lon="10.9242027"><ele>832.0</ele><time>2026-04-06T10:20:56.002Z</time></trkpt><trkpt lat="45.6502876" lon="10.9242968"><ele>832.0</ele><time>2026-04-06T10:20:57.002Z</time></trkpt><trkpt lat="45.6503597" lon="10.9244245"><ele>832.0</ele><time>2026-04-06T10:20:58.003Z</time></trkpt><trkpt lat="45.6504227" lon="10.9245985"><ele>826.3333333333333</ele><time>2026-04-06T10:20:59.003Z</time></trkpt><trkpt lat="45.6504818" lon="10.9247855"><ele>820.6666666666667</ele><time>2026-04-06T10:21:00.003Z</time></trkpt><trkpt lat="45.650554" lon="10.9250057"><ele>815.0</ele><time>2026-04-06T10:21:01.003Z</time></trkpt><trkpt lat="45.6506277" lon="10.9252467"><ele>815.0</ele><time>2026-04-06T10:21:02.003Z</time></trkpt><trkpt lat="45.6506863" lon="10.9254856"><ele>815.0</ele><time>2026-04-06T10:21:03.002Z</time></trkpt><trkpt lat="45.65073" lon="10.9257097"><ele>815.0</ele><time>2026-04-06T10:21:04.002Z</time></trkpt><trkpt lat="45.6507631" lon="10.9259155"><ele>817.25</ele><time>2026-04-06T10:21:05.003Z</time></trkpt><trkpt lat="45.6507841" lon="10.9260907"><ele>819.5</ele><time>2026-04-06T10:21:06.002Z</time></trkpt><trkpt lat="45.6507889" lon="10.9262484"><ele>821.75</ele><time>2026-04-06T10:21:07.002Z</time></trkpt><trkpt lat="45.6507801" lon="10.9264112"><ele>824.0</ele><time>2026-04-06T10:21:08.003Z</time></trkpt><trkpt lat="45.650766" lon="10.9265683"><ele>825.75</ele><time>2026-04-06T10:21:09.003Z</time></trkpt><trkpt lat="45.6507656" lon="10.9267395"><ele>827.5</ele><time>2026-04-06T10:21:10.003Z</time></trkpt><trkpt lat="45.6508014" lon="10.9269035"><ele>829.25</ele><time>2026-04-06T10:21:11.003Z</time></trkpt><trkpt lat="45.6508693" lon="10.9270653"><ele>831.0</ele><time>2026-04-06T10:21:12.003Z</time></trkpt><trkpt lat="45.6509615" lon="10.9272403"><ele>831.0</ele><time>2026-04-06T10:21:13.002Z</time></trkpt><trkpt lat="45.6510534" lon="10.9274409"><ele>831.0</ele><time>2026-04-06T10:21:14.003Z</time></trkpt><trkpt lat="45.6511365" lon="10.9276525"><ele>831.0</ele><time>2026-04-06T10:21:15.002Z</time></trkpt><trkpt lat="45.6512178" lon="10.9278984"><ele>830.6666666666667</ele><time>2026-04-06T10:21:16.002Z</time></trkpt><trkpt lat="45.6512963" lon="10.9281632"><ele>830.3333333333334</ele><time>2026-04-06T10:21:17.002Z</time></trkpt><trkpt lat="45.6513642" lon="10.9283888"><ele>830.0</ele><time>2026-04-06T10:21:18.003Z</time></trkpt><trkpt lat="45.6514155" lon="10.9285664"><ele>831.2</ele><time>2026-04-06T10:21:19.002Z</time></trkpt><trkpt lat="45.6514572" lon="10.9287247"><ele>832.4</ele><time>2026-04-06T10:21:20.003Z</time></trkpt><trkpt lat="45.6514756" lon="10.9288582"><ele>833.5999999999999</ele><time>2026-04-06T10:21:21.003Z</time></trkpt><trkpt lat="45.6514689" lon="10.9289815"><ele>834.8</ele><time>2026-04-06T10:21:22.003Z</time></trkpt><trkpt lat="45.6514146" lon="10.9290946"><ele>836.0</ele><time>2026-04-06T10:21:23.002Z</time></trkpt><trkpt lat="45.6513297" lon="10.9291977"><ele>838.0</ele><time>2026-04-06T10:21:24.003Z</time></trkpt><trkpt lat="45.6512153" lon="10.9292795"><ele>840.0</ele><time>2026-04-06T10:21:25.002Z</time></trkpt><trkpt lat="45.6510733" lon="10.9293587"><ele>842.0</ele><time>2026-04-06T10:21:26.003Z</time></trkpt><trkpt lat="45.6509123" lon="10.9294589"><ele>844.0</ele><time>2026-04-06T10:21:27.003Z</time></trkpt><trkpt lat="45.6507557" lon="10.9295759"><ele>846.0</ele><time>2026-04-06T10:21:28.002Z</time></trkpt><trkpt lat="45.6506002" lon="10.9297257"><ele>848.0</ele><time>2026-04-06T10:21:29.003Z</time></trkpt><trkpt lat="45.6504482" lon="10.9299168"><ele>853.0</ele><time>2026-04-06T10:21:30.003Z</time></trkpt><trkpt lat="45.6503031" lon="10.9301372"><ele>858.0</ele><time>2026-04-06T10:21:31.003Z</time></trkpt><trkpt lat="45.6501633" lon="10.9303816"><ele>863.0</ele><time>2026-04-06T10:21:32.002Z</time></trkpt><trkpt lat="45.6500234" lon="10.9306516"><ele>868.0</ele><time>2026-04-06T10:21:33.002Z</time></trkpt><trkpt lat="45.6498796" lon="10.9309399"><ele>873.0</ele><time>2026-04-06T10:21:34.002Z</time></trkpt><trkpt lat="45.6497352" lon="10.9312377"><ele>873.0</ele><time>2026-04-06T10:21:35.003Z</time></trkpt><trkpt lat="45.6495939" lon="10.9315348"><ele>873.0</ele><time>2026-04-06T10:21:36.002Z</time></trkpt><trkpt lat="45.649459" lon="10.9318202"><ele>875.3333333333333</ele><time>2026-04-06T10:21:37.003Z</time></trkpt><trkpt lat="45.6493377" lon="10.9320726"><ele>877.6666666666666</ele><time>2026-04-06T10:21:38.002Z</time></trkpt><trkpt lat="45.6492231" lon="10.9323012"><ele>880.0</ele><time>2026-04-06T10:21:39.002Z</time></trkpt><trkpt lat="45.6491081" lon="10.9325131"><ele>883.6666666666666</ele><time>2026-04-06T10:21:40.003Z</time></trkpt><trkpt lat="45.6489839" lon="10.9327137"><ele>887.3333333333333</ele><time>2026-04-06T10:21:41.003Z</time></trkpt><trkpt lat="45.6488379" lon="10.9328971"><ele>891.0</ele><time>2026-04-06T10:21:42.002Z</time></trkpt><trkpt lat="45.6486863" lon="10.9330686"><ele>890.0</ele><time>2026-04-06T10:21:43.003Z</time></trkpt><trkpt lat="45.648531" lon="10.9332392"><ele>889.0</ele><time>2026-04-06T10:21:44.002Z</time></trkpt><trkpt lat="45.6483697" lon="10.9334221"><ele>888.0</ele><time>2026-04-06T10:21:45.003Z</time></trkpt><trkpt lat="45.6482011" lon="10.9336093"><ele>892.5</ele><time>2026-04-06T10:21:46.002Z</time></trkpt><trkpt lat="45.6480251" lon="10.9338113"><ele>897.0</ele><time>2026-04-06T10:21:47.003Z</time></trkpt><trkpt lat="45.647847" lon="10.9340265"><ele>900.3333333333333</ele><time>2026-04-06T10:21:48.002Z</time></trkpt><trkpt lat="45.6476688" lon="10.9342332"><ele>903.6666666666666</ele><time>2026-04-06T10:21:49.002Z</time></trkpt><trkpt lat="45.6474972" lon="10.9344236"><ele>907.0</ele><time>2026-04-06T10:21:50.003Z</time></trkpt><trkpt lat="45.6473317" lon="10.9346001"><ele>907.0</ele><time>2026-04-06T10:21:51.003Z</time></trkpt><trkpt lat="45.6471805" lon="10.9347618"><ele>907.0</ele><time>2026-04-06T10:21:52.002Z</time></trkpt><trkpt lat="45.6470405" lon="10.9349179"><ele>907.0</ele><time>2026-04-06T10:21:53.003Z</time></trkpt><trkpt lat="45.6469045" lon="10.9350693"><ele>910.6666666666666</ele><time>2026-04-06T10:21:54.002Z</time></trkpt><trkpt lat="45.6467757" lon="10.9352128"><ele>914.3333333333333</ele><time>2026-04-06T10:21:55.002Z</time></trkpt><trkpt lat="45.6466545" lon="10.9353482"><ele>918.0</ele><time>2026-04-06T10:21:56.002Z</time></trkpt><trkpt lat="45.6465333" lon="10.9354758"><ele>918.0</ele><time>2026-04-06T10:21:57.002Z</time></trkpt><trkpt lat="45.6464081" lon="10.9355893"><ele>918.0</ele><time>2026-04-06T10:21:58.002Z</time></trkpt><trkpt lat="45.6462824" lon="10.9356812"><ele>918.0</ele><time>2026-04-06T10:21:59.002Z</time></trkpt><trkpt lat="45.6461582" lon="10.9357516"><ele>918.0</ele><time>2026-04-06T10:22:00.003Z</time></trkpt><trkpt lat="45.6460428" lon="10.9358082"><ele>918.2</ele><time>2026-04-06T10:22:01.003Z</time></trkpt><trkpt lat="45.6459392" lon="10.9358509"><ele>918.4</ele><time>2026-04-06T10:22:02.002Z</time></trkpt><trkpt lat="45.6458465" lon="10.935878"><ele>918.6000000000001</ele><time>2026-04-06T10:22:03.002Z</time></trkpt><trkpt lat="45.6457651" lon="10.9358951"><ele>918.8000000000001</ele><time>2026-04-06T10:22:04.002Z</time></trkpt><trkpt lat="45.6456454" lon="10.9359217"><ele>919.0</ele><time>2026-04-06T10:22:06.002Z</time></trkpt><trkpt lat="45.6456053" lon="10.9360283"><ele>921.4000000000001</ele><time>2026-04-06T10:22:08.002Z</time></trkpt><trkpt lat="45.6456738" lon="10.9361118"><ele>923.8000000000001</ele><time>2026-04-06T10:22:10.002Z</time></trkpt><trkpt lat="45.6457468" lon="10.9361279"><ele>926.1999999999999</ele><time>2026-04-06T10:22:11.003Z</time></trkpt><trkpt lat="45.6458367" lon="10.9361414"><ele>928.5999999999999</ele><time>2026-04-06T10:22:12.003Z</time></trkpt><trkpt lat="45.6459378" lon="10.936162"><ele>931.0</ele><time>2026-04-06T10:22:13.002Z</time></trkpt><trkpt lat="45.6460591" lon="10.9361889"><ele>930.8333333333333</ele><time>2026-04-06T10:22:14.002Z</time></trkpt><trkpt lat="45.6461724" lon="10.9362232"><ele>930.6666666666666</ele><time>2026-04-06T10:22:15.002Z</time></trkpt><trkpt lat="45.6462528" lon="10.9362623"><ele>930.5</ele><time>2026-04-06T10:22:16.002Z</time></trkpt><trkpt lat="45.6463191" lon="10.9363211"><ele>930.3333333333333</ele><time>2026-04-06T10:22:17.002Z</time></trkpt><trkpt lat="45.6463633" lon="10.9363955"><ele>930.1666666666666</ele><time>2026-04-06T10:22:18.003Z</time></trkpt><trkpt lat="45.6463894" lon="10.9364936"><ele>930.0</ele><time>2026-04-06T10:22:19.003Z</time></trkpt><trkpt lat="45.6464037" lon="10.9366107"><ele>930.3333333333334</ele><time>2026-04-06T10:22:20.002Z</time></trkpt><trkpt lat="45.646417" lon="10.9367403"><ele>930.6666666666667</ele><time>2026-04-06T10:22:21.003Z</time></trkpt><trkpt lat="45.6464303" lon="10.9368453"><ele>931.0</ele><time>2026-04-06T10:22:22.003Z</time></trkpt><trkpt lat="45.6464526" lon="10.9369894"><ele>931.3333333333334</ele><time>2026-04-06T10:22:24.003Z</time></trkpt><trkpt lat="45.6464538" lon="10.9370925"><ele>931.6666666666667</ele><time>2026-04-06T10:23:07.002Z</time></trkpt><trkpt lat="45.6464744" lon="10.9372044"><ele>932.0</ele><time>2026-04-06T10:23:09.003Z</time></trkpt><trkpt lat="45.6465432" lon="10.9372768"><ele>932.0</ele><time>2026-04-06T10:23:11.003Z</time></trkpt><trkpt lat="45.64666" lon="10.9372968"><ele>932.0</ele><time>2026-04-06T10:23:13.003Z</time></trkpt><trkpt lat="45.6467607" lon="10.9373219"><ele>932.0</ele><time>2026-04-06T10:23:15.003Z</time></trkpt><trkpt lat="45.6468183" lon="10.9373933"><ele>932.0</ele><time>2026-04-06T10:23:18.003Z</time></trkpt><trkpt lat="45.6467698" lon="10.9374777"><ele>932.0</ele><time>2026-04-06T10:23:22.002Z</time></trkpt><trkpt lat="45.6466838" lon="10.9374747"><ele>932.0000000000001</ele><time>2026-04-06T10:23:25.003Z</time></trkpt><trkpt lat="45.6466171" lon="10.9374539"><ele>932.0</ele><time>2026-04-06T10:23:29.002Z</time></trkpt><trkpt lat="45.6467003" lon="10.9374444"><ele>932.0</ele><time>2026-04-06T10:29:35.002Z</time></trkpt><trkpt lat="45.6467771" lon="10.9374606"><ele>932.0</ele><time>2026-04-06T10:29:37.002Z</time></trkpt><trkpt lat="45.6468355" lon="10.9374062"><ele>932.0000000000001</ele><time>2026-04-06T10:29:40.003Z</time></trkpt><trkpt lat="45.6468041" lon="10.9373049"><ele>932.0</ele><time>2026-04-06T10:29:43.002Z</time></trkpt><trkpt lat="45.6467109" lon="10.9372553"><ele>932.0000000000001</ele><time>2026-04-06T10:29:45.003Z</time></trkpt><trkpt lat="45.6466404" lon="10.9372116"><ele>932.0</ele><time>2026-04-06T10:29:47.003Z</time></trkpt><trkpt lat="45.646567" lon="10.9371666"><ele>932.0</ele><time>2026-04-06T10:29:49.003Z</time></trkpt><trkpt lat="45.6464853" lon="10.937207"><ele>932.0</ele><time>2026-04-06T10:29:52.003Z</time></trkpt><trkpt lat="45.6464866" lon="10.9373111"><ele>932.0000000000001</ele><time>2026-04-06T10:29:54.003Z</time></trkpt><trkpt lat="45.646492" lon="10.9374691"><ele>932.0</ele><time>2026-04-06T10:29:56.002Z</time></trkpt><trkpt lat="45.6464805" lon="10.9375791"><ele>931.2</ele><time>2026-04-06T10:29:57.002Z</time></trkpt><trkpt lat="45.6464492" lon="10.9377108"><ele>930.4000000000001</ele><time>2026-04-06T10:29:58.002Z</time></trkpt><trkpt lat="45.6464076" lon="10.9378441"><ele>929.5999999999999</ele><time>2026-04-06T10:29:59.003Z</time></trkpt><trkpt lat="45.6463626" lon="10.9379711"><ele>928.8</ele><time>2026-04-06T10:30:00.003Z</time></trkpt><trkpt lat="45.6463076" lon="10.9380917"><ele>928.0</ele><time>2026-04-06T10:30:01.002Z</time></trkpt><trkpt lat="45.6462304" lon="10.9382171"><ele>928.0</ele><time>2026-04-06T10:30:02.002Z</time></trkpt><trkpt lat="45.6461312" lon="10.9383605"><ele>928.0</ele><time>2026-04-06T10:30:03.003Z</time></trkpt><trkpt lat="45.6460193" lon="10.938514"><ele>928.0</ele><time>2026-04-06T10:30:04.003Z</time></trkpt><trkpt lat="45.6458933" lon="10.9386846"><ele>925.6666666666666</ele><time>2026-04-06T10:30:05.003Z</time></trkpt><trkpt lat="45.6457534" lon="10.9388722"><ele>923.3333333333333</ele><time>2026-04-06T10:30:06.003Z</time></trkpt><trkpt lat="45.6456207" lon="10.9390513"><ele>921.0</ele><time>2026-04-06T10:30:07.002Z</time></trkpt><trkpt lat="45.6454912" lon="10.9392263"><ele>920.0</ele><time>2026-04-06T10:30:08.003Z</time></trkpt><trkpt lat="45.6453648" lon="10.9393969"><ele>919.0</ele><time>2026-04-06T10:30:09.002Z</time></trkpt><trkpt lat="45.6452368" lon="10.9395658"><ele>918.0</ele><time>2026-04-06T10:30:10.002Z</time></trkpt><trkpt lat="45.6451072" lon="10.9397342"><ele>917.6666666666667</ele><time>2026-04-06T10:30:11.003Z</time></trkpt><trkpt lat="45.6449749" lon="10.9399037"><ele>917.3333333333334</ele><time>2026-04-06T10:30:12.002Z</time></trkpt><trkpt lat="45.644837" lon="10.9400795"><ele>917.0</ele><time>2026-04-06T10:30:13.003Z</time></trkpt><trkpt lat="45.6447122" lon="10.9402386"><ele>915.5</ele><time>2026-04-06T10:30:14.003Z</time></trkpt><trkpt lat="45.6446006" lon="10.9403838"><ele>914.0</ele><time>2026-04-06T10:30:15.002Z</time></trkpt><trkpt lat="45.6445112" lon="10.9405082"><ele>912.5</ele><time>2026-04-06T10:30:16.002Z</time></trkpt><trkpt lat="45.6444282" lon="10.940635"><ele>911.0</ele><time>2026-04-06T10:30:17.002Z</time></trkpt><trkpt lat="45.6443678" lon="10.9407633"><ele>911.0</ele><time>2026-04-06T10:30:18.002Z</time></trkpt><trkpt lat="45.6443311" lon="10.9409029"><ele>911.0</ele><time>2026-04-06T10:30:19.002Z</time></trkpt><trkpt lat="45.644308" lon="10.9410567"><ele>911.0</ele><time>2026-04-06T10:30:20.003Z</time></trkpt><trkpt lat="45.644304" lon="10.9412468"><ele>911.0</ele><time>2026-04-06T10:30:21.002Z</time></trkpt><trkpt lat="45.6443022" lon="10.9414693"><ele>911.0</ele><time>2026-04-06T10:30:22.003Z</time></trkpt><trkpt lat="45.644297" lon="10.9417079"><ele>911.0</ele><time>2026-04-06T10:30:23.002Z</time></trkpt><trkpt lat="45.6442909" lon="10.9419238"><ele>911.0</ele><time>2026-04-06T10:30:24.003Z</time></trkpt><trkpt lat="45.6442944" lon="10.9421159"><ele>909.0</ele><time>2026-04-06T10:30:25.003Z</time></trkpt><trkpt lat="45.6443118" lon="10.9423079"><ele>907.0</ele><time>2026-04-06T10:30:26.003Z</time></trkpt><trkpt lat="45.6443536" lon="10.9425073"><ele>905.0</ele><time>2026-04-06T10:30:27.003Z</time></trkpt><trkpt lat="45.6444108" lon="10.9427368"><ele>902.6666666666667</ele><time>2026-04-06T10:30:28.003Z</time></trkpt><trkpt lat="45.6444778" lon="10.9429858"><ele>900.3333333333333</ele><time>2026-04-06T10:30:29.002Z</time></trkpt><trkpt lat="45.6445394" lon="10.9432438"><ele>898.0</ele><time>2026-04-06T10:30:30.002Z</time></trkpt><trkpt lat="45.6445944" lon="10.9435202"><ele>896.6666666666666</ele><time>2026-04-06T10:30:31.003Z</time></trkpt><trkpt lat="45.6446379" lon="10.9437842"><ele>895.3333333333333</ele><time>2026-04-06T10:30:32.002Z</time></trkpt><trkpt lat="45.644674" lon="10.9440331"><ele>894.0</ele><time>2026-04-06T10:30:33.003Z</time></trkpt><trkpt lat="45.6447158" lon="10.9442806"><ele>893.0</ele><time>2026-04-06T10:30:34.003Z</time></trkpt><trkpt lat="45.6447696" lon="10.9445183"><ele>892.0</ele><time>2026-04-06T10:30:35.003Z</time></trkpt><trkpt lat="45.6448332" lon="10.9447495"><ele>891.0</ele><time>2026-04-06T10:30:36.003Z</time></trkpt><trkpt lat="45.6449005" lon="10.9449795"><ele>892.0</ele><time>2026-04-06T10:30:37.003Z</time></trkpt><trkpt lat="45.644964" lon="10.9452108"><ele>893.0</ele><time>2026-04-06T10:30:38.002Z</time></trkpt><trkpt lat="45.6450306" lon="10.945441"><ele>894.0</ele><time>2026-04-06T10:30:39.002Z</time></trkpt><trkpt lat="45.6450995" lon="10.9456672"><ele>894.0</ele><time>2026-04-06T10:30:40.002Z</time></trkpt><trkpt lat="45.6451578" lon="10.9458727"><ele>894.0</ele><time>2026-04-06T10:30:41.002Z</time></trkpt><trkpt lat="45.6452076" lon="10.9460569"><ele>894.0</ele><time>2026-04-06T10:30:42.003Z</time></trkpt><trkpt lat="45.6452498" lon="10.9462346"><ele>894.0</ele><time>2026-04-06T10:30:43.002Z</time></trkpt><trkpt lat="45.6452749" lon="10.9464084"><ele>894.0</ele><time>2026-04-06T10:30:44.002Z</time></trkpt><trkpt lat="45.6452803" lon="10.9465988"><ele>894.0</ele><time>2026-04-06T10:30:45.002Z</time></trkpt><trkpt lat="45.6452718" lon="10.9467999"><ele>894.0</ele><time>2026-04-06T10:30:46.002Z</time></trkpt><trkpt lat="45.645247" lon="10.9469986"><ele>894.0</ele><time>2026-04-06T10:30:47.002Z</time></trkpt><trkpt lat="45.6452102" lon="10.9471933"><ele>889.3333333333333</ele><time>2026-04-06T10:30:48.003Z</time></trkpt><trkpt lat="45.6451449" lon="10.9473756"><ele>884.6666666666666</ele><time>2026-04-06T10:30:49.003Z</time></trkpt><trkpt lat="45.6450617" lon="10.94756"><ele>880.0</ele><time>2026-04-06T10:30:50.003Z</time></trkpt><trkpt lat="45.6449634" lon="10.9477343"><ele>875.75</ele><time>2026-04-06T10:30:51.002Z</time></trkpt><trkpt lat="45.6448556" lon="10.9478929"><ele>871.5</ele><time>2026-04-06T10:30:52.002Z</time></trkpt><trkpt lat="45.6447524" lon="10.9480456"><ele>867.25</ele><time>2026-04-06T10:30:53.003Z</time></trkpt><trkpt lat="45.6446608" lon="10.9481874"><ele>863.0</ele><time>2026-04-06T10:30:54.003Z</time></trkpt><trkpt lat="45.64458" lon="10.9483212"><ele>862.5999999999999</ele><time>2026-04-06T10:30:55.002Z</time></trkpt><trkpt lat="45.6445163" lon="10.9484617"><ele>862.1999999999999</ele><time>2026-04-06T10:30:56.002Z</time></trkpt><trkpt lat="45.6444749" lon="10.9485994"><ele>861.8</ele><time>2026-04-06T10:30:57.002Z</time></trkpt><trkpt lat="45.6444491" lon="10.9487449"><ele>861.4</ele><time>2026-04-06T10:30:58.003Z</time></trkpt><trkpt lat="45.6444334" lon="10.9488991"><ele>861.0</ele><time>2026-04-06T10:30:59.003Z</time></trkpt><trkpt lat="45.644419" lon="10.9490637"><ele>859.75</ele><time>2026-04-06T10:31:00.002Z</time></trkpt><trkpt lat="45.6444122" lon="10.9492414"><ele>858.5</ele><time>2026-04-06T10:31:01.003Z</time></trkpt><trkpt lat="45.644433" lon="10.9494319"><ele>857.25</ele><time>2026-04-06T10:31:02.002Z</time></trkpt><trkpt lat="45.6444754" lon="10.9496252"><ele>856.0</ele><time>2026-04-06T10:31:03.003Z</time></trkpt><trkpt lat="45.6445369" lon="10.9498229"><ele>856.0</ele><time>2026-04-06T10:31:04.002Z</time></trkpt><trkpt lat="45.6446138" lon="10.9500327"><ele>856.0</ele><time>2026-04-06T10:31:05.002Z</time></trkpt><trkpt lat="45.6446982" lon="10.95027"><ele>856.0</ele><time>2026-04-06T10:31:06.003Z</time></trkpt><trkpt lat="45.6447686" lon="10.9505171"><ele>854.6666666666666</ele><time>2026-04-06T10:31:07.002Z</time></trkpt><trkpt lat="45.6448236" lon="10.9507557"><ele>853.3333333333333</ele><time>2026-04-06T10:31:08.002Z</time></trkpt><trkpt lat="45.6448678" lon="10.9509981"><ele>852.0</ele><time>2026-04-06T10:31:09.002Z</time></trkpt><trkpt lat="45.6449023" lon="10.9512397"><ele>852.0</ele><time>2026-04-06T10:31:10.002Z</time></trkpt><trkpt lat="45.6449306" lon="10.9514751"><ele>852.0</ele><time>2026-04-06T10:31:11.003Z</time></trkpt><trkpt lat="45.6449601" lon="10.9516939"><ele>852.0</ele><time>2026-04-06T10:31:12.002Z</time></trkpt><trkpt lat="45.6449953" lon="10.9519194"><ele>852.75</ele><time>2026-04-06T10:31:13.003Z</time></trkpt><trkpt lat="45.6450365" lon="10.9521293"><ele>853.5</ele><time>2026-04-06T10:31:14.003Z</time></trkpt><trkpt lat="45.6450864" lon="10.9523123"><ele>854.25</ele><time>2026-04-06T10:31:15.002Z</time></trkpt><trkpt lat="45.6451507" lon="10.95247"><ele>855.0</ele><time>2026-04-06T10:31:16.003Z</time></trkpt><trkpt lat="45.6452322" lon="10.952604"><ele>857.75</ele><time>2026-04-06T10:31:17.002Z</time></trkpt><trkpt lat="45.6453337" lon="10.9527185"><ele>860.5</ele><time>2026-04-06T10:31:18.003Z</time></trkpt><trkpt lat="45.6454576" lon="10.9528227"><ele>863.25</ele><time>2026-04-06T10:31:19.003Z</time></trkpt><trkpt lat="45.6456019" lon="10.9529223"><ele>866.0</ele><time>2026-04-06T10:31:20.003Z</time></trkpt><trkpt lat="45.6457648" lon="10.9530221"><ele>866.0</ele><time>2026-04-06T10:31:21.002Z</time></trkpt><trkpt lat="45.6459192" lon="10.9531136"><ele>866.0</ele><time>2026-04-06T10:31:22.003Z</time></trkpt><trkpt lat="45.646041" lon="10.9531898"><ele>866.0</ele><time>2026-04-06T10:31:23.003Z</time></trkpt><trkpt lat="45.6461529" lon="10.9532661"><ele>866.0</ele><time>2026-04-06T10:31:24.002Z</time></trkpt><trkpt lat="45.6462539" lon="10.953338"><ele>869.0</ele><time>2026-04-06T10:31:25.003Z</time></trkpt><trkpt lat="45.6463483" lon="10.9534084"><ele>872.0</ele><time>2026-04-06T10:31:26.002Z</time></trkpt><trkpt lat="45.6464553" lon="10.9534873"><ele>875.0</ele><time>2026-04-06T10:31:27.003Z</time></trkpt><trkpt lat="45.6465729" lon="10.9535687"><ele>878.0</ele><time>2026-04-06T10:31:28.002Z</time></trkpt><trkpt lat="45.6467053" lon="10.9536455"><ele>878.0</ele><time>2026-04-06T10:31:29.002Z</time></trkpt><trkpt lat="45.6468347" lon="10.9537102"><ele>878.0</ele><time>2026-04-06T10:31:30.003Z</time></trkpt><trkpt lat="45.6469423" lon="10.9537619"><ele>878.0</ele><time>2026-04-06T10:31:31.002Z</time></trkpt><trkpt lat="45.6470149" lon="10.9538094"><ele>878.0</ele><time>2026-04-06T10:31:32.003Z</time></trkpt><trkpt lat="45.6470668" lon="10.9538748"><ele>878.0</ele><time>2026-04-06T10:31:33.003Z</time></trkpt><trkpt lat="45.6470916" lon="10.9540316"><ele>878.0</ele><time>2026-04-06T10:31:35.002Z</time></trkpt><trkpt lat="45.6470002" lon="10.9541511"><ele>878.0</ele><time>2026-04-06T10:31:37.002Z</time></trkpt><trkpt lat="45.6469155" lon="10.9541673"><ele>878.0</ele><time>2026-04-06T10:31:38.003Z</time></trkpt><trkpt lat="45.6468113" lon="10.9541656"><ele>878.0</ele><time>2026-04-06T10:31:39.003Z</time></trkpt><trkpt lat="45.6466704" lon="10.9541389"><ele>878.0</ele><time>2026-04-06T10:31:40.002Z</time></trkpt><trkpt lat="45.6465355" lon="10.954117"><ele>878.0</ele><time>2026-04-06T10:31:41.002Z</time></trkpt><trkpt lat="45.6463845" lon="10.9540978"><ele>878.0</ele><time>2026-04-06T10:31:42.003Z</time></trkpt><trkpt lat="45.6462383" lon="10.9540821"><ele>878.0</ele><time>2026-04-06T10:31:43.003Z</time></trkpt><trkpt lat="45.6461018" lon="10.9540661"><ele>879.5</ele><time>2026-04-06T10:31:44.002Z</time></trkpt><trkpt lat="45.6459631" lon="10.9540591"><ele>881.0</ele><time>2026-04-06T10:31:45.003Z</time></trkpt><trkpt lat="45.6458259" lon="10.9540492"><ele>882.5</ele><time>2026-04-06T10:31:46.003Z</time></trkpt><trkpt lat="45.6456877" lon="10.9540368"><ele>884.0</ele><time>2026-04-06T10:31:47.002Z</time></trkpt><trkpt lat="45.6455501" lon="10.9540233"><ele>884.0</ele><time>2026-04-06T10:31:48.003Z</time></trkpt><trkpt lat="45.645421" lon="10.9540096"><ele>884.0</ele><time>2026-04-06T10:31:49.003Z</time></trkpt><trkpt lat="45.6453009" lon="10.9540001"><ele>884.0</ele><time>2026-04-06T10:31:50.003Z</time></trkpt><trkpt lat="45.6451843" lon="10.9539959"><ele>884.0</ele><time>2026-04-06T10:31:51.003Z</time></trkpt><trkpt lat="45.6450789" lon="10.9539905"><ele>885.2</ele><time>2026-04-06T10:31:52.003Z</time></trkpt><trkpt lat="45.6449792" lon="10.9539831"><ele>886.4000000000001</ele><time>2026-04-06T10:31:53.002Z</time></trkpt><trkpt lat="45.6448911" lon="10.9539823"><ele>887.6</ele><time>2026-04-06T10:31:54.002Z</time></trkpt><trkpt lat="45.6447968" lon="10.9539814"><ele>888.8</ele><time>2026-04-06T10:31:55.002Z</time></trkpt><trkpt lat="45.6447032" lon="10.9539798"><ele>890.0</ele><time>2026-04-06T10:31:56.002Z</time></trkpt><trkpt lat="45.6445986" lon="10.9539811"><ele>890.0</ele><time>2026-04-06T10:31:57.003Z</time></trkpt><trkpt lat="45.6444924" lon="10.9539872"><ele>890.0</ele><time>2026-04-06T10:31:58.002Z</time></trkpt><trkpt lat="45.6443848" lon="10.9539912"><ele>890.0</ele><time>2026-04-06T10:31:59.002Z</time></trkpt><trkpt lat="45.6442798" lon="10.9539952"><ele>890.0</ele><time>2026-04-06T10:32:00.002Z</time></trkpt><trkpt lat="45.644175" lon="10.953996"><ele>890.0</ele><time>2026-04-06T10:32:01.003Z</time></trkpt><trkpt lat="45.6440747" lon="10.9540009"><ele>890.8</ele><time>2026-04-06T10:32:02.003Z</time></trkpt><trkpt lat="45.6439707" lon="10.9540145"><ele>891.6</ele><time>2026-04-06T10:32:03.002Z</time></trkpt><trkpt lat="45.6438675" lon="10.9540436"><ele>892.4000000000001</ele><time>2026-04-06T10:32:04.003Z</time></trkpt><trkpt lat="45.643771" lon="10.9540871"><ele>893.2</ele><time>2026-04-06T10:32:05.002Z</time></trkpt><trkpt lat="45.6436855" lon="10.9541505"><ele>894.0</ele><time>2026-04-06T10:32:06.003Z</time></trkpt><trkpt lat="45.6436068" lon="10.9542265"><ele>896.5</ele><time>2026-04-06T10:32:07.003Z</time></trkpt><trkpt lat="45.6435352" lon="10.9543147"><ele>899.0</ele><time>2026-04-06T10:32:08.002Z</time></trkpt><trkpt lat="45.6434745" lon="10.9543956"><ele>901.5</ele><time>2026-04-06T10:32:09.003Z</time></trkpt><trkpt lat="45.6434222" lon="10.9544666"><ele>904.0</ele><time>2026-04-06T10:32:10.002Z</time></trkpt><trkpt lat="45.6433728" lon="10.9545328"><ele>906.5</ele><time>2026-04-06T10:32:11.003Z</time></trkpt><trkpt lat="45.6433212" lon="10.9546056"><ele>909.0</ele><time>2026-04-06T10:32:12.003Z</time></trkpt><trkpt lat="45.643261" lon="10.9546713"><ele>909.0</ele><time>2026-04-06T10:32:13.002Z</time></trkpt><trkpt lat="45.6431923" lon="10.9547212"><ele>909.0000000000001</ele><time>2026-04-06T10:32:14.003Z</time></trkpt><trkpt lat="45.6431118" lon="10.9547502"><ele>909.0000000000001</ele><time>2026-04-06T10:32:15.002Z</time></trkpt><trkpt lat="45.6430265" lon="10.954761"><ele>909.0</ele><time>2026-04-06T10:32:16.003Z</time></trkpt><trkpt lat="45.6429275" lon="10.9547488"><ele>909.0</ele><time>2026-04-06T10:32:17.002Z</time></trkpt><trkpt lat="45.6428217" lon="10.9547263"><ele>908.0</ele><time>2026-04-06T10:32:18.003Z</time></trkpt><trkpt lat="45.6427012" lon="10.9547006"><ele>907.0000000000001</ele><time>2026-04-06T10:32:19.003Z</time></trkpt><trkpt lat="45.6425934" lon="10.9546819"><ele>906.0000000000001</ele><time>2026-04-06T10:32:20.002Z</time></trkpt><trkpt lat="45.6424944" lon="10.9546716"><ele>905.0</ele><time>2026-04-06T10:32:21.002Z</time></trkpt><trkpt lat="45.6424022" lon="10.9546847"><ele>904.0</ele><time>2026-04-06T10:32:22.002Z</time></trkpt><trkpt lat="45.642305" lon="10.9547176"><ele>904.0</ele><time>2026-04-06T10:32:23.002Z</time></trkpt><trkpt lat="45.6422117" lon="10.9547683"><ele>904.0000000000001</ele><time>2026-04-06T10:32:24.003Z</time></trkpt><trkpt lat="45.6421358" lon="10.9548444"><ele>904.0000000000001</ele><time>2026-04-06T10:32:25.002Z</time></trkpt><trkpt lat="45.6420788" lon="10.9549467"><ele>904.0</ele><time>2026-04-06T10:32:26.003Z</time></trkpt><trkpt lat="45.6420442" lon="10.9550661"><ele>904.0</ele><time>2026-04-06T10:32:27.002Z</time></trkpt><trkpt lat="45.6420306" lon="10.9552032"><ele>907.0</ele><time>2026-04-06T10:32:28.002Z</time></trkpt><trkpt lat="45.6420304" lon="10.9553582"><ele>910.0000000000001</ele><time>2026-04-06T10:32:29.003Z</time></trkpt><trkpt lat="45.6420264" lon="10.9555195"><ele>913.0000000000001</ele><time>2026-04-06T10:32:30.002Z</time></trkpt><trkpt lat="45.6420081" lon="10.9556571"><ele>916.0</ele><time>2026-04-06T10:32:31.003Z</time></trkpt><trkpt lat="45.6419725" lon="10.9557877"><ele>919.0</ele><time>2026-04-06T10:32:32.002Z</time></trkpt><trkpt lat="45.6419233" lon="10.9558867"><ele>919.2</ele><time>2026-04-06T10:32:33.002Z</time></trkpt><trkpt lat="45.6418549" lon="10.9559646"><ele>919.4000000000001</ele><time>2026-04-06T10:32:34.002Z</time></trkpt><trkpt lat="45.6417591" lon="10.9560056"><ele>919.6</ele><time>2026-04-06T10:32:35.002Z</time></trkpt><trkpt lat="45.6416423" lon="10.9560252"><ele>919.8</ele><time>2026-04-06T10:32:36.002Z</time></trkpt><trkpt lat="45.6415114" lon="10.9560273"><ele>920.0</ele><time>2026-04-06T10:32:37.003Z</time></trkpt><trkpt lat="45.6413799" lon="10.9560244"><ele>920.0</ele><time>2026-04-06T10:32:38.003Z</time></trkpt><trkpt lat="45.6412435" lon="10.9560258"><ele>920.0</ele><time>2026-04-06T10:32:39.002Z</time></trkpt><trkpt lat="45.6411098" lon="10.9560315"><ele>920.0</ele><time>2026-04-06T10:32:40.003Z</time></trkpt><trkpt lat="45.640983" lon="10.9560472"><ele>920.0</ele><time>2026-04-06T10:32:41.002Z</time></trkpt><trkpt lat="45.6408498" lon="10.9560846"><ele>920.25</ele><time>2026-04-06T10:32:42.003Z</time></trkpt><trkpt lat="45.6407182" lon="10.9561492"><ele>920.5</ele><time>2026-04-06T10:32:43.002Z</time></trkpt><trkpt lat="45.6405826" lon="10.9562374"><ele>920.75</ele><time>2026-04-06T10:32:44.002Z</time></trkpt><trkpt lat="45.6404455" lon="10.9563468"><ele>921.0</ele><time>2026-04-06T10:32:45.002Z</time></trkpt><trkpt lat="45.6403178" lon="10.956471"><ele>920.25</ele><time>2026-04-06T10:32:46.002Z</time></trkpt><trkpt lat="45.6402023" lon="10.9566026"><ele>919.5</ele><time>2026-04-06T10:32:47.002Z</time></trkpt><trkpt lat="45.6401009" lon="10.9567281"><ele>918.75</ele><time>2026-04-06T10:32:48.003Z</time></trkpt><trkpt lat="45.6400108" lon="10.9568424"><ele>918.0</ele><time>2026-04-06T10:32:49.002Z</time></trkpt><trkpt lat="45.6399293" lon="10.9569638"><ele>918.0</ele><time>2026-04-06T10:32:50.002Z</time></trkpt><trkpt lat="45.6398704" lon="10.9570961"><ele>918.0</ele><time>2026-04-06T10:32:51.003Z</time></trkpt><trkpt lat="45.6398347" lon="10.9572348"><ele>918.0</ele><time>2026-04-06T10:32:52.002Z</time></trkpt><trkpt lat="45.6398421" lon="10.9573907"><ele>918.0</ele><time>2026-04-06T10:32:53.003Z</time></trkpt><trkpt lat="45.6398755" lon="10.9575471"><ele>918.0</ele><time>2026-04-06T10:32:54.002Z</time></trkpt><trkpt lat="45.6399455" lon="10.9577085"><ele>915.6666666666667</ele><time>2026-04-06T10:32:55.002Z</time></trkpt><trkpt lat="45.6400429" lon="10.9578794"><ele>913.3333333333334</ele><time>2026-04-06T10:32:56.003Z</time></trkpt><trkpt lat="45.6401584" lon="10.9580673"><ele>911.0</ele><time>2026-04-06T10:32:57.002Z</time></trkpt><trkpt lat="45.640259" lon="10.9582452"><ele>916.0</ele><time>2026-04-06T10:32:58.002Z</time></trkpt><trkpt lat="45.6403415" lon="10.9584113"><ele>921.0</ele><time>2026-04-06T10:32:59.002Z</time></trkpt><trkpt lat="45.6403962" lon="10.9585789"><ele>926.0</ele><time>2026-04-06T10:33:00.003Z</time></trkpt><trkpt lat="45.6404166" lon="10.95875"><ele>931.0</ele><time>2026-04-06T10:33:01.003Z</time></trkpt><trkpt lat="45.640409" lon="10.9589284"><ele>931.0</ele><time>2026-04-06T10:33:02.002Z</time></trkpt><trkpt lat="45.6404091" lon="10.9591006"><ele>931.0</ele><time>2026-04-06T10:33:03.003Z</time></trkpt><trkpt lat="45.6404354" lon="10.9592523"><ele>931.0</ele><time>2026-04-06T10:33:04.002Z</time></trkpt><trkpt lat="45.6404927" lon="10.9593836"><ele>931.0</ele><time>2026-04-06T10:33:05.003Z</time></trkpt><trkpt lat="45.6405785" lon="10.9595185"><ele>928.0</ele><time>2026-04-06T10:33:06.003Z</time></trkpt><trkpt lat="45.6406829" lon="10.9596675"><ele>925.0</ele><time>2026-04-06T10:33:07.003Z</time></trkpt><trkpt lat="45.6408108" lon="10.9598186"><ele>922.0</ele><time>2026-04-06T10:33:08.003Z</time></trkpt><trkpt lat="45.6409549" lon="10.9599486"><ele>918.75</ele><time>2026-04-06T10:33:09.002Z</time></trkpt><trkpt lat="45.6410993" lon="10.960038"><ele>915.5</ele><time>2026-04-06T10:33:10.003Z</time></trkpt><trkpt lat="45.6412371" lon="10.9601027"><ele>912.25</ele><time>2026-04-06T10:33:11.003Z</time></trkpt><trkpt lat="45.6413595" lon="10.9601758"><ele>909.0</ele><time>2026-04-06T10:33:12.002Z</time></trkpt><trkpt lat="45.641469" lon="10.9602719"><ele>914.0</ele><time>2026-04-06T10:33:13.003Z</time></trkpt><trkpt lat="45.6415478" lon="10.9603907"><ele>919.0</ele><time>2026-04-06T10:33:14.002Z</time></trkpt><trkpt lat="45.6416022" lon="10.9605553"><ele>924.0</ele><time>2026-04-06T10:33:15.003Z</time></trkpt><trkpt lat="45.6416289" lon="10.9607534"><ele>929.0</ele><time>2026-04-06T10:33:16.002Z</time></trkpt><trkpt lat="45.6416188" lon="10.9609988"><ele>929.0</ele><time>2026-04-06T10:33:17.003Z</time></trkpt><trkpt lat="45.6416238" lon="10.9611996"><ele>929.0</ele><time>2026-04-06T10:33:18.002Z</time></trkpt><trkpt lat="45.6416506" lon="10.9613641"><ele>929.0</ele><time>2026-04-06T10:33:19.002Z</time></trkpt><trkpt lat="45.641707" lon="10.9615211"><ele>929.0</ele><time>2026-04-06T10:33:20.003Z</time></trkpt><trkpt lat="45.6417982" lon="10.9616754"><ele>929.3333333333334</ele><time>2026-04-06T10:33:21.003Z</time></trkpt><trkpt lat="45.6419203" lon="10.9618277"><ele>929.6666666666667</ele><time>2026-04-06T10:33:22.003Z</time></trkpt><trkpt lat="45.6420589" lon="10.9619833"><ele>930.0</ele><time>2026-04-06T10:33:23.003Z</time></trkpt><trkpt lat="45.6421901" lon="10.9621311"><ele>933.5</ele><time>2026-04-06T10:33:24.002Z</time></trkpt><trkpt lat="45.6423178" lon="10.9622719"><ele>937.0</ele><time>2026-04-06T10:33:25.002Z</time></trkpt><trkpt lat="45.6424403" lon="10.9623848"><ele>940.5</ele><time>2026-04-06T10:33:26.002Z</time></trkpt><trkpt lat="45.6425492" lon="10.9624729"><ele>944.0</ele><time>2026-04-06T10:33:27.002Z</time></trkpt><trkpt lat="45.6426332" lon="10.9625428"><ele>946.2</ele><time>2026-04-06T10:33:28.003Z</time></trkpt><trkpt lat="45.6426876" lon="10.9626217"><ele>948.4000000000001</ele><time>2026-04-06T10:33:29.003Z</time></trkpt><trkpt lat="45.6427109" lon="10.9627145"><ele>950.6</ele><time>2026-04-06T10:33:30.003Z</time></trkpt><trkpt lat="45.6426545" lon="10.9628735"><ele>952.8</ele><time>2026-04-06T10:33:32.003Z</time></trkpt><trkpt lat="45.6425757" lon="10.9629181"><ele>955.0</ele><time>2026-04-06T10:33:33.002Z</time></trkpt><trkpt lat="45.6424658" lon="10.9629437"><ele>955.0</ele><time>2026-04-06T10:33:34.002Z</time></trkpt><trkpt lat="45.6423275" lon="10.9629585"><ele>955.0</ele><time>2026-04-06T10:33:35.002Z</time></trkpt><trkpt lat="45.6421972" lon="10.9629732"><ele>955.0</ele><time>2026-04-06T10:33:36.003Z</time></trkpt><trkpt lat="45.6420698" lon="10.9630129"><ele>955.0</ele><time>2026-04-06T10:33:37.002Z</time></trkpt><trkpt lat="45.6419623" lon="10.9630833"><ele>953.0</ele><time>2026-04-06T10:33:38.003Z</time></trkpt><trkpt lat="45.6418708" lon="10.9631849"><ele>951.0</ele><time>2026-04-06T10:33:39.003Z</time></trkpt><trkpt lat="45.641779" lon="10.9632932"><ele>949.0</ele><time>2026-04-06T10:33:40.003Z</time></trkpt><trkpt lat="45.6416843" lon="10.963363"><ele>947.0</ele><time>2026-04-06T10:33:41.002Z</time></trkpt><trkpt lat="45.6415777" lon="10.9633903"><ele>947.0</ele><time>2026-04-06T10:33:42.002Z</time></trkpt><trkpt lat="45.641467" lon="10.9633647"><ele>947.0</ele><time>2026-04-06T10:33:43.003Z</time></trkpt><trkpt lat="45.6413385" lon="10.9633049"><ele>947.0</ele><time>2026-04-06T10:33:44.003Z</time></trkpt><trkpt lat="45.641183" lon="10.9632294"><ele>947.0</ele><time>2026-04-06T10:33:45.002Z</time></trkpt><trkpt lat="45.6410001" lon="10.9631528"><ele>947.3333333333334</ele><time>2026-04-06T10:33:46.003Z</time></trkpt><trkpt lat="45.6408217" lon="10.9630868"><ele>947.6666666666667</ele><time>2026-04-06T10:33:47.003Z</time></trkpt><trkpt lat="45.6406521" lon="10.9630344"><ele>948.0</ele><time>2026-04-06T10:33:48.003Z</time></trkpt><trkpt lat="45.6405018" lon="10.9629853"><ele>948.0</ele><time>2026-04-06T10:33:49.003Z</time></trkpt><trkpt lat="45.6403588" lon="10.9629369"><ele>948.0</ele><time>2026-04-06T10:33:50.003Z</time></trkpt><trkpt lat="45.6402233" lon="10.9628951"><ele>948.0</ele><time>2026-04-06T10:33:51.002Z</time></trkpt><trkpt lat="45.6400851" lon="10.9628512"><ele>948.0</ele><time>2026-04-06T10:33:52.003Z</time></trkpt><trkpt lat="45.6399576" lon="10.9628068"><ele>949.0</ele><time>2026-04-06T10:33:53.003Z</time></trkpt><trkpt lat="45.6398418" lon="10.9627697"><ele>950.0</ele><time>2026-04-06T10:33:54.003Z</time></trkpt><trkpt lat="45.6397372" lon="10.9627421"><ele>951.0</ele><time>2026-04-06T10:33:55.003Z</time></trkpt><trkpt lat="45.6396282" lon="10.9627324"><ele>952.0</ele><time>2026-04-06T10:33:56.003Z</time></trkpt><trkpt lat="45.6395253" lon="10.9627575"><ele>953.0</ele><time>2026-04-06T10:33:57.002Z</time></trkpt><trkpt lat="45.6394247" lon="10.9627989"><ele>953.0</ele><time>2026-04-06T10:33:58.002Z</time></trkpt><trkpt lat="45.6393256" lon="10.9628511"><ele>953.0</ele><time>2026-04-06T10:33:59.003Z</time></trkpt><trkpt lat="45.6392275" lon="10.9629059"><ele>953.0</ele><time>2026-04-06T10:34:00.002Z</time></trkpt><trkpt lat="45.6391354" lon="10.9629617"><ele>953.0</ele><time>2026-04-06T10:34:01.003Z</time></trkpt><trkpt lat="45.6390495" lon="10.9630292"><ele>953.0</ele><time>2026-04-06T10:34:02.002Z</time></trkpt><trkpt lat="45.6389791" lon="10.9631127"><ele>953.0</ele><time>2026-04-06T10:34:03.002Z</time></trkpt><trkpt lat="45.6389225" lon="10.9632174"><ele>953.0</ele><time>2026-04-06T10:34:04.002Z</time></trkpt><trkpt lat="45.6388812" lon="10.9633466"><ele>953.0</ele><time>2026-04-06T10:34:05.003Z</time></trkpt><trkpt lat="45.6388501" lon="10.9635053"><ele>953.0</ele><time>2026-04-06T10:34:06.002Z</time></trkpt><trkpt lat="45.6388252" lon="10.9636741"><ele>953.0</ele><time>2026-04-06T10:34:07.003Z</time></trkpt><trkpt lat="45.6388037" lon="10.9638455"><ele>953.5</ele><time>2026-04-06T10:34:08.003Z</time></trkpt><trkpt lat="45.6387846" lon="10.9640154"><ele>954.0</ele><time>2026-04-06T10:34:09.003Z</time></trkpt><trkpt lat="45.6387672" lon="10.9641866"><ele>954.5</ele><time>2026-04-06T10:34:10.003Z</time></trkpt><trkpt lat="45.6387518" lon="10.9643458"><ele>955.0</ele><time>2026-04-06T10:34:11.003Z</time></trkpt><trkpt lat="45.6387384" lon="10.9645022"><ele>955.0</ele><time>2026-04-06T10:34:12.003Z</time></trkpt><trkpt lat="45.6387246" lon="10.9646491"><ele>955.0</ele><time>2026-04-06T10:34:13.003Z</time></trkpt><trkpt lat="45.6387168" lon="10.9647793"><ele>955.0</ele><time>2026-04-06T10:34:14.002Z</time></trkpt><trkpt lat="45.6387156" lon="10.9649107"><ele>955.0</ele><time>2026-04-06T10:34:15.002Z</time></trkpt><trkpt lat="45.6387326" lon="10.9650436"><ele>955.0</ele><time>2026-04-06T10:34:16.002Z</time></trkpt><trkpt lat="45.6387752" lon="10.9651687"><ele>953.4</ele><time>2026-04-06T10:34:17.002Z</time></trkpt><trkpt lat="45.6388409" lon="10.965265"><ele>951.8</ele><time>2026-04-06T10:34:18.002Z</time></trkpt><trkpt lat="45.6389242" lon="10.9653204"><ele>950.2</ele><time>2026-04-06T10:34:19.002Z</time></trkpt><trkpt lat="45.6390142" lon="10.9653317"><ele>948.6</ele><time>2026-04-06T10:34:20.002Z</time></trkpt><trkpt lat="45.6390992" lon="10.9652952"><ele>947.0</ele><time>2026-04-06T10:34:21.003Z</time></trkpt><trkpt lat="45.6391729" lon="10.9652139"><ele>947.0</ele><time>2026-04-06T10:34:22.002Z</time></trkpt><trkpt lat="45.639227" lon="10.9650935"><ele>947.0</ele><time>2026-04-06T10:34:23.002Z</time></trkpt><trkpt lat="45.6392588" lon="10.9649443"><ele>947.0</ele><time>2026-04-06T10:34:24.002Z</time></trkpt><trkpt lat="45.639272" lon="10.9647679"><ele>947.0</ele><time>2026-04-06T10:34:25.003Z</time></trkpt><trkpt lat="45.6392802" lon="10.9645824"><ele>948.6</ele><time>2026-04-06T10:34:26.003Z</time></trkpt><trkpt lat="45.6392907" lon="10.9644199"><ele>950.2</ele><time>2026-04-06T10:34:27.003Z</time></trkpt><trkpt lat="45.6393078" lon="10.9642581"><ele>951.8</ele><time>2026-04-06T10:34:28.002Z</time></trkpt><trkpt lat="45.6393419" lon="10.9641097"><ele>953.4</ele><time>2026-04-06T10:34:29.002Z</time></trkpt><trkpt lat="45.639396" lon="10.9639807"><ele>955.0</ele><time>2026-04-06T10:34:30.003Z</time></trkpt><trkpt lat="45.6394689" lon="10.963874"><ele>957.25</ele><time>2026-04-06T10:34:31.002Z</time></trkpt><trkpt lat="45.6395562" lon="10.9638032"><ele>959.5</ele><time>2026-04-06T10:34:32.003Z</time></trkpt><trkpt lat="45.6396596" lon="10.9637701"><ele>961.75</ele><time>2026-04-06T10:34:33.002Z</time></trkpt><trkpt lat="45.6397739" lon="10.9637738"><ele>964.0</ele><time>2026-04-06T10:34:34.003Z</time></trkpt><trkpt lat="45.639904" lon="10.9638132"><ele>964.0</ele><time>2026-04-06T10:34:35.003Z</time></trkpt><trkpt lat="45.6400518" lon="10.9638814"><ele>964.0</ele><time>2026-04-06T10:34:36.002Z</time></trkpt><trkpt lat="45.6402225" lon="10.9639622"><ele>964.0</ele><time>2026-04-06T10:34:37.003Z</time></trkpt><trkpt lat="45.6404008" lon="10.9640437"><ele>964.6666666666666</ele><time>2026-04-06T10:34:38.003Z</time></trkpt><trkpt lat="45.6405746" lon="10.9641223"><ele>965.3333333333333</ele><time>2026-04-06T10:34:39.002Z</time></trkpt><trkpt lat="45.640754" lon="10.96421"><ele>966.0</ele><time>2026-04-06T10:34:40.003Z</time></trkpt><trkpt lat="45.6409146" lon="10.9642962"><ele>971.3333333333333</ele><time>2026-04-06T10:34:41.002Z</time></trkpt><trkpt lat="45.6410633" lon="10.9643761"><ele>976.6666666666666</ele><time>2026-04-06T10:34:42.002Z</time></trkpt><trkpt lat="45.6412039" lon="10.9644409"><ele>982.0</ele><time>2026-04-06T10:34:43.002Z</time></trkpt><trkpt lat="45.6413455" lon="10.9644889"><ele>984.0</ele><time>2026-04-06T10:34:44.002Z</time></trkpt><trkpt lat="45.6414874" lon="10.9645236"><ele>986.0</ele><time>2026-04-06T10:34:45.002Z</time></trkpt><trkpt lat="45.6416321" lon="10.9645442"><ele>988.0</ele><time>2026-04-06T10:34:46.003Z</time></trkpt><trkpt lat="45.6417825" lon="10.9645567"><ele>990.0</ele><time>2026-04-06T10:34:47.003Z</time></trkpt><trkpt lat="45.6419309" lon="10.9645664"><ele>992.3333333333333</ele><time>2026-04-06T10:34:48.003Z</time></trkpt><trkpt lat="45.6420781" lon="10.9645745"><ele>994.6666666666666</ele><time>2026-04-06T10:34:49.002Z</time></trkpt><trkpt lat="45.64223" lon="10.964579"><ele>997.0</ele><time>2026-04-06T10:34:50.002Z</time></trkpt><trkpt lat="45.6423962" lon="10.9645777"><ele>997.0</ele><time>2026-04-06T10:34:51.003Z</time></trkpt><trkpt lat="45.6425732" lon="10.9645805"><ele>997.0</ele><time>2026-04-06T10:34:52.003Z</time></trkpt><trkpt lat="45.6427713" lon="10.9645906"><ele>997.0</ele><time>2026-04-06T10:34:53.002Z</time></trkpt><trkpt lat="45.6429812" lon="10.9646025"><ele>999.0</ele><time>2026-04-06T10:34:54.003Z</time></trkpt><trkpt lat="45.6431838" lon="10.9646167"><ele>1001.0</ele><time>2026-04-06T10:34:55.002Z</time></trkpt><trkpt lat="45.6433863" lon="10.964631"><ele>1003.0</ele><time>2026-04-06T10:34:56.002Z</time></trkpt><trkpt lat="45.643582" lon="10.9646441"><ele>1006.0</ele><time>2026-04-06T10:34:57.002Z</time></trkpt><trkpt lat="45.6437756" lon="10.9646613"><ele>1009.0</ele><time>2026-04-06T10:34:58.002Z</time></trkpt><trkpt lat="45.6439676" lon="10.9646705"><ele>1012.0</ele><time>2026-04-06T10:34:59.003Z</time></trkpt><trkpt lat="45.6441521" lon="10.9646669"><ele>1012.0</ele><time>2026-04-06T10:35:00.002Z</time></trkpt><trkpt lat="45.6443214" lon="10.9646515"><ele>1012.0</ele><time>2026-04-06T10:35:01.002Z</time></trkpt><trkpt lat="45.6444803" lon="10.9646073"><ele>1012.0</ele><time>2026-04-06T10:35:02.003Z</time></trkpt><trkpt lat="45.644632" lon="10.9645442"><ele>1016.0</ele><time>2026-04-06T10:35:03.003Z</time></trkpt><trkpt lat="45.6447793" lon="10.9644653"><ele>1020.0</ele><time>2026-04-06T10:35:04.002Z</time></trkpt><trkpt lat="45.644914" lon="10.9643555"><ele>1024.0</ele><time>2026-04-06T10:35:05.002Z</time></trkpt><trkpt lat="45.6450401" lon="10.9642211"><ele>1024.0</ele><time>2026-04-06T10:35:06.002Z</time></trkpt><trkpt lat="45.6451528" lon="10.9640622"><ele>1024.0</ele><time>2026-04-06T10:35:07.003Z</time></trkpt><trkpt lat="45.645238" lon="10.963889"><ele>1024.0</ele><time>2026-04-06T10:35:08.002Z</time></trkpt><trkpt lat="45.6453005" lon="10.9637251"><ele>1024.0</ele><time>2026-04-06T10:35:09.003Z</time></trkpt><trkpt lat="45.6453534" lon="10.9635892"><ele>1024.0</ele><time>2026-04-06T10:35:10.002Z</time></trkpt><trkpt lat="45.6454034" lon="10.9634675"><ele>1024.0</ele><time>2026-04-06T10:35:11.003Z</time></trkpt><trkpt lat="45.6454679" lon="10.9633549"><ele>1024.0</ele><time>2026-04-06T10:35:12.003Z</time></trkpt><trkpt lat="45.6455465" lon="10.9632744"><ele>1024.0</ele><time>2026-04-06T10:35:13.003Z</time></trkpt><trkpt lat="45.6456396" lon="10.963218"><ele>1024.0</ele><time>2026-04-06T10:35:14.003Z</time></trkpt><trkpt lat="45.6457384" lon="10.9631879"><ele>1024.6000000000001</ele><time>2026-04-06T10:35:15.003Z</time></trkpt><trkpt lat="45.6458408" lon="10.9631932"><ele>1025.2</ele><time>2026-04-06T10:35:16.003Z</time></trkpt><trkpt lat="45.6459467" lon="10.9632249"><ele>1025.8000000000002</ele><time>2026-04-06T10:35:17.003Z</time></trkpt><trkpt lat="45.6460547" lon="10.9632791"><ele>1026.4</ele><time>2026-04-06T10:35:18.002Z</time></trkpt><trkpt lat="45.6461659" lon="10.9633437"><ele>1027.0</ele><time>2026-04-06T10:35:19.002Z</time></trkpt><trkpt lat="45.64629" lon="10.96341"><ele>1027.0</ele><time>2026-04-06T10:35:20.002Z</time></trkpt><trkpt lat="45.6464282" lon="10.9634859"><ele>1027.0</ele><time>2026-04-06T10:35:21.003Z</time></trkpt><trkpt lat="45.6465571" lon="10.9635673"><ele>1027.0</ele><time>2026-04-06T10:35:22.002Z</time></trkpt><trkpt lat="45.6466707" lon="10.9636653"><ele>1027.0</ele><time>2026-04-06T10:35:23.002Z</time></trkpt><trkpt lat="45.6467712" lon="10.9637937"><ele>1027.0</ele><time>2026-04-06T10:35:24.002Z</time></trkpt><trkpt lat="45.6468468" lon="10.9639463"><ele>1027.0</ele><time>2026-04-06T10:35:25.003Z</time></trkpt><trkpt lat="45.6468989" lon="10.9640967"><ele>1027.0</ele><time>2026-04-06T10:35:26.003Z</time></trkpt><trkpt lat="45.6469349" lon="10.9642414"><ele>1027.0</ele><time>2026-04-06T10:35:27.003Z</time></trkpt><trkpt lat="45.6469704" lon="10.9643848"><ele>1028.2</ele><time>2026-04-06T10:35:28.003Z</time></trkpt><trkpt lat="45.647011" lon="10.9645189"><ele>1029.4</ele><time>2026-04-06T10:35:29.003Z</time></trkpt><trkpt lat="45.6470536" lon="10.9646372"><ele>1030.6</ele><time>2026-04-06T10:35:30.002Z</time></trkpt><trkpt lat="45.6471157" lon="10.9647471"><ele>1031.8</ele><time>2026-04-06T10:35:31.003Z</time></trkpt><trkpt lat="45.6471958" lon="10.9648531"><ele>1033.0</ele><time>2026-04-06T10:35:32.003Z</time></trkpt><trkpt lat="45.647296" lon="10.9649451"><ele>1033.0</ele><time>2026-04-06T10:35:33.002Z</time></trkpt><trkpt lat="45.6474178" lon="10.965035"><ele>1033.0</ele><time>2026-04-06T10:35:34.002Z</time></trkpt><trkpt lat="45.647553" lon="10.9651379"><ele>1033.0</ele><time>2026-04-06T10:35:35.002Z</time></trkpt><trkpt lat="45.6476876" lon="10.9652437"><ele>1033.0</ele><time>2026-04-06T10:35:36.002Z</time></trkpt><trkpt lat="45.6478301" lon="10.9653505"><ele>1033.0</ele><time>2026-04-06T10:35:37.003Z</time></trkpt><trkpt lat="45.6479686" lon="10.9654485"><ele>1033.0</ele><time>2026-04-06T10:35:38.002Z</time></trkpt><trkpt lat="45.6480954" lon="10.9655378"><ele>1033.0</ele><time>2026-04-06T10:35:39.003Z</time></trkpt><trkpt lat="45.6482063" lon="10.965631"><ele>1033.0</ele><time>2026-04-06T10:35:40.002Z</time></trkpt><trkpt lat="45.6483079" lon="10.9657358"><ele>1033.0</ele><time>2026-04-06T10:35:41.002Z</time></trkpt><trkpt lat="45.6483982" lon="10.9658585"><ele>1033.0</ele><time>2026-04-06T10:35:42.002Z</time></trkpt><trkpt lat="45.6484665" lon="10.9659999"><ele>1033.0</ele><time>2026-04-06T10:35:43.002Z</time></trkpt><trkpt lat="45.6485109" lon="10.9661631"><ele>1033.0</ele><time>2026-04-06T10:35:44.003Z</time></trkpt><trkpt lat="45.6485375" lon="10.9663384"><ele>1030.25</ele><time>2026-04-06T10:35:45.002Z</time></trkpt><trkpt lat="45.648547" lon="10.9665261"><ele>1027.5</ele><time>2026-04-06T10:35:46.003Z</time></trkpt><trkpt lat="45.6485447" lon="10.9667033"><ele>1024.75</ele><time>2026-04-06T10:35:47.002Z</time></trkpt><trkpt lat="45.6485431" lon="10.9668728"><ele>1022.0</ele><time>2026-04-06T10:35:48.002Z</time></trkpt><trkpt lat="45.6485575" lon="10.9670407"><ele>1021.4000000000001</ele><time>2026-04-06T10:35:49.002Z</time></trkpt><trkpt lat="45.6485898" lon="10.9671915"><ele>1020.8000000000001</ele><time>2026-04-06T10:35:50.002Z</time></trkpt><trkpt lat="45.6486399" lon="10.9673263"><ele>1020.2</ele><time>2026-04-06T10:35:51.002Z</time></trkpt><trkpt lat="45.64871" lon="10.9674504"><ele>1019.6</ele><time>2026-04-06T10:35:52.003Z</time></trkpt><trkpt lat="45.6488056" lon="10.9675369"><ele>1019.0</ele><time>2026-04-06T10:35:53.003Z</time></trkpt><trkpt lat="45.6489332" lon="10.9675984"><ele>1021.0</ele><time>2026-04-06T10:35:54.002Z</time></trkpt><trkpt lat="45.6490874" lon="10.9676236"><ele>1023.0</ele><time>2026-04-06T10:35:55.003Z</time></trkpt><trkpt lat="45.6492519" lon="10.9676293"><ele>1025.0</ele><time>2026-04-06T10:35:56.003Z</time></trkpt><trkpt lat="45.6494198" lon="10.9676213"><ele>1025.0</ele><time>2026-04-06T10:35:57.002Z</time></trkpt><trkpt lat="45.6495904" lon="10.9676201"><ele>1025.0</ele><time>2026-04-06T10:35:58.002Z</time></trkpt><trkpt lat="45.6497597" lon="10.9676301"><ele>1025.0</ele><time>2026-04-06T10:35:59.003Z</time></trkpt><trkpt lat="45.6499272" lon="10.9676605"><ele>1025.0</ele><time>2026-04-06T10:36:00.003Z</time></trkpt><trkpt lat="45.6500992" lon="10.967698"><ele>1025.0</ele><time>2026-04-06T10:36:01.002Z</time></trkpt><trkpt lat="45.6502715" lon="10.967726"><ele>1025.0</ele><time>2026-04-06T10:36:02.002Z</time></trkpt><trkpt lat="45.6504549" lon="10.9677324"><ele>1026.6666666666667</ele><time>2026-04-06T10:36:03.002Z</time></trkpt><trkpt lat="45.6506359" lon="10.9677188"><ele>1028.3333333333333</ele><time>2026-04-06T10:36:04.002Z</time></trkpt><trkpt lat="45.6508024" lon="10.9676951"><ele>1030.0</ele><time>2026-04-06T10:36:05.002Z</time></trkpt><trkpt lat="45.6509479" lon="10.9676691"><ele>1030.0</ele><time>2026-04-06T10:36:06.003Z</time></trkpt><trkpt lat="45.6510827" lon="10.9676439"><ele>1030.0</ele><time>2026-04-06T10:36:07.002Z</time></trkpt><trkpt lat="45.651204" lon="10.967649"><ele>1030.0</ele><time>2026-04-06T10:36:08.002Z</time></trkpt><trkpt lat="45.6513221" lon="10.96769"><ele>1030.0</ele><time>2026-04-06T10:36:09.003Z</time></trkpt><trkpt lat="45.6514242" lon="10.9677773"><ele>1032.75</ele><time>2026-04-06T10:36:10.002Z</time></trkpt><trkpt lat="45.6515087" lon="10.9679102"><ele>1035.5</ele><time>2026-04-06T10:36:11.002Z</time></trkpt><trkpt lat="45.65157" lon="10.9680843"><ele>1038.25</ele><time>2026-04-06T10:36:12.003Z</time></trkpt><trkpt lat="45.6516143" lon="10.9683068"><ele>1041.0</ele><time>2026-04-06T10:36:13.002Z</time></trkpt><trkpt lat="45.6516472" lon="10.9685582"><ele>1041.0</ele><time>2026-04-06T10:36:14.002Z</time></trkpt><trkpt lat="45.6516725" lon="10.96879"><ele>1041.0</ele><time>2026-04-06T10:36:15.003Z</time></trkpt><trkpt lat="45.6517019" lon="10.9689847"><ele>1041.0</ele><time>2026-04-06T10:36:16.003Z</time></trkpt><trkpt lat="45.651748" lon="10.9691467"><ele>1041.0</ele><time>2026-04-06T10:36:17.003Z</time></trkpt><trkpt lat="45.6518088" lon="10.96927"><ele>1039.25</ele><time>2026-04-06T10:36:18.003Z</time></trkpt><trkpt lat="45.6518934" lon="10.9693615"><ele>1037.5</ele><time>2026-04-06T10:36:19.002Z</time></trkpt><trkpt lat="45.6520095" lon="10.9694233"><ele>1035.75</ele><time>2026-04-06T10:36:20.003Z</time></trkpt><trkpt lat="45.652155" lon="10.9694599"><ele>1034.0</ele><time>2026-04-06T10:36:21.003Z</time></trkpt><trkpt lat="45.6523272" lon="10.9694836"><ele>1034.0</ele><time>2026-04-06T10:36:22.002Z</time></trkpt><trkpt lat="45.6525054" lon="10.9695056"><ele>1034.0</ele><time>2026-04-06T10:36:23.002Z</time></trkpt><trkpt lat="45.6526902" lon="10.9695283"><ele>1034.0</ele><time>2026-04-06T10:36:24.002Z</time></trkpt><trkpt lat="45.6528795" lon="10.9695453"><ele>1033.6666666666667</ele><time>2026-04-06T10:36:25.002Z</time></trkpt><trkpt lat="45.6530678" lon="10.9695259"><ele>1033.3333333333333</ele><time>2026-04-06T10:36:26.002Z</time></trkpt><trkpt lat="45.6532553" lon="10.969477"><ele>1033.0</ele><time>2026-04-06T10:36:27.002Z</time></trkpt><trkpt lat="45.653439" lon="10.9693928"><ele>1033.0</ele><time>2026-04-06T10:36:28.002Z</time></trkpt><trkpt lat="45.6536086" lon="10.9692988"><ele>1033.0</ele><time>2026-04-06T10:36:29.003Z</time></trkpt><trkpt lat="45.6537636" lon="10.9692112"><ele>1033.0</ele><time>2026-04-06T10:36:30.003Z</time></trkpt><trkpt lat="45.6539065" lon="10.9691327"><ele>1035.0</ele><time>2026-04-06T10:36:31.002Z</time></trkpt><trkpt lat="45.6540324" lon="10.9690715"><ele>1037.0</ele><time>2026-04-06T10:36:32.002Z</time></trkpt><trkpt lat="45.6541528" lon="10.9690551"><ele>1039.0</ele><time>2026-04-06T10:36:33.003Z</time></trkpt><trkpt lat="45.6542776" lon="10.9690784"><ele>1041.0</ele><time>2026-04-06T10:36:34.003Z</time></trkpt><trkpt lat="45.6543877" lon="10.969153"><ele>1040.5</ele><time>2026-04-06T10:36:35.002Z</time></trkpt><trkpt lat="45.6544801" lon="10.9692818"><ele>1040.0</ele><time>2026-04-06T10:36:36.002Z</time></trkpt><trkpt lat="45.6545568" lon="10.969452"><ele>1039.5</ele><time>2026-04-06T10:36:37.002Z</time></trkpt><trkpt lat="45.6546354" lon="10.9696168"><ele>1039.0</ele><time>2026-04-06T10:36:38.003Z</time></trkpt><trkpt lat="45.6547427" lon="10.9697727"><ele>1039.0</ele><time>2026-04-06T10:36:39.003Z</time></trkpt><trkpt lat="45.6548675" lon="10.9699164"><ele>1039.0</ele><time>2026-04-06T10:36:40.003Z</time></trkpt><trkpt lat="45.6549746" lon="10.9700346"><ele>1039.0</ele><time>2026-04-06T10:36:41.002Z</time></trkpt><trkpt lat="45.6550646" lon="10.9701393"><ele>1039.0</ele><time>2026-04-06T10:36:42.002Z</time></trkpt><trkpt lat="45.6551293" lon="10.9702504"><ele>1038.4</ele><time>2026-04-06T10:36:43.003Z</time></trkpt><trkpt lat="45.655168" lon="10.9703611"><ele>1037.8000000000002</ele><time>2026-04-06T10:36:44.002Z</time></trkpt><trkpt lat="45.6551685" lon="10.9704936"><ele>1037.1999999999998</ele><time>2026-04-06T10:36:45.002Z</time></trkpt><trkpt lat="45.6551314" lon="10.9706225"><ele>1036.6</ele><time>2026-04-06T10:36:46.002Z</time></trkpt><trkpt lat="45.6550507" lon="10.9707438"><ele>1036.0</ele><time>2026-04-06T10:36:47.003Z</time></trkpt><trkpt lat="45.6549393" lon="10.9708421"><ele>1036.75</ele><time>2026-04-06T10:36:48.002Z</time></trkpt><trkpt lat="45.6548125" lon="10.9709432"><ele>1037.5</ele><time>2026-04-06T10:36:49.003Z</time></trkpt><trkpt lat="45.6546946" lon="10.9710419"><ele>1038.25</ele><time>2026-04-06T10:36:50.003Z</time></trkpt><trkpt lat="45.6546005" lon="10.9711634"><ele>1039.0</ele><time>2026-04-06T10:36:51.003Z</time></trkpt><trkpt lat="45.6545145" lon="10.9713311"><ele>1036.0</ele><time>2026-04-06T10:36:52.002Z</time></trkpt><trkpt lat="45.6544482" lon="10.9715063"><ele>1033.0</ele><time>2026-04-06T10:36:53.002Z</time></trkpt><trkpt lat="45.6543988" lon="10.9716721"><ele>1030.0</ele><time>2026-04-06T10:36:54.003Z</time></trkpt><trkpt lat="45.6543946" lon="10.9718098"><ele>1027.0</ele><time>2026-04-06T10:36:55.003Z</time></trkpt><trkpt lat="45.654411" lon="10.9719577"><ele>1027.75</ele><time>2026-04-06T10:36:56.002Z</time></trkpt><trkpt lat="45.6544632" lon="10.9720776"><ele>1028.5</ele><time>2026-04-06T10:36:57.002Z</time></trkpt><trkpt lat="45.6545312" lon="10.9721726"><ele>1029.25</ele><time>2026-04-06T10:36:58.002Z</time></trkpt><trkpt lat="45.6546362" lon="10.9722417"><ele>1030.0</ele><time>2026-04-06T10:36:59.002Z</time></trkpt><trkpt lat="45.6547799" lon="10.9722891"><ele>1030.0</ele><time>2026-04-06T10:37:00.002Z</time></trkpt><trkpt lat="45.6549348" lon="10.9723275"><ele>1030.0</ele><time>2026-04-06T10:37:01.003Z</time></trkpt><trkpt lat="45.655077" lon="10.9723743"><ele>1030.0</ele><time>2026-04-06T10:37:02.003Z</time></trkpt><trkpt lat="45.655199" lon="10.9724312"><ele>1030.0</ele><time>2026-04-06T10:37:03.003Z</time></trkpt><trkpt lat="45.6552908" lon="10.9725189"><ele>1032.0</ele><time>2026-04-06T10:37:04.003Z</time></trkpt><trkpt lat="45.6553574" lon="10.9726287"><ele>1034.0</ele><time>2026-04-06T10:37:05.002Z</time></trkpt><trkpt lat="45.6554032" lon="10.9727742"><ele>1036.0</ele><time>2026-04-06T10:37:06.002Z</time></trkpt><trkpt lat="45.6554132" lon="10.9729545"><ele>1038.0</ele><time>2026-04-06T10:37:07.003Z</time></trkpt><trkpt lat="45.6554047" lon="10.973174"><ele>1040.3333333333333</ele><time>2026-04-06T10:37:08.002Z</time></trkpt><trkpt lat="45.6553845" lon="10.9734302"><ele>1042.6666666666665</ele><time>2026-04-06T10:37:09.003Z</time></trkpt><trkpt lat="45.6553635" lon="10.97369"><ele>1045.0</ele><time>2026-04-06T10:37:10.002Z</time></trkpt><trkpt lat="45.6553537" lon="10.9739507"><ele>1045.0</ele><time>2026-04-06T10:37:11.002Z</time></trkpt><trkpt lat="45.65534" lon="10.9741807"><ele>1045.0</ele><time>2026-04-06T10:37:12.002Z</time></trkpt><trkpt lat="45.6553183" lon="10.9743926"><ele>1045.0</ele><time>2026-04-06T10:37:13.003Z</time></trkpt><trkpt lat="45.6552802" lon="10.9745842"><ele>1042.75</ele><time>2026-04-06T10:37:14.002Z</time></trkpt><trkpt lat="45.6552221" lon="10.9747466"><ele>1040.5</ele><time>2026-04-06T10:37:15.002Z</time></trkpt><trkpt lat="45.6551375" lon="10.974877"><ele>1038.25</ele><time>2026-04-06T10:37:16.003Z</time></trkpt><trkpt lat="45.6550301" lon="10.9749909"><ele>1036.0</ele><time>2026-04-06T10:37:17.003Z</time></trkpt><trkpt lat="45.6549" lon="10.9750912"><ele>1043.0</ele><time>2026-04-06T10:37:18.003Z</time></trkpt><trkpt lat="45.6547605" lon="10.9752037"><ele>1050.0</ele><time>2026-04-06T10:37:19.003Z</time></trkpt><trkpt lat="45.6546221" lon="10.9753299"><ele>1057.0</ele><time>2026-04-06T10:37:20.002Z</time></trkpt><trkpt lat="45.6544835" lon="10.9754857"><ele>1050.3333333333333</ele><time>2026-04-06T10:37:21.002Z</time></trkpt><trkpt lat="45.6543498" lon="10.9756616"><ele>1043.6666666666667</ele><time>2026-04-06T10:37:22.002Z</time></trkpt><trkpt lat="45.6542293" lon="10.9758225"><ele>1037.0</ele><time>2026-04-06T10:37:23.003Z</time></trkpt><trkpt lat="45.6541168" lon="10.9759752"><ele>1037.0</ele><time>2026-04-06T10:37:24.003Z</time></trkpt><trkpt lat="45.6540398" lon="10.9760947"><ele>1037.0</ele><time>2026-04-06T10:37:25.002Z</time></trkpt><trkpt lat="45.6540106" lon="10.9761992"><ele>1037.0</ele><time>2026-04-06T10:37:26.003Z</time></trkpt><trkpt lat="45.6539843" lon="10.9763054"><ele>1037.0</ele><time>2026-04-06T10:37:27.003Z</time></trkpt><trkpt lat="45.6539946" lon="10.9764135"><ele>1037.0</ele><time>2026-04-06T10:37:28.003Z</time></trkpt><trkpt lat="45.6540469" lon="10.976522"><ele>1037.0</ele><time>2026-04-06T10:37:29.002Z</time></trkpt><trkpt lat="45.6541247" lon="10.9766333"><ele>1040.75</ele><time>2026-04-06T10:37:30.003Z</time></trkpt><trkpt lat="45.6542227" lon="10.9767545"><ele>1044.5</ele><time>2026-04-06T10:37:31.002Z</time></trkpt><trkpt lat="45.6543179" lon="10.9769148"><ele>1048.25</ele><time>2026-04-06T10:37:32.003Z</time></trkpt><trkpt lat="45.6544064" lon="10.977098"><ele>1052.0</ele><time>2026-04-06T10:37:33.003Z</time></trkpt><trkpt lat="45.654503" lon="10.9772796"><ele>1052.0</ele><time>2026-04-06T10:37:34.002Z</time></trkpt><trkpt lat="45.6546181" lon="10.9774523"><ele>1052.0</ele><time>2026-04-06T10:37:35.002Z</time></trkpt><trkpt lat="45.6547534" lon="10.9776096"><ele>1052.0</ele><time>2026-04-06T10:37:36.003Z</time></trkpt><trkpt lat="45.6548847" lon="10.9777491"><ele>1048.3333333333335</ele><time>2026-04-06T10:37:37.002Z</time></trkpt><trkpt lat="45.655019" lon="10.9778826"><ele>1044.6666666666667</ele><time>2026-04-06T10:37:38.002Z</time></trkpt><trkpt lat="45.6551567" lon="10.9780026"><ele>1041.0</ele><time>2026-04-06T10:37:39.002Z</time></trkpt><trkpt lat="45.6553062" lon="10.9781114"><ele>1041.0</ele><time>2026-04-06T10:37:40.003Z</time></trkpt><trkpt lat="45.6554544" lon="10.9782171"><ele>1041.0</ele><time>2026-04-06T10:37:41.003Z</time></trkpt><trkpt lat="45.6556172" lon="10.9782881"><ele>1041.0</ele><time>2026-04-06T10:37:42.003Z</time></trkpt><trkpt lat="45.6557593" lon="10.9783677"><ele>1045.0</ele><time>2026-04-06T10:37:43.003Z</time></trkpt><trkpt lat="45.6558933" lon="10.9784471"><ele>1049.0</ele><time>2026-04-06T10:37:44.002Z</time></trkpt><trkpt lat="45.6560143" lon="10.97853"><ele>1053.0</ele><time>2026-04-06T10:37:45.002Z</time></trkpt><trkpt lat="45.6561136" lon="10.9786267"><ele>1057.0</ele><time>2026-04-06T10:37:46.003Z</time></trkpt><trkpt lat="45.656206" lon="10.9787484"><ele>1057.0</ele><time>2026-04-06T10:37:47.002Z</time></trkpt><trkpt lat="45.6562878" lon="10.9788981"><ele>1057.0</ele><time>2026-04-06T10:37:48.003Z</time></trkpt><trkpt lat="45.6563615" lon="10.9790788"><ele>1057.0</ele><time>2026-04-06T10:37:49.002Z</time></trkpt><trkpt lat="45.6564306" lon="10.9792753"><ele>1057.0</ele><time>2026-04-06T10:37:50.003Z</time></trkpt><trkpt lat="45.6565076" lon="10.9794844"><ele>1049.3333333333333</ele><time>2026-04-06T10:37:51.002Z</time></trkpt><trkpt lat="45.6566102" lon="10.9797007"><ele>1041.6666666666667</ele><time>2026-04-06T10:37:52.003Z</time></trkpt><trkpt lat="45.6567348" lon="10.9799261"><ele>1034.0</ele><time>2026-04-06T10:37:53.002Z</time></trkpt><trkpt lat="45.6568576" lon="10.9801442"><ele>1044.6666666666667</ele><time>2026-04-06T10:37:54.003Z</time></trkpt><trkpt lat="45.6569629" lon="10.9803644"><ele>1055.3333333333333</ele><time>2026-04-06T10:37:55.002Z</time></trkpt><trkpt lat="45.6570676" lon="10.9805709"><ele>1066.0</ele><time>2026-04-06T10:37:56.003Z</time></trkpt><trkpt lat="45.6571842" lon="10.9807491"><ele>1055.3333333333333</ele><time>2026-04-06T10:37:57.002Z</time></trkpt><trkpt lat="45.6573248" lon="10.9809114"><ele>1044.6666666666667</ele><time>2026-04-06T10:37:58.002Z</time></trkpt><trkpt lat="45.6574598" lon="10.9810578"><ele>1034.0</ele><time>2026-04-06T10:37:59.002Z</time></trkpt><trkpt lat="45.6575759" lon="10.9812158"><ele>1034.0</ele><time>2026-04-06T10:38:00.003Z</time></trkpt><trkpt lat="45.6576675" lon="10.9813985"><ele>1034.0</ele><time>2026-04-06T10:38:01.003Z</time></trkpt><trkpt lat="45.6577481" lon="10.9816162"><ele>1034.0</ele><time>2026-04-06T10:38:02.002Z</time></trkpt><trkpt lat="45.6578169" lon="10.9818162"><ele>1043.75</ele><time>2026-04-06T10:38:03.003Z</time></trkpt><trkpt lat="45.6578796" lon="10.9820026"><ele>1053.5</ele><time>2026-04-06T10:38:04.002Z</time></trkpt><trkpt lat="45.6579394" lon="10.982181"><ele>1063.25</ele><time>2026-04-06T10:38:05.003Z</time></trkpt><trkpt lat="45.6579997" lon="10.9823472"><ele>1073.0</ele><time>2026-04-06T10:38:06.003Z</time></trkpt><trkpt lat="45.6580566" lon="10.9825049"><ele>1071.6</ele><time>2026-04-06T10:38:07.002Z</time></trkpt><trkpt lat="45.6581132" lon="10.9826513"><ele>1070.1999999999998</ele><time>2026-04-06T10:38:08.003Z</time></trkpt><trkpt lat="45.6581641" lon="10.9827777"><ele>1068.8</ele><time>2026-04-06T10:38:09.003Z</time></trkpt><trkpt lat="45.6582057" lon="10.9828955"><ele>1067.3999999999999</ele><time>2026-04-06T10:38:10.003Z</time></trkpt><trkpt lat="45.6582258" lon="10.9830093"><ele>1066.0</ele><time>2026-04-06T10:38:11.002Z</time></trkpt><trkpt lat="45.6582275" lon="10.983113"><ele>1066.0</ele><time>2026-04-06T10:38:12.003Z</time></trkpt><trkpt lat="45.6581552" lon="10.9832496"><ele>1066.0</ele><time>2026-04-06T10:38:14.003Z</time></trkpt><trkpt lat="45.6580935" lon="10.9832864"><ele>1066.0</ele><time>2026-04-06T10:38:15.002Z</time></trkpt><trkpt lat="45.6580028" lon="10.9832768"><ele>1066.0</ele><time>2026-04-06T10:38:16.002Z</time></trkpt><trkpt lat="45.6579007" lon="10.9832287"><ele>1066.0</ele><time>2026-04-06T10:38:17.002Z</time></trkpt><trkpt lat="45.6577965" lon="10.9831553"><ele>1065.5</ele><time>2026-04-06T10:38:18.002Z</time></trkpt><trkpt lat="45.6576894" lon="10.9830469"><ele>1065.0</ele><time>2026-04-06T10:38:19.002Z</time></trkpt><trkpt lat="45.6575609" lon="10.9829215"><ele>1064.5</ele><time>2026-04-06T10:38:20.002Z</time></trkpt><trkpt lat="45.657435" lon="10.9827902"><ele>1064.0</ele><time>2026-04-06T10:38:21.002Z</time></trkpt><trkpt lat="45.6573271" lon="10.9826593"><ele>1064.0</ele><time>2026-04-06T10:38:22.003Z</time></trkpt><trkpt lat="45.6572349" lon="10.9825189"><ele>1064.0</ele><time>2026-04-06T10:38:23.003Z</time></trkpt><trkpt lat="45.6571499" lon="10.9823703"><ele>1064.0</ele><time>2026-04-06T10:38:24.002Z</time></trkpt><trkpt lat="45.6570572" lon="10.9822436"><ele>1064.0</ele><time>2026-04-06T10:38:25.003Z</time></trkpt><trkpt lat="45.6569371" lon="10.982128"><ele>1064.3333333333335</ele><time>2026-04-06T10:38:26.002Z</time></trkpt><trkpt lat="45.6567926" lon="10.9820157"><ele>1064.6666666666667</ele><time>2026-04-06T10:38:27.003Z</time></trkpt><trkpt lat="45.6566441" lon="10.9819056"><ele>1065.0</ele><time>2026-04-06T10:38:28.003Z</time></trkpt><trkpt lat="45.6564775" lon="10.9817798"><ele>1060.6666666666667</ele><time>2026-04-06T10:38:29.002Z</time></trkpt><trkpt lat="45.6563169" lon="10.9816563"><ele>1056.3333333333335</ele><time>2026-04-06T10:38:30.002Z</time></trkpt><trkpt lat="45.6561712" lon="10.9815447"><ele>1052.0</ele><time>2026-04-06T10:38:31.003Z</time></trkpt><trkpt lat="45.65604" lon="10.9814518"><ele>1052.0</ele><time>2026-04-06T10:38:32.003Z</time></trkpt><trkpt lat="45.6559106" lon="10.9813696"><ele>1052.0</ele><time>2026-04-06T10:38:33.002Z</time></trkpt><trkpt lat="45.6557655" lon="10.9813075"><ele>1052.0</ele><time>2026-04-06T10:38:34.002Z</time></trkpt><trkpt lat="45.6556015" lon="10.9812775"><ele>1052.0</ele><time>2026-04-06T10:38:35.002Z</time></trkpt><trkpt lat="45.6554184" lon="10.9812613"><ele>1052.0</ele><time>2026-04-06T10:38:36.002Z</time></trkpt><trkpt lat="45.6552167" lon="10.9812467"><ele>1052.0</ele><time>2026-04-06T10:38:37.002Z</time></trkpt><trkpt lat="45.6550178" lon="10.9812217"><ele>1060.0</ele><time>2026-04-06T10:38:38.003Z</time></trkpt><trkpt lat="45.6548077" lon="10.9811732"><ele>1068.0</ele><time>2026-04-06T10:38:39.003Z</time></trkpt><trkpt lat="45.6546084" lon="10.9811075"><ele>1076.0</ele><time>2026-04-06T10:38:40.003Z</time></trkpt><trkpt lat="45.6544174" lon="10.9810316"><ele>1080.6666666666667</ele><time>2026-04-06T10:38:41.003Z</time></trkpt><trkpt lat="45.6542297" lon="10.9809494"><ele>1085.3333333333333</ele><time>2026-04-06T10:38:42.003Z</time></trkpt><trkpt lat="45.6540445" lon="10.9808548"><ele>1090.0</ele><time>2026-04-06T10:38:43.003Z</time></trkpt><trkpt lat="45.6538608" lon="10.9807442"><ele>1080.3333333333333</ele><time>2026-04-06T10:38:44.002Z</time></trkpt><trkpt lat="45.6537005" lon="10.9806386"><ele>1070.6666666666667</ele><time>2026-04-06T10:38:45.003Z</time></trkpt><trkpt lat="45.6535621" lon="10.9805472"><ele>1061.0</ele><time>2026-04-06T10:38:46.002Z</time></trkpt><trkpt lat="45.6534459" lon="10.9804768"><ele>1061.0</ele><time>2026-04-06T10:38:47.003Z</time></trkpt><trkpt lat="45.6533569" lon="10.9804301"><ele>1061.0</ele><time>2026-04-06T10:38:48.002Z</time></trkpt><trkpt lat="45.6532822" lon="10.9804138"><ele>1061.0</ele><time>2026-04-06T10:38:49.002Z</time></trkpt><trkpt lat="45.6531695" lon="10.9804959"><ele>1061.0</ele><time>2026-04-06T10:38:51.003Z</time></trkpt><trkpt lat="45.6531386" lon="10.98059"><ele>1061.0</ele><time>2026-04-06T10:38:52.002Z</time></trkpt><trkpt lat="45.6531234" lon="10.9807168"><ele>1065.0</ele><time>2026-04-06T10:38:53.003Z</time></trkpt><trkpt lat="45.6531023" lon="10.9808724"><ele>1069.0</ele><time>2026-04-06T10:38:54.003Z</time></trkpt><trkpt lat="45.6530524" lon="10.9810481"><ele>1073.0</ele><time>2026-04-06T10:38:55.002Z</time></trkpt><trkpt lat="45.6529802" lon="10.9812479"><ele>1077.0</ele><time>2026-04-06T10:38:56.002Z</time></trkpt><trkpt lat="45.6528935" lon="10.9814773"><ele>1074.3333333333333</ele><time>2026-04-06T10:38:57.002Z</time></trkpt><trkpt lat="45.6528085" lon="10.9816973"><ele>1071.6666666666665</ele><time>2026-04-06T10:38:58.003Z</time></trkpt><trkpt lat="45.6527151" lon="10.9819368"><ele>1069.0</ele><time>2026-04-06T10:38:59.003Z</time></trkpt><trkpt lat="45.6526215" lon="10.9821504"><ele>1069.0</ele><time>2026-04-06T10:39:00.003Z</time></trkpt><trkpt lat="45.652513" lon="10.9823496"><ele>1069.0</ele><time>2026-04-06T10:39:01.002Z</time></trkpt><trkpt lat="45.6523955" lon="10.9825274"><ele>1069.0</ele><time>2026-04-06T10:39:02.002Z</time></trkpt><trkpt lat="45.6522882" lon="10.9826784"><ele>1069.4</ele><time>2026-04-06T10:39:03.002Z</time></trkpt><trkpt lat="45.6522002" lon="10.9828031"><ele>1069.8000000000002</ele><time>2026-04-06T10:39:04.002Z</time></trkpt><trkpt lat="45.6521235" lon="10.9828997"><ele>1070.1999999999998</ele><time>2026-04-06T10:39:05.002Z</time></trkpt><trkpt lat="45.6520409" lon="10.98297"><ele>1070.6</ele><time>2026-04-06T10:39:06.002Z</time></trkpt><trkpt lat="45.6519536" lon="10.982998"><ele>1071.0</ele><time>2026-04-06T10:39:07.003Z</time></trkpt><trkpt lat="45.6518646" lon="10.9829829"><ele>1071.0</ele><time>2026-04-06T10:39:08.003Z</time></trkpt><trkpt lat="45.6517866" lon="10.9829163"><ele>1071.0</ele><time>2026-04-06T10:39:09.002Z</time></trkpt><trkpt lat="45.651732" lon="10.9828085"><ele>1071.0</ele><time>2026-04-06T10:39:10.002Z</time></trkpt><trkpt lat="45.6516971" lon="10.9826641"><ele>1071.0</ele><time>2026-04-06T10:39:11.002Z</time></trkpt><trkpt lat="45.651667" lon="10.9824856"><ele>1071.0</ele><time>2026-04-06T10:39:12.002Z</time></trkpt><trkpt lat="45.6516314" lon="10.9823017"><ele>1071.2</ele><time>2026-04-06T10:39:13.002Z</time></trkpt><trkpt lat="45.6515934" lon="10.9821552"><ele>1071.3999999999999</ele><time>2026-04-06T10:39:14.003Z</time></trkpt><trkpt lat="45.6515392" lon="10.9820457"><ele>1071.6</ele><time>2026-04-06T10:39:15.003Z</time></trkpt><trkpt lat="45.6514661" lon="10.981965"><ele>1071.8</ele><time>2026-04-06T10:39:16.003Z</time></trkpt><trkpt lat="45.6513795" lon="10.9819247"><ele>1072.0</ele><time>2026-04-06T10:39:17.002Z</time></trkpt><trkpt lat="45.6512902" lon="10.9819329"><ele>1072.0</ele><time>2026-04-06T10:39:18.002Z</time></trkpt><trkpt lat="45.651192" lon="10.9819832"><ele>1072.0</ele><time>2026-04-06T10:39:19.003Z</time></trkpt><trkpt lat="45.6510795" lon="10.9820641"><ele>1072.0</ele><time>2026-04-06T10:39:20.003Z</time></trkpt><trkpt lat="45.6509477" lon="10.9821612"><ele>1072.0</ele><time>2026-04-06T10:39:21.003Z</time></trkpt><trkpt lat="45.6507944" lon="10.9822793"><ele>1074.25</ele><time>2026-04-06T10:39:22.002Z</time></trkpt><trkpt lat="45.6506589" lon="10.9823887"><ele>1076.5</ele><time>2026-04-06T10:39:23.003Z</time></trkpt><trkpt lat="45.650533" lon="10.9824888"><ele>1078.75</ele><time>2026-04-06T10:39:24.003Z</time></trkpt><trkpt lat="45.6504157" lon="10.9825843"><ele>1081.0</ele><time>2026-04-06T10:39:25.003Z</time></trkpt><trkpt lat="45.650295" lon="10.9826777"><ele>1081.75</ele><time>2026-04-06T10:39:26.002Z</time></trkpt><trkpt lat="45.6501694" lon="10.9827739"><ele>1082.5</ele><time>2026-04-06T10:39:27.002Z</time></trkpt><trkpt lat="45.6500572" lon="10.9828707"><ele>1083.25</ele><time>2026-04-06T10:39:28.003Z</time></trkpt><trkpt lat="45.6499636" lon="10.9829714"><ele>1084.0</ele><time>2026-04-06T10:39:29.003Z</time></trkpt><trkpt lat="45.6498876" lon="10.9830883"><ele>1084.0</ele><time>2026-04-06T10:39:30.002Z</time></trkpt><trkpt lat="45.6498377" lon="10.9832269"><ele>1084.0</ele><time>2026-04-06T10:39:31.002Z</time></trkpt><trkpt lat="45.6498081" lon="10.9833921"><ele>1084.0</ele><time>2026-04-06T10:39:32.002Z</time></trkpt><trkpt lat="45.6497961" lon="10.9835683"><ele>1084.0</ele><time>2026-04-06T10:39:33.003Z</time></trkpt><trkpt lat="45.6497947" lon="10.9837416"><ele>1085.3333333333333</ele><time>2026-04-06T10:39:34.002Z</time></trkpt><trkpt lat="45.6498034" lon="10.9839482"><ele>1086.6666666666667</ele><time>2026-04-06T10:39:35.002Z</time></trkpt><trkpt lat="45.6498139" lon="10.9841836"><ele>1088.0</ele><time>2026-04-06T10:39:36.003Z</time></trkpt><trkpt lat="45.6498248" lon="10.9843892"><ele>1088.0</ele><time>2026-04-06T10:39:37.002Z</time></trkpt><trkpt lat="45.649844" lon="10.9845862"><ele>1088.0</ele><time>2026-04-06T10:39:38.002Z</time></trkpt><trkpt lat="45.6498688" lon="10.9847639"><ele>1088.0</ele><time>2026-04-06T10:39:39.002Z</time></trkpt><trkpt lat="45.6499175" lon="10.9849092"><ele>1088.0</ele><time>2026-04-06T10:39:40.003Z</time></trkpt><trkpt lat="45.6499874" lon="10.9850436"><ele>1086.3333333333335</ele><time>2026-04-06T10:39:41.003Z</time></trkpt><trkpt lat="45.6500856" lon="10.9851686"><ele>1084.6666666666667</ele><time>2026-04-06T10:39:42.003Z</time></trkpt><trkpt lat="45.6502118" lon="10.9852929"><ele>1083.0</ele><time>2026-04-06T10:39:43.003Z</time></trkpt><trkpt lat="45.650356" lon="10.9854174"><ele>1086.6666666666667</ele><time>2026-04-06T10:39:44.002Z</time></trkpt><trkpt lat="45.6504913" lon="10.9855368"><ele>1090.3333333333335</ele><time>2026-04-06T10:39:45.003Z</time></trkpt><trkpt lat="45.6506283" lon="10.9856564"><ele>1094.0</ele><time>2026-04-06T10:39:46.002Z</time></trkpt><trkpt lat="45.6507518" lon="10.9857678"><ele>1093.75</ele><time>2026-04-06T10:39:47.002Z</time></trkpt><trkpt lat="45.6508664" lon="10.985877"><ele>1093.5</ele><time>2026-04-06T10:39:48.002Z</time></trkpt><trkpt lat="45.6509752" lon="10.9859937"><ele>1093.25</ele><time>2026-04-06T10:39:49.003Z</time></trkpt><trkpt lat="45.6510704" lon="10.9861169"><ele>1093.0</ele><time>2026-04-06T10:39:50.002Z</time></trkpt><trkpt lat="45.6511585" lon="10.9862604"><ele>1097.25</ele><time>2026-04-06T10:39:51.002Z</time></trkpt><trkpt lat="45.6512394" lon="10.9864188"><ele>1101.5</ele><time>2026-04-06T10:39:52.003Z</time></trkpt><trkpt lat="45.6513084" lon="10.9865796"><ele>1105.75</ele><time>2026-04-06T10:39:53.002Z</time></trkpt><trkpt lat="45.6513656" lon="10.9867285"><ele>1110.0</ele><time>2026-04-06T10:39:54.002Z</time></trkpt><trkpt lat="45.6513985" lon="10.986873"><ele>1111.75</ele><time>2026-04-06T10:39:55.002Z</time></trkpt><trkpt lat="45.6514023" lon="10.9870182"><ele>1113.5</ele><time>2026-04-06T10:39:56.002Z</time></trkpt><trkpt lat="45.6513758" lon="10.9871745"><ele>1115.25</ele><time>2026-04-06T10:39:57.003Z</time></trkpt><trkpt lat="45.6513362" lon="10.9873445"><ele>1117.0</ele><time>2026-04-06T10:39:58.002Z</time></trkpt><trkpt lat="45.6512882" lon="10.9875334"><ele>1114.5</ele><time>2026-04-06T10:39:59.003Z</time></trkpt><trkpt lat="45.6512319" lon="10.9877387"><ele>1112.0</ele><time>2026-04-06T10:40:00.002Z</time></trkpt><trkpt lat="45.6511733" lon="10.9879363"><ele>1109.5</ele><time>2026-04-06T10:40:01.003Z</time></trkpt><trkpt lat="45.6511257" lon="10.9880868"><ele>1107.0</ele><time>2026-04-06T10:40:02.003Z</time></trkpt><trkpt lat="45.6510721" lon="10.9881867"><ele>1107.0</ele><time>2026-04-06T10:40:03.002Z</time></trkpt><trkpt lat="45.6509963" lon="10.9882654"><ele>1107.0</ele><time>2026-04-06T10:40:04.002Z</time></trkpt><trkpt lat="45.6509018" lon="10.9883093"><ele>1107.0</ele><time>2026-04-06T10:40:05.003Z</time></trkpt><trkpt lat="45.6508011" lon="10.9883082"><ele>1107.0</ele><time>2026-04-06T10:40:06.002Z</time></trkpt><trkpt lat="45.6507007" lon="10.9882822"><ele>1107.0</ele><time>2026-04-06T10:40:07.003Z</time></trkpt><trkpt lat="45.6505991" lon="10.9882722"><ele>1107.0</ele><time>2026-04-06T10:40:08.003Z</time></trkpt><trkpt lat="45.6504947" lon="10.9883011"><ele>1107.0</ele><time>2026-04-06T10:40:09.002Z</time></trkpt><trkpt lat="45.6503994" lon="10.9883687"><ele>1107.0</ele><time>2026-04-06T10:40:10.002Z</time></trkpt><trkpt lat="45.6503061" lon="10.9884806"><ele>1107.0</ele><time>2026-04-06T10:40:11.003Z</time></trkpt><trkpt lat="45.6502132" lon="10.9886302"><ele>1109.0</ele><time>2026-04-06T10:40:12.003Z</time></trkpt><trkpt lat="45.6501195" lon="10.9888084"><ele>1111.0</ele><time>2026-04-06T10:40:13.002Z</time></trkpt><trkpt lat="45.6500183" lon="10.988969"><ele>1113.0</ele><time>2026-04-06T10:40:14.002Z</time></trkpt><trkpt lat="45.649901" lon="10.9891098"><ele>1114.0</ele><time>2026-04-06T10:40:15.002Z</time></trkpt><trkpt lat="45.6497689" lon="10.9892306"><ele>1115.0</ele><time>2026-04-06T10:40:16.002Z</time></trkpt><trkpt lat="45.6496417" lon="10.9893482"><ele>1116.0</ele><time>2026-04-06T10:40:17.003Z</time></trkpt><trkpt lat="45.6495453" lon="10.9894531"><ele>1117.0</ele><time>2026-04-06T10:40:18.003Z</time></trkpt><trkpt lat="45.6494737" lon="10.9895634"><ele>1115.4</ele><time>2026-04-06T10:40:19.002Z</time></trkpt><trkpt lat="45.6494352" lon="10.9896734"><ele>1113.8000000000002</ele><time>2026-04-06T10:40:20.002Z</time></trkpt><trkpt lat="45.6494264" lon="10.989791"><ele>1112.2</ele><time>2026-04-06T10:40:21.003Z</time></trkpt><trkpt lat="45.6494445" lon="10.9899131"><ele>1110.6000000000001</ele><time>2026-04-06T10:40:22.002Z</time></trkpt><trkpt lat="45.6494931" lon="10.990035"><ele>1109.0</ele><time>2026-04-06T10:40:23.002Z</time></trkpt><trkpt lat="45.6495696" lon="10.9901486"><ele>1109.0</ele><time>2026-04-06T10:40:24.003Z</time></trkpt><trkpt lat="45.649671" lon="10.9902612"><ele>1109.0</ele><time>2026-04-06T10:40:25.002Z</time></trkpt><trkpt lat="45.6497935" lon="10.9903825"><ele>1109.0</ele><time>2026-04-06T10:40:26.002Z</time></trkpt><trkpt lat="45.6499084" lon="10.990505"><ele>1109.0</ele><time>2026-04-06T10:40:27.002Z</time></trkpt><trkpt lat="45.6500111" lon="10.9906126"><ele>1109.0</ele><time>2026-04-06T10:40:28.002Z</time></trkpt><trkpt lat="45.6500965" lon="10.990703"><ele>1109.0</ele><time>2026-04-06T10:40:29.002Z</time></trkpt><trkpt lat="45.6501584" lon="10.9907942"><ele>1109.0</ele><time>2026-04-06T10:40:30.003Z</time></trkpt><trkpt lat="45.6501965" lon="10.9908952"><ele>1109.0</ele><time>2026-04-06T10:40:31.002Z</time></trkpt><trkpt lat="45.6502146" lon="10.9910127"><ele>1109.0</ele><time>2026-04-06T10:40:32.002Z</time></trkpt><trkpt lat="45.6502103" lon="10.9911356"><ele>1109.0</ele><time>2026-04-06T10:40:33.003Z</time></trkpt><trkpt lat="45.6501696" lon="10.9912523"><ele>1110.8</ele><time>2026-04-06T10:40:34.003Z</time></trkpt><trkpt lat="45.6501082" lon="10.9913515"><ele>1112.6000000000001</ele><time>2026-04-06T10:40:35.002Z</time></trkpt><trkpt lat="45.6500226" lon="10.9914295"><ele>1114.4</ele><time>2026-04-06T10:40:36.003Z</time></trkpt><trkpt lat="45.6499208" lon="10.9915032"><ele>1116.2</ele><time>2026-04-06T10:40:37.002Z</time></trkpt><trkpt lat="45.6498059" lon="10.9915885"><ele>1118.0</ele><time>2026-04-06T10:40:38.002Z</time></trkpt><trkpt lat="45.6496849" lon="10.9916923"><ele>1115.0</ele><time>2026-04-06T10:40:39.002Z</time></trkpt><trkpt lat="45.649572" lon="10.9918003"><ele>1112.0</ele><time>2026-04-06T10:40:40.002Z</time></trkpt><trkpt lat="45.6494661" lon="10.9919233"><ele>1109.0</ele><time>2026-04-06T10:40:41.002Z</time></trkpt><trkpt lat="45.6493712" lon="10.9920557"><ele>1106.0</ele><time>2026-04-06T10:40:42.002Z</time></trkpt><trkpt lat="45.6492974" lon="10.9921793"><ele>1106.0</ele><time>2026-04-06T10:40:43.003Z</time></trkpt><trkpt lat="45.6492318" lon="10.9922957"><ele>1106.0</ele><time>2026-04-06T10:40:44.003Z</time></trkpt><trkpt lat="45.6491738" lon="10.9924051"><ele>1106.0</ele><time>2026-04-06T10:40:45.002Z</time></trkpt><trkpt lat="45.6491242" lon="10.9925228"><ele>1106.0</ele><time>2026-04-06T10:40:46.002Z</time></trkpt><trkpt lat="45.6490831" lon="10.9926466"><ele>1106.0</ele><time>2026-04-06T10:40:47.003Z</time></trkpt><trkpt lat="45.6490544" lon="10.9927729"><ele>1107.5</ele><time>2026-04-06T10:40:48.003Z</time></trkpt><trkpt lat="45.6490281" lon="10.9928924"><ele>1109.0</ele><time>2026-04-06T10:40:49.003Z</time></trkpt><trkpt lat="45.649004" lon="10.9930166"><ele>1110.5</ele><time>2026-04-06T10:40:50.003Z</time></trkpt><trkpt lat="45.648983" lon="10.9931293"><ele>1112.0</ele><time>2026-04-06T10:40:51.002Z</time></trkpt><trkpt lat="45.6489632" lon="10.9932443"><ele>1113.5</ele><time>2026-04-06T10:40:52.002Z</time></trkpt><trkpt lat="45.6489457" lon="10.9933723"><ele>1115.0</ele><time>2026-04-06T10:40:53.002Z</time></trkpt><trkpt lat="45.6489341" lon="10.9935082"><ele>1115.8</ele><time>2026-04-06T10:40:54.003Z</time></trkpt><trkpt lat="45.6489284" lon="10.9936457"><ele>1116.6</ele><time>2026-04-06T10:40:55.003Z</time></trkpt><trkpt lat="45.648927" lon="10.9937696"><ele>1117.4</ele><time>2026-04-06T10:40:56.002Z</time></trkpt><trkpt lat="45.6489331" lon="10.9939079"><ele>1118.2</ele><time>2026-04-06T10:40:57.002Z</time></trkpt><trkpt lat="45.6489481" lon="10.9940518"><ele>1119.0</ele><time>2026-04-06T10:40:58.002Z</time></trkpt><trkpt lat="45.648973" lon="10.9941874"><ele>1119.0</ele><time>2026-04-06T10:40:59.002Z</time></trkpt><trkpt lat="45.6490002" lon="10.9943158"><ele>1119.0</ele><time>2026-04-06T10:41:00.003Z</time></trkpt><trkpt lat="45.6490274" lon="10.9944514"><ele>1119.0</ele><time>2026-04-06T10:41:01.002Z</time></trkpt><trkpt lat="45.6490536" lon="10.9945833"><ele>1119.0</ele><time>2026-04-06T10:41:02.002Z</time></trkpt><trkpt lat="45.6490795" lon="10.9947017"><ele>1119.0</ele><time>2026-04-06T10:41:03.002Z</time></trkpt><trkpt lat="45.6491089" lon="10.9948161"><ele>1119.0</ele><time>2026-04-06T10:41:04.002Z</time></trkpt><trkpt lat="45.6491444" lon="10.9949271"><ele>1119.0</ele><time>2026-04-06T10:41:05.002Z</time></trkpt><trkpt lat="45.6491824" lon="10.9950456"><ele>1119.0</ele><time>2026-04-06T10:41:06.003Z</time></trkpt><trkpt lat="45.6492189" lon="10.9951655"><ele>1119.0</ele><time>2026-04-06T10:41:07.002Z</time></trkpt><trkpt lat="45.649244" lon="10.9952784"><ele>1119.0</ele><time>2026-04-06T10:41:08.002Z</time></trkpt><trkpt lat="45.6492536" lon="10.9953912"><ele>1119.0</ele><time>2026-04-06T10:41:09.003Z</time></trkpt><trkpt lat="45.649236" lon="10.9954954"><ele>1120.1666666666667</ele><time>2026-04-06T10:41:10.002Z</time></trkpt><trkpt lat="45.6491903" lon="10.9955815"><ele>1121.3333333333333</ele><time>2026-04-06T10:41:11.002Z</time></trkpt><trkpt lat="45.6491206" lon="10.9956285"><ele>1122.5</ele><time>2026-04-06T10:41:12.002Z</time></trkpt><trkpt lat="45.6490453" lon="10.9956318"><ele>1123.6666666666665</ele><time>2026-04-06T10:41:13.002Z</time></trkpt><trkpt lat="45.6489657" lon="10.9955918"><ele>1124.8333333333333</ele><time>2026-04-06T10:41:14.002Z</time></trkpt><trkpt lat="45.6488692" lon="10.9955226"><ele>1126.0</ele><time>2026-04-06T10:41:15.002Z</time></trkpt><trkpt lat="45.6487568" lon="10.99545"><ele>1126.0</ele><time>2026-04-06T10:41:16.003Z</time></trkpt><trkpt lat="45.6486388" lon="10.9954045"><ele>1126.0</ele><time>2026-04-06T10:41:17.002Z</time></trkpt><trkpt lat="45.6485175" lon="10.9953695"><ele>1126.0</ele><time>2026-04-06T10:41:18.003Z</time></trkpt><trkpt lat="45.6483918" lon="10.9953537"><ele>1126.0</ele><time>2026-04-06T10:41:19.002Z</time></trkpt><trkpt lat="45.6482644" lon="10.9953642"><ele>1125.75</ele><time>2026-04-06T10:41:20.003Z</time></trkpt><trkpt lat="45.6481256" lon="10.995404"><ele>1125.5</ele><time>2026-04-06T10:41:21.002Z</time></trkpt><trkpt lat="45.64798" lon="10.9954744"><ele>1125.25</ele><time>2026-04-06T10:41:22.002Z</time></trkpt><trkpt lat="45.6478481" lon="10.9955678"><ele>1125.0</ele><time>2026-04-06T10:41:23.002Z</time></trkpt><trkpt lat="45.6477178" lon="10.9956771"><ele>1125.5</ele><time>2026-04-06T10:41:24.003Z</time></trkpt><trkpt lat="45.6475915" lon="10.9957963"><ele>1126.0</ele><time>2026-04-06T10:41:25.003Z</time></trkpt><trkpt lat="45.647476" lon="10.9959105"><ele>1126.5</ele><time>2026-04-06T10:41:26.002Z</time></trkpt><trkpt lat="45.647364" lon="10.996027"><ele>1127.0</ele><time>2026-04-06T10:41:27.002Z</time></trkpt><trkpt lat="45.6472586" lon="10.9961552"><ele>1127.0</ele><time>2026-04-06T10:41:28.003Z</time></trkpt><trkpt lat="45.6471692" lon="10.996287"><ele>1127.0</ele><time>2026-04-06T10:41:29.002Z</time></trkpt><trkpt lat="45.6470955" lon="10.9964279"><ele>1127.0</ele><time>2026-04-06T10:41:30.002Z</time></trkpt><trkpt lat="45.6470374" lon="10.9965846"><ele>1127.0</ele><time>2026-04-06T10:41:31.003Z</time></trkpt><trkpt lat="45.6469986" lon="10.9967577"><ele>1128.75</ele><time>2026-04-06T10:41:32.003Z</time></trkpt><trkpt lat="45.6469803" lon="10.9969301"><ele>1130.5</ele><time>2026-04-06T10:41:33.002Z</time></trkpt><trkpt lat="45.6469858" lon="10.9970984"><ele>1132.25</ele><time>2026-04-06T10:41:34.003Z</time></trkpt><trkpt lat="45.6470096" lon="10.9972731"><ele>1134.0</ele><time>2026-04-06T10:41:35.003Z</time></trkpt><trkpt lat="45.6470468" lon="10.9974366"><ele>1134.0</ele><time>2026-04-06T10:41:36.002Z</time></trkpt><trkpt lat="45.647083" lon="10.9975888"><ele>1134.0</ele><time>2026-04-06T10:41:37.002Z</time></trkpt><trkpt lat="45.6471017" lon="10.9977281"><ele>1134.0</ele><time>2026-04-06T10:41:38.002Z</time></trkpt><trkpt lat="45.6470949" lon="10.997862"><ele>1134.0</ele><time>2026-04-06T10:41:39.002Z</time></trkpt><trkpt lat="45.6470617" lon="10.9979957"><ele>1134.0</ele><time>2026-04-06T10:41:40.003Z</time></trkpt><trkpt lat="45.6470035" lon="10.9981001"><ele>1134.5</ele><time>2026-04-06T10:41:41.002Z</time></trkpt><trkpt lat="45.6469205" lon="10.9981956"><ele>1135.0</ele><time>2026-04-06T10:41:42.002Z</time></trkpt><trkpt lat="45.6468156" lon="10.9982801"><ele>1135.5</ele><time>2026-04-06T10:41:43.002Z</time></trkpt><trkpt lat="45.6466995" lon="10.9983607"><ele>1136.0</ele><time>2026-04-06T10:41:44.002Z</time></trkpt><trkpt lat="45.646597" lon="10.9984416"><ele>1136.0</ele><time>2026-04-06T10:41:45.002Z</time></trkpt><trkpt lat="45.6464991" lon="10.9985178"><ele>1136.0</ele><time>2026-04-06T10:41:46.003Z</time></trkpt><trkpt lat="45.6464086" lon="10.9985894"><ele>1136.0</ele><time>2026-04-06T10:41:47.002Z</time></trkpt><trkpt lat="45.6463231" lon="10.9986492"><ele>1136.0</ele><time>2026-04-06T10:41:48.003Z</time></trkpt><trkpt lat="45.6462408" lon="10.9986903"><ele>1136.0</ele><time>2026-04-06T10:41:49.002Z</time></trkpt><trkpt lat="45.6461595" lon="10.9987071"><ele>1135.0</ele><time>2026-04-06T10:41:50.003Z</time></trkpt><trkpt lat="45.6460806" lon="10.9987008"><ele>1134.0</ele><time>2026-04-06T10:41:51.002Z</time></trkpt><trkpt lat="45.6459956" lon="10.998674"><ele>1133.0</ele><time>2026-04-06T10:41:52.003Z</time></trkpt><trkpt lat="45.6459081" lon="10.9986188"><ele>1132.0</ele><time>2026-04-06T10:41:53.003Z</time></trkpt><trkpt lat="45.6458245" lon="10.9985363"><ele>1131.0</ele><time>2026-04-06T10:41:54.003Z</time></trkpt><trkpt lat="45.6457522" lon="10.9984475"><ele>1131.0</ele><time>2026-04-06T10:41:55.003Z</time></trkpt><trkpt lat="45.6456844" lon="10.9983691"><ele>1131.0</ele><time>2026-04-06T10:41:56.002Z</time></trkpt><trkpt lat="45.6456118" lon="10.9983021"><ele>1131.0</ele><time>2026-04-06T10:41:57.002Z</time></trkpt><trkpt lat="45.6455324" lon="10.998242"><ele>1131.0</ele><time>2026-04-06T10:41:58.003Z</time></trkpt><trkpt lat="45.6454575" lon="10.9981941"><ele>1131.0</ele><time>2026-04-06T10:41:59.002Z</time></trkpt><trkpt lat="45.6453814" lon="10.9981478"><ele>1131.0</ele><time>2026-04-06T10:42:00.002Z</time></trkpt><trkpt lat="45.6452968" lon="10.9981005"><ele>1129.3333333333333</ele><time>2026-04-06T10:42:01.002Z</time></trkpt><trkpt lat="45.6452244" lon="10.9980662"><ele>1127.6666666666667</ele><time>2026-04-06T10:42:02.002Z</time></trkpt><trkpt lat="45.6451545" lon="10.9980405"><ele>1126.0</ele><time>2026-04-06T10:42:03.002Z</time></trkpt><trkpt lat="45.6450781" lon="10.9980237"><ele>1124.3333333333335</ele><time>2026-04-06T10:42:04.002Z</time></trkpt><trkpt lat="45.6449879" lon="10.9980246"><ele>1122.6666666666667</ele><time>2026-04-06T10:42:05.002Z</time></trkpt><trkpt lat="45.6448949" lon="10.9980459"><ele>1121.0</ele><time>2026-04-06T10:42:06.002Z</time></trkpt><trkpt lat="45.6448097" lon="10.9980856"><ele>1121.0</ele><time>2026-04-06T10:42:07.003Z</time></trkpt><trkpt lat="45.6447205" lon="10.9981417"><ele>1121.0</ele><time>2026-04-06T10:42:08.002Z</time></trkpt><trkpt lat="45.6446354" lon="10.9982044"><ele>1121.0</ele><time>2026-04-06T10:42:09.003Z</time></trkpt><trkpt lat="45.6445477" lon="10.9982776"><ele>1121.0</ele><time>2026-04-06T10:42:10.002Z</time></trkpt><trkpt lat="45.6444629" lon="10.9983347"><ele>1121.0</ele><time>2026-04-06T10:42:11.003Z</time></trkpt><trkpt lat="45.6443822" lon="10.9983748"><ele>1120.3333333333335</ele><time>2026-04-06T10:42:12.003Z</time></trkpt><trkpt lat="45.6443027" lon="10.9983962"><ele>1119.6666666666667</ele><time>2026-04-06T10:42:13.003Z</time></trkpt><trkpt lat="45.6442242" lon="10.9984033"><ele>1119.0</ele><time>2026-04-06T10:42:14.003Z</time></trkpt><trkpt lat="45.6441389" lon="10.9983991"><ele>1118.3333333333333</ele><time>2026-04-06T10:42:15.002Z</time></trkpt><trkpt lat="45.6440563" lon="10.9983791"><ele>1117.6666666666665</ele><time>2026-04-06T10:42:16.002Z</time></trkpt><trkpt lat="45.6439748" lon="10.9983534"><ele>1117.0</ele><time>2026-04-06T10:42:17.002Z</time></trkpt><trkpt lat="45.643891" lon="10.9983293"><ele>1117.0</ele><time>2026-04-06T10:42:18.002Z</time></trkpt><trkpt lat="45.6438124" lon="10.9983169"><ele>1117.0</ele><time>2026-04-06T10:42:19.002Z</time></trkpt><trkpt lat="45.6437274" lon="10.9983159"><ele>1117.0</ele><time>2026-04-06T10:42:20.003Z</time></trkpt><trkpt lat="45.6436446" lon="10.9983339"><ele>1117.0</ele><time>2026-04-06T10:42:21.002Z</time></trkpt><trkpt lat="45.6435725" lon="10.9983616"><ele>1117.0</ele><time>2026-04-06T10:42:22.003Z</time></trkpt><trkpt lat="45.6435026" lon="10.998407"><ele>1117.0</ele><time>2026-04-06T10:42:23.003Z</time></trkpt><trkpt lat="45.6434395" lon="10.9984862"><ele>1117.8</ele><time>2026-04-06T10:42:24.003Z</time></trkpt><trkpt lat="45.6433868" lon="10.9985857"><ele>1118.6</ele><time>2026-04-06T10:42:25.003Z</time></trkpt><trkpt lat="45.6433416" lon="10.9986989"><ele>1119.3999999999999</ele><time>2026-04-06T10:42:26.003Z</time></trkpt><trkpt lat="45.6433056" lon="10.9988282"><ele>1120.2</ele><time>2026-04-06T10:42:27.003Z</time></trkpt><trkpt lat="45.643278" lon="10.998964"><ele>1121.0</ele><time>2026-04-06T10:42:28.003Z</time></trkpt><trkpt lat="45.6432602" lon="10.9990959"><ele>1119.8333333333335</ele><time>2026-04-06T10:42:29.002Z</time></trkpt><trkpt lat="45.6432543" lon="10.9992157"><ele>1118.6666666666667</ele><time>2026-04-06T10:42:30.002Z</time></trkpt><trkpt lat="45.6432516" lon="10.9993202"><ele>1117.5</ele><time>2026-04-06T10:42:31.002Z</time></trkpt><trkpt lat="45.6432576" lon="10.9994186"><ele>1116.3333333333333</ele><time>2026-04-06T10:42:32.002Z</time></trkpt><trkpt lat="45.643305" lon="10.9995817"><ele>1115.1666666666665</ele><time>2026-04-06T10:42:34.002Z</time></trkpt><trkpt lat="45.6433493" lon="10.9996643"><ele>1114.0</ele><time>2026-04-06T10:42:35.003Z</time></trkpt><trkpt lat="45.6434087" lon="10.9997446"><ele>1114.0</ele><time>2026-04-06T10:42:36.003Z</time></trkpt><trkpt lat="45.6434783" lon="10.9998223"><ele>1114.0</ele><time>2026-04-06T10:42:37.002Z</time></trkpt><trkpt lat="45.6435595" lon="10.9998872"><ele>1114.0</ele><time>2026-04-06T10:42:38.003Z</time></trkpt><trkpt lat="45.6436302" lon="10.9999616"><ele>1114.0</ele><time>2026-04-06T10:42:39.003Z</time></trkpt><trkpt lat="45.6436923" lon="11.000052"><ele>1114.0</ele><time>2026-04-06T10:42:40.002Z</time></trkpt><trkpt lat="45.6437423" lon="11.0001586"><ele>1114.0</ele><time>2026-04-06T10:42:41.003Z</time></trkpt><trkpt lat="45.6437883" lon="11.0002907"><ele>1113.8</ele><time>2026-04-06T10:42:42.002Z</time></trkpt><trkpt lat="45.6438194" lon="11.0004347"><ele>1113.6000000000001</ele><time>2026-04-06T10:42:43.002Z</time></trkpt><trkpt lat="45.6438394" lon="11.0005785"><ele>1113.4</ele><time>2026-04-06T10:42:44.002Z</time></trkpt><trkpt lat="45.6438569" lon="11.0007145"><ele>1113.2</ele><time>2026-04-06T10:42:45.002Z</time></trkpt><trkpt lat="45.6438836" lon="11.0008486"><ele>1113.0</ele><time>2026-04-06T10:42:46.002Z</time></trkpt><trkpt lat="45.6439254" lon="11.0009644"><ele>1113.0</ele><time>2026-04-06T10:42:47.002Z</time></trkpt><trkpt lat="45.6439772" lon="11.001049"><ele>1113.0</ele><time>2026-04-06T10:42:48.003Z</time></trkpt><trkpt lat="45.6440419" lon="11.001106"><ele>1113.0</ele><time>2026-04-06T10:42:49.002Z</time></trkpt><trkpt lat="45.644117" lon="11.0011405"><ele>1113.0</ele><time>2026-04-06T10:42:50.002Z</time></trkpt><trkpt lat="45.6441974" lon="11.0011471"><ele>1113.0</ele><time>2026-04-06T10:42:51.002Z</time></trkpt><trkpt lat="45.6442801" lon="11.0011269"><ele>1113.0</ele><time>2026-04-06T10:42:52.002Z</time></trkpt><trkpt lat="45.6443667" lon="11.0010878"><ele>1113.0</ele><time>2026-04-06T10:42:53.002Z</time></trkpt><trkpt lat="45.6444555" lon="11.0010482"><ele>1113.0</ele><time>2026-04-06T10:42:54.003Z</time></trkpt><trkpt lat="45.6445395" lon="11.0010081"><ele>1113.0</ele><time>2026-04-06T10:42:55.003Z</time></trkpt><trkpt lat="45.6446272" lon="11.0009643"><ele>1113.0</ele><time>2026-04-06T10:42:56.002Z</time></trkpt><trkpt lat="45.6447182" lon="11.0009276"><ele>1113.0</ele><time>2026-04-06T10:42:57.002Z</time></trkpt><trkpt lat="45.6448028" lon="11.0008986"><ele>1114.0</ele><time>2026-04-06T10:42:58.003Z</time></trkpt><trkpt lat="45.6448818" lon="11.0008798"><ele>1115.0</ele><time>2026-04-06T10:42:59.003Z</time></trkpt><trkpt lat="45.6449581" lon="11.0008693"><ele>1116.0</ele><time>2026-04-06T10:43:00.003Z</time></trkpt><trkpt lat="45.6450347" lon="11.0008733"><ele>1117.0</ele><time>2026-04-06T10:43:01.003Z</time></trkpt><trkpt lat="45.6451051" lon="11.0008996"><ele>1118.0</ele><time>2026-04-06T10:43:02.003Z</time></trkpt><trkpt lat="45.6451731" lon="11.0009515"><ele>1119.0</ele><time>2026-04-06T10:43:03.003Z</time></trkpt><trkpt lat="45.6452348" lon="11.0010273"><ele>1119.0</ele><time>2026-04-06T10:43:04.002Z</time></trkpt><trkpt lat="45.6452803" lon="11.001123"><ele>1119.0</ele><time>2026-04-06T10:43:05.002Z</time></trkpt><trkpt lat="45.6452999" lon="11.0012403"><ele>1119.0</ele><time>2026-04-06T10:43:06.003Z</time></trkpt><trkpt lat="45.6452901" lon="11.0013678"><ele>1119.0</ele><time>2026-04-06T10:43:07.003Z</time></trkpt><trkpt lat="45.6452676" lon="11.0015001"><ele>1119.0</ele><time>2026-04-06T10:43:08.002Z</time></trkpt><trkpt lat="45.6452311" lon="11.0016415"><ele>1117.6000000000001</ele><time>2026-04-06T10:43:09.002Z</time></trkpt><trkpt lat="45.6451905" lon="11.0017782"><ele>1116.2</ele><time>2026-04-06T10:43:10.002Z</time></trkpt><trkpt lat="45.6451477" lon="11.0019057"><ele>1114.8000000000002</ele><time>2026-04-06T10:43:11.002Z</time></trkpt><trkpt lat="45.6450973" lon="11.0020438"><ele>1113.4</ele><time>2026-04-06T10:43:12.003Z</time></trkpt><trkpt lat="45.6450548" lon="11.0021764"><ele>1112.0</ele><time>2026-04-06T10:43:13.002Z</time></trkpt><trkpt lat="45.6450246" lon="11.0023059"><ele>1112.0</ele><time>2026-04-06T10:43:14.002Z</time></trkpt><trkpt lat="45.6450095" lon="11.0024314"><ele>1112.0</ele><time>2026-04-06T10:43:15.002Z</time></trkpt><trkpt lat="45.6450089" lon="11.0025521"><ele>1112.0</ele><time>2026-04-06T10:43:16.002Z</time></trkpt><trkpt lat="45.6450213" lon="11.0026651"><ele>1112.0</ele><time>2026-04-06T10:43:17.002Z</time></trkpt><trkpt lat="45.6450504" lon="11.00277"><ele>1112.0</ele><time>2026-04-06T10:43:18.002Z</time></trkpt><trkpt lat="45.6450944" lon="11.0028599"><ele>1112.0</ele><time>2026-04-06T10:43:19.003Z</time></trkpt><trkpt lat="45.6451538" lon="11.0029218"><ele>1112.0</ele><time>2026-04-06T10:43:20.003Z</time></trkpt><trkpt lat="45.6452267" lon="11.0029555"><ele>1112.0</ele><time>2026-04-06T10:43:21.003Z</time></trkpt><trkpt lat="45.6453092" lon="11.0029642"><ele>1112.0</ele><time>2026-04-06T10:43:22.003Z</time></trkpt><trkpt lat="45.6453947" lon="11.0029334"><ele>1112.0</ele><time>2026-04-06T10:43:23.003Z</time></trkpt><trkpt lat="45.6454816" lon="11.0028727"><ele>1112.0</ele><time>2026-04-06T10:43:24.002Z</time></trkpt><trkpt lat="45.645562" lon="11.0027987"><ele>1112.0</ele><time>2026-04-06T10:43:25.002Z</time></trkpt><trkpt lat="45.6456362" lon="11.0027301"><ele>1113.3333333333335</ele><time>2026-04-06T10:43:26.002Z</time></trkpt><trkpt lat="45.6457128" lon="11.0026784"><ele>1114.6666666666667</ele><time>2026-04-06T10:43:27.003Z</time></trkpt><trkpt lat="45.6457906" lon="11.0026594"><ele>1116.0</ele><time>2026-04-06T10:43:28.003Z</time></trkpt><trkpt lat="45.6458658" lon="11.0026682"><ele>1117.3333333333333</ele><time>2026-04-06T10:43:29.002Z</time></trkpt><trkpt lat="45.6459311" lon="11.0027146"><ele>1118.6666666666665</ele><time>2026-04-06T10:43:30.003Z</time></trkpt><trkpt lat="45.6459847" lon="11.002788"><ele>1120.0</ele><time>2026-04-06T10:43:31.003Z</time></trkpt><trkpt lat="45.6460308" lon="11.0028859"><ele>1120.0</ele><time>2026-04-06T10:43:32.003Z</time></trkpt><trkpt lat="45.6460741" lon="11.0030103"><ele>1120.0</ele><time>2026-04-06T10:43:33.003Z</time></trkpt><trkpt lat="45.6461104" lon="11.0031522"><ele>1120.0</ele><time>2026-04-06T10:43:34.003Z</time></trkpt><trkpt lat="45.6461436" lon="11.0033112"><ele>1120.0</ele><time>2026-04-06T10:43:35.003Z</time></trkpt><trkpt lat="45.6461829" lon="11.0034925"><ele>1121.25</ele><time>2026-04-06T10:43:36.003Z</time></trkpt><trkpt lat="45.6462236" lon="11.0036655"><ele>1122.5</ele><time>2026-04-06T10:43:37.002Z</time></trkpt><trkpt lat="45.6462634" lon="11.0038289"><ele>1123.75</ele><time>2026-04-06T10:43:38.002Z</time></trkpt><trkpt lat="45.6463178" lon="11.0039745"><ele>1125.0</ele><time>2026-04-06T10:43:39.002Z</time></trkpt><trkpt lat="45.6463922" lon="11.0041217"><ele>1121.25</ele><time>2026-04-06T10:43:40.003Z</time></trkpt><trkpt lat="45.6464709" lon="11.004252"><ele>1117.5</ele><time>2026-04-06T10:43:41.003Z</time></trkpt><trkpt lat="45.6465533" lon="11.0043731"><ele>1113.75</ele><time>2026-04-06T10:43:42.003Z</time></trkpt><trkpt lat="45.6466389" lon="11.0044956"><ele>1110.0</ele><time>2026-04-06T10:43:43.003Z</time></trkpt><trkpt lat="45.6467327" lon="11.0046258"><ele>1110.0</ele><time>2026-04-06T10:43:44.003Z</time></trkpt><trkpt lat="45.6468277" lon="11.0047487"><ele>1110.0</ele><time>2026-04-06T10:43:45.003Z</time></trkpt><trkpt lat="45.6469256" lon="11.0048629"><ele>1110.0</ele><time>2026-04-06T10:43:46.002Z</time></trkpt><trkpt lat="45.6470237" lon="11.0049649"><ele>1110.0</ele><time>2026-04-06T10:43:47.003Z</time></trkpt><trkpt lat="45.6471203" lon="11.0050612"><ele>1109.4</ele><time>2026-04-06T10:43:48.002Z</time></trkpt><trkpt lat="45.6472168" lon="11.0051519"><ele>1108.8</ele><time>2026-04-06T10:43:49.002Z</time></trkpt><trkpt lat="45.6473054" lon="11.0052401"><ele>1108.2</ele><time>2026-04-06T10:43:50.003Z</time></trkpt><trkpt lat="45.6473846" lon="11.0053141"><ele>1107.6</ele><time>2026-04-06T10:43:51.002Z</time></trkpt><trkpt lat="45.6474614" lon="11.0053708"><ele>1107.0</ele><time>2026-04-06T10:43:52.002Z</time></trkpt><trkpt lat="45.6475413" lon="11.0054073"><ele>1107.0</ele><time>2026-04-06T10:43:53.003Z</time></trkpt><trkpt lat="45.6476201" lon="11.0054163"><ele>1107.0</ele><time>2026-04-06T10:43:54.002Z</time></trkpt><trkpt lat="45.647707" lon="11.0053991"><ele>1107.0</ele><time>2026-04-06T10:43:55.002Z</time></trkpt><trkpt lat="45.6477987" lon="11.0053566"><ele>1107.0</ele><time>2026-04-06T10:43:56.002Z</time></trkpt><trkpt lat="45.6478961" lon="11.0052943"><ele>1107.0</ele><time>2026-04-06T10:43:57.002Z</time></trkpt><trkpt lat="45.6479825" lon="11.0052209"><ele>1107.8333333333333</ele><time>2026-04-06T10:43:58.002Z</time></trkpt><trkpt lat="45.6480568" lon="11.0051305"><ele>1108.6666666666667</ele><time>2026-04-06T10:43:59.002Z</time></trkpt><trkpt lat="45.6481176" lon="11.0050327"><ele>1109.5</ele><time>2026-04-06T10:44:00.003Z</time></trkpt><trkpt lat="45.6481613" lon="11.0049368"><ele>1110.3333333333335</ele><time>2026-04-06T10:44:01.002Z</time></trkpt><trkpt lat="45.6482033" lon="11.0048445"><ele>1111.1666666666667</ele><time>2026-04-06T10:44:02.003Z</time></trkpt><trkpt lat="45.6482437" lon="11.0047644"><ele>1112.0</ele><time>2026-04-06T10:44:03.003Z</time></trkpt><trkpt lat="45.6483496" lon="11.004689"><ele>1112.0</ele><time>2026-04-06T10:44:05.003Z</time></trkpt><trkpt lat="45.6484674" lon="11.0047733"><ele>1112.0</ele><time>2026-04-06T10:44:07.003Z</time></trkpt><trkpt lat="45.6485299" lon="11.0048831"><ele>1112.0</ele><time>2026-04-06T10:44:08.002Z</time></trkpt><trkpt lat="45.6485948" lon="11.0050203"><ele>1112.0</ele><time>2026-04-06T10:44:09.002Z</time></trkpt><trkpt lat="45.648658" lon="11.0051544"><ele>1111.4</ele><time>2026-04-06T10:44:10.002Z</time></trkpt><trkpt lat="45.6487251" lon="11.0052856"><ele>1110.8000000000002</ele><time>2026-04-06T10:44:11.003Z</time></trkpt><trkpt lat="45.6487933" lon="11.0054065"><ele>1110.2</ele><time>2026-04-06T10:44:12.003Z</time></trkpt><trkpt lat="45.6488623" lon="11.0055075"><ele>1109.6000000000001</ele><time>2026-04-06T10:44:13.003Z</time></trkpt><trkpt lat="45.6489354" lon="11.0055849"><ele>1109.0</ele><time>2026-04-06T10:44:14.002Z</time></trkpt><trkpt lat="45.6490171" lon="11.005639"><ele>1109.0</ele><time>2026-04-06T10:44:15.003Z</time></trkpt><trkpt lat="45.6491163" lon="11.0056739"><ele>1109.0</ele><time>2026-04-06T10:44:16.003Z</time></trkpt><trkpt lat="45.6492248" lon="11.0056888"><ele>1109.0</ele><time>2026-04-06T10:44:17.003Z</time></trkpt><trkpt lat="45.6493272" lon="11.0056985"><ele>1109.0</ele><time>2026-04-06T10:44:18.002Z</time></trkpt><trkpt lat="45.649428" lon="11.0057121"><ele>1109.0</ele><time>2026-04-06T10:44:19.003Z</time></trkpt><trkpt lat="45.6495276" lon="11.0057259"><ele>1110.2</ele><time>2026-04-06T10:44:20.002Z</time></trkpt><trkpt lat="45.6496295" lon="11.0057412"><ele>1111.4</ele><time>2026-04-06T10:44:21.002Z</time></trkpt><trkpt lat="45.6497287" lon="11.005756"><ele>1112.6</ele><time>2026-04-06T10:44:22.003Z</time></trkpt><trkpt lat="45.6498222" lon="11.0057713"><ele>1113.8</ele><time>2026-04-06T10:44:23.002Z</time></trkpt><trkpt lat="45.6499095" lon="11.0057936"><ele>1115.0</ele><time>2026-04-06T10:44:24.002Z</time></trkpt><trkpt lat="45.6499837" lon="11.0058266"><ele>1109.4</ele><time>2026-04-06T10:44:25.002Z</time></trkpt><trkpt lat="45.650047" lon="11.0058762"><ele>1103.8</ele><time>2026-04-06T10:44:26.002Z</time></trkpt><trkpt lat="45.6500917" lon="11.0060266"><ele>1098.2</ele><time>2026-04-06T10:44:28.003Z</time></trkpt><trkpt lat="45.6500381" lon="11.0061834"><ele>1092.6</ele><time>2026-04-06T10:44:30.003Z</time></trkpt><trkpt lat="45.6499765" lon="11.0062505"><ele>1087.0</ele><time>2026-04-06T10:44:31.002Z</time></trkpt><trkpt lat="45.6499031" lon="11.0063175"><ele>1087.0</ele><time>2026-04-06T10:44:32.002Z</time></trkpt><trkpt lat="45.6498229" lon="11.0063937"><ele>1087.0</ele><time>2026-04-06T10:44:33.002Z</time></trkpt><trkpt lat="45.649745" lon="11.0064898"><ele>1087.0</ele><time>2026-04-06T10:44:34.003Z</time></trkpt><trkpt lat="45.6496751" lon="11.0066093"><ele>1087.0</ele><time>2026-04-06T10:44:35.002Z</time></trkpt><trkpt lat="45.6496167" lon="11.0067234"><ele>1087.0</ele><time>2026-04-06T10:44:36.002Z</time></trkpt><trkpt lat="45.6495699" lon="11.0068247"><ele>1086.8333333333333</ele><time>2026-04-06T10:44:37.002Z</time></trkpt><trkpt lat="45.6495305" lon="11.0069206"><ele>1086.6666666666665</ele><time>2026-04-06T10:44:38.002Z</time></trkpt><trkpt lat="45.6495051" lon="11.0070219"><ele>1086.5</ele><time>2026-04-06T10:44:39.003Z</time></trkpt><trkpt lat="45.6495037" lon="11.0071179"><ele>1086.3333333333333</ele><time>2026-04-06T10:44:40.002Z</time></trkpt><trkpt lat="45.6495307" lon="11.0072072"><ele>1086.1666666666667</ele><time>2026-04-06T10:44:41.003Z</time></trkpt><trkpt lat="45.6495828" lon="11.0072802"><ele>1086.0</ele><time>2026-04-06T10:44:42.002Z</time></trkpt><trkpt lat="45.6496698" lon="11.0073506"><ele>1086.0</ele><time>2026-04-06T10:44:43.003Z</time></trkpt><trkpt lat="45.6497899" lon="11.0074433"><ele>1086.0</ele><time>2026-04-06T10:44:44.003Z</time></trkpt><trkpt lat="45.6499144" lon="11.0075559"><ele>1086.0</ele><time>2026-04-06T10:44:45.003Z</time></trkpt><trkpt lat="45.6500623" lon="11.0076851"><ele>1085.6666666666667</ele><time>2026-04-06T10:44:46.003Z</time></trkpt><trkpt lat="45.6502055" lon="11.0077911"><ele>1085.3333333333335</ele><time>2026-04-06T10:44:47.002Z</time></trkpt><trkpt lat="45.6503618" lon="11.0078735"><ele>1085.0</ele><time>2026-04-06T10:44:48.003Z</time></trkpt><trkpt lat="45.6505201" lon="11.0079258"><ele>1084.4</ele><time>2026-04-06T10:44:49.003Z</time></trkpt><trkpt lat="45.6506551" lon="11.0079635"><ele>1083.8</ele><time>2026-04-06T10:44:50.003Z</time></trkpt><trkpt lat="45.6507631" lon="11.008003"><ele>1083.2</ele><time>2026-04-06T10:44:51.002Z</time></trkpt><trkpt lat="45.6508581" lon="11.0080519"><ele>1082.6</ele><time>2026-04-06T10:44:52.003Z</time></trkpt><trkpt lat="45.6509351" lon="11.0081233"><ele>1082.0</ele><time>2026-04-06T10:44:53.003Z</time></trkpt><trkpt lat="45.6509886" lon="11.0082224"><ele>1080.0</ele><time>2026-04-06T10:44:54.002Z</time></trkpt><trkpt lat="45.651012" lon="11.0083484"><ele>1078.0</ele><time>2026-04-06T10:44:55.003Z</time></trkpt><trkpt lat="45.6509992" lon="11.0084946"><ele>1076.0</ele><time>2026-04-06T10:44:56.002Z</time></trkpt><trkpt lat="45.650952" lon="11.0086559"><ele>1074.0</ele><time>2026-04-06T10:44:57.003Z</time></trkpt><trkpt lat="45.650878" lon="11.0088474"><ele>1074.0</ele><time>2026-04-06T10:44:58.002Z</time></trkpt><trkpt lat="45.650806" lon="11.009043"><ele>1074.0</ele><time>2026-04-06T10:44:59.002Z</time></trkpt><trkpt lat="45.6507542" lon="11.0092302"><ele>1074.0</ele><time>2026-04-06T10:45:00.002Z</time></trkpt><trkpt lat="45.6507327" lon="11.0094366"><ele>1074.0</ele><time>2026-04-06T10:45:01.002Z</time></trkpt><trkpt lat="45.6507328" lon="11.0096812"><ele>1074.5</ele><time>2026-04-06T10:45:02.003Z</time></trkpt><trkpt lat="45.6507393" lon="11.0099133"><ele>1075.0</ele><time>2026-04-06T10:45:03.003Z</time></trkpt><trkpt lat="45.6507472" lon="11.0101096"><ele>1075.5</ele><time>2026-04-06T10:45:04.003Z</time></trkpt><trkpt lat="45.6507674" lon="11.0102656"><ele>1076.0</ele><time>2026-04-06T10:45:05.003Z</time></trkpt><trkpt lat="45.6508111" lon="11.0103925"><ele>1074.5</ele><time>2026-04-06T10:45:06.002Z</time></trkpt><trkpt lat="45.6508843" lon="11.0105203"><ele>1073.0</ele><time>2026-04-06T10:45:07.002Z</time></trkpt><trkpt lat="45.6509988" lon="11.0106524"><ele>1071.5</ele><time>2026-04-06T10:45:08.002Z</time></trkpt><trkpt lat="45.651115" lon="11.0107932"><ele>1070.0</ele><time>2026-04-06T10:45:09.002Z</time></trkpt><trkpt lat="45.651216" lon="11.010963"><ele>1079.0</ele><time>2026-04-06T10:45:10.002Z</time></trkpt><trkpt lat="45.6512932" lon="11.0111437"><ele>1088.0</ele><time>2026-04-06T10:45:11.002Z</time></trkpt><trkpt lat="45.6513523" lon="11.0112788"><ele>1097.0</ele><time>2026-04-06T10:45:12.002Z</time></trkpt><trkpt lat="45.6514113" lon="11.0113888"><ele>1106.0</ele><time>2026-04-06T10:45:13.002Z</time></trkpt><trkpt lat="45.6514874" lon="11.0114764"><ele>1106.0</ele><time>2026-04-06T10:45:14.002Z</time></trkpt><trkpt lat="45.6515794" lon="11.0115415"><ele>1106.0</ele><time>2026-04-06T10:45:15.003Z</time></trkpt><trkpt lat="45.6516557" lon="11.0116069"><ele>1106.0</ele><time>2026-04-06T10:45:16.003Z</time></trkpt><trkpt lat="45.6517176" lon="11.0116919"><ele>1106.0</ele><time>2026-04-06T10:45:17.003Z</time></trkpt><trkpt lat="45.6517655" lon="11.0117957"><ele>1106.0</ele><time>2026-04-06T10:45:18.003Z</time></trkpt><trkpt lat="45.6517944" lon="11.0119222"><ele>1096.75</ele><time>2026-04-06T10:45:19.002Z</time></trkpt><trkpt lat="45.6517967" lon="11.0120613"><ele>1087.5</ele><time>2026-04-06T10:45:20.002Z</time></trkpt><trkpt lat="45.6517731" lon="11.0122173"><ele>1078.25</ele><time>2026-04-06T10:45:21.002Z</time></trkpt><trkpt lat="45.651744" lon="11.0123763"><ele>1069.0</ele><time>2026-04-06T10:45:22.002Z</time></trkpt><trkpt lat="45.6517393" lon="11.0125703"><ele>1062.0</ele><time>2026-04-06T10:45:23.002Z</time></trkpt><trkpt lat="45.6517492" lon="11.0128049"><ele>1055.0</ele><time>2026-04-06T10:45:24.003Z</time></trkpt><trkpt lat="45.6517635" lon="11.0130636"><ele>1048.0</ele><time>2026-04-06T10:45:25.002Z</time></trkpt><trkpt lat="45.6517682" lon="11.0132975"><ele>1046.25</ele><time>2026-04-06T10:45:26.003Z</time></trkpt><trkpt lat="45.651776" lon="11.0135045"><ele>1044.5</ele><time>2026-04-06T10:45:27.002Z</time></trkpt><trkpt lat="45.6517907" lon="11.0136799"><ele>1042.75</ele><time>2026-04-06T10:45:28.002Z</time></trkpt><trkpt lat="45.6518232" lon="11.0138416"><ele>1041.0</ele><time>2026-04-06T10:45:29.002Z</time></trkpt><trkpt lat="45.6518773" lon="11.0139855"><ele>1041.0</ele><time>2026-04-06T10:45:30.003Z</time></trkpt><trkpt lat="45.6519428" lon="11.0141296"><ele>1041.0</ele><time>2026-04-06T10:45:31.003Z</time></trkpt><trkpt lat="45.651999" lon="11.014264"><ele>1041.0</ele><time>2026-04-06T10:45:32.002Z</time></trkpt><trkpt lat="45.6520573" lon="11.0143788"><ele>1041.0</ele><time>2026-04-06T10:45:33.002Z</time></trkpt><trkpt lat="45.6521369" lon="11.0144644"><ele>1041.0</ele><time>2026-04-06T10:45:34.002Z</time></trkpt><trkpt lat="45.6522363" lon="11.0145337"><ele>1053.3333333333333</ele><time>2026-04-06T10:45:35.003Z</time></trkpt><trkpt lat="45.6523595" lon="11.0146178"><ele>1065.6666666666665</ele><time>2026-04-06T10:45:36.002Z</time></trkpt><trkpt lat="45.6525142" lon="11.0147136"><ele>1078.0</ele><time>2026-04-06T10:45:37.002Z</time></trkpt><trkpt lat="45.652681" lon="11.0148053"><ele>1073.3333333333333</ele><time>2026-04-06T10:45:38.002Z</time></trkpt><trkpt lat="45.6528405" lon="11.0148789"><ele>1068.6666666666667</ele><time>2026-04-06T10:45:39.002Z</time></trkpt><trkpt lat="45.6530007" lon="11.0149423"><ele>1064.0</ele><time>2026-04-06T10:45:40.002Z</time></trkpt><trkpt lat="45.6531491" lon="11.0150124"><ele>1064.0</ele><time>2026-04-06T10:45:41.002Z</time></trkpt><trkpt lat="45.6532869" lon="11.0151025"><ele>1064.0</ele><time>2026-04-06T10:45:42.002Z</time></trkpt><trkpt lat="45.6534125" lon="11.0152148"><ele>1064.0</ele><time>2026-04-06T10:45:43.002Z</time></trkpt><trkpt lat="45.6535287" lon="11.0153543"><ele>1078.3333333333335</ele><time>2026-04-06T10:45:44.003Z</time></trkpt><trkpt lat="45.6536412" lon="11.0155033"><ele>1092.6666666666667</ele><time>2026-04-06T10:45:45.002Z</time></trkpt><trkpt lat="45.6537689" lon="11.01563"><ele>1107.0</ele><time>2026-04-06T10:45:46.002Z</time></trkpt><trkpt lat="45.6539106" lon="11.0157427"><ele>1090.75</ele><time>2026-04-06T10:45:47.003Z</time></trkpt><trkpt lat="45.65405" lon="11.0158546"><ele>1074.5</ele><time>2026-04-06T10:45:48.002Z</time></trkpt><trkpt lat="45.6541675" lon="11.0159639"><ele>1058.25</ele><time>2026-04-06T10:45:49.003Z</time></trkpt><trkpt lat="45.6542867" lon="11.0160396"><ele>1042.0</ele><time>2026-04-06T10:45:50.003Z</time></trkpt><trkpt lat="45.6544117" lon="11.0161006"><ele>1047.5</ele><time>2026-04-06T10:45:51.002Z</time></trkpt><trkpt lat="45.6545404" lon="11.016153"><ele>1053.0</ele><time>2026-04-06T10:45:52.003Z</time></trkpt><trkpt lat="45.6546585" lon="11.0161885"><ele>1058.5</ele><time>2026-04-06T10:45:53.002Z</time></trkpt><trkpt lat="45.6547826" lon="11.0161974"><ele>1064.0</ele><time>2026-04-06T10:45:54.002Z</time></trkpt><trkpt lat="45.6549176" lon="11.0161728"><ele>1064.0</ele><time>2026-04-06T10:45:55.002Z</time></trkpt><trkpt lat="45.6550594" lon="11.0161169"><ele>1064.0</ele><time>2026-04-06T10:45:56.003Z</time></trkpt><trkpt lat="45.6551914" lon="11.0160541"><ele>1064.0</ele><time>2026-04-06T10:45:57.003Z</time></trkpt><trkpt lat="45.6553212" lon="11.0160125"><ele>1064.0</ele><time>2026-04-06T10:45:58.002Z</time></trkpt><trkpt lat="45.6554481" lon="11.0160063"><ele>1061.75</ele><time>2026-04-06T10:45:59.003Z</time></trkpt><trkpt lat="45.6555857" lon="11.016035"><ele>1059.5</ele><time>2026-04-06T10:46:00.003Z</time></trkpt><trkpt lat="45.6557275" lon="11.0160705"><ele>1057.25</ele><time>2026-04-06T10:46:01.002Z</time></trkpt><trkpt lat="45.6558728" lon="11.0161223"><ele>1055.0</ele><time>2026-04-06T10:46:02.002Z</time></trkpt><trkpt lat="45.6560064" lon="11.0161638"><ele>1053.25</ele><time>2026-04-06T10:46:03.002Z</time></trkpt><trkpt lat="45.6561387" lon="11.0161824"><ele>1051.5</ele><time>2026-04-06T10:46:04.002Z</time></trkpt><trkpt lat="45.6562781" lon="11.0161765"><ele>1049.75</ele><time>2026-04-06T10:46:05.003Z</time></trkpt><trkpt lat="45.656422" lon="11.0161521"><ele>1048.0</ele><time>2026-04-06T10:46:06.002Z</time></trkpt><trkpt lat="45.6565625" lon="11.0161152"><ele>1048.0</ele><time>2026-04-06T10:46:07.003Z</time></trkpt><trkpt lat="45.6566962" lon="11.0160885"><ele>1048.0</ele><time>2026-04-06T10:46:08.002Z</time></trkpt><trkpt lat="45.6568331" lon="11.0160809"><ele>1048.0</ele><time>2026-04-06T10:46:09.002Z</time></trkpt><trkpt lat="45.6569483" lon="11.0160908"><ele>1048.0</ele><time>2026-04-06T10:46:10.003Z</time></trkpt><trkpt lat="45.657039" lon="11.0161101"><ele>1049.0</ele><time>2026-04-06T10:46:11.003Z</time></trkpt><trkpt lat="45.6571214" lon="11.0161368"><ele>1050.0</ele><time>2026-04-06T10:46:12.003Z</time></trkpt><trkpt lat="45.6571927" lon="11.0161763"><ele>1051.0</ele><time>2026-04-06T10:46:13.003Z</time></trkpt><trkpt lat="45.6572526" lon="11.0162312"><ele>1052.0</ele><time>2026-04-06T10:46:14.002Z</time></trkpt><trkpt lat="45.6572992" lon="11.0163148"><ele>1053.0</ele><time>2026-04-06T10:46:15.003Z</time></trkpt><trkpt lat="45.6573302" lon="11.0164329"><ele>1054.0</ele><time>2026-04-06T10:46:16.002Z</time></trkpt><trkpt lat="45.65735" lon="11.0165658"><ele>1049.5</ele><time>2026-04-06T10:46:17.002Z</time></trkpt><trkpt lat="45.6573633" lon="11.016685"><ele>1045.0</ele><time>2026-04-06T10:46:18.002Z</time></trkpt><trkpt lat="45.6573714" lon="11.0167938"><ele>1040.5</ele><time>2026-04-06T10:46:19.002Z</time></trkpt><trkpt lat="45.6573585" lon="11.0168825"><ele>1036.0</ele><time>2026-04-06T10:46:20.002Z</time></trkpt><trkpt lat="45.6573181" lon="11.0169576"><ele>1031.5</ele><time>2026-04-06T10:46:21.003Z</time></trkpt><trkpt lat="45.6572534" lon="11.0170169"><ele>1027.0</ele><time>2026-04-06T10:46:22.003Z</time></trkpt><trkpt lat="45.6571619" lon="11.0170539"><ele>1027.0</ele><time>2026-04-06T10:46:23.002Z</time></trkpt><trkpt lat="45.6570392" lon="11.0170935"><ele>1027.0</ele><time>2026-04-06T10:46:24.003Z</time></trkpt><trkpt lat="45.656915" lon="11.0171337"><ele>1027.0</ele><time>2026-04-06T10:46:25.003Z</time></trkpt><trkpt lat="45.6567623" lon="11.0171791"><ele>1027.0</ele><time>2026-04-06T10:46:26.002Z</time></trkpt><trkpt lat="45.6566018" lon="11.0172253"><ele>1022.0</ele><time>2026-04-06T10:46:27.003Z</time></trkpt><trkpt lat="45.6564468" lon="11.0172628"><ele>1017.0</ele><time>2026-04-06T10:46:28.003Z</time></trkpt><trkpt lat="45.6562826" lon="11.0172947"><ele>1012.0</ele><time>2026-04-06T10:46:29.002Z</time></trkpt><trkpt lat="45.6561353" lon="11.0173304"><ele>1012.0</ele><time>2026-04-06T10:46:30.003Z</time></trkpt><trkpt lat="45.6559985" lon="11.0173758"><ele>1012.0</ele><time>2026-04-06T10:46:31.002Z</time></trkpt><trkpt lat="45.6558641" lon="11.0174082"><ele>1012.0</ele><time>2026-04-06T10:46:32.002Z</time></trkpt><trkpt lat="45.6557529" lon="11.0174591"><ele>1012.0</ele><time>2026-04-06T10:46:33.002Z</time></trkpt><trkpt lat="45.6556426" lon="11.0175152"><ele>1012.25</ele><time>2026-04-06T10:46:34.002Z</time></trkpt><trkpt lat="45.6555362" lon="11.0175907"><ele>1012.5</ele><time>2026-04-06T10:46:35.002Z</time></trkpt><trkpt lat="45.655427" lon="11.0176703"><ele>1012.75</ele><time>2026-04-06T10:46:36.003Z</time></trkpt><trkpt lat="45.6553152" lon="11.0177913"><ele>1013.0</ele><time>2026-04-06T10:46:37.002Z</time></trkpt><trkpt lat="45.6551953" lon="11.0178983"><ele>1013.0</ele><time>2026-04-06T10:46:38.003Z</time></trkpt><trkpt lat="45.6550434" lon="11.0180008"><ele>1013.0</ele><time>2026-04-06T10:46:39.003Z</time></trkpt><trkpt lat="45.6549244" lon="11.0180966"><ele>1013.0</ele><time>2026-04-06T10:46:40.002Z</time></trkpt><trkpt lat="45.6548034" lon="11.0181647"><ele>1013.0</ele><time>2026-04-06T10:46:41.002Z</time></trkpt><trkpt lat="45.6546734" lon="11.0181556"><ele>1013.0</ele><time>2026-04-06T10:46:42.003Z</time></trkpt><trkpt lat="45.654559" lon="11.0181388"><ele>1013.0</ele><time>2026-04-06T10:46:43.002Z</time></trkpt><trkpt lat="45.6544588" lon="11.0181161"><ele>1013.0</ele><time>2026-04-06T10:46:44.003Z</time></trkpt><trkpt lat="45.6543629" lon="11.0180848"><ele>1013.0</ele><time>2026-04-06T10:46:45.003Z</time></trkpt><trkpt lat="45.6542819" lon="11.0181181"><ele>1013.0</ele><time>2026-04-06T10:46:46.002Z</time></trkpt><trkpt lat="45.6542135" lon="11.0181687"><ele>1013.0</ele><time>2026-04-06T10:46:47.003Z</time></trkpt><trkpt lat="45.654157" lon="11.0182548"><ele>1013.0</ele><time>2026-04-06T10:46:48.002Z</time></trkpt><trkpt lat="45.6540971" lon="11.0183825"><ele>1013.0</ele><time>2026-04-06T10:46:49.003Z</time></trkpt><trkpt lat="45.6540279" lon="11.0185332"><ele>1013.0</ele><time>2026-04-06T10:46:50.003Z</time></trkpt><trkpt lat="45.6539665" lon="11.0187256"><ele>1020.75</ele><time>2026-04-06T10:46:51.002Z</time></trkpt><trkpt lat="45.6539206" lon="11.0189465"><ele>1028.5</ele><time>2026-04-06T10:46:52.002Z</time></trkpt><trkpt lat="45.6538793" lon="11.0191516"><ele>1036.25</ele><time>2026-04-06T10:46:53.003Z</time></trkpt><trkpt lat="45.6538454" lon="11.0193251"><ele>1044.0</ele><time>2026-04-06T10:46:54.002Z</time></trkpt><trkpt lat="45.6538191" lon="11.0194706"><ele>1047.0</ele><time>2026-04-06T10:46:55.003Z</time></trkpt><trkpt lat="45.6537924" lon="11.0195829"><ele>1050.0</ele><time>2026-04-06T10:46:56.003Z</time></trkpt><trkpt lat="45.6537598" lon="11.0196907"><ele>1053.0</ele><time>2026-04-06T10:46:57.002Z</time></trkpt><trkpt lat="45.6536993" lon="11.0197226"><ele>1056.0</ele><time>2026-04-06T10:46:58.002Z</time></trkpt><trkpt lat="45.6536326" lon="11.0197387"><ele>1059.0</ele><time>2026-04-06T10:46:59.002Z</time></trkpt><trkpt lat="45.6535603" lon="11.0197131"><ele>1062.0</ele><time>2026-04-06T10:47:00.003Z</time></trkpt><trkpt lat="45.6534881" lon="11.0196487"><ele>1062.0</ele><time>2026-04-06T10:47:01.003Z</time></trkpt><trkpt lat="45.6534161" lon="11.0195728"><ele>1062.0</ele><time>2026-04-06T10:47:02.003Z</time></trkpt><trkpt lat="45.6533386" lon="11.019439"><ele>1062.0</ele><time>2026-04-06T10:47:03.003Z</time></trkpt><trkpt lat="45.6532659" lon="11.0192817"><ele>1062.0</ele><time>2026-04-06T10:47:04.003Z</time></trkpt><trkpt lat="45.6532123" lon="11.0191232"><ele>1052.6666666666667</ele><time>2026-04-06T10:47:05.002Z</time></trkpt><trkpt lat="45.6531365" lon="11.0189415"><ele>1043.3333333333335</ele><time>2026-04-06T10:47:06.003Z</time></trkpt><trkpt lat="45.6530541" lon="11.0187537"><ele>1034.0</ele><time>2026-04-06T10:47:07.003Z</time></trkpt><trkpt lat="45.6529615" lon="11.0185756"><ele>1034.0</ele><time>2026-04-06T10:47:08.002Z</time></trkpt><trkpt lat="45.6528756" lon="11.0184059"><ele>1034.0</ele><time>2026-04-06T10:47:09.003Z</time></trkpt><trkpt lat="45.6527991" lon="11.0182428"><ele>1034.0</ele><time>2026-04-06T10:47:10.003Z</time></trkpt><trkpt lat="45.6527251" lon="11.0180879"><ele>1034.0</ele><time>2026-04-06T10:47:11.003Z</time></trkpt><trkpt lat="45.6526536" lon="11.0179706"><ele>1037.25</ele><time>2026-04-06T10:47:12.002Z</time></trkpt><trkpt lat="45.6525686" lon="11.0178615"><ele>1040.5</ele><time>2026-04-06T10:47:13.002Z</time></trkpt><trkpt lat="45.652464" lon="11.0177706"><ele>1043.75</ele><time>2026-04-06T10:47:14.003Z</time></trkpt><trkpt lat="45.6523395" lon="11.0176901"><ele>1047.0</ele><time>2026-04-06T10:47:15.003Z</time></trkpt><trkpt lat="45.6521981" lon="11.0176286"><ele>1047.0</ele><time>2026-04-06T10:47:16.002Z</time></trkpt><trkpt lat="45.6520528" lon="11.0175673"><ele>1047.0</ele><time>2026-04-06T10:47:17.002Z</time></trkpt><trkpt lat="45.6519155" lon="11.0175142"><ele>1047.0</ele><time>2026-04-06T10:47:18.002Z</time></trkpt><trkpt lat="45.6517934" lon="11.0174759"><ele>1047.0</ele><time>2026-04-06T10:47:19.002Z</time></trkpt><trkpt lat="45.6516673" lon="11.0174647"><ele>1052.25</ele><time>2026-04-06T10:47:20.003Z</time></trkpt><trkpt lat="45.6515436" lon="11.0174823"><ele>1057.5</ele><time>2026-04-06T10:47:21.003Z</time></trkpt><trkpt lat="45.6514087" lon="11.0175561"><ele>1062.75</ele><time>2026-04-06T10:47:22.002Z</time></trkpt><trkpt lat="45.6512777" lon="11.0176284"><ele>1068.0</ele><time>2026-04-06T10:47:23.002Z</time></trkpt><trkpt lat="45.651147" lon="11.0176983"><ele>1069.5</ele><time>2026-04-06T10:47:24.002Z</time></trkpt><trkpt lat="45.6510301" lon="11.0177105"><ele>1071.0</ele><time>2026-04-06T10:47:25.002Z</time></trkpt><trkpt lat="45.650921" lon="11.0176934"><ele>1072.5</ele><time>2026-04-06T10:47:26.002Z</time></trkpt><trkpt lat="45.6508042" lon="11.0176651"><ele>1074.0</ele><time>2026-04-06T10:47:27.003Z</time></trkpt><trkpt lat="45.6507246" lon="11.0175319"><ele>1072.5</ele><time>2026-04-06T10:47:28.002Z</time></trkpt><trkpt lat="45.6506407" lon="11.0173964"><ele>1071.0</ele><time>2026-04-06T10:47:29.002Z</time></trkpt><trkpt lat="45.6505415" lon="11.0172642"><ele>1069.5</ele><time>2026-04-06T10:47:30.003Z</time></trkpt><trkpt lat="45.6504236" lon="11.0171471"><ele>1068.0</ele><time>2026-04-06T10:47:31.002Z</time></trkpt><trkpt lat="45.6502514" lon="11.0170904"><ele>1068.0</ele><time>2026-04-06T10:47:32.002Z</time></trkpt><trkpt lat="45.6500926" lon="11.0170279"><ele>1068.0</ele><time>2026-04-06T10:47:33.003Z</time></trkpt><trkpt lat="45.6499514" lon="11.0170012"><ele>1068.0</ele><time>2026-04-06T10:47:34.002Z</time></trkpt><trkpt lat="45.6498181" lon="11.0170052"><ele>1068.0</ele><time>2026-04-06T10:47:35.002Z</time></trkpt><trkpt lat="45.6496893" lon="11.0170359"><ele>1068.0</ele><time>2026-04-06T10:47:36.003Z</time></trkpt><trkpt lat="45.6495875" lon="11.0171204"><ele>1068.0</ele><time>2026-04-06T10:47:37.002Z</time></trkpt><trkpt lat="45.6495003" lon="11.0172194"><ele>1068.0</ele><time>2026-04-06T10:47:38.002Z</time></trkpt><trkpt lat="45.6494447" lon="11.0173371"><ele>1068.0</ele><time>2026-04-06T10:47:39.002Z</time></trkpt><trkpt lat="45.6494113" lon="11.0174791"><ele>1068.0</ele><time>2026-04-06T10:47:40.003Z</time></trkpt><trkpt lat="45.6493975" lon="11.0176433"><ele>1069.75</ele><time>2026-04-06T10:47:41.003Z</time></trkpt><trkpt lat="45.6493938" lon="11.0178185"><ele>1071.5</ele><time>2026-04-06T10:47:42.003Z</time></trkpt><trkpt lat="45.6493843" lon="11.0179954"><ele>1073.25</ele><time>2026-04-06T10:47:43.003Z</time></trkpt><trkpt lat="45.6493666" lon="11.0181668"><ele>1075.0</ele><time>2026-04-06T10:47:44.002Z</time></trkpt><trkpt lat="45.6493131" lon="11.0183205"><ele>1075.5</ele><time>2026-04-06T10:47:45.002Z</time></trkpt><trkpt lat="45.6492307" lon="11.0184483"><ele>1076.0</ele><time>2026-04-06T10:47:46.003Z</time></trkpt><trkpt lat="45.6491173" lon="11.018566"><ele>1076.5</ele><time>2026-04-06T10:47:47.003Z</time></trkpt><trkpt lat="45.6489738" lon="11.0186587"><ele>1077.0</ele><time>2026-04-06T10:47:48.002Z</time></trkpt><trkpt lat="45.6488163" lon="11.0187315"><ele>1077.0</ele><time>2026-04-06T10:47:49.003Z</time></trkpt><trkpt lat="45.6486621" lon="11.0187936"><ele>1077.0</ele><time>2026-04-06T10:47:50.002Z</time></trkpt><trkpt lat="45.6485127" lon="11.0188545"><ele>1077.0</ele><time>2026-04-06T10:47:51.002Z</time></trkpt><trkpt lat="45.648368" lon="11.0189206"><ele>1074.75</ele><time>2026-04-06T10:47:52.002Z</time></trkpt><trkpt lat="45.648232" lon="11.0189728"><ele>1072.5</ele><time>2026-04-06T10:47:53.003Z</time></trkpt><trkpt lat="45.6480996" lon="11.0190188"><ele>1070.25</ele><time>2026-04-06T10:47:54.002Z</time></trkpt><trkpt lat="45.6479665" lon="11.0190476"><ele>1068.0</ele><time>2026-04-06T10:47:55.002Z</time></trkpt><trkpt lat="45.6478386" lon="11.0190656"><ele>1067.3333333333333</ele><time>2026-04-06T10:47:56.003Z</time></trkpt><trkpt lat="45.6476933" lon="11.0190608"><ele>1066.6666666666665</ele><time>2026-04-06T10:47:57.002Z</time></trkpt><trkpt lat="45.6475285" lon="11.0190301"><ele>1066.0</ele><time>2026-04-06T10:47:58.003Z</time></trkpt><trkpt lat="45.647341" lon="11.0189675"><ele>1066.0</ele><time>2026-04-06T10:47:59.002Z</time></trkpt><trkpt lat="45.6471508" lon="11.018896"><ele>1066.0</ele><time>2026-04-06T10:48:00.003Z</time></trkpt><trkpt lat="45.6469497" lon="11.0188203"><ele>1066.0</ele><time>2026-04-06T10:48:01.002Z</time></trkpt><trkpt lat="45.6467627" lon="11.0187539"><ele>1066.0</ele><time>2026-04-06T10:48:02.002Z</time></trkpt><trkpt lat="45.6466003" lon="11.0186981"><ele>1066.0</ele><time>2026-04-06T10:48:03.002Z</time></trkpt><trkpt lat="45.6464524" lon="11.0186537"><ele>1066.0</ele><time>2026-04-06T10:48:04.002Z</time></trkpt><trkpt lat="45.6463107" lon="11.0186148"><ele>1066.0</ele><time>2026-04-06T10:48:05.003Z</time></trkpt><trkpt lat="45.6461857" lon="11.0186486"><ele>1066.0</ele><time>2026-04-06T10:48:06.003Z</time></trkpt><trkpt lat="45.6460578" lon="11.0186617"><ele>1066.0</ele><time>2026-04-06T10:48:07.002Z</time></trkpt><trkpt lat="45.6459565" lon="11.0188186"><ele>1066.0</ele><time>2026-04-06T10:48:08.002Z</time></trkpt><trkpt lat="45.6458432" lon="11.0189506"><ele>1065.0</ele><time>2026-04-06T10:48:09.002Z</time></trkpt><trkpt lat="45.6457244" lon="11.0190757"><ele>1064.0</ele><time>2026-04-06T10:48:10.002Z</time></trkpt><trkpt lat="45.6456036" lon="11.0192022"><ele>1063.0</ele><time>2026-04-06T10:48:11.002Z</time></trkpt><trkpt lat="45.645514" lon="11.0193129"><ele>1062.0</ele><time>2026-04-06T10:48:12.002Z</time></trkpt><trkpt lat="45.6454476" lon="11.0194199"><ele>1066.2</ele><time>2026-04-06T10:48:13.002Z</time></trkpt><trkpt lat="45.6454097" lon="11.0195523"><ele>1070.4</ele><time>2026-04-06T10:48:14.002Z</time></trkpt><trkpt lat="45.6454146" lon="11.0197054"><ele>1074.6</ele><time>2026-04-06T10:48:15.003Z</time></trkpt><trkpt lat="45.6454492" lon="11.019861"><ele>1078.8</ele><time>2026-04-06T10:48:16.003Z</time></trkpt><trkpt lat="45.6454966" lon="11.0200196"><ele>1083.0</ele><time>2026-04-06T10:48:17.002Z</time></trkpt><trkpt lat="45.6455114" lon="11.0201824"><ele>1081.0</ele><time>2026-04-06T10:48:18.003Z</time></trkpt><trkpt lat="45.6454942" lon="11.020359"><ele>1079.0</ele><time>2026-04-06T10:48:19.002Z</time></trkpt><trkpt lat="45.6454463" lon="11.0205398"><ele>1077.0</ele><time>2026-04-06T10:48:20.003Z</time></trkpt><trkpt lat="45.6453576" lon="11.0207082"><ele>1075.0</ele><time>2026-04-06T10:48:21.002Z</time></trkpt><trkpt lat="45.6452848" lon="11.02084"><ele>1075.0</ele><time>2026-04-06T10:48:22.002Z</time></trkpt><trkpt lat="45.6452425" lon="11.0209911"><ele>1075.0</ele><time>2026-04-06T10:48:23.002Z</time></trkpt><trkpt lat="45.6452206" lon="11.0211733"><ele>1075.0</ele><time>2026-04-06T10:48:24.002Z</time></trkpt><trkpt lat="45.6451927" lon="11.0213776"><ele>1075.0</ele><time>2026-04-06T10:48:25.003Z</time></trkpt><trkpt lat="45.6451406" lon="11.0215912"><ele>1076.5</ele><time>2026-04-06T10:48:26.003Z</time></trkpt><trkpt lat="45.6450952" lon="11.021777"><ele>1078.0</ele><time>2026-04-06T10:48:27.003Z</time></trkpt><trkpt lat="45.645059" lon="11.0219538"><ele>1079.5</ele><time>2026-04-06T10:48:28.003Z</time></trkpt><trkpt lat="45.6450453" lon="11.0221211"><ele>1081.0</ele><time>2026-04-06T10:48:29.002Z</time></trkpt><trkpt lat="45.6450515" lon="11.0223075"><ele>1082.5</ele><time>2026-04-06T10:48:30.003Z</time></trkpt><trkpt lat="45.6451075" lon="11.0224922"><ele>1084.0</ele><time>2026-04-06T10:48:31.002Z</time></trkpt><trkpt lat="45.6451712" lon="11.0226734"><ele>1085.5</ele><time>2026-04-06T10:48:32.003Z</time></trkpt><trkpt lat="45.6452743" lon="11.0228555"><ele>1087.0</ele><time>2026-04-06T10:48:33.002Z</time></trkpt><trkpt lat="45.6453868" lon="11.0230107"><ele>1091.6</ele><time>2026-04-06T10:48:34.002Z</time></trkpt><trkpt lat="45.6454731" lon="11.0231386"><ele>1096.2</ele><time>2026-04-06T10:48:35.002Z</time></trkpt><trkpt lat="45.6455452" lon="11.023262"><ele>1100.8</ele><time>2026-04-06T10:48:36.002Z</time></trkpt><trkpt lat="45.6455958" lon="11.0233827"><ele>1105.4</ele><time>2026-04-06T10:48:37.002Z</time></trkpt><trkpt lat="45.6456232" lon="11.0235006"><ele>1110.0</ele><time>2026-04-06T10:48:38.003Z</time></trkpt><trkpt lat="45.6456224" lon="11.0236171"><ele>1110.0</ele><time>2026-04-06T10:48:39.003Z</time></trkpt><trkpt lat="45.6455943" lon="11.0237263"><ele>1110.0</ele><time>2026-04-06T10:48:40.003Z</time></trkpt><trkpt lat="45.6455245" lon="11.0238317"><ele>1110.0</ele><time>2026-04-06T10:48:41.002Z</time></trkpt><trkpt lat="45.6454383" lon="11.0239471"><ele>1110.0</ele><time>2026-04-06T10:48:42.003Z</time></trkpt><trkpt lat="45.6453317" lon="11.0240718"><ele>1110.0</ele><time>2026-04-06T10:48:43.002Z</time></trkpt><trkpt lat="45.6452058" lon="11.0241974"><ele>1105.75</ele><time>2026-04-06T10:48:44.002Z</time></trkpt><trkpt lat="45.645091" lon="11.0242927"><ele>1101.5</ele><time>2026-04-06T10:48:45.002Z</time></trkpt><trkpt lat="45.6449763" lon="11.0243662"><ele>1097.25</ele><time>2026-04-06T10:48:46.002Z</time></trkpt><trkpt lat="45.644864" lon="11.0243889"><ele>1093.0</ele><time>2026-04-06T10:48:47.003Z</time></trkpt><trkpt lat="45.6447469" lon="11.0243816"><ele>1093.0</ele><time>2026-04-06T10:48:48.002Z</time></trkpt><trkpt lat="45.6446191" lon="11.0243662"><ele>1093.0</ele><time>2026-04-06T10:48:49.002Z</time></trkpt><trkpt lat="45.644507" lon="11.0243559"><ele>1093.0</ele><time>2026-04-06T10:48:50.003Z</time></trkpt><trkpt lat="45.6444093" lon="11.0243667"><ele>1093.0</ele><time>2026-04-06T10:48:51.002Z</time></trkpt><trkpt lat="45.6443085" lon="11.0244217"><ele>1093.0</ele><time>2026-04-06T10:48:52.002Z</time></trkpt><trkpt lat="45.6441953" lon="11.0245162"><ele>1094.6666666666665</ele><time>2026-04-06T10:48:53.003Z</time></trkpt><trkpt lat="45.6440647" lon="11.0246431"><ele>1096.3333333333333</ele><time>2026-04-06T10:48:54.003Z</time></trkpt><trkpt lat="45.6439158" lon="11.0247875"><ele>1098.0</ele><time>2026-04-06T10:48:55.002Z</time></trkpt><trkpt lat="45.6437705" lon="11.0249233"><ele>1096.0</ele><time>2026-04-06T10:48:56.002Z</time></trkpt><trkpt lat="45.643612" lon="11.0250701"><ele>1094.0</ele><time>2026-04-06T10:48:57.003Z</time></trkpt><trkpt lat="45.6434497" lon="11.0252168"><ele>1092.0</ele><time>2026-04-06T10:48:58.003Z</time></trkpt><trkpt lat="45.6433" lon="11.0253508"><ele>1092.0</ele><time>2026-04-06T10:48:59.002Z</time></trkpt><trkpt lat="45.6431585" lon="11.0254882"><ele>1092.0</ele><time>2026-04-06T10:49:00.002Z</time></trkpt><trkpt lat="45.6430258" lon="11.0256407"><ele>1092.0</ele><time>2026-04-06T10:49:01.003Z</time></trkpt><trkpt lat="45.6429053" lon="11.025811"><ele>1092.3333333333333</ele><time>2026-04-06T10:49:02.003Z</time></trkpt><trkpt lat="45.6427923" lon="11.0259677"><ele>1092.6666666666665</ele><time>2026-04-06T10:49:03.003Z</time></trkpt><trkpt lat="45.642671" lon="11.026098"><ele>1093.0</ele><time>2026-04-06T10:49:04.002Z</time></trkpt><trkpt lat="45.6425331" lon="11.0262035"><ele>1093.0</ele><time>2026-04-06T10:49:05.003Z</time></trkpt><trkpt lat="45.6423808" lon="11.0262859"><ele>1093.0</ele><time>2026-04-06T10:49:06.002Z</time></trkpt><trkpt lat="45.6422174" lon="11.0263602"><ele>1093.0</ele><time>2026-04-06T10:49:07.003Z</time></trkpt><trkpt lat="45.6420487" lon="11.0264459"><ele>1095.6666666666665</ele><time>2026-04-06T10:49:08.003Z</time></trkpt><trkpt lat="45.6418957" lon="11.0265357"><ele>1098.3333333333333</ele><time>2026-04-06T10:49:09.002Z</time></trkpt><trkpt lat="45.6417493" lon="11.0266201"><ele>1101.0</ele><time>2026-04-06T10:49:10.002Z</time></trkpt><trkpt lat="45.6416112" lon="11.0266984"><ele>1101.0</ele><time>2026-04-06T10:49:11.002Z</time></trkpt><trkpt lat="45.6414847" lon="11.0267803"><ele>1101.0</ele><time>2026-04-06T10:49:12.003Z</time></trkpt><trkpt lat="45.6413778" lon="11.0268787"><ele>1101.0</ele><time>2026-04-06T10:49:13.002Z</time></trkpt><trkpt lat="45.6412909" lon="11.0270099"><ele>1101.0</ele><time>2026-04-06T10:49:14.002Z</time></trkpt><trkpt lat="45.6412111" lon="11.0271748"><ele>1100.0</ele><time>2026-04-06T10:49:15.002Z</time></trkpt><trkpt lat="45.6411255" lon="11.0273597"><ele>1099.0</ele><time>2026-04-06T10:49:16.003Z</time></trkpt><trkpt lat="45.6410341" lon="11.0275676"><ele>1098.0</ele><time>2026-04-06T10:49:17.002Z</time></trkpt><trkpt lat="45.6409456" lon="11.0277785"><ele>1101.0</ele><time>2026-04-06T10:49:18.002Z</time></trkpt><trkpt lat="45.6408652" lon="11.0279736"><ele>1104.0</ele><time>2026-04-06T10:49:19.002Z</time></trkpt><trkpt lat="45.6407817" lon="11.0281799"><ele>1107.0</ele><time>2026-04-06T10:49:20.002Z</time></trkpt><trkpt lat="45.6407022" lon="11.0283976"><ele>1113.0</ele><time>2026-04-06T10:49:21.002Z</time></trkpt><trkpt lat="45.6406266" lon="11.0286082"><ele>1119.0</ele><time>2026-04-06T10:49:22.002Z</time></trkpt><trkpt lat="45.640559" lon="11.0288232"><ele>1125.0</ele><time>2026-04-06T10:49:23.003Z</time></trkpt><trkpt lat="45.6405069" lon="11.0290442"><ele>1130.3333333333333</ele><time>2026-04-06T10:49:24.002Z</time></trkpt><trkpt lat="45.6404733" lon="11.0292745"><ele>1135.6666666666665</ele><time>2026-04-06T10:49:25.003Z</time></trkpt><trkpt lat="45.6404517" lon="11.0294952"><ele>1141.0</ele><time>2026-04-06T10:49:26.003Z</time></trkpt><trkpt lat="45.6404322" lon="11.0297038"><ele>1141.0</ele><time>2026-04-06T10:49:27.002Z</time></trkpt><trkpt lat="45.6404148" lon="11.0298972"><ele>1141.0</ele><time>2026-04-06T10:49:28.002Z</time></trkpt><trkpt lat="45.6403975" lon="11.0300736"><ele>1141.0</ele><time>2026-04-06T10:49:29.003Z</time></trkpt><trkpt lat="45.6403775" lon="11.0302495"><ele>1141.0</ele><time>2026-04-06T10:49:30.003Z</time></trkpt><trkpt lat="45.6403609" lon="11.0304115"><ele>1143.75</ele><time>2026-04-06T10:49:31.002Z</time></trkpt><trkpt lat="45.6403426" lon="11.0305748"><ele>1146.5</ele><time>2026-04-06T10:49:32.002Z</time></trkpt><trkpt lat="45.640314" lon="11.0307372"><ele>1149.25</ele><time>2026-04-06T10:49:33.002Z</time></trkpt><trkpt lat="45.6402641" lon="11.0308874"><ele>1152.0</ele><time>2026-04-06T10:49:34.003Z</time></trkpt><trkpt lat="45.6401886" lon="11.0310166"><ele>1145.5</ele><time>2026-04-06T10:49:35.003Z</time></trkpt><trkpt lat="45.6400858" lon="11.0311322"><ele>1139.0</ele><time>2026-04-06T10:49:36.003Z</time></trkpt><trkpt lat="45.6399558" lon="11.0312272"><ele>1132.5</ele><time>2026-04-06T10:49:37.003Z</time></trkpt><trkpt lat="45.6398341" lon="11.0312812"><ele>1126.0</ele><time>2026-04-06T10:49:38.002Z</time></trkpt><trkpt lat="45.6397231" lon="11.0313185"><ele>1126.0</ele><time>2026-04-06T10:49:39.002Z</time></trkpt><trkpt lat="45.6396102" lon="11.0313451"><ele>1126.0</ele><time>2026-04-06T10:49:40.003Z</time></trkpt><trkpt lat="45.6394941" lon="11.0313594"><ele>1126.0</ele><time>2026-04-06T10:49:41.002Z</time></trkpt><trkpt lat="45.6393808" lon="11.031358"><ele>1126.0</ele><time>2026-04-06T10:49:42.002Z</time></trkpt><trkpt lat="45.6392852" lon="11.0313252"><ele>1126.0</ele><time>2026-04-06T10:49:43.002Z</time></trkpt><trkpt lat="45.6391923" lon="11.0312634"><ele>1128.6</ele><time>2026-04-06T10:49:44.002Z</time></trkpt><trkpt lat="45.6390992" lon="11.0311726"><ele>1131.1999999999998</ele><time>2026-04-06T10:49:45.002Z</time></trkpt><trkpt lat="45.6390116" lon="11.0310589"><ele>1133.8000000000002</ele><time>2026-04-06T10:49:46.002Z</time></trkpt><trkpt lat="45.6389357" lon="11.030935"><ele>1136.4</ele><time>2026-04-06T10:49:47.003Z</time></trkpt><trkpt lat="45.6388777" lon="11.030829"><ele>1139.0</ele><time>2026-04-06T10:49:48.002Z</time></trkpt><trkpt lat="45.6388282" lon="11.0307419"><ele>1140.1666666666667</ele><time>2026-04-06T10:49:49.003Z</time></trkpt><trkpt lat="45.638764" lon="11.0306542"><ele>1141.3333333333335</ele><time>2026-04-06T10:49:51.003Z</time></trkpt><trkpt lat="45.6386901" lon="11.0306066"><ele>1142.5</ele><time>2026-04-06T10:49:55.003Z</time></trkpt><trkpt lat="45.6386255" lon="11.0306045"><ele>1143.6666666666667</ele><time>2026-04-06T10:49:59.002Z</time></trkpt><trkpt lat="45.6385625" lon="11.0306398"><ele>1144.8333333333333</ele><time>2026-04-06T10:50:12.002Z</time></trkpt><trkpt lat="45.6384488" lon="11.0307047"><ele>1146.0</ele><time>2026-04-06T10:50:14.003Z</time></trkpt><trkpt lat="45.6383787" lon="11.0307599"><ele>1146.0</ele><time>2026-04-06T10:50:15.002Z</time></trkpt><trkpt lat="45.6382976" lon="11.0308155"><ele>1146.0</ele><time>2026-04-06T10:50:16.003Z</time></trkpt><trkpt lat="45.6382036" lon="11.0308762"><ele>1146.0</ele><time>2026-04-06T10:50:17.002Z</time></trkpt><trkpt lat="45.6381078" lon="11.0309406"><ele>1146.0</ele><time>2026-04-06T10:50:18.002Z</time></trkpt><trkpt lat="45.6380116" lon="11.0310024"><ele>1146.0</ele><time>2026-04-06T10:50:19.003Z</time></trkpt><trkpt lat="45.637915" lon="11.0310658"><ele>1146.0</ele><time>2026-04-06T10:50:20.002Z</time></trkpt><trkpt lat="45.6378078" lon="11.0311279"><ele>1146.0</ele><time>2026-04-06T10:50:21.002Z</time></trkpt><trkpt lat="45.6376968" lon="11.0311901"><ele>1146.0</ele><time>2026-04-06T10:50:22.003Z</time></trkpt><trkpt lat="45.6375826" lon="11.0312428"><ele>1146.0</ele><time>2026-04-06T10:50:23.002Z</time></trkpt><trkpt lat="45.6374654" lon="11.0312933"><ele>1145.25</ele><time>2026-04-06T10:50:24.003Z</time></trkpt><trkpt lat="45.6373507" lon="11.0313406"><ele>1144.5</ele><time>2026-04-06T10:50:25.002Z</time></trkpt><trkpt lat="45.6372291" lon="11.0313879"><ele>1143.75</ele><time>2026-04-06T10:50:26.002Z</time></trkpt><trkpt lat="45.6371089" lon="11.0314235"><ele>1143.0</ele><time>2026-04-06T10:50:27.002Z</time></trkpt><trkpt lat="45.6369779" lon="11.0314513"><ele>1139.0</ele><time>2026-04-06T10:50:28.002Z</time></trkpt><trkpt lat="45.6368375" lon="11.0314755"><ele>1135.0</ele><time>2026-04-06T10:50:29.002Z</time></trkpt><trkpt lat="45.6366906" lon="11.0314779"><ele>1131.0</ele><time>2026-04-06T10:50:30.002Z</time></trkpt><trkpt lat="45.6365252" lon="11.0314418"><ele>1131.0</ele><time>2026-04-06T10:50:31.003Z</time></trkpt><trkpt lat="45.6363606" lon="11.0314013"><ele>1131.0</ele><time>2026-04-06T10:50:32.002Z</time></trkpt><trkpt lat="45.6362075" lon="11.0313405"><ele>1131.0</ele><time>2026-04-06T10:50:33.002Z</time></trkpt><trkpt lat="45.6360574" lon="11.0312827"><ele>1130.0</ele><time>2026-04-06T10:50:34.002Z</time></trkpt><trkpt lat="45.6359232" lon="11.0312576"><ele>1129.0</ele><time>2026-04-06T10:50:35.003Z</time></trkpt><trkpt lat="45.6357889" lon="11.0312496"><ele>1128.0</ele><time>2026-04-06T10:50:36.002Z</time></trkpt><trkpt lat="45.635662" lon="11.0312483"><ele>1127.0</ele><time>2026-04-06T10:50:37.002Z</time></trkpt><trkpt lat="45.6355405" lon="11.0312939"><ele>1127.0</ele><time>2026-04-06T10:50:38.002Z</time></trkpt><trkpt lat="45.6354493" lon="11.0313641"><ele>1127.0</ele><time>2026-04-06T10:50:39.003Z</time></trkpt><trkpt lat="45.6353671" lon="11.0314591"><ele>1127.0</ele><time>2026-04-06T10:50:40.002Z</time></trkpt><trkpt lat="45.6352735" lon="11.0315283"><ele>1127.0</ele><time>2026-04-06T10:50:41.002Z</time></trkpt><trkpt lat="45.6352763" lon="11.0316737"><ele>1127.0</ele><time>2026-04-06T10:50:42.002Z</time></trkpt><trkpt lat="45.635259" lon="11.0317838"><ele>1126.8</ele><time>2026-04-06T10:50:43.002Z</time></trkpt><trkpt lat="45.6352728" lon="11.0319034"><ele>1126.6</ele><time>2026-04-06T10:50:44.003Z</time></trkpt><trkpt lat="45.6353235" lon="11.0320197"><ele>1126.3999999999999</ele><time>2026-04-06T10:50:45.002Z</time></trkpt><trkpt lat="45.6353994" lon="11.0321443"><ele>1126.2</ele><time>2026-04-06T10:50:46.003Z</time></trkpt><trkpt lat="45.6354936" lon="11.0322627"><ele>1126.0</ele><time>2026-04-06T10:50:47.003Z</time></trkpt><trkpt lat="45.6356062" lon="11.0323667"><ele>1130.25</ele><time>2026-04-06T10:50:48.003Z</time></trkpt><trkpt lat="45.6356988" lon="11.032494"><ele>1134.5</ele><time>2026-04-06T10:50:49.003Z</time></trkpt><trkpt lat="45.6357729" lon="11.0326257"><ele>1138.75</ele><time>2026-04-06T10:50:50.003Z</time></trkpt><trkpt lat="45.6358238" lon="11.0327573"><ele>1143.0</ele><time>2026-04-06T10:50:51.003Z</time></trkpt><trkpt lat="45.6358509" lon="11.0329017"><ele>1143.0</ele><time>2026-04-06T10:50:52.003Z</time></trkpt><trkpt lat="45.6358571" lon="11.0330329"><ele>1143.0</ele><time>2026-04-06T10:50:53.003Z</time></trkpt><trkpt lat="45.6358467" lon="11.0331531"><ele>1143.0</ele><time>2026-04-06T10:50:54.002Z</time></trkpt><trkpt lat="45.6357778" lon="11.0332129"><ele>1143.0</ele><time>2026-04-06T10:50:55.002Z</time></trkpt><trkpt lat="45.6356928" lon="11.0332414"><ele>1143.0</ele><time>2026-04-06T10:50:56.002Z</time></trkpt><trkpt lat="45.6355811" lon="11.0332216"><ele>1143.0</ele><time>2026-04-06T10:50:57.003Z</time></trkpt><trkpt lat="45.6354408" lon="11.033175"><ele>1143.0</ele><time>2026-04-06T10:50:58.002Z</time></trkpt><trkpt lat="45.6352902" lon="11.0331314"><ele>1143.0</ele><time>2026-04-06T10:50:59.002Z</time></trkpt><trkpt lat="45.6351225" lon="11.0330723"><ele>1138.0</ele><time>2026-04-06T10:51:00.003Z</time></trkpt><trkpt lat="45.6349721" lon="11.0330213"><ele>1133.0</ele><time>2026-04-06T10:51:01.002Z</time></trkpt><trkpt lat="45.6348313" lon="11.0329802"><ele>1128.0</ele><time>2026-04-06T10:51:02.003Z</time></trkpt><trkpt lat="45.6347024" lon="11.0329835"><ele>1123.0</ele><time>2026-04-06T10:51:03.002Z</time></trkpt><trkpt lat="45.6345635" lon="11.0330201"><ele>1120.75</ele><time>2026-04-06T10:51:04.003Z</time></trkpt><trkpt lat="45.6344242" lon="11.033054"><ele>1118.5</ele><time>2026-04-06T10:51:05.002Z</time></trkpt><trkpt lat="45.6342852" lon="11.0329976"><ele>1116.25</ele><time>2026-04-06T10:51:06.003Z</time></trkpt><trkpt lat="45.6341486" lon="11.0329126"><ele>1114.0</ele><time>2026-04-06T10:51:07.003Z</time></trkpt><trkpt lat="45.6340175" lon="11.0328294"><ele>1114.0</ele><time>2026-04-06T10:51:08.003Z</time></trkpt><trkpt lat="45.6338979" lon="11.0327727"><ele>1114.0</ele><time>2026-04-06T10:51:09.002Z</time></trkpt><trkpt lat="45.6337775" lon="11.0327657"><ele>1114.0</ele><time>2026-04-06T10:51:10.002Z</time></trkpt><trkpt lat="45.6336547" lon="11.0327937"><ele>1114.0</ele><time>2026-04-06T10:51:11.002Z</time></trkpt><trkpt lat="45.6335482" lon="11.0328264"><ele>1115.2</ele><time>2026-04-06T10:51:12.002Z</time></trkpt><trkpt lat="45.6334412" lon="11.0328419"><ele>1116.4</ele><time>2026-04-06T10:51:13.003Z</time></trkpt><trkpt lat="45.6333437" lon="11.0328348"><ele>1117.6</ele><time>2026-04-06T10:51:14.002Z</time></trkpt><trkpt lat="45.6332633" lon="11.032778"><ele>1118.8</ele><time>2026-04-06T10:51:15.002Z</time></trkpt><trkpt lat="45.6332073" lon="11.0326871"><ele>1120.0</ele><time>2026-04-06T10:51:16.002Z</time></trkpt><trkpt lat="45.6331808" lon="11.0325517"><ele>1120.75</ele><time>2026-04-06T10:51:17.003Z</time></trkpt><trkpt lat="45.633187" lon="11.032379"><ele>1121.5</ele><time>2026-04-06T10:51:18.003Z</time></trkpt><trkpt lat="45.6332168" lon="11.032199"><ele>1122.25</ele><time>2026-04-06T10:51:19.003Z</time></trkpt><trkpt lat="45.6332638" lon="11.0319886"><ele>1123.0</ele><time>2026-04-06T10:51:20.002Z</time></trkpt><trkpt lat="45.6333234" lon="11.0317474"><ele>1120.25</ele><time>2026-04-06T10:51:21.002Z</time></trkpt><trkpt lat="45.6333784" lon="11.0315202"><ele>1117.5</ele><time>2026-04-06T10:51:22.002Z</time></trkpt><trkpt lat="45.6334173" lon="11.0313187"><ele>1114.75</ele><time>2026-04-06T10:51:23.002Z</time></trkpt><trkpt lat="45.6334398" lon="11.0311395"><ele>1112.0</ele><time>2026-04-06T10:51:24.002Z</time></trkpt><trkpt lat="45.6334446" lon="11.0309617"><ele>1112.0</ele><time>2026-04-06T10:51:25.002Z</time></trkpt><trkpt lat="45.633362" lon="11.0308353"><ele>1112.0</ele><time>2026-04-06T10:51:26.002Z</time></trkpt><trkpt lat="45.6332831" lon="11.0307272"><ele>1112.0</ele><time>2026-04-06T10:51:27.003Z</time></trkpt><trkpt lat="45.6331749" lon="11.0306591"><ele>1112.0</ele><time>2026-04-06T10:51:28.002Z</time></trkpt><trkpt lat="45.6330386" lon="11.0306072"><ele>1109.0</ele><time>2026-04-06T10:51:29.003Z</time></trkpt><trkpt lat="45.6328801" lon="11.0305498"><ele>1106.0</ele><time>2026-04-06T10:51:30.003Z</time></trkpt><trkpt lat="45.6327137" lon="11.0304985"><ele>1103.0</ele><time>2026-04-06T10:51:31.002Z</time></trkpt><trkpt lat="45.6325293" lon="11.0304612"><ele>1103.0</ele><time>2026-04-06T10:51:32.002Z</time></trkpt><trkpt lat="45.6323547" lon="11.030439"><ele>1103.0</ele><time>2026-04-06T10:51:33.002Z</time></trkpt><trkpt lat="45.6321986" lon="11.0304185"><ele>1103.0</ele><time>2026-04-06T10:51:34.002Z</time></trkpt><trkpt lat="45.6320467" lon="11.0303855"><ele>1104.5</ele><time>2026-04-06T10:51:35.003Z</time></trkpt><trkpt lat="45.6319038" lon="11.0303269"><ele>1106.0</ele><time>2026-04-06T10:51:36.002Z</time></trkpt><trkpt lat="45.6317742" lon="11.0302431"><ele>1107.5</ele><time>2026-04-06T10:51:37.002Z</time></trkpt><trkpt lat="45.6316645" lon="11.0301431"><ele>1109.0</ele><time>2026-04-06T10:51:38.002Z</time></trkpt><trkpt lat="45.6315654" lon="11.0300412"><ele>1109.6000000000001</ele><time>2026-04-06T10:51:39.003Z</time></trkpt><trkpt lat="45.6314678" lon="11.0299473"><ele>1110.2</ele><time>2026-04-06T10:51:40.002Z</time></trkpt><trkpt lat="45.6313723" lon="11.0298766"><ele>1110.8000000000002</ele><time>2026-04-06T10:51:41.002Z</time></trkpt><trkpt lat="45.6312765" lon="11.0298395"><ele>1111.4</ele><time>2026-04-06T10:51:42.002Z</time></trkpt><trkpt lat="45.6311862" lon="11.0298385"><ele>1112.0</ele><time>2026-04-06T10:51:43.003Z</time></trkpt><trkpt lat="45.6311036" lon="11.0298636"><ele>1111.0</ele><time>2026-04-06T10:51:44.002Z</time></trkpt><trkpt lat="45.6310325" lon="11.029946"><ele>1110.0</ele><time>2026-04-06T10:51:45.003Z</time></trkpt><trkpt lat="45.6309672" lon="11.0300582"><ele>1109.0</ele><time>2026-04-06T10:51:46.002Z</time></trkpt><trkpt lat="45.6309103" lon="11.0301962"><ele>1108.0</ele><time>2026-04-06T10:51:47.003Z</time></trkpt><trkpt lat="45.6308533" lon="11.0303256"><ele>1107.0</ele><time>2026-04-06T10:51:48.002Z</time></trkpt><trkpt lat="45.6307891" lon="11.0304434"><ele>1107.0</ele><time>2026-04-06T10:51:49.003Z</time></trkpt><trkpt lat="45.6307137" lon="11.0305501"><ele>1107.0</ele><time>2026-04-06T10:51:50.002Z</time></trkpt><trkpt lat="45.6306317" lon="11.030638"><ele>1107.0</ele><time>2026-04-06T10:51:51.003Z</time></trkpt><trkpt lat="45.6305391" lon="11.0307138"><ele>1107.0</ele><time>2026-04-06T10:51:52.002Z</time></trkpt><trkpt lat="45.6304415" lon="11.0307841"><ele>1107.0</ele><time>2026-04-06T10:51:53.003Z</time></trkpt><trkpt lat="45.6303359" lon="11.0308531"><ele>1107.0</ele><time>2026-04-06T10:51:54.003Z</time></trkpt><trkpt lat="45.6302237" lon="11.0309104"><ele>1107.0</ele><time>2026-04-06T10:51:55.003Z</time></trkpt><trkpt lat="45.630115" lon="11.0309467"><ele>1107.0</ele><time>2026-04-06T10:51:56.003Z</time></trkpt><trkpt lat="45.6300153" lon="11.0309885"><ele>1107.0</ele><time>2026-04-06T10:51:57.002Z</time></trkpt><trkpt lat="45.629932" lon="11.0310496"><ele>1107.0</ele><time>2026-04-06T10:51:58.003Z</time></trkpt><trkpt lat="45.6298664" lon="11.0311354"><ele>1107.0</ele><time>2026-04-06T10:51:59.003Z</time></trkpt><trkpt lat="45.6298191" lon="11.0312537"><ele>1107.0</ele><time>2026-04-06T10:52:00.002Z</time></trkpt><trkpt lat="45.6297881" lon="11.0313968"><ele>1107.0</ele><time>2026-04-06T10:52:01.002Z</time></trkpt><trkpt lat="45.6297591" lon="11.0315365"><ele>1107.0</ele><time>2026-04-06T10:52:02.002Z</time></trkpt><trkpt lat="45.6297264" lon="11.0316705"><ele>1107.0</ele><time>2026-04-06T10:52:03.003Z</time></trkpt><trkpt lat="45.629681" lon="11.0317738"><ele>1106.5</ele><time>2026-04-06T10:52:04.003Z</time></trkpt><trkpt lat="45.6296319" lon="11.0318583"><ele>1106.0</ele><time>2026-04-06T10:52:05.003Z</time></trkpt><trkpt lat="45.6295761" lon="11.0319207"><ele>1105.5</ele><time>2026-04-06T10:52:06.002Z</time></trkpt><trkpt lat="45.6295053" lon="11.0319775"><ele>1105.0</ele><time>2026-04-06T10:52:07.002Z</time></trkpt><trkpt lat="45.6294145" lon="11.0320018"><ele>1104.5</ele><time>2026-04-06T10:52:08.002Z</time></trkpt><trkpt lat="45.6293232" lon="11.0319968"><ele>1104.0</ele><time>2026-04-06T10:52:09.002Z</time></trkpt><trkpt lat="45.6292275" lon="11.0319725"><ele>1104.0</ele><time>2026-04-06T10:52:10.003Z</time></trkpt><trkpt lat="45.6291287" lon="11.0319383"><ele>1104.0</ele><time>2026-04-06T10:52:11.002Z</time></trkpt><trkpt lat="45.6290397" lon="11.0319193"><ele>1104.0</ele><time>2026-04-06T10:52:12.002Z</time></trkpt><trkpt lat="45.6289542" lon="11.0319299"><ele>1104.0</ele><time>2026-04-06T10:52:13.002Z</time></trkpt><trkpt lat="45.6288682" lon="11.0319651"><ele>1104.0</ele><time>2026-04-06T10:52:14.002Z</time></trkpt><trkpt lat="45.6287845" lon="11.032032"><ele>1104.0</ele><time>2026-04-06T10:52:15.002Z</time></trkpt><trkpt lat="45.6287081" lon="11.0321119"><ele>1104.0</ele><time>2026-04-06T10:52:16.003Z</time></trkpt><trkpt lat="45.6286499" lon="11.0321999"><ele>1104.0</ele><time>2026-04-06T10:52:17.002Z</time></trkpt><trkpt lat="45.6285916" lon="11.0322886"><ele>1104.0</ele><time>2026-04-06T10:52:18.002Z</time></trkpt><trkpt lat="45.6285361" lon="11.0323783"><ele>1104.0</ele><time>2026-04-06T10:52:19.002Z</time></trkpt><trkpt lat="45.6284773" lon="11.0324615"><ele>1104.0</ele><time>2026-04-06T10:52:20.003Z</time></trkpt><trkpt lat="45.6284191" lon="11.0325385"><ele>1104.2857142857142</ele><time>2026-04-06T10:52:21.003Z</time></trkpt><trkpt lat="45.6283539" lon="11.0325744"><ele>1104.5714285714287</ele><time>2026-04-06T10:52:22.002Z</time></trkpt><trkpt lat="45.6282898" lon="11.0326035"><ele>1104.857142857143</ele><time>2026-04-06T10:52:23.003Z</time></trkpt><trkpt lat="45.6282193" lon="11.032596"><ele>1105.142857142857</ele><time>2026-04-06T10:52:24.002Z</time></trkpt><trkpt lat="45.6281515" lon="11.032585"><ele>1105.4285714285716</ele><time>2026-04-06T10:52:25.002Z</time></trkpt><trkpt lat="45.628086" lon="11.0325157"><ele>1105.7142857142858</ele><time>2026-04-06T10:52:26.002Z</time></trkpt><trkpt lat="45.6280374" lon="11.0324458"><ele>1106.0</ele><time>2026-04-06T10:52:27.003Z</time></trkpt><trkpt lat="45.6280065" lon="11.032351"><ele>1106.0</ele><time>2026-04-06T10:52:28.002Z</time></trkpt><trkpt lat="45.6279623" lon="11.0322683"><ele>1106.0</ele><time>2026-04-06T10:52:29.002Z</time></trkpt><trkpt lat="45.6279182" lon="11.0321654"><ele>1106.0</ele><time>2026-04-06T10:52:30.003Z</time></trkpt><trkpt lat="45.6278678" lon="11.0320625"><ele>1106.0</ele><time>2026-04-06T10:52:31.003Z</time></trkpt><trkpt lat="45.6278129" lon="11.0319777"><ele>1106.0</ele><time>2026-04-06T10:52:32.003Z</time></trkpt><trkpt lat="45.6277543" lon="11.0319069"><ele>1106.0</ele><time>2026-04-06T10:52:33.003Z</time></trkpt><trkpt lat="45.6276498" lon="11.0318697"><ele>1106.8</ele><time>2026-04-06T10:52:35.002Z</time></trkpt><trkpt lat="45.6275368" lon="11.0319798"><ele>1107.6</ele><time>2026-04-06T10:52:37.002Z</time></trkpt><trkpt lat="45.6275063" lon="11.0320618"><ele>1108.4</ele><time>2026-04-06T10:52:38.002Z</time></trkpt><trkpt lat="45.6274627" lon="11.0321746"><ele>1109.2</ele><time>2026-04-06T10:52:39.002Z</time></trkpt><trkpt lat="45.627433" lon="11.0322924"><ele>1110.0</ele><time>2026-04-06T10:52:40.002Z</time></trkpt><trkpt lat="45.6273895" lon="11.032419"><ele>1114.4</ele><time>2026-04-06T10:52:41.003Z</time></trkpt><trkpt lat="45.6273372" lon="11.0325187"><ele>1118.8</ele><time>2026-04-06T10:52:42.002Z</time></trkpt><trkpt lat="45.6272667" lon="11.0326108"><ele>1123.2</ele><time>2026-04-06T10:52:43.003Z</time></trkpt><trkpt lat="45.6271869" lon="11.0327015"><ele>1127.6</ele><time>2026-04-06T10:52:44.002Z</time></trkpt><trkpt lat="45.6271006" lon="11.0327796"><ele>1132.0</ele><time>2026-04-06T10:52:45.003Z</time></trkpt><trkpt lat="45.6270108" lon="11.0328362"><ele>1128.2</ele><time>2026-04-06T10:52:46.003Z</time></trkpt><trkpt lat="45.6269236" lon="11.0328763"><ele>1124.4</ele><time>2026-04-06T10:52:47.002Z</time></trkpt><trkpt lat="45.6268347" lon="11.0329033"><ele>1120.6</ele><time>2026-04-06T10:52:48.003Z</time></trkpt><trkpt lat="45.6267474" lon="11.0329279"><ele>1116.8</ele><time>2026-04-06T10:52:49.003Z</time></trkpt><trkpt lat="45.626662" lon="11.0329475"><ele>1113.0</ele><time>2026-04-06T10:52:50.003Z</time></trkpt><trkpt lat="45.6265756" lon="11.0330117"><ele>1113.0</ele><time>2026-04-06T10:52:51.002Z</time></trkpt><trkpt lat="45.6264872" lon="11.0330721"><ele>1113.0</ele><time>2026-04-06T10:52:52.002Z</time></trkpt><trkpt lat="45.6264091" lon="11.0331594"><ele>1113.0</ele><time>2026-04-06T10:52:53.003Z</time></trkpt><trkpt lat="45.6263326" lon="11.033222"><ele>1113.0</ele><time>2026-04-06T10:52:54.002Z</time></trkpt><trkpt lat="45.6262505" lon="11.0332751"><ele>1113.0</ele><time>2026-04-06T10:52:55.003Z</time></trkpt><trkpt lat="45.6261767" lon="11.0333171"><ele>1112.2857142857142</ele><time>2026-04-06T10:52:56.003Z</time></trkpt><trkpt lat="45.6261031" lon="11.0333357"><ele>1111.5714285714284</ele><time>2026-04-06T10:52:57.003Z</time></trkpt><trkpt lat="45.6260313" lon="11.0333395"><ele>1110.857142857143</ele><time>2026-04-06T10:52:58.003Z</time></trkpt><trkpt lat="45.625965" lon="11.0333252"><ele>1110.142857142857</ele><time>2026-04-06T10:52:59.002Z</time></trkpt><trkpt lat="45.6259005" lon="11.0333077"><ele>1109.4285714285713</ele><time>2026-04-06T10:53:00.003Z</time></trkpt><trkpt lat="45.6258358" lon="11.0332739"><ele>1108.7142857142858</ele><time>2026-04-06T10:53:01.002Z</time></trkpt><trkpt lat="45.6257825" lon="11.0332189"><ele>1108.0</ele><time>2026-04-06T10:53:02.003Z</time></trkpt><trkpt lat="45.6257238" lon="11.0331435"><ele>1108.0</ele><time>2026-04-06T10:53:03.002Z</time></trkpt><trkpt lat="45.6256977" lon="11.033057"><ele>1108.0</ele><time>2026-04-06T10:53:04.002Z</time></trkpt><trkpt lat="45.6256601" lon="11.0329591"><ele>1108.0</ele><time>2026-04-06T10:53:05.002Z</time></trkpt><trkpt lat="45.6256302" lon="11.0328723"><ele>1108.0</ele><time>2026-04-06T10:53:06.002Z</time></trkpt><trkpt lat="45.6255888" lon="11.0328007"><ele>1108.0</ele><time>2026-04-06T10:53:07.002Z</time></trkpt><trkpt lat="45.6255439" lon="11.0327233"><ele>1108.0</ele><time>2026-04-06T10:53:08.003Z</time></trkpt><trkpt lat="45.6254853" lon="11.0326715"><ele>1108.0</ele><time>2026-04-06T10:53:09.002Z</time></trkpt><trkpt lat="45.625368" lon="11.0326393"><ele>1110.1666666666665</ele><time>2026-04-06T10:53:11.002Z</time></trkpt><trkpt lat="45.6252608" lon="11.0326463"><ele>1112.3333333333333</ele><time>2026-04-06T10:53:13.003Z</time></trkpt><trkpt lat="45.6251634" lon="11.032636"><ele>1114.5</ele><time>2026-04-06T10:53:15.002Z</time></trkpt><trkpt lat="45.625088" lon="11.0326153"><ele>1116.6666666666667</ele><time>2026-04-06T10:53:17.003Z</time></trkpt><trkpt lat="45.6250206" lon="11.0326592"><ele>1118.8333333333335</ele><time>2026-04-06T10:53:20.002Z</time></trkpt><trkpt lat="45.6250396" lon="11.0327791"><ele>1121.0</ele><time>2026-04-06T10:53:23.002Z</time></trkpt><trkpt lat="45.6251301" lon="11.0328257"><ele>1121.0</ele><time>2026-04-06T10:53:25.002Z</time></trkpt><trkpt lat="45.6252119" lon="11.0328241"><ele>1121.0</ele><time>2026-04-06T10:53:26.002Z</time></trkpt><trkpt lat="45.6252751" lon="11.0328099"><ele>1121.0</ele><time>2026-04-06T10:53:27.003Z</time></trkpt><trkpt lat="45.6253445" lon="11.0327817"><ele>1121.0</ele><time>2026-04-06T10:53:28.002Z</time></trkpt><trkpt lat="45.6254578" lon="11.0328281"><ele>1121.0</ele><time>2026-04-06T10:53:30.003Z</time></trkpt><trkpt lat="45.6254966" lon="11.0329028"><ele>1121.0</ele><time>2026-04-06T10:53:31.002Z</time></trkpt><trkpt lat="45.6255267" lon="11.0330048"><ele>1122.0</ele><time>2026-04-06T10:53:32.002Z</time></trkpt><trkpt lat="45.6255613" lon="11.0331441"><ele>1123.0</ele><time>2026-04-06T10:53:33.003Z</time></trkpt><trkpt lat="45.6256034" lon="11.0332766"><ele>1124.0</ele><time>2026-04-06T10:53:34.003Z</time></trkpt><trkpt lat="45.6256492" lon="11.0333794"><ele>1125.0</ele><time>2026-04-06T10:53:35.003Z</time></trkpt><trkpt lat="45.6256894" lon="11.0334776"><ele>1126.0</ele><time>2026-04-06T10:53:36.002Z</time></trkpt><trkpt lat="45.6257431" lon="11.0335622"><ele>1126.0</ele><time>2026-04-06T10:53:37.003Z</time></trkpt><trkpt lat="45.6258084" lon="11.0336203"><ele>1126.0</ele><time>2026-04-06T10:53:38.003Z</time></trkpt><trkpt lat="45.6258809" lon="11.0336619"><ele>1126.0</ele><time>2026-04-06T10:53:39.002Z</time></trkpt><trkpt lat="45.6259602" lon="11.0336699"><ele>1126.0</ele><time>2026-04-06T10:53:40.002Z</time></trkpt><trkpt lat="45.6260424" lon="11.033673"><ele>1126.0</ele><time>2026-04-06T10:53:41.002Z</time></trkpt><trkpt lat="45.626144" lon="11.0336748"><ele>1126.0</ele><time>2026-04-06T10:53:43.002Z</time></trkpt><trkpt lat="45.6262539" lon="11.0337437"><ele>1127.3333333333333</ele><time>2026-04-06T10:53:45.003Z</time></trkpt><trkpt lat="45.6263057" lon="11.033801"><ele>1128.6666666666665</ele><time>2026-04-06T10:53:46.002Z</time></trkpt><trkpt lat="45.6263616" lon="11.0338587"><ele>1130.0</ele><time>2026-04-06T10:53:47.002Z</time></trkpt><trkpt lat="45.6264183" lon="11.0339271"><ele>1131.3333333333333</ele><time>2026-04-06T10:53:48.002Z</time></trkpt><trkpt lat="45.6264621" lon="11.0339945"><ele>1132.6666666666667</ele><time>2026-04-06T10:53:49.003Z</time></trkpt><trkpt lat="45.6265348" lon="11.0341276"><ele>1134.0</ele><time>2026-04-06T10:53:51.003Z</time></trkpt><trkpt lat="45.6265755" lon="11.0342366"><ele>1135.8</ele><time>2026-04-06T10:53:53.003Z</time></trkpt><trkpt lat="45.6266329" lon="11.0343798"><ele>1137.6000000000001</ele><time>2026-04-06T10:53:55.003Z</time></trkpt><trkpt lat="45.6266803" lon="11.0344896"><ele>1139.4</ele><time>2026-04-06T10:53:56.003Z</time></trkpt><trkpt lat="45.6267314" lon="11.0345979"><ele>1141.2</ele><time>2026-04-06T10:53:57.002Z</time></trkpt><trkpt lat="45.6267959" lon="11.0347213"><ele>1143.0</ele><time>2026-04-06T10:53:58.003Z</time></trkpt><trkpt lat="45.6268613" lon="11.0348238"><ele>1143.0</ele><time>2026-04-06T10:53:59.002Z</time></trkpt><trkpt lat="45.6269386" lon="11.0349254"><ele>1143.0</ele><time>2026-04-06T10:54:00.002Z</time></trkpt><trkpt lat="45.6270373" lon="11.0350083"><ele>1143.0</ele><time>2026-04-06T10:54:01.002Z</time></trkpt><trkpt lat="45.6271527" lon="11.0350795"><ele>1143.0</ele><time>2026-04-06T10:54:02.002Z</time></trkpt><trkpt lat="45.627274" lon="11.035138"><ele>1144.25</ele><time>2026-04-06T10:54:03.002Z</time></trkpt><trkpt lat="45.6273917" lon="11.0351833"><ele>1145.5</ele><time>2026-04-06T10:54:04.003Z</time></trkpt><trkpt lat="45.6275254" lon="11.0351967"><ele>1146.75</ele><time>2026-04-06T10:54:05.003Z</time></trkpt><trkpt lat="45.6276573" lon="11.0351971"><ele>1148.0</ele><time>2026-04-06T10:54:06.002Z</time></trkpt><trkpt lat="45.6278009" lon="11.0351915"><ele>1150.5</ele><time>2026-04-06T10:54:07.003Z</time></trkpt><trkpt lat="45.6279519" lon="11.035138"><ele>1153.0</ele><time>2026-04-06T10:54:08.003Z</time></trkpt><trkpt lat="45.6280745" lon="11.0350994"><ele>1155.5</ele><time>2026-04-06T10:54:09.002Z</time></trkpt><trkpt lat="45.6281867" lon="11.0350618"><ele>1158.0</ele><time>2026-04-06T10:54:10.002Z</time></trkpt><trkpt lat="45.6282702" lon="11.0350504"><ele>1158.0</ele><time>2026-04-06T10:54:11.003Z</time></trkpt><trkpt lat="45.628349" lon="11.0350521"><ele>1158.0</ele><time>2026-04-06T10:54:12.002Z</time></trkpt><trkpt lat="45.6284186" lon="11.0351722"><ele>1158.0</ele><time>2026-04-06T10:54:14.002Z</time></trkpt><trkpt lat="45.6283645" lon="11.0353368"><ele>1158.0</ele><time>2026-04-06T10:54:16.002Z</time></trkpt><trkpt lat="45.6282938" lon="11.0354298"><ele>1158.0</ele><time>2026-04-06T10:54:17.002Z</time></trkpt><trkpt lat="45.6282108" lon="11.0355669"><ele>1158.0</ele><time>2026-04-06T10:54:18.003Z</time></trkpt><trkpt lat="45.6281291" lon="11.035702"><ele>1158.0</ele><time>2026-04-06T10:54:19.003Z</time></trkpt><trkpt lat="45.6280696" lon="11.0358994"><ele>1158.0</ele><time>2026-04-06T10:54:20.003Z</time></trkpt><trkpt lat="45.6280112" lon="11.0360732"><ele>1158.0</ele><time>2026-04-06T10:54:21.002Z</time></trkpt><trkpt lat="45.6279582" lon="11.036248"><ele>1158.8333333333333</ele><time>2026-04-06T10:54:22.002Z</time></trkpt><trkpt lat="45.6279233" lon="11.0364002"><ele>1159.6666666666667</ele><time>2026-04-06T10:54:23.003Z</time></trkpt><trkpt lat="45.6279272" lon="11.0365183"><ele>1160.5</ele><time>2026-04-06T10:54:24.002Z</time></trkpt><trkpt lat="45.6279449" lon="11.036628"><ele>1161.3333333333335</ele><time>2026-04-06T10:54:25.003Z</time></trkpt><trkpt lat="45.6279935" lon="11.036699"><ele>1162.1666666666667</ele><time>2026-04-06T10:54:26.002Z</time></trkpt><trkpt lat="45.6280689" lon="11.036741"><ele>1163.0</ele><time>2026-04-06T10:54:27.002Z</time></trkpt><trkpt lat="45.628174" lon="11.0367602"><ele>1163.0</ele><time>2026-04-06T10:54:28.003Z</time></trkpt><trkpt lat="45.6283003" lon="11.0367773"><ele>1163.0</ele><time>2026-04-06T10:54:29.003Z</time></trkpt><trkpt lat="45.6284391" lon="11.0368054"><ele>1163.0</ele><time>2026-04-06T10:54:30.003Z</time></trkpt><trkpt lat="45.6285679" lon="11.0368387"><ele>1163.0</ele><time>2026-04-06T10:54:31.003Z</time></trkpt><trkpt lat="45.6286747" lon="11.0368957"><ele>1166.6</ele><time>2026-04-06T10:54:32.002Z</time></trkpt><trkpt lat="45.6287543" lon="11.0369741"><ele>1170.1999999999998</ele><time>2026-04-06T10:54:33.003Z</time></trkpt><trkpt lat="45.6287988" lon="11.0370824"><ele>1173.8</ele><time>2026-04-06T10:54:34.002Z</time></trkpt><trkpt lat="45.6288163" lon="11.0372185"><ele>1177.3999999999999</ele><time>2026-04-06T10:54:35.003Z</time></trkpt><trkpt lat="45.6288055" lon="11.037386"><ele>1181.0</ele><time>2026-04-06T10:54:36.002Z</time></trkpt><trkpt lat="45.628781" lon="11.0375757"><ele>1181.0</ele><time>2026-04-06T10:54:37.002Z</time></trkpt><trkpt lat="45.6287458" lon="11.0377909"><ele>1181.0</ele><time>2026-04-06T10:54:38.002Z</time></trkpt><trkpt lat="45.6287183" lon="11.037976"><ele>1181.0</ele><time>2026-04-06T10:54:39.003Z</time></trkpt><trkpt lat="45.6287009" lon="11.0381218"><ele>1181.0</ele><time>2026-04-06T10:54:40.003Z</time></trkpt><trkpt lat="45.6286975" lon="11.0382504"><ele>1180.2</ele><time>2026-04-06T10:54:41.003Z</time></trkpt><trkpt lat="45.6287458" lon="11.0383325"><ele>1179.3999999999999</ele><time>2026-04-06T10:54:42.003Z</time></trkpt><trkpt lat="45.6288083" lon="11.0384025"><ele>1178.6</ele><time>2026-04-06T10:54:43.002Z</time></trkpt><trkpt lat="45.6288926" lon="11.0384481"><ele>1177.8</ele><time>2026-04-06T10:54:44.002Z</time></trkpt><trkpt lat="45.6289995" lon="11.0384748"><ele>1177.0</ele><time>2026-04-06T10:54:45.002Z</time></trkpt><trkpt lat="45.6291202" lon="11.0384827"><ele>1177.0</ele><time>2026-04-06T10:54:46.003Z</time></trkpt><trkpt lat="45.6292677" lon="11.038501"><ele>1177.0</ele><time>2026-04-06T10:54:47.002Z</time></trkpt><trkpt lat="45.6294379" lon="11.038504"><ele>1177.0</ele><time>2026-04-06T10:54:48.002Z</time></trkpt><trkpt lat="45.629611" lon="11.0385137"><ele>1182.0</ele><time>2026-04-06T10:54:49.002Z</time></trkpt><trkpt lat="45.6297846" lon="11.0385202"><ele>1187.0</ele><time>2026-04-06T10:54:50.003Z</time></trkpt><trkpt lat="45.6299682" lon="11.03852"><ele>1192.0</ele><time>2026-04-06T10:54:51.003Z</time></trkpt><trkpt lat="45.6301714" lon="11.0385272"><ele>1194.6666666666665</ele><time>2026-04-06T10:54:52.003Z</time></trkpt><trkpt lat="45.6303812" lon="11.0385265"><ele>1197.3333333333333</ele><time>2026-04-06T10:54:53.003Z</time></trkpt><trkpt lat="45.6305922" lon="11.0385279"><ele>1200.0</ele><time>2026-04-06T10:54:54.002Z</time></trkpt><trkpt lat="45.6307944" lon="11.0385365"><ele>1200.0</ele><time>2026-04-06T10:54:55.002Z</time></trkpt><trkpt lat="45.6310016" lon="11.0385638"><ele>1200.0</ele><time>2026-04-06T10:54:56.003Z</time></trkpt><trkpt lat="45.6312075" lon="11.0386255"><ele>1200.0</ele><time>2026-04-06T10:54:57.002Z</time></trkpt><trkpt lat="45.6314306" lon="11.0387017"><ele>1204.5</ele><time>2026-04-06T10:54:58.003Z</time></trkpt><trkpt lat="45.6316561" lon="11.0387994"><ele>1209.0</ele><time>2026-04-06T10:54:59.002Z</time></trkpt><trkpt lat="45.6318779" lon="11.0389046"><ele>1212.5</ele><time>2026-04-06T10:55:00.002Z</time></trkpt><trkpt lat="45.6321156" lon="11.039009"><ele>1216.0</ele><time>2026-04-06T10:55:01.002Z</time></trkpt><trkpt lat="45.6323427" lon="11.0390955"><ele>1215.0</ele><time>2026-04-06T10:55:02.002Z</time></trkpt><trkpt lat="45.6325521" lon="11.0391797"><ele>1214.0</ele><time>2026-04-06T10:55:03.002Z</time></trkpt><trkpt lat="45.6327338" lon="11.0392553"><ele>1213.0</ele><time>2026-04-06T10:55:04.002Z</time></trkpt><trkpt lat="45.6328999" lon="11.0393537"><ele>1213.0</ele><time>2026-04-06T10:55:05.002Z</time></trkpt><trkpt lat="45.6330565" lon="11.0394801"><ele>1213.0</ele><time>2026-04-06T10:55:06.002Z</time></trkpt><trkpt lat="45.6332101" lon="11.0396268"><ele>1213.0</ele><time>2026-04-06T10:55:07.002Z</time></trkpt><trkpt lat="45.6333588" lon="11.0397847"><ele>1213.0</ele><time>2026-04-06T10:55:08.002Z</time></trkpt><trkpt lat="45.6335084" lon="11.0399643"><ele>1213.0</ele><time>2026-04-06T10:55:09.002Z</time></trkpt><trkpt lat="45.6336553" lon="11.0401447"><ele>1213.0</ele><time>2026-04-06T10:55:10.002Z</time></trkpt><trkpt lat="45.633788" lon="11.0403026"><ele>1216.0</ele><time>2026-04-06T10:55:11.002Z</time></trkpt><trkpt lat="45.6339057" lon="11.0404478"><ele>1219.0</ele><time>2026-04-06T10:55:12.002Z</time></trkpt><trkpt lat="45.6340178" lon="11.040568"><ele>1222.0</ele><time>2026-04-06T10:55:13.003Z</time></trkpt><trkpt lat="45.6341284" lon="11.0406638"><ele>1225.0</ele><time>2026-04-06T10:55:14.003Z</time></trkpt><trkpt lat="45.6342586" lon="11.0407095"><ele>1225.0</ele><time>2026-04-06T10:55:15.002Z</time></trkpt><trkpt lat="45.6343899" lon="11.0407437"><ele>1225.0</ele><time>2026-04-06T10:55:16.002Z</time></trkpt><trkpt lat="45.6345186" lon="11.0407673"><ele>1225.0</ele><time>2026-04-06T10:55:17.002Z</time></trkpt><trkpt lat="45.6346611" lon="11.0407764"><ele>1225.0</ele><time>2026-04-06T10:55:18.002Z</time></trkpt><trkpt lat="45.6348082" lon="11.0408095"><ele>1225.0</ele><time>2026-04-06T10:55:19.003Z</time></trkpt><trkpt lat="45.634954" lon="11.0408962"><ele>1225.0</ele><time>2026-04-06T10:55:20.003Z</time></trkpt><trkpt lat="45.6350937" lon="11.0410192"><ele>1225.0</ele><time>2026-04-06T10:55:21.002Z</time></trkpt><trkpt lat="45.6352092" lon="11.0411809"><ele>1231.3333333333333</ele><time>2026-04-06T10:55:22.002Z</time></trkpt><trkpt lat="45.6353273" lon="11.0413635"><ele>1237.6666666666667</ele><time>2026-04-06T10:55:23.002Z</time></trkpt><trkpt lat="45.6354551" lon="11.0415586"><ele>1244.0</ele><time>2026-04-06T10:55:24.002Z</time></trkpt><trkpt lat="45.6355939" lon="11.0417417"><ele>1244.0</ele><time>2026-04-06T10:55:25.003Z</time></trkpt><trkpt lat="45.6357576" lon="11.0419084"><ele>1244.0</ele><time>2026-04-06T10:55:26.002Z</time></trkpt><trkpt lat="45.635944" lon="11.0420676"><ele>1244.0</ele><time>2026-04-06T10:55:27.003Z</time></trkpt><trkpt lat="45.6361444" lon="11.0422244"><ele>1243.0</ele><time>2026-04-06T10:55:28.003Z</time></trkpt><trkpt lat="45.6363487" lon="11.0423805"><ele>1242.0</ele><time>2026-04-06T10:55:29.002Z</time></trkpt><trkpt lat="45.6365761" lon="11.0425231"><ele>1242.0</ele><time>2026-04-06T10:55:30.002Z</time></trkpt><trkpt lat="45.6368148" lon="11.042658"><ele>1242.0</ele><time>2026-04-06T10:55:31.002Z</time></trkpt><trkpt lat="45.6370654" lon="11.0428063"><ele>1255.5</ele><time>2026-04-06T10:55:32.002Z</time></trkpt><trkpt lat="45.6373203" lon="11.0429694"><ele>1269.0</ele><time>2026-04-06T10:55:33.002Z</time></trkpt><trkpt lat="45.6375749" lon="11.043134"><ele>1263.5</ele><time>2026-04-06T10:55:34.002Z</time></trkpt><trkpt lat="45.6378282" lon="11.0432941"><ele>1258.0</ele><time>2026-04-06T10:55:35.003Z</time></trkpt><trkpt lat="45.6380774" lon="11.0434691"><ele>1258.0</ele><time>2026-04-06T10:55:36.003Z</time></trkpt><trkpt lat="45.6383344" lon="11.0436401"><ele>1258.0</ele><time>2026-04-06T10:55:37.002Z</time></trkpt><trkpt lat="45.6385866" lon="11.0438121"><ele>1254.5</ele><time>2026-04-06T10:55:38.003Z</time></trkpt><trkpt lat="45.6388349" lon="11.0439794"><ele>1251.0</ele><time>2026-04-06T10:55:39.003Z</time></trkpt><trkpt lat="45.6390697" lon="11.0441405"><ele>1251.0</ele><time>2026-04-06T10:55:40.003Z</time></trkpt><trkpt lat="45.639309" lon="11.044304"><ele>1251.0</ele><time>2026-04-06T10:55:41.002Z</time></trkpt><trkpt lat="45.6395539" lon="11.0444461"><ele>1261.5</ele><time>2026-04-06T10:55:42.003Z</time></trkpt><trkpt lat="45.6397788" lon="11.0446028"><ele>1272.0</ele><time>2026-04-06T10:55:43.002Z</time></trkpt><trkpt lat="45.6400173" lon="11.0447395"><ele>1272.0</ele><time>2026-04-06T10:55:44.002Z</time></trkpt><trkpt lat="45.6402452" lon="11.0448709"><ele>1272.0</ele><time>2026-04-06T10:55:45.003Z</time></trkpt><trkpt lat="45.6404784" lon="11.044986"><ele>1266.0</ele><time>2026-04-06T10:55:46.002Z</time></trkpt><trkpt lat="45.6407101" lon="11.0451086"><ele>1260.0</ele><time>2026-04-06T10:55:47.002Z</time></trkpt><trkpt lat="45.6409271" lon="11.0452506"><ele>1260.0</ele><time>2026-04-06T10:55:48.003Z</time></trkpt><trkpt lat="45.6411268" lon="11.045401"><ele>1260.0</ele><time>2026-04-06T10:55:49.002Z</time></trkpt><trkpt lat="45.6413078" lon="11.0455453"><ele>1260.0</ele><time>2026-04-06T10:55:50.003Z</time></trkpt><trkpt lat="45.6414837" lon="11.0456674"><ele>1257.0</ele><time>2026-04-06T10:55:51.003Z</time></trkpt><trkpt lat="45.6416597" lon="11.0457554"><ele>1254.0</ele><time>2026-04-06T10:55:52.003Z</time></trkpt><trkpt lat="45.6418361" lon="11.0458222"><ele>1251.0</ele><time>2026-04-06T10:55:53.002Z</time></trkpt><trkpt lat="45.6419906" lon="11.0458742"><ele>1256.0</ele><time>2026-04-06T10:55:54.002Z</time></trkpt><trkpt lat="45.6421268" lon="11.0459224"><ele>1261.0</ele><time>2026-04-06T10:55:55.002Z</time></trkpt><trkpt lat="45.6422491" lon="11.0459855"><ele>1266.0</ele><time>2026-04-06T10:55:56.003Z</time></trkpt><trkpt lat="45.6423515" lon="11.0460649"><ele>1271.0</ele><time>2026-04-06T10:55:57.003Z</time></trkpt><trkpt lat="45.6424381" lon="11.0461958"><ele>1271.0</ele><time>2026-04-06T10:55:58.002Z</time></trkpt><trkpt lat="45.6425077" lon="11.0463618"><ele>1271.0</ele><time>2026-04-06T10:55:59.003Z</time></trkpt><trkpt lat="45.6425603" lon="11.0465611"><ele>1271.0</ele><time>2026-04-06T10:56:00.002Z</time></trkpt><trkpt lat="45.6425911" lon="11.0467877"><ele>1271.0</ele><time>2026-04-06T10:56:01.002Z</time></trkpt><trkpt lat="45.6426059" lon="11.0470414"><ele>1265.3333333333335</ele><time>2026-04-06T10:56:02.002Z</time></trkpt><trkpt lat="45.642611" lon="11.0472856"><ele>1259.6666666666667</ele><time>2026-04-06T10:56:03.003Z</time></trkpt><trkpt lat="45.6426046" lon="11.0475135"><ele>1254.0</ele><time>2026-04-06T10:56:04.002Z</time></trkpt><trkpt lat="45.6425895" lon="11.0477165"><ele>1253.0</ele><time>2026-04-06T10:56:05.003Z</time></trkpt><trkpt lat="45.6425714" lon="11.0478904"><ele>1252.0</ele><time>2026-04-06T10:56:06.002Z</time></trkpt><trkpt lat="45.6425562" lon="11.0480393"><ele>1251.0</ele><time>2026-04-06T10:56:07.003Z</time></trkpt><trkpt lat="45.6425589" lon="11.0481699"><ele>1250.0</ele><time>2026-04-06T10:56:08.002Z</time></trkpt><trkpt lat="45.6425832" lon="11.0482734"><ele>1249.0</ele><time>2026-04-06T10:56:09.002Z</time></trkpt><trkpt lat="45.6426303" lon="11.0483543"><ele>1249.0</ele><time>2026-04-06T10:56:10.002Z</time></trkpt><trkpt lat="45.6426932" lon="11.0483994"><ele>1249.0</ele><time>2026-04-06T10:56:11.002Z</time></trkpt><trkpt lat="45.6427796" lon="11.0484123"><ele>1249.0</ele><time>2026-04-06T10:56:12.002Z</time></trkpt><trkpt lat="45.6428871" lon="11.0484025"><ele>1249.0</ele><time>2026-04-06T10:56:13.002Z</time></trkpt><trkpt lat="45.6430211" lon="11.0483838"><ele>1249.0</ele><time>2026-04-06T10:56:14.002Z</time></trkpt><trkpt lat="45.6431576" lon="11.0483724"><ele>1251.6666666666665</ele><time>2026-04-06T10:56:15.002Z</time></trkpt><trkpt lat="45.6433171" lon="11.0483572"><ele>1254.3333333333333</ele><time>2026-04-06T10:56:16.002Z</time></trkpt><trkpt lat="45.643479" lon="11.048345"><ele>1257.0</ele><time>2026-04-06T10:56:17.002Z</time></trkpt><trkpt lat="45.6436436" lon="11.0483344"><ele>1259.5</ele><time>2026-04-06T10:56:18.002Z</time></trkpt><trkpt lat="45.643809" lon="11.0483268"><ele>1262.0</ele><time>2026-04-06T10:56:19.002Z</time></trkpt><trkpt lat="45.6439482" lon="11.0483286"><ele>1264.5</ele><time>2026-04-06T10:56:20.003Z</time></trkpt><trkpt lat="45.6440473" lon="11.0483395"><ele>1267.0</ele><time>2026-04-06T10:56:21.002Z</time></trkpt><trkpt lat="45.6441369" lon="11.0483479"><ele>1267.0</ele><time>2026-04-06T10:56:22.003Z</time></trkpt><trkpt lat="45.6442104" lon="11.0483561"><ele>1267.0</ele><time>2026-04-06T10:56:23.003Z</time></trkpt><trkpt lat="45.6443164" lon="11.048379"><ele>1267.0</ele><time>2026-04-06T10:56:25.002Z</time></trkpt><trkpt lat="45.6443706" lon="11.0484386"><ele>1267.0</ele><time>2026-04-06T10:56:27.003Z</time></trkpt><trkpt lat="45.6444097" lon="11.0485413"><ele>1267.0</ele><time>2026-04-06T10:56:30.002Z</time></trkpt><trkpt lat="45.6444311" lon="11.0486337"><ele>1267.0</ele><time>2026-04-06T10:56:34.002Z</time></trkpt><trkpt lat="45.6444424" lon="11.0487283"><ele>1267.5</ele><time>2026-04-06T10:56:37.003Z</time></trkpt><trkpt lat="45.6444865" lon="11.0488134"><ele>1268.0</ele><time>2026-04-06T10:56:40.003Z</time></trkpt><trkpt lat="45.6445651" lon="11.0488619"><ele>1268.5</ele><time>2026-04-06T10:56:43.003Z</time></trkpt><trkpt lat="45.6446386" lon="11.0488522"><ele>1269.0</ele><time>2026-04-06T10:56:46.003Z</time></trkpt><trkpt lat="45.6447248" lon="11.0488002"><ele>1269.5</ele><time>2026-04-06T10:56:49.002Z</time></trkpt><trkpt lat="45.644778" lon="11.0487168"><ele>1270.0</ele><time>2026-04-06T10:56:51.002Z</time></trkpt><trkpt lat="45.6448082" lon="11.0486295"><ele>1270.0</ele><time>2026-04-06T10:56:53.002Z</time></trkpt><trkpt lat="45.644842" lon="11.0485391"><ele>1270.0</ele><time>2026-04-06T10:56:56.003Z</time></trkpt><trkpt lat="45.6448953" lon="11.0484576"><ele>1270.0</ele><time>2026-04-06T10:56:59.003Z</time></trkpt><trkpt lat="45.6449551" lon="11.0484075"><ele>1270.0</ele><time>2026-04-06T10:57:01.003Z</time></trkpt><trkpt lat="45.6450726" lon="11.0483986"><ele>1270.0</ele><time>2026-04-06T10:57:03.002Z</time></trkpt><trkpt lat="45.6451486" lon="11.048398"><ele>1270.0</ele><time>2026-04-06T10:57:04.002Z</time></trkpt><trkpt lat="45.6452393" lon="11.0483977"><ele>1271.5</ele><time>2026-04-06T10:57:05.003Z</time></trkpt><trkpt lat="45.6453411" lon="11.0484017"><ele>1273.0</ele><time>2026-04-06T10:57:06.003Z</time></trkpt><trkpt lat="45.6454516" lon="11.0484095"><ele>1274.5</ele><time>2026-04-06T10:57:07.003Z</time></trkpt><trkpt lat="45.6455751" lon="11.0484124"><ele>1276.0</ele><time>2026-04-06T10:57:08.002Z</time></trkpt><trkpt lat="45.6457156" lon="11.0484038"><ele>1276.0</ele><time>2026-04-06T10:57:09.003Z</time></trkpt><trkpt lat="45.6458625" lon="11.0483786"><ele>1276.0</ele><time>2026-04-06T10:57:10.002Z</time></trkpt><trkpt lat="45.6460249" lon="11.0483339"><ele>1276.0</ele><time>2026-04-06T10:57:11.002Z</time></trkpt><trkpt lat="45.646199" lon="11.048278"><ele>1283.0</ele><time>2026-04-06T10:57:12.003Z</time></trkpt><trkpt lat="45.6463603" lon="11.0482295"><ele>1290.0</ele><time>2026-04-06T10:57:13.002Z</time></trkpt><trkpt lat="45.6465213" lon="11.0481891"><ele>1297.0</ele><time>2026-04-06T10:57:14.003Z</time></trkpt><trkpt lat="45.6466842" lon="11.0481684"><ele>1297.0</ele><time>2026-04-06T10:57:15.003Z</time></trkpt><trkpt lat="45.6468546" lon="11.0481782"><ele>1297.0</ele><time>2026-04-06T10:57:16.003Z</time></trkpt><trkpt lat="45.6470295" lon="11.0482073"><ele>1297.0</ele><time>2026-04-06T10:57:17.003Z</time></trkpt><trkpt lat="45.6472046" lon="11.0482533"><ele>1288.0</ele><time>2026-04-06T10:57:18.002Z</time></trkpt><trkpt lat="45.647375" lon="11.0483096"><ele>1279.0</ele><time>2026-04-06T10:57:19.003Z</time></trkpt><trkpt lat="45.6475453" lon="11.048367"><ele>1270.0</ele><time>2026-04-06T10:57:20.003Z</time></trkpt><trkpt lat="45.647677" lon="11.0484406"><ele>1270.75</ele><time>2026-04-06T10:57:21.002Z</time></trkpt><trkpt lat="45.6478211" lon="11.048518"><ele>1271.5</ele><time>2026-04-06T10:57:22.002Z</time></trkpt><trkpt lat="45.6479573" lon="11.0485923"><ele>1272.25</ele><time>2026-04-06T10:57:23.002Z</time></trkpt><trkpt lat="45.6480875" lon="11.0486503"><ele>1273.0</ele><time>2026-04-06T10:57:24.002Z</time></trkpt><trkpt lat="45.6482298" lon="11.0486614"><ele>1273.0</ele><time>2026-04-06T10:57:25.003Z</time></trkpt><trkpt lat="45.6483744" lon="11.0486747"><ele>1273.0</ele><time>2026-04-06T10:57:26.003Z</time></trkpt><trkpt lat="45.64853" lon="11.048692"><ele>1273.0</ele><time>2026-04-06T10:57:27.002Z</time></trkpt><trkpt lat="45.6486802" lon="11.0486712"><ele>1272.25</ele><time>2026-04-06T10:57:28.003Z</time></trkpt><trkpt lat="45.6488218" lon="11.0486749"><ele>1271.5</ele><time>2026-04-06T10:57:29.003Z</time></trkpt><trkpt lat="45.6489359" lon="11.0486918"><ele>1270.75</ele><time>2026-04-06T10:57:30.003Z</time></trkpt><trkpt lat="45.6490426" lon="11.0487192"><ele>1270.0</ele><time>2026-04-06T10:57:31.003Z</time></trkpt><trkpt lat="45.6491358" lon="11.0487693"><ele>1270.0</ele><time>2026-04-06T10:57:32.003Z</time></trkpt><trkpt lat="45.6492275" lon="11.0488556"><ele>1270.0</ele><time>2026-04-06T10:57:33.002Z</time></trkpt><trkpt lat="45.6492991" lon="11.0489814"><ele>1270.0</ele><time>2026-04-06T10:57:34.003Z</time></trkpt><trkpt lat="45.6493448" lon="11.049146"><ele>1270.0</ele><time>2026-04-06T10:57:35.002Z</time></trkpt><trkpt lat="45.6493686" lon="11.049352"><ele>1267.25</ele><time>2026-04-06T10:57:36.002Z</time></trkpt><trkpt lat="45.6493912" lon="11.0495388"><ele>1264.5</ele><time>2026-04-06T10:57:37.003Z</time></trkpt><trkpt lat="45.6494226" lon="11.0497146"><ele>1261.75</ele><time>2026-04-06T10:57:38.002Z</time></trkpt><trkpt lat="45.6494736" lon="11.049876"><ele>1259.0</ele><time>2026-04-06T10:57:39.002Z</time></trkpt><trkpt lat="45.649543" lon="11.0500247"><ele>1258.6666666666667</ele><time>2026-04-06T10:57:40.003Z</time></trkpt><trkpt lat="45.6496699" lon="11.0501495"><ele>1258.3333333333333</ele><time>2026-04-06T10:57:41.003Z</time></trkpt><trkpt lat="45.6498041" lon="11.0502515"><ele>1258.0</ele><time>2026-04-06T10:57:42.002Z</time></trkpt><trkpt lat="45.6499532" lon="11.0503283"><ele>1258.0</ele><time>2026-04-06T10:57:43.003Z</time></trkpt><trkpt lat="45.6501184" lon="11.0503931"><ele>1258.0</ele><time>2026-04-06T10:57:44.002Z</time></trkpt><trkpt lat="45.6502897" lon="11.0504505"><ele>1258.0</ele><time>2026-04-06T10:57:45.002Z</time></trkpt><trkpt lat="45.6504772" lon="11.0505075"><ele>1262.3333333333333</ele><time>2026-04-06T10:57:46.002Z</time></trkpt><trkpt lat="45.6506783" lon="11.0505581"><ele>1266.6666666666667</ele><time>2026-04-06T10:57:47.003Z</time></trkpt><trkpt lat="45.650884" lon="11.0506007"><ele>1271.0</ele><time>2026-04-06T10:57:48.003Z</time></trkpt><trkpt lat="45.6510805" lon="11.0506108"><ele>1271.3333333333335</ele><time>2026-04-06T10:57:49.003Z</time></trkpt><trkpt lat="45.6512716" lon="11.0506126"><ele>1271.6666666666667</ele><time>2026-04-06T10:57:50.002Z</time></trkpt><trkpt lat="45.651445" lon="11.0506113"><ele>1272.0</ele><time>2026-04-06T10:57:51.002Z</time></trkpt><trkpt lat="45.6516025" lon="11.0506258"><ele>1272.0</ele><time>2026-04-06T10:57:52.003Z</time></trkpt><trkpt lat="45.6517403" lon="11.0506689"><ele>1272.0</ele><time>2026-04-06T10:57:53.002Z</time></trkpt><trkpt lat="45.6518605" lon="11.050759"><ele>1272.0</ele><time>2026-04-06T10:57:54.002Z</time></trkpt><trkpt lat="45.6519617" lon="11.0508864"><ele>1272.0</ele><time>2026-04-06T10:57:55.003Z</time></trkpt><trkpt lat="45.6520397" lon="11.0510458"><ele>1270.75</ele><time>2026-04-06T10:57:56.002Z</time></trkpt><trkpt lat="45.6520972" lon="11.0512248"><ele>1269.5</ele><time>2026-04-06T10:57:57.003Z</time></trkpt><trkpt lat="45.6521498" lon="11.0514041"><ele>1268.25</ele><time>2026-04-06T10:57:58.003Z</time></trkpt><trkpt lat="45.6522075" lon="11.0515589"><ele>1267.0</ele><time>2026-04-06T10:57:59.002Z</time></trkpt><trkpt lat="45.6522942" lon="11.0516908"><ele>1267.0</ele><time>2026-04-06T10:58:00.003Z</time></trkpt><trkpt lat="45.652397" lon="11.0517899"><ele>1267.0</ele><time>2026-04-06T10:58:01.003Z</time></trkpt><trkpt lat="45.6525284" lon="11.0518773"><ele>1267.0</ele><time>2026-04-06T10:58:02.003Z</time></trkpt><trkpt lat="45.652671" lon="11.0519707"><ele>1267.0</ele><time>2026-04-06T10:58:03.002Z</time></trkpt><trkpt lat="45.6528171" lon="11.0520685"><ele>1275.3333333333333</ele><time>2026-04-06T10:58:04.002Z</time></trkpt><trkpt lat="45.6529703" lon="11.052171"><ele>1283.6666666666667</ele><time>2026-04-06T10:58:05.002Z</time></trkpt><trkpt lat="45.6531182" lon="11.0522678"><ele>1292.0</ele><time>2026-04-06T10:58:06.003Z</time></trkpt><trkpt lat="45.6532418" lon="11.0523745"><ele>1287.1999999999998</ele><time>2026-04-06T10:58:07.003Z</time></trkpt><trkpt lat="45.6533543" lon="11.0524735"><ele>1282.3999999999999</ele><time>2026-04-06T10:58:08.003Z</time></trkpt><trkpt lat="45.6534497" lon="11.0525651"><ele>1277.6</ele><time>2026-04-06T10:58:09.002Z</time></trkpt><trkpt lat="45.6535228" lon="11.0526415"><ele>1272.8</ele><time>2026-04-06T10:58:10.002Z</time></trkpt><trkpt lat="45.6535843" lon="11.0527026"><ele>1268.0</ele><time>2026-04-06T10:58:11.002Z</time></trkpt><trkpt lat="45.6536373" lon="11.0527535"><ele>1268.0</ele><time>2026-04-06T10:58:12.002Z</time></trkpt><trkpt lat="45.6537128" lon="11.0528373"><ele>1268.0</ele><time>2026-04-06T10:58:14.003Z</time></trkpt><trkpt lat="45.6537688" lon="11.0529112"><ele>1268.0</ele><time>2026-04-06T10:58:17.002Z</time></trkpt><trkpt lat="45.6538274" lon="11.0529616"><ele>1268.0</ele><time>2026-04-06T10:58:42.002Z</time></trkpt><trkpt lat="45.6539036" lon="11.0529589"><ele>1268.0</ele><time>2026-04-06T10:58:46.002Z</time></trkpt><trkpt lat="45.6539742" lon="11.0529585"><ele>1268.0</ele><time>2026-04-06T10:58:51.002Z</time></trkpt><trkpt lat="45.6539483" lon="11.0528721"><ele>1268.0</ele><time>2026-04-06T10:59:35.002Z</time></trkpt><trkpt lat="45.6538804" lon="11.0528805"><ele>1268.0</ele><time>2026-04-06T10:59:37.002Z</time></trkpt><trkpt lat="45.6538174" lon="11.0528512"><ele>1268.0</ele><time>2026-04-06T10:59:40.003Z</time></trkpt></trkseg><trkseg><trkpt lat="45.6537454" lon="11.0528467"><ele>1268.0</ele><time>2026-04-06T12:21:15.995Z</time></trkpt><trkpt lat="45.6537629" lon="11.0529407"><ele>1268.0</ele><time>2026-04-06T12:21:19.996Z</time></trkpt><trkpt lat="45.6538513" lon="11.0529768"><ele>1268.0</ele><time>2026-04-06T12:21:23.994Z</time></trkpt><trkpt lat="45.6539434" lon="11.0529378"><ele>1268.0</ele><time>2026-04-06T12:21:25.994Z</time></trkpt><trkpt lat="45.6540045" lon="11.052895"><ele>1268.0</ele><time>2026-04-06T12:21:26.995Z</time></trkpt><trkpt lat="45.6540647" lon="11.0528457"><ele>1268.0</ele><time>2026-04-06T12:21:27.994Z</time></trkpt><trkpt lat="45.6541345" lon="11.0527821"><ele>1268.0</ele><time>2026-04-06T12:21:28.994Z</time></trkpt><trkpt lat="45.6542117" lon="11.0527061"><ele>1268.0</ele><time>2026-04-06T12:21:29.994Z</time></trkpt><trkpt lat="45.6542928" lon="11.0526215"><ele>1268.0</ele><time>2026-04-06T12:21:30.994Z</time></trkpt><trkpt lat="45.6543831" lon="11.0525329"><ele>1268.0</ele><time>2026-04-06T12:21:31.994Z</time></trkpt><trkpt lat="45.6544806" lon="11.0524414"><ele>1268.0</ele><time>2026-04-06T12:21:32.995Z</time></trkpt><trkpt lat="45.6545726" lon="11.0523502"><ele>1269.25</ele><time>2026-04-06T12:21:33.994Z</time></trkpt><trkpt lat="45.6546702" lon="11.0522478"><ele>1270.5</ele><time>2026-04-06T12:21:34.994Z</time></trkpt><trkpt lat="45.6547693" lon="11.052129"><ele>1271.75</ele><time>2026-04-06T12:21:35.994Z</time></trkpt><trkpt lat="45.6548684" lon="11.0519934"><ele>1273.0</ele><time>2026-04-06T12:21:36.995Z</time></trkpt><trkpt lat="45.6549671" lon="11.0518483"><ele>1273.0</ele><time>2026-04-06T12:21:37.995Z</time></trkpt><trkpt lat="45.6550552" lon="11.0517035"><ele>1273.0</ele><time>2026-04-06T12:21:38.995Z</time></trkpt><trkpt lat="45.6551437" lon="11.0515529"><ele>1273.0</ele><time>2026-04-06T12:21:39.995Z</time></trkpt><trkpt lat="45.6552259" lon="11.0514109"><ele>1273.0</ele><time>2026-04-06T12:21:40.994Z</time></trkpt><trkpt lat="45.6553118" lon="11.0512896"><ele>1276.5</ele><time>2026-04-06T12:21:41.994Z</time></trkpt><trkpt lat="45.6554117" lon="11.0511827"><ele>1280.0</ele><time>2026-04-06T12:21:42.995Z</time></trkpt><trkpt lat="45.655513" lon="11.0510686"><ele>1283.5</ele><time>2026-04-06T12:21:43.995Z</time></trkpt><trkpt lat="45.6556646" lon="11.0509909"><ele>1287.0</ele><time>2026-04-06T12:21:44.994Z</time></trkpt><trkpt lat="45.6558062" lon="11.0508958"><ele>1287.0</ele><time>2026-04-06T12:21:45.996Z</time></trkpt><trkpt lat="45.6559451" lon="11.0508051"><ele>1287.0</ele><time>2026-04-06T12:21:46.995Z</time></trkpt><trkpt lat="45.6560713" lon="11.0507206"><ele>1287.0</ele><time>2026-04-06T12:21:47.994Z</time></trkpt><trkpt lat="45.6561854" lon="11.05065"><ele>1287.0</ele><time>2026-04-06T12:21:48.995Z</time></trkpt><trkpt lat="45.6562983" lon="11.0505906"><ele>1292.5</ele><time>2026-04-06T12:21:49.994Z</time></trkpt><trkpt lat="45.6564159" lon="11.0505482"><ele>1298.0</ele><time>2026-04-06T12:21:50.995Z</time></trkpt><trkpt lat="45.6565414" lon="11.0505379"><ele>1303.5</ele><time>2026-04-06T12:21:51.995Z</time></trkpt><trkpt lat="45.6566666" lon="11.0505487"><ele>1309.0</ele><time>2026-04-06T12:21:52.995Z</time></trkpt><trkpt lat="45.6567951" lon="11.050589"><ele>1309.0</ele><time>2026-04-06T12:21:53.994Z</time></trkpt><trkpt lat="45.6569246" lon="11.0506518"><ele>1309.0</ele><time>2026-04-06T12:21:54.996Z</time></trkpt><trkpt lat="45.6570606" lon="11.050722"><ele>1309.0</ele><time>2026-04-06T12:21:55.995Z</time></trkpt><trkpt lat="45.6572098" lon="11.0507846"><ele>1309.0</ele><time>2026-04-06T12:21:56.995Z</time></trkpt><trkpt lat="45.6573681" lon="11.0508276"><ele>1309.6666666666665</ele><time>2026-04-06T12:21:57.994Z</time></trkpt><trkpt lat="45.6575286" lon="11.0508581"><ele>1310.3333333333333</ele><time>2026-04-06T12:21:58.995Z</time></trkpt><trkpt lat="45.6576858" lon="11.0508845"><ele>1311.0</ele><time>2026-04-06T12:21:59.995Z</time></trkpt><trkpt lat="45.6578386" lon="11.0509144"><ele>1311.0</ele><time>2026-04-06T12:22:00.995Z</time></trkpt><trkpt lat="45.6579875" lon="11.0509577"><ele>1311.0</ele><time>2026-04-06T12:22:01.994Z</time></trkpt><trkpt lat="45.6581393" lon="11.0510141"><ele>1311.0</ele><time>2026-04-06T12:22:02.995Z</time></trkpt><trkpt lat="45.6582978" lon="11.0510757"><ele>1311.0</ele><time>2026-04-06T12:22:03.994Z</time></trkpt><trkpt lat="45.6584599" lon="11.0511514"><ele>1311.0</ele><time>2026-04-06T12:22:04.995Z</time></trkpt><trkpt lat="45.6586301" lon="11.0512279"><ele>1311.0</ele><time>2026-04-06T12:22:05.995Z</time></trkpt><trkpt lat="45.6588068" lon="11.0513103"><ele>1316.3333333333333</ele><time>2026-04-06T12:22:06.994Z</time></trkpt><trkpt lat="45.6589888" lon="11.051396"><ele>1321.6666666666665</ele><time>2026-04-06T12:22:07.995Z</time></trkpt><trkpt lat="45.6591761" lon="11.0514807"><ele>1327.0</ele><time>2026-04-06T12:22:08.995Z</time></trkpt><trkpt lat="45.6593694" lon="11.0515577"><ele>1322.3333333333333</ele><time>2026-04-06T12:22:09.994Z</time></trkpt><trkpt lat="45.65957" lon="11.0516298"><ele>1317.6666666666667</ele><time>2026-04-06T12:22:10.995Z</time></trkpt><trkpt lat="45.6597586" lon="11.051711"><ele>1313.0</ele><time>2026-04-06T12:22:11.995Z</time></trkpt><trkpt lat="45.659935" lon="11.0518046"><ele>1313.0</ele><time>2026-04-06T12:22:12.993Z</time></trkpt><trkpt lat="45.6601096" lon="11.0519234"><ele>1313.0</ele><time>2026-04-06T12:22:13.994Z</time></trkpt><trkpt lat="45.6602843" lon="11.0520556"><ele>1313.0</ele><time>2026-04-06T12:22:14.995Z</time></trkpt><trkpt lat="45.6604526" lon="11.0522144"><ele>1313.6666666666667</ele><time>2026-04-06T12:22:15.993Z</time></trkpt><trkpt lat="45.660617" lon="11.0523791"><ele>1314.3333333333333</ele><time>2026-04-06T12:22:16.994Z</time></trkpt><trkpt lat="45.6607691" lon="11.0525299"><ele>1315.0</ele><time>2026-04-06T12:22:17.994Z</time></trkpt><trkpt lat="45.6609144" lon="11.0526828"><ele>1315.0</ele><time>2026-04-06T12:22:18.994Z</time></trkpt><trkpt lat="45.661066" lon="11.0528333"><ele>1315.0</ele><time>2026-04-06T12:22:19.994Z</time></trkpt><trkpt lat="45.6612319" lon="11.0529782"><ele>1315.0</ele><time>2026-04-06T12:22:20.994Z</time></trkpt><trkpt lat="45.6614113" lon="11.0531204"><ele>1314.6666666666665</ele><time>2026-04-06T12:22:21.994Z</time></trkpt><trkpt lat="45.6615855" lon="11.0532494"><ele>1314.3333333333333</ele><time>2026-04-06T12:22:22.993Z</time></trkpt><trkpt lat="45.6617488" lon="11.053365"><ele>1314.0</ele><time>2026-04-06T12:22:23.994Z</time></trkpt><trkpt lat="45.6618949" lon="11.0534542"><ele>1316.25</ele><time>2026-04-06T12:22:24.993Z</time></trkpt><trkpt lat="45.6620332" lon="11.0535239"><ele>1318.5</ele><time>2026-04-06T12:22:25.993Z</time></trkpt><trkpt lat="45.6621695" lon="11.0535692"><ele>1320.75</ele><time>2026-04-06T12:22:26.994Z</time></trkpt><trkpt lat="45.6623137" lon="11.0535822"><ele>1323.0</ele><time>2026-04-06T12:22:27.995Z</time></trkpt><trkpt lat="45.6624583" lon="11.0535802"><ele>1323.0</ele><time>2026-04-06T12:22:28.993Z</time></trkpt><trkpt lat="45.6626031" lon="11.0535692"><ele>1323.0</ele><time>2026-04-06T12:22:29.993Z</time></trkpt><trkpt lat="45.6627631" lon="11.0535501"><ele>1323.0</ele><time>2026-04-06T12:22:30.995Z</time></trkpt><trkpt lat="45.6629332" lon="11.0535449"><ele>1327.3333333333333</ele><time>2026-04-06T12:22:31.995Z</time></trkpt><trkpt lat="45.663115" lon="11.053565"><ele>1331.6666666666665</ele><time>2026-04-06T12:22:32.993Z</time></trkpt><trkpt lat="45.6633046" lon="11.0535994"><ele>1336.0</ele><time>2026-04-06T12:22:33.993Z</time></trkpt><trkpt lat="45.663503" lon="11.0536503"><ele>1341.3333333333333</ele><time>2026-04-06T12:22:34.993Z</time></trkpt><trkpt lat="45.6636958" lon="11.0537032"><ele>1346.6666666666667</ele><time>2026-04-06T12:22:35.994Z</time></trkpt><trkpt lat="45.6638942" lon="11.053761"><ele>1352.0</ele><time>2026-04-06T12:22:36.993Z</time></trkpt><trkpt lat="45.6640911" lon="11.0538131"><ele>1352.0</ele><time>2026-04-06T12:22:37.994Z</time></trkpt><trkpt lat="45.6642914" lon="11.0538566"><ele>1352.0</ele><time>2026-04-06T12:22:38.994Z</time></trkpt><trkpt lat="45.6644968" lon="11.0538875"><ele>1352.0</ele><time>2026-04-06T12:22:39.993Z</time></trkpt><trkpt lat="45.6647038" lon="11.0538861"><ele>1352.6666666666667</ele><time>2026-04-06T12:22:40.995Z</time></trkpt><trkpt lat="45.6649187" lon="11.0538716"><ele>1353.3333333333333</ele><time>2026-04-06T12:22:41.995Z</time></trkpt><trkpt lat="45.6651379" lon="11.0538476"><ele>1354.0</ele><time>2026-04-06T12:22:42.994Z</time></trkpt><trkpt lat="45.6653638" lon="11.0538143"><ele>1354.0</ele><time>2026-04-06T12:22:43.993Z</time></trkpt><trkpt lat="45.6655808" lon="11.0537833"><ele>1354.0</ele><time>2026-04-06T12:22:44.994Z</time></trkpt><trkpt lat="45.6657778" lon="11.0537514"><ele>1354.0</ele><time>2026-04-06T12:22:45.993Z</time></trkpt><trkpt lat="45.6659596" lon="11.0537226"><ele>1354.0</ele><time>2026-04-06T12:22:46.995Z</time></trkpt><trkpt lat="45.6661304" lon="11.0536829"><ele>1354.0</ele><time>2026-04-06T12:22:47.993Z</time></trkpt><trkpt lat="45.6662993" lon="11.0536338"><ele>1354.0</ele><time>2026-04-06T12:22:48.994Z</time></trkpt><trkpt lat="45.6664663" lon="11.0535675"><ele>1354.0</ele><time>2026-04-06T12:22:49.995Z</time></trkpt><trkpt lat="45.6666285" lon="11.0534692"><ele>1354.0</ele><time>2026-04-06T12:22:50.994Z</time></trkpt><trkpt lat="45.6667908" lon="11.0533611"><ele>1354.0</ele><time>2026-04-06T12:22:51.995Z</time></trkpt><trkpt lat="45.6669466" lon="11.0532581"><ele>1363.0</ele><time>2026-04-06T12:22:52.994Z</time></trkpt><trkpt lat="45.6670948" lon="11.0531536"><ele>1372.0</ele><time>2026-04-06T12:22:53.993Z</time></trkpt><trkpt lat="45.66723" lon="11.0530647"><ele>1381.0</ele><time>2026-04-06T12:22:54.993Z</time></trkpt><trkpt lat="45.6673592" lon="11.0529857"><ele>1381.0</ele><time>2026-04-06T12:22:55.993Z</time></trkpt><trkpt lat="45.6674864" lon="11.0529284"><ele>1381.0</ele><time>2026-04-06T12:22:56.994Z</time></trkpt><trkpt lat="45.6676154" lon="11.0528842"><ele>1381.0</ele><time>2026-04-06T12:22:57.994Z</time></trkpt><trkpt lat="45.6677494" lon="11.0528622"><ele>1381.0</ele><time>2026-04-06T12:22:58.995Z</time></trkpt><trkpt lat="45.6678854" lon="11.0528692"><ele>1381.0</ele><time>2026-04-06T12:22:59.994Z</time></trkpt><trkpt lat="45.6680249" lon="11.0529002"><ele>1381.0</ele><time>2026-04-06T12:23:00.993Z</time></trkpt><trkpt lat="45.6681688" lon="11.0529365"><ele>1381.0</ele><time>2026-04-06T12:23:01.994Z</time></trkpt><trkpt lat="45.6683161" lon="11.0529791"><ele>1381.0</ele><time>2026-04-06T12:23:02.993Z</time></trkpt><trkpt lat="45.668459" lon="11.053025"><ele>1381.0</ele><time>2026-04-06T12:23:03.994Z</time></trkpt><trkpt lat="45.6685904" lon="11.0530632"><ele>1381.0</ele><time>2026-04-06T12:23:04.995Z</time></trkpt><trkpt lat="45.6687142" lon="11.0530959"><ele>1381.0</ele><time>2026-04-06T12:23:05.993Z</time></trkpt><trkpt lat="45.6688311" lon="11.0531289"><ele>1381.0</ele><time>2026-04-06T12:23:06.995Z</time></trkpt><trkpt lat="45.6689403" lon="11.0531589"><ele>1380.4</ele><time>2026-04-06T12:23:07.993Z</time></trkpt><trkpt lat="45.6690511" lon="11.053197"><ele>1379.8</ele><time>2026-04-06T12:23:08.993Z</time></trkpt><trkpt lat="45.6691462" lon="11.0532431"><ele>1379.2</ele><time>2026-04-06T12:23:09.993Z</time></trkpt><trkpt lat="45.6692319" lon="11.0533058"><ele>1378.6000000000001</ele><time>2026-04-06T12:23:10.993Z</time></trkpt><trkpt lat="45.6692929" lon="11.0534006"><ele>1378.0</ele><time>2026-04-06T12:23:11.994Z</time></trkpt><trkpt lat="45.6693315" lon="11.0535173"><ele>1378.0</ele><time>2026-04-06T12:23:12.994Z</time></trkpt><trkpt lat="45.669342" lon="11.0536498"><ele>1378.0</ele><time>2026-04-06T12:23:13.993Z</time></trkpt><trkpt lat="45.6693216" lon="11.0537971"><ele>1378.0</ele><time>2026-04-06T12:23:14.993Z</time></trkpt><trkpt lat="45.6692752" lon="11.053966"><ele>1378.0</ele><time>2026-04-06T12:23:15.994Z</time></trkpt><trkpt lat="45.6692174" lon="11.0541445"><ele>1379.0</ele><time>2026-04-06T12:23:16.994Z</time></trkpt><trkpt lat="45.6691592" lon="11.0543173"><ele>1380.0</ele><time>2026-04-06T12:23:17.993Z</time></trkpt><trkpt lat="45.669096" lon="11.0545037"><ele>1381.0</ele><time>2026-04-06T12:23:18.993Z</time></trkpt><trkpt lat="45.669025" lon="11.0546989"><ele>1382.0</ele><time>2026-04-06T12:23:19.994Z</time></trkpt><trkpt lat="45.6689532" lon="11.0549067"><ele>1386.3333333333335</ele><time>2026-04-06T12:23:20.994Z</time></trkpt><trkpt lat="45.6688828" lon="11.0551175"><ele>1390.6666666666667</ele><time>2026-04-06T12:23:21.995Z</time></trkpt><trkpt lat="45.6688164" lon="11.0553094"><ele>1395.0</ele><time>2026-04-06T12:23:22.995Z</time></trkpt><trkpt lat="45.6687503" lon="11.0554896"><ele>1395.0</ele><time>2026-04-06T12:23:23.993Z</time></trkpt><trkpt lat="45.6686895" lon="11.0556622"><ele>1395.0</ele><time>2026-04-06T12:23:24.993Z</time></trkpt><trkpt lat="45.6686393" lon="11.0558119"><ele>1395.0</ele><time>2026-04-06T12:23:25.994Z</time></trkpt><trkpt lat="45.6685935" lon="11.0559468"><ele>1395.0</ele><time>2026-04-06T12:23:26.993Z</time></trkpt><trkpt lat="45.6685591" lon="11.0560609"><ele>1395.0</ele><time>2026-04-06T12:23:27.993Z</time></trkpt><trkpt lat="45.6685409" lon="11.0561683"><ele>1397.0</ele><time>2026-04-06T12:23:28.994Z</time></trkpt><trkpt lat="45.6685384" lon="11.0562764"><ele>1399.0</ele><time>2026-04-06T12:23:29.994Z</time></trkpt><trkpt lat="45.6685982" lon="11.0564212"><ele>1401.0</ele><time>2026-04-06T12:23:31.993Z</time></trkpt><trkpt lat="45.6687049" lon="11.0565119"><ele>1403.0</ele><time>2026-04-06T12:23:33.995Z</time></trkpt><trkpt lat="45.6688234" lon="11.0565753"><ele>1405.0</ele><time>2026-04-06T12:23:35.993Z</time></trkpt><trkpt lat="45.6688844" lon="11.0565994"><ele>1404.2857142857142</ele><time>2026-04-06T12:23:36.993Z</time></trkpt><trkpt lat="45.6689464" lon="11.0566239"><ele>1403.5714285714287</ele><time>2026-04-06T12:23:37.994Z</time></trkpt><trkpt lat="45.6690096" lon="11.0566463"><ele>1402.857142857143</ele><time>2026-04-06T12:23:38.994Z</time></trkpt><trkpt lat="45.6690755" lon="11.0566667"><ele>1402.142857142857</ele><time>2026-04-06T12:23:39.994Z</time></trkpt><trkpt lat="45.6691465" lon="11.056684"><ele>1401.4285714285716</ele><time>2026-04-06T12:23:40.994Z</time></trkpt><trkpt lat="45.6692246" lon="11.0567013"><ele>1400.7142857142858</ele><time>2026-04-06T12:23:41.993Z</time></trkpt><trkpt lat="45.6693091" lon="11.0567186"><ele>1400.0</ele><time>2026-04-06T12:23:42.994Z</time></trkpt><trkpt lat="45.6693976" lon="11.0567374"><ele>1403.6</ele><time>2026-04-06T12:23:43.994Z</time></trkpt><trkpt lat="45.6694864" lon="11.0567606"><ele>1407.2</ele><time>2026-04-06T12:23:44.993Z</time></trkpt><trkpt lat="45.669576" lon="11.0567902"><ele>1410.8000000000002</ele><time>2026-04-06T12:23:45.994Z</time></trkpt><trkpt lat="45.6696667" lon="11.056823"><ele>1414.4</ele><time>2026-04-06T12:23:46.993Z</time></trkpt><trkpt lat="45.669759" lon="11.0568537"><ele>1418.0</ele><time>2026-04-06T12:23:47.995Z</time></trkpt><trkpt lat="45.6698441" lon="11.0568779"><ele>1418.0</ele><time>2026-04-06T12:23:48.993Z</time></trkpt><trkpt lat="45.6699093" lon="11.0568922"><ele>1418.0</ele><time>2026-04-06T12:23:49.995Z</time></trkpt><trkpt lat="45.6699833" lon="11.0568994"><ele>1418.0</ele><time>2026-04-06T12:23:51.995Z</time></trkpt><trkpt lat="45.6699895" lon="11.0567954"><ele>1418.0</ele><time>2026-04-06T12:23:55.994Z</time></trkpt><trkpt lat="45.669926" lon="11.0567917"><ele>1418.0</ele><time>2026-04-06T12:23:59.994Z</time></trkpt><trkpt lat="45.6698554" lon="11.0568107"><ele>1418.0</ele><time>2026-04-06T12:24:01.994Z</time></trkpt><trkpt lat="45.6697267" lon="11.0568045"><ele>1418.0</ele><time>2026-04-06T12:24:03.993Z</time></trkpt><trkpt lat="45.6696347" lon="11.0567801"><ele>1418.0</ele><time>2026-04-06T12:24:04.994Z</time></trkpt><trkpt lat="45.669534" lon="11.0567443"><ele>1418.0</ele><time>2026-04-06T12:24:05.994Z</time></trkpt><trkpt lat="45.6694129" lon="11.0567059"><ele>1418.0</ele><time>2026-04-06T12:24:06.995Z</time></trkpt><trkpt lat="45.6692906" lon="11.0566749"><ele>1418.0</ele><time>2026-04-06T12:24:07.993Z</time></trkpt><trkpt lat="45.6691729" lon="11.0566497"><ele>1415.4</ele><time>2026-04-06T12:24:08.994Z</time></trkpt><trkpt lat="45.6690701" lon="11.0566222"><ele>1412.8000000000002</ele><time>2026-04-06T12:24:09.993Z</time></trkpt><trkpt lat="45.66899" lon="11.0565918"><ele>1410.2</ele><time>2026-04-06T12:24:10.994Z</time></trkpt><trkpt lat="45.668898" lon="11.0565133"><ele>1407.6</ele><time>2026-04-06T12:24:12.994Z</time></trkpt><trkpt lat="45.6688458" lon="11.0563483"><ele>1405.0</ele><time>2026-04-06T12:24:14.994Z</time></trkpt><trkpt lat="45.6688434" lon="11.056241"><ele>1405.0</ele><time>2026-04-06T12:24:15.994Z</time></trkpt><trkpt lat="45.6688534" lon="11.0561301"><ele>1405.0</ele><time>2026-04-06T12:24:16.994Z</time></trkpt><trkpt lat="45.6688793" lon="11.0560275"><ele>1405.0</ele><time>2026-04-06T12:24:17.993Z</time></trkpt><trkpt lat="45.6689197" lon="11.0559345"><ele>1405.0</ele><time>2026-04-06T12:24:18.994Z</time></trkpt><trkpt lat="45.668972" lon="11.0558542"><ele>1405.0</ele><time>2026-04-06T12:24:19.994Z</time></trkpt><trkpt lat="45.6690348" lon="11.0557836"><ele>1405.0</ele><time>2026-04-06T12:24:20.994Z</time></trkpt><trkpt lat="45.6691033" lon="11.0557131"><ele>1403.0</ele><time>2026-04-06T12:24:21.993Z</time></trkpt><trkpt lat="45.6691787" lon="11.0556424"><ele>1401.0</ele><time>2026-04-06T12:24:22.994Z</time></trkpt><trkpt lat="45.6692586" lon="11.0555693"><ele>1399.0</ele><time>2026-04-06T12:24:23.993Z</time></trkpt><trkpt lat="45.6693384" lon="11.0554903"><ele>1397.0</ele><time>2026-04-06T12:24:24.994Z</time></trkpt><trkpt lat="45.6694189" lon="11.055411"><ele>1395.0</ele><time>2026-04-06T12:24:25.994Z</time></trkpt><trkpt lat="45.6694965" lon="11.0553346"><ele>1398.3333333333333</ele><time>2026-04-06T12:24:26.993Z</time></trkpt><trkpt lat="45.6695665" lon="11.0552738"><ele>1401.6666666666667</ele><time>2026-04-06T12:24:27.993Z</time></trkpt><trkpt lat="45.6696418" lon="11.0552226"><ele>1405.0</ele><time>2026-04-06T12:24:28.994Z</time></trkpt><trkpt lat="45.6697177" lon="11.0551931"><ele>1408.3333333333335</ele><time>2026-04-06T12:24:29.993Z</time></trkpt><trkpt lat="45.6697975" lon="11.0551882"><ele>1411.6666666666667</ele><time>2026-04-06T12:24:30.993Z</time></trkpt><trkpt lat="45.6698811" lon="11.0551996"><ele>1415.0</ele><time>2026-04-06T12:24:31.994Z</time></trkpt><trkpt lat="45.6699734" lon="11.0552173"><ele>1415.0</ele><time>2026-04-06T12:24:32.994Z</time></trkpt><trkpt lat="45.6700582" lon="11.0552366"><ele>1415.0</ele><time>2026-04-06T12:24:33.994Z</time></trkpt><trkpt lat="45.6701305" lon="11.0552591"><ele>1415.0</ele><time>2026-04-06T12:24:34.993Z</time></trkpt><trkpt lat="45.6701984" lon="11.0552738"><ele>1415.0</ele><time>2026-04-06T12:24:35.993Z</time></trkpt><trkpt lat="45.6702652" lon="11.0552733"><ele>1415.0</ele><time>2026-04-06T12:24:36.995Z</time></trkpt><trkpt lat="45.6703264" lon="11.0552469"><ele>1415.0</ele><time>2026-04-06T12:24:37.994Z</time></trkpt><trkpt lat="45.6703794" lon="11.0551933"><ele>1415.0</ele><time>2026-04-06T12:24:38.995Z</time></trkpt><trkpt lat="45.6704221" lon="11.0551145"><ele>1417.8333333333335</ele><time>2026-04-06T12:24:39.994Z</time></trkpt><trkpt lat="45.6704411" lon="11.0550233"><ele>1420.6666666666667</ele><time>2026-04-06T12:24:40.995Z</time></trkpt><trkpt lat="45.6704366" lon="11.0549155"><ele>1423.5</ele><time>2026-04-06T12:24:41.994Z</time></trkpt><trkpt lat="45.6704228" lon="11.054792"><ele>1426.3333333333333</ele><time>2026-04-06T12:24:42.994Z</time></trkpt><trkpt lat="45.6704249" lon="11.0546769"><ele>1429.1666666666665</ele><time>2026-04-06T12:24:43.994Z</time></trkpt><trkpt lat="45.6704449" lon="11.0545583"><ele>1432.0</ele><time>2026-04-06T12:24:44.993Z</time></trkpt><trkpt lat="45.6704838" lon="11.0544481"><ele>1432.0</ele><time>2026-04-06T12:24:45.993Z</time></trkpt><trkpt lat="45.6705403" lon="11.0543405"><ele>1432.0</ele><time>2026-04-06T12:24:46.994Z</time></trkpt><trkpt lat="45.6706052" lon="11.054218"><ele>1432.0</ele><time>2026-04-06T12:24:47.993Z</time></trkpt><trkpt lat="45.6706676" lon="11.0540732"><ele>1432.0</ele><time>2026-04-06T12:24:48.994Z</time></trkpt><trkpt lat="45.6707093" lon="11.0539445"><ele>1432.0</ele><time>2026-04-06T12:24:49.994Z</time></trkpt><trkpt lat="45.6707418" lon="11.0538298"><ele>1433.1428571428573</ele><time>2026-04-06T12:24:50.994Z</time></trkpt><trkpt lat="45.6707727" lon="11.0537342"><ele>1434.2857142857142</ele><time>2026-04-06T12:24:51.993Z</time></trkpt><trkpt lat="45.6708155" lon="11.0536603"><ele>1435.4285714285716</ele><time>2026-04-06T12:24:52.993Z</time></trkpt><trkpt lat="45.6708723" lon="11.0536101"><ele>1436.5714285714287</ele><time>2026-04-06T12:24:53.993Z</time></trkpt><trkpt lat="45.6709389" lon="11.0535794"><ele>1437.7142857142858</ele><time>2026-04-06T12:24:54.994Z</time></trkpt><trkpt lat="45.6710131" lon="11.0535779"><ele>1438.857142857143</ele><time>2026-04-06T12:24:55.995Z</time></trkpt><trkpt lat="45.6710947" lon="11.0535977"><ele>1440.0</ele><time>2026-04-06T12:24:56.993Z</time></trkpt><trkpt lat="45.6711893" lon="11.0536324"><ele>1440.0</ele><time>2026-04-06T12:24:57.994Z</time></trkpt><trkpt lat="45.6712994" lon="11.0536767"><ele>1440.0</ele><time>2026-04-06T12:24:58.993Z</time></trkpt><trkpt lat="45.6714115" lon="11.0537232"><ele>1440.0</ele><time>2026-04-06T12:24:59.993Z</time></trkpt><trkpt lat="45.6715253" lon="11.053769"><ele>1440.0</ele><time>2026-04-06T12:25:00.993Z</time></trkpt><trkpt lat="45.6716411" lon="11.0538143"><ele>1440.0</ele><time>2026-04-06T12:25:01.993Z</time></trkpt><trkpt lat="45.6717465" lon="11.0538598"><ele>1440.0</ele><time>2026-04-06T12:25:02.994Z</time></trkpt><trkpt lat="45.6718378" lon="11.0539117"><ele>1440.0</ele><time>2026-04-06T12:25:03.994Z</time></trkpt><trkpt lat="45.6719156" lon="11.0539643"><ele>1440.0</ele><time>2026-04-06T12:25:04.994Z</time></trkpt><trkpt lat="45.671992" lon="11.0540087"><ele>1440.0</ele><time>2026-04-06T12:25:05.995Z</time></trkpt><trkpt lat="45.6720662" lon="11.0540201"><ele>1442.5</ele><time>2026-04-06T12:25:06.993Z</time></trkpt><trkpt lat="45.672137" lon="11.0540044"><ele>1445.0</ele><time>2026-04-06T12:25:07.994Z</time></trkpt><trkpt lat="45.6722071" lon="11.0539642"><ele>1447.5</ele><time>2026-04-06T12:25:08.995Z</time></trkpt><trkpt lat="45.6722729" lon="11.0538976"><ele>1450.0</ele><time>2026-04-06T12:25:09.995Z</time></trkpt><trkpt lat="45.67233" lon="11.0538068"><ele>1452.5</ele><time>2026-04-06T12:25:10.994Z</time></trkpt><trkpt lat="45.6723821" lon="11.053698"><ele>1455.0</ele><time>2026-04-06T12:25:11.995Z</time></trkpt><trkpt lat="45.6724176" lon="11.0535941"><ele>1455.0</ele><time>2026-04-06T12:25:12.994Z</time></trkpt><trkpt lat="45.6724326" lon="11.0534825"><ele>1455.0</ele><time>2026-04-06T12:25:13.995Z</time></trkpt><trkpt lat="45.6724257" lon="11.0533715"><ele>1455.0</ele><time>2026-04-06T12:25:14.994Z</time></trkpt><trkpt lat="45.672393" lon="11.0532624"><ele>1455.0</ele><time>2026-04-06T12:25:15.994Z</time></trkpt><trkpt lat="45.6723357" lon="11.0531604"><ele>1455.0</ele><time>2026-04-06T12:25:16.995Z</time></trkpt><trkpt lat="45.6722553" lon="11.0530578"><ele>1455.0</ele><time>2026-04-06T12:25:17.994Z</time></trkpt><trkpt lat="45.6721594" lon="11.0529492"><ele>1453.75</ele><time>2026-04-06T12:25:18.993Z</time></trkpt><trkpt lat="45.6720596" lon="11.0528251"><ele>1452.5</ele><time>2026-04-06T12:25:19.993Z</time></trkpt><trkpt lat="45.6719752" lon="11.0526961"><ele>1451.25</ele><time>2026-04-06T12:25:20.993Z</time></trkpt><trkpt lat="45.6718993" lon="11.0525529"><ele>1450.0</ele><time>2026-04-06T12:25:21.994Z</time></trkpt><trkpt lat="45.6718377" lon="11.0524028"><ele>1452.6</ele><time>2026-04-06T12:25:22.993Z</time></trkpt><trkpt lat="45.671788" lon="11.05225"><ele>1455.2</ele><time>2026-04-06T12:25:23.993Z</time></trkpt><trkpt lat="45.6717559" lon="11.0521089"><ele>1457.8000000000002</ele><time>2026-04-06T12:25:24.994Z</time></trkpt><trkpt lat="45.6717439" lon="11.0519786"><ele>1460.4</ele><time>2026-04-06T12:25:25.993Z</time></trkpt><trkpt lat="45.6717522" lon="11.0518464"><ele>1463.0</ele><time>2026-04-06T12:25:26.995Z</time></trkpt><trkpt lat="45.6717807" lon="11.0517004"><ele>1464.75</ele><time>2026-04-06T12:25:27.993Z</time></trkpt><trkpt lat="45.67182" lon="11.0515451"><ele>1466.5</ele><time>2026-04-06T12:25:28.993Z</time></trkpt><trkpt lat="45.6718649" lon="11.0513837"><ele>1468.25</ele><time>2026-04-06T12:25:29.993Z</time></trkpt><trkpt lat="45.6718981" lon="11.0512187"><ele>1470.0</ele><time>2026-04-06T12:25:30.993Z</time></trkpt><trkpt lat="45.6719182" lon="11.0510294"><ele>1470.0</ele><time>2026-04-06T12:25:31.994Z</time></trkpt><trkpt lat="45.6719205" lon="11.0508213"><ele>1470.0</ele><time>2026-04-06T12:25:32.995Z</time></trkpt><trkpt lat="45.6719126" lon="11.050632"><ele>1470.0</ele><time>2026-04-06T12:25:33.993Z</time></trkpt><trkpt lat="45.6719072" lon="11.0504834"><ele>1470.0</ele><time>2026-04-06T12:25:34.995Z</time></trkpt><trkpt lat="45.6718945" lon="11.0503616"><ele>1471.8333333333333</ele><time>2026-04-06T12:25:35.993Z</time></trkpt><trkpt lat="45.6718669" lon="11.0502594"><ele>1473.6666666666667</ele><time>2026-04-06T12:25:36.993Z</time></trkpt><trkpt lat="45.6718209" lon="11.0501695"><ele>1475.5</ele><time>2026-04-06T12:25:37.995Z</time></trkpt><trkpt lat="45.6717516" lon="11.0501092"><ele>1477.3333333333335</ele><time>2026-04-06T12:25:38.994Z</time></trkpt><trkpt lat="45.671669" lon="11.0500714"><ele>1479.1666666666667</ele><time>2026-04-06T12:25:39.994Z</time></trkpt><trkpt lat="45.6715741" lon="11.0500643"><ele>1481.0</ele><time>2026-04-06T12:25:40.994Z</time></trkpt><trkpt lat="45.6714638" lon="11.0500819"><ele>1481.0</ele><time>2026-04-06T12:25:41.993Z</time></trkpt><trkpt lat="45.6713419" lon="11.0501176"><ele>1481.0</ele><time>2026-04-06T12:25:42.994Z</time></trkpt><trkpt lat="45.6712071" lon="11.0501637"><ele>1481.0</ele><time>2026-04-06T12:25:43.994Z</time></trkpt><trkpt lat="45.6710794" lon="11.0502107"><ele>1481.0</ele><time>2026-04-06T12:25:44.993Z</time></trkpt><trkpt lat="45.6709874" lon="11.0502483"><ele>1482.1666666666667</ele><time>2026-04-06T12:25:45.994Z</time></trkpt><trkpt lat="45.6709093" lon="11.0502797"><ele>1483.3333333333335</ele><time>2026-04-06T12:25:46.994Z</time></trkpt><trkpt lat="45.6708443" lon="11.050301"><ele>1484.5</ele><time>2026-04-06T12:25:47.993Z</time></trkpt><trkpt lat="45.6707488" lon="11.0502953"><ele>1485.6666666666667</ele><time>2026-04-06T12:25:49.994Z</time></trkpt><trkpt lat="45.6707156" lon="11.0502072"><ele>1486.8333333333333</ele><time>2026-04-06T12:25:51.994Z</time></trkpt><trkpt lat="45.6707617" lon="11.0501356"><ele>1488.0</ele><time>2026-04-06T12:25:53.993Z</time></trkpt><trkpt lat="45.6708908" lon="11.0500808"><ele>1488.0</ele><time>2026-04-06T12:25:55.994Z</time></trkpt><trkpt lat="45.6709714" lon="11.0500385"><ele>1488.0</ele><time>2026-04-06T12:25:56.993Z</time></trkpt><trkpt lat="45.671049" lon="11.0500015"><ele>1488.0</ele><time>2026-04-06T12:25:57.993Z</time></trkpt><trkpt lat="45.6711179" lon="11.049965"><ele>1488.0</ele><time>2026-04-06T12:25:58.994Z</time></trkpt><trkpt lat="45.6711876" lon="11.0499095"><ele>1488.0</ele><time>2026-04-06T12:25:59.994Z</time></trkpt><trkpt lat="45.6712486" lon="11.0498517"><ele>1488.0</ele><time>2026-04-06T12:26:00.995Z</time></trkpt><trkpt lat="45.6712999" lon="11.0497946"><ele>1490.1428571428573</ele><time>2026-04-06T12:26:01.995Z</time></trkpt><trkpt lat="45.6713494" lon="11.0497255"><ele>1492.2857142857142</ele><time>2026-04-06T12:26:02.995Z</time></trkpt><trkpt lat="45.6713962" lon="11.0496524"><ele>1494.4285714285716</ele><time>2026-04-06T12:26:03.995Z</time></trkpt><trkpt lat="45.671444" lon="11.0495719"><ele>1496.5714285714287</ele><time>2026-04-06T12:26:04.994Z</time></trkpt><trkpt lat="45.6714894" lon="11.0494964"><ele>1498.7142857142858</ele><time>2026-04-06T12:26:05.994Z</time></trkpt><trkpt lat="45.6715389" lon="11.0494254"><ele>1500.857142857143</ele><time>2026-04-06T12:26:06.994Z</time></trkpt><trkpt lat="45.6715945" lon="11.049356"><ele>1503.0</ele><time>2026-04-06T12:26:07.993Z</time></trkpt><trkpt lat="45.6716567" lon="11.0492901"><ele>1503.0</ele><time>2026-04-06T12:26:08.993Z</time></trkpt><trkpt lat="45.671725" lon="11.0492251"><ele>1503.0</ele><time>2026-04-06T12:26:09.994Z</time></trkpt><trkpt lat="45.6718043" lon="11.0491675"><ele>1503.0</ele><time>2026-04-06T12:26:10.994Z</time></trkpt><trkpt lat="45.6718948" lon="11.0491224"><ele>1503.0</ele><time>2026-04-06T12:26:11.993Z</time></trkpt><trkpt lat="45.6720022" lon="11.0491064"><ele>1503.0</ele><time>2026-04-06T12:26:12.994Z</time></trkpt><trkpt lat="45.6721168" lon="11.0491247"><ele>1503.2</ele><time>2026-04-06T12:26:13.993Z</time></trkpt><trkpt lat="45.6722207" lon="11.0491568"><ele>1503.4</ele><time>2026-04-06T12:26:14.994Z</time></trkpt><trkpt lat="45.6723241" lon="11.0491628"><ele>1503.6000000000001</ele><time>2026-04-06T12:26:15.994Z</time></trkpt><trkpt lat="45.6724289" lon="11.0491365"><ele>1503.8000000000002</ele><time>2026-04-06T12:26:16.993Z</time></trkpt><trkpt lat="45.6725432" lon="11.0490859"><ele>1504.0</ele><time>2026-04-06T12:26:17.993Z</time></trkpt><trkpt lat="45.6726561" lon="11.0490182"><ele>1506.75</ele><time>2026-04-06T12:26:18.993Z</time></trkpt><trkpt lat="45.6727671" lon="11.048935"><ele>1509.5</ele><time>2026-04-06T12:26:19.994Z</time></trkpt><trkpt lat="45.6728795" lon="11.0488409"><ele>1512.25</ele><time>2026-04-06T12:26:20.993Z</time></trkpt><trkpt lat="45.6729906" lon="11.0487377"><ele>1515.0</ele><time>2026-04-06T12:26:21.994Z</time></trkpt><trkpt lat="45.6730961" lon="11.0486411"><ele>1515.0</ele><time>2026-04-06T12:26:22.993Z</time></trkpt><trkpt lat="45.6732032" lon="11.0485487"><ele>1515.0</ele><time>2026-04-06T12:26:23.993Z</time></trkpt><trkpt lat="45.6733141" lon="11.0484739"><ele>1515.0</ele><time>2026-04-06T12:26:24.994Z</time></trkpt><trkpt lat="45.6734327" lon="11.0484182"><ele>1515.0</ele><time>2026-04-06T12:26:25.993Z</time></trkpt><trkpt lat="45.6735569" lon="11.0483758"><ele>1516.5</ele><time>2026-04-06T12:26:26.995Z</time></trkpt><trkpt lat="45.6736816" lon="11.0483335"><ele>1518.0</ele><time>2026-04-06T12:26:27.994Z</time></trkpt><trkpt lat="45.673802" lon="11.0482917"><ele>1519.5</ele><time>2026-04-06T12:26:28.993Z</time></trkpt><trkpt lat="45.6739176" lon="11.0482475"><ele>1521.0</ele><time>2026-04-06T12:26:29.993Z</time></trkpt><trkpt lat="45.6740301" lon="11.0482039"><ele>1523.4</ele><time>2026-04-06T12:26:30.994Z</time></trkpt><trkpt lat="45.6741379" lon="11.0481668"><ele>1525.8</ele><time>2026-04-06T12:26:31.993Z</time></trkpt><trkpt lat="45.6742396" lon="11.0481426"><ele>1528.2</ele><time>2026-04-06T12:26:32.993Z</time></trkpt><trkpt lat="45.6743387" lon="11.0481268"><ele>1530.6000000000001</ele><time>2026-04-06T12:26:33.994Z</time></trkpt><trkpt lat="45.6744337" lon="11.0481186"><ele>1533.0</ele><time>2026-04-06T12:26:34.993Z</time></trkpt><trkpt lat="45.674532" lon="11.0481197"><ele>1533.0</ele><time>2026-04-06T12:26:35.993Z</time></trkpt><trkpt lat="45.6746299" lon="11.048141"><ele>1533.0</ele><time>2026-04-06T12:26:36.995Z</time></trkpt><trkpt lat="45.6747242" lon="11.0481819"><ele>1533.0</ele><time>2026-04-06T12:26:37.993Z</time></trkpt><trkpt lat="45.6748138" lon="11.0482239"><ele>1533.0</ele><time>2026-04-06T12:26:38.993Z</time></trkpt><trkpt lat="45.6748949" lon="11.0482577"><ele>1533.0</ele><time>2026-04-06T12:26:39.994Z</time></trkpt><trkpt lat="45.6749726" lon="11.0482824"><ele>1532.3333333333333</ele><time>2026-04-06T12:26:40.994Z</time></trkpt><trkpt lat="45.6750449" lon="11.0482955"><ele>1531.6666666666667</ele><time>2026-04-06T12:26:41.993Z</time></trkpt><trkpt lat="45.6751641" lon="11.0483376"><ele>1531.0</ele><time>2026-04-06T12:26:43.994Z</time></trkpt><trkpt lat="45.6752238" lon="11.0483676"><ele>1530.3333333333335</ele><time>2026-04-06T12:26:44.994Z</time></trkpt><trkpt lat="45.6752829" lon="11.0484088"><ele>1529.6666666666667</ele><time>2026-04-06T12:26:45.994Z</time></trkpt><trkpt lat="45.6753387" lon="11.0484729"><ele>1529.0</ele><time>2026-04-06T12:26:46.993Z</time></trkpt><trkpt lat="45.6753959" lon="11.0485515"><ele>1529.6</ele><time>2026-04-06T12:26:47.994Z</time></trkpt><trkpt lat="45.6754414" lon="11.0486437"><ele>1530.2</ele><time>2026-04-06T12:26:48.995Z</time></trkpt><trkpt lat="45.6754812" lon="11.0487521"><ele>1530.8</ele><time>2026-04-06T12:26:49.994Z</time></trkpt><trkpt lat="45.6755216" lon="11.0488765"><ele>1531.3999999999999</ele><time>2026-04-06T12:26:50.993Z</time></trkpt><trkpt lat="45.6755613" lon="11.0490139"><ele>1532.0</ele><time>2026-04-06T12:26:51.994Z</time></trkpt><trkpt lat="45.6755962" lon="11.0491461"><ele>1532.0</ele><time>2026-04-06T12:26:52.993Z</time></trkpt><trkpt lat="45.6756275" lon="11.0492628"><ele>1532.0</ele><time>2026-04-06T12:26:53.993Z</time></trkpt><trkpt lat="45.6756598" lon="11.0493637"><ele>1532.0</ele><time>2026-04-06T12:26:54.994Z</time></trkpt><trkpt lat="45.6757053" lon="11.0494652"><ele>1532.0</ele><time>2026-04-06T12:26:55.993Z</time></trkpt><trkpt lat="45.6757584" lon="11.0495714"><ele>1532.0</ele><time>2026-04-06T12:26:56.994Z</time></trkpt><trkpt lat="45.6758244" lon="11.0496771"><ele>1532.0</ele><time>2026-04-06T12:26:57.995Z</time></trkpt><trkpt lat="45.6758906" lon="11.0497751"><ele>1532.0</ele><time>2026-04-06T12:26:58.995Z</time></trkpt><trkpt lat="45.6759609" lon="11.0498719"><ele>1532.0</ele><time>2026-04-06T12:26:59.995Z</time></trkpt><trkpt lat="45.6760259" lon="11.0499532"><ele>1532.0</ele><time>2026-04-06T12:27:00.995Z</time></trkpt><trkpt lat="45.6760811" lon="11.0500241"><ele>1532.0</ele><time>2026-04-06T12:27:01.994Z</time></trkpt><trkpt lat="45.676137" lon="11.0500932"><ele>1532.0</ele><time>2026-04-06T12:27:02.994Z</time></trkpt><trkpt lat="45.6761926" lon="11.0501541"><ele>1532.0</ele><time>2026-04-06T12:27:03.993Z</time></trkpt><trkpt lat="45.6762489" lon="11.0502112"><ele>1534.75</ele><time>2026-04-06T12:27:04.994Z</time></trkpt><trkpt lat="45.676305" lon="11.0502717"><ele>1537.5</ele><time>2026-04-06T12:27:05.994Z</time></trkpt><trkpt lat="45.6763636" lon="11.0503374"><ele>1540.25</ele><time>2026-04-06T12:27:06.994Z</time></trkpt><trkpt lat="45.6764258" lon="11.0503951"><ele>1543.0</ele><time>2026-04-06T12:27:07.995Z</time></trkpt><trkpt lat="45.6735569" lon="11.0483758"><ele>1541.75</ele><time>2026-04-06T12:26:26.995Z</time></trkpt><trkpt lat="45.6736816" lon="11.0483335"><ele>1540.5</ele><time>2026-04-06T12:26:27.994Z</time></trkpt><trkpt lat="45.673802" lon="11.0482917"><ele>1539.25</ele><time>2026-04-06T12:26:28.993Z</time></trkpt><trkpt lat="45.6739176" lon="11.0482475"><ele>1538.0</ele><time>2026-04-06T12:26:29.993Z</time></trkpt><trkpt lat="45.6740301" lon="11.0482039"><ele>1538.0</ele><time>2026-04-06T12:26:30.994Z</time></trkpt><trkpt lat="45.6741379" lon="11.0481668"><ele>1538.0</ele><time>2026-04-06T12:26:31.993Z</time></trkpt><trkpt lat="45.6742396" lon="11.0481426"><ele>1538.0</ele><time>2026-04-06T12:26:32.993Z</time></trkpt><trkpt lat="45.6743387" lon="11.0481268"><ele>1538.0</ele><time>2026-04-06T12:26:33.994Z</time></trkpt><trkpt lat="45.6744337" lon="11.0481186"><ele>1538.0</ele><time>2026-04-06T12:26:34.993Z</time></trkpt><trkpt lat="45.674532" lon="11.0481197"><ele>1537.0</ele><time>2026-04-06T12:26:35.993Z</time></trkpt><trkpt lat="45.6746299" lon="11.048141"><ele>1536.0</ele><time>2026-04-06T12:26:36.995Z</time></trkpt><trkpt lat="45.6747242" lon="11.0481819"><ele>1535.0</ele><time>2026-04-06T12:26:37.993Z</time></trkpt><trkpt lat="45.6748138" lon="11.0482239"><ele>1534.0</ele><time>2026-04-06T12:26:38.993Z</time></trkpt><trkpt lat="45.6748949" lon="11.0482577"><ele>1533.0</ele><time>2026-04-06T12:26:39.994Z</time></trkpt><trkpt lat="45.6749726" lon="11.0482824"><ele>1532.3333333333333</ele><time>2026-04-06T12:26:40.994Z</time></trkpt><trkpt lat="45.6750449" lon="11.0482955"><ele>1531.6666666666667</ele><time>2026-04-06T12:26:41.993Z</time></trkpt><trkpt lat="45.6751641" lon="11.0483376"><ele>1531.0</ele><time>2026-04-06T12:26:43.994Z</time></trkpt><trkpt lat="45.6752238" lon="11.0483676"><ele>1530.3333333333335</ele><time>2026-04-06T12:26:44.994Z</time></trkpt><trkpt lat="45.6752829" lon="11.0484088"><ele>1529.6666666666667</ele><time>2026-04-06T12:26:45.994Z</time></trkpt><trkpt lat="45.6753387" lon="11.0484729"><ele>1529.0</ele><time>2026-04-06T12:26:46.993Z</time></trkpt><trkpt lat="45.6753959" lon="11.0485515"><ele>1529.6</ele><time>2026-04-06T12:26:47.994Z</time></trkpt><trkpt lat="45.6754414" lon="11.0486437"><ele>1530.2</ele><time>2026-04-06T12:26:48.995Z</time></trkpt><trkpt lat="45.6754812" lon="11.0487521"><ele>1530.8</ele><time>2026-04-06T12:26:49.994Z</time></trkpt><trkpt lat="45.6755216" lon="11.0488765"><ele>1531.3999999999999</ele><time>2026-04-06T12:26:50.993Z</time></trkpt><trkpt lat="45.6755613" lon="11.0490139"><ele>1532.0</ele><time>2026-04-06T12:26:51.994Z</time></trkpt><trkpt lat="45.6755962" lon="11.0491461"><ele>1532.0</ele><time>2026-04-06T12:26:52.993Z</time></trkpt><trkpt lat="45.6756275" lon="11.0492628"><ele>1532.0</ele><time>2026-04-06T12:26:53.993Z</time></trkpt><trkpt lat="45.6756598" lon="11.0493637"><ele>1532.0</ele><time>2026-04-06T12:26:54.994Z</time></trkpt><trkpt lat="45.6757053" lon="11.0494652"><ele>1532.0</ele><time>2026-04-06T12:26:55.993Z</time></trkpt><trkpt lat="45.6757584" lon="11.0495714"><ele>1532.0</ele><time>2026-04-06T12:26:56.994Z</time></trkpt><trkpt lat="45.6758244" lon="11.0496771"><ele>1532.0</ele><time>2026-04-06T12:26:57.995Z</time></trkpt><trkpt lat="45.6758906" lon="11.0497751"><ele>1532.0</ele><time>2026-04-06T12:26:58.995Z</time></trkpt><trkpt lat="45.6759609" lon="11.0498719"><ele>1532.0</ele><time>2026-04-06T12:26:59.995Z</time></trkpt><trkpt lat="45.6760259" lon="11.0499532"><ele>1532.0</ele><time>2026-04-06T12:27:00.995Z</time></trkpt><trkpt lat="45.6760811" lon="11.0500241"><ele>1532.0</ele><time>2026-04-06T12:27:01.994Z</time></trkpt><trkpt lat="45.676137" lon="11.0500932"><ele>1532.0</ele><time>2026-04-06T12:27:02.994Z</time></trkpt><trkpt lat="45.6761926" lon="11.0501541"><ele>1532.0</ele><time>2026-04-06T12:27:03.993Z</time></trkpt><trkpt lat="45.6762489" lon="11.0502112"><ele>1533.5714285714284</ele><time>2026-04-06T12:27:04.994Z</time></trkpt><trkpt lat="45.676305" lon="11.0502717"><ele>1535.142857142857</ele><time>2026-04-06T12:27:05.994Z</time></trkpt><trkpt lat="45.6763636" lon="11.0503374"><ele>1536.7142857142858</ele><time>2026-04-06T12:27:06.994Z</time></trkpt><trkpt lat="45.6764258" lon="11.0503951"><ele>1538.2857142857142</ele><time>2026-04-06T12:27:07.995Z</time></trkpt><trkpt lat="45.6764883" lon="11.0504418"><ele>1539.857142857143</ele><time>2026-04-06T12:27:08.993Z</time></trkpt><trkpt lat="45.6765494" lon="11.0504791"><ele>1541.4285714285713</ele><time>2026-04-06T12:27:09.993Z</time></trkpt><trkpt lat="45.6766371" lon="11.0505171"><ele>1543.0</ele><time>2026-04-06T12:27:11.993Z</time></trkpt><trkpt lat="45.6767144" lon="11.0505456"><ele>1543.0000000000002</ele><time>2026-04-06T12:27:14.993Z</time></trkpt><trkpt lat="45.6767911" lon="11.0505706"><ele>1543.0</ele><time>2026-04-06T12:27:17.993Z</time></trkpt><trkpt lat="45.6768585" lon="11.0505843"><ele>1543.0</ele><time>2026-04-06T12:27:19.993Z</time></trkpt><trkpt lat="45.6769316" lon="11.0505938"><ele>1543.0</ele><time>2026-04-06T12:27:21.993Z</time></trkpt><trkpt lat="45.6770064" lon="11.0506029"><ele>1543.0000000000002</ele><time>2026-04-06T12:27:23.994Z</time></trkpt><trkpt lat="45.6770957" lon="11.0506194"><ele>1543.0</ele><time>2026-04-06T12:27:26.994Z</time></trkpt><trkpt lat="45.6771656" lon="11.0506494"><ele>1543.9999999999998</ele><time>2026-04-06T12:27:28.994Z</time></trkpt><trkpt lat="45.677235" lon="11.0506826"><ele>1545.0</ele><time>2026-04-06T12:27:30.994Z</time></trkpt><trkpt lat="45.6772938" lon="11.0507178"><ele>1546.0</ele><time>2026-04-06T12:27:32.993Z</time></trkpt><trkpt lat="45.6773635" lon="11.0507658"><ele>1547.0</ele><time>2026-04-06T12:27:36.994Z</time></trkpt><trkpt lat="45.677421" lon="11.0508043"><ele>1548.0</ele><time>2026-04-06T12:27:59.994Z</time></trkpt><trkpt lat="45.6774414" lon="11.0507168"><ele>1548.9999999999998</ele><time>2026-04-06T12:28:04.993Z</time></trkpt><trkpt lat="45.6774089" lon="11.0506369"><ele>1550.0</ele><time>2026-04-06T12:28:07.993Z</time></trkpt><trkpt lat="45.6773495" lon="11.0506029"><ele>1549.9999999999998</ele><time>2026-04-06T12:28:09.993Z</time></trkpt><trkpt lat="45.6772776" lon="11.050573"><ele>1550.0</ele><time>2026-04-06T12:28:11.995Z</time></trkpt><trkpt lat="45.6772011" lon="11.050533"><ele>1550.0</ele><time>2026-04-06T12:28:13.994Z</time></trkpt><trkpt lat="45.6771346" lon="11.0505005"><ele>1550.0</ele><time>2026-04-06T12:28:15.994Z</time></trkpt><trkpt lat="45.6770557" lon="11.0504816"><ele>1549.9999999999998</ele><time>2026-04-06T12:28:18.994Z</time></trkpt><trkpt lat="45.6769875" lon="11.0505404"><ele>1550.0</ele><time>2026-04-06T12:28:22.993Z</time></trkpt><trkpt lat="45.6769256" lon="11.0505844"><ele>1548.8333333333333</ele><time>2026-04-06T12:28:26.994Z</time></trkpt><trkpt lat="45.6768333" lon="11.0505683"><ele>1547.6666666666665</ele><time>2026-04-06T12:28:29.994Z</time></trkpt><trkpt lat="45.6767419" lon="11.0505409"><ele>1546.5</ele><time>2026-04-06T12:28:31.995Z</time></trkpt><trkpt lat="45.6766556" lon="11.0505142"><ele>1545.3333333333335</ele><time>2026-04-06T12:28:33.993Z</time></trkpt><trkpt lat="45.6765711" lon="11.0504741"><ele>1544.1666666666667</ele><time>2026-04-06T12:28:35.993Z</time></trkpt><trkpt lat="45.6764971" lon="11.0504223"><ele>1543.0</ele><time>2026-04-06T12:28:37.994Z</time></trkpt><trkpt lat="45.6764236" lon="11.0503658"><ele>1543.0</ele><time>2026-04-06T12:28:39.994Z</time></trkpt><trkpt lat="45.6763449" lon="11.0503059"><ele>1543.0</ele><time>2026-04-06T12:28:41.993Z</time></trkpt><trkpt lat="45.6762658" lon="11.0502234"><ele>1543.0</ele><time>2026-04-06T12:28:43.993Z</time></trkpt><trkpt lat="45.6761903" lon="11.0501328"><ele>1543.0</ele><time>2026-04-06T12:28:45.994Z</time></trkpt><trkpt lat="45.6761184" lon="11.0500483"><ele>1543.0</ele><time>2026-04-06T12:28:47.993Z</time></trkpt><trkpt lat="45.6760399" lon="11.0499575"><ele>1540.25</ele><time>2026-04-06T12:28:49.995Z</time></trkpt><trkpt lat="45.6759576" lon="11.0498536"><ele>1537.5</ele><time>2026-04-06T12:28:51.995Z</time></trkpt><trkpt lat="45.6758723" lon="11.0497391"><ele>1534.75</ele><time>2026-04-06T12:28:53.994Z</time></trkpt><trkpt lat="45.6757887" lon="11.0496154"><ele>1532.0</ele><time>2026-04-06T12:28:55.993Z</time></trkpt><trkpt lat="45.6757154" lon="11.0494794"><ele>1532.0</ele><time>2026-04-06T12:28:57.994Z</time></trkpt><trkpt lat="45.6756788" lon="11.0493967"><ele>1532.0</ele><time>2026-04-06T12:28:58.993Z</time></trkpt><trkpt lat="45.6756485" lon="11.0493085"><ele>1532.0</ele><time>2026-04-06T12:28:59.994Z</time></trkpt><trkpt lat="45.6756263" lon="11.0492198"><ele>1532.0</ele><time>2026-04-06T12:29:00.993Z</time></trkpt><trkpt lat="45.675606" lon="11.0491251"><ele>1532.0</ele><time>2026-04-06T12:29:01.994Z</time></trkpt><trkpt lat="45.6755847" lon="11.0490214"><ele>1532.0</ele><time>2026-04-06T12:29:02.994Z</time></trkpt><trkpt lat="45.6755579" lon="11.0489183"><ele>1532.0</ele><time>2026-04-06T12:29:03.994Z</time></trkpt><trkpt lat="45.675526" lon="11.0488251"><ele>1531.5</ele><time>2026-04-06T12:29:04.994Z</time></trkpt><trkpt lat="45.6754923" lon="11.04873"><ele>1531.0</ele><time>2026-04-06T12:29:05.994Z</time></trkpt><trkpt lat="45.6754533" lon="11.0486368"><ele>1530.5</ele><time>2026-04-06T12:29:06.994Z</time></trkpt><trkpt lat="45.6754071" lon="11.0485515"><ele>1530.0</ele><time>2026-04-06T12:29:07.994Z</time></trkpt><trkpt lat="45.6753561" lon="11.0484756"><ele>1529.5</ele><time>2026-04-06T12:29:08.994Z</time></trkpt><trkpt lat="45.6752996" lon="11.0484087"><ele>1529.0</ele><time>2026-04-06T12:29:09.994Z</time></trkpt><trkpt lat="45.6752315" lon="11.0483509"><ele>1529.0</ele><time>2026-04-06T12:29:10.993Z</time></trkpt><trkpt lat="45.675159" lon="11.0483083"><ele>1529.0</ele><time>2026-04-06T12:29:11.994Z</time></trkpt><trkpt lat="45.6750776" lon="11.0482755"><ele>1529.0</ele><time>2026-04-06T12:29:12.994Z</time></trkpt><trkpt lat="45.6749884" lon="11.0482503"><ele>1529.0</ele><time>2026-04-06T12:29:13.994Z</time></trkpt><trkpt lat="45.6749005" lon="11.0482223"><ele>1529.0</ele><time>2026-04-06T12:29:14.995Z</time></trkpt><trkpt lat="45.6748114" lon="11.0481866"><ele>1529.0</ele><time>2026-04-06T12:29:15.995Z</time></trkpt><trkpt lat="45.6747194" lon="11.0481501"><ele>1529.8000000000002</ele><time>2026-04-06T12:29:16.994Z</time></trkpt><trkpt lat="45.6746237" lon="11.0481151"><ele>1530.6000000000001</ele><time>2026-04-06T12:29:17.993Z</time></trkpt><trkpt lat="45.6745222" lon="11.0480916"><ele>1531.4</ele><time>2026-04-06T12:29:18.995Z</time></trkpt><trkpt lat="45.6744111" lon="11.0480897"><ele>1532.2</ele><time>2026-04-06T12:29:19.994Z</time></trkpt><trkpt lat="45.6742953" lon="11.0481004"><ele>1533.0</ele><time>2026-04-06T12:29:20.995Z</time></trkpt><trkpt lat="45.6741831" lon="11.0481246"><ele>1534.25</ele><time>2026-04-06T12:29:21.993Z</time></trkpt><trkpt lat="45.6740635" lon="11.0481642"><ele>1535.5</ele><time>2026-04-06T12:29:22.995Z</time></trkpt><trkpt lat="45.6739375" lon="11.0482119"><ele>1536.75</ele><time>2026-04-06T12:29:23.994Z</time></trkpt><trkpt lat="45.6738098" lon="11.0482638"><ele>1538.0</ele><time>2026-04-06T12:29:24.993Z</time></trkpt><trkpt lat="45.6736826" lon="11.0483108"><ele>1532.25</ele><time>2026-04-06T12:29:25.994Z</time></trkpt><trkpt lat="45.6735591" lon="11.0483432"><ele>1526.5</ele><time>2026-04-06T12:29:26.994Z</time></trkpt><trkpt lat="45.6734385" lon="11.0483836"><ele>1520.75</ele><time>2026-04-06T12:29:27.993Z</time></trkpt><trkpt lat="45.6733149" lon="11.0484515"><ele>1515.0</ele><time>2026-04-06T12:29:28.994Z</time></trkpt><trkpt lat="45.6731873" lon="11.0485494"><ele>1515.0</ele><time>2026-04-06T12:29:29.993Z</time></trkpt><trkpt lat="45.6730645" lon="11.0486641"><ele>1515.0</ele><time>2026-04-06T12:29:30.995Z</time></trkpt><trkpt lat="45.6729442" lon="11.0487829"><ele>1515.0</ele><time>2026-04-06T12:29:31.993Z</time></trkpt><trkpt lat="45.6728231" lon="11.0488965"><ele>1515.0</ele><time>2026-04-06T12:29:32.993Z</time></trkpt><trkpt lat="45.6726978" lon="11.0489926"><ele>1515.75</ele><time>2026-04-06T12:29:33.994Z</time></trkpt><trkpt lat="45.6725757" lon="11.049062"><ele>1516.5</ele><time>2026-04-06T12:29:34.993Z</time></trkpt><trkpt lat="45.672464" lon="11.0491146"><ele>1517.25</ele><time>2026-04-06T12:29:35.994Z</time></trkpt><trkpt lat="45.6723617" lon="11.049138"><ele>1518.0</ele><time>2026-04-06T12:29:36.994Z</time></trkpt><trkpt lat="45.6722559" lon="11.0491293"><ele>1518.0</ele><time>2026-04-06T12:29:37.994Z</time></trkpt><trkpt lat="45.6721512" lon="11.049108"><ele>1518.0</ele><time>2026-04-06T12:29:38.994Z</time></trkpt><trkpt lat="45.6720481" lon="11.0490923"><ele>1518.0</ele><time>2026-04-06T12:29:39.994Z</time></trkpt><trkpt lat="45.6719416" lon="11.0491032"><ele>1518.0</ele><time>2026-04-06T12:29:40.995Z</time></trkpt><trkpt lat="45.6718356" lon="11.0491456"><ele>1518.0</ele><time>2026-04-06T12:29:41.994Z</time></trkpt><trkpt lat="45.671728" lon="11.0492225"><ele>1514.25</ele><time>2026-04-06T12:29:42.993Z</time></trkpt><trkpt lat="45.6716221" lon="11.0493345"><ele>1510.5</ele><time>2026-04-06T12:29:43.993Z</time></trkpt><trkpt lat="45.6715243" lon="11.0494616"><ele>1506.75</ele><time>2026-04-06T12:29:44.994Z</time></trkpt><trkpt lat="45.6714411" lon="11.0495844"><ele>1503.0</ele><time>2026-04-06T12:29:45.994Z</time></trkpt><trkpt lat="45.6713633" lon="11.0497003"><ele>1503.0</ele><time>2026-04-06T12:29:46.994Z</time></trkpt><trkpt lat="45.6712858" lon="11.0498011"><ele>1503.0</ele><time>2026-04-06T12:29:47.993Z</time></trkpt><trkpt lat="45.6712083" lon="11.04988"><ele>1503.0</ele><time>2026-04-06T12:29:48.994Z</time></trkpt><trkpt lat="45.6711313" lon="11.0499353"><ele>1503.0</ele><time>2026-04-06T12:29:49.994Z</time></trkpt><trkpt lat="45.6710485" lon="11.0499765"><ele>1503.0</ele><time>2026-04-06T12:29:50.993Z</time></trkpt><trkpt lat="45.6709595" lon="11.0500135"><ele>1500.5</ele><time>2026-04-06T12:29:51.995Z</time></trkpt><trkpt lat="45.67088" lon="11.0500458"><ele>1498.0</ele><time>2026-04-06T12:29:52.994Z</time></trkpt><trkpt lat="45.6708103" lon="11.0500752"><ele>1495.5</ele><time>2026-04-06T12:29:53.994Z</time></trkpt><trkpt lat="45.6707455" lon="11.0501073"><ele>1493.0</ele><time>2026-04-06T12:29:54.994Z</time></trkpt><trkpt lat="45.6706874" lon="11.05022"><ele>1490.5</ele><time>2026-04-06T12:29:56.993Z</time></trkpt><trkpt lat="45.6707382" lon="11.0503215"><ele>1488.0</ele><time>2026-04-06T12:29:58.993Z</time></trkpt><trkpt lat="45.6708604" lon="11.0503223"><ele>1488.0</ele><time>2026-04-06T12:30:00.994Z</time></trkpt><trkpt lat="45.6709525" lon="11.0502747"><ele>1488.0</ele><time>2026-04-06T12:30:01.993Z</time></trkpt><trkpt lat="45.6710575" lon="11.0502241"><ele>1488.0</ele><time>2026-04-06T12:30:02.993Z</time></trkpt><trkpt lat="45.6711696" lon="11.0501785"><ele>1488.0</ele><time>2026-04-06T12:30:03.994Z</time></trkpt><trkpt lat="45.6712782" lon="11.0501443"><ele>1488.0</ele><time>2026-04-06T12:30:04.993Z</time></trkpt><trkpt lat="45.6713842" lon="11.0501133"><ele>1486.8333333333333</ele><time>2026-04-06T12:30:05.994Z</time></trkpt><trkpt lat="45.6714868" lon="11.0500841"><ele>1485.6666666666667</ele><time>2026-04-06T12:30:06.995Z</time></trkpt><trkpt lat="45.6715797" lon="11.0500659"><ele>1484.5</ele><time>2026-04-06T12:30:07.993Z</time></trkpt><trkpt lat="45.67166" lon="11.0500675"><ele>1483.3333333333335</ele><time>2026-04-06T12:30:08.993Z</time></trkpt><trkpt lat="45.6717351" lon="11.0500955"><ele>1482.1666666666667</ele><time>2026-04-06T12:30:09.994Z</time></trkpt><trkpt lat="45.6717976" lon="11.0501558"><ele>1481.0</ele><time>2026-04-06T12:30:10.993Z</time></trkpt><trkpt lat="45.6718492" lon="11.0502474"><ele>1481.0</ele><time>2026-04-06T12:30:11.995Z</time></trkpt><trkpt lat="45.6718822" lon="11.0503743"><ele>1481.0</ele><time>2026-04-06T12:30:12.994Z</time></trkpt><trkpt lat="45.6718925" lon="11.0505167"><ele>1481.0</ele><time>2026-04-06T12:30:13.995Z</time></trkpt><trkpt lat="45.6719007" lon="11.050682"><ele>1481.0</ele><time>2026-04-06T12:30:14.994Z</time></trkpt><trkpt lat="45.6719106" lon="11.0508499"><ele>1481.0</ele><time>2026-04-06T12:30:15.995Z</time></trkpt><trkpt lat="45.6719098" lon="11.0510149"><ele>1478.25</ele><time>2026-04-06T12:30:16.994Z</time></trkpt><trkpt lat="45.671893" lon="11.0511791"><ele>1475.5</ele><time>2026-04-06T12:30:17.993Z</time></trkpt><trkpt lat="45.671852" lon="11.0513388"><ele>1472.75</ele><time>2026-04-06T12:30:18.994Z</time></trkpt><trkpt lat="45.6718081" lon="11.0514984"><ele>1470.0</ele><time>2026-04-06T12:30:19.994Z</time></trkpt><trkpt lat="45.6717632" lon="11.0516568"><ele>1468.6</ele><time>2026-04-06T12:30:20.994Z</time></trkpt><trkpt lat="45.6717333" lon="11.0517947"><ele>1467.2</ele><time>2026-04-06T12:30:21.993Z</time></trkpt><trkpt lat="45.6717214" lon="11.0519288"><ele>1465.8000000000002</ele><time>2026-04-06T12:30:22.993Z</time></trkpt><trkpt lat="45.671732" lon="11.0520659"><ele>1464.4</ele><time>2026-04-06T12:30:23.993Z</time></trkpt><trkpt lat="45.6717627" lon="11.052213"><ele>1463.0</ele><time>2026-04-06T12:30:24.993Z</time></trkpt><trkpt lat="45.671811" lon="11.0523686"><ele>1465.25</ele><time>2026-04-06T12:30:25.994Z</time></trkpt><trkpt lat="45.6718716" lon="11.0525219"><ele>1467.5</ele><time>2026-04-06T12:30:26.993Z</time></trkpt><trkpt lat="45.6719406" lon="11.0526574"><ele>1469.75</ele><time>2026-04-06T12:30:27.994Z</time></trkpt><trkpt lat="45.6720207" lon="11.0527831"><ele>1472.0</ele><time>2026-04-06T12:30:28.994Z</time></trkpt><trkpt lat="45.6721096" lon="11.0528954"><ele>1472.0</ele><time>2026-04-06T12:30:29.993Z</time></trkpt><trkpt lat="45.6721998" lon="11.0529913"><ele>1472.0</ele><time>2026-04-06T12:30:30.994Z</time></trkpt><trkpt lat="45.6722819" lon="11.0530803"><ele>1472.0</ele><time>2026-04-06T12:30:31.993Z</time></trkpt><trkpt lat="45.6723465" lon="11.0531678"><ele>1472.0</ele><time>2026-04-06T12:30:32.994Z</time></trkpt><trkpt lat="45.6723987" lon="11.0532677"><ele>1472.0</ele><time>2026-04-06T12:30:33.994Z</time></trkpt><trkpt lat="45.672427" lon="11.0533846"><ele>1468.6</ele><time>2026-04-06T12:30:34.994Z</time></trkpt><trkpt lat="45.6724267" lon="11.053505"><ele>1465.1999999999998</ele><time>2026-04-06T12:30:35.995Z</time></trkpt><trkpt lat="45.672403" lon="11.0536358"><ele>1461.8</ele><time>2026-04-06T12:30:36.994Z</time></trkpt><trkpt lat="45.6723583" lon="11.0537584"><ele>1458.4</ele><time>2026-04-06T12:30:37.995Z</time></trkpt><trkpt lat="45.6722972" lon="11.0538615"><ele>1455.0</ele><time>2026-04-06T12:30:38.994Z</time></trkpt><trkpt lat="45.6722203" lon="11.0539415"><ele>1455.0</ele><time>2026-04-06T12:30:39.993Z</time></trkpt><trkpt lat="45.6721323" lon="11.0539814"><ele>1455.0</ele><time>2026-04-06T12:30:40.994Z</time></trkpt><trkpt lat="45.6720351" lon="11.0539797"><ele>1455.0</ele><time>2026-04-06T12:30:41.995Z</time></trkpt><trkpt lat="45.6719314" lon="11.0539393"><ele>1455.0</ele><time>2026-04-06T12:30:42.994Z</time></trkpt><trkpt lat="45.6718107" lon="11.0538768"><ele>1455.0</ele><time>2026-04-06T12:30:43.993Z</time></trkpt><trkpt lat="45.6716841" lon="11.0538201"><ele>1451.25</ele><time>2026-04-06T12:30:44.994Z</time></trkpt><trkpt lat="45.6715518" lon="11.0537636"><ele>1447.5</ele><time>2026-04-06T12:30:45.994Z</time></trkpt><trkpt lat="45.6714237" lon="11.0537054"><ele>1443.75</ele><time>2026-04-06T12:30:46.993Z</time></trkpt><trkpt lat="45.6713017" lon="11.0536467"><ele>1440.0</ele><time>2026-04-06T12:30:47.993Z</time></trkpt><trkpt lat="45.6711948" lon="11.0535969"><ele>1436.6666666666667</ele><time>2026-04-06T12:30:48.993Z</time></trkpt><trkpt lat="45.6710986" lon="11.0535582"><ele>1433.3333333333333</ele><time>2026-04-06T12:30:49.994Z</time></trkpt><trkpt lat="45.6710079" lon="11.0535423"><ele>1430.0</ele><time>2026-04-06T12:30:50.995Z</time></trkpt><trkpt lat="45.6709277" lon="11.0535542"><ele>1426.6666666666665</ele><time>2026-04-06T12:30:51.995Z</time></trkpt><trkpt lat="45.6708546" lon="11.0535861"><ele>1423.3333333333333</ele><time>2026-04-06T12:30:52.993Z</time></trkpt><trkpt lat="45.6708005" lon="11.0536613"><ele>1420.0</ele><time>2026-04-06T12:30:53.994Z</time></trkpt><trkpt lat="45.6707566" lon="11.053765"><ele>1420.0</ele><time>2026-04-06T12:30:54.994Z</time></trkpt><trkpt lat="45.6707151" lon="11.0539035"><ele>1420.0</ele><time>2026-04-06T12:30:55.994Z</time></trkpt><trkpt lat="45.6706686" lon="11.0540709"><ele>1420.0</ele><time>2026-04-06T12:30:56.994Z</time></trkpt><trkpt lat="45.6706034" lon="11.0542101"><ele>1420.0</ele><time>2026-04-06T12:30:57.993Z</time></trkpt><trkpt lat="45.6705314" lon="11.0543368"><ele>1422.4</ele><time>2026-04-06T12:30:58.993Z</time></trkpt><trkpt lat="45.6704701" lon="11.054462"><ele>1424.8</ele><time>2026-04-06T12:30:59.994Z</time></trkpt><trkpt lat="45.6704345" lon="11.0545859"><ele>1427.1999999999998</ele><time>2026-04-06T12:31:00.994Z</time></trkpt><trkpt lat="45.67042" lon="11.0547184"><ele>1429.6</ele><time>2026-04-06T12:31:01.994Z</time></trkpt><trkpt lat="45.6704241" lon="11.0548487"><ele>1432.0</ele><time>2026-04-06T12:31:02.994Z</time></trkpt><trkpt lat="45.6704244" lon="11.054965"><ele>1432.5</ele><time>2026-04-06T12:31:03.994Z</time></trkpt><trkpt lat="45.6704166" lon="11.055068"><ele>1433.0</ele><time>2026-04-06T12:31:04.992Z</time></trkpt><trkpt lat="45.670383" lon="11.0551516"><ele>1433.5</ele><time>2026-04-06T12:31:05.993Z</time></trkpt><trkpt lat="45.6703329" lon="11.0552111"><ele>1434.0</ele><time>2026-04-06T12:31:06.993Z</time></trkpt><trkpt lat="45.6702702" lon="11.055236"><ele>1434.5</ele><time>2026-04-06T12:31:07.994Z</time></trkpt><trkpt lat="45.6701844" lon="11.055243"><ele>1435.0</ele><time>2026-04-06T12:31:08.993Z</time></trkpt><trkpt lat="45.6700879" lon="11.0552091"><ele>1431.0</ele><time>2026-04-06T12:31:09.994Z</time></trkpt><trkpt lat="45.6699813" lon="11.0551794"><ele>1427.0</ele><time>2026-04-06T12:31:10.994Z</time></trkpt><trkpt lat="45.6698707" lon="11.0551584"><ele>1423.0</ele><time>2026-04-06T12:31:11.993Z</time></trkpt><trkpt lat="45.669764" lon="11.0551542"><ele>1419.0</ele><time>2026-04-06T12:31:12.995Z</time></trkpt><trkpt lat="45.6696603" lon="11.055184"><ele>1415.0</ele><time>2026-04-06T12:31:13.995Z</time></trkpt><trkpt lat="45.6695528" lon="11.0552515"><ele>1415.0</ele><time>2026-04-06T12:31:14.995Z</time></trkpt><trkpt lat="45.6694483" lon="11.0553481"><ele>1415.0</ele><time>2026-04-06T12:31:15.994Z</time></trkpt><trkpt lat="45.6693425" lon="11.0554546"><ele>1415.0</ele><time>2026-04-06T12:31:16.993Z</time></trkpt><trkpt lat="45.6692349" lon="11.0555525"><ele>1415.0</ele><time>2026-04-06T12:31:17.994Z</time></trkpt><trkpt lat="45.6691399" lon="11.055641"><ele>1413.0</ele><time>2026-04-06T12:31:18.993Z</time></trkpt><trkpt lat="45.6690546" lon="11.0557195"><ele>1411.0</ele><time>2026-04-06T12:31:19.995Z</time></trkpt><trkpt lat="45.6689799" lon="11.0558031"><ele>1409.0</ele><time>2026-04-06T12:31:20.995Z</time></trkpt><trkpt lat="45.6689178" lon="11.0559023"><ele>1407.0</ele><time>2026-04-06T12:31:21.995Z</time></trkpt><trkpt lat="45.6688704" lon="11.0560111"><ele>1405.0</ele><time>2026-04-06T12:31:22.994Z</time></trkpt><trkpt lat="45.6688379" lon="11.0561163"><ele>1405.0</ele><time>2026-04-06T12:31:23.993Z</time></trkpt><trkpt lat="45.6688115" lon="11.0562032"><ele>1405.0</ele><time>2026-04-06T12:31:24.993Z</time></trkpt><trkpt lat="45.668768" lon="11.0563405"><ele>1405.0</ele><time>2026-04-06T12:31:26.994Z</time></trkpt><trkpt lat="45.6687422" lon="11.0564321"><ele>1405.0</ele><time>2026-04-06T12:31:29.993Z</time></trkpt><trkpt lat="45.6687506" lon="11.0565249"><ele>1405.0</ele><time>2026-04-06T12:31:32.993Z</time></trkpt><trkpt lat="45.668843" lon="11.056586"><ele>1405.0</ele><time>2026-04-06T12:31:34.994Z</time></trkpt><trkpt lat="45.6689192" lon="11.0566148"><ele>1404.0</ele><time>2026-04-06T12:31:35.995Z</time></trkpt><trkpt lat="45.6690017" lon="11.0566443"><ele>1403.0</ele><time>2026-04-06T12:31:36.994Z</time></trkpt><trkpt lat="45.6690892" lon="11.0566729"><ele>1402.0</ele><time>2026-04-06T12:31:37.993Z</time></trkpt><trkpt lat="45.6691929" lon="11.0567034"><ele>1401.0</ele><time>2026-04-06T12:31:38.993Z</time></trkpt><trkpt lat="45.669311" lon="11.0567304"><ele>1400.0</ele><time>2026-04-06T12:31:39.994Z</time></trkpt><trkpt lat="45.6694244" lon="11.0567534"><ele>1404.5</ele><time>2026-04-06T12:31:40.993Z</time></trkpt><trkpt lat="45.6695444" lon="11.0567859"><ele>1409.0</ele><time>2026-04-06T12:31:41.993Z</time></trkpt><trkpt lat="45.6696672" lon="11.0568281"><ele>1413.5</ele><time>2026-04-06T12:31:42.993Z</time></trkpt><trkpt lat="45.6698007" lon="11.0568655"><ele>1418.0</ele><time>2026-04-06T12:31:43.995Z</time></trkpt><trkpt lat="45.6699426" lon="11.0569024"><ele>1418.0</ele><time>2026-04-06T12:31:44.994Z</time></trkpt><trkpt lat="45.6700722" lon="11.0569406"><ele>1418.0</ele><time>2026-04-06T12:31:45.993Z</time></trkpt><trkpt lat="45.6701897" lon="11.056992"><ele>1418.0</ele><time>2026-04-06T12:31:46.994Z</time></trkpt><trkpt lat="45.670297" lon="11.0570785"><ele>1418.0</ele><time>2026-04-06T12:31:47.994Z</time></trkpt><trkpt lat="45.6704002" lon="11.0572026"><ele>1419.5</ele><time>2026-04-06T12:31:48.993Z</time></trkpt><trkpt lat="45.6705063" lon="11.0573528"><ele>1421.0</ele><time>2026-04-06T12:31:49.993Z</time></trkpt><trkpt lat="45.6706129" lon="11.0575003"><ele>1422.5</ele><time>2026-04-06T12:31:50.994Z</time></trkpt><trkpt lat="45.6707249" lon="11.0576337"><ele>1424.0</ele><time>2026-04-06T12:31:51.994Z</time></trkpt><trkpt lat="45.6708475" lon="11.0577525"><ele>1424.0</ele><time>2026-04-06T12:31:52.993Z</time></trkpt><trkpt lat="45.6709696" lon="11.0578632"><ele>1424.0</ele><time>2026-04-06T12:31:53.994Z</time></trkpt><trkpt lat="45.6710742" lon="11.0579754"><ele>1424.0</ele><time>2026-04-06T12:31:54.994Z</time></trkpt><trkpt lat="45.6711699" lon="11.0580982"><ele>1424.0</ele><time>2026-04-06T12:31:55.994Z</time></trkpt><trkpt lat="45.671246" lon="11.0582317"><ele>1427.25</ele><time>2026-04-06T12:31:56.993Z</time></trkpt><trkpt lat="45.6712988" lon="11.0583883"><ele>1430.5</ele><time>2026-04-06T12:31:57.994Z</time></trkpt><trkpt lat="45.6713219" lon="11.058564"><ele>1433.75</ele><time>2026-04-06T12:31:58.994Z</time></trkpt><trkpt lat="45.6713147" lon="11.0587549"><ele>1437.0</ele><time>2026-04-06T12:31:59.993Z</time></trkpt><trkpt lat="45.6712787" lon="11.0589513"><ele>1433.6666666666667</ele><time>2026-04-06T12:32:00.994Z</time></trkpt><trkpt lat="45.6712225" lon="11.0591571"><ele>1430.3333333333335</ele><time>2026-04-06T12:32:01.994Z</time></trkpt><trkpt lat="45.6711531" lon="11.0593751"><ele>1427.0</ele><time>2026-04-06T12:32:02.994Z</time></trkpt><trkpt lat="45.6710802" lon="11.059599"><ele>1427.0</ele><time>2026-04-06T12:32:03.994Z</time></trkpt><trkpt lat="45.6710162" lon="11.0597904"><ele>1427.0</ele><time>2026-04-06T12:32:04.995Z</time></trkpt><trkpt lat="45.6709646" lon="11.0599523"><ele>1427.0</ele><time>2026-04-06T12:32:05.994Z</time></trkpt><trkpt lat="45.6709225" lon="11.0600941"><ele>1427.0</ele><time>2026-04-06T12:32:06.993Z</time></trkpt><trkpt lat="45.670899" lon="11.0602291"><ele>1430.25</ele><time>2026-04-06T12:32:07.993Z</time></trkpt><trkpt lat="45.6708987" lon="11.0603747"><ele>1433.5</ele><time>2026-04-06T12:32:08.994Z</time></trkpt><trkpt lat="45.6709232" lon="11.0605309"><ele>1436.75</ele><time>2026-04-06T12:32:09.994Z</time></trkpt><trkpt lat="45.6709653" lon="11.0607016"><ele>1440.0</ele><time>2026-04-06T12:32:10.994Z</time></trkpt><trkpt lat="45.6710143" lon="11.0608947"><ele>1442.3333333333333</ele><time>2026-04-06T12:32:11.994Z</time></trkpt><trkpt lat="45.6710754" lon="11.0611132"><ele>1444.6666666666665</ele><time>2026-04-06T12:32:12.993Z</time></trkpt><trkpt lat="45.6711404" lon="11.0613217"><ele>1447.0</ele><time>2026-04-06T12:32:13.993Z</time></trkpt><trkpt lat="45.6712034" lon="11.0615055"><ele>1453.6666666666665</ele><time>2026-04-06T12:32:14.994Z</time></trkpt><trkpt lat="45.6712862" lon="11.0616832"><ele>1460.3333333333333</ele><time>2026-04-06T12:32:15.994Z</time></trkpt><trkpt lat="45.6713886" lon="11.0618501"><ele>1467.0</ele><time>2026-04-06T12:32:16.994Z</time></trkpt><trkpt lat="45.6714986" lon="11.0620063"><ele>1467.0</ele><time>2026-04-06T12:32:17.993Z</time></trkpt><trkpt lat="45.6716129" lon="11.0621378"><ele>1467.0</ele><time>2026-04-06T12:32:18.993Z</time></trkpt><trkpt lat="45.6717295" lon="11.0622397"><ele>1467.0</ele><time>2026-04-06T12:32:19.995Z</time></trkpt><trkpt lat="45.6718466" lon="11.0623153"><ele>1467.0</ele><time>2026-04-06T12:32:20.994Z</time></trkpt><trkpt lat="45.6719742" lon="11.062372"><ele>1468.6666666666667</ele><time>2026-04-06T12:32:21.994Z</time></trkpt><trkpt lat="45.6721212" lon="11.0624262"><ele>1470.3333333333335</ele><time>2026-04-06T12:32:22.994Z</time></trkpt><trkpt lat="45.6722812" lon="11.0624897"><ele>1472.0</ele><time>2026-04-06T12:32:23.994Z</time></trkpt><trkpt lat="45.6724365" lon="11.0625664"><ele>1472.0</ele><time>2026-04-06T12:32:24.993Z</time></trkpt><trkpt lat="45.6725903" lon="11.0626697"><ele>1472.0</ele><time>2026-04-06T12:32:25.994Z</time></trkpt><trkpt lat="45.6727356" lon="11.0627954"><ele>1472.0</ele><time>2026-04-06T12:32:26.994Z</time></trkpt><trkpt lat="45.672885" lon="11.0629381"><ele>1474.0</ele><time>2026-04-06T12:32:27.994Z</time></trkpt><trkpt lat="45.6730372" lon="11.0630889"><ele>1476.0</ele><time>2026-04-06T12:32:28.993Z</time></trkpt><trkpt lat="45.6731727" lon="11.0632229"><ele>1478.0</ele><time>2026-04-06T12:32:29.994Z</time></trkpt><trkpt lat="45.6732994" lon="11.0633487"><ele>1478.0</ele><time>2026-04-06T12:32:30.995Z</time></trkpt><trkpt lat="45.6734095" lon="11.06346"><ele>1478.0</ele><time>2026-04-06T12:32:31.994Z</time></trkpt><trkpt lat="45.6735159" lon="11.0635697"><ele>1478.0</ele><time>2026-04-06T12:32:32.994Z</time></trkpt><trkpt lat="45.6736216" lon="11.0636733"><ele>1478.0</ele><time>2026-04-06T12:32:33.993Z</time></trkpt><trkpt lat="45.6737249" lon="11.0637617"><ele>1479.8000000000002</ele><time>2026-04-06T12:32:34.993Z</time></trkpt><trkpt lat="45.6738224" lon="11.063831"><ele>1481.6</ele><time>2026-04-06T12:32:35.994Z</time></trkpt><trkpt lat="45.6739263" lon="11.063884"><ele>1483.4</ele><time>2026-04-06T12:32:36.994Z</time></trkpt><trkpt lat="45.6740325" lon="11.0639162"><ele>1485.1999999999998</ele><time>2026-04-06T12:32:37.993Z</time></trkpt><trkpt lat="45.6741486" lon="11.0639277"><ele>1487.0</ele><time>2026-04-06T12:32:38.994Z</time></trkpt><trkpt lat="45.6742699" lon="11.0639161"><ele>1487.0</ele><time>2026-04-06T12:32:39.993Z</time></trkpt><trkpt lat="45.6744019" lon="11.0638838"><ele>1487.0</ele><time>2026-04-06T12:32:40.994Z</time></trkpt><trkpt lat="45.674542" lon="11.0638273"><ele>1487.0</ele><time>2026-04-06T12:32:41.994Z</time></trkpt><trkpt lat="45.6746867" lon="11.063751"><ele>1487.0</ele><time>2026-04-06T12:32:42.994Z</time></trkpt><trkpt lat="45.6748397" lon="11.0636492"><ele>1488.3333333333335</ele><time>2026-04-06T12:32:43.994Z</time></trkpt><trkpt lat="45.6749879" lon="11.0635502"><ele>1489.6666666666667</ele><time>2026-04-06T12:32:44.993Z</time></trkpt><trkpt lat="45.675133" lon="11.0634513"><ele>1491.0</ele><time>2026-04-06T12:32:45.993Z</time></trkpt><trkpt lat="45.675271" lon="11.0633605"><ele>1496.3333333333333</ele><time>2026-04-06T12:32:46.994Z</time></trkpt><trkpt lat="45.6754075" lon="11.0632694"><ele>1501.6666666666665</ele><time>2026-04-06T12:32:47.993Z</time></trkpt><trkpt lat="45.675549" lon="11.0631779"><ele>1507.0</ele><time>2026-04-06T12:32:48.994Z</time></trkpt><trkpt lat="45.6756854" lon="11.0630982"><ele>1507.0</ele><time>2026-04-06T12:32:49.994Z</time></trkpt><trkpt lat="45.6758243" lon="11.063034"><ele>1507.0</ele><time>2026-04-06T12:32:50.994Z</time></trkpt><trkpt lat="45.6759636" lon="11.0629783"><ele>1507.0</ele><time>2026-04-06T12:32:51.993Z</time></trkpt><trkpt lat="45.6760843" lon="11.0629349"><ele>1507.0</ele><time>2026-04-06T12:32:52.994Z</time></trkpt><trkpt lat="45.6761859" lon="11.0629057"><ele>1507.4285714285716</ele><time>2026-04-06T12:32:53.993Z</time></trkpt><trkpt lat="45.6762799" lon="11.0628924"><ele>1507.8571428571427</ele><time>2026-04-06T12:32:54.993Z</time></trkpt><trkpt lat="45.6763555" lon="11.0629066"><ele>1508.2857142857142</ele><time>2026-04-06T12:32:55.993Z</time></trkpt><trkpt lat="45.6764164" lon="11.0629544"><ele>1508.7142857142858</ele><time>2026-04-06T12:32:56.993Z</time></trkpt><trkpt lat="45.6764583" lon="11.0630296"><ele>1509.1428571428573</ele><time>2026-04-06T12:32:57.993Z</time></trkpt><trkpt lat="45.6764734" lon="11.0631203"><ele>1509.5714285714284</ele><time>2026-04-06T12:32:58.995Z</time></trkpt><trkpt lat="45.6764565" lon="11.0632114"><ele>1510.0</ele><time>2026-04-06T12:32:59.994Z</time></trkpt><trkpt lat="45.6764143" lon="11.0632945"><ele>1508.4</ele><time>2026-04-06T12:33:00.995Z</time></trkpt><trkpt lat="45.6763455" lon="11.0633677"><ele>1506.8</ele><time>2026-04-06T12:33:01.995Z</time></trkpt><trkpt lat="45.6762603" lon="11.0634274"><ele>1505.1999999999998</ele><time>2026-04-06T12:33:02.993Z</time></trkpt><trkpt lat="45.6761709" lon="11.0634974"><ele>1503.6</ele><time>2026-04-06T12:33:03.993Z</time></trkpt><trkpt lat="45.6760954" lon="11.0635711"><ele>1502.0</ele><time>2026-04-06T12:33:04.993Z</time></trkpt><trkpt lat="45.6760221" lon="11.0636613"><ele>1502.3999999999999</ele><time>2026-04-06T12:33:05.994Z</time></trkpt><trkpt lat="45.6759568" lon="11.0637675"><ele>1502.8</ele><time>2026-04-06T12:33:06.993Z</time></trkpt><trkpt lat="45.6758983" lon="11.0638875"><ele>1503.2</ele><time>2026-04-06T12:33:07.994Z</time></trkpt><trkpt lat="45.6758532" lon="11.0640239"><ele>1503.6</ele><time>2026-04-06T12:33:08.993Z</time></trkpt><trkpt lat="45.6758202" lon="11.0641695"><ele>1504.0</ele><time>2026-04-06T12:33:09.994Z</time></trkpt><trkpt lat="45.6757967" lon="11.0643131"><ele>1504.0</ele><time>2026-04-06T12:33:10.994Z</time></trkpt><trkpt lat="45.6757775" lon="11.0644565"><ele>1504.0</ele><time>2026-04-06T12:33:11.994Z</time></trkpt><trkpt lat="45.6757586" lon="11.0645922"><ele>1504.0</ele><time>2026-04-06T12:33:12.993Z</time></trkpt><trkpt lat="45.6757361" lon="11.0647198"><ele>1504.0</ele><time>2026-04-06T12:33:13.993Z</time></trkpt><trkpt lat="45.6757095" lon="11.0648473"><ele>1504.0</ele><time>2026-04-06T12:33:14.993Z</time></trkpt><trkpt lat="45.6756795" lon="11.0649756"><ele>1506.4</ele><time>2026-04-06T12:33:15.993Z</time></trkpt><trkpt lat="45.6756453" lon="11.0651013"><ele>1508.8000000000002</ele><time>2026-04-06T12:33:16.994Z</time></trkpt><trkpt lat="45.6755993" lon="11.0652219"><ele>1511.1999999999998</ele><time>2026-04-06T12:33:17.993Z</time></trkpt><trkpt lat="45.6755436" lon="11.0653361"><ele>1513.6</ele><time>2026-04-06T12:33:18.993Z</time></trkpt><trkpt lat="45.6754759" lon="11.0654298"><ele>1516.0</ele><time>2026-04-06T12:33:19.993Z</time></trkpt><trkpt lat="45.6753947" lon="11.0655168"><ele>1516.0</ele><time>2026-04-06T12:33:20.994Z</time></trkpt><trkpt lat="45.6753057" lon="11.0656046"><ele>1516.0</ele><time>2026-04-06T12:33:21.995Z</time></trkpt><trkpt lat="45.6752216" lon="11.0656909"><ele>1516.0</ele><time>2026-04-06T12:33:22.993Z</time></trkpt><trkpt lat="45.6751398" lon="11.0657709"><ele>1516.0</ele><time>2026-04-06T12:33:23.994Z</time></trkpt><trkpt lat="45.6750684" lon="11.0658427"><ele>1516.0</ele><time>2026-04-06T12:33:24.995Z</time></trkpt><trkpt lat="45.6750018" lon="11.0659103"><ele>1516.0</ele><time>2026-04-06T12:33:25.993Z</time></trkpt><trkpt lat="45.6749327" lon="11.0659837"><ele>1516.0</ele><time>2026-04-06T12:33:26.994Z</time></trkpt><trkpt lat="45.674873" lon="11.0660642"><ele>1516.0</ele><time>2026-04-06T12:33:27.993Z</time></trkpt><trkpt lat="45.6748318" lon="11.0661631"><ele>1516.0</ele><time>2026-04-06T12:33:28.994Z</time></trkpt><trkpt lat="45.6748126" lon="11.0662912"><ele>1516.0</ele><time>2026-04-06T12:33:29.993Z</time></trkpt><trkpt lat="45.6748188" lon="11.0664273"><ele>1516.0</ele><time>2026-04-06T12:33:30.993Z</time></trkpt><trkpt lat="45.6748536" lon="11.0665465"><ele>1516.0</ele><time>2026-04-06T12:33:31.995Z</time></trkpt><trkpt lat="45.6749111" lon="11.0666364"><ele>1516.0</ele><time>2026-04-06T12:33:32.993Z</time></trkpt><trkpt lat="45.6749904" lon="11.0666966"><ele>1516.0</ele><time>2026-04-06T12:33:33.994Z</time></trkpt><trkpt lat="45.6750745" lon="11.0667085"><ele>1516.0</ele><time>2026-04-06T12:33:34.995Z</time></trkpt><trkpt lat="45.6751623" lon="11.0666793"><ele>1516.0</ele><time>2026-04-06T12:33:35.995Z</time></trkpt><trkpt lat="45.6752561" lon="11.0666101"><ele>1518.6</ele><time>2026-04-06T12:33:36.994Z</time></trkpt><trkpt lat="45.6753502" lon="11.066529"><ele>1521.1999999999998</ele><time>2026-04-06T12:33:37.994Z</time></trkpt><trkpt lat="45.6754346" lon="11.0664485"><ele>1523.8000000000002</ele><time>2026-04-06T12:33:38.994Z</time></trkpt><trkpt lat="45.675522" lon="11.0663669"><ele>1526.4</ele><time>2026-04-06T12:33:39.994Z</time></trkpt><trkpt lat="45.6756144" lon="11.066288"><ele>1529.0</ele><time>2026-04-06T12:33:40.993Z</time></trkpt><trkpt lat="45.6757203" lon="11.0662061"><ele>1529.0</ele><time>2026-04-06T12:33:41.994Z</time></trkpt><trkpt lat="45.6758483" lon="11.066117"><ele>1529.0</ele><time>2026-04-06T12:33:42.993Z</time></trkpt><trkpt lat="45.6759782" lon="11.0660341"><ele>1529.0</ele><time>2026-04-06T12:33:43.994Z</time></trkpt><trkpt lat="45.6761266" lon="11.0659498"><ele>1529.0</ele><time>2026-04-06T12:33:44.994Z</time></trkpt><trkpt lat="45.6762787" lon="11.0658661"><ele>1529.0</ele><time>2026-04-06T12:33:45.995Z</time></trkpt><trkpt lat="45.6764366" lon="11.0657837"><ele>1529.0</ele><time>2026-04-06T12:33:46.993Z</time></trkpt><trkpt lat="45.6766014" lon="11.0656977"><ele>1529.0</ele><time>2026-04-06T12:33:47.995Z</time></trkpt><trkpt lat="45.6767561" lon="11.0656169"><ele>1529.0</ele><time>2026-04-06T12:33:48.994Z</time></trkpt><trkpt lat="45.6768962" lon="11.0655415"><ele>1529.0</ele><time>2026-04-06T12:33:49.994Z</time></trkpt><trkpt lat="45.6770253" lon="11.0654713"><ele>1529.0</ele><time>2026-04-06T12:33:50.994Z</time></trkpt><trkpt lat="45.6771423" lon="11.0654064"><ele>1529.0</ele><time>2026-04-06T12:33:51.993Z</time></trkpt><trkpt lat="45.6772483" lon="11.0653469"><ele>1531.0</ele><time>2026-04-06T12:33:52.994Z</time></trkpt><trkpt lat="45.6773452" lon="11.0652924"><ele>1533.0</ele><time>2026-04-06T12:33:53.994Z</time></trkpt><trkpt lat="45.6774364" lon="11.0652415"><ele>1535.0</ele><time>2026-04-06T12:33:54.995Z</time></trkpt><trkpt lat="45.6775204" lon="11.0651969"><ele>1537.0</ele><time>2026-04-06T12:33:55.993Z</time></trkpt><trkpt lat="45.6775952" lon="11.0651657"><ele>1538.9999999999998</ele><time>2026-04-06T12:33:56.995Z</time></trkpt><trkpt lat="45.6776706" lon="11.0651537"><ele>1541.0</ele><time>2026-04-06T12:33:57.994Z</time></trkpt><trkpt lat="45.6777436" lon="11.0651779"><ele>1540.9999999999998</ele><time>2026-04-06T12:33:58.994Z</time></trkpt><trkpt lat="45.6778055" lon="11.0652388"><ele>1541.0</ele><time>2026-04-06T12:33:59.993Z</time></trkpt><trkpt lat="45.677852" lon="11.0653311"><ele>1541.0</ele><time>2026-04-06T12:34:00.993Z</time></trkpt><trkpt lat="45.6778681" lon="11.0654467"><ele>1541.0</ele><time>2026-04-06T12:34:01.994Z</time></trkpt><trkpt lat="45.6778452" lon="11.0655617"><ele>1540.9999999999998</ele><time>2026-04-06T12:34:02.994Z</time></trkpt><trkpt lat="45.6777874" lon="11.0656602"><ele>1541.0</ele><time>2026-04-06T12:34:03.994Z</time></trkpt><trkpt lat="45.6776982" lon="11.0657496"><ele>1544.0</ele><time>2026-04-06T12:34:04.994Z</time></trkpt><trkpt lat="45.6775783" lon="11.0658339"><ele>1547.0</ele><time>2026-04-06T12:34:05.994Z</time></trkpt><trkpt lat="45.6774555" lon="11.0659085"><ele>1550.0</ele><time>2026-04-06T12:34:06.993Z</time></trkpt><trkpt lat="45.6773313" lon="11.0659857"><ele>1553.0</ele><time>2026-04-06T12:34:07.993Z</time></trkpt><trkpt lat="45.6772246" lon="11.066059"><ele>1553.0</ele><time>2026-04-06T12:34:08.993Z</time></trkpt><trkpt lat="45.6771269" lon="11.0661353"><ele>1553.0</ele><time>2026-04-06T12:34:09.994Z</time></trkpt><trkpt lat="45.6770307" lon="11.0662219"><ele>1553.0</ele><time>2026-04-06T12:34:10.992Z</time></trkpt><trkpt lat="45.6769427" lon="11.0663276"><ele>1553.0</ele><time>2026-04-06T12:34:11.992Z</time></trkpt><trkpt lat="45.676874" lon="11.0664443"><ele>1553.0</ele><time>2026-04-06T12:34:12.992Z</time></trkpt><trkpt lat="45.6768218" lon="11.0665731"><ele>1553.0</ele><time>2026-04-06T12:34:13.993Z</time></trkpt><trkpt lat="45.6767879" lon="11.0667127"><ele>1553.0</ele><time>2026-04-06T12:34:14.992Z</time></trkpt><trkpt lat="45.6767716" lon="11.0668694"><ele>1553.0</ele><time>2026-04-06T12:34:15.994Z</time></trkpt><trkpt lat="45.6767718" lon="11.0670332"><ele>1553.0</ele><time>2026-04-06T12:34:16.993Z</time></trkpt><trkpt lat="45.6767837" lon="11.0671873"><ele>1553.0</ele><time>2026-04-06T12:34:17.994Z</time></trkpt><trkpt lat="45.6767978" lon="11.0673252"><ele>1553.8000000000002</ele><time>2026-04-06T12:34:18.993Z</time></trkpt><trkpt lat="45.6768157" lon="11.0674584"><ele>1554.6</ele><time>2026-04-06T12:34:19.994Z</time></trkpt><trkpt lat="45.6768401" lon="11.0675922"><ele>1555.4</ele><time>2026-04-06T12:34:20.993Z</time></trkpt><trkpt lat="45.676879" lon="11.0677263"><ele>1556.1999999999998</ele><time>2026-04-06T12:34:21.992Z</time></trkpt><trkpt lat="45.6769318" lon="11.067851"><ele>1557.0</ele><time>2026-04-06T12:34:22.992Z</time></trkpt><trkpt lat="45.6769972" lon="11.0679598"><ele>1559.8</ele><time>2026-04-06T12:34:23.994Z</time></trkpt><trkpt lat="45.6770719" lon="11.0680585"><ele>1562.6</ele><time>2026-04-06T12:34:24.993Z</time></trkpt><trkpt lat="45.677154" lon="11.0681481"><ele>1565.3999999999999</ele><time>2026-04-06T12:34:25.992Z</time></trkpt><trkpt lat="45.6772426" lon="11.0682278"><ele>1568.1999999999998</ele><time>2026-04-06T12:34:26.992Z</time></trkpt><trkpt lat="45.6773402" lon="11.0682961"><ele>1571.0</ele><time>2026-04-06T12:34:27.993Z</time></trkpt><trkpt lat="45.6774418" lon="11.0683583"><ele>1571.0</ele><time>2026-04-06T12:34:28.993Z</time></trkpt><trkpt lat="45.6775505" lon="11.0684156"><ele>1571.0</ele><time>2026-04-06T12:34:29.994Z</time></trkpt><trkpt lat="45.6776629" lon="11.0684792"><ele>1571.0</ele><time>2026-04-06T12:34:30.992Z</time></trkpt><trkpt lat="45.6777784" lon="11.0685505"><ele>1571.0</ele><time>2026-04-06T12:34:31.993Z</time></trkpt><trkpt lat="45.6778947" lon="11.0686216"><ele>1574.4</ele><time>2026-04-06T12:34:32.993Z</time></trkpt><trkpt lat="45.6779971" lon="11.0686807"><ele>1577.8</ele><time>2026-04-06T12:34:33.992Z</time></trkpt><trkpt lat="45.6780927" lon="11.0687381"><ele>1581.2</ele><time>2026-04-06T12:34:34.992Z</time></trkpt><trkpt lat="45.6781899" lon="11.0688044"><ele>1584.6000000000001</ele><time>2026-04-06T12:34:35.992Z</time></trkpt><trkpt lat="45.6782827" lon="11.068886"><ele>1588.0</ele><time>2026-04-06T12:34:36.993Z</time></trkpt><trkpt lat="45.6783636" lon="11.0689783"><ele>1588.0000000000002</ele><time>2026-04-06T12:34:37.994Z</time></trkpt><trkpt lat="45.6784304" lon="11.0690738"><ele>1588.0</ele><time>2026-04-06T12:34:38.993Z</time></trkpt><trkpt lat="45.6784866" lon="11.0691698"><ele>1588.0</ele><time>2026-04-06T12:34:39.993Z</time></trkpt><trkpt lat="45.6785318" lon="11.0692555"><ele>1588.0</ele><time>2026-04-06T12:34:40.992Z</time></trkpt><trkpt lat="45.6785708" lon="11.0693353"><ele>1588.0000000000002</ele><time>2026-04-06T12:34:41.994Z</time></trkpt><trkpt lat="45.6786064" lon="11.0694135"><ele>1588.0</ele><time>2026-04-06T12:34:42.992Z</time></trkpt><trkpt lat="45.6786414" lon="11.0694936"><ele>1587.2</ele><time>2026-04-06T12:34:43.993Z</time></trkpt><trkpt lat="45.6786749" lon="11.0695756"><ele>1586.4</ele><time>2026-04-06T12:34:44.994Z</time></trkpt><trkpt lat="45.6787089" lon="11.0696564"><ele>1585.6000000000001</ele><time>2026-04-06T12:34:45.992Z</time></trkpt><trkpt lat="45.6787719" lon="11.069794"><ele>1584.8000000000002</ele><time>2026-04-06T12:34:47.993Z</time></trkpt><trkpt lat="45.6788329" lon="11.0699285"><ele>1584.0</ele><time>2026-04-06T12:34:49.993Z</time></trkpt><trkpt lat="45.6789073" lon="11.0700732"><ele>1584.0</ele><time>2026-04-06T12:34:51.993Z</time></trkpt><trkpt lat="45.6789596" lon="11.0701425"><ele>1584.0</ele><time>2026-04-06T12:34:52.992Z</time></trkpt><trkpt lat="45.6790125" lon="11.0701941"><ele>1584.0</ele><time>2026-04-06T12:34:53.992Z</time></trkpt><trkpt lat="45.6791244" lon="11.0702522"><ele>1584.0</ele><time>2026-04-06T12:34:55.992Z</time></trkpt><trkpt lat="45.6792314" lon="11.0702566"><ele>1584.0</ele><time>2026-04-06T12:34:57.992Z</time></trkpt><trkpt lat="45.679324" lon="11.0702518"><ele>1584.0</ele><time>2026-04-06T12:34:59.993Z</time></trkpt><trkpt lat="45.6793897" lon="11.0702397"><ele>1584.0</ele><time>2026-04-06T12:35:01.993Z</time></trkpt><trkpt lat="45.6794549" lon="11.0702179"><ele>1584.0</ele><time>2026-04-06T12:35:05.993Z</time></trkpt><trkpt lat="45.679521" lon="11.0701663"><ele>1584.0</ele><time>2026-04-06T12:35:39.993Z</time></trkpt><trkpt lat="45.6795809" lon="11.0701262"><ele>1584.0</ele><time>2026-04-06T12:35:40.992Z</time></trkpt><trkpt lat="45.6796569" lon="11.0700822"><ele>1584.0</ele><time>2026-04-06T12:35:41.992Z</time></trkpt><trkpt lat="45.6797345" lon="11.0700377"><ele>1584.0</ele><time>2026-04-06T12:35:42.994Z</time></trkpt><trkpt lat="45.6798234" lon="11.0699887"><ele>1583.2</ele><time>2026-04-06T12:35:43.993Z</time></trkpt><trkpt lat="45.6799192" lon="11.0699379"><ele>1582.4</ele><time>2026-04-06T12:35:44.993Z</time></trkpt><trkpt lat="45.6800187" lon="11.0698812"><ele>1581.6</ele><time>2026-04-06T12:35:45.993Z</time></trkpt><trkpt lat="45.6801168" lon="11.0698227"><ele>1580.8</ele><time>2026-04-06T12:35:46.993Z</time></trkpt><trkpt lat="45.6802144" lon="11.0697624"><ele>1580.0</ele><time>2026-04-06T12:35:47.993Z</time></trkpt><trkpt lat="45.6803157" lon="11.0696944"><ele>1580.0</ele><time>2026-04-06T12:35:48.992Z</time></trkpt><trkpt lat="45.680424" lon="11.0696153"><ele>1580.0</ele><time>2026-04-06T12:35:49.992Z</time></trkpt><trkpt lat="45.6805346" lon="11.0695244"><ele>1580.0</ele><time>2026-04-06T12:35:50.992Z</time></trkpt><trkpt lat="45.6806347" lon="11.069434"><ele>1580.0</ele><time>2026-04-06T12:35:51.992Z</time></trkpt><trkpt lat="45.6807238" lon="11.0693487"><ele>1579.9999999999998</ele><time>2026-04-06T12:35:52.994Z</time></trkpt><trkpt lat="45.6808026" lon="11.0692733"><ele>1580.0</ele><time>2026-04-06T12:35:53.993Z</time></trkpt><trkpt lat="45.6808765" lon="11.0692075"><ele>1580.0</ele><time>2026-04-06T12:35:54.993Z</time></trkpt><trkpt lat="45.680947" lon="11.0691445"><ele>1580.0</ele><time>2026-04-06T12:35:55.994Z</time></trkpt><trkpt lat="45.6810165" lon="11.0690977"><ele>1579.9999999999998</ele><time>2026-04-06T12:35:56.992Z</time></trkpt><trkpt lat="45.6810858" lon="11.0690675"><ele>1580.0</ele><time>2026-04-06T12:35:57.993Z</time></trkpt><trkpt lat="45.6811608" lon="11.0690616"><ele>1580.1666666666665</ele><time>2026-04-06T12:35:58.993Z</time></trkpt><trkpt lat="45.6812376" lon="11.0690728"><ele>1580.3333333333333</ele><time>2026-04-06T12:35:59.993Z</time></trkpt><trkpt lat="45.6813044" lon="11.0691125"><ele>1580.5</ele><time>2026-04-06T12:36:00.994Z</time></trkpt><trkpt lat="45.6813638" lon="11.0691813"><ele>1580.6666666666665</ele><time>2026-04-06T12:36:01.992Z</time></trkpt><trkpt lat="45.6814109" lon="11.0692821"><ele>1580.8333333333333</ele><time>2026-04-06T12:36:02.992Z</time></trkpt><trkpt lat="45.6814453" lon="11.0694145"><ele>1581.0</ele><time>2026-04-06T12:36:03.993Z</time></trkpt><trkpt lat="45.6814669" lon="11.0695853"><ele>1581.0</ele><time>2026-04-06T12:36:04.993Z</time></trkpt><trkpt lat="45.6814775" lon="11.0697881"><ele>1581.0</ele><time>2026-04-06T12:36:05.993Z</time></trkpt><trkpt lat="45.6814802" lon="11.0699947"><ele>1581.0</ele><time>2026-04-06T12:36:06.992Z</time></trkpt><trkpt lat="45.6814782" lon="11.0702172"><ele>1581.0</ele><time>2026-04-06T12:36:07.992Z</time></trkpt><trkpt lat="45.6814751" lon="11.0704487"><ele>1580.0</ele><time>2026-04-06T12:36:08.994Z</time></trkpt><trkpt lat="45.6814707" lon="11.0707088"><ele>1579.0</ele><time>2026-04-06T12:36:09.993Z</time></trkpt><trkpt lat="45.6814654" lon="11.0709827"><ele>1578.0</ele><time>2026-04-06T12:36:10.994Z</time></trkpt><trkpt lat="45.6814634" lon="11.0712393"><ele>1577.0</ele><time>2026-04-06T12:36:11.994Z</time></trkpt><trkpt lat="45.6814619" lon="11.0714802"><ele>1576.0</ele><time>2026-04-06T12:36:12.992Z</time></trkpt><trkpt lat="45.6814617" lon="11.0717181"><ele>1575.0</ele><time>2026-04-06T12:36:13.993Z</time></trkpt><trkpt lat="45.6814688" lon="11.0719448"><ele>1574.25</ele><time>2026-04-06T12:36:14.992Z</time></trkpt><trkpt lat="45.681488" lon="11.0721575"><ele>1573.5</ele><time>2026-04-06T12:36:15.994Z</time></trkpt><trkpt lat="45.6815191" lon="11.0723562"><ele>1572.75</ele><time>2026-04-06T12:36:16.992Z</time></trkpt><trkpt lat="45.6815633" lon="11.0725313"><ele>1572.0</ele><time>2026-04-06T12:36:17.992Z</time></trkpt><trkpt lat="45.681624" lon="11.0726824"><ele>1571.0</ele><time>2026-04-06T12:36:18.994Z</time></trkpt><trkpt lat="45.6817092" lon="11.072826"><ele>1570.0</ele><time>2026-04-06T12:36:19.992Z</time></trkpt><trkpt lat="45.6818184" lon="11.0729577"><ele>1569.0</ele><time>2026-04-06T12:36:20.993Z</time></trkpt><trkpt lat="45.6819532" lon="11.0730736"><ele>1568.0</ele><time>2026-04-06T12:36:21.994Z</time></trkpt><trkpt lat="45.6821108" lon="11.0731865"><ele>1562.3333333333333</ele><time>2026-04-06T12:36:22.993Z</time></trkpt><trkpt lat="45.6822899" lon="11.0733165"><ele>1556.6666666666665</ele><time>2026-04-06T12:36:23.992Z</time></trkpt><trkpt lat="45.6824854" lon="11.0734655"><ele>1551.0</ele><time>2026-04-06T12:36:24.993Z</time></trkpt><trkpt lat="45.6826775" lon="11.073612"><ele>1551.0</ele><time>2026-04-06T12:36:25.993Z</time></trkpt><trkpt lat="45.6828737" lon="11.0737615"><ele>1551.0</ele><time>2026-04-06T12:36:26.993Z</time></trkpt><trkpt lat="45.6830623" lon="11.0739015"><ele>1551.0</ele><time>2026-04-06T12:36:27.992Z</time></trkpt><trkpt lat="45.68324" lon="11.0740314"><ele>1551.0</ele><time>2026-04-06T12:36:28.993Z</time></trkpt><trkpt lat="45.6834107" lon="11.0741568"><ele>1551.0</ele><time>2026-04-06T12:36:29.992Z</time></trkpt><trkpt lat="45.6835727" lon="11.0742779"><ele>1551.0</ele><time>2026-04-06T12:36:30.993Z</time></trkpt><trkpt lat="45.6837292" lon="11.0743959"><ele>1556.0</ele><time>2026-04-06T12:36:31.992Z</time></trkpt><trkpt lat="45.6838851" lon="11.0745108"><ele>1561.0</ele><time>2026-04-06T12:36:32.992Z</time></trkpt><trkpt lat="45.6840402" lon="11.0746261"><ele>1566.0</ele><time>2026-04-06T12:36:33.994Z</time></trkpt><trkpt lat="45.6841916" lon="11.0747378"><ele>1566.0</ele><time>2026-04-06T12:36:34.994Z</time></trkpt><trkpt lat="45.6843406" lon="11.0748487"><ele>1566.0</ele><time>2026-04-06T12:36:35.993Z</time></trkpt><trkpt lat="45.6844886" lon="11.074956"><ele>1566.0</ele><time>2026-04-06T12:36:36.993Z</time></trkpt><trkpt lat="45.6846404" lon="11.0750642"><ele>1564.0</ele><time>2026-04-06T12:36:37.993Z</time></trkpt><trkpt lat="45.6847968" lon="11.0751688"><ele>1562.0</ele><time>2026-04-06T12:36:38.992Z</time></trkpt><trkpt lat="45.6849506" lon="11.0752767"><ele>1560.0</ele><time>2026-04-06T12:36:39.994Z</time></trkpt><trkpt lat="45.6850966" lon="11.0753855"><ele>1560.0</ele><time>2026-04-06T12:36:40.993Z</time></trkpt><trkpt lat="45.6852313" lon="11.0754934"><ele>1560.0</ele><time>2026-04-06T12:36:41.992Z</time></trkpt><trkpt lat="45.6853578" lon="11.0755917"><ele>1560.0</ele><time>2026-04-06T12:36:42.992Z</time></trkpt><trkpt lat="45.6854727" lon="11.0756761"><ele>1560.0</ele><time>2026-04-06T12:36:43.993Z</time></trkpt><trkpt lat="45.6855859" lon="11.075761"><ele>1558.2</ele><time>2026-04-06T12:36:44.993Z</time></trkpt><trkpt lat="45.685693" lon="11.0758435"><ele>1556.4</ele><time>2026-04-06T12:36:45.993Z</time></trkpt><trkpt lat="45.6857894" lon="11.075916"><ele>1554.6</ele><time>2026-04-06T12:36:46.993Z</time></trkpt><trkpt lat="45.6858819" lon="11.075985"><ele>1552.8</ele><time>2026-04-06T12:36:47.993Z</time></trkpt><trkpt lat="45.6859684" lon="11.0760461"><ele>1551.0</ele><time>2026-04-06T12:36:48.993Z</time></trkpt><trkpt lat="45.6860507" lon="11.0761047"><ele>1551.3333333333333</ele><time>2026-04-06T12:36:49.993Z</time></trkpt><trkpt lat="45.686129" lon="11.0761626"><ele>1551.6666666666665</ele><time>2026-04-06T12:36:50.993Z</time></trkpt><trkpt lat="45.6862054" lon="11.0762199"><ele>1552.0</ele><time>2026-04-06T12:36:51.992Z</time></trkpt><trkpt lat="45.6862817" lon="11.0762785"><ele>1552.3333333333333</ele><time>2026-04-06T12:36:52.992Z</time></trkpt><trkpt lat="45.6863598" lon="11.0763379"><ele>1552.6666666666665</ele><time>2026-04-06T12:36:53.993Z</time></trkpt><trkpt lat="45.6864425" lon="11.0764014"><ele>1553.0</ele><time>2026-04-06T12:36:54.993Z</time></trkpt><trkpt lat="45.6865284" lon="11.076464"><ele>1553.0</ele><time>2026-04-06T12:36:55.994Z</time></trkpt><trkpt lat="45.6866173" lon="11.0765295"><ele>1553.0</ele><time>2026-04-06T12:36:56.992Z</time></trkpt><trkpt lat="45.6867075" lon="11.0765978"><ele>1553.0</ele><time>2026-04-06T12:36:57.994Z</time></trkpt><trkpt lat="45.6867957" lon="11.0766647"><ele>1553.0</ele><time>2026-04-06T12:36:58.993Z</time></trkpt><trkpt lat="45.6868738" lon="11.0767221"><ele>1553.0</ele><time>2026-04-06T12:36:59.993Z</time></trkpt><trkpt lat="45.6869492" lon="11.0767809"><ele>1551.4999999999998</ele><time>2026-04-06T12:37:00.993Z</time></trkpt><trkpt lat="45.6870231" lon="11.0768414"><ele>1550.0</ele><time>2026-04-06T12:37:01.992Z</time></trkpt><trkpt lat="45.6870943" lon="11.0768983"><ele>1548.5</ele><time>2026-04-06T12:37:02.993Z</time></trkpt><trkpt lat="45.6871605" lon="11.0769526"><ele>1547.0</ele><time>2026-04-06T12:37:03.992Z</time></trkpt><trkpt lat="45.6872227" lon="11.0770017"><ele>1545.4999999999998</ele><time>2026-04-06T12:37:04.994Z</time></trkpt><trkpt lat="45.6872813" lon="11.0770555"><ele>1544.0</ele><time>2026-04-06T12:37:05.994Z</time></trkpt><trkpt lat="45.6873378" lon="11.0771149"><ele>1543.9999999999998</ele><time>2026-04-06T12:37:06.993Z</time></trkpt><trkpt lat="45.6873935" lon="11.0771821"><ele>1544.0</ele><time>2026-04-06T12:37:07.993Z</time></trkpt><trkpt lat="45.6874453" lon="11.0772573"><ele>1544.0</ele><time>2026-04-06T12:37:08.993Z</time></trkpt><trkpt lat="45.6874952" lon="11.0773513"><ele>1544.0</ele><time>2026-04-06T12:37:09.993Z</time></trkpt><trkpt lat="45.68754" lon="11.0774647"><ele>1543.9999999999998</ele><time>2026-04-06T12:37:10.993Z</time></trkpt><trkpt lat="45.6875765" lon="11.0775974"><ele>1544.0</ele><time>2026-04-06T12:37:11.992Z</time></trkpt><trkpt lat="45.6876015" lon="11.0777479"><ele>1543.4</ele><time>2026-04-06T12:37:12.994Z</time></trkpt><trkpt lat="45.687615" lon="11.0779104"><ele>1542.8000000000002</ele><time>2026-04-06T12:37:13.992Z</time></trkpt><trkpt lat="45.6876171" lon="11.0780703"><ele>1542.1999999999998</ele><time>2026-04-06T12:37:14.993Z</time></trkpt><trkpt lat="45.6876026" lon="11.0782249"><ele>1541.6</ele><time>2026-04-06T12:37:15.992Z</time></trkpt><trkpt lat="45.6875736" lon="11.0783787"><ele>1541.0</ele><time>2026-04-06T12:37:16.993Z</time></trkpt><trkpt lat="45.6875295" lon="11.0785277"><ele>1540.75</ele><time>2026-04-06T12:37:17.993Z</time></trkpt><trkpt lat="45.6874712" lon="11.0786624"><ele>1540.5</ele><time>2026-04-06T12:37:18.993Z</time></trkpt><trkpt lat="45.6873953" lon="11.0787874"><ele>1540.25</ele><time>2026-04-06T12:37:19.993Z</time></trkpt><trkpt lat="45.6872987" lon="11.0789047"><ele>1540.0</ele><time>2026-04-06T12:37:20.993Z</time></trkpt><trkpt lat="45.6871914" lon="11.0790123"><ele>1538.0</ele><time>2026-04-06T12:37:21.992Z</time></trkpt><trkpt lat="45.6870726" lon="11.0791184"><ele>1536.0</ele><time>2026-04-06T12:37:22.992Z</time></trkpt><trkpt lat="45.6869447" lon="11.0792261"><ele>1534.0</ele><time>2026-04-06T12:37:23.992Z</time></trkpt><trkpt lat="45.6868085" lon="11.0793424"><ele>1532.0</ele><time>2026-04-06T12:37:24.993Z</time></trkpt><trkpt lat="45.6866556" lon="11.0794765"><ele>1532.0</ele><time>2026-04-06T12:37:25.994Z</time></trkpt><trkpt lat="45.6865057" lon="11.0796101"><ele>1532.0</ele><time>2026-04-06T12:37:26.993Z</time></trkpt><trkpt lat="45.6863774" lon="11.0797263"><ele>1532.0</ele><time>2026-04-06T12:37:27.992Z</time></trkpt><trkpt lat="45.6862624" lon="11.0798288"><ele>1532.0</ele><time>2026-04-06T12:37:28.994Z</time></trkpt><trkpt lat="45.6861632" lon="11.0799171"><ele>1532.0</ele><time>2026-04-06T12:37:29.993Z</time></trkpt><trkpt lat="45.6860694" lon="11.0800074"><ele>1532.0</ele><time>2026-04-06T12:37:30.993Z</time></trkpt><trkpt lat="45.6859862" lon="11.0801088"><ele>1532.0</ele><time>2026-04-06T12:37:31.993Z</time></trkpt><trkpt lat="45.6859162" lon="11.0802203"><ele>1532.0</ele><time>2026-04-06T12:37:32.994Z</time></trkpt><trkpt lat="45.6858578" lon="11.0803402"><ele>1531.1999999999998</ele><time>2026-04-06T12:37:33.992Z</time></trkpt><trkpt lat="45.6858118" lon="11.0804703"><ele>1530.4</ele><time>2026-04-06T12:37:34.992Z</time></trkpt><trkpt lat="45.6857869" lon="11.0806076"><ele>1529.6</ele><time>2026-04-06T12:37:35.992Z</time></trkpt><trkpt lat="45.6857778" lon="11.0807442"><ele>1528.8000000000002</ele><time>2026-04-06T12:37:36.994Z</time></trkpt><trkpt lat="45.685782" lon="11.0808713"><ele>1528.0</ele><time>2026-04-06T12:37:37.993Z</time></trkpt><trkpt lat="45.6857909" lon="11.0809806"><ele>1526.3333333333333</ele><time>2026-04-06T12:37:38.993Z</time></trkpt><trkpt lat="45.6857989" lon="11.0810848"><ele>1524.6666666666665</ele><time>2026-04-06T12:37:39.993Z</time></trkpt><trkpt lat="45.6858082" lon="11.0811819"><ele>1523.0</ele><time>2026-04-06T12:37:40.993Z</time></trkpt><trkpt lat="45.6858208" lon="11.081273"><ele>1521.3333333333333</ele><time>2026-04-06T12:37:41.994Z</time></trkpt><trkpt lat="45.6858372" lon="11.0813676"><ele>1519.6666666666667</ele><time>2026-04-06T12:37:42.993Z</time></trkpt><trkpt lat="45.685856" lon="11.0814685"><ele>1518.0</ele><time>2026-04-06T12:37:43.992Z</time></trkpt><trkpt lat="45.6858851" lon="11.081615"><ele>1518.0</ele><time>2026-04-06T12:37:45.994Z</time></trkpt><trkpt lat="45.6859226" lon="11.0816899"><ele>1518.0</ele><time>2026-04-06T12:37:47.993Z</time></trkpt><trkpt lat="45.6859965" lon="11.0816979"><ele>1518.0</ele><time>2026-04-06T12:37:51.993Z</time></trkpt><trkpt lat="45.6860262" lon="11.0816119"><ele>1518.0</ele><time>2026-04-06T12:37:54.992Z</time></trkpt><trkpt lat="45.6859945" lon="11.081532"><ele>1518.0</ele><time>2026-04-06T12:37:56.993Z</time></trkpt><trkpt lat="45.6859193" lon="11.0814171"><ele>1518.0</ele><time>2026-04-06T12:37:58.993Z</time></trkpt><trkpt lat="45.6858857" lon="11.0813319"><ele>1518.0</ele><time>2026-04-06T12:37:59.992Z</time></trkpt><trkpt lat="45.6858568" lon="11.0812322"><ele>1518.0</ele><time>2026-04-06T12:38:00.993Z</time></trkpt><trkpt lat="45.6858345" lon="11.0811269"><ele>1518.0</ele><time>2026-04-06T12:38:01.992Z</time></trkpt><trkpt lat="45.6858151" lon="11.0809985"><ele>1518.0</ele><time>2026-04-06T12:38:02.992Z</time></trkpt><trkpt lat="45.6858065" lon="11.080851"><ele>1518.0</ele><time>2026-04-06T12:38:03.992Z</time></trkpt><trkpt lat="45.6858104" lon="11.0806986"><ele>1518.0</ele><time>2026-04-06T12:38:04.992Z</time></trkpt><trkpt lat="45.6858307" lon="11.0805436"><ele>1518.75</ele><time>2026-04-06T12:38:05.992Z</time></trkpt><trkpt lat="45.6858712" lon="11.0803999"><ele>1519.5</ele><time>2026-04-06T12:38:06.992Z</time></trkpt><trkpt lat="45.6859321" lon="11.080262"><ele>1520.25</ele><time>2026-04-06T12:38:07.992Z</time></trkpt><trkpt lat="45.6860126" lon="11.0801352"><ele>1521.0</ele><time>2026-04-06T12:38:08.992Z</time></trkpt><trkpt lat="45.6861216" lon="11.0800116"><ele>1524.6666666666667</ele><time>2026-04-06T12:38:09.993Z</time></trkpt><trkpt lat="45.6862514" lon="11.0798862"><ele>1528.3333333333335</ele><time>2026-04-06T12:38:10.994Z</time></trkpt><trkpt lat="45.6863813" lon="11.0797652"><ele>1532.0</ele><time>2026-04-06T12:38:11.992Z</time></trkpt><trkpt lat="45.6865236" lon="11.0796366"><ele>1532.0</ele><time>2026-04-06T12:38:12.993Z</time></trkpt><trkpt lat="45.6866778" lon="11.0795027"><ele>1532.0</ele><time>2026-04-06T12:38:13.993Z</time></trkpt><trkpt lat="45.6868423" lon="11.0793616"><ele>1532.0</ele><time>2026-04-06T12:38:14.992Z</time></trkpt><trkpt lat="45.6869927" lon="11.0792345"><ele>1531.75</ele><time>2026-04-06T12:38:15.993Z</time></trkpt><trkpt lat="45.6871323" lon="11.0791174"><ele>1531.5</ele><time>2026-04-06T12:38:16.992Z</time></trkpt><trkpt lat="45.6872461" lon="11.0790119"><ele>1531.25</ele><time>2026-04-06T12:38:17.993Z</time></trkpt><trkpt lat="45.6873465" lon="11.0789067"><ele>1531.0</ele><time>2026-04-06T12:38:18.993Z</time></trkpt><trkpt lat="45.6874312" lon="11.0787996"><ele>1533.25</ele><time>2026-04-06T12:38:19.993Z</time></trkpt><trkpt lat="45.6875053" lon="11.0786779"><ele>1535.5</ele><time>2026-04-06T12:38:20.993Z</time></trkpt><trkpt lat="45.6875628" lon="11.0785504"><ele>1537.75</ele><time>2026-04-06T12:38:21.994Z</time></trkpt><trkpt lat="45.6876092" lon="11.0784025"><ele>1540.0</ele><time>2026-04-06T12:38:22.993Z</time></trkpt><trkpt lat="45.6876434" lon="11.0782346"><ele>1540.25</ele><time>2026-04-06T12:38:23.992Z</time></trkpt><trkpt lat="45.6876591" lon="11.0780564"><ele>1540.5</ele><time>2026-04-06T12:38:24.993Z</time></trkpt><trkpt lat="45.6876538" lon="11.0778677"><ele>1540.75</ele><time>2026-04-06T12:38:25.993Z</time></trkpt><trkpt lat="45.6876244" lon="11.0776658"><ele>1541.0</ele><time>2026-04-06T12:38:26.993Z</time></trkpt><trkpt lat="45.6875739" lon="11.0774681"><ele>1541.75</ele><time>2026-04-06T12:38:27.993Z</time></trkpt><trkpt lat="45.6875014" lon="11.0772986"><ele>1542.5</ele><time>2026-04-06T12:38:28.993Z</time></trkpt><trkpt lat="45.6874032" lon="11.0771472"><ele>1543.25</ele><time>2026-04-06T12:38:29.993Z</time></trkpt><trkpt lat="45.6872812" lon="11.077012"><ele>1544.0</ele><time>2026-04-06T12:38:30.992Z</time></trkpt><trkpt lat="45.6871348" lon="11.076888"><ele>1544.0</ele><time>2026-04-06T12:38:31.993Z</time></trkpt><trkpt lat="45.6869683" lon="11.0767622"><ele>1544.0</ele><time>2026-04-06T12:38:32.994Z</time></trkpt><trkpt lat="45.6867847" lon="11.0766237"><ele>1544.0</ele><time>2026-04-06T12:38:33.993Z</time></trkpt><trkpt lat="45.6865953" lon="11.0764791"><ele>1546.3333333333333</ele><time>2026-04-06T12:38:34.994Z</time></trkpt><trkpt lat="45.6863994" lon="11.0763322"><ele>1548.6666666666665</ele><time>2026-04-06T12:38:35.993Z</time></trkpt><trkpt lat="45.6861988" lon="11.0761808"><ele>1551.0</ele><time>2026-04-06T12:38:36.992Z</time></trkpt><trkpt lat="45.6860278" lon="11.0760529"><ele>1551.0</ele><time>2026-04-06T12:38:37.992Z</time></trkpt><trkpt lat="45.6858735" lon="11.0759387"><ele>1551.0</ele><time>2026-04-06T12:38:38.992Z</time></trkpt><trkpt lat="45.6857307" lon="11.0758344"><ele>1551.0</ele><time>2026-04-06T12:38:39.992Z</time></trkpt><trkpt lat="45.6856025" lon="11.075742"><ele>1553.25</ele><time>2026-04-06T12:38:40.993Z</time></trkpt><trkpt lat="45.6854878" lon="11.0756587"><ele>1555.5</ele><time>2026-04-06T12:38:41.992Z</time></trkpt><trkpt lat="45.6853803" lon="11.0755781"><ele>1557.75</ele><time>2026-04-06T12:38:42.993Z</time></trkpt><trkpt lat="45.6852805" lon="11.0755028"><ele>1560.0</ele><time>2026-04-06T12:38:43.993Z</time></trkpt><trkpt lat="45.6851873" lon="11.0754314"><ele>1560.0</ele><time>2026-04-06T12:38:44.993Z</time></trkpt><trkpt lat="45.6850955" lon="11.0753626"><ele>1560.0</ele><time>2026-04-06T12:38:45.993Z</time></trkpt><trkpt lat="45.6850044" lon="11.0752941"><ele>1560.0</ele><time>2026-04-06T12:38:46.993Z</time></trkpt><trkpt lat="45.6849209" lon="11.075231"><ele>1560.0</ele><time>2026-04-06T12:38:47.993Z</time></trkpt><trkpt lat="45.6848393" lon="11.0751702"><ele>1560.0</ele><time>2026-04-06T12:38:48.993Z</time></trkpt><trkpt lat="45.6847495" lon="11.075104"><ele>1560.0</ele><time>2026-04-06T12:38:49.993Z</time></trkpt><trkpt lat="45.6846523" lon="11.0750338"><ele>1560.0</ele><time>2026-04-06T12:38:50.992Z</time></trkpt><trkpt lat="45.6845497" lon="11.074961"><ele>1560.0</ele><time>2026-04-06T12:38:51.992Z</time></trkpt><trkpt lat="45.6844424" lon="11.0748828"><ele>1560.0</ele><time>2026-04-06T12:38:52.993Z</time></trkpt><trkpt lat="45.6843332" lon="11.0748031"><ele>1561.2</ele><time>2026-04-06T12:38:53.993Z</time></trkpt><trkpt lat="45.6842252" lon="11.0747228"><ele>1562.4</ele><time>2026-04-06T12:38:54.993Z</time></trkpt><trkpt lat="45.6841234" lon="11.0746471"><ele>1563.6</ele><time>2026-04-06T12:38:55.992Z</time></trkpt><trkpt lat="45.6840287" lon="11.0745788"><ele>1564.8</ele><time>2026-04-06T12:38:56.992Z</time></trkpt><trkpt lat="45.683939" lon="11.0745137"><ele>1566.0</ele><time>2026-04-06T12:38:57.993Z</time></trkpt><trkpt lat="45.6838548" lon="11.0744515"><ele>1566.0</ele><time>2026-04-06T12:38:58.992Z</time></trkpt><trkpt lat="45.683781" lon="11.0743944"><ele>1566.0</ele><time>2026-04-06T12:38:59.993Z</time></trkpt><trkpt lat="45.6837114" lon="11.0743435"><ele>1566.0</ele><time>2026-04-06T12:39:00.992Z</time></trkpt><trkpt lat="45.6836525" lon="11.0743035"><ele>1566.0</ele><time>2026-04-06T12:39:01.994Z</time></trkpt><trkpt lat="45.6835925" lon="11.074262"><ele>1566.0</ele><time>2026-04-06T12:39:02.993Z</time></trkpt><trkpt lat="45.683492" lon="11.0741931"><ele>1566.0</ele><time>2026-04-06T12:39:04.994Z</time></trkpt><trkpt lat="45.6834209" lon="11.0741836"><ele>1566.0</ele><time>2026-04-06T12:39:06.992Z</time></trkpt><trkpt lat="45.683365" lon="11.0742799"><ele>1566.0</ele><time>2026-04-06T12:39:09.994Z</time></trkpt><trkpt lat="45.6833896" lon="11.0743665"><ele>1566.0</ele><time>2026-04-06T12:39:14.993Z</time></trkpt><trkpt lat="45.6834218" lon="11.0742892"><ele>1566.0</ele><time>2026-04-06T12:48:27.993Z</time></trkpt><trkpt lat="45.6834912" lon="11.074246"><ele>1566.0</ele><time>2026-04-06T12:48:31.991Z</time></trkpt><trkpt lat="45.6835522" lon="11.0742925"><ele>1566.0</ele><time>2026-04-06T12:49:14.991Z</time></trkpt><trkpt lat="45.6836283" lon="11.0743407"><ele>1566.0</ele><time>2026-04-06T12:49:16.991Z</time></trkpt><trkpt lat="45.683686" lon="11.0743771"><ele>1566.0</ele><time>2026-04-06T12:49:17.992Z</time></trkpt><trkpt lat="45.6837482" lon="11.0744181"><ele>1566.0</ele><time>2026-04-06T12:49:18.992Z</time></trkpt><trkpt lat="45.6838135" lon="11.0744652"><ele>1566.0</ele><time>2026-04-06T12:49:19.992Z</time></trkpt><trkpt lat="45.6838873" lon="11.0745192"><ele>1566.0</ele><time>2026-04-06T12:49:20.991Z</time></trkpt><trkpt lat="45.6839674" lon="11.0745774"><ele>1566.0</ele><time>2026-04-06T12:49:21.993Z</time></trkpt><trkpt lat="45.6840534" lon="11.0746405"><ele>1566.0</ele><time>2026-04-06T12:49:22.992Z</time></trkpt><trkpt lat="45.6841372" lon="11.0747019"><ele>1566.0</ele><time>2026-04-06T12:49:23.992Z</time></trkpt><trkpt lat="45.6842232" lon="11.0747696"><ele>1566.0</ele><time>2026-04-06T12:49:24.979Z</time></trkpt><trkpt lat="45.6843105" lon="11.0748351"><ele>1566.0</ele><time>2026-04-06T12:49:25.98Z</time></trkpt><trkpt lat="45.6843962" lon="11.0748976"><ele>1566.0</ele><time>2026-04-06T12:49:26.98Z</time></trkpt><trkpt lat="45.6844743" lon="11.0749529"><ele>1566.0</ele><time>2026-04-06T12:49:27.984Z</time></trkpt><trkpt lat="45.6845475" lon="11.0750065"><ele>1565.0</ele><time>2026-04-06T12:49:28.981Z</time></trkpt><trkpt lat="45.6846167" lon="11.0750584"><ele>1564.0</ele><time>2026-04-06T12:49:29.979Z</time></trkpt><trkpt lat="45.6846853" lon="11.0751101"><ele>1563.0</ele><time>2026-04-06T12:49:30.993Z</time></trkpt><trkpt lat="45.6847569" lon="11.075166"><ele>1562.0</ele><time>2026-04-06T12:49:31.991Z</time></trkpt><trkpt lat="45.68482" lon="11.0752104"><ele>1561.0</ele><time>2026-04-06T12:49:32.993Z</time></trkpt><trkpt lat="45.6849257" lon="11.0752898"><ele>1560.0</ele><time>2026-04-06T12:49:34.992Z</time></trkpt><trkpt lat="45.6850368" lon="11.0753736"><ele>1560.0</ele><time>2026-04-06T12:49:36.991Z</time></trkpt><trkpt lat="45.6850995" lon="11.0754185"><ele>1560.0</ele><time>2026-04-06T12:49:37.992Z</time></trkpt><trkpt lat="45.6851667" lon="11.0754671"><ele>1560.0</ele><time>2026-04-06T12:49:38.993Z</time></trkpt><trkpt lat="45.6852327" lon="11.0755164"><ele>1560.0</ele><time>2026-04-06T12:49:39.98Z</time></trkpt><trkpt lat="45.6852914" lon="11.0755626"><ele>1560.0</ele><time>2026-04-06T12:49:40.981Z</time></trkpt><trkpt lat="45.685349" lon="11.0756067"><ele>1560.0</ele><time>2026-04-06T12:49:41.98Z</time></trkpt><trkpt lat="45.6854093" lon="11.0756517"><ele>1560.0</ele><time>2026-04-06T12:49:42.984Z</time></trkpt><trkpt lat="45.6854725" lon="11.0757028"><ele>1560.857142857143</ele><time>2026-04-06T12:49:43.992Z</time></trkpt><trkpt lat="45.6855428" lon="11.0757536"><ele>1561.7142857142858</ele><time>2026-04-06T12:49:44.993Z</time></trkpt><trkpt lat="45.6856117" lon="11.075801"><ele>1562.5714285714284</ele><time>2026-04-06T12:49:45.992Z</time></trkpt><trkpt lat="45.6856798" lon="11.0758491"><ele>1563.4285714285716</ele><time>2026-04-06T12:49:46.991Z</time></trkpt><trkpt lat="45.6857461" lon="11.0758952"><ele>1564.2857142857144</ele><time>2026-04-06T12:49:47.992Z</time></trkpt><trkpt lat="45.6858078" lon="11.0759383"><ele>1565.142857142857</ele><time>2026-04-06T12:49:48.993Z</time></trkpt><trkpt lat="45.6858732" lon="11.0759875"><ele>1566.0</ele><time>2026-04-06T12:49:49.993Z</time></trkpt><trkpt lat="45.6859451" lon="11.0760403"><ele>1563.4</ele><time>2026-04-06T12:49:50.992Z</time></trkpt><trkpt lat="45.6860224" lon="11.0760955"><ele>1560.8</ele><time>2026-04-06T12:49:51.992Z</time></trkpt><trkpt lat="45.6861024" lon="11.0761566"><ele>1558.2</ele><time>2026-04-06T12:49:52.974Z</time></trkpt><trkpt lat="45.6861854" lon="11.0762188"><ele>1555.6000000000001</ele><time>2026-04-06T12:49:53.975Z</time></trkpt><trkpt lat="45.6862688" lon="11.0762797"><ele>1553.0</ele><time>2026-04-06T12:49:54.975Z</time></trkpt><trkpt lat="45.686352" lon="11.0763401"><ele>1553.0</ele><time>2026-04-06T12:49:55.973Z</time></trkpt><trkpt lat="45.686437" lon="11.0764005"><ele>1553.0</ele><time>2026-04-06T12:49:56.992Z</time></trkpt><trkpt lat="45.6865206" lon="11.0764606"><ele>1553.0</ele><time>2026-04-06T12:49:57.992Z</time></trkpt><trkpt lat="45.686608" lon="11.076524"><ele>1553.0</ele><time>2026-04-06T12:49:58.992Z</time></trkpt><trkpt lat="45.6866966" lon="11.0765922"><ele>1553.0</ele><time>2026-04-06T12:49:59.993Z</time></trkpt><trkpt lat="45.6867827" lon="11.0766571"><ele>1551.4999999999998</ele><time>2026-04-06T12:50:00.992Z</time></trkpt><trkpt lat="45.6868602" lon="11.0767151"><ele>1550.0</ele><time>2026-04-06T12:50:01.992Z</time></trkpt><trkpt lat="45.6869336" lon="11.0767738"><ele>1548.5</ele><time>2026-04-06T12:50:02.991Z</time></trkpt><trkpt lat="45.6870035" lon="11.0768306"><ele>1547.0</ele><time>2026-04-06T12:50:03.991Z</time></trkpt><trkpt lat="45.6870749" lon="11.0768846"><ele>1545.4999999999998</ele><time>2026-04-06T12:50:04.977Z</time></trkpt><trkpt lat="45.6871442" lon="11.0769414"><ele>1544.0</ele><time>2026-04-06T12:50:05.977Z</time></trkpt><trkpt lat="45.6872079" lon="11.0769968"><ele>1543.9999999999998</ele><time>2026-04-06T12:50:06.974Z</time></trkpt><trkpt lat="45.687271" lon="11.0770563"><ele>1544.0</ele><time>2026-04-06T12:50:07.977Z</time></trkpt><trkpt lat="45.6873328" lon="11.0771228"><ele>1544.0</ele><time>2026-04-06T12:50:08.977Z</time></trkpt><trkpt lat="45.6873948" lon="11.0772013"><ele>1544.0</ele><time>2026-04-06T12:50:09.979Z</time></trkpt><trkpt lat="45.6874547" lon="11.0772988"><ele>1543.9999999999998</ele><time>2026-04-06T12:50:10.979Z</time></trkpt><trkpt lat="45.6875135" lon="11.0774165"><ele>1544.0</ele><time>2026-04-06T12:50:11.991Z</time></trkpt><trkpt lat="45.6875633" lon="11.0775526"><ele>1543.25</ele><time>2026-04-06T12:50:12.992Z</time></trkpt><trkpt lat="45.6875983" lon="11.0777065"><ele>1542.5</ele><time>2026-04-06T12:50:13.992Z</time></trkpt><trkpt lat="45.6876169" lon="11.0778724"><ele>1541.75</ele><time>2026-04-06T12:50:14.992Z</time></trkpt><trkpt lat="45.6876207" lon="11.0780478"><ele>1541.0</ele><time>2026-04-06T12:50:15.993Z</time></trkpt><trkpt lat="45.6876078" lon="11.0782211"><ele>1540.75</ele><time>2026-04-06T12:50:16.992Z</time></trkpt><trkpt lat="45.6875763" lon="11.0783909"><ele>1540.5</ele><time>2026-04-06T12:50:17.992Z</time></trkpt><trkpt lat="45.6875267" lon="11.0785412"><ele>1540.25</ele><time>2026-04-06T12:50:18.993Z</time></trkpt><trkpt lat="45.6874628" lon="11.0786772"><ele>1540.0</ele><time>2026-04-06T12:50:19.981Z</time></trkpt><trkpt lat="45.6873887" lon="11.0788001"><ele>1540.0</ele><time>2026-04-06T12:50:20.985Z</time></trkpt><trkpt lat="45.6873055" lon="11.0789058"><ele>1540.0</ele><time>2026-04-06T12:50:21.978Z</time></trkpt><trkpt lat="45.6872142" lon="11.0789978"><ele>1540.0</ele><time>2026-04-06T12:50:22.982Z</time></trkpt><trkpt lat="45.6871191" lon="11.0790801"><ele>1540.0</ele><time>2026-04-06T12:50:23.983Z</time></trkpt><trkpt lat="45.687019" lon="11.0791613"><ele>1540.0</ele><time>2026-04-06T12:50:24.985Z</time></trkpt><trkpt lat="45.686922" lon="11.0792432"><ele>1538.4</ele><time>2026-04-06T12:50:25.985Z</time></trkpt><trkpt lat="45.6868252" lon="11.0793273"><ele>1536.8</ele><time>2026-04-06T12:50:26.986Z</time></trkpt><trkpt lat="45.6867322" lon="11.0794099"><ele>1535.1999999999998</ele><time>2026-04-06T12:50:27.986Z</time></trkpt><trkpt lat="45.6866426" lon="11.0794916"><ele>1533.6</ele><time>2026-04-06T12:50:28.985Z</time></trkpt><trkpt lat="45.6865494" lon="11.0795739"><ele>1532.0</ele><time>2026-04-06T12:50:29.985Z</time></trkpt><trkpt lat="45.6864533" lon="11.0796584"><ele>1532.0</ele><time>2026-04-06T12:50:30.985Z</time></trkpt><trkpt lat="45.6863528" lon="11.0797431"><ele>1532.0</ele><time>2026-04-06T12:50:31.986Z</time></trkpt><trkpt lat="45.6862552" lon="11.0798252"><ele>1532.0</ele><time>2026-04-06T12:50:32.985Z</time></trkpt><trkpt lat="45.6861628" lon="11.0799063"><ele>1532.0</ele><time>2026-04-06T12:50:33.985Z</time></trkpt><trkpt lat="45.6860787" lon="11.079989"><ele>1532.0</ele><time>2026-04-06T12:50:34.985Z</time></trkpt><trkpt lat="45.6860004" lon="11.0800813"><ele>1531.1999999999998</ele><time>2026-04-06T12:50:35.986Z</time></trkpt><trkpt lat="45.6859302" lon="11.0801848"><ele>1530.4</ele><time>2026-04-06T12:50:36.985Z</time></trkpt><trkpt lat="45.685868" lon="11.0803025"><ele>1529.6</ele><time>2026-04-06T12:50:37.985Z</time></trkpt><trkpt lat="45.6858208" lon="11.08043"><ele>1528.8000000000002</ele><time>2026-04-06T12:50:38.986Z</time></trkpt><trkpt lat="45.6857944" lon="11.0805604"><ele>1528.0</ele><time>2026-04-06T12:50:39.991Z</time></trkpt><trkpt lat="45.6857799" lon="11.0807155"><ele>1525.5</ele><time>2026-04-06T12:50:40.992Z</time></trkpt><trkpt lat="45.6857788" lon="11.0808856"><ele>1523.0</ele><time>2026-04-06T12:50:41.992Z</time></trkpt><trkpt lat="45.6857949" lon="11.0810779"><ele>1520.5</ele><time>2026-04-06T12:50:42.992Z</time></trkpt><trkpt lat="45.685824" lon="11.0812636"><ele>1518.0</ele><time>2026-04-06T12:50:43.992Z</time></trkpt><trkpt lat="45.6858543" lon="11.0814432"><ele>1516.75</ele><time>2026-04-06T12:50:44.992Z</time></trkpt><trkpt lat="45.6858812" lon="11.0816179"><ele>1515.5</ele><time>2026-04-06T12:50:45.991Z</time></trkpt><trkpt lat="45.6859048" lon="11.0817871"><ele>1514.25</ele><time>2026-04-06T12:50:46.991Z</time></trkpt><trkpt lat="45.6859215" lon="11.0819526"><ele>1513.0</ele><time>2026-04-06T12:50:47.992Z</time></trkpt><trkpt lat="45.6859252" lon="11.0821115"><ele>1513.0</ele><time>2026-04-06T12:50:48.992Z</time></trkpt><trkpt lat="45.6859142" lon="11.0822586"><ele>1513.0</ele><time>2026-04-06T12:50:49.991Z</time></trkpt><trkpt lat="45.6858866" lon="11.0824"><ele>1513.0</ele><time>2026-04-06T12:50:50.992Z</time></trkpt><trkpt lat="45.6858466" lon="11.0825437"><ele>1513.0</ele><time>2026-04-06T12:50:51.992Z</time></trkpt><trkpt lat="45.6857979" lon="11.0826835"><ele>1513.0</ele><time>2026-04-06T12:50:52.991Z</time></trkpt><trkpt lat="45.685745" lon="11.082819"><ele>1511.75</ele><time>2026-04-06T12:50:53.992Z</time></trkpt><trkpt lat="45.6856886" lon="11.0829568"><ele>1510.5</ele><time>2026-04-06T12:50:54.992Z</time></trkpt><trkpt lat="45.6856232" lon="11.0830996"><ele>1509.25</ele><time>2026-04-06T12:50:55.992Z</time></trkpt><trkpt lat="45.6855527" lon="11.0832366"><ele>1508.0</ele><time>2026-04-06T12:50:56.991Z</time></trkpt><trkpt lat="45.6854724" lon="11.0833788"><ele>1509.25</ele><time>2026-04-06T12:50:57.992Z</time></trkpt><trkpt lat="45.6853856" lon="11.0835131"><ele>1510.5</ele><time>2026-04-06T12:50:58.992Z</time></trkpt><trkpt lat="45.6852962" lon="11.0836352"><ele>1511.75</ele><time>2026-04-06T12:50:59.991Z</time></trkpt><trkpt lat="45.6852078" lon="11.083751"><ele>1513.0</ele><time>2026-04-06T12:51:00.981Z</time></trkpt><trkpt lat="45.685117" lon="11.0838625"><ele>1513.0</ele><time>2026-04-06T12:51:01.977Z</time></trkpt><trkpt lat="45.6850237" lon="11.0839741"><ele>1513.0</ele><time>2026-04-06T12:51:02.983Z</time></trkpt><trkpt lat="45.6849268" lon="11.0840884"><ele>1513.0</ele><time>2026-04-06T12:51:03.985Z</time></trkpt><trkpt lat="45.684834" lon="11.0842005"><ele>1513.0</ele><time>2026-04-06T12:51:04.982Z</time></trkpt><trkpt lat="45.6847498" lon="11.0843068"><ele>1510.6000000000001</ele><time>2026-04-06T12:51:05.98Z</time></trkpt><trkpt lat="45.684675" lon="11.0844068"><ele>1508.2</ele><time>2026-04-06T12:51:06.98Z</time></trkpt><trkpt lat="45.6846111" lon="11.0845093"><ele>1505.8</ele><time>2026-04-06T12:51:07.98Z</time></trkpt><trkpt lat="45.6845583" lon="11.0846169"><ele>1503.4</ele><time>2026-04-06T12:51:08.98Z</time></trkpt><trkpt lat="45.6845156" lon="11.0847319"><ele>1501.0</ele><time>2026-04-06T12:51:09.98Z</time></trkpt><trkpt lat="45.684488" lon="11.0848479"><ele>1500.2857142857142</ele><time>2026-04-06T12:51:10.981Z</time></trkpt><trkpt lat="45.6844737" lon="11.0849644"><ele>1499.5714285714284</ele><time>2026-04-06T12:51:11.981Z</time></trkpt><trkpt lat="45.6844726" lon="11.0850764"><ele>1498.8571428571427</ele><time>2026-04-06T12:51:12.98Z</time></trkpt><trkpt lat="45.6844835" lon="11.0851868"><ele>1498.142857142857</ele><time>2026-04-06T12:51:13.98Z</time></trkpt><trkpt lat="45.6845039" lon="11.0852881"><ele>1497.4285714285716</ele><time>2026-04-06T12:51:14.98Z</time></trkpt><trkpt lat="45.6845313" lon="11.085379"><ele>1496.7142857142856</ele><time>2026-04-06T12:51:15.981Z</time></trkpt><trkpt lat="45.6845636" lon="11.0854583"><ele>1496.0</ele><time>2026-04-06T12:51:16.981Z</time></trkpt><trkpt lat="45.6846328" lon="11.0855902"><ele>1496.0</ele><time>2026-04-06T12:51:18.98Z</time></trkpt><trkpt lat="45.6846873" lon="11.0856846"><ele>1496.0</ele><time>2026-04-06T12:51:20.981Z</time></trkpt><trkpt lat="45.6847443" lon="11.0857561"><ele>1496.0</ele><time>2026-04-06T12:51:23.992Z</time></trkpt><trkpt lat="45.6848121" lon="11.0857553"><ele>1496.0</ele><time>2026-04-06T12:51:28.993Z</time></trkpt><trkpt lat="45.6847903" lon="11.0856565"><ele>1496.0</ele><time>2026-04-06T12:51:32.978Z</time></trkpt><trkpt lat="45.6847321" lon="11.085584"><ele>1496.0</ele><time>2026-04-06T12:51:34.981Z</time></trkpt><trkpt lat="45.6846452" lon="11.0854766"><ele>1496.0</ele><time>2026-04-06T12:51:36.981Z</time></trkpt><trkpt lat="45.684603" lon="11.0854068"><ele>1496.0</ele><time>2026-04-06T12:51:37.981Z</time></trkpt><trkpt lat="45.6845656" lon="11.0853274"><ele>1496.0</ele><time>2026-04-06T12:51:38.982Z</time></trkpt><trkpt lat="45.6845363" lon="11.0852351"><ele>1496.0</ele><time>2026-04-06T12:51:39.981Z</time></trkpt><trkpt lat="45.6845173" lon="11.0851327"><ele>1496.0</ele><time>2026-04-06T12:51:40.982Z</time></trkpt><trkpt lat="45.6845107" lon="11.0850198"><ele>1496.0</ele><time>2026-04-06T12:51:41.981Z</time></trkpt><trkpt lat="45.6845168" lon="11.0849055"><ele>1496.0</ele><time>2026-04-06T12:51:42.982Z</time></trkpt><trkpt lat="45.6845373" lon="11.0847896"><ele>1496.8333333333335</ele><time>2026-04-06T12:51:43.981Z</time></trkpt><trkpt lat="45.6845666" lon="11.0846838"><ele>1497.6666666666667</ele><time>2026-04-06T12:51:44.981Z</time></trkpt><trkpt lat="45.6846026" lon="11.0845925"><ele>1498.5</ele><time>2026-04-06T12:51:45.982Z</time></trkpt><trkpt lat="45.6846422" lon="11.084516"><ele>1499.3333333333333</ele><time>2026-04-06T12:51:46.981Z</time></trkpt><trkpt lat="45.6847139" lon="11.0843968"><ele>1500.1666666666665</ele><time>2026-04-06T12:51:48.982Z</time></trkpt><trkpt lat="45.684749" lon="11.0842848"><ele>1501.0</ele><time>2026-04-06T12:51:50.981Z</time></trkpt><trkpt lat="45.6847118" lon="11.0841902"><ele>1501.0</ele><time>2026-04-06T12:51:52.981Z</time></trkpt><trkpt lat="45.6846294" lon="11.0841926"><ele>1501.0</ele><time>2026-04-06T12:51:54.993Z</time></trkpt><trkpt lat="45.6845693" lon="11.0842369"><ele>1501.0</ele><time>2026-04-06T12:51:55.993Z</time></trkpt><trkpt lat="45.6844884" lon="11.0843027"><ele>1501.0</ele><time>2026-04-06T12:51:56.992Z</time></trkpt><trkpt lat="45.684386" lon="11.0843768"><ele>1501.0</ele><time>2026-04-06T12:51:57.992Z</time></trkpt><trkpt lat="45.6842801" lon="11.0844479"><ele>1501.0</ele><time>2026-04-06T12:51:58.991Z</time></trkpt><trkpt lat="45.6841658" lon="11.084524"><ele>1501.0</ele><time>2026-04-06T12:51:59.992Z</time></trkpt><trkpt lat="45.6840446" lon="11.0846056"><ele>1501.0</ele><time>2026-04-06T12:52:00.991Z</time></trkpt><trkpt lat="45.6839319" lon="11.0846937"><ele>1501.0</ele><time>2026-04-06T12:52:01.993Z</time></trkpt><trkpt lat="45.683831" lon="11.0847846"><ele>1501.0</ele><time>2026-04-06T12:52:02.992Z</time></trkpt><trkpt lat="45.6837472" lon="11.0848831"><ele>1501.0</ele><time>2026-04-06T12:52:03.992Z</time></trkpt><trkpt lat="45.6836737" lon="11.0849898"><ele>1501.0</ele><time>2026-04-06T12:52:04.991Z</time></trkpt><trkpt lat="45.6836146" lon="11.0850913"><ele>1501.0</ele><time>2026-04-06T12:52:05.992Z</time></trkpt><trkpt lat="45.6835634" lon="11.0851859"><ele>1501.0</ele><time>2026-04-06T12:52:06.992Z</time></trkpt><trkpt lat="45.6835169" lon="11.0852832"><ele>1497.8333333333333</ele><time>2026-04-06T12:52:07.991Z</time></trkpt><trkpt lat="45.6834763" lon="11.0853779"><ele>1494.6666666666665</ele><time>2026-04-06T12:52:08.99Z</time></trkpt><trkpt lat="45.683432" lon="11.0854747"><ele>1491.5</ele><time>2026-04-06T12:52:09.99Z</time></trkpt><trkpt lat="45.6833787" lon="11.0855739"><ele>1488.3333333333333</ele><time>2026-04-06T12:52:10.991Z</time></trkpt><trkpt lat="45.6833331" lon="11.0856768"><ele>1485.1666666666667</ele><time>2026-04-06T12:52:11.992Z</time></trkpt><trkpt lat="45.6832806" lon="11.0857756"><ele>1482.0</ele><time>2026-04-06T12:52:12.992Z</time></trkpt><trkpt lat="45.6832303" lon="11.0858861"><ele>1480.0</ele><time>2026-04-06T12:52:13.992Z</time></trkpt><trkpt lat="45.6831793" lon="11.0860011"><ele>1478.0</ele><time>2026-04-06T12:52:14.992Z</time></trkpt><trkpt lat="45.6831258" lon="11.0861178"><ele>1476.0</ele><time>2026-04-06T12:52:15.992Z</time></trkpt><trkpt lat="45.683062" lon="11.0862451"><ele>1474.0</ele><time>2026-04-06T12:52:16.991Z</time></trkpt><trkpt lat="45.6829911" lon="11.0863787"><ele>1472.0</ele><time>2026-04-06T12:52:17.991Z</time></trkpt><trkpt lat="45.6829094" lon="11.0865198"><ele>1471.25</ele><time>2026-04-06T12:52:18.993Z</time></trkpt><trkpt lat="45.6828243" lon="11.0866498"><ele>1470.5</ele><time>2026-04-06T12:52:19.99Z</time></trkpt><trkpt lat="45.6827356" lon="11.0867821"><ele>1469.75</ele><time>2026-04-06T12:52:20.992Z</time></trkpt><trkpt lat="45.6826409" lon="11.0868979"><ele>1469.0</ele><time>2026-04-06T12:52:21.993Z</time></trkpt><trkpt lat="45.6825465" lon="11.0870055"><ele>1469.0</ele><time>2026-04-06T12:52:22.991Z</time></trkpt><trkpt lat="45.6824623" lon="11.0871046"><ele>1469.0</ele><time>2026-04-06T12:52:23.992Z</time></trkpt><trkpt lat="45.6823869" lon="11.0872008"><ele>1469.0</ele><time>2026-04-06T12:52:24.991Z</time></trkpt><trkpt lat="45.6823118" lon="11.0872899"><ele>1469.0</ele><time>2026-04-06T12:52:25.992Z</time></trkpt><trkpt lat="45.682236" lon="11.0873837"><ele>1469.0</ele><time>2026-04-06T12:52:26.991Z</time></trkpt><trkpt lat="45.6821551" lon="11.0874783"><ele>1469.0</ele><time>2026-04-06T12:52:27.992Z</time></trkpt><trkpt lat="45.6820707" lon="11.0875738"><ele>1469.0</ele><time>2026-04-06T12:52:28.992Z</time></trkpt><trkpt lat="45.6819783" lon="11.0876668"><ele>1469.0</ele><time>2026-04-06T12:52:29.992Z</time></trkpt><trkpt lat="45.6818791" lon="11.0877495"><ele>1469.0</ele><time>2026-04-06T12:52:30.99Z</time></trkpt><trkpt lat="45.6817714" lon="11.0878213"><ele>1467.75</ele><time>2026-04-06T12:52:31.992Z</time></trkpt><trkpt lat="45.6816514" lon="11.0878853"><ele>1466.5</ele><time>2026-04-06T12:52:32.993Z</time></trkpt><trkpt lat="45.681516" lon="11.0879514"><ele>1465.25</ele><time>2026-04-06T12:52:33.992Z</time></trkpt><trkpt lat="45.6813667" lon="11.0880233"><ele>1464.0</ele><time>2026-04-06T12:52:34.992Z</time></trkpt><trkpt lat="45.6812198" lon="11.0880993"><ele>1462.0</ele><time>2026-04-06T12:52:35.992Z</time></trkpt><trkpt lat="45.6810684" lon="11.0881787"><ele>1460.0</ele><time>2026-04-06T12:52:36.991Z</time></trkpt><trkpt lat="45.6809043" lon="11.0882662"><ele>1458.0</ele><time>2026-04-06T12:52:37.991Z</time></trkpt><trkpt lat="45.6807287" lon="11.0883529"><ele>1458.0</ele><time>2026-04-06T12:52:38.991Z</time></trkpt><trkpt lat="45.6805391" lon="11.0884462"><ele>1458.0</ele><time>2026-04-06T12:52:39.993Z</time></trkpt><trkpt lat="45.6803449" lon="11.0885431"><ele>1458.0</ele><time>2026-04-06T12:52:40.991Z</time></trkpt><trkpt lat="45.6801481" lon="11.0886447"><ele>1455.3333333333333</ele><time>2026-04-06T12:52:41.991Z</time></trkpt><trkpt lat="45.6799622" lon="11.088759"><ele>1452.6666666666665</ele><time>2026-04-06T12:52:42.99Z</time></trkpt><trkpt lat="45.6797748" lon="11.0888765"><ele>1450.0</ele><time>2026-04-06T12:52:43.992Z</time></trkpt><trkpt lat="45.6795881" lon="11.0890065"><ele>1449.0</ele><time>2026-04-06T12:52:44.991Z</time></trkpt><trkpt lat="45.6794035" lon="11.0891391"><ele>1448.0</ele><time>2026-04-06T12:52:45.99Z</time></trkpt><trkpt lat="45.6792231" lon="11.0892657"><ele>1447.0</ele><time>2026-04-06T12:52:46.99Z</time></trkpt><trkpt lat="45.6790598" lon="11.0893694"><ele>1447.0</ele><time>2026-04-06T12:52:47.991Z</time></trkpt><trkpt lat="45.6789033" lon="11.0894634"><ele>1447.0</ele><time>2026-04-06T12:52:48.992Z</time></trkpt><trkpt lat="45.6787543" lon="11.0895417"><ele>1447.0</ele><time>2026-04-06T12:52:49.991Z</time></trkpt><trkpt lat="45.6786041" lon="11.0895983"><ele>1444.3333333333333</ele><time>2026-04-06T12:52:50.993Z</time></trkpt><trkpt lat="45.6784592" lon="11.0896261"><ele>1441.6666666666667</ele><time>2026-04-06T12:52:51.992Z</time></trkpt><trkpt lat="45.6783053" lon="11.0896232"><ele>1439.0</ele><time>2026-04-06T12:52:52.991Z</time></trkpt><trkpt lat="45.6781398" lon="11.0895957"><ele>1439.0</ele><time>2026-04-06T12:52:53.991Z</time></trkpt><trkpt lat="45.6779645" lon="11.089545"><ele>1439.0</ele><time>2026-04-06T12:52:54.991Z</time></trkpt><trkpt lat="45.677778" lon="11.0894817"><ele>1439.0</ele><time>2026-04-06T12:52:55.992Z</time></trkpt><trkpt lat="45.6775938" lon="11.0894167"><ele>1437.6666666666667</ele><time>2026-04-06T12:52:56.992Z</time></trkpt><trkpt lat="45.6774127" lon="11.0893568"><ele>1436.3333333333333</ele><time>2026-04-06T12:52:57.991Z</time></trkpt><trkpt lat="45.6772441" lon="11.0893012"><ele>1435.0</ele><time>2026-04-06T12:52:58.991Z</time></trkpt><trkpt lat="45.677078" lon="11.08925"><ele>1434.3333333333333</ele><time>2026-04-06T12:52:59.991Z</time></trkpt><trkpt lat="45.6769165" lon="11.089214"><ele>1433.6666666666667</ele><time>2026-04-06T12:53:00.992Z</time></trkpt><trkpt lat="45.676758" lon="11.0891967"><ele>1433.0</ele><time>2026-04-06T12:53:01.992Z</time></trkpt><trkpt lat="45.6765988" lon="11.0891908"><ele>1433.0</ele><time>2026-04-06T12:53:02.992Z</time></trkpt><trkpt lat="45.6764337" lon="11.089212"><ele>1433.0</ele><time>2026-04-06T12:53:03.991Z</time></trkpt><trkpt lat="45.6762668" lon="11.0892418"><ele>1433.0</ele><time>2026-04-06T12:53:04.99Z</time></trkpt><trkpt lat="45.6761101" lon="11.0892676"><ele>1431.3333333333335</ele><time>2026-04-06T12:53:05.992Z</time></trkpt><trkpt lat="45.6759605" lon="11.0892747"><ele>1429.6666666666667</ele><time>2026-04-06T12:53:06.99Z</time></trkpt><trkpt lat="45.6758091" lon="11.0892603"><ele>1428.0</ele><time>2026-04-06T12:53:07.991Z</time></trkpt><trkpt lat="45.6756565" lon="11.0892166"><ele>1428.0</ele><time>2026-04-06T12:53:08.991Z</time></trkpt><trkpt lat="45.6755053" lon="11.0891466"><ele>1428.0</ele><time>2026-04-06T12:53:09.99Z</time></trkpt><trkpt lat="45.6753419" lon="11.089049"><ele>1428.0</ele><time>2026-04-06T12:53:10.991Z</time></trkpt><trkpt lat="45.6751714" lon="11.0889378"><ele>1424.0</ele><time>2026-04-06T12:53:11.992Z</time></trkpt><trkpt lat="45.6749851" lon="11.0888136"><ele>1420.0</ele><time>2026-04-06T12:53:12.991Z</time></trkpt><trkpt lat="45.6748032" lon="11.0886983"><ele>1416.0</ele><time>2026-04-06T12:53:13.991Z</time></trkpt><trkpt lat="45.6746289" lon="11.0885891"><ele>1416.0</ele><time>2026-04-06T12:53:14.99Z</time></trkpt><trkpt lat="45.674469" lon="11.0884935"><ele>1416.0</ele><time>2026-04-06T12:53:15.991Z</time></trkpt><trkpt lat="45.6743238" lon="11.0884035"><ele>1416.0</ele><time>2026-04-06T12:53:16.991Z</time></trkpt><trkpt lat="45.6741874" lon="11.0883219"><ele>1413.0</ele><time>2026-04-06T12:53:17.992Z</time></trkpt><trkpt lat="45.6740568" lon="11.088257"><ele>1410.0</ele><time>2026-04-06T12:53:18.991Z</time></trkpt><trkpt lat="45.6739265" lon="11.0882149"><ele>1407.0</ele><time>2026-04-06T12:53:19.992Z</time></trkpt><trkpt lat="45.6737853" lon="11.0881901"><ele>1404.0</ele><time>2026-04-06T12:53:20.992Z</time></trkpt><trkpt lat="45.6736335" lon="11.0881895"><ele>1402.0</ele><time>2026-04-06T12:53:21.991Z</time></trkpt><trkpt lat="45.6734829" lon="11.088187"><ele>1400.0</ele><time>2026-04-06T12:53:22.99Z</time></trkpt><trkpt lat="45.6733587" lon="11.0881901"><ele>1398.0</ele><time>2026-04-06T12:53:23.991Z</time></trkpt><trkpt lat="45.6732404" lon="11.0881721"><ele>1396.0</ele><time>2026-04-06T12:53:24.99Z</time></trkpt><trkpt lat="45.6731284" lon="11.0881248"><ele>1396.0</ele><time>2026-04-06T12:53:25.99Z</time></trkpt><trkpt lat="45.6730265" lon="11.0880424"><ele>1396.0</ele><time>2026-04-06T12:53:26.991Z</time></trkpt><trkpt lat="45.6729349" lon="11.0879244"><ele>1396.0</ele><time>2026-04-06T12:53:27.99Z</time></trkpt><trkpt lat="45.6728505" lon="11.0877706"><ele>1396.0</ele><time>2026-04-06T12:53:28.99Z</time></trkpt><trkpt lat="45.6727681" lon="11.0875918"><ele>1396.0</ele><time>2026-04-06T12:53:29.992Z</time></trkpt><trkpt lat="45.672686" lon="11.0874292"><ele>1396.0</ele><time>2026-04-06T12:53:30.992Z</time></trkpt><trkpt lat="45.6725967" lon="11.0873012"><ele>1396.0</ele><time>2026-04-06T12:53:31.991Z</time></trkpt><trkpt lat="45.6724926" lon="11.0871991"><ele>1396.0</ele><time>2026-04-06T12:53:32.991Z</time></trkpt><trkpt lat="45.6723612" lon="11.0871202"><ele>1391.3333333333333</ele><time>2026-04-06T12:53:33.993Z</time></trkpt><trkpt lat="45.6721971" lon="11.087046"><ele>1386.6666666666667</ele><time>2026-04-06T12:53:34.991Z</time></trkpt><trkpt lat="45.672026" lon="11.0869789"><ele>1382.0</ele><time>2026-04-06T12:53:35.99Z</time></trkpt><trkpt lat="45.6718456" lon="11.0869122"><ele>1382.0</ele><time>2026-04-06T12:53:36.99Z</time></trkpt><trkpt lat="45.6716554" lon="11.0868423"><ele>1382.0</ele><time>2026-04-06T12:53:37.991Z</time></trkpt><trkpt lat="45.6714599" lon="11.0867586"><ele>1382.0</ele><time>2026-04-06T12:53:38.991Z</time></trkpt><trkpt lat="45.6712564" lon="11.0866528"><ele>1379.6666666666667</ele><time>2026-04-06T12:53:39.993Z</time></trkpt><trkpt lat="45.6710457" lon="11.0865422"><ele>1377.3333333333333</ele><time>2026-04-06T12:53:40.991Z</time></trkpt><trkpt lat="45.6708606" lon="11.086441"><ele>1375.0</ele><time>2026-04-06T12:53:41.992Z</time></trkpt><trkpt lat="45.6706885" lon="11.0863522"><ele>1375.0</ele><time>2026-04-06T12:53:42.991Z</time></trkpt><trkpt lat="45.670531" lon="11.0862607"><ele>1375.0</ele><time>2026-04-06T12:53:43.993Z</time></trkpt><trkpt lat="45.6703739" lon="11.0861812"><ele>1375.0</ele><time>2026-04-06T12:53:44.991Z</time></trkpt><trkpt lat="45.6702207" lon="11.0860941"><ele>1373.6666666666665</ele><time>2026-04-06T12:53:45.992Z</time></trkpt><trkpt lat="45.6700728" lon="11.0860094"><ele>1372.3333333333333</ele><time>2026-04-06T12:53:46.991Z</time></trkpt><trkpt lat="45.6699287" lon="11.0859275"><ele>1371.0</ele><time>2026-04-06T12:53:47.991Z</time></trkpt><trkpt lat="45.6697919" lon="11.0858583"><ele>1371.0</ele><time>2026-04-06T12:53:48.991Z</time></trkpt><trkpt lat="45.6696646" lon="11.0858039"><ele>1371.0</ele><time>2026-04-06T12:53:49.991Z</time></trkpt><trkpt lat="45.669541" lon="11.0857612"><ele>1371.0</ele><time>2026-04-06T12:53:50.992Z</time></trkpt><trkpt lat="45.6694223" lon="11.0857395"><ele>1371.0</ele><time>2026-04-06T12:53:51.99Z</time></trkpt><trkpt lat="45.669293" lon="11.0857293"><ele>1371.0</ele><time>2026-04-06T12:53:52.99Z</time></trkpt><trkpt lat="45.6691566" lon="11.085736"><ele>1371.0</ele><time>2026-04-06T12:53:53.99Z</time></trkpt><trkpt lat="45.6690153" lon="11.0857599"><ele>1371.0</ele><time>2026-04-06T12:53:54.991Z</time></trkpt><trkpt lat="45.668874" lon="11.0857817"><ele>1371.0</ele><time>2026-04-06T12:53:55.993Z</time></trkpt><trkpt lat="45.6687295" lon="11.0858014"><ele>1370.0</ele><time>2026-04-06T12:53:56.991Z</time></trkpt><trkpt lat="45.6685832" lon="11.0858191"><ele>1369.0</ele><time>2026-04-06T12:53:57.993Z</time></trkpt><trkpt lat="45.6684362" lon="11.0858374"><ele>1368.0</ele><time>2026-04-06T12:53:58.991Z</time></trkpt><trkpt lat="45.6682867" lon="11.0858533"><ele>1367.0</ele><time>2026-04-06T12:53:59.991Z</time></trkpt><trkpt lat="45.668134" lon="11.085874"><ele>1367.0</ele><time>2026-04-06T12:54:00.99Z</time></trkpt><trkpt lat="45.6679816" lon="11.0858916"><ele>1367.0</ele><time>2026-04-06T12:54:01.993Z</time></trkpt><trkpt lat="45.6678316" lon="11.0859034"><ele>1367.0</ele><time>2026-04-06T12:54:02.991Z</time></trkpt><trkpt lat="45.6676683" lon="11.0859023"><ele>1367.3333333333335</ele><time>2026-04-06T12:54:03.992Z</time></trkpt><trkpt lat="45.6674887" lon="11.0858774"><ele>1367.6666666666667</ele><time>2026-04-06T12:54:04.99Z</time></trkpt><trkpt lat="45.6672945" lon="11.0858488"><ele>1368.0</ele><time>2026-04-06T12:54:05.99Z</time></trkpt><trkpt lat="45.6671075" lon="11.0858138"><ele>1369.6666666666667</ele><time>2026-04-06T12:54:06.992Z</time></trkpt><trkpt lat="45.6669172" lon="11.0857804"><ele>1371.3333333333335</ele><time>2026-04-06T12:54:07.991Z</time></trkpt><trkpt lat="45.6667218" lon="11.0857504"><ele>1373.0</ele><time>2026-04-06T12:54:08.991Z</time></trkpt><trkpt lat="45.6665322" lon="11.0857262"><ele>1368.0</ele><time>2026-04-06T12:54:09.992Z</time></trkpt><trkpt lat="45.6663371" lon="11.0856931"><ele>1363.0</ele><time>2026-04-06T12:54:10.99Z</time></trkpt><trkpt lat="45.6661397" lon="11.0856677"><ele>1358.0</ele><time>2026-04-06T12:54:11.99Z</time></trkpt><trkpt lat="45.6659439" lon="11.0856369"><ele>1358.0</ele><time>2026-04-06T12:54:12.991Z</time></trkpt><trkpt lat="45.6657546" lon="11.0856091"><ele>1358.0</ele><time>2026-04-06T12:54:13.992Z</time></trkpt><trkpt lat="45.6655697" lon="11.0855793"><ele>1358.0</ele><time>2026-04-06T12:54:14.99Z</time></trkpt><trkpt lat="45.6653837" lon="11.0855522"><ele>1361.0</ele><time>2026-04-06T12:54:15.992Z</time></trkpt><trkpt lat="45.6652005" lon="11.0855253"><ele>1364.0</ele><time>2026-04-06T12:54:16.991Z</time></trkpt><trkpt lat="45.6650234" lon="11.085498"><ele>1367.0</ele><time>2026-04-06T12:54:17.991Z</time></trkpt><trkpt lat="45.6648529" lon="11.0854749"><ele>1367.0</ele><time>2026-04-06T12:54:18.99Z</time></trkpt><trkpt lat="45.6646863" lon="11.0854492"><ele>1367.0</ele><time>2026-04-06T12:54:19.992Z</time></trkpt><trkpt lat="45.6645223" lon="11.0854253"><ele>1367.0</ele><time>2026-04-06T12:54:20.99Z</time></trkpt><trkpt lat="45.664356" lon="11.0854014"><ele>1368.3333333333335</ele><time>2026-04-06T12:54:21.99Z</time></trkpt><trkpt lat="45.66419" lon="11.0853713"><ele>1369.6666666666667</ele><time>2026-04-06T12:54:22.99Z</time></trkpt><trkpt lat="45.6640253" lon="11.0853423"><ele>1371.0</ele><time>2026-04-06T12:54:23.99Z</time></trkpt><trkpt lat="45.6638575" lon="11.0853157"><ele>1371.0</ele><time>2026-04-06T12:54:24.991Z</time></trkpt><trkpt lat="45.6636844" lon="11.0852949"><ele>1371.0</ele><time>2026-04-06T12:54:25.99Z</time></trkpt><trkpt lat="45.6635079" lon="11.0852663"><ele>1371.0</ele><time>2026-04-06T12:54:26.992Z</time></trkpt><trkpt lat="45.6633353" lon="11.0852441"><ele>1372.6666666666667</ele><time>2026-04-06T12:54:27.991Z</time></trkpt><trkpt lat="45.6631634" lon="11.0852205"><ele>1374.3333333333335</ele><time>2026-04-06T12:54:28.991Z</time></trkpt><trkpt lat="45.6629894" lon="11.0851919"><ele>1376.0</ele><time>2026-04-06T12:54:29.992Z</time></trkpt><trkpt lat="45.6628174" lon="11.0851643"><ele>1377.3333333333335</ele><time>2026-04-06T12:54:30.99Z</time></trkpt><trkpt lat="45.662649" lon="11.0851398"><ele>1378.6666666666667</ele><time>2026-04-06T12:54:31.99Z</time></trkpt><trkpt lat="45.6624829" lon="11.0851106"><ele>1380.0</ele><time>2026-04-06T12:54:32.992Z</time></trkpt><trkpt lat="45.6623187" lon="11.0850915"><ele>1380.0</ele><time>2026-04-06T12:54:33.991Z</time></trkpt><trkpt lat="45.6621612" lon="11.0850749"><ele>1380.0</ele><time>2026-04-06T12:54:34.991Z</time></trkpt><trkpt lat="45.66201" lon="11.0850546"><ele>1380.0</ele><time>2026-04-06T12:54:35.991Z</time></trkpt><trkpt lat="45.6618732" lon="11.085044"><ele>1380.0</ele><time>2026-04-06T12:54:36.99Z</time></trkpt><trkpt lat="45.6617455" lon="11.0850339"><ele>1382.0</ele><time>2026-04-06T12:54:37.991Z</time></trkpt><trkpt lat="45.6616221" lon="11.085027"><ele>1384.0</ele><time>2026-04-06T12:54:38.993Z</time></trkpt><trkpt lat="45.6615003" lon="11.085022"><ele>1386.0</ele><time>2026-04-06T12:54:39.992Z</time></trkpt><trkpt lat="45.6613767" lon="11.0850347"><ele>1388.0</ele><time>2026-04-06T12:54:40.991Z</time></trkpt><trkpt lat="45.6612587" lon="11.0850637"><ele>1388.0</ele><time>2026-04-06T12:54:41.992Z</time></trkpt><trkpt lat="45.6611387" lon="11.0851117"><ele>1388.0</ele><time>2026-04-06T12:54:42.993Z</time></trkpt><trkpt lat="45.6610152" lon="11.0851832"><ele>1388.0</ele><time>2026-04-06T12:54:43.991Z</time></trkpt><trkpt lat="45.6608861" lon="11.0852714"><ele>1388.0</ele><time>2026-04-06T12:54:44.991Z</time></trkpt><trkpt lat="45.6607538" lon="11.085362"><ele>1388.3333333333335</ele><time>2026-04-06T12:54:45.992Z</time></trkpt><trkpt lat="45.6606181" lon="11.0854511"><ele>1388.6666666666667</ele><time>2026-04-06T12:54:46.99Z</time></trkpt><trkpt lat="45.6604788" lon="11.0855476"><ele>1389.0</ele><time>2026-04-06T12:54:47.99Z</time></trkpt><trkpt lat="45.6603431" lon="11.0856541"><ele>1389.0</ele><time>2026-04-06T12:54:48.991Z</time></trkpt><trkpt lat="45.6602008" lon="11.0857714"><ele>1389.0</ele><time>2026-04-06T12:54:49.992Z</time></trkpt><trkpt lat="45.6600671" lon="11.0858917"><ele>1389.0</ele><time>2026-04-06T12:54:50.991Z</time></trkpt><trkpt lat="45.6599357" lon="11.0860105"><ele>1389.0</ele><time>2026-04-06T12:54:51.99Z</time></trkpt><trkpt lat="45.659801" lon="11.0861261"><ele>1389.0</ele><time>2026-04-06T12:54:52.99Z</time></trkpt><trkpt lat="45.6596578" lon="11.086254"><ele>1389.0</ele><time>2026-04-06T12:54:53.992Z</time></trkpt><trkpt lat="45.6595175" lon="11.086386"><ele>1387.3333333333333</ele><time>2026-04-06T12:54:54.992Z</time></trkpt><trkpt lat="45.659378" lon="11.0865062"><ele>1385.6666666666665</ele><time>2026-04-06T12:54:55.993Z</time></trkpt><trkpt lat="45.6592371" lon="11.0866254"><ele>1384.0</ele><time>2026-04-06T12:54:56.992Z</time></trkpt><trkpt lat="45.6591029" lon="11.0867359"><ele>1384.0</ele><time>2026-04-06T12:54:57.992Z</time></trkpt><trkpt lat="45.6589714" lon="11.0868505"><ele>1384.0</ele><time>2026-04-06T12:54:58.991Z</time></trkpt><trkpt lat="45.6588398" lon="11.0869656"><ele>1384.0</ele><time>2026-04-06T12:54:59.99Z</time></trkpt><trkpt lat="45.6587192" lon="11.0870779"><ele>1384.5</ele><time>2026-04-06T12:55:00.993Z</time></trkpt><trkpt lat="45.6586025" lon="11.0871752"><ele>1385.0</ele><time>2026-04-06T12:55:01.992Z</time></trkpt><trkpt lat="45.6584875" lon="11.0872802"><ele>1385.5</ele><time>2026-04-06T12:55:02.993Z</time></trkpt><trkpt lat="45.6583832" lon="11.0873823"><ele>1386.0</ele><time>2026-04-06T12:55:03.992Z</time></trkpt><trkpt lat="45.6582848" lon="11.0874943"><ele>1386.0</ele><time>2026-04-06T12:55:04.99Z</time></trkpt><trkpt lat="45.6581954" lon="11.0876042"><ele>1386.0</ele><time>2026-04-06T12:55:05.99Z</time></trkpt><trkpt lat="45.6581153" lon="11.0877061"><ele>1386.0</ele><time>2026-04-06T12:55:06.99Z</time></trkpt><trkpt lat="45.6580355" lon="11.0878104"><ele>1386.0</ele><time>2026-04-06T12:55:07.991Z</time></trkpt><trkpt lat="45.6579587" lon="11.0879083"><ele>1386.0</ele><time>2026-04-06T12:55:08.991Z</time></trkpt><trkpt lat="45.6578797" lon="11.0880189"><ele>1386.0</ele><time>2026-04-06T12:55:09.993Z</time></trkpt><trkpt lat="45.657805" lon="11.0881472"><ele>1386.0</ele><time>2026-04-06T12:55:10.991Z</time></trkpt><trkpt lat="45.6577507" lon="11.0882974"><ele>1386.0</ele><time>2026-04-06T12:55:11.991Z</time></trkpt><trkpt lat="45.6577098" lon="11.0884658"><ele>1386.0</ele><time>2026-04-06T12:55:12.991Z</time></trkpt><trkpt lat="45.6576934" lon="11.0886449"><ele>1386.5</ele><time>2026-04-06T12:55:13.991Z</time></trkpt><trkpt lat="45.6577009" lon="11.0888319"><ele>1387.0</ele><time>2026-04-06T12:55:14.992Z</time></trkpt><trkpt lat="45.6577272" lon="11.089033"><ele>1387.5</ele><time>2026-04-06T12:55:15.99Z</time></trkpt><trkpt lat="45.6577722" lon="11.089233"><ele>1388.0</ele><time>2026-04-06T12:55:16.991Z</time></trkpt><trkpt lat="45.6578188" lon="11.0894209"><ele>1390.3333333333335</ele><time>2026-04-06T12:55:17.99Z</time></trkpt><trkpt lat="45.6578697" lon="11.0896189"><ele>1392.6666666666667</ele><time>2026-04-06T12:55:18.992Z</time></trkpt><trkpt lat="45.6579222" lon="11.0898262"><ele>1395.0</ele><time>2026-04-06T12:55:19.992Z</time></trkpt><trkpt lat="45.6579725" lon="11.090049"><ele>1395.0</ele><time>2026-04-06T12:55:20.991Z</time></trkpt><trkpt lat="45.6580181" lon="11.0902822"><ele>1395.0</ele><time>2026-04-06T12:55:21.991Z</time></trkpt><trkpt lat="45.6580597" lon="11.0905332"><ele>1395.0</ele><time>2026-04-06T12:55:22.99Z</time></trkpt><trkpt lat="45.6580969" lon="11.0907862"><ele>1392.0</ele><time>2026-04-06T12:55:23.991Z</time></trkpt><trkpt lat="45.6581301" lon="11.091045"><ele>1389.0</ele><time>2026-04-06T12:55:24.991Z</time></trkpt><trkpt lat="45.6581593" lon="11.0913046"><ele>1386.0</ele><time>2026-04-06T12:55:25.992Z</time></trkpt><trkpt lat="45.6581931" lon="11.0915476"><ele>1386.0</ele><time>2026-04-06T12:55:26.992Z</time></trkpt><trkpt lat="45.6582204" lon="11.0917689"><ele>1386.0</ele><time>2026-04-06T12:55:27.992Z</time></trkpt><trkpt lat="45.6582366" lon="11.0919563"><ele>1386.0</ele><time>2026-04-06T12:55:28.991Z</time></trkpt><trkpt lat="45.6582491" lon="11.0921263"><ele>1386.0</ele><time>2026-04-06T12:55:29.992Z</time></trkpt><trkpt lat="45.6582293" lon="11.09226"><ele>1386.0</ele><time>2026-04-06T12:55:30.99Z</time></trkpt><trkpt lat="45.6582037" lon="11.0923904"><ele>1386.0</ele><time>2026-04-06T12:55:31.991Z</time></trkpt><trkpt lat="45.6581531" lon="11.0925015"><ele>1386.0</ele><time>2026-04-06T12:55:32.991Z</time></trkpt><trkpt lat="45.6580867" lon="11.0925885"><ele>1386.0</ele><time>2026-04-06T12:55:33.99Z</time></trkpt><trkpt lat="45.6580142" lon="11.0926433"><ele>1386.0</ele><time>2026-04-06T12:55:34.99Z</time></trkpt><trkpt lat="45.6579377" lon="11.0926624"><ele>1386.0</ele><time>2026-04-06T12:55:35.993Z</time></trkpt><trkpt lat="45.6578562" lon="11.0926541"><ele>1385.5</ele><time>2026-04-06T12:55:36.991Z</time></trkpt><trkpt lat="45.6577668" lon="11.0926086"><ele>1385.0</ele><time>2026-04-06T12:55:37.993Z</time></trkpt><trkpt lat="45.6576761" lon="11.0925673"><ele>1384.5</ele><time>2026-04-06T12:55:38.992Z</time></trkpt><trkpt lat="45.6575521" lon="11.0924599"><ele>1384.0</ele><time>2026-04-06T12:55:39.993Z</time></trkpt><trkpt lat="45.6574434" lon="11.0923892"><ele>1382.0</ele><time>2026-04-06T12:55:40.99Z</time></trkpt><trkpt lat="45.6573329" lon="11.0923155"><ele>1380.0</ele><time>2026-04-06T12:55:41.991Z</time></trkpt><trkpt lat="45.65721" lon="11.0922477"><ele>1378.0</ele><time>2026-04-06T12:55:42.991Z</time></trkpt><trkpt lat="45.6570849" lon="11.0921941"><ele>1376.0</ele><time>2026-04-06T12:55:43.99Z</time></trkpt><trkpt lat="45.6569643" lon="11.092154"><ele>1378.5</ele><time>2026-04-06T12:55:44.99Z</time></trkpt><trkpt lat="45.6568429" lon="11.0921229"><ele>1381.0</ele><time>2026-04-06T12:55:45.992Z</time></trkpt><trkpt lat="45.6567231" lon="11.0921009"><ele>1383.5</ele><time>2026-04-06T12:55:46.99Z</time></trkpt><trkpt lat="45.6566055" lon="11.0920838"><ele>1386.0</ele><time>2026-04-06T12:55:47.991Z</time></trkpt><trkpt lat="45.6564875" lon="11.0920654"><ele>1386.0</ele><time>2026-04-06T12:55:48.991Z</time></trkpt><trkpt lat="45.6563811" lon="11.0920383"><ele>1386.0</ele><time>2026-04-06T12:55:49.992Z</time></trkpt><trkpt lat="45.6562911" lon="11.0920007"><ele>1386.0</ele><time>2026-04-06T12:55:50.99Z</time></trkpt><trkpt lat="45.6561982" lon="11.0919621"><ele>1386.0</ele><time>2026-04-06T12:55:51.992Z</time></trkpt><trkpt lat="45.6561086" lon="11.0919342"><ele>1386.0</ele><time>2026-04-06T12:55:52.99Z</time></trkpt><trkpt lat="45.6560223" lon="11.0919138"><ele>1387.1666666666667</ele><time>2026-04-06T12:55:53.99Z</time></trkpt><trkpt lat="45.6559472" lon="11.091904"><ele>1388.3333333333333</ele><time>2026-04-06T12:55:54.991Z</time></trkpt><trkpt lat="45.655868" lon="11.091913"><ele>1389.5</ele><time>2026-04-06T12:55:55.99Z</time></trkpt><trkpt lat="45.6557861" lon="11.0919411"><ele>1390.6666666666665</ele><time>2026-04-06T12:55:56.99Z</time></trkpt><trkpt lat="45.6557191" lon="11.0919832"><ele>1391.8333333333333</ele><time>2026-04-06T12:55:57.99Z</time></trkpt><trkpt lat="45.6556268" lon="11.0920544"><ele>1393.0</ele><time>2026-04-06T12:55:59.99Z</time></trkpt><trkpt lat="45.6555652" lon="11.0920993"><ele>1393.0</ele><time>2026-04-06T12:56:01.99Z</time></trkpt><trkpt lat="45.6554944" lon="11.0921072"><ele>1393.0</ele><time>2026-04-06T12:56:04.99Z</time></trkpt><trkpt lat="45.6554819" lon="11.0922103"><ele>1393.0</ele><time>2026-04-06T13:00:33.991Z</time></trkpt><trkpt lat="45.6554495" lon="11.0923096"><ele>1393.0</ele><time>2026-04-06T13:00:35.992Z</time></trkpt><trkpt lat="45.6553925" lon="11.0924808"><ele>1393.0</ele><time>2026-04-06T13:00:37.99Z</time></trkpt><trkpt lat="45.6553627" lon="11.092581"><ele>1393.0</ele><time>2026-04-06T13:00:38.99Z</time></trkpt><trkpt lat="45.6553437" lon="11.0926786"><ele>1392.8333333333333</ele><time>2026-04-06T13:00:39.991Z</time></trkpt><trkpt lat="45.65533" lon="11.092768"><ele>1392.6666666666665</ele><time>2026-04-06T13:00:40.99Z</time></trkpt><trkpt lat="45.6553203" lon="11.0928572"><ele>1392.5</ele><time>2026-04-06T13:00:41.991Z</time></trkpt><trkpt lat="45.6553074" lon="11.0930334"><ele>1392.3333333333333</ele><time>2026-04-06T13:00:43.99Z</time></trkpt><trkpt lat="45.6553" lon="11.0931242"><ele>1392.1666666666667</ele><time>2026-04-06T13:00:44.99Z</time></trkpt><trkpt lat="45.6552871" lon="11.0932251"><ele>1392.0</ele><time>2026-04-06T13:00:45.99Z</time></trkpt><trkpt lat="45.6552608" lon="11.0933211"><ele>1393.8333333333333</ele><time>2026-04-06T13:00:46.99Z</time></trkpt><trkpt lat="45.6552252" lon="11.0934064"><ele>1395.6666666666667</ele><time>2026-04-06T13:00:47.99Z</time></trkpt><trkpt lat="45.655175" lon="11.093491"><ele>1397.5</ele><time>2026-04-06T13:00:48.99Z</time></trkpt><trkpt lat="45.6551085" lon="11.0935644"><ele>1399.3333333333335</ele><time>2026-04-06T13:00:49.991Z</time></trkpt><trkpt lat="45.6550341" lon="11.0936215"><ele>1401.1666666666667</ele><time>2026-04-06T13:00:50.991Z</time></trkpt><trkpt lat="45.6549551" lon="11.0936678"><ele>1403.0</ele><time>2026-04-06T13:00:51.99Z</time></trkpt><trkpt lat="45.6548816" lon="11.0936987"><ele>1402.9999999999998</ele><time>2026-04-06T13:00:52.991Z</time></trkpt><trkpt lat="45.654811" lon="11.0937377"><ele>1403.0</ele><time>2026-04-06T13:00:53.991Z</time></trkpt><trkpt lat="45.6547437" lon="11.0937729"><ele>1403.0</ele><time>2026-04-06T13:00:54.99Z</time></trkpt><trkpt lat="45.6546785" lon="11.0938092"><ele>1403.0</ele><time>2026-04-06T13:00:55.99Z</time></trkpt><trkpt lat="45.6546124" lon="11.0938475"><ele>1403.0</ele><time>2026-04-06T13:00:56.99Z</time></trkpt><trkpt lat="45.6545428" lon="11.0938874"><ele>1402.9999999999998</ele><time>2026-04-06T13:00:57.99Z</time></trkpt><trkpt lat="45.6544709" lon="11.0939288"><ele>1403.0</ele><time>2026-04-06T13:00:58.991Z</time></trkpt><trkpt lat="45.6543989" lon="11.0939669"><ele>1403.8000000000002</ele><time>2026-04-06T13:00:59.99Z</time></trkpt><trkpt lat="45.6543215" lon="11.094006"><ele>1404.6</ele><time>2026-04-06T13:01:00.991Z</time></trkpt><trkpt lat="45.6542387" lon="11.09405"><ele>1405.4</ele><time>2026-04-06T13:01:01.99Z</time></trkpt><trkpt lat="45.6541599" lon="11.0940924"><ele>1406.1999999999998</ele><time>2026-04-06T13:01:02.991Z</time></trkpt><trkpt lat="45.6540708" lon="11.0941401"><ele>1407.0</ele><time>2026-04-06T13:01:03.99Z</time></trkpt><trkpt lat="45.6539738" lon="11.0941872"><ele>1407.0</ele><time>2026-04-06T13:01:04.99Z</time></trkpt><trkpt lat="45.6538657" lon="11.0942317"><ele>1407.0</ele><time>2026-04-06T13:01:05.99Z</time></trkpt><trkpt lat="45.6537545" lon="11.0942684"><ele>1407.0</ele><time>2026-04-06T13:01:06.992Z</time></trkpt><trkpt lat="45.6536496" lon="11.0942966"><ele>1407.0</ele><time>2026-04-06T13:01:07.991Z</time></trkpt><trkpt lat="45.6535483" lon="11.094319"><ele>1407.0</ele><time>2026-04-06T13:01:08.99Z</time></trkpt><trkpt lat="45.6534436" lon="11.0943355"><ele>1406.0</ele><time>2026-04-06T13:01:09.992Z</time></trkpt><trkpt lat="45.6533291" lon="11.094348"><ele>1405.0</ele><time>2026-04-06T13:01:10.99Z</time></trkpt><trkpt lat="45.653208" lon="11.094357"><ele>1404.0</ele><time>2026-04-06T13:01:11.991Z</time></trkpt><trkpt lat="45.6530776" lon="11.0943655"><ele>1403.0</ele><time>2026-04-06T13:01:12.991Z</time></trkpt><trkpt lat="45.6529386" lon="11.0943762"><ele>1403.6666666666667</ele><time>2026-04-06T13:01:13.99Z</time></trkpt><trkpt lat="45.6527861" lon="11.0943891"><ele>1404.3333333333333</ele><time>2026-04-06T13:01:14.991Z</time></trkpt><trkpt lat="45.6526237" lon="11.0944042"><ele>1405.0</ele><time>2026-04-06T13:01:15.991Z</time></trkpt><trkpt lat="45.6524726" lon="11.0944178"><ele>1405.0</ele><time>2026-04-06T13:01:16.991Z</time></trkpt><trkpt lat="45.6523298" lon="11.0944294"><ele>1405.0</ele><time>2026-04-06T13:01:17.99Z</time></trkpt><trkpt lat="45.6521987" lon="11.0944344"><ele>1405.0</ele><time>2026-04-06T13:01:18.991Z</time></trkpt><trkpt lat="45.65208" lon="11.0944282"><ele>1405.0</ele><time>2026-04-06T13:01:19.991Z</time></trkpt><trkpt lat="45.6519673" lon="11.0944121"><ele>1405.0</ele><time>2026-04-06T13:01:20.99Z</time></trkpt><trkpt lat="45.6518623" lon="11.0943927"><ele>1405.0</ele><time>2026-04-06T13:01:21.991Z</time></trkpt><trkpt lat="45.6517643" lon="11.0943746"><ele>1405.0</ele><time>2026-04-06T13:01:22.991Z</time></trkpt><trkpt lat="45.6516698" lon="11.0943598"><ele>1405.0</ele><time>2026-04-06T13:01:23.991Z</time></trkpt><trkpt lat="45.6515761" lon="11.0943472"><ele>1405.0</ele><time>2026-04-06T13:01:24.991Z</time></trkpt><trkpt lat="45.6514796" lon="11.0943443"><ele>1405.0</ele><time>2026-04-06T13:01:25.991Z</time></trkpt><trkpt lat="45.6513846" lon="11.0943528"><ele>1405.0</ele><time>2026-04-06T13:01:26.991Z</time></trkpt><trkpt lat="45.6512996" lon="11.0943736"><ele>1405.0</ele><time>2026-04-06T13:01:27.991Z</time></trkpt><trkpt lat="45.6512239" lon="11.0944066"><ele>1405.0</ele><time>2026-04-06T13:01:28.99Z</time></trkpt><trkpt lat="45.6511535" lon="11.094449"><ele>1405.0</ele><time>2026-04-06T13:01:29.991Z</time></trkpt><trkpt lat="45.6510969" lon="11.0944897"><ele>1405.0</ele><time>2026-04-06T13:01:30.991Z</time></trkpt><trkpt lat="45.6510132" lon="11.0945688"><ele>1404.4285714285713</ele><time>2026-04-06T13:01:32.99Z</time></trkpt><trkpt lat="45.6509606" lon="11.094624"><ele>1403.857142857143</ele><time>2026-04-06T13:01:34.991Z</time></trkpt><trkpt lat="45.6509056" lon="11.0946686"><ele>1403.2857142857142</ele><time>2026-04-06T13:01:37.99Z</time></trkpt><trkpt lat="45.6508517" lon="11.0947161"><ele>1402.7142857142858</ele><time>2026-04-06T13:02:21.991Z</time></trkpt><trkpt lat="45.6509285" lon="11.0946795"><ele>1402.142857142857</ele><time>2026-04-06T13:02:31.991Z</time></trkpt><trkpt lat="45.6509633" lon="11.0945954"><ele>1401.5714285714287</ele><time>2026-04-06T13:02:33.99Z</time></trkpt><trkpt lat="45.6509209" lon="11.0945152"><ele>1401.0</ele><time>2026-04-06T13:02:36.992Z</time></trkpt><trkpt lat="45.6508436" lon="11.0944778"><ele>1401.0</ele><time>2026-04-06T13:02:39.99Z</time></trkpt><trkpt lat="45.6507811" lon="11.0944623"><ele>1401.0</ele><time>2026-04-06T13:02:41.991Z</time></trkpt><trkpt lat="45.6507148" lon="11.0944525"><ele>1401.0</ele><time>2026-04-06T13:02:45.99Z</time></trkpt><trkpt lat="45.650652" lon="11.0944207"><ele>1401.0</ele><time>2026-04-06T13:05:08.99Z</time></trkpt><trkpt lat="45.6507239" lon="11.0944402"><ele>1401.0</ele><time>2026-04-06T13:05:48Z</time></trkpt><trkpt lat="45.6507785" lon="11.0943875"><ele>1401.0</ele><time>2026-04-06T13:05:54.991Z</time></trkpt><trkpt lat="45.6507389" lon="11.0944666"><ele>1401.0</ele><time>2026-04-06T13:06:51.99Z</time></trkpt><trkpt lat="45.6506709" lon="11.0944395"><ele>1401.0</ele><time>2026-04-06T13:07:11.991Z</time></trkpt><trkpt lat="45.6506091" lon="11.0943966"><ele>1401.0</ele><time>2026-04-06T13:07:19.991Z</time></trkpt><trkpt lat="45.6506818" lon="11.0943776"><ele>1401.0</ele><time>2026-04-06T13:12:13.989Z</time></trkpt><trkpt lat="45.6506818" lon="11.0943776"><ele>1401.0</ele><time>2026-04-06T13:12:13.989Z</time></trkpt><trkpt lat="45.6506818" lon="11.0943776"><ele>1401.0</ele><time>2026-04-06T13:12:13.989Z</time></trkpt></trkseg><trkseg><trkpt lat="45.6507534" lon="11.0944253"><ele>1401.0</ele><time>2026-04-06T13:28:37.989Z</time></trkpt><trkpt lat="45.6507875" lon="11.0945023"><ele>1401.0</ele><time>2026-04-06T13:28:46.986Z</time></trkpt><trkpt lat="45.650823" lon="11.0945849"><ele>1401.0</ele><time>2026-04-06T13:28:49.987Z</time></trkpt><trkpt lat="45.6509519" lon="11.094621"><ele>1401.0</ele><time>2026-04-06T13:28:51.988Z</time></trkpt><trkpt lat="45.6508916" lon="11.0946852"><ele>1401.0</ele><time>2026-04-06T13:28:53.987Z</time></trkpt><trkpt lat="45.6508214" lon="11.0947565"><ele>1401.0</ele><time>2026-04-06T13:28:55.988Z</time></trkpt><trkpt lat="45.650749" lon="11.0948218"><ele>1401.0</ele><time>2026-04-06T13:28:57.986Z</time></trkpt><trkpt lat="45.65068" lon="11.0948733"><ele>1401.0</ele><time>2026-04-06T13:28:59.988Z</time></trkpt><trkpt lat="45.6506114" lon="11.0949156"><ele>1401.0</ele><time>2026-04-06T13:29:01.986Z</time></trkpt><trkpt lat="45.6505157" lon="11.0949484"><ele>1401.0</ele><time>2026-04-06T13:29:03.987Z</time></trkpt><trkpt lat="45.650452" lon="11.0949497"><ele>1401.0</ele><time>2026-04-06T13:29:04.986Z</time></trkpt><trkpt lat="45.6503744" lon="11.0949291"><ele>1401.0</ele><time>2026-04-06T13:29:05.987Z</time></trkpt><trkpt lat="45.6502836" lon="11.0948969"><ele>1399.6</ele><time>2026-04-06T13:29:06.986Z</time></trkpt><trkpt lat="45.6501932" lon="11.0948555"><ele>1398.1999999999998</ele><time>2026-04-06T13:29:07.986Z</time></trkpt><trkpt lat="45.6501003" lon="11.0948169"><ele>1396.8000000000002</ele><time>2026-04-06T13:29:08.987Z</time></trkpt><trkpt lat="45.6499978" lon="11.0947782"><ele>1395.4</ele><time>2026-04-06T13:29:09.987Z</time></trkpt><trkpt lat="45.6498948" lon="11.0947352"><ele>1394.0</ele><time>2026-04-06T13:29:10.988Z</time></trkpt><trkpt lat="45.6497733" lon="11.0947136"><ele>1394.0</ele><time>2026-04-06T13:29:11.986Z</time></trkpt><trkpt lat="45.6496417" lon="11.0947071"><ele>1394.0</ele><time>2026-04-06T13:29:12.987Z</time></trkpt><trkpt lat="45.6494969" lon="11.0947261"><ele>1394.0</ele><time>2026-04-06T13:29:13.987Z</time></trkpt><trkpt lat="45.6493425" lon="11.0947677"><ele>1394.0</ele><time>2026-04-06T13:29:14.988Z</time></trkpt><trkpt lat="45.6491875" lon="11.0948147"><ele>1391.0</ele><time>2026-04-06T13:29:15.988Z</time></trkpt><trkpt lat="45.6490313" lon="11.094864"><ele>1388.0</ele><time>2026-04-06T13:29:16.987Z</time></trkpt><trkpt lat="45.6488737" lon="11.0949168"><ele>1385.0</ele><time>2026-04-06T13:29:17.987Z</time></trkpt><trkpt lat="45.6487262" lon="11.094951"><ele>1385.75</ele><time>2026-04-06T13:29:18.987Z</time></trkpt><trkpt lat="45.6485869" lon="11.0949699"><ele>1386.5</ele><time>2026-04-06T13:29:19.988Z</time></trkpt><trkpt lat="45.6484532" lon="11.0949728"><ele>1387.25</ele><time>2026-04-06T13:29:20.987Z</time></trkpt><trkpt lat="45.6483267" lon="11.0949551"><ele>1388.0</ele><time>2026-04-06T13:29:21.987Z</time></trkpt><trkpt lat="45.6482051" lon="11.0949319"><ele>1387.0</ele><time>2026-04-06T13:29:22.988Z</time></trkpt><trkpt lat="45.648081" lon="11.0948981"><ele>1386.0</ele><time>2026-04-06T13:29:23.989Z</time></trkpt><trkpt lat="45.6479626" lon="11.0948713"><ele>1385.0</ele><time>2026-04-06T13:29:24.986Z</time></trkpt><trkpt lat="45.6478439" lon="11.0948534"><ele>1384.0</ele><time>2026-04-06T13:29:25.987Z</time></trkpt><trkpt lat="45.6477233" lon="11.094837"><ele>1383.25</ele><time>2026-04-06T13:29:26.988Z</time></trkpt><trkpt lat="45.6476021" lon="11.0948326"><ele>1382.5</ele><time>2026-04-06T13:29:27.986Z</time></trkpt><trkpt lat="45.6474748" lon="11.0948376"><ele>1381.75</ele><time>2026-04-06T13:29:28.987Z</time></trkpt><trkpt lat="45.6473408" lon="11.0948552"><ele>1381.0</ele><time>2026-04-06T13:29:29.988Z</time></trkpt><trkpt lat="45.6472" lon="11.0948729"><ele>1381.0</ele><time>2026-04-06T13:29:30.987Z</time></trkpt><trkpt lat="45.6470667" lon="11.0948771"><ele>1381.0</ele><time>2026-04-06T13:29:31.988Z</time></trkpt><trkpt lat="45.6469433" lon="11.0948816"><ele>1381.0</ele><time>2026-04-06T13:29:32.987Z</time></trkpt><trkpt lat="45.6468282" lon="11.0948693"><ele>1381.0</ele><time>2026-04-06T13:29:33.988Z</time></trkpt><trkpt lat="45.646732" lon="11.0948421"><ele>1383.8</ele><time>2026-04-06T13:29:34.987Z</time></trkpt><trkpt lat="45.6466502" lon="11.0947986"><ele>1386.6</ele><time>2026-04-06T13:29:35.986Z</time></trkpt><trkpt lat="45.6465853" lon="11.0947296"><ele>1389.4</ele><time>2026-04-06T13:29:36.986Z</time></trkpt><trkpt lat="45.6465257" lon="11.0946317"><ele>1392.2</ele><time>2026-04-06T13:29:37.987Z</time></trkpt><trkpt lat="45.6464713" lon="11.094503"><ele>1395.0</ele><time>2026-04-06T13:29:38.988Z</time></trkpt><trkpt lat="45.6464206" lon="11.0943549"><ele>1395.0</ele><time>2026-04-06T13:29:39.987Z</time></trkpt><trkpt lat="45.6463629" lon="11.094194"><ele>1395.0</ele><time>2026-04-06T13:29:40.987Z</time></trkpt><trkpt lat="45.6463001" lon="11.0940462"><ele>1395.0</ele><time>2026-04-06T13:29:41.988Z</time></trkpt><trkpt lat="45.6462316" lon="11.0939085"><ele>1395.0</ele><time>2026-04-06T13:29:42.986Z</time></trkpt><trkpt lat="45.6461452" lon="11.0937739"><ele>1396.25</ele><time>2026-04-06T13:29:43.986Z</time></trkpt><trkpt lat="45.6460593" lon="11.0936474"><ele>1397.5</ele><time>2026-04-06T13:29:44.987Z</time></trkpt><trkpt lat="45.6459763" lon="11.0935344"><ele>1398.75</ele><time>2026-04-06T13:29:45.988Z</time></trkpt><trkpt lat="45.6458919" lon="11.0934275"><ele>1400.0</ele><time>2026-04-06T13:29:46.988Z</time></trkpt><trkpt lat="45.6458083" lon="11.0933174"><ele>1398.6</ele><time>2026-04-06T13:29:47.987Z</time></trkpt><trkpt lat="45.6457394" lon="11.0932085"><ele>1397.2</ele><time>2026-04-06T13:29:48.988Z</time></trkpt><trkpt lat="45.6456826" lon="11.0930943"><ele>1395.8000000000002</ele><time>2026-04-06T13:29:49.986Z</time></trkpt><trkpt lat="45.6456286" lon="11.0929825"><ele>1394.4</ele><time>2026-04-06T13:29:50.986Z</time></trkpt><trkpt lat="45.6455776" lon="11.0928829"><ele>1393.0</ele><time>2026-04-06T13:29:51.988Z</time></trkpt><trkpt lat="45.6455304" lon="11.0927856"><ele>1393.0</ele><time>2026-04-06T13:29:52.986Z</time></trkpt><trkpt lat="45.6454837" lon="11.092686"><ele>1393.0</ele><time>2026-04-06T13:29:53.987Z</time></trkpt><trkpt lat="45.6454364" lon="11.0925835"><ele>1393.0</ele><time>2026-04-06T13:29:54.988Z</time></trkpt><trkpt lat="45.6453852" lon="11.0924863"><ele>1393.0</ele><time>2026-04-06T13:29:55.986Z</time></trkpt><trkpt lat="45.6453353" lon="11.0923865"><ele>1393.0</ele><time>2026-04-06T13:29:56.987Z</time></trkpt><trkpt lat="45.6452867" lon="11.0922936"><ele>1393.0</ele><time>2026-04-06T13:29:57.986Z</time></trkpt><trkpt lat="45.6452363" lon="11.0922088"><ele>1393.142857142857</ele><time>2026-04-06T13:29:58.988Z</time></trkpt><trkpt lat="45.6451903" lon="11.0921286"><ele>1393.2857142857142</ele><time>2026-04-06T13:29:59.988Z</time></trkpt><trkpt lat="45.6451463" lon="11.0920542"><ele>1393.4285714285716</ele><time>2026-04-06T13:30:00.988Z</time></trkpt><trkpt lat="45.645106" lon="11.0919837"><ele>1393.5714285714284</ele><time>2026-04-06T13:30:01.986Z</time></trkpt><trkpt lat="45.6450603" lon="11.0919164"><ele>1393.7142857142858</ele><time>2026-04-06T13:30:02.986Z</time></trkpt><trkpt lat="45.6450058" lon="11.0918452"><ele>1393.857142857143</ele><time>2026-04-06T13:30:03.988Z</time></trkpt><trkpt lat="45.6449578" lon="11.0917832"><ele>1394.0</ele><time>2026-04-06T13:30:04.987Z</time></trkpt><trkpt lat="45.6448917" lon="11.0916898"><ele>1394.0</ele><time>2026-04-06T13:30:06.987Z</time></trkpt><trkpt lat="45.6448355" lon="11.0916134"><ele>1394.0</ele><time>2026-04-06T13:30:09.987Z</time></trkpt><trkpt lat="45.6447593" lon="11.091559"><ele>1394.0</ele><time>2026-04-06T13:30:33.987Z</time></trkpt><trkpt lat="45.6446609" lon="11.091547"><ele>1394.0</ele><time>2026-04-06T13:30:35.987Z</time></trkpt><trkpt lat="45.6445892" lon="11.091554"><ele>1394.0</ele><time>2026-04-06T13:30:36.986Z</time></trkpt><trkpt lat="45.6445151" lon="11.0915578"><ele>1394.0</ele><time>2026-04-06T13:30:37.987Z</time></trkpt><trkpt lat="45.6444283" lon="11.0915557"><ele>1392.0</ele><time>2026-04-06T13:30:38.986Z</time></trkpt><trkpt lat="45.6443331" lon="11.0915417"><ele>1390.0</ele><time>2026-04-06T13:30:39.987Z</time></trkpt><trkpt lat="45.6442292" lon="11.0915096"><ele>1388.0</ele><time>2026-04-06T13:30:40.987Z</time></trkpt><trkpt lat="45.644116" lon="11.0914705"><ele>1386.0</ele><time>2026-04-06T13:30:41.986Z</time></trkpt><trkpt lat="45.6439883" lon="11.0914064"><ele>1386.0</ele><time>2026-04-06T13:30:42.986Z</time></trkpt><trkpt lat="45.643855" lon="11.0913419"><ele>1386.0</ele><time>2026-04-06T13:30:43.987Z</time></trkpt><trkpt lat="45.6437219" lon="11.0912794"><ele>1386.0</ele><time>2026-04-06T13:30:44.988Z</time></trkpt><trkpt lat="45.6435891" lon="11.0912164"><ele>1386.0</ele><time>2026-04-06T13:30:45.986Z</time></trkpt><trkpt lat="45.6434504" lon="11.0911519"><ele>1382.0</ele><time>2026-04-06T13:30:46.986Z</time></trkpt><trkpt lat="45.6433026" lon="11.0910912"><ele>1378.0</ele><time>2026-04-06T13:30:47.986Z</time></trkpt><trkpt lat="45.6431453" lon="11.091023"><ele>1374.0</ele><time>2026-04-06T13:30:48.988Z</time></trkpt><trkpt lat="45.6429759" lon="11.0909599"><ele>1374.0</ele><time>2026-04-06T13:30:49.986Z</time></trkpt><trkpt lat="45.6428044" lon="11.0909072"><ele>1374.0</ele><time>2026-04-06T13:30:50.987Z</time></trkpt><trkpt lat="45.6426357" lon="11.0908647"><ele>1374.0</ele><time>2026-04-06T13:30:51.986Z</time></trkpt><trkpt lat="45.6424714" lon="11.0908322"><ele>1370.0</ele><time>2026-04-06T13:30:52.986Z</time></trkpt><trkpt lat="45.6423152" lon="11.0908023"><ele>1366.0</ele><time>2026-04-06T13:30:53.987Z</time></trkpt><trkpt lat="45.642159" lon="11.090771"><ele>1362.0</ele><time>2026-04-06T13:30:54.988Z</time></trkpt><trkpt lat="45.6420046" lon="11.0907343"><ele>1357.6666666666667</ele><time>2026-04-06T13:30:55.986Z</time></trkpt><trkpt lat="45.6418575" lon="11.0906798"><ele>1353.3333333333335</ele><time>2026-04-06T13:30:56.988Z</time></trkpt><trkpt lat="45.6417112" lon="11.0906092"><ele>1349.0</ele><time>2026-04-06T13:30:57.987Z</time></trkpt><trkpt lat="45.6415629" lon="11.0905293"><ele>1349.0</ele><time>2026-04-06T13:30:58.987Z</time></trkpt><trkpt lat="45.6414157" lon="11.0904445"><ele>1349.0</ele><time>2026-04-06T13:30:59.988Z</time></trkpt><trkpt lat="45.6412764" lon="11.0903629"><ele>1349.0</ele><time>2026-04-06T13:31:00.987Z</time></trkpt><trkpt lat="45.6411459" lon="11.090292"><ele>1349.0</ele><time>2026-04-06T13:31:01.986Z</time></trkpt><trkpt lat="45.6410192" lon="11.09022"><ele>1347.8000000000002</ele><time>2026-04-06T13:31:02.987Z</time></trkpt><trkpt lat="45.6409109" lon="11.0901555"><ele>1346.6000000000001</ele><time>2026-04-06T13:31:03.987Z</time></trkpt><trkpt lat="45.6408072" lon="11.0900862"><ele>1345.4</ele><time>2026-04-06T13:31:04.987Z</time></trkpt><trkpt lat="45.6407145" lon="11.0900138"><ele>1344.2</ele><time>2026-04-06T13:31:05.986Z</time></trkpt><trkpt lat="45.6406399" lon="11.0899165"><ele>1343.0</ele><time>2026-04-06T13:31:06.987Z</time></trkpt><trkpt lat="45.6405857" lon="11.0897832"><ele>1340.4</ele><time>2026-04-06T13:31:07.986Z</time></trkpt><trkpt lat="45.6405551" lon="11.0896279"><ele>1337.8000000000002</ele><time>2026-04-06T13:31:08.988Z</time></trkpt><trkpt lat="45.6405404" lon="11.0894725"><ele>1335.2</ele><time>2026-04-06T13:31:09.986Z</time></trkpt><trkpt lat="45.6405252" lon="11.0893224"><ele>1332.6</ele><time>2026-04-06T13:31:10.986Z</time></trkpt><trkpt lat="45.6405077" lon="11.0891903"><ele>1330.0</ele><time>2026-04-06T13:31:11.986Z</time></trkpt><trkpt lat="45.6404857" lon="11.0890747"><ele>1328.8333333333333</ele><time>2026-04-06T13:31:12.987Z</time></trkpt><trkpt lat="45.6404471" lon="11.0889709"><ele>1327.6666666666665</ele><time>2026-04-06T13:31:13.986Z</time></trkpt><trkpt lat="45.6403969" lon="11.0888901"><ele>1326.5</ele><time>2026-04-06T13:31:14.987Z</time></trkpt><trkpt lat="45.6403288" lon="11.0888326"><ele>1325.3333333333333</ele><time>2026-04-06T13:31:15.987Z</time></trkpt><trkpt lat="45.6402502" lon="11.0888105"><ele>1324.1666666666667</ele><time>2026-04-06T13:31:16.987Z</time></trkpt><trkpt lat="45.640173" lon="11.0888182"><ele>1323.0</ele><time>2026-04-06T13:31:17.988Z</time></trkpt><trkpt lat="45.6400959" lon="11.0888425"><ele>1323.0</ele><time>2026-04-06T13:31:18.987Z</time></trkpt><trkpt lat="45.6400139" lon="11.088871"><ele>1323.0</ele><time>2026-04-06T13:31:19.986Z</time></trkpt><trkpt lat="45.6399313" lon="11.0888948"><ele>1323.0</ele><time>2026-04-06T13:31:20.987Z</time></trkpt><trkpt lat="45.6398468" lon="11.0889114"><ele>1323.0</ele><time>2026-04-06T13:31:21.987Z</time></trkpt><trkpt lat="45.6397585" lon="11.0889137"><ele>1323.0</ele><time>2026-04-06T13:31:22.987Z</time></trkpt><trkpt lat="45.6396755" lon="11.0888976"><ele>1323.0</ele><time>2026-04-06T13:31:23.987Z</time></trkpt><trkpt lat="45.639601" lon="11.0888719"><ele>1323.0</ele><time>2026-04-06T13:31:24.988Z</time></trkpt><trkpt lat="45.6395261" lon="11.0888132"><ele>1323.0</ele><time>2026-04-06T13:31:25.986Z</time></trkpt><trkpt lat="45.6394646" lon="11.0887353"><ele>1323.0</ele><time>2026-04-06T13:31:26.986Z</time></trkpt><trkpt lat="45.6394111" lon="11.0886307"><ele>1323.0</ele><time>2026-04-06T13:31:27.986Z</time></trkpt><trkpt lat="45.6393952" lon="11.0884839"><ele>1323.0</ele><time>2026-04-06T13:31:28.987Z</time></trkpt><trkpt lat="45.6394012" lon="11.0883186"><ele>1323.25</ele><time>2026-04-06T13:31:29.987Z</time></trkpt><trkpt lat="45.6394354" lon="11.0881473"><ele>1323.5</ele><time>2026-04-06T13:31:30.986Z</time></trkpt><trkpt lat="45.6394877" lon="11.0879938"><ele>1323.75</ele><time>2026-04-06T13:31:31.987Z</time></trkpt><trkpt lat="45.6395277" lon="11.0878453"><ele>1324.0</ele><time>2026-04-06T13:31:32.987Z</time></trkpt><trkpt lat="45.6395667" lon="11.0876944"><ele>1343.0</ele><time>2026-04-06T13:31:33.987Z</time></trkpt><trkpt lat="45.6409109" lon="11.0901555"><ele>1343.0</ele><time>2026-04-06T13:31:03.987Z</time></trkpt><trkpt lat="45.6408072" lon="11.0900862"><ele>1343.0</ele><time>2026-04-06T13:31:04.987Z</time></trkpt><trkpt lat="45.6407145" lon="11.0900138"><ele>1343.0</ele><time>2026-04-06T13:31:05.986Z</time></trkpt><trkpt lat="45.6406399" lon="11.0899165"><ele>1343.0</ele><time>2026-04-06T13:31:06.987Z</time></trkpt><trkpt lat="45.6405857" lon="11.0897832"><ele>1343.0</ele><time>2026-04-06T13:31:07.986Z</time></trkpt><trkpt lat="45.6405551" lon="11.0896279"><ele>1340.4</ele><time>2026-04-06T13:31:08.988Z</time></trkpt><trkpt lat="45.6405404" lon="11.0894725"><ele>1337.8000000000002</ele><time>2026-04-06T13:31:09.986Z</time></trkpt><trkpt lat="45.6405252" lon="11.0893224"><ele>1335.2</ele><time>2026-04-06T13:31:10.986Z</time></trkpt><trkpt lat="45.6405077" lon="11.0891903"><ele>1332.6</ele><time>2026-04-06T13:31:11.986Z</time></trkpt><trkpt lat="45.6404857" lon="11.0890747"><ele>1330.0</ele><time>2026-04-06T13:31:12.987Z</time></trkpt><trkpt lat="45.6404471" lon="11.0889709"><ele>1328.8333333333333</ele><time>2026-04-06T13:31:13.986Z</time></trkpt><trkpt lat="45.6403969" lon="11.0888901"><ele>1327.6666666666665</ele><time>2026-04-06T13:31:14.987Z</time></trkpt><trkpt lat="45.6403288" lon="11.0888326"><ele>1326.5</ele><time>2026-04-06T13:31:15.987Z</time></trkpt><trkpt lat="45.6402502" lon="11.0888105"><ele>1325.3333333333333</ele><time>2026-04-06T13:31:16.987Z</time></trkpt><trkpt lat="45.640173" lon="11.0888182"><ele>1324.1666666666667</ele><time>2026-04-06T13:31:17.988Z</time></trkpt><trkpt lat="45.6400959" lon="11.0888425"><ele>1323.0</ele><time>2026-04-06T13:31:18.987Z</time></trkpt><trkpt lat="45.6400139" lon="11.088871"><ele>1323.0</ele><time>2026-04-06T13:31:19.986Z</time></trkpt><trkpt lat="45.6399313" lon="11.0888948"><ele>1323.0</ele><time>2026-04-06T13:31:20.987Z</time></trkpt><trkpt lat="45.6398468" lon="11.0889114"><ele>1323.0</ele><time>2026-04-06T13:31:21.987Z</time></trkpt><trkpt lat="45.6397585" lon="11.0889137"><ele>1323.0</ele><time>2026-04-06T13:31:22.987Z</time></trkpt><trkpt lat="45.6396755" lon="11.0888976"><ele>1323.0</ele><time>2026-04-06T13:31:23.987Z</time></trkpt><trkpt lat="45.639601" lon="11.0888719"><ele>1323.0</ele><time>2026-04-06T13:31:24.988Z</time></trkpt><trkpt lat="45.6395261" lon="11.0888132"><ele>1323.2</ele><time>2026-04-06T13:31:25.986Z</time></trkpt><trkpt lat="45.6394646" lon="11.0887353"><ele>1323.4</ele><time>2026-04-06T13:31:26.986Z</time></trkpt><trkpt lat="45.6394111" lon="11.0886307"><ele>1323.6000000000001</ele><time>2026-04-06T13:31:27.986Z</time></trkpt><trkpt lat="45.6393952" lon="11.0884839"><ele>1323.8000000000002</ele><time>2026-04-06T13:31:28.987Z</time></trkpt><trkpt lat="45.6394012" lon="11.0883186"><ele>1324.0</ele><time>2026-04-06T13:31:29.987Z</time></trkpt><trkpt lat="45.6394354" lon="11.0881473"><ele>1320.75</ele><time>2026-04-06T13:31:30.986Z</time></trkpt><trkpt lat="45.6394877" lon="11.0879938"><ele>1317.5</ele><time>2026-04-06T13:31:31.987Z</time></trkpt><trkpt lat="45.6395277" lon="11.0878453"><ele>1314.25</ele><time>2026-04-06T13:31:32.987Z</time></trkpt><trkpt lat="45.6395667" lon="11.0876944"><ele>1311.0</ele><time>2026-04-06T13:31:33.987Z</time></trkpt><trkpt lat="45.6396024" lon="11.0875366"><ele>1308.75</ele><time>2026-04-06T13:31:34.987Z</time></trkpt><trkpt lat="45.6396253" lon="11.0873725"><ele>1306.5</ele><time>2026-04-06T13:31:35.986Z</time></trkpt><trkpt lat="45.6396341" lon="11.0872068"><ele>1304.25</ele><time>2026-04-06T13:31:36.987Z</time></trkpt><trkpt lat="45.6396287" lon="11.0870396"><ele>1302.0</ele><time>2026-04-06T13:31:37.987Z</time></trkpt><trkpt lat="45.6396143" lon="11.0868768"><ele>1302.0</ele><time>2026-04-06T13:31:38.986Z</time></trkpt><trkpt lat="45.6395892" lon="11.0867198"><ele>1302.0</ele><time>2026-04-06T13:31:39.987Z</time></trkpt><trkpt lat="45.6395513" lon="11.0865701"><ele>1302.0</ele><time>2026-04-06T13:31:40.986Z</time></trkpt><trkpt lat="45.6394968" lon="11.0864149"><ele>1302.0</ele><time>2026-04-06T13:31:41.988Z</time></trkpt><trkpt lat="45.6394124" lon="11.0862508"><ele>1302.0</ele><time>2026-04-06T13:31:42.986Z</time></trkpt><trkpt lat="45.6393085" lon="11.0860972"><ele>1302.0</ele><time>2026-04-06T13:31:43.987Z</time></trkpt><trkpt lat="45.6391963" lon="11.0859523"><ele>1302.0</ele><time>2026-04-06T13:31:44.986Z</time></trkpt><trkpt lat="45.6390704" lon="11.0857936"><ele>1297.6666666666667</ele><time>2026-04-06T13:31:45.986Z</time></trkpt><trkpt lat="45.6389473" lon="11.0856349"><ele>1293.3333333333335</ele><time>2026-04-06T13:31:46.985Z</time></trkpt><trkpt lat="45.6388409" lon="11.0854896"><ele>1289.0</ele><time>2026-04-06T13:31:47.987Z</time></trkpt><trkpt lat="45.6387107" lon="11.085331"><ele>1292.0</ele><time>2026-04-06T13:31:48.987Z</time></trkpt><trkpt lat="45.6385662" lon="11.0851875"><ele>1295.0</ele><time>2026-04-06T13:31:49.988Z</time></trkpt><trkpt lat="45.6384227" lon="11.0850656"><ele>1298.0</ele><time>2026-04-06T13:31:50.988Z</time></trkpt><trkpt lat="45.6382894" lon="11.0849751"><ele>1298.0</ele><time>2026-04-06T13:31:51.987Z</time></trkpt><trkpt lat="45.6381693" lon="11.0849096"><ele>1298.0</ele><time>2026-04-06T13:31:52.987Z</time></trkpt><trkpt lat="45.6380621" lon="11.0848842"><ele>1298.0</ele><time>2026-04-06T13:31:53.987Z</time></trkpt><trkpt lat="45.6379565" lon="11.0848982"><ele>1298.0</ele><time>2026-04-06T13:31:54.987Z</time></trkpt><trkpt lat="45.6378571" lon="11.084963"><ele>1295.25</ele><time>2026-04-06T13:31:55.986Z</time></trkpt><trkpt lat="45.637771" lon="11.0850804"><ele>1292.5</ele><time>2026-04-06T13:31:56.986Z</time></trkpt><trkpt lat="45.6377012" lon="11.0852366"><ele>1289.75</ele><time>2026-04-06T13:31:57.987Z</time></trkpt><trkpt lat="45.6376592" lon="11.0854125"><ele>1287.0</ele><time>2026-04-06T13:31:58.987Z</time></trkpt><trkpt lat="45.6376452" lon="11.0856056"><ele>1288.0</ele><time>2026-04-06T13:31:59.987Z</time></trkpt><trkpt lat="45.6376355" lon="11.0857926"><ele>1289.0</ele><time>2026-04-06T13:32:00.987Z</time></trkpt><trkpt lat="45.6376115" lon="11.0859704"><ele>1290.0</ele><time>2026-04-06T13:32:01.988Z</time></trkpt><trkpt lat="45.6375558" lon="11.0861264"><ele>1291.0</ele><time>2026-04-06T13:32:02.987Z</time></trkpt><trkpt lat="45.6374797" lon="11.0862478"><ele>1291.0</ele><time>2026-04-06T13:32:03.986Z</time></trkpt><trkpt lat="45.6373847" lon="11.0863109"><ele>1291.0</ele><time>2026-04-06T13:32:04.986Z</time></trkpt><trkpt lat="45.6372837" lon="11.0863252"><ele>1291.0</ele><time>2026-04-06T13:32:05.988Z</time></trkpt><trkpt lat="45.637184" lon="11.0862815"><ele>1291.0</ele><time>2026-04-06T13:32:06.987Z</time></trkpt><trkpt lat="45.6370969" lon="11.086189"><ele>1291.0</ele><time>2026-04-06T13:32:07.987Z</time></trkpt><trkpt lat="45.6370039" lon="11.086046"><ele>1290.3333333333333</ele><time>2026-04-06T13:32:08.987Z</time></trkpt><trkpt lat="45.6368944" lon="11.0858637"><ele>1289.6666666666667</ele><time>2026-04-06T13:32:09.986Z</time></trkpt><trkpt lat="45.6367769" lon="11.0856652"><ele>1289.0</ele><time>2026-04-06T13:32:10.986Z</time></trkpt><trkpt lat="45.6366564" lon="11.085467"><ele>1284.3333333333335</ele><time>2026-04-06T13:32:11.987Z</time></trkpt><trkpt lat="45.6365258" lon="11.08527"><ele>1279.6666666666667</ele><time>2026-04-06T13:32:12.986Z</time></trkpt><trkpt lat="45.6363904" lon="11.0850973"><ele>1275.0</ele><time>2026-04-06T13:32:13.986Z</time></trkpt><trkpt lat="45.6362624" lon="11.0849547"><ele>1273.25</ele><time>2026-04-06T13:32:14.987Z</time></trkpt><trkpt lat="45.6361541" lon="11.084855"><ele>1271.5</ele><time>2026-04-06T13:32:15.987Z</time></trkpt><trkpt lat="45.6360447" lon="11.0847756"><ele>1269.75</ele><time>2026-04-06T13:32:16.986Z</time></trkpt><trkpt lat="45.6359308" lon="11.0847371"><ele>1268.0</ele><time>2026-04-06T13:32:17.986Z</time></trkpt><trkpt lat="45.6358149" lon="11.0847543"><ele>1268.0</ele><time>2026-04-06T13:32:18.987Z</time></trkpt><trkpt lat="45.6356886" lon="11.084813"><ele>1268.0</ele><time>2026-04-06T13:32:19.988Z</time></trkpt><trkpt lat="45.6355526" lon="11.0849387"><ele>1268.0</ele><time>2026-04-06T13:32:20.987Z</time></trkpt><trkpt lat="45.6354199" lon="11.0851009"><ele>1267.0</ele><time>2026-04-06T13:32:21.986Z</time></trkpt><trkpt lat="45.6352943" lon="11.0852773"><ele>1266.0</ele><time>2026-04-06T13:32:22.987Z</time></trkpt><trkpt lat="45.6351684" lon="11.0854531"><ele>1265.0</ele><time>2026-04-06T13:32:23.987Z</time></trkpt><trkpt lat="45.6350752" lon="11.0856353"><ele>1267.3333333333335</ele><time>2026-04-06T13:32:24.987Z</time></trkpt><trkpt lat="45.6349966" lon="11.0858549"><ele>1269.6666666666667</ele><time>2026-04-06T13:32:25.987Z</time></trkpt><trkpt lat="45.6349243" lon="11.0861111"><ele>1272.0</ele><time>2026-04-06T13:32:26.987Z</time></trkpt><trkpt lat="45.6348565" lon="11.0863568"><ele>1272.0</ele><time>2026-04-06T13:32:27.986Z</time></trkpt><trkpt lat="45.6347858" lon="11.0865857"><ele>1272.0</ele><time>2026-04-06T13:32:28.987Z</time></trkpt><trkpt lat="45.6347284" lon="11.086815"><ele>1272.0</ele><time>2026-04-06T13:32:29.987Z</time></trkpt><trkpt lat="45.6346953" lon="11.0870256"><ele>1271.75</ele><time>2026-04-06T13:32:30.987Z</time></trkpt><trkpt lat="45.6346892" lon="11.0872162"><ele>1271.5</ele><time>2026-04-06T13:32:31.988Z</time></trkpt><trkpt lat="45.6347109" lon="11.0874095"><ele>1271.25</ele><time>2026-04-06T13:32:32.986Z</time></trkpt><trkpt lat="45.6347551" lon="11.0876102"><ele>1271.0</ele><time>2026-04-06T13:32:33.988Z</time></trkpt><trkpt lat="45.6348101" lon="11.0878122"><ele>1269.0</ele><time>2026-04-06T13:32:34.986Z</time></trkpt><trkpt lat="45.6348586" lon="11.0880119"><ele>1267.0</ele><time>2026-04-06T13:32:35.987Z</time></trkpt><trkpt lat="45.6348903" lon="11.0882009"><ele>1265.0</ele><time>2026-04-06T13:32:36.987Z</time></trkpt><trkpt lat="45.6349045" lon="11.0883941"><ele>1263.0</ele><time>2026-04-06T13:32:37.986Z</time></trkpt><trkpt lat="45.634895" lon="11.0885886"><ele>1261.5</ele><time>2026-04-06T13:32:38.987Z</time></trkpt><trkpt lat="45.6348673" lon="11.0887773"><ele>1260.0</ele><time>2026-04-06T13:32:39.985Z</time></trkpt><trkpt lat="45.6348317" lon="11.0889468"><ele>1258.5</ele><time>2026-04-06T13:32:40.986Z</time></trkpt><trkpt lat="45.634785" lon="11.089076"><ele>1257.0</ele><time>2026-04-06T13:32:41.986Z</time></trkpt><trkpt lat="45.634734" lon="11.089187"><ele>1257.0</ele><time>2026-04-06T13:32:42.986Z</time></trkpt><trkpt lat="45.6346783" lon="11.0892744"><ele>1257.0</ele><time>2026-04-06T13:32:43.987Z</time></trkpt><trkpt lat="45.6346078" lon="11.0893194"><ele>1257.0</ele><time>2026-04-06T13:32:44.986Z</time></trkpt><trkpt lat="45.6345297" lon="11.0893239"><ele>1257.0</ele><time>2026-04-06T13:32:45.987Z</time></trkpt><trkpt lat="45.6344435" lon="11.0892725"><ele>1257.0</ele><time>2026-04-06T13:32:46.986Z</time></trkpt><trkpt lat="45.6343559" lon="11.0891892"><ele>1257.0</ele><time>2026-04-06T13:32:47.987Z</time></trkpt><trkpt lat="45.6342484" lon="11.0890864"><ele>1251.75</ele><time>2026-04-06T13:32:48.987Z</time></trkpt><trkpt lat="45.6341212" lon="11.0889934"><ele>1246.5</ele><time>2026-04-06T13:32:49.988Z</time></trkpt><trkpt lat="45.6339775" lon="11.0889292"><ele>1241.25</ele><time>2026-04-06T13:32:50.987Z</time></trkpt><trkpt lat="45.6338322" lon="11.0888841"><ele>1236.0</ele><time>2026-04-06T13:32:51.987Z</time></trkpt><trkpt lat="45.6336823" lon="11.0888629"><ele>1232.75</ele><time>2026-04-06T13:32:52.986Z</time></trkpt><trkpt lat="45.6335413" lon="11.0888275"><ele>1229.5</ele><time>2026-04-06T13:32:53.987Z</time></trkpt><trkpt lat="45.6334105" lon="11.0887779"><ele>1226.25</ele><time>2026-04-06T13:32:54.986Z</time></trkpt><trkpt lat="45.6332913" lon="11.0887114"><ele>1223.0</ele><time>2026-04-06T13:32:55.985Z</time></trkpt><trkpt lat="45.6331736" lon="11.0886263"><ele>1223.0</ele><time>2026-04-06T13:32:56.985Z</time></trkpt><trkpt lat="45.6330585" lon="11.0885332"><ele>1223.0</ele><time>2026-04-06T13:32:57.987Z</time></trkpt><trkpt lat="45.632916" lon="11.088436"><ele>1223.0</ele><time>2026-04-06T13:32:58.988Z</time></trkpt><trkpt lat="45.6327589" lon="11.0883525"><ele>1224.0</ele><time>2026-04-06T13:32:59.988Z</time></trkpt><trkpt lat="45.6325777" lon="11.0882732"><ele>1225.0</ele><time>2026-04-06T13:33:00.987Z</time></trkpt><trkpt lat="45.6346953" lon="11.0870256"><ele>1234.5</ele><time>2026-04-06T13:32:30.987Z</time></trkpt><trkpt lat="45.6346892" lon="11.0872162"><ele>1244.0</ele><time>2026-04-06T13:32:31.988Z</time></trkpt><trkpt lat="45.6347109" lon="11.0874095"><ele>1253.5</ele><time>2026-04-06T13:32:32.986Z</time></trkpt><trkpt lat="45.6347551" lon="11.0876102"><ele>1263.0</ele><time>2026-04-06T13:32:33.988Z</time></trkpt><trkpt lat="45.6348101" lon="11.0878122"><ele>1263.0</ele><time>2026-04-06T13:32:34.986Z</time></trkpt><trkpt lat="45.6348586" lon="11.0880119"><ele>1263.0</ele><time>2026-04-06T13:32:35.987Z</time></trkpt><trkpt lat="45.6348903" lon="11.0882009"><ele>1263.0</ele><time>2026-04-06T13:32:36.987Z</time></trkpt><trkpt lat="45.6349045" lon="11.0883941"><ele>1263.0</ele><time>2026-04-06T13:32:37.986Z</time></trkpt><trkpt lat="45.634895" lon="11.0885886"><ele>1261.5</ele><time>2026-04-06T13:32:38.987Z</time></trkpt><trkpt lat="45.6348673" lon="11.0887773"><ele>1260.0</ele><time>2026-04-06T13:32:39.985Z</time></trkpt><trkpt lat="45.6348317" lon="11.0889468"><ele>1258.5</ele><time>2026-04-06T13:32:40.986Z</time></trkpt><trkpt lat="45.634785" lon="11.089076"><ele>1257.0</ele><time>2026-04-06T13:32:41.986Z</time></trkpt><trkpt lat="45.634734" lon="11.089187"><ele>1257.0</ele><time>2026-04-06T13:32:42.986Z</time></trkpt><trkpt lat="45.6346783" lon="11.0892744"><ele>1257.0</ele><time>2026-04-06T13:32:43.987Z</time></trkpt><trkpt lat="45.6346078" lon="11.0893194"><ele>1257.0</ele><time>2026-04-06T13:32:44.986Z</time></trkpt><trkpt lat="45.6345297" lon="11.0893239"><ele>1257.0</ele><time>2026-04-06T13:32:45.987Z</time></trkpt><trkpt lat="45.6344435" lon="11.0892725"><ele>1257.0</ele><time>2026-04-06T13:32:46.986Z</time></trkpt><trkpt lat="45.6343559" lon="11.0891892"><ele>1257.0</ele><time>2026-04-06T13:32:47.987Z</time></trkpt><trkpt lat="45.6342484" lon="11.0890864"><ele>1251.75</ele><time>2026-04-06T13:32:48.987Z</time></trkpt><trkpt lat="45.6341212" lon="11.0889934"><ele>1246.5</ele><time>2026-04-06T13:32:49.988Z</time></trkpt><trkpt lat="45.6339775" lon="11.0889292"><ele>1241.25</ele><time>2026-04-06T13:32:50.987Z</time></trkpt><trkpt lat="45.6338322" lon="11.0888841"><ele>1236.0</ele><time>2026-04-06T13:32:51.987Z</time></trkpt><trkpt lat="45.6336823" lon="11.0888629"><ele>1232.75</ele><time>2026-04-06T13:32:52.986Z</time></trkpt><trkpt lat="45.6335413" lon="11.0888275"><ele>1229.5</ele><time>2026-04-06T13:32:53.987Z</time></trkpt><trkpt lat="45.6334105" lon="11.0887779"><ele>1226.25</ele><time>2026-04-06T13:32:54.986Z</time></trkpt><trkpt lat="45.6332913" lon="11.0887114"><ele>1223.0</ele><time>2026-04-06T13:32:55.985Z</time></trkpt><trkpt lat="45.6331736" lon="11.0886263"><ele>1223.0</ele><time>2026-04-06T13:32:56.985Z</time></trkpt><trkpt lat="45.6330585" lon="11.0885332"><ele>1223.0</ele><time>2026-04-06T13:32:57.987Z</time></trkpt><trkpt lat="45.632916" lon="11.088436"><ele>1223.0</ele><time>2026-04-06T13:32:58.988Z</time></trkpt><trkpt lat="45.6327589" lon="11.0883525"><ele>1223.6666666666667</ele><time>2026-04-06T13:32:59.988Z</time></trkpt><trkpt lat="45.6325777" lon="11.0882732"><ele>1224.3333333333333</ele><time>2026-04-06T13:33:00.987Z</time></trkpt><trkpt lat="45.6323887" lon="11.0881921"><ele>1225.0</ele><time>2026-04-06T13:33:01.986Z</time></trkpt><trkpt lat="45.6322033" lon="11.0881129"><ele>1218.3333333333333</ele><time>2026-04-06T13:33:02.987Z</time></trkpt><trkpt lat="45.6320114" lon="11.0880321"><ele>1211.6666666666667</ele><time>2026-04-06T13:33:03.986Z</time></trkpt><trkpt lat="45.6318104" lon="11.0879644"><ele>1205.0</ele><time>2026-04-06T13:33:04.987Z</time></trkpt><trkpt lat="45.6316174" lon="11.087916"><ele>1205.0</ele><time>2026-04-06T13:33:05.987Z</time></trkpt><trkpt lat="45.631427" lon="11.08787"><ele>1205.0</ele><time>2026-04-06T13:33:06.987Z</time></trkpt><trkpt lat="45.6312343" lon="11.0878232"><ele>1205.0</ele><time>2026-04-06T13:33:07.985Z</time></trkpt><trkpt lat="45.6310469" lon="11.0877812"><ele>1202.3333333333335</ele><time>2026-04-06T13:33:08.987Z</time></trkpt><trkpt lat="45.6308632" lon="11.0877331"><ele>1199.6666666666667</ele><time>2026-04-06T13:33:09.986Z</time></trkpt><trkpt lat="45.6306771" lon="11.0876831"><ele>1197.0</ele><time>2026-04-06T13:33:10.986Z</time></trkpt><trkpt lat="45.6304953" lon="11.0876363"><ele>1197.0</ele><time>2026-04-06T13:33:11.988Z</time></trkpt><trkpt lat="45.6303185" lon="11.0875984"><ele>1197.0</ele><time>2026-04-06T13:33:12.986Z</time></trkpt><trkpt lat="45.6301596" lon="11.0875691"><ele>1197.0</ele><time>2026-04-06T13:33:13.986Z</time></trkpt><trkpt lat="45.6300102" lon="11.0875544"><ele>1194.75</ele><time>2026-04-06T13:33:14.987Z</time></trkpt><trkpt lat="45.6298661" lon="11.087552"><ele>1192.5</ele><time>2026-04-06T13:33:15.986Z</time></trkpt><trkpt lat="45.6297335" lon="11.0875638"><ele>1190.25</ele><time>2026-04-06T13:33:16.987Z</time></trkpt><trkpt lat="45.6296037" lon="11.0875665"><ele>1188.0</ele><time>2026-04-06T13:33:17.986Z</time></trkpt><trkpt lat="45.6294778" lon="11.0875754"><ele>1185.75</ele><time>2026-04-06T13:33:18.986Z</time></trkpt><trkpt lat="45.6293594" lon="11.0875813"><ele>1183.5</ele><time>2026-04-06T13:33:19.986Z</time></trkpt><trkpt lat="45.629239" lon="11.0875964"><ele>1181.25</ele><time>2026-04-06T13:33:20.987Z</time></trkpt><trkpt lat="45.6291227" lon="11.0876175"><ele>1179.0</ele><time>2026-04-06T13:33:21.987Z</time></trkpt><trkpt lat="45.6289984" lon="11.0876439"><ele>1179.0</ele><time>2026-04-06T13:33:22.988Z</time></trkpt><trkpt lat="45.6288779" lon="11.0876861"><ele>1179.0</ele><time>2026-04-06T13:33:23.987Z</time></trkpt><trkpt lat="45.6287615" lon="11.0877355"><ele>1179.0</ele><time>2026-04-06T13:33:24.986Z</time></trkpt><trkpt lat="45.6286537" lon="11.0878101"><ele>1179.0</ele><time>2026-04-06T13:33:25.986Z</time></trkpt><trkpt lat="45.6285525" lon="11.0878897"><ele>1178.0</ele><time>2026-04-06T13:33:26.985Z</time></trkpt><trkpt lat="45.6284534" lon="11.0879683"><ele>1177.0</ele><time>2026-04-06T13:33:27.987Z</time></trkpt><trkpt lat="45.6283666" lon="11.0880484"><ele>1176.0</ele><time>2026-04-06T13:33:28.988Z</time></trkpt><trkpt lat="45.6282683" lon="11.0881274"><ele>1175.0</ele><time>2026-04-06T13:33:29.986Z</time></trkpt><trkpt lat="45.6281622" lon="11.0881913"><ele>1174.0</ele><time>2026-04-06T13:33:30.987Z</time></trkpt><trkpt lat="45.6280493" lon="11.0882256"><ele>1174.0</ele><time>2026-04-06T13:33:31.988Z</time></trkpt><trkpt lat="45.6279405" lon="11.0882493"><ele>1174.0</ele><time>2026-04-06T13:33:32.986Z</time></trkpt><trkpt lat="45.6278285" lon="11.0882691"><ele>1174.0</ele><time>2026-04-06T13:33:33.986Z</time></trkpt><trkpt lat="45.6277301" lon="11.0882859"><ele>1174.0</ele><time>2026-04-06T13:33:34.988Z</time></trkpt><trkpt lat="45.6276362" lon="11.0882901"><ele>1174.0</ele><time>2026-04-06T13:33:35.986Z</time></trkpt><trkpt lat="45.6275418" lon="11.0882924"><ele>1173.1666666666665</ele><time>2026-04-06T13:33:36.987Z</time></trkpt><trkpt lat="45.6274492" lon="11.088297"><ele>1172.3333333333333</ele><time>2026-04-06T13:33:37.988Z</time></trkpt><trkpt lat="45.6273709" lon="11.0882982"><ele>1171.5</ele><time>2026-04-06T13:33:38.986Z</time></trkpt><trkpt lat="45.6272963" lon="11.0883042"><ele>1170.6666666666667</ele><time>2026-04-06T13:33:39.985Z</time></trkpt><trkpt lat="45.6272233" lon="11.0882992"><ele>1169.8333333333335</ele><time>2026-04-06T13:33:40.986Z</time></trkpt><trkpt lat="45.6271064" lon="11.0882566"><ele>1169.0</ele><time>2026-04-06T13:33:42.987Z</time></trkpt><trkpt lat="45.6270275" lon="11.088227"><ele>1168.3333333333335</ele><time>2026-04-06T13:33:44.987Z</time></trkpt><trkpt lat="45.6269407" lon="11.0882602"><ele>1167.6666666666667</ele><time>2026-04-06T13:33:46.986Z</time></trkpt><trkpt lat="45.6268511" lon="11.088383"><ele>1167.0</ele><time>2026-04-06T13:33:48.986Z</time></trkpt><trkpt lat="45.6267928" lon="11.0884537"><ele>1166.3333333333333</ele><time>2026-04-06T13:33:49.988Z</time></trkpt><trkpt lat="45.6267448" lon="11.0885223"><ele>1165.6666666666665</ele><time>2026-04-06T13:33:50.986Z</time></trkpt><trkpt lat="45.6266915" lon="11.0885946"><ele>1165.0</ele><time>2026-04-06T13:33:51.987Z</time></trkpt><trkpt lat="45.6266242" lon="11.0886602"><ele>1165.0</ele><time>2026-04-06T13:33:52.986Z</time></trkpt><trkpt lat="45.6265542" lon="11.0887292"><ele>1165.0</ele><time>2026-04-06T13:33:53.987Z</time></trkpt><trkpt lat="45.6264678" lon="11.0887926"><ele>1165.0</ele><time>2026-04-06T13:33:54.986Z</time></trkpt><trkpt lat="45.6263724" lon="11.0888401"><ele>1165.0</ele><time>2026-04-06T13:33:55.987Z</time></trkpt><trkpt lat="45.6262738" lon="11.0888936"><ele>1165.0</ele><time>2026-04-06T13:33:56.987Z</time></trkpt><trkpt lat="45.6261743" lon="11.088924"><ele>1165.0</ele><time>2026-04-06T13:33:57.986Z</time></trkpt><trkpt lat="45.6260754" lon="11.0889568"><ele>1165.0</ele><time>2026-04-06T13:33:58.987Z</time></trkpt><trkpt lat="45.625968" lon="11.0889898"><ele>1165.0</ele><time>2026-04-06T13:33:59.987Z</time></trkpt><trkpt lat="45.6258641" lon="11.0890251"><ele>1165.0</ele><time>2026-04-06T13:34:00.986Z</time></trkpt><trkpt lat="45.625753" lon="11.0890598"><ele>1165.0</ele><time>2026-04-06T13:34:01.987Z</time></trkpt><trkpt lat="45.6256304" lon="11.0891025"><ele>1165.5</ele><time>2026-04-06T13:34:02.988Z</time></trkpt><trkpt lat="45.6255039" lon="11.0891491"><ele>1166.0</ele><time>2026-04-06T13:34:03.987Z</time></trkpt><trkpt lat="45.6253643" lon="11.0891895"><ele>1166.5</ele><time>2026-04-06T13:34:04.987Z</time></trkpt><trkpt lat="45.625232" lon="11.0892359"><ele>1167.0</ele><time>2026-04-06T13:34:05.986Z</time></trkpt><trkpt lat="45.6250897" lon="11.0892792"><ele>1167.0</ele><time>2026-04-06T13:34:06.987Z</time></trkpt><trkpt lat="45.6249505" lon="11.0893263"><ele>1167.0</ele><time>2026-04-06T13:34:07.987Z</time></trkpt><trkpt lat="45.6248077" lon="11.0893801"><ele>1167.0</ele><time>2026-04-06T13:34:08.988Z</time></trkpt><trkpt lat="45.6246672" lon="11.0894231"><ele>1167.0</ele><time>2026-04-06T13:34:09.985Z</time></trkpt><trkpt lat="45.6245183" lon="11.0894668"><ele>1168.6666666666667</ele><time>2026-04-06T13:34:10.986Z</time></trkpt><trkpt lat="45.6243723" lon="11.0894945"><ele>1170.3333333333335</ele><time>2026-04-06T13:34:11.987Z</time></trkpt><trkpt lat="45.624224" lon="11.0894978"><ele>1172.0</ele><time>2026-04-06T13:34:12.986Z</time></trkpt><trkpt lat="45.6240635" lon="11.0894786"><ele>1172.0</ele><time>2026-04-06T13:34:13.986Z</time></trkpt><trkpt lat="45.623892" lon="11.0894469"><ele>1172.0</ele><time>2026-04-06T13:34:14.986Z</time></trkpt><trkpt lat="45.6237011" lon="11.0894089"><ele>1172.0</ele><time>2026-04-06T13:34:15.987Z</time></trkpt><trkpt lat="45.6235155" lon="11.0893797"><ele>1175.3333333333335</ele><time>2026-04-06T13:34:16.987Z</time></trkpt><trkpt lat="45.6233182" lon="11.0893553"><ele>1178.6666666666667</ele><time>2026-04-06T13:34:17.986Z</time></trkpt><trkpt lat="45.6231178" lon="11.0893416"><ele>1182.0</ele><time>2026-04-06T13:34:18.987Z</time></trkpt><trkpt lat="45.6229342" lon="11.0893318"><ele>1182.3333333333333</ele><time>2026-04-06T13:34:19.986Z</time></trkpt><trkpt lat="45.6227603" lon="11.0893246"><ele>1182.6666666666665</ele><time>2026-04-06T13:34:20.986Z</time></trkpt><trkpt lat="45.6225891" lon="11.0893166"><ele>1183.0</ele><time>2026-04-06T13:34:21.987Z</time></trkpt><trkpt lat="45.6224321" lon="11.0893125"><ele>1183.0</ele><time>2026-04-06T13:34:22.988Z</time></trkpt><trkpt lat="45.6222827" lon="11.0893111"><ele>1183.0</ele><time>2026-04-06T13:34:23.986Z</time></trkpt><trkpt lat="45.6221407" lon="11.0893089"><ele>1183.0</ele><time>2026-04-06T13:34:24.986Z</time></trkpt><trkpt lat="45.6219963" lon="11.0893037"><ele>1183.0</ele><time>2026-04-06T13:34:25.986Z</time></trkpt><trkpt lat="45.6218562" lon="11.0892933"><ele>1183.3333333333333</ele><time>2026-04-06T13:34:26.987Z</time></trkpt><trkpt lat="45.6217101" lon="11.0892916"><ele>1183.6666666666667</ele><time>2026-04-06T13:34:27.986Z</time></trkpt><trkpt lat="45.6215632" lon="11.0892608"><ele>1184.0</ele><time>2026-04-06T13:34:28.987Z</time></trkpt><trkpt lat="45.6214103" lon="11.08922"><ele>1184.0</ele><time>2026-04-06T13:34:29.987Z</time></trkpt><trkpt lat="45.6212582" lon="11.0891574"><ele>1184.0</ele><time>2026-04-06T13:34:30.987Z</time></trkpt><trkpt lat="45.6211072" lon="11.0890674"><ele>1184.0</ele><time>2026-04-06T13:34:31.973Z</time></trkpt><trkpt lat="45.6209555" lon="11.0889788"><ele>1182.3333333333335</ele><time>2026-04-06T13:34:32.969Z</time></trkpt><trkpt lat="45.6208105" lon="11.088883"><ele>1180.6666666666667</ele><time>2026-04-06T13:34:33.974Z</time></trkpt><trkpt lat="45.6206701" lon="11.0887906"><ele>1179.0</ele><time>2026-04-06T13:34:34.986Z</time></trkpt><trkpt lat="45.6205397" lon="11.0887007"><ele>1179.0</ele><time>2026-04-06T13:34:35.987Z</time></trkpt><trkpt lat="45.6204276" lon="11.088628"><ele>1179.0</ele><time>2026-04-06T13:34:36.987Z</time></trkpt><trkpt lat="45.6203166" lon="11.0885468"><ele>1179.0</ele><time>2026-04-06T13:34:37.987Z</time></trkpt><trkpt lat="45.6202153" lon="11.0884755"><ele>1179.0</ele><time>2026-04-06T13:34:38.986Z</time></trkpt><trkpt lat="45.620117" lon="11.0884215"><ele>1173.6000000000001</ele><time>2026-04-06T13:34:39.985Z</time></trkpt><trkpt lat="45.6200208" lon="11.0883798"><ele>1168.2</ele><time>2026-04-06T13:34:40.987Z</time></trkpt><trkpt lat="45.6199278" lon="11.0883594"><ele>1162.8000000000002</ele><time>2026-04-06T13:34:41.985Z</time></trkpt><trkpt lat="45.6198212" lon="11.0883656"><ele>1157.4</ele><time>2026-04-06T13:34:42.986Z</time></trkpt><trkpt lat="45.6197053" lon="11.0884131"><ele>1152.0</ele><time>2026-04-06T13:34:43.988Z</time></trkpt><trkpt lat="45.619583" lon="11.088488"><ele>1146.0</ele><time>2026-04-06T13:34:44.985Z</time></trkpt><trkpt lat="45.6194671" lon="11.0886113"><ele>1140.0</ele><time>2026-04-06T13:34:45.985Z</time></trkpt><trkpt lat="45.6193528" lon="11.0887278"><ele>1134.0</ele><time>2026-04-06T13:34:46.986Z</time></trkpt><trkpt lat="45.6192454" lon="11.0888488"><ele>1128.0</ele><time>2026-04-06T13:34:47.987Z</time></trkpt><trkpt lat="45.6191377" lon="11.0889649"><ele>1128.0</ele><time>2026-04-06T13:34:48.987Z</time></trkpt><trkpt lat="45.6190392" lon="11.0890795"><ele>1128.0</ele><time>2026-04-06T13:34:49.987Z</time></trkpt><trkpt lat="45.6189514" lon="11.0891919"><ele>1128.0</ele><time>2026-04-06T13:34:50.985Z</time></trkpt><trkpt lat="45.6188885" lon="11.0893084"><ele>1128.0</ele><time>2026-04-06T13:34:51.986Z</time></trkpt><trkpt lat="45.6188524" lon="11.089423"><ele>1128.0</ele><time>2026-04-06T13:34:52.986Z</time></trkpt><trkpt lat="45.6188425" lon="11.0895362"><ele>1130.1666666666667</ele><time>2026-04-06T13:34:53.986Z</time></trkpt><trkpt lat="45.6188637" lon="11.0896491"><ele>1132.3333333333333</ele><time>2026-04-06T13:34:54.987Z</time></trkpt><trkpt lat="45.6189" lon="11.0897566"><ele>1134.5</ele><time>2026-04-06T13:34:55.987Z</time></trkpt><trkpt lat="45.6189502" lon="11.0898627"><ele>1136.6666666666665</ele><time>2026-04-06T13:34:56.986Z</time></trkpt><trkpt lat="45.618996" lon="11.0899632"><ele>1138.8333333333333</ele><time>2026-04-06T13:34:57.987Z</time></trkpt><trkpt lat="45.6190309" lon="11.0900651"><ele>1141.0</ele><time>2026-04-06T13:34:58.986Z</time></trkpt><trkpt lat="45.6190383" lon="11.0901603"><ele>1141.5</ele><time>2026-04-06T13:34:59.987Z</time></trkpt><trkpt lat="45.6190402" lon="11.0902634"><ele>1142.0</ele><time>2026-04-06T13:35:00.988Z</time></trkpt><trkpt lat="45.61901" lon="11.0903739"><ele>1142.5</ele><time>2026-04-06T13:35:01.986Z</time></trkpt><trkpt lat="45.6189547" lon="11.0904772"><ele>1143.0</ele><time>2026-04-06T13:35:02.987Z</time></trkpt><trkpt lat="45.6188785" lon="11.0905641"><ele>1143.5</ele><time>2026-04-06T13:35:03.987Z</time></trkpt><trkpt lat="45.6187974" lon="11.0906398"><ele>1144.0</ele><time>2026-04-06T13:35:04.987Z</time></trkpt><trkpt lat="45.6186974" lon="11.0907013"><ele>1139.0</ele><time>2026-04-06T13:35:05.986Z</time></trkpt><trkpt lat="45.6186052" lon="11.0907792"><ele>1134.0</ele><time>2026-04-06T13:35:06.986Z</time></trkpt><trkpt lat="45.6185137" lon="11.0908839"><ele>1129.0</ele><time>2026-04-06T13:35:07.986Z</time></trkpt><trkpt lat="45.6184302" lon="11.091046"><ele>1124.0</ele><time>2026-04-06T13:35:08.986Z</time></trkpt><trkpt lat="45.6183492" lon="11.0912299"><ele>1124.0</ele><time>2026-04-06T13:35:09.985Z</time></trkpt><trkpt lat="45.6182598" lon="11.0914435"><ele>1124.0</ele><time>2026-04-06T13:35:10.986Z</time></trkpt><trkpt lat="45.6181624" lon="11.0916537"><ele>1124.0</ele><time>2026-04-06T13:35:11.986Z</time></trkpt><trkpt lat="45.6180444" lon="11.0918831"><ele>1124.0</ele><time>2026-04-06T13:35:12.987Z</time></trkpt><trkpt lat="45.6179226" lon="11.0920914"><ele>1124.0</ele><time>2026-04-06T13:35:13.986Z</time></trkpt><trkpt lat="45.6177954" lon="11.0922878"><ele>1124.0</ele><time>2026-04-06T13:35:14.985Z</time></trkpt><trkpt lat="45.6176736" lon="11.0924604"><ele>1123.3333333333335</ele><time>2026-04-06T13:35:15.987Z</time></trkpt><trkpt lat="45.617575" lon="11.0926227"><ele>1122.6666666666667</ele><time>2026-04-06T13:35:16.985Z</time></trkpt><trkpt lat="45.6174779" lon="11.0927879"><ele>1122.0</ele><time>2026-04-06T13:35:17.987Z</time></trkpt><trkpt lat="45.6173861" lon="11.0929815"><ele>1122.0</ele><time>2026-04-06T13:35:18.987Z</time></trkpt><trkpt lat="45.6173369" lon="11.0932104"><ele>1122.0</ele><time>2026-04-06T13:35:19.987Z</time></trkpt><trkpt lat="45.6172769" lon="11.0934163"><ele>1122.0</ele><time>2026-04-06T13:35:20.986Z</time></trkpt><trkpt lat="45.6172346" lon="11.0936016"><ele>1122.25</ele><time>2026-04-06T13:35:21.987Z</time></trkpt><trkpt lat="45.6171861" lon="11.09376"><ele>1122.5</ele><time>2026-04-06T13:35:22.986Z</time></trkpt><trkpt lat="45.6171169" lon="11.0938986"><ele>1122.75</ele><time>2026-04-06T13:35:23.986Z</time></trkpt><trkpt lat="45.6170257" lon="11.0940146"><ele>1123.0</ele><time>2026-04-06T13:35:24.986Z</time></trkpt><trkpt lat="45.6169026" lon="11.0941057"><ele>1116.6666666666665</ele><time>2026-04-06T13:35:25.987Z</time></trkpt><trkpt lat="45.6167473" lon="11.094167"><ele>1110.3333333333333</ele><time>2026-04-06T13:35:26.987Z</time></trkpt><trkpt lat="45.6165697" lon="11.0942153"><ele>1104.0</ele><time>2026-04-06T13:35:27.987Z</time></trkpt><trkpt lat="45.6163858" lon="11.0942671"><ele>1104.0</ele><time>2026-04-06T13:35:28.987Z</time></trkpt><trkpt lat="45.6162118" lon="11.0943116"><ele>1104.0</ele><time>2026-04-06T13:35:29.986Z</time></trkpt><trkpt lat="45.6160391" lon="11.0943467"><ele>1104.0</ele><time>2026-04-06T13:35:30.986Z</time></trkpt><trkpt lat="45.6158839" lon="11.0943845"><ele>1102.25</ele><time>2026-04-06T13:35:31.985Z</time></trkpt><trkpt lat="45.6157412" lon="11.0944083"><ele>1100.5</ele><time>2026-04-06T13:35:32.986Z</time></trkpt><trkpt lat="45.615607" lon="11.094432"><ele>1098.75</ele><time>2026-04-06T13:35:33.987Z</time></trkpt><trkpt lat="45.6154773" lon="11.094444"><ele>1097.0</ele><time>2026-04-06T13:35:34.987Z</time></trkpt><trkpt lat="45.615341" lon="11.094452"><ele>1098.0</ele><time>2026-04-06T13:35:35.987Z</time></trkpt><trkpt lat="45.6152038" lon="11.0944533"><ele>1099.0</ele><time>2026-04-06T13:35:36.985Z</time></trkpt><trkpt lat="45.6150575" lon="11.0944635"><ele>1100.0</ele><time>2026-04-06T13:35:37.986Z</time></trkpt><trkpt lat="45.6149029" lon="11.0944696"><ele>1101.0</ele><time>2026-04-06T13:35:38.987Z</time></trkpt><trkpt lat="45.6147373" lon="11.0944793"><ele>1101.0</ele><time>2026-04-06T13:35:39.986Z</time></trkpt><trkpt lat="45.6145618" lon="11.0944759"><ele>1101.0</ele><time>2026-04-06T13:35:40.988Z</time></trkpt><trkpt lat="45.6143858" lon="11.0944626"><ele>1101.0</ele><time>2026-04-06T13:35:41.986Z</time></trkpt><trkpt lat="45.6142124" lon="11.0944352"><ele>1100.3333333333333</ele><time>2026-04-06T13:35:42.986Z</time></trkpt><trkpt lat="45.6140536" lon="11.0943895"><ele>1099.6666666666665</ele><time>2026-04-06T13:35:43.987Z</time></trkpt><trkpt lat="45.613907" lon="11.0943398"><ele>1099.0</ele><time>2026-04-06T13:35:44.987Z</time></trkpt><trkpt lat="45.6137671" lon="11.094288"><ele>1099.0</ele><time>2026-04-06T13:35:45.987Z</time></trkpt><trkpt lat="45.6136238" lon="11.0942451"><ele>1099.0</ele><time>2026-04-06T13:35:46.986Z</time></trkpt><trkpt lat="45.613479" lon="11.0942227"><ele>1099.0</ele><time>2026-04-06T13:35:47.986Z</time></trkpt><trkpt lat="45.6133387" lon="11.0942357"><ele>1099.0</ele><time>2026-04-06T13:35:48.987Z</time></trkpt><trkpt lat="45.6131907" lon="11.0943014"><ele>1099.0</ele><time>2026-04-06T13:35:49.987Z</time></trkpt><trkpt lat="45.6130415" lon="11.0943924"><ele>1099.0</ele><time>2026-04-06T13:35:50.987Z</time></trkpt><trkpt lat="45.6128781" lon="11.0944592"><ele>1099.0</ele><time>2026-04-06T13:35:51.986Z</time></trkpt><trkpt lat="45.6127125" lon="11.0945021"><ele>1097.5</ele><time>2026-04-06T13:35:52.987Z</time></trkpt><trkpt lat="45.6125682" lon="11.0945225"><ele>1096.0</ele><time>2026-04-06T13:35:53.986Z</time></trkpt><trkpt lat="45.6124412" lon="11.0945148"><ele>1094.5</ele><time>2026-04-06T13:35:54.988Z</time></trkpt><trkpt lat="45.6123266" lon="11.0944624"><ele>1093.0</ele><time>2026-04-06T13:35:55.986Z</time></trkpt><trkpt lat="45.612224" lon="11.0943653"><ele>1093.0</ele><time>2026-04-06T13:35:56.987Z</time></trkpt><trkpt lat="45.6121299" lon="11.0942405"><ele>1093.0</ele><time>2026-04-06T13:35:57.987Z</time></trkpt><trkpt lat="45.6120302" lon="11.0941238"><ele>1093.0</ele><time>2026-04-06T13:35:58.987Z</time></trkpt><trkpt lat="45.6119255" lon="11.0940587"><ele>1093.0</ele><time>2026-04-06T13:35:59.986Z</time></trkpt><trkpt lat="45.6118074" lon="11.0940454"><ele>1092.5</ele><time>2026-04-06T13:36:00.986Z</time></trkpt><trkpt lat="45.6116973" lon="11.0940598"><ele>1092.0</ele><time>2026-04-06T13:36:01.986Z</time></trkpt><trkpt lat="45.611601" lon="11.0941265"><ele>1091.5</ele><time>2026-04-06T13:36:02.986Z</time></trkpt><trkpt lat="45.6115126" lon="11.0942403"><ele>1091.0</ele><time>2026-04-06T13:36:03.986Z</time></trkpt><trkpt lat="45.611433" lon="11.0943866"><ele>1091.0</ele><time>2026-04-06T13:36:04.985Z</time></trkpt><trkpt lat="45.611356" lon="11.0945658"><ele>1091.0</ele><time>2026-04-06T13:36:05.987Z</time></trkpt><trkpt lat="45.6112774" lon="11.0947105"><ele>1091.0</ele><time>2026-04-06T13:36:06.986Z</time></trkpt><trkpt lat="45.6111955" lon="11.0948177"><ele>1091.0</ele><time>2026-04-06T13:36:07.986Z</time></trkpt><trkpt lat="45.6111127" lon="11.0948952"><ele>1091.2</ele><time>2026-04-06T13:36:08.987Z</time></trkpt><trkpt lat="45.6110273" lon="11.094934"><ele>1091.3999999999999</ele><time>2026-04-06T13:36:09.986Z</time></trkpt><trkpt lat="45.6109373" lon="11.0949439"><ele>1091.6</ele><time>2026-04-06T13:36:10.987Z</time></trkpt><trkpt lat="45.6108317" lon="11.0949215"><ele>1091.8</ele><time>2026-04-06T13:36:11.987Z</time></trkpt><trkpt lat="45.6107182" lon="11.0948717"><ele>1092.0</ele><time>2026-04-06T13:36:12.985Z</time></trkpt><trkpt lat="45.6106041" lon="11.0948064"><ele>1091.2</ele><time>2026-04-06T13:36:13.986Z</time></trkpt><trkpt lat="45.6105002" lon="11.0947605"><ele>1090.4</ele><time>2026-04-06T13:36:14.986Z</time></trkpt><trkpt lat="45.6103952" lon="11.0947318"><ele>1089.6</ele><time>2026-04-06T13:36:15.987Z</time></trkpt><trkpt lat="45.6102915" lon="11.0947166"><ele>1088.8</ele><time>2026-04-06T13:36:16.987Z</time></trkpt><trkpt lat="45.6101909" lon="11.0947148"><ele>1088.0</ele><time>2026-04-06T13:36:17.987Z</time></trkpt><trkpt lat="45.6100975" lon="11.094735"><ele>1088.0</ele><time>2026-04-06T13:36:18.985Z</time></trkpt><trkpt lat="45.6100226" lon="11.09475"><ele>1088.0</ele><time>2026-04-06T13:36:19.988Z</time></trkpt><trkpt lat="45.6099461" lon="11.094767"><ele>1088.0</ele><time>2026-04-06T13:36:20.987Z</time></trkpt><trkpt lat="45.6098725" lon="11.0947827"><ele>1088.0</ele><time>2026-04-06T13:36:21.986Z</time></trkpt><trkpt lat="45.6097877" lon="11.0948031"><ele>1088.0</ele><time>2026-04-06T13:36:22.987Z</time></trkpt><trkpt lat="45.6096913" lon="11.0948267"><ele>1088.0</ele><time>2026-04-06T13:36:23.985Z</time></trkpt><trkpt lat="45.6095839" lon="11.0948496"><ele>1087.0</ele><time>2026-04-06T13:36:24.987Z</time></trkpt><trkpt lat="45.6094726" lon="11.0948817"><ele>1086.0</ele><time>2026-04-06T13:36:25.987Z</time></trkpt><trkpt lat="45.6093591" lon="11.0949109"><ele>1085.0</ele><time>2026-04-06T13:36:26.986Z</time></trkpt><trkpt lat="45.60924" lon="11.0949482"><ele>1084.0</ele><time>2026-04-06T13:36:27.988Z</time></trkpt><trkpt lat="45.6091229" lon="11.0949941"><ele>1083.0</ele><time>2026-04-06T13:36:28.987Z</time></trkpt><trkpt lat="45.6090106" lon="11.0950507"><ele>1082.0</ele><time>2026-04-06T13:36:29.987Z</time></trkpt><trkpt lat="45.6089074" lon="11.0951285"><ele>1081.0</ele><time>2026-04-06T13:36:30.986Z</time></trkpt><trkpt lat="45.6088208" lon="11.0952095"><ele>1080.0</ele><time>2026-04-06T13:36:31.988Z</time></trkpt><trkpt lat="45.6087464" lon="11.0952942"><ele>1079.0</ele><time>2026-04-06T13:36:32.986Z</time></trkpt><trkpt lat="45.6086769" lon="11.0953814"><ele>1077.4</ele><time>2026-04-06T13:36:33.987Z</time></trkpt><trkpt lat="45.6086054" lon="11.0954747"><ele>1075.8000000000002</ele><time>2026-04-06T13:36:34.986Z</time></trkpt><trkpt lat="45.6085278" lon="11.0955706"><ele>1074.1999999999998</ele><time>2026-04-06T13:36:35.986Z</time></trkpt><trkpt lat="45.60844" lon="11.0956627"><ele>1072.6</ele><time>2026-04-06T13:36:36.987Z</time></trkpt><trkpt lat="45.6083429" lon="11.0957347"><ele>1071.0</ele><time>2026-04-06T13:36:37.986Z</time></trkpt><trkpt lat="45.6082324" lon="11.0957752"><ele>1071.0</ele><time>2026-04-06T13:36:38.986Z</time></trkpt><trkpt lat="45.6081165" lon="11.0957864"><ele>1071.0</ele><time>2026-04-06T13:36:39.988Z</time></trkpt><trkpt lat="45.6079969" lon="11.0957377"><ele>1071.0</ele><time>2026-04-06T13:36:40.987Z</time></trkpt><trkpt lat="45.6078777" lon="11.095681"><ele>1071.0</ele><time>2026-04-06T13:36:41.988Z</time></trkpt><trkpt lat="45.6077569" lon="11.0956066"><ele>1069.6</ele><time>2026-04-06T13:36:42.988Z</time></trkpt><trkpt lat="45.6076515" lon="11.0955419"><ele>1068.1999999999998</ele><time>2026-04-06T13:36:43.985Z</time></trkpt><trkpt lat="45.607557" lon="11.0954946"><ele>1066.8000000000002</ele><time>2026-04-06T13:36:44.987Z</time></trkpt><trkpt lat="45.6074726" lon="11.095464"><ele>1065.4</ele><time>2026-04-06T13:36:45.988Z</time></trkpt><trkpt lat="45.607387" lon="11.0954481"><ele>1064.0</ele><time>2026-04-06T13:36:46.987Z</time></trkpt><trkpt lat="45.607308" lon="11.0954606"><ele>1064.0</ele><time>2026-04-06T13:36:47.987Z</time></trkpt><trkpt lat="45.6072304" lon="11.0954897"><ele>1064.0</ele><time>2026-04-06T13:36:48.986Z</time></trkpt><trkpt lat="45.6071532" lon="11.0955583"><ele>1064.0</ele><time>2026-04-06T13:36:49.988Z</time></trkpt><trkpt lat="45.6070814" lon="11.0956231"><ele>1064.0</ele><time>2026-04-06T13:36:50.986Z</time></trkpt><trkpt lat="45.607022" lon="11.0956938"><ele>1064.0</ele><time>2026-04-06T13:36:51.986Z</time></trkpt><trkpt lat="45.6069686" lon="11.0957598"><ele>1064.0</ele><time>2026-04-06T13:36:52.987Z</time></trkpt><trkpt lat="45.6068809" lon="11.0958675"><ele>1067.2</ele><time>2026-04-06T13:36:54.986Z</time></trkpt><trkpt lat="45.6068046" lon="11.0959465"><ele>1070.4</ele><time>2026-04-06T13:36:56.985Z</time></trkpt><trkpt lat="45.6067259" lon="11.0960012"><ele>1073.6</ele><time>2026-04-06T13:36:58.987Z</time></trkpt><trkpt lat="45.6066297" lon="11.0960302"><ele>1076.8</ele><time>2026-04-06T13:37:00.986Z</time></trkpt><trkpt lat="45.6065189" lon="11.0960079"><ele>1080.0</ele><time>2026-04-06T13:37:02.987Z</time></trkpt><trkpt lat="45.6064554" lon="11.0959735"><ele>1080.0</ele><time>2026-04-06T13:37:03.986Z</time></trkpt><trkpt lat="45.6063937" lon="11.0959293"><ele>1080.0</ele><time>2026-04-06T13:37:04.987Z</time></trkpt><trkpt lat="45.6063181" lon="11.0958684"><ele>1080.0</ele><time>2026-04-06T13:37:05.986Z</time></trkpt><trkpt lat="45.6062487" lon="11.0957992"><ele>1080.0</ele><time>2026-04-06T13:37:06.987Z</time></trkpt><trkpt lat="45.6061766" lon="11.0957298"><ele>1080.0</ele><time>2026-04-06T13:37:07.987Z</time></trkpt><trkpt lat="45.6061" lon="11.0956564"><ele>1080.0</ele><time>2026-04-06T13:37:08.987Z</time></trkpt><trkpt lat="45.6060257" lon="11.0955845"><ele>1078.6666666666667</ele><time>2026-04-06T13:37:09.987Z</time></trkpt><trkpt lat="45.6059527" lon="11.0955224"><ele>1077.3333333333333</ele><time>2026-04-06T13:37:10.988Z</time></trkpt><trkpt lat="45.6058818" lon="11.0954669"><ele>1076.0</ele><time>2026-04-06T13:37:11.986Z</time></trkpt><trkpt lat="45.6058144" lon="11.0953885"><ele>1074.6666666666665</ele><time>2026-04-06T13:37:12.986Z</time></trkpt><trkpt lat="45.6057375" lon="11.0953166"><ele>1073.3333333333333</ele><time>2026-04-06T13:37:13.987Z</time></trkpt><trkpt lat="45.6056607" lon="11.0952554"><ele>1072.0</ele><time>2026-04-06T13:37:14.987Z</time></trkpt><trkpt lat="45.6055901" lon="11.0952066"><ele>1072.0</ele><time>2026-04-06T13:37:15.985Z</time></trkpt><trkpt lat="45.6055157" lon="11.0951694"><ele>1072.0</ele><time>2026-04-06T13:37:16.986Z</time></trkpt><trkpt lat="45.6054395" lon="11.0951265"><ele>1072.0</ele><time>2026-04-06T13:37:17.987Z</time></trkpt><trkpt lat="45.6053636" lon="11.0950917"><ele>1072.0</ele><time>2026-04-06T13:37:18.986Z</time></trkpt><trkpt lat="45.6052857" lon="11.0950671"><ele>1072.0</ele><time>2026-04-06T13:37:19.987Z</time></trkpt><trkpt lat="45.6052051" lon="11.0950446"><ele>1072.0</ele><time>2026-04-06T13:37:20.985Z</time></trkpt><trkpt lat="45.6051185" lon="11.0950274"><ele>1073.5</ele><time>2026-04-06T13:37:21.986Z</time></trkpt><trkpt lat="45.6050335" lon="11.0950077"><ele>1075.0</ele><time>2026-04-06T13:37:22.986Z</time></trkpt><trkpt lat="45.6049469" lon="11.0949959"><ele>1076.5</ele><time>2026-04-06T13:37:23.986Z</time></trkpt><trkpt lat="45.6048689" lon="11.0949894"><ele>1078.0</ele><time>2026-04-06T13:37:24.986Z</time></trkpt><trkpt lat="45.6047839" lon="11.0949824"><ele>1079.5</ele><time>2026-04-06T13:37:25.987Z</time></trkpt><trkpt lat="45.6047109" lon="11.0949719"><ele>1081.0</ele><time>2026-04-06T13:37:26.986Z</time></trkpt><trkpt lat="45.6046461" lon="11.0949686"><ele>1081.0</ele><time>2026-04-06T13:37:27.986Z</time></trkpt><trkpt lat="45.6045331" lon="11.0949902"><ele>1081.0</ele><time>2026-04-06T13:37:29.986Z</time></trkpt><trkpt lat="45.60446" lon="11.0949947"><ele>1081.0</ele><time>2026-04-06T13:37:31.987Z</time></trkpt><trkpt lat="45.6043915" lon="11.0949933"><ele>1081.0</ele><time>2026-04-06T13:37:33.987Z</time></trkpt><trkpt lat="45.6042729" lon="11.0949762"><ele>1081.0</ele><time>2026-04-06T13:37:35.986Z</time></trkpt><trkpt lat="45.6041464" lon="11.0949733"><ele>1080.3333333333333</ele><time>2026-04-06T13:37:37.986Z</time></trkpt><trkpt lat="45.6040773" lon="11.0949702"><ele>1079.6666666666665</ele><time>2026-04-06T13:37:38.985Z</time></trkpt><trkpt lat="45.6040048" lon="11.0949724"><ele>1079.0</ele><time>2026-04-06T13:37:39.986Z</time></trkpt><trkpt lat="45.6039178" lon="11.0949803"><ele>1078.3333333333333</ele><time>2026-04-06T13:37:40.986Z</time></trkpt><trkpt lat="45.6038343" lon="11.0950014"><ele>1077.6666666666667</ele><time>2026-04-06T13:37:41.985Z</time></trkpt><trkpt lat="45.6037429" lon="11.0950398"><ele>1077.0</ele><time>2026-04-06T13:37:42.987Z</time></trkpt><trkpt lat="45.6036483" lon="11.0951071"><ele>1078.8</ele><time>2026-04-06T13:37:43.985Z</time></trkpt><trkpt lat="45.6035603" lon="11.0951937"><ele>1080.6</ele><time>2026-04-06T13:37:44.987Z</time></trkpt><trkpt lat="45.6034785" lon="11.0952881"><ele>1082.3999999999999</ele><time>2026-04-06T13:37:45.987Z</time></trkpt><trkpt lat="45.6033932" lon="11.0953863"><ele>1084.2</ele><time>2026-04-06T13:37:46.987Z</time></trkpt><trkpt lat="45.6033028" lon="11.0954767"><ele>1086.0</ele><time>2026-04-06T13:37:47.986Z</time></trkpt><trkpt lat="45.6032175" lon="11.0955511"><ele>1086.0</ele><time>2026-04-06T13:37:48.986Z</time></trkpt><trkpt lat="45.6031372" lon="11.095612"><ele>1086.0</ele><time>2026-04-06T13:37:49.987Z</time></trkpt><trkpt lat="45.6030556" lon="11.0956687"><ele>1086.0</ele><time>2026-04-06T13:37:50.987Z</time></trkpt><trkpt lat="45.6029817" lon="11.0957221"><ele>1086.0</ele><time>2026-04-06T13:37:51.988Z</time></trkpt><trkpt lat="45.6029161" lon="11.0957814"><ele>1086.0</ele><time>2026-04-06T13:37:52.986Z</time></trkpt><trkpt lat="45.6028745" lon="11.0958662"><ele>1086.0</ele><time>2026-04-06T13:37:53.987Z</time></trkpt><trkpt lat="45.6028452" lon="11.0959711"><ele>1083.2</ele><time>2026-04-06T13:37:54.985Z</time></trkpt><trkpt lat="45.6028543" lon="11.0960916"><ele>1080.3999999999999</ele><time>2026-04-06T13:37:55.986Z</time></trkpt><trkpt lat="45.6028757" lon="11.096218"><ele>1077.6</ele><time>2026-04-06T13:37:56.986Z</time></trkpt><trkpt lat="45.6029624" lon="11.0963493"><ele>1074.8</ele><time>2026-04-06T13:37:57.988Z</time></trkpt><trkpt lat="45.6030363" lon="11.0964828"><ele>1072.0</ele><time>2026-04-06T13:37:58.985Z</time></trkpt><trkpt lat="45.6030983" lon="11.0966004"><ele>1071.25</ele><time>2026-04-06T13:37:59.987Z</time></trkpt><trkpt lat="45.6031634" lon="11.0967289"><ele>1070.5</ele><time>2026-04-06T13:38:00.986Z</time></trkpt><trkpt lat="45.6032245" lon="11.0968606"><ele>1069.75</ele><time>2026-04-06T13:38:01.987Z</time></trkpt><trkpt lat="45.6032655" lon="11.0970188"><ele>1069.0</ele><time>2026-04-06T13:38:02.986Z</time></trkpt><trkpt lat="45.6032972" lon="11.0972033"><ele>1069.0</ele><time>2026-04-06T13:38:03.985Z</time></trkpt><trkpt lat="45.6032902" lon="11.0974184"><ele>1069.0</ele><time>2026-04-06T13:38:04.988Z</time></trkpt><trkpt lat="45.6032803" lon="11.0976444"><ele>1069.0</ele><time>2026-04-06T13:38:05.985Z</time></trkpt><trkpt lat="45.6032629" lon="11.0978508"><ele>1069.0</ele><time>2026-04-06T13:38:06.986Z</time></trkpt><trkpt lat="45.6032404" lon="11.0980531"><ele>1069.0</ele><time>2026-04-06T13:38:07.987Z</time></trkpt><trkpt lat="45.6032058" lon="11.0982393"><ele>1069.0</ele><time>2026-04-06T13:38:08.987Z</time></trkpt><trkpt lat="45.6031703" lon="11.0984148"><ele>1069.0</ele><time>2026-04-06T13:38:09.987Z</time></trkpt><trkpt lat="45.6031222" lon="11.0985772"><ele>1068.0</ele><time>2026-04-06T13:38:10.987Z</time></trkpt><trkpt lat="45.6030807" lon="11.0987507"><ele>1067.0</ele><time>2026-04-06T13:38:11.987Z</time></trkpt><trkpt lat="45.6030406" lon="11.098919"><ele>1066.0</ele><time>2026-04-06T13:38:12.985Z</time></trkpt><trkpt lat="45.6030058" lon="11.0990842"><ele>1065.0</ele><time>2026-04-06T13:38:13.987Z</time></trkpt><trkpt lat="45.6029677" lon="11.0992507"><ele>1064.6</ele><time>2026-04-06T13:38:14.987Z</time></trkpt><trkpt lat="45.6029299" lon="11.0994038"><ele>1064.2</ele><time>2026-04-06T13:38:15.988Z</time></trkpt><trkpt lat="45.6028911" lon="11.0995555"><ele>1063.8</ele><time>2026-04-06T13:38:16.986Z</time></trkpt><trkpt lat="45.6028456" lon="11.0996907"><ele>1063.4</ele><time>2026-04-06T13:38:17.988Z</time></trkpt><trkpt lat="45.6027903" lon="11.0998145"><ele>1063.0</ele><time>2026-04-06T13:38:18.986Z</time></trkpt><trkpt lat="45.6027174" lon="11.0999286"><ele>1062.4</ele><time>2026-04-06T13:38:19.986Z</time></trkpt><trkpt lat="45.6026384" lon="11.1000096"><ele>1061.8</ele><time>2026-04-06T13:38:20.987Z</time></trkpt><trkpt lat="45.6025485" lon="11.1000563"><ele>1061.2</ele><time>2026-04-06T13:38:21.987Z</time></trkpt><trkpt lat="45.6024484" lon="11.1000654"><ele>1060.6</ele><time>2026-04-06T13:38:22.987Z</time></trkpt><trkpt lat="45.6023446" lon="11.100033"><ele>1060.0</ele><time>2026-04-06T13:38:23.985Z</time></trkpt><trkpt lat="45.6022478" lon="11.0999621"><ele>1058.25</ele><time>2026-04-06T13:38:24.988Z</time></trkpt><trkpt lat="45.6021665" lon="11.0998546"><ele>1056.5</ele><time>2026-04-06T13:38:25.985Z</time></trkpt><trkpt lat="45.6020965" lon="11.09971"><ele>1054.75</ele><time>2026-04-06T13:38:26.986Z</time></trkpt><trkpt lat="45.6020374" lon="11.0995624"><ele>1053.0</ele><time>2026-04-06T13:38:27.985Z</time></trkpt><trkpt lat="45.6019797" lon="11.0994247"><ele>1053.0</ele><time>2026-04-06T13:38:28.987Z</time></trkpt><trkpt lat="45.601922" lon="11.0993034"><ele>1053.0</ele><time>2026-04-06T13:38:29.985Z</time></trkpt><trkpt lat="45.6018556" lon="11.0991951"><ele>1053.0</ele><time>2026-04-06T13:38:30.988Z</time></trkpt><trkpt lat="45.6017858" lon="11.099096"><ele>1053.0</ele><time>2026-04-06T13:38:31.988Z</time></trkpt><trkpt lat="45.6017071" lon="11.0990106"><ele>1053.0</ele><time>2026-04-06T13:38:32.985Z</time></trkpt><trkpt lat="45.601617" lon="11.0989318"><ele>1054.8</ele><time>2026-04-06T13:38:33.986Z</time></trkpt><trkpt lat="45.6015163" lon="11.0988719"><ele>1056.6</ele><time>2026-04-06T13:38:34.987Z</time></trkpt><trkpt lat="45.6014169" lon="11.0988246"><ele>1058.4</ele><time>2026-04-06T13:38:35.986Z</time></trkpt><trkpt lat="45.601313" lon="11.098787"><ele>1060.2</ele><time>2026-04-06T13:38:36.987Z</time></trkpt><trkpt lat="45.6012127" lon="11.0987513"><ele>1062.0</ele><time>2026-04-06T13:38:37.987Z</time></trkpt><trkpt lat="45.6011104" lon="11.0987221"><ele>1062.0</ele><time>2026-04-06T13:38:38.985Z</time></trkpt><trkpt lat="45.6010107" lon="11.0986972"><ele>1062.0</ele><time>2026-04-06T13:38:39.987Z</time></trkpt><trkpt lat="45.6009073" lon="11.0986753"><ele>1062.0</ele><time>2026-04-06T13:38:40.986Z</time></trkpt><trkpt lat="45.6007912" lon="11.0986698"><ele>1062.0</ele><time>2026-04-06T13:38:41.987Z</time></trkpt><trkpt lat="45.6006735" lon="11.0986849"><ele>1062.0</ele><time>2026-04-06T13:38:42.988Z</time></trkpt><trkpt lat="45.6005589" lon="11.0987179"><ele>1062.0</ele><time>2026-04-06T13:38:43.986Z</time></trkpt><trkpt lat="45.6004419" lon="11.098765"><ele>1062.0</ele><time>2026-04-06T13:38:44.987Z</time></trkpt><trkpt lat="45.600322" lon="11.0988232"><ele>1062.0</ele><time>2026-04-06T13:38:45.985Z</time></trkpt><trkpt lat="45.6002078" lon="11.0989032"><ele>1062.0</ele><time>2026-04-06T13:38:46.986Z</time></trkpt><trkpt lat="45.6000958" lon="11.0990036"><ele>1057.75</ele><time>2026-04-06T13:38:47.987Z</time></trkpt><trkpt lat="45.5999892" lon="11.0991135"><ele>1053.5</ele><time>2026-04-06T13:38:48.987Z</time></trkpt><trkpt lat="45.5998915" lon="11.0992182"><ele>1049.25</ele><time>2026-04-06T13:38:49.986Z</time></trkpt><trkpt lat="45.5997942" lon="11.0993185"><ele>1045.0</ele><time>2026-04-06T13:38:50.986Z</time></trkpt><trkpt lat="45.5996991" lon="11.0994168"><ele>1045.0</ele><time>2026-04-06T13:38:51.986Z</time></trkpt><trkpt lat="45.5996053" lon="11.099508"><ele>1045.0</ele><time>2026-04-06T13:38:52.987Z</time></trkpt><trkpt lat="45.5995119" lon="11.0995917"><ele>1045.0</ele><time>2026-04-06T13:38:53.986Z</time></trkpt><trkpt lat="45.5994177" lon="11.0996865"><ele>1045.0</ele><time>2026-04-06T13:38:54.987Z</time></trkpt><trkpt lat="45.5993129" lon="11.0997932"><ele>1043.25</ele><time>2026-04-06T13:38:55.987Z</time></trkpt><trkpt lat="45.5992086" lon="11.0999008"><ele>1041.5</ele><time>2026-04-06T13:38:56.986Z</time></trkpt><trkpt lat="45.5991079" lon="11.1000041"><ele>1039.75</ele><time>2026-04-06T13:38:57.988Z</time></trkpt><trkpt lat="45.5990045" lon="11.1001014"><ele>1038.0</ele><time>2026-04-06T13:38:58.986Z</time></trkpt><trkpt lat="45.5988955" lon="11.1001937"><ele>1038.0</ele><time>2026-04-06T13:38:59.988Z</time></trkpt><trkpt lat="45.5987792" lon="11.1002695"><ele>1038.0</ele><time>2026-04-06T13:39:00.988Z</time></trkpt><trkpt lat="45.5986463" lon="11.1003048"><ele>1038.0</ele><time>2026-04-06T13:39:01.987Z</time></trkpt><trkpt lat="45.5985152" lon="11.1003232"><ele>1038.0</ele><time>2026-04-06T13:39:02.986Z</time></trkpt><trkpt lat="45.5983979" lon="11.1003291"><ele>1038.6666666666667</ele><time>2026-04-06T13:39:03.986Z</time></trkpt><trkpt lat="45.59831" lon="11.1002954"><ele>1039.3333333333333</ele><time>2026-04-06T13:39:04.987Z</time></trkpt><trkpt lat="45.5982355" lon="11.1002719"><ele>1040.0</ele><time>2026-04-06T13:39:05.988Z</time></trkpt><trkpt lat="45.5981762" lon="11.1002371"><ele>1040.6666666666665</ele><time>2026-04-06T13:39:06.987Z</time></trkpt><trkpt lat="45.5980894" lon="11.1002233"><ele>1041.3333333333333</ele><time>2026-04-06T13:39:08.986Z</time></trkpt><trkpt lat="45.5980292" lon="11.1003124"><ele>1042.0</ele><time>2026-04-06T13:39:10.987Z</time></trkpt><trkpt lat="45.5980065" lon="11.1004617"><ele>1042.0</ele><time>2026-04-06T13:39:12.986Z</time></trkpt><trkpt lat="45.5980111" lon="11.1005639"><ele>1042.0</ele><time>2026-04-06T13:39:13.988Z</time></trkpt><trkpt lat="45.5980173" lon="11.1006921"><ele>1042.0</ele><time>2026-04-06T13:39:14.986Z</time></trkpt><trkpt lat="45.5980287" lon="11.100825"><ele>1042.0</ele><time>2026-04-06T13:39:15.986Z</time></trkpt><trkpt lat="45.5980412" lon="11.100957"><ele>1042.0</ele><time>2026-04-06T13:39:16.987Z</time></trkpt><trkpt lat="45.598039" lon="11.1010867"><ele>1042.0</ele><time>2026-04-06T13:39:17.986Z</time></trkpt><trkpt lat="45.5980067" lon="11.1012373"><ele>1042.0</ele><time>2026-04-06T13:39:18.988Z</time></trkpt><trkpt lat="45.5979633" lon="11.1014021"><ele>1042.0</ele><time>2026-04-06T13:39:19.986Z</time></trkpt><trkpt lat="45.5979006" lon="11.1016015"><ele>1042.0</ele><time>2026-04-06T13:39:20.987Z</time></trkpt><trkpt lat="45.5978414" lon="11.1017819"><ele>1042.0</ele><time>2026-04-06T13:39:21.986Z</time></trkpt><trkpt lat="45.5977838" lon="11.1019594"><ele>1042.0</ele><time>2026-04-06T13:39:22.986Z</time></trkpt><trkpt lat="45.5977145" lon="11.1021269"><ele>1042.0</ele><time>2026-04-06T13:39:23.987Z</time></trkpt><trkpt lat="45.5976349" lon="11.1022861"><ele>1042.0</ele><time>2026-04-06T13:39:24.986Z</time></trkpt><trkpt lat="45.5975407" lon="11.1024143"><ele>1042.0</ele><time>2026-04-06T13:39:25.987Z</time></trkpt><trkpt lat="45.5974419" lon="11.1025295"><ele>1039.0</ele><time>2026-04-06T13:39:26.987Z</time></trkpt><trkpt lat="45.5973319" lon="11.1026205"><ele>1036.0</ele><time>2026-04-06T13:39:27.987Z</time></trkpt><trkpt lat="45.5972123" lon="11.1026908"><ele>1033.0</ele><time>2026-04-06T13:39:28.986Z</time></trkpt><trkpt lat="45.5970892" lon="11.1027463"><ele>1030.0</ele><time>2026-04-06T13:39:29.987Z</time></trkpt><trkpt lat="45.5969721" lon="11.1028016"><ele>1029.5</ele><time>2026-04-06T13:39:30.986Z</time></trkpt><trkpt lat="45.596877" lon="11.1028785"><ele>1029.0</ele><time>2026-04-06T13:39:31.985Z</time></trkpt><trkpt lat="45.5968012" lon="11.1029884"><ele>1028.5</ele><time>2026-04-06T13:39:32.987Z</time></trkpt><trkpt lat="45.5967489" lon="11.1031363"><ele>1028.0</ele><time>2026-04-06T13:39:33.987Z</time></trkpt><trkpt lat="45.5967164" lon="11.1033225"><ele>1028.0</ele><time>2026-04-06T13:39:34.986Z</time></trkpt><trkpt lat="45.5966931" lon="11.1035533"><ele>1028.0</ele><time>2026-04-06T13:39:35.987Z</time></trkpt><trkpt lat="45.5966702" lon="11.1037853"><ele>1028.0</ele><time>2026-04-06T13:39:36.988Z</time></trkpt><trkpt lat="45.596651" lon="11.1040218"><ele>1027.0</ele><time>2026-04-06T13:39:37.987Z</time></trkpt><trkpt lat="45.5966418" lon="11.1042468"><ele>1026.0</ele><time>2026-04-06T13:39:38.988Z</time></trkpt><trkpt lat="45.5966413" lon="11.1044618"><ele>1025.0</ele><time>2026-04-06T13:39:39.986Z</time></trkpt><trkpt lat="45.5966438" lon="11.104664"><ele>1025.0</ele><time>2026-04-06T13:39:40.986Z</time></trkpt><trkpt lat="45.5966292" lon="11.1048507"><ele>1025.0</ele><time>2026-04-06T13:39:41.985Z</time></trkpt><trkpt lat="45.5966089" lon="11.1050263"><ele>1025.0</ele><time>2026-04-06T13:39:42.986Z</time></trkpt><trkpt lat="45.5965721" lon="11.1051873"><ele>1025.0</ele><time>2026-04-06T13:39:43.987Z</time></trkpt><trkpt lat="45.5965118" lon="11.1053472"><ele>1023.25</ele><time>2026-04-06T13:39:44.985Z</time></trkpt><trkpt lat="45.5964418" lon="11.1054992"><ele>1021.5</ele><time>2026-04-06T13:39:45.986Z</time></trkpt><trkpt lat="45.5963656" lon="11.1056343"><ele>1019.75</ele><time>2026-04-06T13:39:46.986Z</time></trkpt><trkpt lat="45.5962679" lon="11.1057616"><ele>1018.0</ele><time>2026-04-06T13:39:47.986Z</time></trkpt><trkpt lat="45.5961524" lon="11.1058743"><ele>1018.0</ele><time>2026-04-06T13:39:48.986Z</time></trkpt><trkpt lat="45.5960134" lon="11.105965"><ele>1018.0</ele><time>2026-04-06T13:39:49.987Z</time></trkpt><trkpt lat="45.5958683" lon="11.1060402"><ele>1018.0</ele><time>2026-04-06T13:39:50.986Z</time></trkpt><trkpt lat="45.5957211" lon="11.1061113"><ele>1018.0</ele><time>2026-04-06T13:39:51.987Z</time></trkpt><trkpt lat="45.5955792" lon="11.1062036"><ele>1018.0</ele><time>2026-04-06T13:39:52.987Z</time></trkpt><trkpt lat="45.5954523" lon="11.1063265"><ele>1018.0</ele><time>2026-04-06T13:39:53.986Z</time></trkpt><trkpt lat="45.59533" lon="11.1064489"><ele>1014.0</ele><time>2026-04-06T13:39:54.987Z</time></trkpt><trkpt lat="45.5952197" lon="11.1066011"><ele>1010.0</ele><time>2026-04-06T13:39:55.988Z</time></trkpt><trkpt lat="45.5951194" lon="11.1067996"><ele>1006.0</ele><time>2026-04-06T13:39:56.987Z</time></trkpt><trkpt lat="45.5950132" lon="11.1070282"><ele>1006.0</ele><time>2026-04-06T13:39:57.986Z</time></trkpt><trkpt lat="45.594905" lon="11.1072779"><ele>1006.0</ele><time>2026-04-06T13:39:58.986Z</time></trkpt><trkpt lat="45.5947838" lon="11.1075616"><ele>1006.0</ele><time>2026-04-06T13:39:59.987Z</time></trkpt><trkpt lat="45.5946677" lon="11.1078424"><ele>1001.6666666666666</ele><time>2026-04-06T13:40:00.986Z</time></trkpt><trkpt lat="45.5945531" lon="11.1081191"><ele>997.3333333333333</ele><time>2026-04-06T13:40:01.986Z</time></trkpt><trkpt lat="45.5944433" lon="11.1083797"><ele>993.0</ele><time>2026-04-06T13:40:02.987Z</time></trkpt><trkpt lat="45.5943369" lon="11.1086233"><ele>987.3333333333333</ele><time>2026-04-06T13:40:03.987Z</time></trkpt><trkpt lat="45.5942376" lon="11.1088588"><ele>981.6666666666666</ele><time>2026-04-06T13:40:04.987Z</time></trkpt><trkpt lat="45.5941426" lon="11.1090953"><ele>976.0</ele><time>2026-04-06T13:40:05.986Z</time></trkpt><trkpt lat="45.5940614" lon="11.109327"><ele>975.0</ele><time>2026-04-06T13:40:06.987Z</time></trkpt><trkpt lat="45.5940054" lon="11.1095604"><ele>974.0</ele><time>2026-04-06T13:40:07.988Z</time></trkpt><trkpt lat="45.5939613" lon="11.1098042"><ele>973.0</ele><time>2026-04-06T13:40:08.986Z</time></trkpt><trkpt lat="45.5939288" lon="11.110056"><ele>973.0</ele><time>2026-04-06T13:40:09.986Z</time></trkpt><trkpt lat="45.5939141" lon="11.1103195"><ele>973.0</ele><time>2026-04-06T13:40:10.986Z</time></trkpt><trkpt lat="45.5939173" lon="11.1105744"><ele>973.0</ele><time>2026-04-06T13:40:11.986Z</time></trkpt><trkpt lat="45.5939367" lon="11.1108186"><ele>973.0</ele><time>2026-04-06T13:40:12.987Z</time></trkpt><trkpt lat="45.5939622" lon="11.111037"><ele>973.0</ele><time>2026-04-06T13:40:13.986Z</time></trkpt><trkpt lat="45.5939868" lon="11.1112335"><ele>973.0</ele><time>2026-04-06T13:40:14.987Z</time></trkpt><trkpt lat="45.5940038" lon="11.1114049"><ele>973.0</ele><time>2026-04-06T13:40:15.987Z</time></trkpt><trkpt lat="45.5939943" lon="11.1115566"><ele>973.75</ele><time>2026-04-06T13:40:16.985Z</time></trkpt><trkpt lat="45.5939577" lon="11.111709"><ele>974.5</ele><time>2026-04-06T13:40:17.987Z</time></trkpt><trkpt lat="45.5939042" lon="11.1118528"><ele>975.25</ele><time>2026-04-06T13:40:18.986Z</time></trkpt><trkpt lat="45.593785" lon="11.1119753"><ele>976.0</ele><time>2026-04-06T13:40:19.987Z</time></trkpt><trkpt lat="45.5936568" lon="11.1120858"><ele>976.0</ele><time>2026-04-06T13:40:20.986Z</time></trkpt><trkpt lat="45.593509" lon="11.1121794"><ele>976.0</ele><time>2026-04-06T13:40:21.986Z</time></trkpt><trkpt lat="45.5933727" lon="11.1122519"><ele>976.0</ele><time>2026-04-06T13:40:22.987Z</time></trkpt><trkpt lat="45.5932259" lon="11.1123055"><ele>976.0</ele><time>2026-04-06T13:40:23.986Z</time></trkpt><trkpt lat="45.5930897" lon="11.1122902"><ele>976.0</ele><time>2026-04-06T13:40:24.987Z</time></trkpt><trkpt lat="45.5929547" lon="11.1122676"><ele>976.0</ele><time>2026-04-06T13:40:25.987Z</time></trkpt><trkpt lat="45.5928037" lon="11.1122013"><ele>976.0</ele><time>2026-04-06T13:40:26.986Z</time></trkpt><trkpt lat="45.5926557" lon="11.1121551"><ele>975.5</ele><time>2026-04-06T13:40:27.986Z</time></trkpt><trkpt lat="45.5925151" lon="11.1121291"><ele>975.0</ele><time>2026-04-06T13:40:28.987Z</time></trkpt><trkpt lat="45.5923817" lon="11.1121234"><ele>974.5</ele><time>2026-04-06T13:40:29.986Z</time></trkpt><trkpt lat="45.5922873" lon="11.112155"><ele>974.0</ele><time>2026-04-06T13:40:30.987Z</time></trkpt><trkpt lat="45.5922022" lon="11.1121986"><ele>974.0</ele><time>2026-04-06T13:40:31.987Z</time></trkpt><trkpt lat="45.5921288" lon="11.1122783"><ele>974.0000000000001</ele><time>2026-04-06T13:40:32.987Z</time></trkpt><trkpt lat="45.5920715" lon="11.1123917"><ele>974.0000000000001</ele><time>2026-04-06T13:40:33.987Z</time></trkpt><trkpt lat="45.592014" lon="11.1125261"><ele>974.0</ele><time>2026-04-06T13:40:34.988Z</time></trkpt><trkpt lat="45.591956" lon="11.1126517"><ele>974.0</ele><time>2026-04-06T13:40:35.986Z</time></trkpt><trkpt lat="45.591874" lon="11.1127573"><ele>975.25</ele><time>2026-04-06T13:40:36.987Z</time></trkpt><trkpt lat="45.5917793" lon="11.1128285"><ele>976.5</ele><time>2026-04-06T13:40:37.986Z</time></trkpt><trkpt lat="45.5916672" lon="11.1128567"><ele>977.75</ele><time>2026-04-06T13:40:38.987Z</time></trkpt><trkpt lat="45.5915418" lon="11.1128501"><ele>979.0</ele><time>2026-04-06T13:40:39.986Z</time></trkpt><trkpt lat="45.5914044" lon="11.1128244"><ele>979.0</ele><time>2026-04-06T13:40:40.987Z</time></trkpt><trkpt lat="45.5912566" lon="11.1128036"><ele>979.0</ele><time>2026-04-06T13:40:41.987Z</time></trkpt><trkpt lat="45.5911155" lon="11.1127981"><ele>979.0</ele><time>2026-04-06T13:40:42.988Z</time></trkpt><trkpt lat="45.5909799" lon="11.1127955"><ele>979.0</ele><time>2026-04-06T13:40:43.987Z</time></trkpt><trkpt lat="45.5908508" lon="11.1128002"><ele>977.5</ele><time>2026-04-06T13:40:44.987Z</time></trkpt><trkpt lat="45.5907177" lon="11.1128071"><ele>976.0</ele><time>2026-04-06T13:40:45.986Z</time></trkpt><trkpt lat="45.5905919" lon="11.1128106"><ele>974.5</ele><time>2026-04-06T13:40:46.987Z</time></trkpt><trkpt lat="45.5904665" lon="11.1128155"><ele>973.0</ele><time>2026-04-06T13:40:47.987Z</time></trkpt><trkpt lat="45.590348" lon="11.1128205"><ele>973.0</ele><time>2026-04-06T13:40:48.986Z</time></trkpt><trkpt lat="45.5902238" lon="11.1128396"><ele>973.0</ele><time>2026-04-06T13:40:49.988Z</time></trkpt><trkpt lat="45.5901132" lon="11.112892"><ele>973.0</ele><time>2026-04-06T13:40:50.986Z</time></trkpt><trkpt lat="45.5900082" lon="11.1129677"><ele>973.0</ele><time>2026-04-06T13:40:51.986Z</time></trkpt><trkpt lat="45.5899152" lon="11.113073"><ele>973.0</ele><time>2026-04-06T13:40:52.987Z</time></trkpt><trkpt lat="45.5898366" lon="11.113208"><ele>973.0</ele><time>2026-04-06T13:40:53.987Z</time></trkpt><trkpt lat="45.58977" lon="11.1133484"><ele>973.0</ele><time>2026-04-06T13:40:54.987Z</time></trkpt><trkpt lat="45.5896907" lon="11.1134642"><ele>973.0</ele><time>2026-04-06T13:40:55.987Z</time></trkpt><trkpt lat="45.5896003" lon="11.1135436"><ele>972.0</ele><time>2026-04-06T13:40:56.986Z</time></trkpt><trkpt lat="45.5894804" lon="11.113573"><ele>971.0</ele><time>2026-04-06T13:40:57.987Z</time></trkpt><trkpt lat="45.5893395" lon="11.1135753"><ele>970.0</ele><time>2026-04-06T13:40:58.986Z</time></trkpt><trkpt lat="45.5892057" lon="11.1135579"><ele>969.0</ele><time>2026-04-06T13:40:59.988Z</time></trkpt><trkpt lat="45.5890819" lon="11.1135484"><ele>969.0</ele><time>2026-04-06T13:41:00.986Z</time></trkpt><trkpt lat="45.5889623" lon="11.1135525"><ele>969.0</ele><time>2026-04-06T13:41:01.987Z</time></trkpt><trkpt lat="45.5888412" lon="11.113563"><ele>969.0</ele><time>2026-04-06T13:41:02.986Z</time></trkpt><trkpt lat="45.5887145" lon="11.1135915"><ele>969.0</ele><time>2026-04-06T13:41:03.987Z</time></trkpt><trkpt lat="45.5885908" lon="11.1136237"><ele>968.0</ele><time>2026-04-06T13:41:04.986Z</time></trkpt><trkpt lat="45.5884765" lon="11.1136641"><ele>967.0</ele><time>2026-04-06T13:41:05.987Z</time></trkpt><trkpt lat="45.5883574" lon="11.1137098"><ele>966.0</ele><time>2026-04-06T13:41:06.985Z</time></trkpt><trkpt lat="45.5882292" lon="11.1137662"><ele>965.0</ele><time>2026-04-06T13:41:07.986Z</time></trkpt><trkpt lat="45.5880955" lon="11.1138208"><ele>965.0</ele><time>2026-04-06T13:41:08.987Z</time></trkpt><trkpt lat="45.5879549" lon="11.1138767"><ele>965.0</ele><time>2026-04-06T13:41:09.988Z</time></trkpt><trkpt lat="45.5878009" lon="11.1139414"><ele>965.0</ele><time>2026-04-06T13:41:10.986Z</time></trkpt><trkpt lat="45.5876371" lon="11.1140082"><ele>962.0</ele><time>2026-04-06T13:41:11.986Z</time></trkpt><trkpt lat="45.5874592" lon="11.1140667"><ele>959.0</ele><time>2026-04-06T13:41:12.985Z</time></trkpt><trkpt lat="45.5872681" lon="11.114117"><ele>956.0</ele><time>2026-04-06T13:41:13.987Z</time></trkpt><trkpt lat="45.5870623" lon="11.1141499"><ele>953.6666666666667</ele><time>2026-04-06T13:41:14.987Z</time></trkpt><trkpt lat="45.586853" lon="11.114182"><ele>951.3333333333333</ele><time>2026-04-06T13:41:15.985Z</time></trkpt><trkpt lat="45.5866446" lon="11.1142306"><ele>949.0</ele><time>2026-04-06T13:41:16.986Z</time></trkpt><trkpt lat="45.5864364" lon="11.1142838"><ele>949.0</ele><time>2026-04-06T13:41:17.986Z</time></trkpt><trkpt lat="45.5862351" lon="11.114346"><ele>949.0</ele><time>2026-04-06T13:41:18.986Z</time></trkpt><trkpt lat="45.5860332" lon="11.1144124"><ele>949.0</ele><time>2026-04-06T13:41:19.987Z</time></trkpt><trkpt lat="45.5858437" lon="11.1144722"><ele>943.6666666666666</ele><time>2026-04-06T13:41:20.987Z</time></trkpt><trkpt lat="45.5856515" lon="11.1145215"><ele>938.3333333333333</ele><time>2026-04-06T13:41:21.986Z</time></trkpt><trkpt lat="45.5854456" lon="11.1145651"><ele>933.0</ele><time>2026-04-06T13:41:22.985Z</time></trkpt><trkpt lat="45.5852265" lon="11.114602"><ele>927.5</ele><time>2026-04-06T13:41:23.986Z</time></trkpt><trkpt lat="45.5849974" lon="11.11464"><ele>922.0</ele><time>2026-04-06T13:41:24.987Z</time></trkpt><trkpt lat="45.5847648" lon="11.1146747"><ele>922.0</ele><time>2026-04-06T13:41:25.986Z</time></trkpt><trkpt lat="45.5845312" lon="11.1147104"><ele>922.0</ele><time>2026-04-06T13:41:26.986Z</time></trkpt><trkpt lat="45.5843099" lon="11.1147417"><ele>922.3333333333333</ele><time>2026-04-06T13:41:27.987Z</time></trkpt><trkpt lat="45.5840882" lon="11.1147729"><ele>922.6666666666667</ele><time>2026-04-06T13:41:28.986Z</time></trkpt><trkpt lat="45.5838744" lon="11.1148009"><ele>923.0</ele><time>2026-04-06T13:41:29.987Z</time></trkpt><trkpt lat="45.5836698" lon="11.1148282"><ele>923.0</ele><time>2026-04-06T13:41:30.987Z</time></trkpt><trkpt lat="45.5834695" lon="11.1148619"><ele>923.0</ele><time>2026-04-06T13:41:31.986Z</time></trkpt><trkpt lat="45.5832769" lon="11.1148845"><ele>923.0</ele><time>2026-04-06T13:41:32.987Z</time></trkpt><trkpt lat="45.5830816" lon="11.1148983"><ele>923.0</ele><time>2026-04-06T13:41:33.987Z</time></trkpt><trkpt lat="45.5828825" lon="11.1149041"><ele>923.0</ele><time>2026-04-06T13:41:34.986Z</time></trkpt><trkpt lat="45.582694" lon="11.1149011"><ele>923.0</ele><time>2026-04-06T13:41:35.986Z</time></trkpt><trkpt lat="45.5825128" lon="11.1148962"><ele>926.0</ele><time>2026-04-06T13:41:36.987Z</time></trkpt><trkpt lat="45.5823311" lon="11.1148864"><ele>929.0</ele><time>2026-04-06T13:41:37.987Z</time></trkpt><trkpt lat="45.5821479" lon="11.114872"><ele>932.0</ele><time>2026-04-06T13:41:38.988Z</time></trkpt><trkpt lat="45.5819517" lon="11.1148538"><ele>935.6666666666667</ele><time>2026-04-06T13:41:39.987Z</time></trkpt><trkpt lat="45.5817628" lon="11.114842"><ele>939.3333333333333</ele><time>2026-04-06T13:41:40.987Z</time></trkpt><trkpt lat="45.581577" lon="11.1148382"><ele>943.0</ele><time>2026-04-06T13:41:41.988Z</time></trkpt><trkpt lat="45.5813938" lon="11.1148515"><ele>943.0</ele><time>2026-04-06T13:41:42.986Z</time></trkpt><trkpt lat="45.5812114" lon="11.114881"><ele>943.0</ele><time>2026-04-06T13:41:43.987Z</time></trkpt><trkpt lat="45.5810305" lon="11.1149297"><ele>943.0</ele><time>2026-04-06T13:41:44.986Z</time></trkpt><trkpt lat="45.5808528" lon="11.1149839"><ele>939.6666666666666</ele><time>2026-04-06T13:41:45.986Z</time></trkpt><trkpt lat="45.5806749" lon="11.115061"><ele>936.3333333333333</ele><time>2026-04-06T13:41:46.986Z</time></trkpt><trkpt lat="45.5805063" lon="11.1151629"><ele>933.0</ele><time>2026-04-06T13:41:47.986Z</time></trkpt><trkpt lat="45.5803442" lon="11.1152776"><ele>933.0</ele><time>2026-04-06T13:41:48.987Z</time></trkpt><trkpt lat="45.5801987" lon="11.1153904"><ele>933.0</ele><time>2026-04-06T13:41:49.987Z</time></trkpt><trkpt lat="45.5800644" lon="11.1155053"><ele>933.0</ele><time>2026-04-06T13:41:50.986Z</time></trkpt><trkpt lat="45.5799326" lon="11.1156217"><ele>933.0</ele><time>2026-04-06T13:41:51.985Z</time></trkpt><trkpt lat="45.5797958" lon="11.1157326"><ele>933.0</ele><time>2026-04-06T13:41:52.987Z</time></trkpt><trkpt lat="45.5796533" lon="11.1158504"><ele>933.0</ele><time>2026-04-06T13:41:53.986Z</time></trkpt><trkpt lat="45.5795015" lon="11.1159691"><ele>933.3333333333333</ele><time>2026-04-06T13:41:54.987Z</time></trkpt><trkpt lat="45.5793514" lon="11.1160947"><ele>933.6666666666666</ele><time>2026-04-06T13:41:55.986Z</time></trkpt><trkpt lat="45.5792023" lon="11.1162174"><ele>934.0</ele><time>2026-04-06T13:41:56.985Z</time></trkpt><trkpt lat="45.5790586" lon="11.1163498"><ele>934.0</ele><time>2026-04-06T13:41:57.988Z</time></trkpt><trkpt lat="45.5789178" lon="11.1164811"><ele>934.0</ele><time>2026-04-06T13:41:58.986Z</time></trkpt><trkpt lat="45.5787767" lon="11.1166194"><ele>934.0</ele><time>2026-04-06T13:41:59.987Z</time></trkpt><trkpt lat="45.5786369" lon="11.1167666"><ele>935.0</ele><time>2026-04-06T13:42:00.986Z</time></trkpt><trkpt lat="45.5784957" lon="11.116917"><ele>936.0</ele><time>2026-04-06T13:42:01.986Z</time></trkpt><trkpt lat="45.5783482" lon="11.1170806"><ele>937.0</ele><time>2026-04-06T13:42:02.987Z</time></trkpt><trkpt lat="45.5782096" lon="11.1172335"><ele>937.0</ele><time>2026-04-06T13:42:03.985Z</time></trkpt><trkpt lat="45.5780693" lon="11.1173842"><ele>937.0</ele><time>2026-04-06T13:42:04.986Z</time></trkpt><trkpt lat="45.5779357" lon="11.1175267"><ele>937.0</ele><time>2026-04-06T13:42:05.988Z</time></trkpt><trkpt lat="45.5778097" lon="11.1176596"><ele>937.0</ele><time>2026-04-06T13:42:06.986Z</time></trkpt><trkpt lat="45.5776784" lon="11.1177952"><ele>937.0</ele><time>2026-04-06T13:42:07.988Z</time></trkpt><trkpt lat="45.57754" lon="11.1179275"><ele>937.0</ele><time>2026-04-06T13:42:08.986Z</time></trkpt><trkpt lat="45.5773839" lon="11.1180676"><ele>937.0</ele><time>2026-04-06T13:42:09.986Z</time></trkpt><trkpt lat="45.5772265" lon="11.1182043"><ele>937.0</ele><time>2026-04-06T13:42:10.988Z</time></trkpt><trkpt lat="45.577058" lon="11.1183388"><ele>937.0</ele><time>2026-04-06T13:42:11.985Z</time></trkpt><trkpt lat="45.5768895" lon="11.1184696"><ele>936.3333333333333</ele><time>2026-04-06T13:42:12.987Z</time></trkpt><trkpt lat="45.576731" lon="11.1185981"><ele>935.6666666666667</ele><time>2026-04-06T13:42:13.987Z</time></trkpt><trkpt lat="45.5765766" lon="11.1187285"><ele>935.0</ele><time>2026-04-06T13:42:14.987Z</time></trkpt><trkpt lat="45.5764321" lon="11.1188576"><ele>935.0</ele><time>2026-04-06T13:42:15.986Z</time></trkpt><trkpt lat="45.5762932" lon="11.1189903"><ele>935.0</ele><time>2026-04-06T13:42:16.986Z</time></trkpt><trkpt lat="45.5761611" lon="11.119137"><ele>935.0</ele><time>2026-04-06T13:42:17.986Z</time></trkpt><trkpt lat="45.5760435" lon="11.1192932"><ele>933.3333333333334</ele><time>2026-04-06T13:42:18.986Z</time></trkpt><trkpt lat="45.575935" lon="11.1194769"><ele>931.6666666666667</ele><time>2026-04-06T13:42:19.986Z</time></trkpt><trkpt lat="45.5758306" lon="11.1196807"><ele>930.0</ele><time>2026-04-06T13:42:20.986Z</time></trkpt><trkpt lat="45.5757299" lon="11.119897"><ele>926.6666666666667</ele><time>2026-04-06T13:42:21.985Z</time></trkpt><trkpt lat="45.5756293" lon="11.120103"><ele>923.3333333333334</ele><time>2026-04-06T13:42:22.985Z</time></trkpt><trkpt lat="45.5755261" lon="11.1203037"><ele>920.0</ele><time>2026-04-06T13:42:23.985Z</time></trkpt><trkpt lat="45.5754167" lon="11.1204976"><ele>921.6666666666667</ele><time>2026-04-06T13:42:24.987Z</time></trkpt><trkpt lat="45.5753037" lon="11.1206749"><ele>923.3333333333333</ele><time>2026-04-06T13:42:25.986Z</time></trkpt><trkpt lat="45.5751893" lon="11.120819"><ele>925.0</ele><time>2026-04-06T13:42:26.987Z</time></trkpt><trkpt lat="45.5750649" lon="11.1209345"><ele>922.25</ele><time>2026-04-06T13:42:27.986Z</time></trkpt><trkpt lat="45.5749261" lon="11.1210278"><ele>919.5</ele><time>2026-04-06T13:42:28.987Z</time></trkpt><trkpt lat="45.5747879" lon="11.1210901"><ele>916.75</ele><time>2026-04-06T13:42:29.987Z</time></trkpt><trkpt lat="45.5746473" lon="11.1211241"><ele>914.0</ele><time>2026-04-06T13:42:30.986Z</time></trkpt><trkpt lat="45.5745024" lon="11.1211241"><ele>912.0</ele><time>2026-04-06T13:42:31.987Z</time></trkpt><trkpt lat="45.5743505" lon="11.1210913"><ele>910.0</ele><time>2026-04-06T13:42:32.986Z</time></trkpt><trkpt lat="45.5741982" lon="11.1210229"><ele>908.0</ele><time>2026-04-06T13:42:33.986Z</time></trkpt><trkpt lat="45.5740432" lon="11.1209258"><ele>908.0</ele><time>2026-04-06T13:42:34.988Z</time></trkpt><trkpt lat="45.5738731" lon="11.1208024"><ele>908.0</ele><time>2026-04-06T13:42:35.986Z</time></trkpt><trkpt lat="45.5736861" lon="11.1206618"><ele>908.0</ele><time>2026-04-06T13:42:36.987Z</time></trkpt><trkpt lat="45.5734987" lon="11.1205279"><ele>903.3333333333334</ele><time>2026-04-06T13:42:37.987Z</time></trkpt><trkpt lat="45.5733153" lon="11.120409"><ele>898.6666666666667</ele><time>2026-04-06T13:42:38.986Z</time></trkpt><trkpt lat="45.5731329" lon="11.120315"><ele>894.0</ele><time>2026-04-06T13:42:39.987Z</time></trkpt><trkpt lat="45.5729552" lon="11.1202442"><ele>894.0</ele><time>2026-04-06T13:42:40.986Z</time></trkpt><trkpt lat="45.5727821" lon="11.1201756"><ele>894.0</ele><time>2026-04-06T13:42:41.986Z</time></trkpt><trkpt lat="45.5726262" lon="11.1200926"><ele>894.0</ele><time>2026-04-06T13:42:42.987Z</time></trkpt><trkpt lat="45.5724917" lon="11.1199813"><ele>889.3333333333333</ele><time>2026-04-06T13:42:43.987Z</time></trkpt><trkpt lat="45.5723581" lon="11.1198422"><ele>884.6666666666666</ele><time>2026-04-06T13:42:44.988Z</time></trkpt><trkpt lat="45.5722249" lon="11.1196821"><ele>880.0</ele><time>2026-04-06T13:42:45.987Z</time></trkpt><trkpt lat="45.5720873" lon="11.1195152"><ele>878.6666666666666</ele><time>2026-04-06T13:42:46.986Z</time></trkpt><trkpt lat="45.571958" lon="11.1193495"><ele>877.3333333333333</ele><time>2026-04-06T13:42:47.986Z</time></trkpt><trkpt lat="45.5718308" lon="11.1191993"><ele>876.0</ele><time>2026-04-06T13:42:48.988Z</time></trkpt><trkpt lat="45.571708" lon="11.1190566"><ele>876.0</ele><time>2026-04-06T13:42:49.987Z</time></trkpt><trkpt lat="45.5715861" lon="11.1189418"><ele>876.0</ele><time>2026-04-06T13:42:50.988Z</time></trkpt><trkpt lat="45.5714482" lon="11.1188845"><ele>876.0</ele><time>2026-04-06T13:42:51.986Z</time></trkpt><trkpt lat="45.5712986" lon="11.1188328"><ele>876.0</ele><time>2026-04-06T13:42:52.988Z</time></trkpt><trkpt lat="45.5711277" lon="11.1187911"><ele>877.6666666666667</ele><time>2026-04-06T13:42:53.986Z</time></trkpt><trkpt lat="45.5709466" lon="11.1187637"><ele>879.3333333333334</ele><time>2026-04-06T13:42:54.986Z</time></trkpt><trkpt lat="45.5707629" lon="11.1187398"><ele>881.0</ele><time>2026-04-06T13:42:55.985Z</time></trkpt><trkpt lat="45.5706001" lon="11.1187052"><ele>881.0</ele><time>2026-04-06T13:42:56.986Z</time></trkpt><trkpt lat="45.5704416" lon="11.1186503"><ele>881.0</ele><time>2026-04-06T13:42:57.987Z</time></trkpt><trkpt lat="45.5702914" lon="11.1185734"><ele>881.0</ele><time>2026-04-06T13:42:58.985Z</time></trkpt><trkpt lat="45.5701388" lon="11.11847"><ele>883.0</ele><time>2026-04-06T13:42:59.987Z</time></trkpt><trkpt lat="45.5699898" lon="11.1183446"><ele>885.0</ele><time>2026-04-06T13:43:00.986Z</time></trkpt><trkpt lat="45.5698388" lon="11.1182043"><ele>887.0</ele><time>2026-04-06T13:43:01.986Z</time></trkpt><trkpt lat="45.5696743" lon="11.1180537"><ele>885.6666666666667</ele><time>2026-04-06T13:43:02.986Z</time></trkpt><trkpt lat="45.5695114" lon="11.117905"><ele>884.3333333333333</ele><time>2026-04-06T13:43:03.987Z</time></trkpt><trkpt lat="45.5693487" lon="11.1177529"><ele>883.0</ele><time>2026-04-06T13:43:04.986Z</time></trkpt><trkpt lat="45.5691984" lon="11.117614"><ele>883.0</ele><time>2026-04-06T13:43:05.988Z</time></trkpt><trkpt lat="45.5690608" lon="11.1174858"><ele>883.0</ele><time>2026-04-06T13:43:06.986Z</time></trkpt><trkpt lat="45.5689258" lon="11.1173619"><ele>883.0</ele><time>2026-04-06T13:43:07.986Z</time></trkpt><trkpt lat="45.5687914" lon="11.1172534"><ele>877.25</ele><time>2026-04-06T13:43:08.988Z</time></trkpt><trkpt lat="45.5686535" lon="11.1171663"><ele>871.5</ele><time>2026-04-06T13:43:09.987Z</time></trkpt><trkpt lat="45.568515" lon="11.1171008"><ele>865.75</ele><time>2026-04-06T13:43:10.987Z</time></trkpt><trkpt lat="45.5683796" lon="11.1170603"><ele>860.0</ele><time>2026-04-06T13:43:11.985Z</time></trkpt><trkpt lat="45.5682525" lon="11.1170524"><ele>860.0</ele><time>2026-04-06T13:43:12.987Z</time></trkpt><trkpt lat="45.5681198" lon="11.1170814"><ele>860.0</ele><time>2026-04-06T13:43:13.985Z</time></trkpt><trkpt lat="45.5679793" lon="11.1171354"><ele>860.0</ele><time>2026-04-06T13:43:14.987Z</time></trkpt><trkpt lat="45.5678377" lon="11.1172205"><ele>860.0</ele><time>2026-04-06T13:43:15.975Z</time></trkpt><trkpt lat="45.5677063" lon="11.1173086"><ele>857.6</ele><time>2026-04-06T13:43:16.987Z</time></trkpt><trkpt lat="45.5675935" lon="11.1173797"><ele>855.2</ele><time>2026-04-06T13:43:17.988Z</time></trkpt><trkpt lat="45.5674898" lon="11.1174264"><ele>852.8</ele><time>2026-04-06T13:43:18.986Z</time></trkpt><trkpt lat="45.5673914" lon="11.1174636"><ele>850.4</ele><time>2026-04-06T13:43:19.975Z</time></trkpt><trkpt lat="45.567299" lon="11.1174188"><ele>848.0</ele><time>2026-04-06T13:43:20.976Z</time></trkpt><trkpt lat="45.5672067" lon="11.1173475"><ele>848.0</ele><time>2026-04-06T13:43:21.973Z</time></trkpt><trkpt lat="45.5671179" lon="11.1172557"><ele>848.0</ele><time>2026-04-06T13:43:22.971Z</time></trkpt><trkpt lat="45.5670336" lon="11.1171176"><ele>848.0</ele><time>2026-04-06T13:43:23.987Z</time></trkpt><trkpt lat="45.566939" lon="11.1170053"><ele>848.0</ele><time>2026-04-06T13:43:24.977Z</time></trkpt><trkpt lat="45.5668357" lon="11.116918"><ele>849.75</ele><time>2026-04-06T13:43:25.987Z</time></trkpt><trkpt lat="45.5667192" lon="11.1168582"><ele>851.5</ele><time>2026-04-06T13:43:26.987Z</time></trkpt><trkpt lat="45.5665849" lon="11.1168207"><ele>853.25</ele><time>2026-04-06T13:43:27.988Z</time></trkpt><trkpt lat="45.5664329" lon="11.1168016"><ele>855.0</ele><time>2026-04-06T13:43:28.987Z</time></trkpt><trkpt lat="45.566271" lon="11.1167974"><ele>854.0</ele><time>2026-04-06T13:43:29.986Z</time></trkpt><trkpt lat="45.5661154" lon="11.1167911"><ele>853.0</ele><time>2026-04-06T13:43:30.986Z</time></trkpt><trkpt lat="45.5659726" lon="11.1167866"><ele>852.0</ele><time>2026-04-06T13:43:31.987Z</time></trkpt><trkpt lat="45.5658399" lon="11.1167964"><ele>851.0</ele><time>2026-04-06T13:43:32.987Z</time></trkpt><trkpt lat="45.5657273" lon="11.1168431"><ele>851.0</ele><time>2026-04-06T13:43:33.985Z</time></trkpt><trkpt lat="45.5656226" lon="11.1169119"><ele>851.0</ele><time>2026-04-06T13:43:34.986Z</time></trkpt><trkpt lat="45.5655223" lon="11.1170049"><ele>851.0</ele><time>2026-04-06T13:43:35.987Z</time></trkpt><trkpt lat="45.5654156" lon="11.1170977"><ele>851.0</ele><time>2026-04-06T13:43:36.987Z</time></trkpt><trkpt lat="45.5653075" lon="11.1171539"><ele>847.5</ele><time>2026-04-06T13:43:37.974Z</time></trkpt><trkpt lat="45.5652038" lon="11.1171654"><ele>844.0</ele><time>2026-04-06T13:43:38.987Z</time></trkpt><trkpt lat="45.5650962" lon="11.1171288"><ele>840.5</ele><time>2026-04-06T13:43:39.986Z</time></trkpt><trkpt lat="45.5649722" lon="11.1170726"><ele>837.0</ele><time>2026-04-06T13:43:40.976Z</time></trkpt><trkpt lat="45.5648422" lon="11.1170004"><ele>837.0</ele><time>2026-04-06T13:43:41.986Z</time></trkpt><trkpt lat="45.5647168" lon="11.1169696"><ele>837.0</ele><time>2026-04-06T13:43:42.986Z</time></trkpt><trkpt lat="45.5646076" lon="11.116928"><ele>837.0</ele><time>2026-04-06T13:43:43.986Z</time></trkpt><trkpt lat="45.5645159" lon="11.1168977"><ele>837.0</ele><time>2026-04-06T13:43:44.986Z</time></trkpt><trkpt lat="45.5644334" lon="11.1168791"><ele>837.0</ele><time>2026-04-06T13:43:45.988Z</time></trkpt><trkpt lat="45.5643246" lon="11.1167929"><ele>837.0</ele><time>2026-04-06T13:43:47.986Z</time></trkpt><trkpt lat="45.5643246" lon="11.1166337"><ele>837.0</ele><time>2026-04-06T13:43:49.986Z</time></trkpt><trkpt lat="45.5644397" lon="11.1165485"><ele>837.0</ele><time>2026-04-06T13:43:51.987Z</time></trkpt><trkpt lat="45.5645315" lon="11.1165729"><ele>837.0</ele><time>2026-04-06T13:43:52.986Z</time></trkpt><trkpt lat="45.5646444" lon="11.1166357"><ele>837.0</ele><time>2026-04-06T13:43:53.986Z</time></trkpt><trkpt lat="45.5647576" lon="11.116709"><ele>837.0</ele><time>2026-04-06T13:43:54.987Z</time></trkpt><trkpt lat="45.5648742" lon="11.1167734"><ele>837.0</ele><time>2026-04-06T13:43:55.986Z</time></trkpt><trkpt lat="45.5649789" lon="11.1168217"><ele>837.0</ele><time>2026-04-06T13:43:56.985Z</time></trkpt><trkpt lat="45.5650864" lon="11.1168576"><ele>837.0</ele><time>2026-04-06T13:43:57.987Z</time></trkpt><trkpt lat="45.5651817" lon="11.1167734"><ele>837.0</ele><time>2026-04-06T13:43:58.987Z</time></trkpt><trkpt lat="45.5652723" lon="11.1166724"><ele>837.0</ele><time>2026-04-06T13:43:59.987Z</time></trkpt><trkpt lat="45.5653632" lon="11.1165102"><ele>837.0</ele><time>2026-04-06T13:44:00.987Z</time></trkpt><trkpt lat="45.5654578" lon="11.116323"><ele>834.0</ele><time>2026-04-06T13:44:01.974Z</time></trkpt><trkpt lat="45.5655539" lon="11.1160705"><ele>831.0</ele><time>2026-04-06T13:44:02.987Z</time></trkpt><trkpt lat="45.5656621" lon="11.1158297"><ele>828.0</ele><time>2026-04-06T13:44:03.985Z</time></trkpt><trkpt lat="45.5657774" lon="11.115568"><ele>823.0</ele><time>2026-04-06T13:44:04.986Z</time></trkpt><trkpt lat="45.5658998" lon="11.1153076"><ele>818.0</ele><time>2026-04-06T13:44:05.986Z</time></trkpt><trkpt lat="45.5660289" lon="11.1150691"><ele>813.0</ele><time>2026-04-06T13:44:06.985Z</time></trkpt><trkpt lat="45.5661592" lon="11.1148506"><ele>812.6666666666667</ele><time>2026-04-06T13:44:07.987Z</time></trkpt><trkpt lat="45.566285" lon="11.1146607"><ele>812.3333333333334</ele><time>2026-04-06T13:44:08.986Z</time></trkpt><trkpt lat="45.5663924" lon="11.1145043"><ele>812.0</ele><time>2026-04-06T13:44:09.986Z</time></trkpt><trkpt lat="45.5664782" lon="11.1143785"><ele>812.0</ele><time>2026-04-06T13:44:10.986Z</time></trkpt><trkpt lat="45.5665555" lon="11.1142562"><ele>812.0</ele><time>2026-04-06T13:44:11.987Z</time></trkpt><trkpt lat="45.5666173" lon="11.1141416"><ele>812.0</ele><time>2026-04-06T13:44:12.986Z</time></trkpt><trkpt lat="45.5666256" lon="11.1140044"><ele>812.0</ele><time>2026-04-06T13:44:13.986Z</time></trkpt><trkpt lat="45.5666317" lon="11.1138647"><ele>812.0</ele><time>2026-04-06T13:44:14.986Z</time></trkpt><trkpt lat="45.5665884" lon="11.1137087"><ele>810.5</ele><time>2026-04-06T13:44:15.985Z</time></trkpt><trkpt lat="45.5664944" lon="11.1135782"><ele>809.0</ele><time>2026-04-06T13:44:16.987Z</time></trkpt><trkpt lat="45.5663899" lon="11.1134677"><ele>807.5</ele><time>2026-04-06T13:44:17.987Z</time></trkpt><trkpt lat="45.5662571" lon="11.1133882"><ele>806.0</ele><time>2026-04-06T13:44:18.986Z</time></trkpt><trkpt lat="45.5661145" lon="11.1133253"><ele>805.75</ele><time>2026-04-06T13:44:19.987Z</time></trkpt><trkpt lat="45.5659808" lon="11.1132822"><ele>805.5</ele><time>2026-04-06T13:44:20.987Z</time></trkpt><trkpt lat="45.5658606" lon="11.1132513"><ele>805.25</ele><time>2026-04-06T13:44:21.986Z</time></trkpt><trkpt lat="45.5657495" lon="11.1132526"><ele>805.0</ele><time>2026-04-06T13:44:22.987Z</time></trkpt><trkpt lat="45.5656554" lon="11.113267"><ele>804.9999999999999</ele><time>2026-04-06T13:44:23.987Z</time></trkpt><trkpt lat="45.5655948" lon="11.1133235"><ele>805.0</ele><time>2026-04-06T13:44:24.987Z</time></trkpt><trkpt lat="45.565538" lon="11.1133794"><ele>805.0</ele><time>2026-04-06T13:44:25.986Z</time></trkpt><trkpt lat="45.5655081" lon="11.1134814"><ele>805.0</ele><time>2026-04-06T13:44:26.988Z</time></trkpt><trkpt lat="45.5654769" lon="11.1135953"><ele>804.9999999999999</ele><time>2026-04-06T13:44:27.985Z</time></trkpt><trkpt lat="45.5654547" lon="11.1137406"><ele>805.0</ele><time>2026-04-06T13:44:28.986Z</time></trkpt><trkpt lat="45.5654414" lon="11.1138995"><ele>805.0</ele><time>2026-04-06T13:44:29.986Z</time></trkpt><trkpt lat="45.5654284" lon="11.1140543"><ele>805.0</ele><time>2026-04-06T13:44:30.986Z</time></trkpt><trkpt lat="45.5654594" lon="11.1142214"><ele>805.0</ele><time>2026-04-06T13:44:31.987Z</time></trkpt><trkpt lat="45.5654842" lon="11.1143717"><ele>805.0</ele><time>2026-04-06T13:44:32.987Z</time></trkpt><trkpt lat="45.5654975" lon="11.1144988"><ele>805.0</ele><time>2026-04-06T13:44:33.987Z</time></trkpt><trkpt lat="45.5654925" lon="11.1146563"><ele>806.25</ele><time>2026-04-06T13:44:34.986Z</time></trkpt><trkpt lat="45.5654673" lon="11.1148056"><ele>807.5</ele><time>2026-04-06T13:44:35.985Z</time></trkpt><trkpt lat="45.5654137" lon="11.1149601"><ele>808.75</ele><time>2026-04-06T13:44:36.986Z</time></trkpt><trkpt lat="45.5653368" lon="11.1151354"><ele>810.0</ele><time>2026-04-06T13:44:37.986Z</time></trkpt><trkpt lat="45.5652494" lon="11.1153295"><ele>811.2</ele><time>2026-04-06T13:44:38.987Z</time></trkpt><trkpt lat="45.5651764" lon="11.1154847"><ele>812.4</ele><time>2026-04-06T13:44:39.985Z</time></trkpt><trkpt lat="45.5651061" lon="11.1156127"><ele>813.5999999999999</ele><time>2026-04-06T13:44:40.987Z</time></trkpt><trkpt lat="45.5650282" lon="11.115701"><ele>814.8</ele><time>2026-04-06T13:44:41.985Z</time></trkpt><trkpt lat="45.5649425" lon="11.115745"><ele>816.0</ele><time>2026-04-06T13:44:42.986Z</time></trkpt><trkpt lat="45.5648504" lon="11.1157432"><ele>811.25</ele><time>2026-04-06T13:44:43.974Z</time></trkpt><trkpt lat="45.5647542" lon="11.1156978"><ele>806.5</ele><time>2026-04-06T13:44:44.985Z</time></trkpt><trkpt lat="45.5646565" lon="11.115585"><ele>801.75</ele><time>2026-04-06T13:44:45.973Z</time></trkpt><trkpt lat="45.5645552" lon="11.1154842"><ele>797.0</ele><time>2026-04-06T13:44:46.987Z</time></trkpt><trkpt lat="45.564451" lon="11.1153901"><ele>794.0</ele><time>2026-04-06T13:44:47.986Z</time></trkpt><trkpt lat="45.5643452" lon="11.1153423"><ele>791.0</ele><time>2026-04-06T13:44:48.986Z</time></trkpt><trkpt lat="45.5642526" lon="11.1153719"><ele>788.0</ele><time>2026-04-06T13:44:49.988Z</time></trkpt><trkpt lat="45.5641467" lon="11.1154262"><ele>785.0</ele><time>2026-04-06T13:44:50.985Z</time></trkpt><trkpt lat="45.5640295" lon="11.1155278"><ele>785.0</ele><time>2026-04-06T13:44:51.987Z</time></trkpt><trkpt lat="45.5639244" lon="11.1156452"><ele>785.0</ele><time>2026-04-06T13:44:52.986Z</time></trkpt><trkpt lat="45.5638347" lon="11.1157384"><ele>785.0</ele><time>2026-04-06T13:44:53.986Z</time></trkpt><trkpt lat="45.5637472" lon="11.1158002"><ele>785.0</ele><time>2026-04-06T13:44:54.971Z</time></trkpt><trkpt lat="45.5636685" lon="11.1158128"><ele>785.0</ele><time>2026-04-06T13:44:55.986Z</time></trkpt><trkpt lat="45.5635963" lon="11.1157913"><ele>787.5</ele><time>2026-04-06T13:44:56.986Z</time></trkpt><trkpt lat="45.5635482" lon="11.115687"><ele>790.0</ele><time>2026-04-06T13:44:57.988Z</time></trkpt><trkpt lat="45.5635114" lon="11.1155539"><ele>792.5</ele><time>2026-04-06T13:44:58.986Z</time></trkpt><trkpt lat="45.5634783" lon="11.1153737"><ele>795.0</ele><time>2026-04-06T13:44:59.987Z</time></trkpt><trkpt lat="45.5634437" lon="11.1151762"><ele>795.0</ele><time>2026-04-06T13:45:00.988Z</time></trkpt><trkpt lat="45.5633737" lon="11.1149582"><ele>795.0</ele><time>2026-04-06T13:45:01.985Z</time></trkpt><trkpt lat="45.5632985" lon="11.1147506"><ele>795.0</ele><time>2026-04-06T13:45:02.987Z</time></trkpt><trkpt lat="45.563203" lon="11.1145526"><ele>793.6666666666667</ele><time>2026-04-06T13:45:03.987Z</time></trkpt><trkpt lat="45.5630959" lon="11.1143802"><ele>792.3333333333334</ele><time>2026-04-06T13:45:04.986Z</time></trkpt><trkpt lat="45.5629845" lon="11.1142258"><ele>791.0</ele><time>2026-04-06T13:45:05.988Z</time></trkpt><trkpt lat="45.5628496" lon="11.1140983"><ele>787.25</ele><time>2026-04-06T13:45:06.985Z</time></trkpt><trkpt lat="45.5627227" lon="11.113992"><ele>783.5</ele><time>2026-04-06T13:45:07.987Z</time></trkpt><trkpt lat="45.5625993" lon="11.1139148"><ele>779.75</ele><time>2026-04-06T13:45:08.987Z</time></trkpt><trkpt lat="45.5624764" lon="11.1138676"><ele>776.0</ele><time>2026-04-06T13:45:09.986Z</time></trkpt><trkpt lat="45.5623464" lon="11.1138686"><ele>776.0</ele><time>2026-04-06T13:45:10.987Z</time></trkpt><trkpt lat="45.5622183" lon="11.1139063"><ele>776.0</ele><time>2026-04-06T13:45:11.987Z</time></trkpt><trkpt lat="45.5621015" lon="11.113985"><ele>776.0</ele><time>2026-04-06T13:45:12.985Z</time></trkpt><trkpt lat="45.5620056" lon="11.1141264"><ele>776.0</ele><time>2026-04-06T13:45:13.986Z</time></trkpt><trkpt lat="45.561912" lon="11.1142956"><ele>777.6666666666667</ele><time>2026-04-06T13:45:14.987Z</time></trkpt><trkpt lat="45.5618325" lon="11.1145166"><ele>779.3333333333333</ele><time>2026-04-06T13:45:15.987Z</time></trkpt><trkpt lat="45.5617674" lon="11.1147655"><ele>781.0</ele><time>2026-04-06T13:45:16.987Z</time></trkpt><trkpt lat="45.5617237" lon="11.1150285"><ele>782.0</ele><time>2026-04-06T13:45:17.986Z</time></trkpt><trkpt lat="45.5617082" lon="11.1152866"><ele>783.0</ele><time>2026-04-06T13:45:18.987Z</time></trkpt><trkpt lat="45.5617071" lon="11.1155469"><ele>784.0</ele><time>2026-04-06T13:45:19.987Z</time></trkpt><trkpt lat="45.5617255" lon="11.1158108"><ele>784.0</ele><time>2026-04-06T13:45:20.986Z</time></trkpt><trkpt lat="45.5617673" lon="11.1160711"><ele>784.0</ele><time>2026-04-06T13:45:21.988Z</time></trkpt><trkpt lat="45.5618094" lon="11.1162922"><ele>784.0</ele><time>2026-04-06T13:45:22.987Z</time></trkpt><trkpt lat="45.5618464" lon="11.1164826"><ele>783.2</ele><time>2026-04-06T13:45:23.986Z</time></trkpt><trkpt lat="45.5618747" lon="11.1166435"><ele>782.4000000000001</ele><time>2026-04-06T13:45:24.986Z</time></trkpt><trkpt lat="45.5618825" lon="11.1167899"><ele>781.6</ele><time>2026-04-06T13:45:25.988Z</time></trkpt><trkpt lat="45.5618738" lon="11.1169256"><ele>780.8</ele><time>2026-04-06T13:45:26.987Z</time></trkpt><trkpt lat="45.5618275" lon="11.1170415"><ele>780.0</ele><time>2026-04-06T13:45:27.988Z</time></trkpt><trkpt lat="45.5617621" lon="11.1171302"><ele>780.0</ele><time>2026-04-06T13:45:28.985Z</time></trkpt><trkpt lat="45.5616613" lon="11.1171827"><ele>780.0</ele><time>2026-04-06T13:45:29.978Z</time></trkpt><trkpt lat="45.561569" lon="11.1172295"><ele>780.0</ele><time>2026-04-06T13:45:30.986Z</time></trkpt><trkpt lat="45.5614204" lon="11.1171989"><ele>780.0</ele><time>2026-04-06T13:45:31.987Z</time></trkpt><trkpt lat="45.5612544" lon="11.1171761"><ele>777.6666666666667</ele><time>2026-04-06T13:45:32.972Z</time></trkpt><trkpt lat="45.561089" lon="11.1171427"><ele>775.3333333333334</ele><time>2026-04-06T13:45:33.986Z</time></trkpt><trkpt lat="45.5609255" lon="11.1171121"><ele>773.0</ele><time>2026-04-06T13:45:34.985Z</time></trkpt><trkpt lat="45.5607728" lon="11.117041"><ele>773.0</ele><time>2026-04-06T13:45:35.986Z</time></trkpt><trkpt lat="45.5606413" lon="11.1169422"><ele>773.0</ele><time>2026-04-06T13:45:36.974Z</time></trkpt><trkpt lat="45.5605048" lon="11.1167981"><ele>773.0</ele><time>2026-04-06T13:45:37.975Z</time></trkpt><trkpt lat="45.5603636" lon="11.1166493"><ele>769.6666666666667</ele><time>2026-04-06T13:45:38.975Z</time></trkpt><trkpt lat="45.5602343" lon="11.1165166"><ele>766.3333333333334</ele><time>2026-04-06T13:45:39.976Z</time></trkpt><trkpt lat="45.560112" lon="11.1163943"><ele>763.0</ele><time>2026-04-06T13:45:40.987Z</time></trkpt><trkpt lat="45.5599946" lon="11.1162708"><ele>763.0</ele><time>2026-04-06T13:45:41.986Z</time></trkpt><trkpt lat="45.559887" lon="11.1162168"><ele>763.0</ele><time>2026-04-06T13:45:42.985Z</time></trkpt><trkpt lat="45.5597825" lon="11.1161806"><ele>763.0</ele><time>2026-04-06T13:45:43.985Z</time></trkpt><trkpt lat="45.5596662" lon="11.1161721"><ele>763.0</ele><time>2026-04-06T13:45:44.987Z</time></trkpt><trkpt lat="45.5595604" lon="11.1161864"><ele>763.0</ele><time>2026-04-06T13:45:45.987Z</time></trkpt><trkpt lat="45.5594542" lon="11.1161879"><ele>763.75</ele><time>2026-04-06T13:45:46.986Z</time></trkpt><trkpt lat="45.5593688" lon="11.1161128"><ele>764.5</ele><time>2026-04-06T13:45:47.986Z</time></trkpt><trkpt lat="45.5592852" lon="11.1160178"><ele>765.25</ele><time>2026-04-06T13:45:48.985Z</time></trkpt><trkpt lat="45.5592187" lon="11.1158808"><ele>766.0</ele><time>2026-04-06T13:45:49.986Z</time></trkpt><trkpt lat="45.5591605" lon="11.1157103"><ele>766.0</ele><time>2026-04-06T13:45:50.987Z</time></trkpt><trkpt lat="45.5591159" lon="11.1155396"><ele>766.0</ele><time>2026-04-06T13:45:51.985Z</time></trkpt><trkpt lat="45.5590493" lon="11.1153747"><ele>766.0</ele><time>2026-04-06T13:45:52.987Z</time></trkpt><trkpt lat="45.5589791" lon="11.1152471"><ele>766.0</ele><time>2026-04-06T13:45:53.988Z</time></trkpt><trkpt lat="45.5588807" lon="11.1151552"><ele>766.0</ele><time>2026-04-06T13:45:54.986Z</time></trkpt><trkpt lat="45.5587771" lon="11.1150876"><ele>766.0</ele><time>2026-04-06T13:45:55.986Z</time></trkpt><trkpt lat="45.5586418" lon="11.115085"><ele>766.0</ele><time>2026-04-06T13:45:56.986Z</time></trkpt><trkpt lat="45.5584869" lon="11.1151135"><ele>766.0</ele><time>2026-04-06T13:45:57.986Z</time></trkpt><trkpt lat="45.5583118" lon="11.1151735"><ele>765.6666666666667</ele><time>2026-04-06T13:45:58.986Z</time></trkpt><trkpt lat="45.558146" lon="11.1152308"><ele>765.3333333333334</ele><time>2026-04-06T13:45:59.985Z</time></trkpt><trkpt lat="45.5579871" lon="11.115289"><ele>765.0</ele><time>2026-04-06T13:46:00.986Z</time></trkpt><trkpt lat="45.5578521" lon="11.1153426"><ele>764.25</ele><time>2026-04-06T13:46:01.988Z</time></trkpt><trkpt lat="45.5577329" lon="11.1154052"><ele>763.5</ele><time>2026-04-06T13:46:02.987Z</time></trkpt><trkpt lat="45.5576325" lon="11.1154891"><ele>762.75</ele><time>2026-04-06T13:46:03.986Z</time></trkpt><trkpt lat="45.5575613" lon="11.11561"><ele>762.0</ele><time>2026-04-06T13:46:04.986Z</time></trkpt><trkpt lat="45.5575094" lon="11.1157635"><ele>762.0</ele><time>2026-04-06T13:46:05.986Z</time></trkpt><trkpt lat="45.5574674" lon="11.115919"><ele>762.0</ele><time>2026-04-06T13:46:06.986Z</time></trkpt><trkpt lat="45.5574063" lon="11.1160648"><ele>762.0</ele><time>2026-04-06T13:46:07.986Z</time></trkpt><trkpt lat="45.5573146" lon="11.1161759"><ele>762.0</ele><time>2026-04-06T13:46:08.988Z</time></trkpt><trkpt lat="45.557194" lon="11.1162689"><ele>762.0</ele><time>2026-04-06T13:46:09.986Z</time></trkpt><trkpt lat="45.5570536" lon="11.11636"><ele>762.0</ele><time>2026-04-06T13:46:10.986Z</time></trkpt><trkpt lat="45.5569171" lon="11.1164604"><ele>762.0</ele><time>2026-04-06T13:46:11.985Z</time></trkpt><trkpt lat="45.5568053" lon="11.1165773"><ele>762.0</ele><time>2026-04-06T13:46:12.987Z</time></trkpt><trkpt lat="45.5567062" lon="11.116727"><ele>759.6666666666666</ele><time>2026-04-06T13:46:13.985Z</time></trkpt><trkpt lat="45.5566167" lon="11.1169041"><ele>757.3333333333333</ele><time>2026-04-06T13:46:14.986Z</time></trkpt><trkpt lat="45.5565313" lon="11.117088"><ele>755.0</ele><time>2026-04-06T13:46:15.986Z</time></trkpt><trkpt lat="45.5564381" lon="11.11725"><ele>755.0</ele><time>2026-04-06T13:46:16.985Z</time></trkpt><trkpt lat="45.5563164" lon="11.1173871"><ele>755.0</ele><time>2026-04-06T13:46:17.987Z</time></trkpt><trkpt lat="45.5561695" lon="11.1174898"><ele>755.0</ele><time>2026-04-06T13:46:18.987Z</time></trkpt><trkpt lat="45.5560224" lon="11.1175808"><ele>753.5</ele><time>2026-04-06T13:46:19.986Z</time></trkpt><trkpt lat="45.55588" lon="11.11766"><ele>752.0</ele><time>2026-04-06T13:46:20.987Z</time></trkpt><trkpt lat="45.5557412" lon="11.1177393"><ele>750.5</ele><time>2026-04-06T13:46:21.987Z</time></trkpt><trkpt lat="45.5556049" lon="11.117814"><ele>749.0</ele><time>2026-04-06T13:46:22.986Z</time></trkpt><trkpt lat="45.5554668" lon="11.1178626"><ele>745.75</ele><time>2026-04-06T13:46:23.988Z</time></trkpt><trkpt lat="45.5553312" lon="11.1178751"><ele>742.5</ele><time>2026-04-06T13:46:24.986Z</time></trkpt><trkpt lat="45.5551865" lon="11.1178697"><ele>739.25</ele><time>2026-04-06T13:46:25.987Z</time></trkpt><trkpt lat="45.5550463" lon="11.1178705"><ele>736.0</ele><time>2026-04-06T13:46:26.985Z</time></trkpt><trkpt lat="45.5549059" lon="11.1178682"><ele>736.0</ele><time>2026-04-06T13:46:27.986Z</time></trkpt><trkpt lat="45.5547626" lon="11.1178637"><ele>736.0</ele><time>2026-04-06T13:46:28.986Z</time></trkpt><trkpt lat="45.5546145" lon="11.1178672"><ele>736.0</ele><time>2026-04-06T13:46:29.988Z</time></trkpt><trkpt lat="45.5544592" lon="11.1178621"><ele>736.0</ele><time>2026-04-06T13:46:30.987Z</time></trkpt><trkpt lat="45.554301" lon="11.1178538"><ele>734.3333333333334</ele><time>2026-04-06T13:46:31.986Z</time></trkpt><trkpt lat="45.5541445" lon="11.1178254"><ele>732.6666666666666</ele><time>2026-04-06T13:46:32.987Z</time></trkpt><trkpt lat="45.5539889" lon="11.1177913"><ele>731.0</ele><time>2026-04-06T13:46:33.986Z</time></trkpt><trkpt lat="45.5538301" lon="11.1177479"><ele>730.6666666666666</ele><time>2026-04-06T13:46:34.986Z</time></trkpt><trkpt lat="45.5536698" lon="11.1176949"><ele>730.3333333333334</ele><time>2026-04-06T13:46:35.988Z</time></trkpt><trkpt lat="45.5535164" lon="11.1176437"><ele>730.0</ele><time>2026-04-06T13:46:36.985Z</time></trkpt><trkpt lat="45.5533652" lon="11.1175959"><ele>730.0</ele><time>2026-04-06T13:46:37.987Z</time></trkpt><trkpt lat="45.5532339" lon="11.117549"><ele>730.0</ele><time>2026-04-06T13:46:38.986Z</time></trkpt><trkpt lat="45.553108" lon="11.1174887"><ele>730.0</ele><time>2026-04-06T13:46:39.987Z</time></trkpt><trkpt lat="45.5530033" lon="11.1173765"><ele>730.0</ele><time>2026-04-06T13:46:40.985Z</time></trkpt><trkpt lat="45.5529008" lon="11.1172392"><ele>727.5</ele><time>2026-04-06T13:46:41.988Z</time></trkpt><trkpt lat="45.5527925" lon="11.1170872"><ele>725.0</ele><time>2026-04-06T13:46:42.987Z</time></trkpt><trkpt lat="45.5527111" lon="11.1169466"><ele>722.5</ele><time>2026-04-06T13:46:43.986Z</time></trkpt><trkpt lat="45.5526321" lon="11.1168196"><ele>720.0</ele><time>2026-04-06T13:46:44.987Z</time></trkpt><trkpt lat="45.5525571" lon="11.1167093"><ele>720.0</ele><time>2026-04-06T13:46:45.987Z</time></trkpt><trkpt lat="45.5524801" lon="11.1166265"><ele>720.0</ele><time>2026-04-06T13:46:46.987Z</time></trkpt><trkpt lat="45.5523985" lon="11.1165909"><ele>720.0</ele><time>2026-04-06T13:46:47.987Z</time></trkpt><trkpt lat="45.5523106" lon="11.1165993"><ele>720.0</ele><time>2026-04-06T13:46:48.988Z</time></trkpt><trkpt lat="45.5522144" lon="11.1166453"><ele>720.0</ele><time>2026-04-06T13:46:49.986Z</time></trkpt><trkpt lat="45.552118" lon="11.1167685"><ele>717.25</ele><time>2026-04-06T13:46:50.986Z</time></trkpt><trkpt lat="45.5520255" lon="11.1169279"><ele>714.5</ele><time>2026-04-06T13:46:51.985Z</time></trkpt><trkpt lat="45.5519559" lon="11.1171085"><ele>711.75</ele><time>2026-04-06T13:46:52.988Z</time></trkpt><trkpt lat="45.5519046" lon="11.1173223"><ele>709.0</ele><time>2026-04-06T13:46:53.986Z</time></trkpt><trkpt lat="45.5518796" lon="11.1175654"><ele>708.3333333333334</ele><time>2026-04-06T13:46:54.988Z</time></trkpt><trkpt lat="45.5518745" lon="11.1178281"><ele>707.6666666666666</ele><time>2026-04-06T13:46:55.985Z</time></trkpt><trkpt lat="45.5518774" lon="11.1181176"><ele>707.0</ele><time>2026-04-06T13:46:56.986Z</time></trkpt><trkpt lat="45.5518791" lon="11.1183755"><ele>706.5</ele><time>2026-04-06T13:46:57.986Z</time></trkpt><trkpt lat="45.5518788" lon="11.1185927"><ele>706.0</ele><time>2026-04-06T13:46:58.986Z</time></trkpt><trkpt lat="45.5518616" lon="11.1187899"><ele>705.5</ele><time>2026-04-06T13:46:59.987Z</time></trkpt><trkpt lat="45.5518206" lon="11.118995"><ele>705.0</ele><time>2026-04-06T13:47:00.986Z</time></trkpt><trkpt lat="45.5517462" lon="11.1191975"><ele>705.0</ele><time>2026-04-06T13:47:01.986Z</time></trkpt><trkpt lat="45.5516528" lon="11.1194134"><ele>705.0</ele><time>2026-04-06T13:47:02.985Z</time></trkpt><trkpt lat="45.5515624" lon="11.1196221"><ele>705.0</ele><time>2026-04-06T13:47:03.988Z</time></trkpt><trkpt lat="45.5514688" lon="11.1198161"><ele>705.6666666666666</ele><time>2026-04-06T13:47:04.987Z</time></trkpt><trkpt lat="45.551363" lon="11.1199848"><ele>706.3333333333333</ele><time>2026-04-06T13:47:05.986Z</time></trkpt><trkpt lat="45.5512357" lon="11.1201325"><ele>707.0</ele><time>2026-04-06T13:47:06.986Z</time></trkpt><trkpt lat="45.5510954" lon="11.1202388"><ele>703.0</ele><time>2026-04-06T13:47:07.986Z</time></trkpt><trkpt lat="45.550931" lon="11.1203323"><ele>699.0</ele><time>2026-04-06T13:47:08.986Z</time></trkpt><trkpt lat="45.5507505" lon="11.1204183"><ele>695.0</ele><time>2026-04-06T13:47:09.986Z</time></trkpt><trkpt lat="45.5505635" lon="11.1204935"><ele>691.0</ele><time>2026-04-06T13:47:10.985Z</time></trkpt><trkpt lat="45.5503629" lon="11.1205692"><ele>687.0</ele><time>2026-04-06T13:47:11.986Z</time></trkpt><trkpt lat="45.5501522" lon="11.120652"><ele>683.0</ele><time>2026-04-06T13:47:12.986Z</time></trkpt><trkpt lat="45.5499415" lon="11.1207313"><ele>683.0</ele><time>2026-04-06T13:47:13.987Z</time></trkpt><trkpt lat="45.5497332" lon="11.1208"><ele>683.0</ele><time>2026-04-06T13:47:14.987Z</time></trkpt><trkpt lat="45.5495376" lon="11.1208772"><ele>683.0</ele><time>2026-04-06T13:47:15.987Z</time></trkpt><trkpt lat="45.5493462" lon="11.1209511"><ele>683.0</ele><time>2026-04-06T13:47:16.987Z</time></trkpt><trkpt lat="45.5491636" lon="11.121026"><ele>683.0</ele><time>2026-04-06T13:47:17.985Z</time></trkpt><trkpt lat="45.5489821" lon="11.121094"><ele>683.0</ele><time>2026-04-06T13:47:18.986Z</time></trkpt><trkpt lat="45.5488086" lon="11.12116"><ele>682.3333333333333</ele><time>2026-04-06T13:47:19.986Z</time></trkpt><trkpt lat="45.5486381" lon="11.1212245"><ele>681.6666666666666</ele><time>2026-04-06T13:47:20.986Z</time></trkpt><trkpt lat="45.5484673" lon="11.1212897"><ele>681.0</ele><time>2026-04-06T13:47:21.988Z</time></trkpt><trkpt lat="45.5483027" lon="11.1213527"><ele>681.0</ele><time>2026-04-06T13:47:22.986Z</time></trkpt><trkpt lat="45.548139" lon="11.1214143"><ele>681.0</ele><time>2026-04-06T13:47:23.986Z</time></trkpt><trkpt lat="45.5479829" lon="11.1214769"><ele>681.0</ele><time>2026-04-06T13:47:24.985Z</time></trkpt><trkpt lat="45.5478304" lon="11.1215372"><ele>679.3333333333334</ele><time>2026-04-06T13:47:25.987Z</time></trkpt><trkpt lat="45.5476743" lon="11.121592"><ele>677.6666666666667</ele><time>2026-04-06T13:47:26.988Z</time></trkpt><trkpt lat="45.5475099" lon="11.1216566"><ele>676.0</ele><time>2026-04-06T13:47:27.986Z</time></trkpt><trkpt lat="45.5473371" lon="11.1217246"><ele>676.0</ele><time>2026-04-06T13:47:28.987Z</time></trkpt><trkpt lat="45.5471659" lon="11.1217996"><ele>676.0</ele><time>2026-04-06T13:47:29.986Z</time></trkpt><trkpt lat="45.5469915" lon="11.1218644"><ele>676.0</ele><time>2026-04-06T13:47:30.986Z</time></trkpt><trkpt lat="45.5468144" lon="11.1219322"><ele>674.0</ele><time>2026-04-06T13:47:31.985Z</time></trkpt><trkpt lat="45.5466292" lon="11.1220017"><ele>672.0</ele><time>2026-04-06T13:47:32.986Z</time></trkpt><trkpt lat="45.5464461" lon="11.1220678"><ele>670.0</ele><time>2026-04-06T13:47:33.985Z</time></trkpt><trkpt lat="45.5462695" lon="11.1221309"><ele>665.6666666666667</ele><time>2026-04-06T13:47:34.986Z</time></trkpt><trkpt lat="45.5461085" lon="11.1221904"><ele>661.3333333333334</ele><time>2026-04-06T13:47:35.986Z</time></trkpt><trkpt lat="45.545953" lon="11.1222496"><ele>657.0</ele><time>2026-04-06T13:47:36.987Z</time></trkpt><trkpt lat="45.5458062" lon="11.1223131"><ele>660.0</ele><time>2026-04-06T13:47:37.988Z</time></trkpt><trkpt lat="45.5456651" lon="11.1224025"><ele>663.0</ele><time>2026-04-06T13:47:38.987Z</time></trkpt><trkpt lat="45.5455262" lon="11.1225263"><ele>666.0</ele><time>2026-04-06T13:47:39.987Z</time></trkpt><trkpt lat="45.5453851" lon="11.1226817"><ele>661.0</ele><time>2026-04-06T13:47:40.986Z</time></trkpt><trkpt lat="45.5452508" lon="11.1228448"><ele>656.0</ele><time>2026-04-06T13:47:41.986Z</time></trkpt><trkpt lat="45.5451176" lon="11.1230067"><ele>651.0</ele><time>2026-04-06T13:47:42.985Z</time></trkpt><trkpt lat="45.5449934" lon="11.1231547"><ele>652.25</ele><time>2026-04-06T13:47:43.988Z</time></trkpt><trkpt lat="45.5448876" lon="11.123284"><ele>653.5</ele><time>2026-04-06T13:47:44.986Z</time></trkpt><trkpt lat="45.5447914" lon="11.1234077"><ele>654.75</ele><time>2026-04-06T13:47:45.986Z</time></trkpt><trkpt lat="45.5447119" lon="11.1235269"><ele>656.0</ele><time>2026-04-06T13:47:46.988Z</time></trkpt><trkpt lat="45.5446473" lon="11.123653"><ele>656.0</ele><time>2026-04-06T13:47:47.985Z</time></trkpt><trkpt lat="45.5446091" lon="11.1237953"><ele>656.0</ele><time>2026-04-06T13:47:48.986Z</time></trkpt><trkpt lat="45.5445948" lon="11.1239426"><ele>656.0</ele><time>2026-04-06T13:47:49.986Z</time></trkpt><trkpt lat="45.5446179" lon="11.1241152"><ele>656.0</ele><time>2026-04-06T13:47:50.986Z</time></trkpt><trkpt lat="45.5446612" lon="11.124289"><ele>655.75</ele><time>2026-04-06T13:47:51.986Z</time></trkpt><trkpt lat="45.5447281" lon="11.12447"><ele>655.5</ele><time>2026-04-06T13:47:52.986Z</time></trkpt><trkpt lat="45.544808" lon="11.1246471"><ele>655.25</ele><time>2026-04-06T13:47:53.987Z</time></trkpt><trkpt lat="45.5448873" lon="11.1248153"><ele>655.0</ele><time>2026-04-06T13:47:54.987Z</time></trkpt><trkpt lat="45.544959" lon="11.1249734"><ele>654.0</ele><time>2026-04-06T13:47:55.987Z</time></trkpt><trkpt lat="45.5450205" lon="11.125136"><ele>653.0</ele><time>2026-04-06T13:47:56.986Z</time></trkpt><trkpt lat="45.5450581" lon="11.1253037"><ele>652.0</ele><time>2026-04-06T13:47:57.987Z</time></trkpt><trkpt lat="45.5450743" lon="11.1254687"><ele>651.0</ele><time>2026-04-06T13:47:58.985Z</time></trkpt><trkpt lat="45.5450751" lon="11.1256333"><ele>650.25</ele><time>2026-04-06T13:47:59.987Z</time></trkpt><trkpt lat="45.5450586" lon="11.1258091"><ele>649.5</ele><time>2026-04-06T13:48:00.986Z</time></trkpt><trkpt lat="45.5450217" lon="11.1259755"><ele>648.75</ele><time>2026-04-06T13:48:01.987Z</time></trkpt><trkpt lat="45.5449792" lon="11.1261387"><ele>648.0</ele><time>2026-04-06T13:48:02.987Z</time></trkpt><trkpt lat="45.5448958" lon="11.1262832"><ele>648.0</ele><time>2026-04-06T13:48:03.987Z</time></trkpt><trkpt lat="45.5447931" lon="11.1264358"><ele>648.0</ele><time>2026-04-06T13:48:04.987Z</time></trkpt><trkpt lat="45.5446848" lon="11.1265581"><ele>648.0</ele><time>2026-04-06T13:48:05.986Z</time></trkpt><trkpt lat="45.5445508" lon="11.12663"><ele>648.0</ele><time>2026-04-06T13:48:06.987Z</time></trkpt><trkpt lat="45.544408" lon="11.1266973"><ele>647.3333333333334</ele><time>2026-04-06T13:48:07.985Z</time></trkpt><trkpt lat="45.5442604" lon="11.1267636"><ele>646.6666666666667</ele><time>2026-04-06T13:48:08.985Z</time></trkpt><trkpt lat="45.5441066" lon="11.1268331"><ele>646.0</ele><time>2026-04-06T13:48:09.988Z</time></trkpt><trkpt lat="45.5439509" lon="11.1269093"><ele>646.0</ele><time>2026-04-06T13:48:10.986Z</time></trkpt><trkpt lat="45.5437838" lon="11.1269829"><ele>646.0</ele><time>2026-04-06T13:48:11.987Z</time></trkpt><trkpt lat="45.5436195" lon="11.1270495"><ele>646.0</ele><time>2026-04-06T13:48:12.986Z</time></trkpt><trkpt lat="45.543472" lon="11.1271093"><ele>646.5</ele><time>2026-04-06T13:48:13.986Z</time></trkpt><trkpt lat="45.5433421" lon="11.1271603"><ele>647.0</ele><time>2026-04-06T13:48:14.987Z</time></trkpt><trkpt lat="45.5432323" lon="11.1272305"><ele>647.5</ele><time>2026-04-06T13:48:15.985Z</time></trkpt><trkpt lat="45.5431406" lon="11.1273262"><ele>648.0</ele><time>2026-04-06T13:48:16.987Z</time></trkpt><trkpt lat="45.5430607" lon="11.1274599"><ele>648.0</ele><time>2026-04-06T13:48:17.986Z</time></trkpt><trkpt lat="45.542992" lon="11.1276343"><ele>648.0</ele><time>2026-04-06T13:48:18.986Z</time></trkpt><trkpt lat="45.5429345" lon="11.1278491"><ele>648.0</ele><time>2026-04-06T13:48:19.985Z</time></trkpt><trkpt lat="45.542889" lon="11.1280691"><ele>644.5</ele><time>2026-04-06T13:48:20.986Z</time></trkpt><trkpt lat="45.5428414" lon="11.1282793"><ele>641.0</ele><time>2026-04-06T13:48:21.986Z</time></trkpt><trkpt lat="45.542787" lon="11.1284588"><ele>637.5</ele><time>2026-04-06T13:48:22.987Z</time></trkpt><trkpt lat="45.5426926" lon="11.1285996"><ele>634.0</ele><time>2026-04-06T13:48:23.985Z</time></trkpt><trkpt lat="45.5425824" lon="11.1287219"><ele>634.0</ele><time>2026-04-06T13:48:24.988Z</time></trkpt><trkpt lat="45.5424512" lon="11.1288052"><ele>634.0</ele><time>2026-04-06T13:48:25.987Z</time></trkpt><trkpt lat="45.5422963" lon="11.1288604"><ele>634.0</ele><time>2026-04-06T13:48:26.987Z</time></trkpt><trkpt lat="45.5421211" lon="11.1289102"><ele>635.6666666666667</ele><time>2026-04-06T13:48:27.985Z</time></trkpt><trkpt lat="45.5419277" lon="11.1289679"><ele>637.3333333333334</ele><time>2026-04-06T13:48:28.988Z</time></trkpt><trkpt lat="45.5417434" lon="11.1290242"><ele>639.0</ele><time>2026-04-06T13:48:29.987Z</time></trkpt><trkpt lat="45.5415638" lon="11.1290707"><ele>639.0</ele><time>2026-04-06T13:48:30.988Z</time></trkpt><trkpt lat="45.5414001" lon="11.1290997"><ele>639.0</ele><time>2026-04-06T13:48:31.987Z</time></trkpt><trkpt lat="45.5412454" lon="11.1291068"><ele>639.0</ele><time>2026-04-06T13:48:32.986Z</time></trkpt><trkpt lat="45.5410884" lon="11.129077"><ele>633.0</ele><time>2026-04-06T13:48:33.988Z</time></trkpt><trkpt lat="45.5409357" lon="11.1290054"><ele>627.0</ele><time>2026-04-06T13:48:34.988Z</time></trkpt><trkpt lat="45.5407894" lon="11.1289151"><ele>621.0</ele><time>2026-04-06T13:48:35.985Z</time></trkpt><trkpt lat="45.540654" lon="11.1288263"><ele>621.0</ele><time>2026-04-06T13:48:36.986Z</time></trkpt><trkpt lat="45.5405195" lon="11.1287515"><ele>621.0</ele><time>2026-04-06T13:48:37.987Z</time></trkpt><trkpt lat="45.5403871" lon="11.1287004"><ele>621.0</ele><time>2026-04-06T13:48:38.986Z</time></trkpt><trkpt lat="45.5402468" lon="11.1286812"><ele>621.0</ele><time>2026-04-06T13:48:39.986Z</time></trkpt><trkpt lat="45.5401036" lon="11.1286913"><ele>623.25</ele><time>2026-04-06T13:48:40.985Z</time></trkpt><trkpt lat="45.5399708" lon="11.1287256"><ele>625.5</ele><time>2026-04-06T13:48:41.988Z</time></trkpt><trkpt lat="45.5398459" lon="11.1287953"><ele>627.75</ele><time>2026-04-06T13:48:42.986Z</time></trkpt><trkpt lat="45.5397219" lon="11.1289015"><ele>630.0</ele><time>2026-04-06T13:48:43.986Z</time></trkpt><trkpt lat="45.5395938" lon="11.1290352"><ele>625.6666666666666</ele><time>2026-04-06T13:48:44.987Z</time></trkpt><trkpt lat="45.5394663" lon="11.1291679"><ele>621.3333333333333</ele><time>2026-04-06T13:48:45.987Z</time></trkpt><trkpt lat="45.5393417" lon="11.1293141"><ele>617.0</ele><time>2026-04-06T13:48:46.986Z</time></trkpt><trkpt lat="45.5392317" lon="11.1294589"><ele>617.0</ele><time>2026-04-06T13:48:47.985Z</time></trkpt><trkpt lat="45.5391551" lon="11.129605"><ele>617.0</ele><time>2026-04-06T13:48:48.986Z</time></trkpt><trkpt lat="45.5391127" lon="11.1297681"><ele>617.0</ele><time>2026-04-06T13:48:49.987Z</time></trkpt><trkpt lat="45.5390962" lon="11.1299294"><ele>617.0</ele><time>2026-04-06T13:48:50.986Z</time></trkpt><trkpt lat="45.5391476" lon="11.1301"><ele>619.0</ele><time>2026-04-06T13:48:51.986Z</time></trkpt><trkpt lat="45.5392122" lon="11.1302704"><ele>621.0</ele><time>2026-04-06T13:48:52.985Z</time></trkpt><trkpt lat="45.5393059" lon="11.130463"><ele>623.0</ele><time>2026-04-06T13:48:53.986Z</time></trkpt><trkpt lat="45.5394143" lon="11.1306951"><ele>618.3333333333333</ele><time>2026-04-06T13:48:54.986Z</time></trkpt><trkpt lat="45.5395092" lon="11.1309279"><ele>613.6666666666666</ele><time>2026-04-06T13:48:55.986Z</time></trkpt><trkpt lat="45.5396008" lon="11.1311629"><ele>609.0</ele><time>2026-04-06T13:48:56.986Z</time></trkpt><trkpt lat="45.5396605" lon="11.1313608"><ele>613.75</ele><time>2026-04-06T13:48:57.987Z</time></trkpt><trkpt lat="45.5397052" lon="11.131548"><ele>618.5</ele><time>2026-04-06T13:48:58.987Z</time></trkpt><trkpt lat="45.5397187" lon="11.1317228"><ele>623.25</ele><time>2026-04-06T13:48:59.985Z</time></trkpt><trkpt lat="45.5396972" lon="11.1319042"><ele>628.0</ele><time>2026-04-06T13:49:00.987Z</time></trkpt><trkpt lat="45.5396425" lon="11.1320622"><ele>628.0</ele><time>2026-04-06T13:49:01.987Z</time></trkpt><trkpt lat="45.5395675" lon="11.1322107"><ele>628.0</ele><time>2026-04-06T13:49:02.987Z</time></trkpt><trkpt lat="45.5394327" lon="11.1323488"><ele>628.0</ele><time>2026-04-06T13:49:03.987Z</time></trkpt><trkpt lat="45.5392907" lon="11.132507"><ele>619.0</ele><time>2026-04-06T13:49:04.986Z</time></trkpt><trkpt lat="45.5391316" lon="11.1326858"><ele>610.0</ele><time>2026-04-06T13:49:05.986Z</time></trkpt><trkpt lat="45.5389748" lon="11.1328614"><ele>601.0</ele><time>2026-04-06T13:49:06.986Z</time></trkpt><trkpt lat="45.5388162" lon="11.1330383"><ele>599.3333333333334</ele><time>2026-04-06T13:49:07.986Z</time></trkpt><trkpt lat="45.5386601" lon="11.1332197"><ele>597.6666666666666</ele><time>2026-04-06T13:49:08.987Z</time></trkpt><trkpt lat="45.5385091" lon="11.1333917"><ele>596.0</ele><time>2026-04-06T13:49:09.986Z</time></trkpt><trkpt lat="45.5383593" lon="11.1335482"><ele>596.0</ele><time>2026-04-06T13:49:10.986Z</time></trkpt><trkpt lat="45.5382087" lon="11.1336894"><ele>596.0</ele><time>2026-04-06T13:49:11.986Z</time></trkpt><trkpt lat="45.5380426" lon="11.1338118"><ele>596.0</ele><time>2026-04-06T13:49:12.986Z</time></trkpt><trkpt lat="45.5378694" lon="11.1339208"><ele>595.6666666666666</ele><time>2026-04-06T13:49:13.986Z</time></trkpt><trkpt lat="45.5376964" lon="11.1340137"><ele>595.3333333333334</ele><time>2026-04-06T13:49:14.986Z</time></trkpt><trkpt lat="45.5375293" lon="11.1340875"><ele>595.0</ele><time>2026-04-06T13:49:15.985Z</time></trkpt><trkpt lat="45.5373596" lon="11.1341544"><ele>596.6666666666667</ele><time>2026-04-06T13:49:16.986Z</time></trkpt><trkpt lat="45.5371935" lon="11.1342237"><ele>598.3333333333334</ele><time>2026-04-06T13:49:17.985Z</time></trkpt><trkpt lat="45.5370436" lon="11.134288"><ele>600.0</ele><time>2026-04-06T13:49:18.988Z</time></trkpt><trkpt lat="45.5368842" lon="11.1343528"><ele>600.0</ele><time>2026-04-06T13:49:19.986Z</time></trkpt><trkpt lat="45.5367165" lon="11.134427"><ele>600.0</ele><time>2026-04-06T13:49:20.985Z</time></trkpt><trkpt lat="45.5365467" lon="11.1345054"><ele>600.0</ele><time>2026-04-06T13:49:21.986Z</time></trkpt><trkpt lat="45.5363894" lon="11.1346033"><ele>600.0</ele><time>2026-04-06T13:49:22.985Z</time></trkpt><trkpt lat="45.5362407" lon="11.1347062"><ele>600.0</ele><time>2026-04-06T13:49:23.986Z</time></trkpt><trkpt lat="45.5360991" lon="11.1348456"><ele>600.0</ele><time>2026-04-06T13:49:24.986Z</time></trkpt><trkpt lat="45.5359546" lon="11.1349892"><ele>600.6666666666666</ele><time>2026-04-06T13:49:25.986Z</time></trkpt><trkpt lat="45.5358102" lon="11.1351714"><ele>601.3333333333333</ele><time>2026-04-06T13:49:26.987Z</time></trkpt><trkpt lat="45.5356587" lon="11.1353545"><ele>602.0</ele><time>2026-04-06T13:49:27.987Z</time></trkpt><trkpt lat="45.5355066" lon="11.1355333"><ele>604.3333333333333</ele><time>2026-04-06T13:49:28.986Z</time></trkpt><trkpt lat="45.535348" lon="11.1357158"><ele>606.6666666666666</ele><time>2026-04-06T13:49:29.985Z</time></trkpt><trkpt lat="45.5351908" lon="11.1359059"><ele>609.0</ele><time>2026-04-06T13:49:30.987Z</time></trkpt><trkpt lat="45.5350333" lon="11.1360896"><ele>609.0</ele><time>2026-04-06T13:49:31.988Z</time></trkpt><trkpt lat="45.534881" lon="11.1362711"><ele>609.0</ele><time>2026-04-06T13:49:32.986Z</time></trkpt><trkpt lat="45.5347281" lon="11.1364528"><ele>609.0</ele><time>2026-04-06T13:49:33.986Z</time></trkpt><trkpt lat="45.5345726" lon="11.1366358"><ele>609.6666666666666</ele><time>2026-04-06T13:49:34.986Z</time></trkpt><trkpt lat="45.5344123" lon="11.1368251"><ele>610.3333333333333</ele><time>2026-04-06T13:49:35.985Z</time></trkpt><trkpt lat="45.5342477" lon="11.1370172"><ele>611.0</ele><time>2026-04-06T13:49:36.986Z</time></trkpt><trkpt lat="45.5340846" lon="11.1372129"><ele>611.6666666666666</ele><time>2026-04-06T13:49:37.985Z</time></trkpt><trkpt lat="45.5339239" lon="11.1374059"><ele>612.3333333333334</ele><time>2026-04-06T13:49:38.986Z</time></trkpt><trkpt lat="45.5337606" lon="11.1375992"><ele>613.0</ele><time>2026-04-06T13:49:39.985Z</time></trkpt><trkpt lat="45.533601" lon="11.1377899"><ele>613.0</ele><time>2026-04-06T13:49:40.986Z</time></trkpt><trkpt lat="45.5334482" lon="11.1379728"><ele>613.0</ele><time>2026-04-06T13:49:41.986Z</time></trkpt><trkpt lat="45.5333035" lon="11.1381431"><ele>613.0</ele><time>2026-04-06T13:49:42.987Z</time></trkpt><trkpt lat="45.5331644" lon="11.1382973"><ele>609.3333333333334</ele><time>2026-04-06T13:49:43.988Z</time></trkpt><trkpt lat="45.5330307" lon="11.1384222"><ele>605.6666666666666</ele><time>2026-04-06T13:49:44.986Z</time></trkpt><trkpt lat="45.532891" lon="11.1385175"><ele>602.0</ele><time>2026-04-06T13:49:45.985Z</time></trkpt><trkpt lat="45.5327438" lon="11.1385717"><ele>602.0</ele><time>2026-04-06T13:49:46.987Z</time></trkpt><trkpt lat="45.5325853" lon="11.1385904"><ele>602.0</ele><time>2026-04-06T13:49:47.985Z</time></trkpt><trkpt lat="45.5324079" lon="11.1385729"><ele>602.0</ele><time>2026-04-06T13:49:48.986Z</time></trkpt><trkpt lat="45.532211" lon="11.1385375"><ele>600.0</ele><time>2026-04-06T13:49:49.987Z</time></trkpt><trkpt lat="45.5320146" lon="11.1385018"><ele>598.0</ele><time>2026-04-06T13:49:50.986Z</time></trkpt><trkpt lat="45.5318219" lon="11.1384619"><ele>596.0</ele><time>2026-04-06T13:49:51.985Z</time></trkpt><trkpt lat="45.5316294" lon="11.1384016"><ele>596.0</ele><time>2026-04-06T13:49:52.987Z</time></trkpt><trkpt lat="45.5314441" lon="11.1383278"><ele>596.0</ele><time>2026-04-06T13:49:53.988Z</time></trkpt><trkpt lat="45.5312613" lon="11.1382565"><ele>596.0</ele><time>2026-04-06T13:49:54.986Z</time></trkpt><trkpt lat="45.5310797" lon="11.1381974"><ele>601.3333333333333</ele><time>2026-04-06T13:49:55.986Z</time></trkpt><trkpt lat="45.5308961" lon="11.1381643"><ele>606.6666666666666</ele><time>2026-04-06T13:49:56.985Z</time></trkpt><trkpt lat="45.5307089" lon="11.1381522"><ele>612.0</ele><time>2026-04-06T13:49:57.986Z</time></trkpt><trkpt lat="45.5305233" lon="11.1381579"><ele>611.3333333333334</ele><time>2026-04-06T13:49:58.987Z</time></trkpt><trkpt lat="45.5303242" lon="11.1381887"><ele>610.6666666666667</ele><time>2026-04-06T13:49:59.986Z</time></trkpt><trkpt lat="45.5301363" lon="11.138223"><ele>610.0</ele><time>2026-04-06T13:50:00.986Z</time></trkpt><trkpt lat="45.5299718" lon="11.1382529"><ele>602.6666666666667</ele><time>2026-04-06T13:50:01.987Z</time></trkpt><trkpt lat="45.5298161" lon="11.1382764"><ele>595.3333333333334</ele><time>2026-04-06T13:50:02.985Z</time></trkpt><trkpt lat="45.5296612" lon="11.138294"><ele>588.0</ele><time>2026-04-06T13:50:03.986Z</time></trkpt><trkpt lat="45.5294982" lon="11.1382871"><ele>587.3333333333334</ele><time>2026-04-06T13:50:04.986Z</time></trkpt><trkpt lat="45.5293285" lon="11.1382538"><ele>586.6666666666667</ele><time>2026-04-06T13:50:05.987Z</time></trkpt><trkpt lat="45.5291493" lon="11.1382011"><ele>586.0</ele><time>2026-04-06T13:50:06.986Z</time></trkpt><trkpt lat="45.5289678" lon="11.1381374"><ele>585.6666666666667</ele><time>2026-04-06T13:50:07.986Z</time></trkpt><trkpt lat="45.5287969" lon="11.1380762"><ele>585.3333333333334</ele><time>2026-04-06T13:50:08.985Z</time></trkpt><trkpt lat="45.5286242" lon="11.1380153"><ele>585.0</ele><time>2026-04-06T13:50:09.988Z</time></trkpt><trkpt lat="45.5284588" lon="11.1379644"><ele>585.0</ele><time>2026-04-06T13:50:10.985Z</time></trkpt><trkpt lat="45.5283037" lon="11.1379163"><ele>585.0</ele><time>2026-04-06T13:50:11.987Z</time></trkpt><trkpt lat="45.5281531" lon="11.1378884"><ele>585.0</ele><time>2026-04-06T13:50:12.986Z</time></trkpt><trkpt lat="45.527991" lon="11.1378779"><ele>582.6666666666666</ele><time>2026-04-06T13:50:13.988Z</time></trkpt><trkpt lat="45.5278223" lon="11.1378878"><ele>580.3333333333333</ele><time>2026-04-06T13:50:14.986Z</time></trkpt><trkpt lat="45.5276442" lon="11.1379089"><ele>578.0</ele><time>2026-04-06T13:50:15.987Z</time></trkpt><trkpt lat="45.5274626" lon="11.1379369"><ele>578.0</ele><time>2026-04-06T13:50:16.985Z</time></trkpt><trkpt lat="45.5272787" lon="11.1379695"><ele>578.0</ele><time>2026-04-06T13:50:17.987Z</time></trkpt><trkpt lat="45.5270964" lon="11.137999"><ele>578.0</ele><time>2026-04-06T13:50:18.986Z</time></trkpt><trkpt lat="45.5269144" lon="11.138025"><ele>574.0</ele><time>2026-04-06T13:50:19.987Z</time></trkpt><trkpt lat="45.5267387" lon="11.1380565"><ele>570.0</ele><time>2026-04-06T13:50:20.987Z</time></trkpt><trkpt lat="45.5265734" lon="11.1380936"><ele>566.0</ele><time>2026-04-06T13:50:21.988Z</time></trkpt><trkpt lat="45.5264154" lon="11.1381435"><ele>566.0</ele><time>2026-04-06T13:50:22.985Z</time></trkpt><trkpt lat="45.5262743" lon="11.1382077"><ele>566.0</ele><time>2026-04-06T13:50:23.986Z</time></trkpt><trkpt lat="45.5261414" lon="11.1382897"><ele>566.0</ele><time>2026-04-06T13:50:24.987Z</time></trkpt><trkpt lat="45.5260071" lon="11.138397"><ele>566.0</ele><time>2026-04-06T13:50:25.987Z</time></trkpt><trkpt lat="45.5258708" lon="11.1385232"><ele>568.0</ele><time>2026-04-06T13:50:26.986Z</time></trkpt><trkpt lat="45.5257327" lon="11.138673"><ele>570.0</ele><time>2026-04-06T13:50:27.985Z</time></trkpt><trkpt lat="45.5255927" lon="11.1388325"><ele>572.0</ele><time>2026-04-06T13:50:28.986Z</time></trkpt><trkpt lat="45.5254557" lon="11.138992"><ele>569.0</ele><time>2026-04-06T13:50:29.985Z</time></trkpt><trkpt lat="45.5253226" lon="11.1391407"><ele>566.0</ele><time>2026-04-06T13:50:30.986Z</time></trkpt><trkpt lat="45.5251971" lon="11.1392752"><ele>563.0</ele><time>2026-04-06T13:50:31.986Z</time></trkpt><trkpt lat="45.5250779" lon="11.1394105"><ele>563.0</ele><time>2026-04-06T13:50:32.988Z</time></trkpt><trkpt lat="45.5249595" lon="11.1395332"><ele>563.0</ele><time>2026-04-06T13:50:33.986Z</time></trkpt><trkpt lat="45.524838" lon="11.139642"><ele>563.0</ele><time>2026-04-06T13:50:34.986Z</time></trkpt><trkpt lat="45.5247043" lon="11.1397349"><ele>563.0</ele><time>2026-04-06T13:50:35.986Z</time></trkpt><trkpt lat="45.5245585" lon="11.1397949"><ele>558.6666666666666</ele><time>2026-04-06T13:50:36.987Z</time></trkpt><trkpt lat="45.5244009" lon="11.139822"><ele>554.3333333333334</ele><time>2026-04-06T13:50:37.986Z</time></trkpt><trkpt lat="45.5242333" lon="11.1398496"><ele>550.0</ele><time>2026-04-06T13:50:38.986Z</time></trkpt><trkpt lat="45.5240605" lon="11.1398769"><ele>551.6666666666667</ele><time>2026-04-06T13:50:39.987Z</time></trkpt><trkpt lat="45.5238977" lon="11.1399258"><ele>553.3333333333334</ele><time>2026-04-06T13:50:40.987Z</time></trkpt><trkpt lat="45.5237338" lon="11.1399954"><ele>555.0</ele><time>2026-04-06T13:50:41.988Z</time></trkpt><trkpt lat="45.5235783" lon="11.140095"><ele>555.0</ele><time>2026-04-06T13:50:42.986Z</time></trkpt><trkpt lat="45.5234189" lon="11.1402248"><ele>555.0</ele><time>2026-04-06T13:50:43.986Z</time></trkpt><trkpt lat="45.5232519" lon="11.140378"><ele>555.0</ele><time>2026-04-06T13:50:44.986Z</time></trkpt><trkpt lat="45.5230865" lon="11.140533"><ele>551.5</ele><time>2026-04-06T13:50:45.987Z</time></trkpt><trkpt lat="45.5228881" lon="11.1407154"><ele>548.0</ele><time>2026-04-06T13:50:46.988Z</time></trkpt><trkpt lat="45.5226988" lon="11.1408915"><ele>548.0</ele><time>2026-04-06T13:50:47.987Z</time></trkpt><trkpt lat="45.5225154" lon="11.1410605"><ele>548.0</ele><time>2026-04-06T13:50:48.986Z</time></trkpt><trkpt lat="45.5223377" lon="11.1412166"><ele>548.0</ele><time>2026-04-06T13:50:49.987Z</time></trkpt><trkpt lat="45.5221566" lon="11.1413511"><ele>544.6666666666666</ele><time>2026-04-06T13:50:50.987Z</time></trkpt><trkpt lat="45.5219723" lon="11.1414612"><ele>541.3333333333334</ele><time>2026-04-06T13:50:51.987Z</time></trkpt><trkpt lat="45.5217749" lon="11.1415576"><ele>538.0</ele><time>2026-04-06T13:50:52.986Z</time></trkpt><trkpt lat="45.5215671" lon="11.1416458"><ele>538.0</ele><time>2026-04-06T13:50:53.987Z</time></trkpt><trkpt lat="45.5213548" lon="11.1417295"><ele>538.0</ele><time>2026-04-06T13:50:54.986Z</time></trkpt><trkpt lat="45.5211392" lon="11.1418126"><ele>538.0</ele><time>2026-04-06T13:50:55.986Z</time></trkpt><trkpt lat="45.5209244" lon="11.1418947"><ele>534.6666666666667</ele><time>2026-04-06T13:50:56.986Z</time></trkpt><trkpt lat="45.5207145" lon="11.1419715"><ele>531.3333333333334</ele><time>2026-04-06T13:50:57.987Z</time></trkpt><trkpt lat="45.5205161" lon="11.1420463"><ele>528.0</ele><time>2026-04-06T13:50:58.988Z</time></trkpt><trkpt lat="45.5203236" lon="11.1421171"><ele>524.0</ele><time>2026-04-06T13:50:59.986Z</time></trkpt><trkpt lat="45.5201374" lon="11.1421858"><ele>520.0</ele><time>2026-04-06T13:51:00.986Z</time></trkpt><trkpt lat="45.5199581" lon="11.142254"><ele>516.0</ele><time>2026-04-06T13:51:01.986Z</time></trkpt><trkpt lat="45.5197808" lon="11.1423188"><ele>516.0</ele><time>2026-04-06T13:51:02.986Z</time></trkpt><trkpt lat="45.5196102" lon="11.142381"><ele>516.0</ele><time>2026-04-06T13:51:03.988Z</time></trkpt><trkpt lat="45.5194445" lon="11.1424415"><ele>516.0</ele><time>2026-04-06T13:51:04.987Z</time></trkpt><trkpt lat="45.5192829" lon="11.1425029"><ele>515.6666666666666</ele><time>2026-04-06T13:51:05.986Z</time></trkpt><trkpt lat="45.5191232" lon="11.1425621"><ele>515.3333333333333</ele><time>2026-04-06T13:51:06.987Z</time></trkpt><trkpt lat="45.5189644" lon="11.1426198"><ele>515.0</ele><time>2026-04-06T13:51:07.987Z</time></trkpt><trkpt lat="45.5188122" lon="11.1426773"><ele>513.3333333333333</ele><time>2026-04-06T13:51:08.986Z</time></trkpt><trkpt lat="45.5186577" lon="11.1427429"><ele>511.66666666666663</ele><time>2026-04-06T13:51:09.987Z</time></trkpt><trkpt lat="45.5184968" lon="11.1428085"><ele>510.0</ele><time>2026-04-06T13:51:10.987Z</time></trkpt><trkpt lat="45.5183328" lon="11.1428756"><ele>510.0</ele><time>2026-04-06T13:51:11.986Z</time></trkpt><trkpt lat="45.5181648" lon="11.1429378"><ele>510.0</ele><time>2026-04-06T13:51:12.987Z</time></trkpt><trkpt lat="45.5180065" lon="11.142991"><ele>510.0</ele><time>2026-04-06T13:51:13.987Z</time></trkpt><trkpt lat="45.517856" lon="11.1430447"><ele>511.66666666666663</ele><time>2026-04-06T13:51:14.988Z</time></trkpt><trkpt lat="45.5177024" lon="11.1431063"><ele>513.3333333333333</ele><time>2026-04-06T13:51:15.986Z</time></trkpt><trkpt lat="45.5175228" lon="11.1431801"><ele>515.0</ele><time>2026-04-06T13:51:16.986Z</time></trkpt><trkpt lat="45.5173227" lon="11.1432527"><ele>515.0</ele><time>2026-04-06T13:51:17.986Z</time></trkpt><trkpt lat="45.5171152" lon="11.143322"><ele>515.0</ele><time>2026-04-06T13:51:18.987Z</time></trkpt><trkpt lat="45.5169144" lon="11.1433889"><ele>515.0</ele><time>2026-04-06T13:51:19.986Z</time></trkpt><trkpt lat="45.5167202" lon="11.1434442"><ele>512.0</ele><time>2026-04-06T13:51:20.986Z</time></trkpt><trkpt lat="45.5165226" lon="11.1434834"><ele>509.0</ele><time>2026-04-06T13:51:21.988Z</time></trkpt><trkpt lat="45.5163068" lon="11.1434986"><ele>506.0</ele><time>2026-04-06T13:51:22.987Z</time></trkpt><trkpt lat="45.5160702" lon="11.1434865"><ele>503.0</ele><time>2026-04-06T13:51:23.988Z</time></trkpt><trkpt lat="45.5158328" lon="11.1434563"><ele>500.0</ele><time>2026-04-06T13:51:24.988Z</time></trkpt><trkpt lat="45.5156063" lon="11.1434168"><ele>500.0</ele><time>2026-04-06T13:51:25.987Z</time></trkpt><trkpt lat="45.515386" lon="11.1433645"><ele>500.0</ele><time>2026-04-06T13:51:26.987Z</time></trkpt><trkpt lat="45.5151749" lon="11.1433017"><ele>500.0</ele><time>2026-04-06T13:51:27.987Z</time></trkpt><trkpt lat="45.514971" lon="11.143225"><ele>495.0</ele><time>2026-04-06T13:51:28.987Z</time></trkpt><trkpt lat="45.5147749" lon="11.14314"><ele>490.0</ele><time>2026-04-06T13:51:29.987Z</time></trkpt><trkpt lat="45.5145904" lon="11.1430598"><ele>485.0</ele><time>2026-04-06T13:51:30.988Z</time></trkpt><trkpt lat="45.5144218" lon="11.1429925"><ele>485.0</ele><time>2026-04-06T13:51:31.988Z</time></trkpt><trkpt lat="45.514263" lon="11.1429349"><ele>485.0</ele><time>2026-04-06T13:51:32.987Z</time></trkpt><trkpt lat="45.5141031" lon="11.1428907"><ele>485.0</ele><time>2026-04-06T13:51:33.987Z</time></trkpt><trkpt lat="45.5139452" lon="11.1428791"><ele>485.0</ele><time>2026-04-06T13:51:34.987Z</time></trkpt><trkpt lat="45.5137924" lon="11.1428839"><ele>485.0</ele><time>2026-04-06T13:51:35.986Z</time></trkpt><trkpt lat="45.5136451" lon="11.1428976"><ele>485.0</ele><time>2026-04-06T13:51:36.987Z</time></trkpt><trkpt lat="45.5134996" lon="11.1429124"><ele>485.0</ele><time>2026-04-06T13:51:37.987Z</time></trkpt><trkpt lat="45.5133557" lon="11.1429648"><ele>481.0</ele><time>2026-04-06T13:51:38.988Z</time></trkpt><trkpt lat="45.5132089" lon="11.1430484"><ele>477.0</ele><time>2026-04-06T13:51:39.987Z</time></trkpt><trkpt lat="45.5130567" lon="11.1431751"><ele>473.0</ele><time>2026-04-06T13:51:40.986Z</time></trkpt><trkpt lat="45.5128927" lon="11.1433361"><ele>471.66666666666663</ele><time>2026-04-06T13:51:41.987Z</time></trkpt><trkpt lat="45.5127126" lon="11.1435217"><ele>470.33333333333337</ele><time>2026-04-06T13:51:42.987Z</time></trkpt><trkpt lat="45.5125322" lon="11.1437045"><ele>469.0</ele><time>2026-04-06T13:51:43.987Z</time></trkpt><trkpt lat="45.5123597" lon="11.1438799"><ele>467.0</ele><time>2026-04-06T13:51:44.986Z</time></trkpt><trkpt lat="45.5121866" lon="11.1440574"><ele>465.0</ele><time>2026-04-06T13:51:45.986Z</time></trkpt><trkpt lat="45.5120134" lon="11.1442162"><ele>463.0</ele><time>2026-04-06T13:51:46.988Z</time></trkpt><trkpt lat="45.5118219" lon="11.1443572"><ele>463.0</ele><time>2026-04-06T13:51:47.986Z</time></trkpt><trkpt lat="45.5116192" lon="11.1444853"><ele>463.0</ele><time>2026-04-06T13:51:48.988Z</time></trkpt><trkpt lat="45.5114043" lon="11.1446038"><ele>456.5</ele><time>2026-04-06T13:51:49.987Z</time></trkpt><trkpt lat="45.5111758" lon="11.1447187"><ele>450.0</ele><time>2026-04-06T13:51:50.987Z</time></trkpt><trkpt lat="45.51095" lon="11.1448273"><ele>456.0</ele><time>2026-04-06T13:51:51.987Z</time></trkpt><trkpt lat="45.510711" lon="11.1449413"><ele>462.0</ele><time>2026-04-06T13:51:52.986Z</time></trkpt><trkpt lat="45.5104664" lon="11.1450779"><ele>459.5</ele><time>2026-04-06T13:51:53.987Z</time></trkpt><trkpt lat="45.5102239" lon="11.1452243"><ele>457.0</ele><time>2026-04-06T13:51:54.986Z</time></trkpt><trkpt lat="45.5099861" lon="11.1453736"><ele>457.0</ele><time>2026-04-06T13:51:55.986Z</time></trkpt><trkpt lat="45.5097478" lon="11.1455239"><ele>457.0</ele><time>2026-04-06T13:51:56.986Z</time></trkpt><trkpt lat="45.5095136" lon="11.1456744"><ele>455.0</ele><time>2026-04-06T13:51:57.987Z</time></trkpt><trkpt lat="45.5092778" lon="11.1458241"><ele>453.0</ele><time>2026-04-06T13:51:58.987Z</time></trkpt><trkpt lat="45.5090455" lon="11.1459712"><ele>453.0</ele><time>2026-04-06T13:51:59.987Z</time></trkpt><trkpt lat="45.5088271" lon="11.1461119"><ele>453.0</ele><time>2026-04-06T13:52:00.987Z</time></trkpt><trkpt lat="45.5086161" lon="11.1462462"><ele>451.66666666666663</ele><time>2026-04-06T13:52:01.986Z</time></trkpt><trkpt lat="45.5084128" lon="11.1463669"><ele>450.3333333333333</ele><time>2026-04-06T13:52:02.988Z</time></trkpt><trkpt lat="45.5082171" lon="11.1464687"><ele>449.0</ele><time>2026-04-06T13:52:03.987Z</time></trkpt><trkpt lat="45.5080243" lon="11.1465454"><ele>449.0</ele><time>2026-04-06T13:52:04.986Z</time></trkpt><trkpt lat="45.5078304" lon="11.1465781"><ele>449.0</ele><time>2026-04-06T13:52:05.987Z</time></trkpt><trkpt lat="45.5076291" lon="11.1465709"><ele>449.0</ele><time>2026-04-06T13:52:06.987Z</time></trkpt><trkpt lat="45.5074166" lon="11.1465331"><ele>446.5</ele><time>2026-04-06T13:52:07.986Z</time></trkpt><trkpt lat="45.5071876" lon="11.1464795"><ele>444.0</ele><time>2026-04-06T13:52:08.987Z</time></trkpt><trkpt lat="45.5069471" lon="11.1464246"><ele>444.0</ele><time>2026-04-06T13:52:09.987Z</time></trkpt><trkpt lat="45.5067176" lon="11.1463704"><ele>444.0</ele><time>2026-04-06T13:52:10.986Z</time></trkpt><trkpt lat="45.5064966" lon="11.1463169"><ele>444.0</ele><time>2026-04-06T13:52:11.988Z</time></trkpt><trkpt lat="45.5062811" lon="11.1462794"><ele>444.0</ele><time>2026-04-06T13:52:12.987Z</time></trkpt><trkpt lat="45.506069" lon="11.146267"><ele>444.0</ele><time>2026-04-06T13:52:13.986Z</time></trkpt><trkpt lat="45.5058508" lon="11.1462668"><ele>446.5</ele><time>2026-04-06T13:52:14.988Z</time></trkpt><trkpt lat="45.5056296" lon="11.1462728"><ele>449.0</ele><time>2026-04-06T13:52:15.986Z</time></trkpt><trkpt lat="45.5053997" lon="11.1462777"><ele>453.0</ele><time>2026-04-06T13:52:16.987Z</time></trkpt><trkpt lat="45.5051666" lon="11.1462835"><ele>457.0</ele><time>2026-04-06T13:52:17.987Z</time></trkpt><trkpt lat="45.5049281" lon="11.1462897"><ele>457.0</ele><time>2026-04-06T13:52:18.986Z</time></trkpt><trkpt lat="45.5046918" lon="11.1462924"><ele>457.0</ele><time>2026-04-06T13:52:19.986Z</time></trkpt><trkpt lat="45.5044682" lon="11.1462862"><ele>457.6666666666667</ele><time>2026-04-06T13:52:20.986Z</time></trkpt><trkpt lat="45.5042659" lon="11.1462823"><ele>458.33333333333337</ele><time>2026-04-06T13:52:21.987Z</time></trkpt><trkpt lat="45.5040796" lon="11.1462894"><ele>459.0</ele><time>2026-04-06T13:52:22.987Z</time></trkpt><trkpt lat="45.5039034" lon="11.1463219"><ele>459.66666666666663</ele><time>2026-04-06T13:52:23.986Z</time></trkpt><trkpt lat="45.5037354" lon="11.1463912"><ele>460.3333333333333</ele><time>2026-04-06T13:52:24.986Z</time></trkpt><trkpt lat="45.5035687" lon="11.1464887"><ele>461.0</ele><time>2026-04-06T13:52:25.987Z</time></trkpt><trkpt lat="45.5034082" lon="11.1465914"><ele>457.3333333333333</ele><time>2026-04-06T13:52:26.986Z</time></trkpt><trkpt lat="45.503252" lon="11.1466732"><ele>453.66666666666663</ele><time>2026-04-06T13:52:27.986Z</time></trkpt><trkpt lat="45.5030983" lon="11.14673"><ele>450.0</ele><time>2026-04-06T13:52:28.986Z</time></trkpt><trkpt lat="45.5029406" lon="11.1467458"><ele>447.33333333333337</ele><time>2026-04-06T13:52:29.987Z</time></trkpt><trkpt lat="45.5027685" lon="11.1467208"><ele>444.6666666666667</ele><time>2026-04-06T13:52:30.987Z</time></trkpt><trkpt lat="45.5025803" lon="11.1466646"><ele>442.0</ele><time>2026-04-06T13:52:31.987Z</time></trkpt><trkpt lat="45.5023713" lon="11.1465872"><ele>445.5</ele><time>2026-04-06T13:52:32.986Z</time></trkpt><trkpt lat="45.50214" lon="11.1465001"><ele>449.0</ele><time>2026-04-06T13:52:33.987Z</time></trkpt><trkpt lat="45.5018971" lon="11.1464104"><ele>449.0</ele><time>2026-04-06T13:52:34.987Z</time></trkpt><trkpt lat="45.5016499" lon="11.1463184"><ele>449.0</ele><time>2026-04-06T13:52:35.987Z</time></trkpt><trkpt lat="45.5013948" lon="11.1462223"><ele>445.5</ele><time>2026-04-06T13:52:36.988Z</time></trkpt><trkpt lat="45.5011512" lon="11.1461225"><ele>442.0</ele><time>2026-04-06T13:52:37.987Z</time></trkpt><trkpt lat="45.5009066" lon="11.146009"><ele>442.0</ele><time>2026-04-06T13:52:38.987Z</time></trkpt><trkpt lat="45.5006652" lon="11.1458858"><ele>442.0</ele><time>2026-04-06T13:52:39.988Z</time></trkpt><trkpt lat="45.5004207" lon="11.1457675"><ele>444.5</ele><time>2026-04-06T13:52:40.986Z</time></trkpt><trkpt lat="45.5001749" lon="11.1456675"><ele>447.0</ele><time>2026-04-06T13:52:41.986Z</time></trkpt><trkpt lat="45.4999296" lon="11.1455885"><ele>447.0</ele><time>2026-04-06T13:52:42.986Z</time></trkpt><trkpt lat="45.4996839" lon="11.1455249"><ele>447.0</ele><time>2026-04-06T13:52:43.987Z</time></trkpt><trkpt lat="45.4994373" lon="11.1454668"><ele>443.0</ele><time>2026-04-06T13:52:44.987Z</time></trkpt><trkpt lat="45.4991833" lon="11.1454217"><ele>439.0</ele><time>2026-04-06T13:52:45.988Z</time></trkpt><trkpt lat="45.498923" lon="11.1453857"><ele>434.0</ele><time>2026-04-06T13:52:46.987Z</time></trkpt><trkpt lat="45.4986655" lon="11.145353"><ele>429.0</ele><time>2026-04-06T13:52:47.987Z</time></trkpt><trkpt lat="45.4984169" lon="11.145323"><ele>429.0</ele><time>2026-04-06T13:52:48.987Z</time></trkpt><trkpt lat="45.4981731" lon="11.145292"><ele>429.0</ele><time>2026-04-06T13:52:49.986Z</time></trkpt><trkpt lat="45.4979336" lon="11.1452617"><ele>425.0</ele><time>2026-04-06T13:52:50.987Z</time></trkpt><trkpt lat="45.4976878" lon="11.1452312"><ele>421.0</ele><time>2026-04-06T13:52:51.986Z</time></trkpt><trkpt lat="45.4974465" lon="11.145203"><ele>421.0</ele><time>2026-04-06T13:52:52.986Z</time></trkpt><trkpt lat="45.4972297" lon="11.145179"><ele>421.0</ele><time>2026-04-06T13:52:53.987Z</time></trkpt><trkpt lat="45.4970425" lon="11.1451604"><ele>421.0</ele><time>2026-04-06T13:52:54.987Z</time></trkpt><trkpt lat="45.4968705" lon="11.1451585"><ele>418.33333333333337</ele><time>2026-04-06T13:52:55.986Z</time></trkpt><trkpt lat="45.4967148" lon="11.1451977"><ele>415.66666666666663</ele><time>2026-04-06T13:52:56.987Z</time></trkpt><trkpt lat="45.4965528" lon="11.1452807"><ele>413.0</ele><time>2026-04-06T13:52:57.986Z</time></trkpt><trkpt lat="45.4963974" lon="11.1453884"><ele>411.3333333333333</ele><time>2026-04-06T13:52:58.986Z</time></trkpt><trkpt lat="45.4962445" lon="11.1454891"><ele>409.66666666666663</ele><time>2026-04-06T13:52:59.987Z</time></trkpt><trkpt lat="45.4960675" lon="11.1455738"><ele>408.0</ele><time>2026-04-06T13:53:00.988Z</time></trkpt><trkpt lat="45.4958746" lon="11.1456243"><ele>408.0</ele><time>2026-04-06T13:53:01.987Z</time></trkpt><trkpt lat="45.4956679" lon="11.1456339"><ele>408.0</ele><time>2026-04-06T13:53:02.987Z</time></trkpt><trkpt lat="45.4954478" lon="11.1456141"><ele>408.0</ele><time>2026-04-06T13:53:03.986Z</time></trkpt><trkpt lat="45.4952248" lon="11.1455918"><ele>404.33333333333337</ele><time>2026-04-06T13:53:04.987Z</time></trkpt><trkpt lat="45.4950122" lon="11.1455702"><ele>400.6666666666667</ele><time>2026-04-06T13:53:05.988Z</time></trkpt><trkpt lat="45.4948161" lon="11.1455512"><ele>397.0</ele><time>2026-04-06T13:53:06.987Z</time></trkpt><trkpt lat="45.4946471" lon="11.1455338"><ele>393.5</ele><time>2026-04-06T13:53:07.987Z</time></trkpt><trkpt lat="45.4944998" lon="11.1455163"><ele>390.0</ele><time>2026-04-06T13:53:08.986Z</time></trkpt><trkpt lat="45.4943722" lon="11.1454924"><ele>386.5</ele><time>2026-04-06T13:53:09.986Z</time></trkpt><trkpt lat="45.4942559" lon="11.1454543"><ele>383.0</ele><time>2026-04-06T13:53:10.987Z</time></trkpt><trkpt lat="45.49416" lon="11.1453863"><ele>383.0</ele><time>2026-04-06T13:53:11.987Z</time></trkpt><trkpt lat="45.4940932" lon="11.1452883"><ele>383.0</ele><time>2026-04-06T13:53:12.987Z</time></trkpt><trkpt lat="45.4940515" lon="11.1451506"><ele>383.0</ele><time>2026-04-06T13:53:13.987Z</time></trkpt><trkpt lat="45.4940468" lon="11.1449937"><ele>383.0</ele><time>2026-04-06T13:53:14.987Z</time></trkpt><trkpt lat="45.4941011" lon="11.1448191"><ele>383.0</ele><time>2026-04-06T13:53:15.987Z</time></trkpt><trkpt lat="45.4941907" lon="11.1446431"><ele>378.33333333333337</ele><time>2026-04-06T13:53:16.988Z</time></trkpt><trkpt lat="45.4942971" lon="11.1444468"><ele>373.6666666666667</ele><time>2026-04-06T13:53:17.987Z</time></trkpt><trkpt lat="45.4944001" lon="11.1442559"><ele>369.0</ele><time>2026-04-06T13:53:18.988Z</time></trkpt><trkpt lat="45.4944986" lon="11.1440584"><ele>372.0</ele><time>2026-04-06T13:53:19.987Z</time></trkpt><trkpt lat="45.4945911" lon="11.143848"><ele>375.0</ele><time>2026-04-06T13:53:20.987Z</time></trkpt><trkpt lat="45.4946729" lon="11.1436116"><ele>378.0</ele><time>2026-04-06T13:53:21.986Z</time></trkpt><trkpt lat="45.4947455" lon="11.1433551"><ele>374.0</ele><time>2026-04-06T13:53:22.988Z</time></trkpt><trkpt lat="45.4948126" lon="11.1431047"><ele>370.0</ele><time>2026-04-06T13:53:23.986Z</time></trkpt><trkpt lat="45.4948776" lon="11.1428584"><ele>366.0</ele><time>2026-04-06T13:53:24.987Z</time></trkpt><trkpt lat="45.4949465" lon="11.1426152"><ele>361.0</ele><time>2026-04-06T13:53:25.987Z</time></trkpt><trkpt lat="45.4950192" lon="11.1423778"><ele>356.0</ele><time>2026-04-06T13:53:26.987Z</time></trkpt><trkpt lat="45.4951009" lon="11.1421479"><ele>351.0</ele><time>2026-04-06T13:53:27.987Z</time></trkpt><trkpt lat="45.4951884" lon="11.141925"><ele>351.0</ele><time>2026-04-06T13:53:28.987Z</time></trkpt><trkpt lat="45.4952769" lon="11.1417022"><ele>351.0</ele><time>2026-04-06T13:53:29.986Z</time></trkpt><trkpt lat="45.4953632" lon="11.1414827"><ele>351.0</ele><time>2026-04-06T13:53:30.986Z</time></trkpt><trkpt lat="45.4954393" lon="11.1412651"><ele>350.0</ele><time>2026-04-06T13:53:31.987Z</time></trkpt><trkpt lat="45.4954965" lon="11.1410448"><ele>349.0</ele><time>2026-04-06T13:53:32.987Z</time></trkpt><trkpt lat="45.4955379" lon="11.1408256"><ele>348.0</ele><time>2026-04-06T13:53:33.987Z</time></trkpt><trkpt lat="45.4955683" lon="11.1406213"><ele>348.0</ele><time>2026-04-06T13:53:34.987Z</time></trkpt><trkpt lat="45.495593" lon="11.1404303"><ele>348.0</ele><time>2026-04-06T13:53:35.988Z</time></trkpt><trkpt lat="45.4956137" lon="11.1402511"><ele>348.0</ele><time>2026-04-06T13:53:36.987Z</time></trkpt><trkpt lat="45.4956342" lon="11.1400958"><ele>348.0</ele><time>2026-04-06T13:53:37.987Z</time></trkpt><trkpt lat="45.4956533" lon="11.1399536"><ele>346.3333333333333</ele><time>2026-04-06T13:53:38.986Z</time></trkpt><trkpt lat="45.495671" lon="11.139814"><ele>344.6666666666667</ele><time>2026-04-06T13:53:39.988Z</time></trkpt><trkpt lat="45.4956785" lon="11.1396849"><ele>343.0</ele><time>2026-04-06T13:53:40.986Z</time></trkpt><trkpt lat="45.4956731" lon="11.1395773"><ele>341.33333333333337</ele><time>2026-04-06T13:53:41.986Z</time></trkpt><trkpt lat="45.4956545" lon="11.1394752"><ele>339.6666666666667</ele><time>2026-04-06T13:53:42.987Z</time></trkpt><trkpt lat="45.4956107" lon="11.1393894"><ele>338.0</ele><time>2026-04-06T13:53:43.987Z</time></trkpt><trkpt lat="45.495548" lon="11.1393121"><ele>338.0</ele><time>2026-04-06T13:53:44.987Z</time></trkpt><trkpt lat="45.4954734" lon="11.1392564"><ele>338.0</ele><time>2026-04-06T13:53:45.987Z</time></trkpt><trkpt lat="45.4953801" lon="11.1392447"><ele>338.0</ele><time>2026-04-06T13:53:46.987Z</time></trkpt><trkpt lat="45.4952744" lon="11.1392746"><ele>338.0</ele><time>2026-04-06T13:53:47.987Z</time></trkpt><trkpt lat="45.4951529" lon="11.1393506"><ele>338.0</ele><time>2026-04-06T13:53:48.987Z</time></trkpt><trkpt lat="45.4950308" lon="11.1394504"><ele>335.5</ele><time>2026-04-06T13:53:49.987Z</time></trkpt><trkpt lat="45.4949097" lon="11.1395504"><ele>333.0</ele><time>2026-04-06T13:53:50.986Z</time></trkpt><trkpt lat="45.4948089" lon="11.1396256"><ele>330.5</ele><time>2026-04-06T13:53:51.986Z</time></trkpt><trkpt lat="45.494709" lon="11.1396952"><ele>328.0</ele><time>2026-04-06T13:53:52.986Z</time></trkpt><trkpt lat="45.4946178" lon="11.1397598"><ele>325.4</ele><time>2026-04-06T13:53:53.986Z</time></trkpt><trkpt lat="45.4945337" lon="11.1398169"><ele>322.79999999999995</ele><time>2026-04-06T13:53:54.986Z</time></trkpt><trkpt lat="45.4944647" lon="11.1398562"><ele>320.2</ele><time>2026-04-06T13:53:55.986Z</time></trkpt><trkpt lat="45.4943556" lon="11.1398517"><ele>317.6</ele><time>2026-04-06T13:53:57.986Z</time></trkpt><trkpt lat="45.4942924" lon="11.1397354"><ele>315.0</ele><time>2026-04-06T13:53:59.986Z</time></trkpt><trkpt lat="45.4943209" lon="11.1395416"><ele>315.0</ele><time>2026-04-06T13:54:01.988Z</time></trkpt><trkpt lat="45.4943839" lon="11.1393979"><ele>315.0</ele><time>2026-04-06T13:54:02.986Z</time></trkpt><trkpt lat="45.4944681" lon="11.1392298"><ele>315.0</ele><time>2026-04-06T13:54:03.986Z</time></trkpt><trkpt lat="45.4945663" lon="11.1390372"><ele>315.0</ele><time>2026-04-06T13:54:04.986Z</time></trkpt><trkpt lat="45.4946471" lon="11.1388225"><ele>315.25</ele><time>2026-04-06T13:54:05.986Z</time></trkpt><trkpt lat="45.4947189" lon="11.1386128"><ele>315.5</ele><time>2026-04-06T13:54:06.987Z</time></trkpt><trkpt lat="45.4947745" lon="11.1384281"><ele>315.75</ele><time>2026-04-06T13:54:07.986Z</time></trkpt><trkpt lat="45.4948181" lon="11.1382471"><ele>316.0</ele><time>2026-04-06T13:54:08.987Z</time></trkpt><trkpt lat="45.4948347" lon="11.1380535"><ele>313.75</ele><time>2026-04-06T13:54:09.988Z</time></trkpt><trkpt lat="45.4948277" lon="11.1378321"><ele>311.5</ele><time>2026-04-06T13:54:10.987Z</time></trkpt><trkpt lat="45.4948099" lon="11.1376161"><ele>309.25</ele><time>2026-04-06T13:54:11.986Z</time></trkpt><trkpt lat="45.4947868" lon="11.137421"><ele>307.0</ele><time>2026-04-06T13:54:12.986Z</time></trkpt><trkpt lat="45.4947591" lon="11.1372521"><ele>303.4</ele><time>2026-04-06T13:54:13.988Z</time></trkpt><trkpt lat="45.4947262" lon="11.1371006"><ele>299.79999999999995</ele><time>2026-04-06T13:54:14.986Z</time></trkpt><trkpt lat="45.4946787" lon="11.1369732"><ele>296.2</ele><time>2026-04-06T13:54:15.985Z</time></trkpt><trkpt lat="45.4946143" lon="11.1368691"><ele>292.59999999999997</ele><time>2026-04-06T13:54:16.986Z</time></trkpt><trkpt lat="45.494534" lon="11.1368143"><ele>289.0</ele><time>2026-04-06T13:54:17.985Z</time></trkpt><trkpt lat="45.4944545" lon="11.1367929"><ele>289.0</ele><time>2026-04-06T13:54:18.986Z</time></trkpt><trkpt lat="45.4943853" lon="11.1368507"><ele>289.0</ele><time>2026-04-06T13:54:19.986Z</time></trkpt><trkpt lat="45.4943215" lon="11.136929"><ele>289.0</ele><time>2026-04-06T13:54:20.986Z</time></trkpt><trkpt lat="45.4943008" lon="11.137085"><ele>289.0</ele><time>2026-04-06T13:54:21.985Z</time></trkpt><trkpt lat="45.4942893" lon="11.1372586"><ele>289.0</ele><time>2026-04-06T13:54:22.986Z</time></trkpt><trkpt lat="45.494299" lon="11.1374643"><ele>290.25</ele><time>2026-04-06T13:54:23.986Z</time></trkpt><trkpt lat="45.4943039" lon="11.1376488"><ele>291.5</ele><time>2026-04-06T13:54:24.986Z</time></trkpt><trkpt lat="45.4943029" lon="11.1378302"><ele>292.75</ele><time>2026-04-06T13:54:25.985Z</time></trkpt><trkpt lat="45.4942793" lon="11.1379788"><ele>294.0</ele><time>2026-04-06T13:54:26.987Z</time></trkpt><trkpt lat="45.494193" lon="11.1380935"><ele>294.0</ele><time>2026-04-06T13:54:27.985Z</time></trkpt><trkpt lat="45.4941047" lon="11.1381663"><ele>294.0</ele><time>2026-04-06T13:54:28.987Z</time></trkpt><trkpt lat="45.4939754" lon="11.1382039"><ele>294.0</ele><time>2026-04-06T13:54:29.985Z</time></trkpt><trkpt lat="45.4938317" lon="11.1382133"><ele>294.0</ele><time>2026-04-06T13:54:30.986Z</time></trkpt><trkpt lat="45.4936628" lon="11.1382093"><ele>289.6666666666667</ele><time>2026-04-06T13:54:31.986Z</time></trkpt><trkpt lat="45.493463" lon="11.1381969"><ele>285.33333333333337</ele><time>2026-04-06T13:54:32.985Z</time></trkpt><trkpt lat="45.4932645" lon="11.1381698"><ele>281.0</ele><time>2026-04-06T13:54:33.988Z</time></trkpt><trkpt lat="45.4930557" lon="11.1381312"><ele>280.6666666666667</ele><time>2026-04-06T13:54:34.985Z</time></trkpt><trkpt lat="45.4928646" lon="11.1380827"><ele>280.3333333333333</ele><time>2026-04-06T13:54:35.986Z</time></trkpt><trkpt lat="45.4927022" lon="11.1380401"><ele>280.0</ele><time>2026-04-06T13:54:36.985Z</time></trkpt><trkpt lat="45.4925619" lon="11.1380074"><ele>280.0</ele><time>2026-04-06T13:54:37.985Z</time></trkpt><trkpt lat="45.4924433" lon="11.137978"><ele>280.0</ele><time>2026-04-06T13:54:38.986Z</time></trkpt><trkpt lat="45.4923434" lon="11.1379428"><ele>280.0</ele><time>2026-04-06T13:54:39.987Z</time></trkpt><trkpt lat="45.4922653" lon="11.1378795"><ele>280.0</ele><time>2026-04-06T13:54:40.987Z</time></trkpt><trkpt lat="45.4922165" lon="11.137787"><ele>280.0</ele><time>2026-04-06T13:54:41.986Z</time></trkpt><trkpt lat="45.4922049" lon="11.1376723"><ele>280.0</ele><time>2026-04-06T13:54:42.985Z</time></trkpt><trkpt lat="45.4922367" lon="11.1375603"><ele>280.0</ele><time>2026-04-06T13:54:43.986Z</time></trkpt><trkpt lat="45.4923042" lon="11.1374905"><ele>280.0</ele><time>2026-04-06T13:54:44.985Z</time></trkpt><trkpt lat="45.4923983" lon="11.1374699"><ele>280.0</ele><time>2026-04-06T13:54:45.985Z</time></trkpt><trkpt lat="45.4925235" lon="11.1374969"><ele>280.0</ele><time>2026-04-06T13:54:46.987Z</time></trkpt><trkpt lat="45.492684" lon="11.1375473"><ele>280.0</ele><time>2026-04-06T13:54:47.986Z</time></trkpt><trkpt lat="45.4928553" lon="11.137594"><ele>280.0</ele><time>2026-04-06T13:54:48.985Z</time></trkpt><trkpt lat="45.4930111" lon="11.1376383"><ele>280.0</ele><time>2026-04-06T13:54:49.986Z</time></trkpt><trkpt lat="45.4931425" lon="11.1376688"><ele>280.2</ele><time>2026-04-06T13:54:50.986Z</time></trkpt><trkpt lat="45.4932472" lon="11.1376762"><ele>280.4</ele><time>2026-04-06T13:54:51.986Z</time></trkpt><trkpt lat="45.4933307" lon="11.1376471"><ele>280.6</ele><time>2026-04-06T13:54:52.985Z</time></trkpt><trkpt lat="45.4933951" lon="11.1375834"><ele>280.8</ele><time>2026-04-06T13:54:53.986Z</time></trkpt><trkpt lat="45.4934276" lon="11.1374644"><ele>281.0</ele><time>2026-04-06T13:54:54.986Z</time></trkpt><trkpt lat="45.4934277" lon="11.1373232"><ele>278.0</ele><time>2026-04-06T13:54:55.986Z</time></trkpt><trkpt lat="45.4934024" lon="11.1371393"><ele>275.0</ele><time>2026-04-06T13:54:56.986Z</time></trkpt><trkpt lat="45.493358" lon="11.136914"><ele>272.0</ele><time>2026-04-06T13:54:57.986Z</time></trkpt><trkpt lat="45.493312" lon="11.136675"><ele>271.33333333333337</ele><time>2026-04-06T13:54:58.985Z</time></trkpt><trkpt lat="45.4932488" lon="11.1363911"><ele>270.6666666666667</ele><time>2026-04-06T13:54:59.986Z</time></trkpt><trkpt lat="45.4931773" lon="11.1361291"><ele>270.0</ele><time>2026-04-06T13:55:00.986Z</time></trkpt><trkpt lat="45.4930912" lon="11.1358831"><ele>268.0</ele><time>2026-04-06T13:55:01.986Z</time></trkpt><trkpt lat="45.4930097" lon="11.135667"><ele>266.0</ele><time>2026-04-06T13:55:02.987Z</time></trkpt><trkpt lat="45.4929257" lon="11.1354756"><ele>264.0</ele><time>2026-04-06T13:55:03.985Z</time></trkpt><trkpt lat="45.4928354" lon="11.1353152"><ele>262.0</ele><time>2026-04-06T13:55:04.986Z</time></trkpt><trkpt lat="45.4927419" lon="11.1351868"><ele>260.0</ele><time>2026-04-06T13:55:05.985Z</time></trkpt><trkpt lat="45.4926481" lon="11.1350674"><ele>258.0</ele><time>2026-04-06T13:55:06.986Z</time></trkpt><trkpt lat="45.49256" lon="11.1349622"><ele>256.0</ele><time>2026-04-06T13:55:07.985Z</time></trkpt><trkpt lat="45.4924787" lon="11.1348525"><ele>256.0</ele><time>2026-04-06T13:55:08.986Z</time></trkpt><trkpt lat="45.4924054" lon="11.1347403"><ele>256.0</ele><time>2026-04-06T13:55:09.987Z</time></trkpt><trkpt lat="45.4923344" lon="11.1346323"><ele>256.0</ele><time>2026-04-06T13:55:10.985Z</time></trkpt><trkpt lat="45.4922582" lon="11.1345286"><ele>256.0</ele><time>2026-04-06T13:55:11.985Z</time></trkpt><trkpt lat="45.4921878" lon="11.1344202"><ele>256.0</ele><time>2026-04-06T13:55:12.986Z</time></trkpt><trkpt lat="45.4921384" lon="11.1343031"><ele>256.0</ele><time>2026-04-06T13:55:13.987Z</time></trkpt><trkpt lat="45.4921161" lon="11.1341745"><ele>256.0</ele><time>2026-04-06T13:55:14.986Z</time></trkpt><trkpt lat="45.4924433" lon="11.137978"><ele>260.0</ele><time>2026-04-06T13:54:38.986Z</time></trkpt><trkpt lat="45.4923434" lon="11.1379428"><ele>264.0</ele><time>2026-04-06T13:54:39.987Z</time></trkpt><trkpt lat="45.4922653" lon="11.1378795"><ele>268.0</ele><time>2026-04-06T13:54:40.987Z</time></trkpt><trkpt lat="45.4922165" lon="11.137787"><ele>272.0</ele><time>2026-04-06T13:54:41.986Z</time></trkpt><trkpt lat="45.4922049" lon="11.1376723"><ele>276.0</ele><time>2026-04-06T13:54:42.985Z</time></trkpt><trkpt lat="45.4922367" lon="11.1375603"><ele>280.0</ele><time>2026-04-06T13:54:43.986Z</time></trkpt><trkpt lat="45.4923042" lon="11.1374905"><ele>280.0</ele><time>2026-04-06T13:54:44.985Z</time></trkpt><trkpt lat="45.4923983" lon="11.1374699"><ele>280.0</ele><time>2026-04-06T13:54:45.985Z</time></trkpt><trkpt lat="45.4925235" lon="11.1374969"><ele>280.0</ele><time>2026-04-06T13:54:46.987Z</time></trkpt><trkpt lat="45.492684" lon="11.1375473"><ele>280.0</ele><time>2026-04-06T13:54:47.986Z</time></trkpt><trkpt lat="45.4928553" lon="11.137594"><ele>280.25</ele><time>2026-04-06T13:54:48.985Z</time></trkpt><trkpt lat="45.4930111" lon="11.1376383"><ele>280.5</ele><time>2026-04-06T13:54:49.986Z</time></trkpt><trkpt lat="45.4931425" lon="11.1376688"><ele>280.75</ele><time>2026-04-06T13:54:50.986Z</time></trkpt><trkpt lat="45.4932472" lon="11.1376762"><ele>281.0</ele><time>2026-04-06T13:54:51.986Z</time></trkpt><trkpt lat="45.4933307" lon="11.1376471"><ele>281.0</ele><time>2026-04-06T13:54:52.985Z</time></trkpt><trkpt lat="45.4933951" lon="11.1375834"><ele>281.0</ele><time>2026-04-06T13:54:53.986Z</time></trkpt><trkpt lat="45.4934276" lon="11.1374644"><ele>281.0</ele><time>2026-04-06T13:54:54.986Z</time></trkpt><trkpt lat="45.4934277" lon="11.1373232"><ele>281.0</ele><time>2026-04-06T13:54:55.986Z</time></trkpt><trkpt lat="45.4934024" lon="11.1371393"><ele>281.0</ele><time>2026-04-06T13:54:56.986Z</time></trkpt><trkpt lat="45.493358" lon="11.136914"><ele>278.0</ele><time>2026-04-06T13:54:57.986Z</time></trkpt><trkpt lat="45.493312" lon="11.136675"><ele>275.0</ele><time>2026-04-06T13:54:58.985Z</time></trkpt><trkpt lat="45.4932488" lon="11.1363911"><ele>272.0</ele><time>2026-04-06T13:54:59.986Z</time></trkpt><trkpt lat="45.4931773" lon="11.1361291"><ele>271.33333333333337</ele><time>2026-04-06T13:55:00.986Z</time></trkpt><trkpt lat="45.4930912" lon="11.1358831"><ele>270.6666666666667</ele><time>2026-04-06T13:55:01.986Z</time></trkpt><trkpt lat="45.4930097" lon="11.135667"><ele>270.0</ele><time>2026-04-06T13:55:02.987Z</time></trkpt><trkpt lat="45.4929257" lon="11.1354756"><ele>266.0</ele><time>2026-04-06T13:55:03.985Z</time></trkpt><trkpt lat="45.4928354" lon="11.1353152"><ele>262.0</ele><time>2026-04-06T13:55:04.986Z</time></trkpt><trkpt lat="45.4927419" lon="11.1351868"><ele>258.0</ele><time>2026-04-06T13:55:05.985Z</time></trkpt><trkpt lat="45.4926481" lon="11.1350674"><ele>254.0</ele><time>2026-04-06T13:55:06.986Z</time></trkpt><trkpt lat="45.49256" lon="11.1349622"><ele>254.39999999999998</ele><time>2026-04-06T13:55:07.985Z</time></trkpt><trkpt lat="45.4924787" lon="11.1348525"><ele>254.79999999999998</ele><time>2026-04-06T13:55:08.986Z</time></trkpt><trkpt lat="45.4924054" lon="11.1347403"><ele>255.20000000000002</ele><time>2026-04-06T13:55:09.987Z</time></trkpt><trkpt lat="45.4923344" lon="11.1346323"><ele>255.60000000000002</ele><time>2026-04-06T13:55:10.985Z</time></trkpt><trkpt lat="45.4922582" lon="11.1345286"><ele>256.0</ele><time>2026-04-06T13:55:11.985Z</time></trkpt><trkpt lat="45.4921878" lon="11.1344202"><ele>256.0</ele><time>2026-04-06T13:55:12.986Z</time></trkpt><trkpt lat="45.4921384" lon="11.1343031"><ele>256.0</ele><time>2026-04-06T13:55:13.987Z</time></trkpt><trkpt lat="45.4921161" lon="11.1341745"><ele>256.0</ele><time>2026-04-06T13:55:14.986Z</time></trkpt><trkpt lat="45.4921414" lon="11.1340436"><ele>256.0</ele><time>2026-04-06T13:55:15.985Z</time></trkpt><trkpt lat="45.4921966" lon="11.133934"><ele>256.0</ele><time>2026-04-06T13:55:16.986Z</time></trkpt><trkpt lat="45.4922787" lon="11.1338654"><ele>252.5</ele><time>2026-04-06T13:55:17.986Z</time></trkpt><trkpt lat="45.4923868" lon="11.1338248"><ele>249.0</ele><time>2026-04-06T13:55:18.986Z</time></trkpt><trkpt lat="45.4925101" lon="11.1337929"><ele>245.5</ele><time>2026-04-06T13:55:19.986Z</time></trkpt><trkpt lat="45.4926273" lon="11.1337518"><ele>242.0</ele><time>2026-04-06T13:55:20.985Z</time></trkpt><trkpt lat="45.4927499" lon="11.1336861"><ele>242.0</ele><time>2026-04-06T13:55:21.986Z</time></trkpt><trkpt lat="45.4928609" lon="11.1335954"><ele>242.0</ele><time>2026-04-06T13:55:22.987Z</time></trkpt><trkpt lat="45.492956" lon="11.1334952"><ele>242.0</ele><time>2026-04-06T13:55:23.986Z</time></trkpt><trkpt lat="45.4930434" lon="11.1333861"><ele>242.0</ele><time>2026-04-06T13:55:24.985Z</time></trkpt><trkpt lat="45.4931258" lon="11.1332657"><ele>242.39999999999998</ele><time>2026-04-06T13:55:25.986Z</time></trkpt><trkpt lat="45.4931949" lon="11.1331387"><ele>242.79999999999998</ele><time>2026-04-06T13:55:26.986Z</time></trkpt><trkpt lat="45.493252" lon="11.1330081"><ele>243.2</ele><time>2026-04-06T13:55:27.986Z</time></trkpt><trkpt lat="45.4933019" lon="11.1328746"><ele>243.6</ele><time>2026-04-06T13:55:28.985Z</time></trkpt><trkpt lat="45.4933384" lon="11.1327466"><ele>244.0</ele><time>2026-04-06T13:55:29.986Z</time></trkpt><trkpt lat="45.4933733" lon="11.1326181"><ele>244.0</ele><time>2026-04-06T13:55:30.987Z</time></trkpt><trkpt lat="45.4934035" lon="11.1324888"><ele>243.99999999999997</ele><time>2026-04-06T13:55:31.986Z</time></trkpt><trkpt lat="45.4934221" lon="11.1323569"><ele>243.99999999999997</ele><time>2026-04-06T13:55:32.986Z</time></trkpt><trkpt lat="45.4934272" lon="11.1322254"><ele>244.0</ele><time>2026-04-06T13:55:33.985Z</time></trkpt><trkpt lat="45.4934157" lon="11.1320975"><ele>244.0</ele><time>2026-04-06T13:55:34.985Z</time></trkpt><trkpt lat="45.4933845" lon="11.1319758"><ele>241.66666666666666</ele><time>2026-04-06T13:55:35.986Z</time></trkpt><trkpt lat="45.493334" lon="11.1318701"><ele>239.33333333333331</ele><time>2026-04-06T13:55:36.986Z</time></trkpt><trkpt lat="45.4932677" lon="11.1317864"><ele>237.0</ele><time>2026-04-06T13:55:37.986Z</time></trkpt><trkpt lat="45.4931905" lon="11.1317307"><ele>234.66666666666669</ele><time>2026-04-06T13:55:38.986Z</time></trkpt><trkpt lat="45.4931075" lon="11.1317062"><ele>232.33333333333334</ele><time>2026-04-06T13:55:39.985Z</time></trkpt><trkpt lat="45.4930253" lon="11.131719"><ele>230.0</ele><time>2026-04-06T13:55:40.985Z</time></trkpt><trkpt lat="45.4929476" lon="11.1317701"><ele>226.75</ele><time>2026-04-06T13:55:41.986Z</time></trkpt><trkpt lat="45.4928654" lon="11.1318618"><ele>223.5</ele><time>2026-04-06T13:55:42.986Z</time></trkpt><trkpt lat="45.4927885" lon="11.1319973"><ele>220.25</ele><time>2026-04-06T13:55:43.986Z</time></trkpt><trkpt lat="45.4927134" lon="11.132162"><ele>217.0</ele><time>2026-04-06T13:55:44.986Z</time></trkpt><trkpt lat="45.4926385" lon="11.1323142"><ele>220.5</ele><time>2026-04-06T13:55:45.987Z</time></trkpt><trkpt lat="45.4925621" lon="11.1324584"><ele>224.0</ele><time>2026-04-06T13:55:46.985Z</time></trkpt><trkpt lat="45.4924835" lon="11.1325851"><ele>227.5</ele><time>2026-04-06T13:55:47.987Z</time></trkpt><trkpt lat="45.4924002" lon="11.1327016"><ele>231.0</ele><time>2026-04-06T13:55:48.985Z</time></trkpt><trkpt lat="45.4923108" lon="11.1328117"><ele>231.0</ele><time>2026-04-06T13:55:49.985Z</time></trkpt><trkpt lat="45.4922063" lon="11.1329098"><ele>231.0</ele><time>2026-04-06T13:55:50.986Z</time></trkpt><trkpt lat="45.4921007" lon="11.1329904"><ele>231.0</ele><time>2026-04-06T13:55:51.986Z</time></trkpt><trkpt lat="45.4919936" lon="11.1330681"><ele>231.0</ele><time>2026-04-06T13:55:52.985Z</time></trkpt><trkpt lat="45.4918857" lon="11.1331435"><ele>228.5</ele><time>2026-04-06T13:55:53.985Z</time></trkpt><trkpt lat="45.4917798" lon="11.133212"><ele>226.0</ele><time>2026-04-06T13:55:54.986Z</time></trkpt><trkpt lat="45.4916763" lon="11.1332856"><ele>223.5</ele><time>2026-04-06T13:55:55.986Z</time></trkpt><trkpt lat="45.4915771" lon="11.1333738"><ele>221.0</ele><time>2026-04-06T13:55:56.986Z</time></trkpt><trkpt lat="45.4914762" lon="11.1334884"><ele>221.0</ele><time>2026-04-06T13:55:57.987Z</time></trkpt><trkpt lat="45.4913845" lon="11.1336277"><ele>221.0</ele><time>2026-04-06T13:55:58.985Z</time></trkpt><trkpt lat="45.491306" lon="11.1337783"><ele>221.0</ele><time>2026-04-06T13:55:59.986Z</time></trkpt><trkpt lat="45.4912345" lon="11.1339315"><ele>221.0</ele><time>2026-04-06T13:56:00.985Z</time></trkpt><trkpt lat="45.491176" lon="11.1340794"><ele>218.83333333333334</ele><time>2026-04-06T13:56:01.986Z</time></trkpt><trkpt lat="45.4911301" lon="11.1342138"><ele>216.66666666666669</ele><time>2026-04-06T13:56:02.985Z</time></trkpt><trkpt lat="45.4910972" lon="11.1343325"><ele>214.5</ele><time>2026-04-06T13:56:03.986Z</time></trkpt><trkpt lat="45.4910733" lon="11.1344396"><ele>212.33333333333331</ele><time>2026-04-06T13:56:04.986Z</time></trkpt><trkpt lat="45.4910588" lon="11.1345297"><ele>210.16666666666666</ele><time>2026-04-06T13:56:05.985Z</time></trkpt><trkpt lat="45.4910782" lon="11.1346779"><ele>208.0</ele><time>2026-04-06T13:56:07.986Z</time></trkpt><trkpt lat="45.4911478" lon="11.1347804"><ele>207.99999999999997</ele><time>2026-04-06T13:56:09.985Z</time></trkpt><trkpt lat="45.4912144" lon="11.1348622"><ele>208.0</ele><time>2026-04-06T13:56:11.987Z</time></trkpt><trkpt lat="45.4912203" lon="11.1349564"><ele>208.0</ele><time>2026-04-06T13:56:13.987Z</time></trkpt><trkpt lat="45.4911638" lon="11.1350181"><ele>208.0</ele><time>2026-04-06T13:56:15.985Z</time></trkpt><trkpt lat="45.4910353" lon="11.1349829"><ele>207.99999999999997</ele><time>2026-04-06T13:56:17.985Z</time></trkpt><trkpt lat="45.4909707" lon="11.1349229"><ele>208.0</ele><time>2026-04-06T13:56:18.986Z</time></trkpt><trkpt lat="45.4909134" lon="11.1348401"><ele>208.0</ele><time>2026-04-06T13:56:19.986Z</time></trkpt><trkpt lat="45.4908663" lon="11.134734"><ele>208.0</ele><time>2026-04-06T13:56:20.986Z</time></trkpt><trkpt lat="45.4908352" lon="11.134602"><ele>208.0</ele><time>2026-04-06T13:56:21.985Z</time></trkpt><trkpt lat="45.4908215" lon="11.1344485"><ele>208.0</ele><time>2026-04-06T13:56:22.986Z</time></trkpt><trkpt lat="45.4908201" lon="11.1342649"><ele>208.0</ele><time>2026-04-06T13:56:23.986Z</time></trkpt><trkpt lat="45.4908317" lon="11.1340456"><ele>206.33333333333331</ele><time>2026-04-06T13:56:24.986Z</time></trkpt><trkpt lat="45.4908538" lon="11.1337942"><ele>204.66666666666669</ele><time>2026-04-06T13:56:25.986Z</time></trkpt><trkpt lat="45.4908896" lon="11.133519"><ele>203.0</ele><time>2026-04-06T13:56:26.985Z</time></trkpt><trkpt lat="45.4909336" lon="11.1332545"><ele>202.33333333333334</ele><time>2026-04-06T13:56:27.985Z</time></trkpt><trkpt lat="45.4909869" lon="11.1329844"><ele>201.66666666666669</ele><time>2026-04-06T13:56:28.986Z</time></trkpt><trkpt lat="45.4910558" lon="11.1327044"><ele>201.0</ele><time>2026-04-06T13:56:29.987Z</time></trkpt><trkpt lat="45.4911347" lon="11.1324416"><ele>200.33333333333331</ele><time>2026-04-06T13:56:30.986Z</time></trkpt><trkpt lat="45.4912182" lon="11.1321923"><ele>199.66666666666666</ele><time>2026-04-06T13:56:31.986Z</time></trkpt><trkpt lat="45.4913072" lon="11.1319548"><ele>199.0</ele><time>2026-04-06T13:56:32.986Z</time></trkpt><trkpt lat="45.4914023" lon="11.1317268"><ele>188.33333333333331</ele><time>2026-04-06T13:56:33.986Z</time></trkpt><trkpt lat="45.4915095" lon="11.1315036"><ele>177.66666666666666</ele><time>2026-04-06T13:56:34.986Z</time></trkpt><trkpt lat="45.4916261" lon="11.1312837"><ele>167.0</ele><time>2026-04-06T13:56:35.986Z</time></trkpt><trkpt lat="45.4917303" lon="11.1310978"><ele>167.0</ele><time>2026-04-06T13:56:36.987Z</time></trkpt><trkpt lat="45.4918278" lon="11.1309267"><ele>167.0</ele><time>2026-04-06T13:56:37.986Z</time></trkpt><trkpt lat="45.4919213" lon="11.1307601"><ele>167.0</ele><time>2026-04-06T13:56:38.985Z</time></trkpt><trkpt lat="45.4920121" lon="11.1305959"><ele>166.0</ele><time>2026-04-06T13:56:39.986Z</time></trkpt><trkpt lat="45.4920977" lon="11.1304443"><ele>165.0</ele><time>2026-04-06T13:56:40.986Z</time></trkpt><trkpt lat="45.4921765" lon="11.1303241"><ele>164.0</ele><time>2026-04-06T13:56:41.985Z</time></trkpt><trkpt lat="45.4922641" lon="11.1302062"><ele>163.0</ele><time>2026-04-06T13:56:42.986Z</time></trkpt><trkpt lat="45.4923728" lon="11.1300946"><ele>163.0</ele><time>2026-04-06T13:56:43.986Z</time></trkpt><trkpt lat="45.4924934" lon="11.1299996"><ele>163.0</ele><time>2026-04-06T13:56:44.987Z</time></trkpt><trkpt lat="45.4926327" lon="11.1299267"><ele>163.0</ele><time>2026-04-06T13:56:45.987Z</time></trkpt><trkpt lat="45.4927765" lon="11.1298686"><ele>163.0</ele><time>2026-04-06T13:56:46.986Z</time></trkpt><trkpt lat="45.4929205" lon="11.1298243"><ele>157.75</ele><time>2026-04-06T13:56:47.985Z</time></trkpt><trkpt lat="45.4930648" lon="11.1297878"><ele>152.5</ele><time>2026-04-06T13:56:48.987Z</time></trkpt><trkpt lat="45.4932059" lon="11.1297555"><ele>147.25</ele><time>2026-04-06T13:56:49.986Z</time></trkpt><trkpt lat="45.4933306" lon="11.1297256"><ele>142.0</ele><time>2026-04-06T13:56:50.986Z</time></trkpt><trkpt lat="45.4934439" lon="11.1296982"><ele>142.0</ele><time>2026-04-06T13:56:51.985Z</time></trkpt><trkpt lat="45.4935448" lon="11.1296731"><ele>142.0</ele><time>2026-04-06T13:56:52.985Z</time></trkpt><trkpt lat="45.4936314" lon="11.1296382"><ele>142.0</ele><time>2026-04-06T13:56:53.986Z</time></trkpt><trkpt lat="45.4936978" lon="11.1295693"><ele>142.0</ele><time>2026-04-06T13:56:54.986Z</time></trkpt><trkpt lat="45.4937486" lon="11.1294668"><ele>142.0</ele><time>2026-04-06T13:56:55.987Z</time></trkpt><trkpt lat="45.4937868" lon="11.1293244"><ele>142.0</ele><time>2026-04-06T13:56:56.986Z</time></trkpt><trkpt lat="45.4938129" lon="11.1291583"><ele>142.0</ele><time>2026-04-06T13:56:57.985Z</time></trkpt><trkpt lat="45.4938306" lon="11.1290047"><ele>142.0</ele><time>2026-04-06T13:56:58.985Z</time></trkpt><trkpt lat="45.4938461" lon="11.1288646"><ele>142.0</ele><time>2026-04-06T13:56:59.986Z</time></trkpt><trkpt lat="45.4938584" lon="11.1287254"><ele>142.0</ele><time>2026-04-06T13:57:00.985Z</time></trkpt><trkpt lat="45.4938686" lon="11.1285726"><ele>141.79999999999998</ele><time>2026-04-06T13:57:01.985Z</time></trkpt><trkpt lat="45.4938795" lon="11.1284481"><ele>141.6</ele><time>2026-04-06T13:57:02.985Z</time></trkpt><trkpt lat="45.4938941" lon="11.1283156"><ele>141.39999999999998</ele><time>2026-04-06T13:57:03.986Z</time></trkpt><trkpt lat="45.4939082" lon="11.1281703"><ele>141.2</ele><time>2026-04-06T13:57:04.985Z</time></trkpt><trkpt lat="45.4939175" lon="11.1280351"><ele>141.0</ele><time>2026-04-06T13:57:05.986Z</time></trkpt><trkpt lat="45.4939251" lon="11.1278998"><ele>141.0</ele><time>2026-04-06T13:57:06.985Z</time></trkpt><trkpt lat="45.4939295" lon="11.1277629"><ele>141.0</ele><time>2026-04-06T13:57:07.986Z</time></trkpt><trkpt lat="45.493925" lon="11.1276349"><ele>141.0</ele><time>2026-04-06T13:57:08.987Z</time></trkpt><trkpt lat="45.4939081" lon="11.1274997"><ele>141.0</ele><time>2026-04-06T13:57:09.986Z</time></trkpt><trkpt lat="45.4938744" lon="11.1273655"><ele>141.0</ele><time>2026-04-06T13:57:10.985Z</time></trkpt><trkpt lat="45.4938278" lon="11.1272445"><ele>141.83333333333334</ele><time>2026-04-06T13:57:11.985Z</time></trkpt><trkpt lat="45.4937814" lon="11.1271549"><ele>142.66666666666666</ele><time>2026-04-06T13:57:12.986Z</time></trkpt><trkpt lat="45.4937348" lon="11.1270778"><ele>143.5</ele><time>2026-04-06T13:57:13.985Z</time></trkpt><trkpt lat="45.4936897" lon="11.1269989"><ele>144.33333333333331</ele><time>2026-04-06T13:57:14.987Z</time></trkpt><trkpt lat="45.4936407" lon="11.1269109"><ele>145.16666666666666</ele><time>2026-04-06T13:57:15.986Z</time></trkpt><trkpt lat="45.4935876" lon="11.1268225"><ele>146.0</ele><time>2026-04-06T13:57:16.987Z</time></trkpt><trkpt lat="45.4935362" lon="11.1267472"><ele>146.0</ele><time>2026-04-06T13:57:17.985Z</time></trkpt><trkpt lat="45.4934819" lon="11.1266761"><ele>146.0</ele><time>2026-04-06T13:57:18.985Z</time></trkpt><trkpt lat="45.4934238" lon="11.1265978"><ele>146.0</ele><time>2026-04-06T13:57:19.985Z</time></trkpt><trkpt lat="45.4933718" lon="11.1265178"><ele>146.0</ele><time>2026-04-06T13:57:20.986Z</time></trkpt><trkpt lat="45.4933179" lon="11.1264336"><ele>146.0</ele><time>2026-04-06T13:57:21.986Z</time></trkpt><trkpt lat="45.4932654" lon="11.1263538"><ele>146.0</ele><time>2026-04-06T13:57:22.985Z</time></trkpt><trkpt lat="45.4932169" lon="11.1262802"><ele>145.83333333333331</ele><time>2026-04-06T13:57:23.985Z</time></trkpt><trkpt lat="45.4931635" lon="11.1262001"><ele>145.66666666666666</ele><time>2026-04-06T13:57:24.985Z</time></trkpt><trkpt lat="45.493105" lon="11.1261115"><ele>145.5</ele><time>2026-04-06T13:57:25.985Z</time></trkpt><trkpt lat="45.4930485" lon="11.1260298"><ele>145.33333333333334</ele><time>2026-04-06T13:57:26.985Z</time></trkpt><trkpt lat="45.4929853" lon="11.1259431"><ele>145.16666666666669</ele><time>2026-04-06T13:57:27.986Z</time></trkpt><trkpt lat="45.492911" lon="11.1258668"><ele>145.0</ele><time>2026-04-06T13:57:28.985Z</time></trkpt><trkpt lat="45.4928224" lon="11.1258187"><ele>145.0</ele><time>2026-04-06T13:57:29.986Z</time></trkpt><trkpt lat="45.4927124" lon="11.1257984"><ele>145.0</ele><time>2026-04-06T13:57:30.986Z</time></trkpt><trkpt lat="45.4925594" lon="11.1257925"><ele>145.0</ele><time>2026-04-06T13:57:31.987Z</time></trkpt><trkpt lat="45.492399" lon="11.1257929"><ele>145.0</ele><time>2026-04-06T13:57:32.986Z</time></trkpt><trkpt lat="45.4922582" lon="11.1257912"><ele>145.0</ele><time>2026-04-06T13:57:33.986Z</time></trkpt><trkpt lat="45.4921437" lon="11.125798"><ele>145.0</ele><time>2026-04-06T13:57:34.986Z</time></trkpt><trkpt lat="45.4920422" lon="11.1258052"><ele>145.0</ele><time>2026-04-06T13:57:35.985Z</time></trkpt><trkpt lat="45.4919426" lon="11.1258111"><ele>145.0</ele><time>2026-04-06T13:57:36.986Z</time></trkpt><trkpt lat="45.4918426" lon="11.1258149"><ele>145.0</ele><time>2026-04-06T13:57:37.985Z</time></trkpt><trkpt lat="45.4917472" lon="11.1258228"><ele>145.25</ele><time>2026-04-06T13:57:38.985Z</time></trkpt><trkpt lat="45.4916484" lon="11.1258362"><ele>145.5</ele><time>2026-04-06T13:57:39.986Z</time></trkpt><trkpt lat="45.4915277" lon="11.125861"><ele>145.75</ele><time>2026-04-06T13:57:40.986Z</time></trkpt><trkpt lat="45.4913912" lon="11.1258967"><ele>146.0</ele><time>2026-04-06T13:57:41.986Z</time></trkpt><trkpt lat="45.4912685" lon="11.1259351"><ele>146.2</ele><time>2026-04-06T13:57:42.985Z</time></trkpt><trkpt lat="45.491152" lon="11.125973"><ele>146.39999999999998</ele><time>2026-04-06T13:57:43.986Z</time></trkpt><trkpt lat="45.4910393" lon="11.1260095"><ele>146.6</ele><time>2026-04-06T13:57:44.986Z</time></trkpt><trkpt lat="45.4909349" lon="11.1260396"><ele>146.79999999999998</ele><time>2026-04-06T13:57:45.986Z</time></trkpt><trkpt lat="45.4908335" lon="11.1260638"><ele>147.0</ele><time>2026-04-06T13:57:46.986Z</time></trkpt><trkpt lat="45.4907356" lon="11.1260917"><ele>147.0</ele><time>2026-04-06T13:57:47.985Z</time></trkpt><trkpt lat="45.4906355" lon="11.1261201"><ele>147.0</ele><time>2026-04-06T13:57:48.985Z</time></trkpt><trkpt lat="45.4905261" lon="11.1261533"><ele>147.0</ele><time>2026-04-06T13:57:49.986Z</time></trkpt><trkpt lat="45.4904065" lon="11.1261875"><ele>147.0</ele><time>2026-04-06T13:57:50.986Z</time></trkpt><trkpt lat="45.4902897" lon="11.1262165"><ele>146.79999999999998</ele><time>2026-04-06T13:57:51.985Z</time></trkpt><trkpt lat="45.4901769" lon="11.1262445"><ele>146.6</ele><time>2026-04-06T13:57:52.986Z</time></trkpt><trkpt lat="45.4900661" lon="11.1262735"><ele>146.39999999999998</ele><time>2026-04-06T13:57:53.987Z</time></trkpt><trkpt lat="45.4899571" lon="11.1262987"><ele>146.2</ele><time>2026-04-06T13:57:54.986Z</time></trkpt><trkpt lat="45.4898512" lon="11.126326"><ele>146.0</ele><time>2026-04-06T13:57:55.985Z</time></trkpt><trkpt lat="45.48975" lon="11.1263622"><ele>146.0</ele><time>2026-04-06T13:57:56.986Z</time></trkpt><trkpt lat="45.4896541" lon="11.1264103"><ele>146.0</ele><time>2026-04-06T13:57:57.986Z</time></trkpt><trkpt lat="45.489563" lon="11.1264731"><ele>146.0</ele><time>2026-04-06T13:57:58.985Z</time></trkpt><trkpt lat="45.4894822" lon="11.1265551"><ele>146.0</ele><time>2026-04-06T13:57:59.985Z</time></trkpt><trkpt lat="45.4894078" lon="11.1266473"><ele>146.0</ele><time>2026-04-06T13:58:00.985Z</time></trkpt><trkpt lat="45.4893321" lon="11.1267541"><ele>143.2</ele><time>2026-04-06T13:58:01.985Z</time></trkpt><trkpt lat="45.4892538" lon="11.1268598"><ele>140.39999999999998</ele><time>2026-04-06T13:58:02.986Z</time></trkpt><trkpt lat="45.4891674" lon="11.1269398"><ele>137.6</ele><time>2026-04-06T13:58:03.985Z</time></trkpt><trkpt lat="45.4890747" lon="11.1269967"><ele>134.79999999999998</ele><time>2026-04-06T13:58:04.986Z</time></trkpt><trkpt lat="45.4889711" lon="11.1270254"><ele>132.0</ele><time>2026-04-06T13:58:05.986Z</time></trkpt><trkpt lat="45.4888532" lon="11.1270224"><ele>131.5</ele><time>2026-04-06T13:58:06.986Z</time></trkpt><trkpt lat="45.4887385" lon="11.1270062"><ele>131.0</ele><time>2026-04-06T13:58:07.986Z</time></trkpt><trkpt lat="45.4886195" lon="11.1269869"><ele>130.5</ele><time>2026-04-06T13:58:08.985Z</time></trkpt><trkpt lat="45.488503" lon="11.1269649"><ele>130.0</ele><time>2026-04-06T13:58:09.986Z</time></trkpt><trkpt lat="45.4883978" lon="11.1269432"><ele>130.0</ele><time>2026-04-06T13:58:10.985Z</time></trkpt><trkpt lat="45.4883005" lon="11.1269212"><ele>130.0</ele><time>2026-04-06T13:58:11.985Z</time></trkpt><trkpt lat="45.4882105" lon="11.1268971"><ele>130.0</ele><time>2026-04-06T13:58:12.986Z</time></trkpt><trkpt lat="45.4881281" lon="11.1268735"><ele>130.0</ele><time>2026-04-06T13:58:13.985Z</time></trkpt><trkpt lat="45.4880581" lon="11.1268539"><ele>130.0</ele><time>2026-04-06T13:58:14.986Z</time></trkpt><trkpt lat="45.4879581" lon="11.1268291"><ele>130.0</ele><time>2026-04-06T13:58:16.985Z</time></trkpt><trkpt lat="45.487872" lon="11.1268156"><ele>129.8</ele><time>2026-04-06T13:58:19.985Z</time></trkpt><trkpt lat="45.4877941" lon="11.1268176"><ele>129.6</ele><time>2026-04-06T13:58:21.985Z</time></trkpt><trkpt lat="45.4876533" lon="11.1268065"><ele>129.4</ele><time>2026-04-06T13:58:23.986Z</time></trkpt><trkpt lat="45.4875598" lon="11.1267916"><ele>129.2</ele><time>2026-04-06T13:58:24.985Z</time></trkpt><trkpt lat="45.4874494" lon="11.1267799"><ele>129.0</ele><time>2026-04-06T13:58:25.985Z</time></trkpt><trkpt lat="45.487338" lon="11.1267846"><ele>129.0</ele><time>2026-04-06T13:58:26.987Z</time></trkpt><trkpt lat="45.4872271" lon="11.1268163"><ele>129.0</ele><time>2026-04-06T13:58:27.986Z</time></trkpt><trkpt lat="45.4871139" lon="11.1268824"><ele>129.0</ele><time>2026-04-06T13:58:28.986Z</time></trkpt><trkpt lat="45.4869991" lon="11.1269837"><ele>129.0</ele><time>2026-04-06T13:58:29.985Z</time></trkpt><trkpt lat="45.4868817" lon="11.127122"><ele>127.75</ele><time>2026-04-06T13:58:30.986Z</time></trkpt><trkpt lat="45.4867773" lon="11.1272696"><ele>126.5</ele><time>2026-04-06T13:58:31.987Z</time></trkpt><trkpt lat="45.4866833" lon="11.1274036"><ele>125.25</ele><time>2026-04-06T13:58:32.987Z</time></trkpt><trkpt lat="45.4865813" lon="11.1275309"><ele>124.0</ele><time>2026-04-06T13:58:33.987Z</time></trkpt><trkpt lat="45.4864736" lon="11.1276336"><ele>124.0</ele><time>2026-04-06T13:58:34.985Z</time></trkpt><trkpt lat="45.4863748" lon="11.127703"><ele>124.0</ele><time>2026-04-06T13:58:35.986Z</time></trkpt><trkpt lat="45.4862785" lon="11.1277606"><ele>124.0</ele><time>2026-04-06T13:58:36.985Z</time></trkpt><trkpt lat="45.4861864" lon="11.1278078"><ele>124.0</ele><time>2026-04-06T13:58:37.985Z</time></trkpt><trkpt lat="45.4860909" lon="11.1278466"><ele>124.0</ele><time>2026-04-06T13:58:38.986Z</time></trkpt><trkpt lat="45.4859975" lon="11.1278812"><ele>123.83333333333334</ele><time>2026-04-06T13:58:39.986Z</time></trkpt><trkpt lat="45.4859088" lon="11.1279094"><ele>123.66666666666667</ele><time>2026-04-06T13:58:40.985Z</time></trkpt><trkpt lat="45.4858231" lon="11.1279357"><ele>123.5</ele><time>2026-04-06T13:58:41.985Z</time></trkpt><trkpt lat="45.4857416" lon="11.12796"><ele>123.33333333333334</ele><time>2026-04-06T13:58:42.986Z</time></trkpt><trkpt lat="45.4856625" lon="11.1279803"><ele>123.16666666666667</ele><time>2026-04-06T13:58:43.985Z</time></trkpt><trkpt lat="45.4855811" lon="11.1279958"><ele>123.0</ele><time>2026-04-06T13:58:44.985Z</time></trkpt><trkpt lat="45.4854909" lon="11.1280042"><ele>123.2</ele><time>2026-04-06T13:58:45.985Z</time></trkpt><trkpt lat="45.4853945" lon="11.1279945"><ele>123.4</ele><time>2026-04-06T13:58:46.985Z</time></trkpt><trkpt lat="45.4853014" lon="11.1279701"><ele>123.60000000000001</ele><time>2026-04-06T13:58:47.986Z</time></trkpt><trkpt lat="45.4852042" lon="11.1279338"><ele>123.80000000000001</ele><time>2026-04-06T13:58:48.986Z</time></trkpt><trkpt lat="45.4850944" lon="11.1278912"><ele>124.0</ele><time>2026-04-06T13:58:49.986Z</time></trkpt><trkpt lat="45.4849824" lon="11.1278426"><ele>124.0</ele><time>2026-04-06T13:58:50.987Z</time></trkpt><trkpt lat="45.4848787" lon="11.1277957"><ele>124.0</ele><time>2026-04-06T13:58:51.986Z</time></trkpt><trkpt lat="45.4847692" lon="11.1277512"><ele>124.0</ele><time>2026-04-06T13:58:52.986Z</time></trkpt><trkpt lat="45.484654" lon="11.1277083"><ele>124.0</ele><time>2026-04-06T13:58:53.985Z</time></trkpt><trkpt lat="45.4845416" lon="11.1276648"><ele>123.80000000000001</ele><time>2026-04-06T13:58:54.986Z</time></trkpt><trkpt lat="45.484435" lon="11.1276249"><ele>123.60000000000001</ele><time>2026-04-06T13:58:55.986Z</time></trkpt><trkpt lat="45.48433" lon="11.1275953"><ele>123.4</ele><time>2026-04-06T13:58:56.986Z</time></trkpt><trkpt lat="45.4842324" lon="11.1275693"><ele>123.2</ele><time>2026-04-06T13:58:57.986Z</time></trkpt><trkpt lat="45.4841365" lon="11.1275405"><ele>123.0</ele><time>2026-04-06T13:58:58.987Z</time></trkpt><trkpt lat="45.4840377" lon="11.1275118"><ele>123.0</ele><time>2026-04-06T13:58:59.986Z</time></trkpt><trkpt lat="45.4839414" lon="11.1274707"><ele>123.00000000000001</ele><time>2026-04-06T13:59:00.985Z</time></trkpt><trkpt lat="45.4838408" lon="11.1274302"><ele>123.00000000000001</ele><time>2026-04-06T13:59:01.987Z</time></trkpt><trkpt lat="45.4837366" lon="11.1273916"><ele>123.0</ele><time>2026-04-06T13:59:02.985Z</time></trkpt><trkpt lat="45.4836428" lon="11.1273501"><ele>123.0</ele><time>2026-04-06T13:59:03.986Z</time></trkpt><trkpt lat="45.4835532" lon="11.1273125"><ele>124.2</ele><time>2026-04-06T13:59:04.986Z</time></trkpt><trkpt lat="45.4834592" lon="11.1272757"><ele>125.4</ele><time>2026-04-06T13:59:05.986Z</time></trkpt><trkpt lat="45.4833593" lon="11.1272403"><ele>126.60000000000001</ele><time>2026-04-06T13:59:06.986Z</time></trkpt><trkpt lat="45.48326" lon="11.1272097"><ele>127.80000000000001</ele><time>2026-04-06T13:59:07.985Z</time></trkpt><trkpt lat="45.4831644" lon="11.1271882"><ele>129.0</ele><time>2026-04-06T13:59:08.985Z</time></trkpt><trkpt lat="45.4830681" lon="11.1271738"><ele>129.0</ele><time>2026-04-06T13:59:09.985Z</time></trkpt><trkpt lat="45.4829676" lon="11.1271606"><ele>129.0</ele><time>2026-04-06T13:59:10.985Z</time></trkpt><trkpt lat="45.4828745" lon="11.1271474"><ele>129.0</ele><time>2026-04-06T13:59:11.986Z</time></trkpt><trkpt lat="45.4827876" lon="11.1271347"><ele>129.0</ele><time>2026-04-06T13:59:12.985Z</time></trkpt><trkpt lat="45.4827072" lon="11.1271266"><ele>129.0</ele><time>2026-04-06T13:59:13.985Z</time></trkpt><trkpt lat="45.4826347" lon="11.1271214"><ele>129.0</ele><time>2026-04-06T13:59:14.986Z</time></trkpt><trkpt lat="45.482562" lon="11.1271112"><ele>128.5</ele><time>2026-04-06T13:59:15.986Z</time></trkpt><trkpt lat="45.4824848" lon="11.1271007"><ele>128.0</ele><time>2026-04-06T13:59:16.986Z</time></trkpt><trkpt lat="45.482393" lon="11.1270911"><ele>127.5</ele><time>2026-04-06T13:59:17.985Z</time></trkpt><trkpt lat="45.4823172" lon="11.1270898"><ele>127.0</ele><time>2026-04-06T13:59:18.985Z</time></trkpt><trkpt lat="45.4822505" lon="11.1270798"><ele>126.5</ele><time>2026-04-06T13:59:19.987Z</time></trkpt><trkpt lat="45.4821786" lon="11.1270634"><ele>126.0</ele><time>2026-04-06T13:59:20.986Z</time></trkpt><trkpt lat="45.4821047" lon="11.1270248"><ele>125.6</ele><time>2026-04-06T13:59:21.986Z</time></trkpt><trkpt lat="45.4820391" lon="11.1269647"><ele>125.19999999999999</ele><time>2026-04-06T13:59:22.986Z</time></trkpt><trkpt lat="45.4819813" lon="11.1268835"><ele>124.80000000000001</ele><time>2026-04-06T13:59:23.985Z</time></trkpt><trkpt lat="45.4819272" lon="11.1267771"><ele>124.4</ele><time>2026-04-06T13:59:24.987Z</time></trkpt><trkpt lat="45.4818778" lon="11.1266515"><ele>124.0</ele><time>2026-04-06T13:59:25.986Z</time></trkpt><trkpt lat="45.4818284" lon="11.1265112"><ele>125.0</ele><time>2026-04-06T13:59:26.985Z</time></trkpt><trkpt lat="45.4817822" lon="11.1263665"><ele>126.0</ele><time>2026-04-06T13:59:27.985Z</time></trkpt><trkpt lat="45.4817233" lon="11.1261824"><ele>127.0</ele><time>2026-04-06T13:59:28.986Z</time></trkpt><trkpt lat="45.4816576" lon="11.1259908"><ele>128.0</ele><time>2026-04-06T13:59:29.985Z</time></trkpt><trkpt lat="45.481603" lon="11.1258302"><ele>129.0</ele><time>2026-04-06T13:59:30.985Z</time></trkpt><trkpt lat="45.4815536" lon="11.1256829"><ele>130.0</ele><time>2026-04-06T13:59:31.986Z</time></trkpt><trkpt lat="45.4815051" lon="11.1255572"><ele>131.0</ele><time>2026-04-06T13:59:32.985Z</time></trkpt><trkpt lat="45.4814541" lon="11.1254436"><ele>132.0</ele><time>2026-04-06T13:59:33.985Z</time></trkpt><trkpt lat="45.4814017" lon="11.1253432"><ele>133.0</ele><time>2026-04-06T13:59:34.987Z</time></trkpt><trkpt lat="45.4813539" lon="11.1252643"><ele>133.0</ele><time>2026-04-06T13:59:35.986Z</time></trkpt><trkpt lat="45.4813094" lon="11.1251975"><ele>133.0</ele><time>2026-04-06T13:59:36.985Z</time></trkpt><trkpt lat="45.4812638" lon="11.1251306"><ele>133.0</ele><time>2026-04-06T13:59:37.987Z</time></trkpt><trkpt lat="45.4812176" lon="11.1250627"><ele>133.0</ele><time>2026-04-06T13:59:38.985Z</time></trkpt><trkpt lat="45.4811723" lon="11.1249926"><ele>133.0</ele><time>2026-04-06T13:59:39.986Z</time></trkpt><trkpt lat="45.4811216" lon="11.1249029"><ele>133.0</ele><time>2026-04-06T13:59:40.986Z</time></trkpt><trkpt lat="45.4810661" lon="11.1248031"><ele>133.0</ele><time>2026-04-06T13:59:41.986Z</time></trkpt><trkpt lat="45.481001" lon="11.1246884"><ele>132.6</ele><time>2026-04-06T13:59:42.986Z</time></trkpt><trkpt lat="45.4809309" lon="11.124564"><ele>132.20000000000002</ele><time>2026-04-06T13:59:43.985Z</time></trkpt><trkpt lat="45.4808535" lon="11.1244369"><ele>131.8</ele><time>2026-04-06T13:59:44.985Z</time></trkpt><trkpt lat="45.4807837" lon="11.12432"><ele>131.4</ele><time>2026-04-06T13:59:45.985Z</time></trkpt><trkpt lat="45.4807164" lon="11.1242048"><ele>131.0</ele><time>2026-04-06T13:59:46.985Z</time></trkpt><trkpt lat="45.4806532" lon="11.1241041"><ele>131.2</ele><time>2026-04-06T13:59:47.985Z</time></trkpt><trkpt lat="45.4805853" lon="11.1239974"><ele>131.39999999999998</ele><time>2026-04-06T13:59:48.987Z</time></trkpt><trkpt lat="45.4805145" lon="11.123888"><ele>131.6</ele><time>2026-04-06T13:59:49.987Z</time></trkpt><trkpt lat="45.4804463" lon="11.1237866"><ele>131.79999999999998</ele><time>2026-04-06T13:59:50.985Z</time></trkpt><trkpt lat="45.4803848" lon="11.123695"><ele>132.0</ele><time>2026-04-06T13:59:51.986Z</time></trkpt><trkpt lat="45.4803255" lon="11.1236032"><ele>132.0</ele><time>2026-04-06T13:59:52.985Z</time></trkpt><trkpt lat="45.4802731" lon="11.1235134"><ele>132.0</ele><time>2026-04-06T13:59:53.985Z</time></trkpt><trkpt lat="45.4802228" lon="11.1234245"><ele>132.0</ele><time>2026-04-06T13:59:54.986Z</time></trkpt><trkpt lat="45.4801822" lon="11.1233484"><ele>132.0</ele><time>2026-04-06T13:59:55.986Z</time></trkpt><trkpt lat="45.4801353" lon="11.1231923"><ele>132.0</ele><time>2026-04-06T13:59:57.986Z</time></trkpt><trkpt lat="45.4801578" lon="11.1230332"><ele>132.79999999999998</ele><time>2026-04-06T13:59:59.986Z</time></trkpt><trkpt lat="45.4801992" lon="11.1229573"><ele>133.6</ele><time>2026-04-06T14:00:00.985Z</time></trkpt><trkpt lat="45.4802632" lon="11.1228646"><ele>134.39999999999998</ele><time>2026-04-06T14:00:01.985Z</time></trkpt><trkpt lat="45.4803465" lon="11.1227768"><ele>135.2</ele><time>2026-04-06T14:00:02.984Z</time></trkpt><trkpt lat="45.4804425" lon="11.1227051"><ele>136.0</ele><time>2026-04-06T14:00:03.985Z</time></trkpt><trkpt lat="45.4805376" lon="11.122656"><ele>139.0</ele><time>2026-04-06T14:00:04.985Z</time></trkpt><trkpt lat="45.4806137" lon="11.1226436"><ele>142.0</ele><time>2026-04-06T14:00:05.984Z</time></trkpt><trkpt lat="45.4806858" lon="11.122663"><ele>145.0</ele><time>2026-04-06T14:00:06.985Z</time></trkpt><trkpt lat="45.4807566" lon="11.1227129"><ele>148.0</ele><time>2026-04-06T14:00:07.985Z</time></trkpt><trkpt lat="45.4808396" lon="11.1227817"><ele>151.0</ele><time>2026-04-06T14:00:08.985Z</time></trkpt><trkpt lat="45.4809402" lon="11.1228724"><ele>154.0</ele><time>2026-04-06T14:00:09.984Z</time></trkpt><trkpt lat="45.4810474" lon="11.1229683"><ele>154.0</ele><time>2026-04-06T14:00:10.985Z</time></trkpt><trkpt lat="45.4811523" lon="11.1230612"><ele>154.0</ele><time>2026-04-06T14:00:11.985Z</time></trkpt><trkpt lat="45.4812599" lon="11.1231459"><ele>154.0</ele><time>2026-04-06T14:00:12.985Z</time></trkpt><trkpt lat="45.4813825" lon="11.1232165"><ele>154.0</ele><time>2026-04-06T14:00:13.985Z</time></trkpt><trkpt lat="45.481513" lon="11.1232789"><ele>155.0</ele><time>2026-04-06T14:00:14.985Z</time></trkpt><trkpt lat="45.481662" lon="11.1233288"><ele>156.0</ele><time>2026-04-06T14:00:15.986Z</time></trkpt><trkpt lat="45.4818111" lon="11.1233625"><ele>157.0</ele><time>2026-04-06T14:00:16.985Z</time></trkpt><trkpt lat="45.4819606" lon="11.1233829"><ele>162.33333333333334</ele><time>2026-04-06T14:00:17.985Z</time></trkpt><trkpt lat="45.4821243" lon="11.1233953"><ele>167.66666666666666</ele><time>2026-04-06T14:00:18.984Z</time></trkpt><trkpt lat="45.4822757" lon="11.1234095"><ele>173.0</ele><time>2026-04-06T14:00:19.984Z</time></trkpt><trkpt lat="45.4824225" lon="11.1234309"><ele>173.0</ele><time>2026-04-06T14:00:20.985Z</time></trkpt><trkpt lat="45.4825646" lon="11.1234656"><ele>173.0</ele><time>2026-04-06T14:00:21.985Z</time></trkpt><trkpt lat="45.4827061" lon="11.1235131"><ele>173.0</ele><time>2026-04-06T14:00:22.986Z</time></trkpt><trkpt lat="45.4828475" lon="11.1235715"><ele>173.0</ele><time>2026-04-06T14:00:23.984Z</time></trkpt><trkpt lat="45.4829795" lon="11.1236279"><ele>177.5</ele><time>2026-04-06T14:00:24.986Z</time></trkpt><trkpt lat="45.4831053" lon="11.1236924"><ele>182.0</ele><time>2026-04-06T14:00:25.985Z</time></trkpt><trkpt lat="45.4832302" lon="11.1237587"><ele>186.5</ele><time>2026-04-06T14:00:26.985Z</time></trkpt><trkpt lat="45.483362" lon="11.1238105"><ele>191.0</ele><time>2026-04-06T14:00:27.985Z</time></trkpt><trkpt lat="45.4834987" lon="11.1238558"><ele>191.0</ele><time>2026-04-06T14:00:28.985Z</time></trkpt><trkpt lat="45.4836437" lon="11.1238995"><ele>191.0</ele><time>2026-04-06T14:00:29.985Z</time></trkpt><trkpt lat="45.4837829" lon="11.123939"><ele>191.0</ele><time>2026-04-06T14:00:30.984Z</time></trkpt><trkpt lat="45.4839086" lon="11.1239688"><ele>191.0</ele><time>2026-04-06T14:00:31.986Z</time></trkpt><trkpt lat="45.4840368" lon="11.1239957"><ele>192.25</ele><time>2026-04-06T14:00:32.985Z</time></trkpt><trkpt lat="45.4841651" lon="11.1240169"><ele>193.5</ele><time>2026-04-06T14:00:33.984Z</time></trkpt><trkpt lat="45.4842943" lon="11.1240438"><ele>194.75</ele><time>2026-04-06T14:00:34.985Z</time></trkpt><trkpt lat="45.4844285" lon="11.1240706"><ele>196.0</ele><time>2026-04-06T14:00:35.984Z</time></trkpt><trkpt lat="45.4845684" lon="11.1240984"><ele>200.25</ele><time>2026-04-06T14:00:36.986Z</time></trkpt><trkpt lat="45.4847057" lon="11.1241238"><ele>204.5</ele><time>2026-04-06T14:00:37.986Z</time></trkpt><trkpt lat="45.4848342" lon="11.1241461"><ele>208.75</ele><time>2026-04-06T14:00:38.985Z</time></trkpt><trkpt lat="45.4849605" lon="11.1241664"><ele>213.0</ele><time>2026-04-06T14:00:39.986Z</time></trkpt><trkpt lat="45.485081" lon="11.1241876"><ele>213.0</ele><time>2026-04-06T14:00:40.985Z</time></trkpt><trkpt lat="45.4851973" lon="11.1242056"><ele>213.0</ele><time>2026-04-06T14:00:41.985Z</time></trkpt><trkpt lat="45.4852985" lon="11.1242208"><ele>213.0</ele><time>2026-04-06T14:00:42.985Z</time></trkpt><trkpt lat="45.4853822" lon="11.1242349"><ele>213.0</ele><time>2026-04-06T14:00:43.985Z</time></trkpt><trkpt lat="45.4854496" lon="11.124246"><ele>213.0</ele><time>2026-04-06T14:00:44.985Z</time></trkpt><trkpt lat="45.4855816" lon="11.1242675"><ele>214.16666666666666</ele><time>2026-04-06T14:00:46.984Z</time></trkpt><trkpt lat="45.4856682" lon="11.1242751"><ele>215.33333333333331</ele><time>2026-04-06T14:00:47.985Z</time></trkpt><trkpt lat="45.4857618" lon="11.1242709"><ele>216.5</ele><time>2026-04-06T14:00:48.985Z</time></trkpt><trkpt lat="45.4858383" lon="11.1242569"><ele>217.66666666666666</ele><time>2026-04-06T14:00:49.984Z</time></trkpt><trkpt lat="45.4859031" lon="11.1242221"><ele>218.83333333333331</ele><time>2026-04-06T14:00:50.984Z</time></trkpt><trkpt lat="45.4859635" lon="11.1241609"><ele>220.0</ele><time>2026-04-06T14:00:51.984Z</time></trkpt><trkpt lat="45.4859929" lon="11.1240704"><ele>221.49999999999997</ele><time>2026-04-06T14:00:52.986Z</time></trkpt><trkpt lat="45.4859959" lon="11.1239746"><ele>223.0</ele><time>2026-04-06T14:00:53.985Z</time></trkpt><trkpt lat="45.4859719" lon="11.1238803"><ele>224.5</ele><time>2026-04-06T14:00:54.985Z</time></trkpt><trkpt lat="45.4859219" lon="11.1237923"><ele>226.0</ele><time>2026-04-06T14:00:55.985Z</time></trkpt><trkpt lat="45.4858542" lon="11.1237115"><ele>227.49999999999997</ele><time>2026-04-06T14:00:56.985Z</time></trkpt><trkpt lat="45.4857652" lon="11.1236364"><ele>229.0</ele><time>2026-04-06T14:00:57.985Z</time></trkpt><trkpt lat="45.4856713" lon="11.1235515"><ele>228.99999999999997</ele><time>2026-04-06T14:00:58.985Z</time></trkpt><trkpt lat="45.4855866" lon="11.1234596"><ele>229.0</ele><time>2026-04-06T14:00:59.985Z</time></trkpt><trkpt lat="45.4855139" lon="11.123364"><ele>229.0</ele><time>2026-04-06T14:01:00.985Z</time></trkpt><trkpt lat="45.4854567" lon="11.1232678"><ele>229.0</ele><time>2026-04-06T14:01:01.984Z</time></trkpt><trkpt lat="45.4854152" lon="11.1231758"><ele>228.99999999999997</ele><time>2026-04-06T14:01:02.984Z</time></trkpt><trkpt lat="45.485391" lon="11.1230873"><ele>229.0</ele><time>2026-04-06T14:01:03.984Z</time></trkpt><trkpt lat="45.4853861" lon="11.1229887"><ele>231.39999999999998</ele><time>2026-04-06T14:01:04.985Z</time></trkpt><trkpt lat="45.4853934" lon="11.1228697"><ele>233.79999999999998</ele><time>2026-04-06T14:01:05.985Z</time></trkpt><trkpt lat="45.4854153" lon="11.1227352"><ele>236.20000000000002</ele><time>2026-04-06T14:01:06.985Z</time></trkpt><trkpt lat="45.4854552" lon="11.1225811"><ele>238.60000000000002</ele><time>2026-04-06T14:01:07.985Z</time></trkpt><trkpt lat="45.4855018" lon="11.122436"><ele>241.0</ele><time>2026-04-06T14:01:08.985Z</time></trkpt><trkpt lat="45.4855459" lon="11.1222952"><ele>244.0</ele><time>2026-04-06T14:01:09.984Z</time></trkpt><trkpt lat="45.4855754" lon="11.1221567"><ele>247.00000000000003</ele><time>2026-04-06T14:01:10.985Z</time></trkpt><trkpt lat="45.4855838" lon="11.1220231"><ele>250.00000000000003</ele><time>2026-04-06T14:01:11.984Z</time></trkpt><trkpt lat="45.4855784" lon="11.1218838"><ele>253.0</ele><time>2026-04-06T14:01:12.985Z</time></trkpt><trkpt lat="45.4855628" lon="11.1217306"><ele>256.0</ele><time>2026-04-06T14:01:13.984Z</time></trkpt><trkpt lat="45.4855362" lon="11.1215696"><ele>258.6</ele><time>2026-04-06T14:01:14.985Z</time></trkpt><trkpt lat="45.4855054" lon="11.1213965"><ele>261.20000000000005</ele><time>2026-04-06T14:01:15.985Z</time></trkpt><trkpt lat="45.4854829" lon="11.1212527"><ele>263.79999999999995</ele><time>2026-04-06T14:01:16.986Z</time></trkpt><trkpt lat="45.4854676" lon="11.121123"><ele>266.4</ele><time>2026-04-06T14:01:17.984Z</time></trkpt><trkpt lat="45.4854661" lon="11.1209907"><ele>269.0</ele><time>2026-04-06T14:01:18.985Z</time></trkpt><trkpt lat="45.4854856" lon="11.1208479"><ele>271.75</ele><time>2026-04-06T14:01:19.984Z</time></trkpt><trkpt lat="45.4855185" lon="11.1206869"><ele>274.5</ele><time>2026-04-06T14:01:20.985Z</time></trkpt><trkpt lat="45.4855597" lon="11.1205039"><ele>277.25</ele><time>2026-04-06T14:01:21.986Z</time></trkpt><trkpt lat="45.485613" lon="11.120299"><ele>280.0</ele><time>2026-04-06T14:01:22.984Z</time></trkpt><trkpt lat="45.4856781" lon="11.1200576"><ele>281.66666666666663</ele><time>2026-04-06T14:01:23.985Z</time></trkpt><trkpt lat="45.4857448" lon="11.1198235"><ele>283.3333333333333</ele><time>2026-04-06T14:01:24.985Z</time></trkpt><trkpt lat="45.4858214" lon="11.1195722"><ele>285.0</ele><time>2026-04-06T14:01:25.984Z</time></trkpt><trkpt lat="45.4858945" lon="11.1193472"><ele>285.0</ele><time>2026-04-06T14:01:26.985Z</time></trkpt><trkpt lat="45.4859679" lon="11.1191236"><ele>285.0</ele><time>2026-04-06T14:01:27.985Z</time></trkpt><trkpt lat="45.4860363" lon="11.1189124"><ele>285.0</ele><time>2026-04-06T14:01:28.985Z</time></trkpt><trkpt lat="45.4861018" lon="11.1187159"><ele>287.25</ele><time>2026-04-06T14:01:29.984Z</time></trkpt><trkpt lat="45.4861639" lon="11.1185354"><ele>289.5</ele><time>2026-04-06T14:01:30.984Z</time></trkpt><trkpt lat="45.4862215" lon="11.1183786"><ele>291.75</ele><time>2026-04-06T14:01:31.984Z</time></trkpt><trkpt lat="45.4862799" lon="11.1182442"><ele>294.0</ele><time>2026-04-06T14:01:32.985Z</time></trkpt><trkpt lat="45.4863417" lon="11.1181485"><ele>298.8</ele><time>2026-04-06T14:01:33.986Z</time></trkpt><trkpt lat="45.4864166" lon="11.1180777"><ele>303.59999999999997</ele><time>2026-04-06T14:01:34.985Z</time></trkpt><trkpt lat="45.4865067" lon="11.1180302"><ele>308.4</ele><time>2026-04-06T14:01:35.985Z</time></trkpt><trkpt lat="45.4866163" lon="11.1179926"><ele>313.2</ele><time>2026-04-06T14:01:36.985Z</time></trkpt><trkpt lat="45.4867234" lon="11.1179562"><ele>318.0</ele><time>2026-04-06T14:01:37.984Z</time></trkpt><trkpt lat="45.4868048" lon="11.1179287"><ele>318.0</ele><time>2026-04-06T14:01:38.986Z</time></trkpt><trkpt lat="45.4868696" lon="11.1179105"><ele>318.0</ele><time>2026-04-06T14:01:39.984Z</time></trkpt><trkpt lat="45.4869608" lon="11.117872"><ele>318.0</ele><time>2026-04-06T14:01:41.986Z</time></trkpt><trkpt lat="45.4870158" lon="11.1178014"><ele>318.0</ele><time>2026-04-06T14:01:43.984Z</time></trkpt><trkpt lat="45.487004" lon="11.1176906"><ele>318.0</ele><time>2026-04-06T14:01:45.985Z</time></trkpt><trkpt lat="45.4869012" lon="11.1175826"><ele>318.0</ele><time>2026-04-06T14:01:47.984Z</time></trkpt><trkpt lat="45.486821" lon="11.1175078"><ele>318.0</ele><time>2026-04-06T14:01:48.985Z</time></trkpt><trkpt lat="45.4867427" lon="11.1174275"><ele>318.0</ele><time>2026-04-06T14:01:49.984Z</time></trkpt><trkpt lat="45.4866644" lon="11.1173329"><ele>318.0</ele><time>2026-04-06T14:01:50.984Z</time></trkpt><trkpt lat="45.4865948" lon="11.1172305"><ele>318.0</ele><time>2026-04-06T14:01:51.984Z</time></trkpt><trkpt lat="45.4865405" lon="11.1171265"><ele>318.0</ele><time>2026-04-06T14:01:52.985Z</time></trkpt><trkpt lat="45.4865033" lon="11.1170161"><ele>320.4</ele><time>2026-04-06T14:01:53.986Z</time></trkpt><trkpt lat="45.4864858" lon="11.1169137"><ele>322.8</ele><time>2026-04-06T14:01:54.984Z</time></trkpt><trkpt lat="45.4865098" lon="11.116748"><ele>325.2</ele><time>2026-04-06T14:01:56.985Z</time></trkpt><trkpt lat="45.4865535" lon="11.1166695"><ele>327.6</ele><time>2026-04-06T14:01:57.984Z</time></trkpt><trkpt lat="45.4866209" lon="11.1165804"><ele>330.0</ele><time>2026-04-06T14:01:58.984Z</time></trkpt><trkpt lat="45.4866995" lon="11.1164707"><ele>331.75</ele><time>2026-04-06T14:01:59.984Z</time></trkpt><trkpt lat="45.4867856" lon="11.1163361"><ele>333.5</ele><time>2026-04-06T14:02:00.985Z</time></trkpt><trkpt lat="45.4868633" lon="11.1161938"><ele>335.25</ele><time>2026-04-06T14:02:01.984Z</time></trkpt><trkpt lat="45.4869531" lon="11.1160282"><ele>337.0</ele><time>2026-04-06T14:02:02.985Z</time></trkpt><trkpt lat="45.4870465" lon="11.1158788"><ele>338.25</ele><time>2026-04-06T14:02:03.984Z</time></trkpt><trkpt lat="45.4871368" lon="11.1157565"><ele>339.5</ele><time>2026-04-06T14:02:04.984Z</time></trkpt><trkpt lat="45.4872261" lon="11.1156582"><ele>340.75</ele><time>2026-04-06T14:02:05.984Z</time></trkpt><trkpt lat="45.48733" lon="11.1155819"><ele>342.0</ele><time>2026-04-06T14:02:06.985Z</time></trkpt><trkpt lat="45.4874418" lon="11.1155121"><ele>345.5</ele><time>2026-04-06T14:02:07.985Z</time></trkpt><trkpt lat="45.4875491" lon="11.1154424"><ele>349.0</ele><time>2026-04-06T14:02:08.985Z</time></trkpt><trkpt lat="45.4876475" lon="11.1153598"><ele>352.5</ele><time>2026-04-06T14:02:09.985Z</time></trkpt><trkpt lat="45.4877531" lon="11.1152484"><ele>356.0</ele><time>2026-04-06T14:02:10.985Z</time></trkpt><trkpt lat="45.4878676" lon="11.1151155"><ele>355.25</ele><time>2026-04-06T14:02:11.984Z</time></trkpt><trkpt lat="45.487995" lon="11.1149656"><ele>354.5</ele><time>2026-04-06T14:02:12.985Z</time></trkpt><trkpt lat="45.4881041" lon="11.1148301"><ele>353.75</ele><time>2026-04-06T14:02:13.986Z</time></trkpt><trkpt lat="45.4882056" lon="11.1147031"><ele>353.0</ele><time>2026-04-06T14:02:14.984Z</time></trkpt><trkpt lat="45.4883042" lon="11.1145686"><ele>357.6666666666667</ele><time>2026-04-06T14:02:15.985Z</time></trkpt><trkpt lat="45.4884063" lon="11.114418"><ele>362.3333333333333</ele><time>2026-04-06T14:02:16.985Z</time></trkpt><trkpt lat="45.4885169" lon="11.1142459"><ele>367.0</ele><time>2026-04-06T14:02:17.985Z</time></trkpt><trkpt lat="45.4886326" lon="11.1140568"><ele>369.0</ele><time>2026-04-06T14:02:18.985Z</time></trkpt><trkpt lat="45.4887266" lon="11.1138995"><ele>371.0</ele><time>2026-04-06T14:02:19.986Z</time></trkpt><trkpt lat="45.488801" lon="11.1137684"><ele>373.0</ele><time>2026-04-06T14:02:20.985Z</time></trkpt><trkpt lat="45.4888604" lon="11.1136498"><ele>375.0</ele><time>2026-04-06T14:02:21.984Z</time></trkpt><trkpt lat="45.48891" lon="11.1135488"><ele>375.0</ele><time>2026-04-06T14:02:22.985Z</time></trkpt><trkpt lat="45.488955" lon="11.1134357"><ele>375.0</ele><time>2026-04-06T14:02:23.984Z</time></trkpt><trkpt lat="45.4889856" lon="11.1133242"><ele>375.0</ele><time>2026-04-06T14:02:24.985Z</time></trkpt><trkpt lat="45.4890153" lon="11.1132158"><ele>375.0</ele><time>2026-04-06T14:02:25.985Z</time></trkpt><trkpt lat="45.489058" lon="11.11311"><ele>375.0</ele><time>2026-04-06T14:02:26.984Z</time></trkpt><trkpt lat="45.4891234" lon="11.1130093"><ele>375.0</ele><time>2026-04-06T14:02:27.985Z</time></trkpt><trkpt lat="45.4891993" lon="11.1129023"><ele>378.5</ele><time>2026-04-06T14:02:28.985Z</time></trkpt><trkpt lat="45.4892838" lon="11.1127793"><ele>382.0</ele><time>2026-04-06T14:02:29.984Z</time></trkpt><trkpt lat="45.4893652" lon="11.1126392"><ele>385.5</ele><time>2026-04-06T14:02:30.986Z</time></trkpt><trkpt lat="45.4894415" lon="11.1124906"><ele>389.0</ele><time>2026-04-06T14:02:31.985Z</time></trkpt><trkpt lat="45.489524" lon="11.1123269"><ele>389.25</ele><time>2026-04-06T14:02:32.985Z</time></trkpt><trkpt lat="45.4895969" lon="11.1121613"><ele>389.5</ele><time>2026-04-06T14:02:33.986Z</time></trkpt><trkpt lat="45.489655" lon="11.1119819"><ele>389.75</ele><time>2026-04-06T14:02:34.984Z</time></trkpt><trkpt lat="45.4897085" lon="11.1117908"><ele>390.0</ele><time>2026-04-06T14:02:35.986Z</time></trkpt><trkpt lat="45.4897608" lon="11.1116046"><ele>393.5</ele><time>2026-04-06T14:02:36.985Z</time></trkpt><trkpt lat="45.4898237" lon="11.1114188"><ele>397.0</ele><time>2026-04-06T14:02:37.985Z</time></trkpt><trkpt lat="45.4898868" lon="11.1112505"><ele>400.5</ele><time>2026-04-06T14:02:38.984Z</time></trkpt><trkpt lat="45.4899532" lon="11.1110853"><ele>404.0</ele><time>2026-04-06T14:02:39.984Z</time></trkpt><trkpt lat="45.4900186" lon="11.110924"><ele>404.0</ele><time>2026-04-06T14:02:40.985Z</time></trkpt><trkpt lat="45.490091" lon="11.1107688"><ele>404.0</ele><time>2026-04-06T14:02:41.985Z</time></trkpt><trkpt lat="45.4901781" lon="11.1106241"><ele>404.0</ele><time>2026-04-06T14:02:42.986Z</time></trkpt><trkpt lat="45.4902804" lon="11.110479"><ele>404.0</ele><time>2026-04-06T14:02:43.986Z</time></trkpt><trkpt lat="45.490385" lon="11.1103285"><ele>403.0</ele><time>2026-04-06T14:02:44.984Z</time></trkpt><trkpt lat="45.4904774" lon="11.1101944"><ele>402.0</ele><time>2026-04-06T14:02:45.986Z</time></trkpt><trkpt lat="45.4905642" lon="11.1100685"><ele>401.0</ele><time>2026-04-06T14:02:46.984Z</time></trkpt><trkpt lat="45.4906519" lon="11.1099474"><ele>400.0</ele><time>2026-04-06T14:02:47.985Z</time></trkpt><trkpt lat="45.4907338" lon="11.1098334"><ele>405.5</ele><time>2026-04-06T14:02:48.985Z</time></trkpt><trkpt lat="45.4908069" lon="11.1097276"><ele>411.0</ele><time>2026-04-06T14:02:49.985Z</time></trkpt><trkpt lat="45.4908803" lon="11.1096096"><ele>416.5</ele><time>2026-04-06T14:02:50.984Z</time></trkpt><trkpt lat="45.4909514" lon="11.1094782"><ele>422.0</ele><time>2026-04-06T14:02:51.985Z</time></trkpt><trkpt lat="45.4910207" lon="11.1093377"><ele>422.0</ele><time>2026-04-06T14:02:52.985Z</time></trkpt><trkpt lat="45.4910916" lon="11.1092009"><ele>422.0</ele><time>2026-04-06T14:02:53.984Z</time></trkpt><trkpt lat="45.4911571" lon="11.1090604"><ele>422.0</ele><time>2026-04-06T14:02:54.984Z</time></trkpt><trkpt lat="45.4912251" lon="11.108918"><ele>422.0</ele><time>2026-04-06T14:02:55.985Z</time></trkpt><trkpt lat="45.4912918" lon="11.108772"><ele>420.75</ele><time>2026-04-06T14:02:56.985Z</time></trkpt><trkpt lat="45.4913607" lon="11.1086271"><ele>419.5</ele><time>2026-04-06T14:02:57.985Z</time></trkpt><trkpt lat="45.4914311" lon="11.1084852"><ele>418.25</ele><time>2026-04-06T14:02:58.984Z</time></trkpt><trkpt lat="45.4914966" lon="11.108335"><ele>417.0</ele><time>2026-04-06T14:02:59.985Z</time></trkpt><trkpt lat="45.4915548" lon="11.1082047"><ele>420.75</ele><time>2026-04-06T14:03:00.985Z</time></trkpt><trkpt lat="45.4916155" lon="11.1080627"><ele>424.5</ele><time>2026-04-06T14:03:01.984Z</time></trkpt><trkpt lat="45.4916764" lon="11.1079219"><ele>428.25</ele><time>2026-04-06T14:03:02.986Z</time></trkpt><trkpt lat="45.4917427" lon="11.1077838"><ele>432.0</ele><time>2026-04-06T14:03:03.984Z</time></trkpt><trkpt lat="45.4918107" lon="11.1076598"><ele>432.0</ele><time>2026-04-06T14:03:04.985Z</time></trkpt><trkpt lat="45.491877" lon="11.107538"><ele>432.00000000000006</ele><time>2026-04-06T14:03:05.985Z</time></trkpt><trkpt lat="45.4919379" lon="11.1074089"><ele>432.00000000000006</ele><time>2026-04-06T14:03:06.984Z</time></trkpt><trkpt lat="45.4919927" lon="11.1072738"><ele>432.0</ele><time>2026-04-06T14:03:07.986Z</time></trkpt><trkpt lat="45.4920431" lon="11.1071294"><ele>432.0</ele><time>2026-04-06T14:03:08.984Z</time></trkpt><trkpt lat="45.492092" lon="11.1069761"><ele>432.40000000000003</ele><time>2026-04-06T14:03:09.985Z</time></trkpt><trkpt lat="45.4921331" lon="11.106829"><ele>432.80000000000007</ele><time>2026-04-06T14:03:10.985Z</time></trkpt><trkpt lat="45.4921724" lon="11.1067021"><ele>433.2</ele><time>2026-04-06T14:03:11.985Z</time></trkpt><trkpt lat="45.492203" lon="11.1065918"><ele>433.6</ele><time>2026-04-06T14:03:12.985Z</time></trkpt><trkpt lat="45.4922243" lon="11.106501"><ele>434.0</ele><time>2026-04-06T14:03:13.984Z</time></trkpt><trkpt lat="45.4922619" lon="11.1063549"><ele>435.3333333333333</ele><time>2026-04-06T14:03:15.986Z</time></trkpt><trkpt lat="45.4923317" lon="11.1062487"><ele>436.66666666666663</ele><time>2026-04-06T14:03:17.986Z</time></trkpt><trkpt lat="45.4924254" lon="11.106212"><ele>438.0</ele><time>2026-04-06T14:03:19.985Z</time></trkpt><trkpt lat="45.4925014" lon="11.1062194"><ele>439.33333333333337</ele><time>2026-04-06T14:03:21.985Z</time></trkpt><trkpt lat="45.4925808" lon="11.1061774"><ele>440.6666666666667</ele><time>2026-04-06T14:03:24.984Z</time></trkpt><trkpt lat="45.492588" lon="11.1060859"><ele>442.0</ele><time>2026-04-06T14:03:26.985Z</time></trkpt><trkpt lat="45.4925295" lon="11.1060376"><ele>442.00000000000006</ele><time>2026-04-06T14:03:28.985Z</time></trkpt><trkpt lat="45.492444" lon="11.1060026"><ele>442.0</ele><time>2026-04-06T14:03:30.986Z</time></trkpt><trkpt lat="45.4923979" lon="11.1058617"><ele>442.0</ele><time>2026-04-06T14:03:32.985Z</time></trkpt><trkpt lat="45.4923961" lon="11.1057664"><ele>442.0</ele><time>2026-04-06T14:03:33.984Z</time></trkpt><trkpt lat="45.4924041" lon="11.1056643"><ele>442.00000000000006</ele><time>2026-04-06T14:03:34.984Z</time></trkpt><trkpt lat="45.4924215" lon="11.1055606"><ele>442.0</ele><time>2026-04-06T14:03:35.984Z</time></trkpt><trkpt lat="45.492436" lon="11.1054636"><ele>441.6666666666667</ele><time>2026-04-06T14:03:36.984Z</time></trkpt><trkpt lat="45.4924539" lon="11.1053699"><ele>441.33333333333337</ele><time>2026-04-06T14:03:37.985Z</time></trkpt><trkpt lat="45.492478" lon="11.1052673"><ele>441.0</ele><time>2026-04-06T14:03:38.984Z</time></trkpt><trkpt lat="45.4925119" lon="11.1051532"><ele>440.66666666666663</ele><time>2026-04-06T14:03:39.985Z</time></trkpt><trkpt lat="45.4925519" lon="11.1050503"><ele>440.3333333333333</ele><time>2026-04-06T14:03:40.986Z</time></trkpt><trkpt lat="45.4926037" lon="11.1049509"><ele>440.0</ele><time>2026-04-06T14:03:41.984Z</time></trkpt><trkpt lat="45.4926663" lon="11.1048464"><ele>440.8</ele><time>2026-04-06T14:03:42.985Z</time></trkpt><trkpt lat="45.4927347" lon="11.1047456"><ele>441.6</ele><time>2026-04-06T14:03:43.986Z</time></trkpt><trkpt lat="45.492803" lon="11.104652"><ele>442.4</ele><time>2026-04-06T14:03:44.984Z</time></trkpt><trkpt lat="45.4928817" lon="11.1045548"><ele>443.2</ele><time>2026-04-06T14:03:45.985Z</time></trkpt><trkpt lat="45.4929636" lon="11.1044554"><ele>444.0</ele><time>2026-04-06T14:03:46.985Z</time></trkpt><trkpt lat="45.4930479" lon="11.1043518"><ele>444.0</ele><time>2026-04-06T14:03:47.985Z</time></trkpt><trkpt lat="45.4931318" lon="11.1042431"><ele>444.0</ele><time>2026-04-06T14:03:48.985Z</time></trkpt><trkpt lat="45.4932214" lon="11.1041379"><ele>444.0</ele><time>2026-04-06T14:03:49.985Z</time></trkpt><trkpt lat="45.4933114" lon="11.1040262"><ele>444.0</ele><time>2026-04-06T14:03:50.984Z</time></trkpt><trkpt lat="45.493408" lon="11.1039022"><ele>441.0</ele><time>2026-04-06T14:03:51.984Z</time></trkpt><trkpt lat="45.4935073" lon="11.1037688"><ele>438.0</ele><time>2026-04-06T14:03:52.985Z</time></trkpt><trkpt lat="45.4935967" lon="11.1036326"><ele>435.0</ele><time>2026-04-06T14:03:53.985Z</time></trkpt><trkpt lat="45.4936724" lon="11.1034939"><ele>432.0</ele><time>2026-04-06T14:03:54.986Z</time></trkpt><trkpt lat="45.4937327" lon="11.103345"><ele>436.75</ele><time>2026-04-06T14:03:55.984Z</time></trkpt><trkpt lat="45.4937777" lon="11.1031691"><ele>441.5</ele><time>2026-04-06T14:03:56.985Z</time></trkpt><trkpt lat="45.4938053" lon="11.1029674"><ele>446.25</ele><time>2026-04-06T14:03:57.985Z</time></trkpt><trkpt lat="45.4938168" lon="11.1027649"><ele>451.0</ele><time>2026-04-06T14:03:58.985Z</time></trkpt><trkpt lat="45.49381" lon="11.1025416"><ele>450.0</ele><time>2026-04-06T14:03:59.986Z</time></trkpt><trkpt lat="45.4937896" lon="11.1023089"><ele>449.0</ele><time>2026-04-06T14:04:00.984Z</time></trkpt><trkpt lat="45.4937703" lon="11.1020904"><ele>448.0</ele><time>2026-04-06T14:04:01.985Z</time></trkpt><trkpt lat="45.4937465" lon="11.1019114"><ele>447.0</ele><time>2026-04-06T14:04:02.984Z</time></trkpt><trkpt lat="45.4937046" lon="11.1017441"><ele>442.5</ele><time>2026-04-06T14:04:03.985Z</time></trkpt><trkpt lat="45.4936433" lon="11.101603"><ele>438.0</ele><time>2026-04-06T14:04:04.986Z</time></trkpt><trkpt lat="45.4935643" lon="11.1014887"><ele>433.5</ele><time>2026-04-06T14:04:05.984Z</time></trkpt><trkpt lat="45.4934708" lon="11.1013859"><ele>429.0</ele><time>2026-04-06T14:04:06.986Z</time></trkpt><trkpt lat="45.493386" lon="11.1012905"><ele>429.0</ele><time>2026-04-06T14:04:07.985Z</time></trkpt><trkpt lat="45.4933178" lon="11.1011729"><ele>429.0</ele><time>2026-04-06T14:04:08.985Z</time></trkpt><trkpt lat="45.4932636" lon="11.1010233"><ele>429.0</ele><time>2026-04-06T14:04:09.985Z</time></trkpt><trkpt lat="45.4932319" lon="11.1008412"><ele>429.0</ele><time>2026-04-06T14:04:10.985Z</time></trkpt><trkpt lat="45.493223" lon="11.1006423"><ele>427.66666666666663</ele><time>2026-04-06T14:04:11.986Z</time></trkpt><trkpt lat="45.4932343" lon="11.1004218"><ele>426.3333333333333</ele><time>2026-04-06T14:04:12.984Z</time></trkpt><trkpt lat="45.4932771" lon="11.1001606"><ele>425.0</ele><time>2026-04-06T14:04:13.985Z</time></trkpt><trkpt lat="45.4933199" lon="11.0998838"><ele>423.0</ele><time>2026-04-06T14:04:14.985Z</time></trkpt><trkpt lat="45.4933571" lon="11.0995941"><ele>421.0</ele><time>2026-04-06T14:04:15.985Z</time></trkpt><trkpt lat="45.4933843" lon="11.0993092"><ele>419.0</ele><time>2026-04-06T14:04:16.985Z</time></trkpt><trkpt lat="45.4934061" lon="11.0990609"><ele>417.0</ele><time>2026-04-06T14:04:17.985Z</time></trkpt><trkpt lat="45.4934239" lon="11.098852"><ele>415.0</ele><time>2026-04-06T14:04:18.985Z</time></trkpt><trkpt lat="45.4934425" lon="11.0986606"><ele>413.0</ele><time>2026-04-06T14:04:19.985Z</time></trkpt><trkpt lat="45.4934668" lon="11.0984821"><ele>411.0</ele><time>2026-04-06T14:04:20.984Z</time></trkpt><trkpt lat="45.4935118" lon="11.0983222"><ele>410.8</ele><time>2026-04-06T14:04:21.985Z</time></trkpt><trkpt lat="45.4935713" lon="11.0981858"><ele>410.6</ele><time>2026-04-06T14:04:22.984Z</time></trkpt><trkpt lat="45.4936429" lon="11.0980825"><ele>410.4</ele><time>2026-04-06T14:04:23.985Z</time></trkpt><trkpt lat="45.4937345" lon="11.0980082"><ele>410.2</ele><time>2026-04-06T14:04:24.985Z</time></trkpt><trkpt lat="45.4938444" lon="11.0979595"><ele>410.0</ele><time>2026-04-06T14:04:25.984Z</time></trkpt><trkpt lat="45.4939709" lon="11.0979348"><ele>410.0</ele><time>2026-04-06T14:04:26.984Z</time></trkpt><trkpt lat="45.4941105" lon="11.0979232"><ele>410.0</ele><time>2026-04-06T14:04:27.985Z</time></trkpt><trkpt lat="45.4942504" lon="11.0979122"><ele>410.0</ele><time>2026-04-06T14:04:28.985Z</time></trkpt><trkpt lat="45.4943809" lon="11.0979012"><ele>410.0</ele><time>2026-04-06T14:04:29.985Z</time></trkpt><trkpt lat="45.4944997" lon="11.0978904"><ele>413.3333333333333</ele><time>2026-04-06T14:04:30.986Z</time></trkpt><trkpt lat="45.4946069" lon="11.0978799"><ele>416.66666666666663</ele><time>2026-04-06T14:04:31.986Z</time></trkpt><trkpt lat="45.494702" lon="11.0978659"><ele>420.0</ele><time>2026-04-06T14:04:32.984Z</time></trkpt><trkpt lat="45.494779" lon="11.0978374"><ele>423.33333333333337</ele><time>2026-04-06T14:04:33.985Z</time></trkpt><trkpt lat="45.4948349" lon="11.0977769"><ele>426.6666666666667</ele><time>2026-04-06T14:04:34.984Z</time></trkpt><trkpt lat="45.4948661" lon="11.0976843"><ele>430.0</ele><time>2026-04-06T14:04:35.985Z</time></trkpt><trkpt lat="45.4948696" lon="11.0975617"><ele>430.0</ele><time>2026-04-06T14:04:36.986Z</time></trkpt><trkpt lat="45.4948419" lon="11.0974257"><ele>430.0</ele><time>2026-04-06T14:04:37.985Z</time></trkpt><trkpt lat="45.4947837" lon="11.0972774"><ele>430.0</ele><time>2026-04-06T14:04:38.985Z</time></trkpt><trkpt lat="45.4946978" lon="11.097099"><ele>430.0</ele><time>2026-04-06T14:04:39.985Z</time></trkpt><trkpt lat="45.4945966" lon="11.0969342"><ele>424.5</ele><time>2026-04-06T14:04:40.984Z</time></trkpt><trkpt lat="45.4944892" lon="11.096798"><ele>419.0</ele><time>2026-04-06T14:04:41.984Z</time></trkpt><trkpt lat="45.4943836" lon="11.0966748"><ele>413.5</ele><time>2026-04-06T14:04:42.984Z</time></trkpt><trkpt lat="45.4942905" lon="11.0965497"><ele>408.0</ele><time>2026-04-06T14:04:43.985Z</time></trkpt><trkpt lat="45.4942164" lon="11.0964191"><ele>408.0</ele><time>2026-04-06T14:04:44.984Z</time></trkpt><trkpt lat="45.4941559" lon="11.0962729"><ele>408.0</ele><time>2026-04-06T14:04:45.984Z</time></trkpt><trkpt lat="45.4941196" lon="11.0961125"><ele>408.0</ele><time>2026-04-06T14:04:46.986Z</time></trkpt><trkpt lat="45.4941161" lon="11.0959565"><ele>408.0</ele><time>2026-04-06T14:04:47.985Z</time></trkpt><trkpt lat="45.4941474" lon="11.095786"><ele>406.0</ele><time>2026-04-06T14:04:48.985Z</time></trkpt><trkpt lat="45.4942064" lon="11.0956019"><ele>404.0</ele><time>2026-04-06T14:04:49.984Z</time></trkpt><trkpt lat="45.4942814" lon="11.0953883"><ele>402.0</ele><time>2026-04-06T14:04:50.986Z</time></trkpt><trkpt lat="45.4943622" lon="11.095164"><ele>402.0</ele><time>2026-04-06T14:04:51.985Z</time></trkpt><trkpt lat="45.4944364" lon="11.0949626"><ele>402.0</ele><time>2026-04-06T14:04:52.985Z</time></trkpt><trkpt lat="45.4945096" lon="11.0947952"><ele>402.0</ele><time>2026-04-06T14:04:53.984Z</time></trkpt><trkpt lat="45.4946026" lon="11.0946501"><ele>402.0</ele><time>2026-04-06T14:04:54.985Z</time></trkpt><trkpt lat="45.4947185" lon="11.0945207"><ele>402.75</ele><time>2026-04-06T14:04:55.985Z</time></trkpt><trkpt lat="45.4948343" lon="11.0944011"><ele>403.5</ele><time>2026-04-06T14:04:56.984Z</time></trkpt><trkpt lat="45.4949337" lon="11.0942922"><ele>404.25</ele><time>2026-04-06T14:04:57.985Z</time></trkpt><trkpt lat="45.4950196" lon="11.0941898"><ele>405.0</ele><time>2026-04-06T14:04:58.985Z</time></trkpt><trkpt lat="45.4950866" lon="11.0940966"><ele>406.33333333333337</ele><time>2026-04-06T14:04:59.984Z</time></trkpt><trkpt lat="45.4951302" lon="11.0939886"><ele>407.6666666666667</ele><time>2026-04-06T14:05:00.985Z</time></trkpt><trkpt lat="45.495149" lon="11.0938721"><ele>409.0</ele><time>2026-04-06T14:05:01.985Z</time></trkpt><trkpt lat="45.4946069" lon="11.0978799"><ele>412.50000000000006</ele><time>2026-04-06T14:04:31.986Z</time></trkpt><trkpt lat="45.494702" lon="11.0978659"><ele>416.0</ele><time>2026-04-06T14:04:32.984Z</time></trkpt><trkpt lat="45.494779" lon="11.0978374"><ele>419.5</ele><time>2026-04-06T14:04:33.985Z</time></trkpt><trkpt lat="45.4948349" lon="11.0977769"><ele>423.0</ele><time>2026-04-06T14:04:34.984Z</time></trkpt><trkpt lat="45.4948661" lon="11.0976843"><ele>426.50000000000006</ele><time>2026-04-06T14:04:35.985Z</time></trkpt><trkpt lat="45.4948696" lon="11.0975617"><ele>430.0</ele><time>2026-04-06T14:04:36.986Z</time></trkpt><trkpt lat="45.4948419" lon="11.0974257"><ele>431.0</ele><time>2026-04-06T14:04:37.985Z</time></trkpt><trkpt lat="45.4947837" lon="11.0972774"><ele>432.0</ele><time>2026-04-06T14:04:38.985Z</time></trkpt><trkpt lat="45.4946978" lon="11.097099"><ele>433.0</ele><time>2026-04-06T14:04:39.985Z</time></trkpt><trkpt lat="45.4945966" lon="11.0969342"><ele>434.0</ele><time>2026-04-06T14:04:40.984Z</time></trkpt><trkpt lat="45.4944892" lon="11.096798"><ele>427.5</ele><time>2026-04-06T14:04:41.984Z</time></trkpt><trkpt lat="45.4943836" lon="11.0966748"><ele>421.0</ele><time>2026-04-06T14:04:42.984Z</time></trkpt><trkpt lat="45.4942905" lon="11.0965497"><ele>414.5</ele><time>2026-04-06T14:04:43.985Z</time></trkpt><trkpt lat="45.4942164" lon="11.0964191"><ele>408.0</ele><time>2026-04-06T14:04:44.984Z</time></trkpt><trkpt lat="45.4941559" lon="11.0962729"><ele>408.0</ele><time>2026-04-06T14:04:45.984Z</time></trkpt><trkpt lat="45.4941196" lon="11.0961125"><ele>408.0</ele><time>2026-04-06T14:04:46.986Z</time></trkpt><trkpt lat="45.4941161" lon="11.0959565"><ele>408.0</ele><time>2026-04-06T14:04:47.985Z</time></trkpt><trkpt lat="45.4941474" lon="11.095786"><ele>408.0</ele><time>2026-04-06T14:04:48.985Z</time></trkpt><trkpt lat="45.4942064" lon="11.0956019"><ele>406.0</ele><time>2026-04-06T14:04:49.984Z</time></trkpt><trkpt lat="45.4942814" lon="11.0953883"><ele>404.0</ele><time>2026-04-06T14:04:50.986Z</time></trkpt><trkpt lat="45.4943622" lon="11.095164"><ele>402.0</ele><time>2026-04-06T14:04:51.985Z</time></trkpt><trkpt lat="45.4944364" lon="11.0949626"><ele>402.75</ele><time>2026-04-06T14:04:52.985Z</time></trkpt><trkpt lat="45.4945096" lon="11.0947952"><ele>403.5</ele><time>2026-04-06T14:04:53.984Z</time></trkpt><trkpt lat="45.4946026" lon="11.0946501"><ele>404.25</ele><time>2026-04-06T14:04:54.985Z</time></trkpt><trkpt lat="45.4947185" lon="11.0945207"><ele>405.0</ele><time>2026-04-06T14:04:55.985Z</time></trkpt><trkpt lat="45.4948343" lon="11.0944011"><ele>405.0</ele><time>2026-04-06T14:04:56.984Z</time></trkpt><trkpt lat="45.4949337" lon="11.0942922"><ele>405.0</ele><time>2026-04-06T14:04:57.985Z</time></trkpt><trkpt lat="45.4950196" lon="11.0941898"><ele>405.0</ele><time>2026-04-06T14:04:58.985Z</time></trkpt><trkpt lat="45.4950866" lon="11.0940966"><ele>405.0</ele><time>2026-04-06T14:04:59.984Z</time></trkpt><trkpt lat="45.4951302" lon="11.0939886"><ele>405.0</ele><time>2026-04-06T14:05:00.985Z</time></trkpt><trkpt lat="45.495149" lon="11.0938721"><ele>405.8</ele><time>2026-04-06T14:05:01.985Z</time></trkpt><trkpt lat="45.4951279" lon="11.0937431"><ele>406.6</ele><time>2026-04-06T14:05:02.985Z</time></trkpt><trkpt lat="45.4950782" lon="11.0936404"><ele>407.4</ele><time>2026-04-06T14:05:03.984Z</time></trkpt><trkpt lat="45.494996" lon="11.0935588"><ele>408.2</ele><time>2026-04-06T14:05:04.984Z</time></trkpt><trkpt lat="45.4948866" lon="11.0934914"><ele>409.0</ele><time>2026-04-06T14:05:05.986Z</time></trkpt><trkpt lat="45.4947571" lon="11.093413"><ele>409.0</ele><time>2026-04-06T14:05:06.984Z</time></trkpt><trkpt lat="45.4946117" lon="11.093337"><ele>409.0</ele><time>2026-04-06T14:05:07.984Z</time></trkpt><trkpt lat="45.4944483" lon="11.0932845"><ele>409.0</ele><time>2026-04-06T14:05:08.984Z</time></trkpt><trkpt lat="45.4942867" lon="11.0932616"><ele>407.0</ele><time>2026-04-06T14:05:09.985Z</time></trkpt><trkpt lat="45.4941071" lon="11.0932633"><ele>405.0</ele><time>2026-04-06T14:05:10.984Z</time></trkpt><trkpt lat="45.4939223" lon="11.0932786"><ele>403.0</ele><time>2026-04-06T14:05:11.984Z</time></trkpt><trkpt lat="45.4937182" lon="11.0932962"><ele>403.0</ele><time>2026-04-06T14:05:12.985Z</time></trkpt><trkpt lat="45.4935285" lon="11.0933055"><ele>403.0</ele><time>2026-04-06T14:05:13.984Z</time></trkpt><trkpt lat="45.4933518" lon="11.0933007"><ele>403.0</ele><time>2026-04-06T14:05:14.985Z</time></trkpt><trkpt lat="45.4931818" lon="11.0932855"><ele>403.0</ele><time>2026-04-06T14:05:15.984Z</time></trkpt><trkpt lat="45.493003" lon="11.0932595"><ele>403.0</ele><time>2026-04-06T14:05:16.984Z</time></trkpt><trkpt lat="45.4928121" lon="11.093222"><ele>403.0</ele><time>2026-04-06T14:05:17.985Z</time></trkpt><trkpt lat="45.4926104" lon="11.0931803"><ele>406.0</ele><time>2026-04-06T14:05:18.985Z</time></trkpt><trkpt lat="45.4924075" lon="11.0931501"><ele>409.0</ele><time>2026-04-06T14:05:19.985Z</time></trkpt><trkpt lat="45.4921881" lon="11.0931371"><ele>412.0</ele><time>2026-04-06T14:05:20.985Z</time></trkpt><trkpt lat="45.4919885" lon="11.0931328"><ele>412.0</ele><time>2026-04-06T14:05:21.984Z</time></trkpt><trkpt lat="45.4918105" lon="11.0931288"><ele>412.0</ele><time>2026-04-06T14:05:22.985Z</time></trkpt><trkpt lat="45.4916548" lon="11.0931241"><ele>412.0</ele><time>2026-04-06T14:05:23.986Z</time></trkpt><trkpt lat="45.491513" lon="11.0931195"><ele>412.0</ele><time>2026-04-06T14:05:24.985Z</time></trkpt><trkpt lat="45.4913743" lon="11.0931018"><ele>412.0</ele><time>2026-04-06T14:05:25.985Z</time></trkpt><trkpt lat="45.4912426" lon="11.0930445"><ele>412.0</ele><time>2026-04-06T14:05:26.984Z</time></trkpt><trkpt lat="45.4911198" lon="11.0929451"><ele>412.0</ele><time>2026-04-06T14:05:27.985Z</time></trkpt><trkpt lat="45.4910078" lon="11.0928039"><ele>408.33333333333337</ele><time>2026-04-06T14:05:28.984Z</time></trkpt><trkpt lat="45.4909024" lon="11.0926202"><ele>404.66666666666663</ele><time>2026-04-06T14:05:29.984Z</time></trkpt><trkpt lat="45.4907855" lon="11.0924082"><ele>401.0</ele><time>2026-04-06T14:05:30.984Z</time></trkpt><trkpt lat="45.4906497" lon="11.092193"><ele>401.0</ele><time>2026-04-06T14:05:31.985Z</time></trkpt><trkpt lat="45.4905111" lon="11.0919954"><ele>401.0</ele><time>2026-04-06T14:05:32.985Z</time></trkpt><trkpt lat="45.4903611" lon="11.0917976"><ele>401.0</ele><time>2026-04-06T14:05:33.985Z</time></trkpt><trkpt lat="45.4902151" lon="11.0916126"><ele>396.0</ele><time>2026-04-06T14:05:34.985Z</time></trkpt><trkpt lat="45.4900733" lon="11.0914407"><ele>391.0</ele><time>2026-04-06T14:05:35.985Z</time></trkpt><trkpt lat="45.4899339" lon="11.0912749"><ele>386.0</ele><time>2026-04-06T14:05:36.985Z</time></trkpt><trkpt lat="45.489804" lon="11.0911211"><ele>386.0</ele><time>2026-04-06T14:05:37.985Z</time></trkpt><trkpt lat="45.4896851" lon="11.0909754"><ele>386.0</ele><time>2026-04-06T14:05:38.984Z</time></trkpt><trkpt lat="45.4895769" lon="11.0908454"><ele>386.0</ele><time>2026-04-06T14:05:39.984Z</time></trkpt><trkpt lat="45.4894781" lon="11.0907294"><ele>386.0</ele><time>2026-04-06T14:05:40.985Z</time></trkpt><trkpt lat="45.4893977" lon="11.0906337"><ele>384.66666666666663</ele><time>2026-04-06T14:05:41.985Z</time></trkpt><trkpt lat="45.4893353" lon="11.0905512"><ele>383.3333333333333</ele><time>2026-04-06T14:05:42.984Z</time></trkpt><trkpt lat="45.489294" lon="11.0904765"><ele>382.0</ele><time>2026-04-06T14:05:43.985Z</time></trkpt><trkpt lat="45.4892741" lon="11.0903608"><ele>380.66666666666663</ele><time>2026-04-06T14:05:45.984Z</time></trkpt><trkpt lat="45.4893245" lon="11.0902887"><ele>379.3333333333333</ele><time>2026-04-06T14:05:47.984Z</time></trkpt><trkpt lat="45.4894435" lon="11.090292"><ele>378.0</ele><time>2026-04-06T14:05:49.985Z</time></trkpt><trkpt lat="45.4895279" lon="11.0903042"><ele>378.2</ele><time>2026-04-06T14:05:50.985Z</time></trkpt><trkpt lat="45.4896143" lon="11.0903188"><ele>378.4</ele><time>2026-04-06T14:05:51.985Z</time></trkpt><trkpt lat="45.4897137" lon="11.0903372"><ele>378.59999999999997</ele><time>2026-04-06T14:05:52.985Z</time></trkpt><trkpt lat="45.4898237" lon="11.0903631"><ele>378.79999999999995</ele><time>2026-04-06T14:05:53.984Z</time></trkpt><trkpt lat="45.4899513" lon="11.0904005"><ele>379.0</ele><time>2026-04-06T14:05:54.985Z</time></trkpt><trkpt lat="45.490072" lon="11.0904393"><ele>379.0</ele><time>2026-04-06T14:05:55.985Z</time></trkpt><trkpt lat="45.4901939" lon="11.0904792"><ele>379.0</ele><time>2026-04-06T14:05:56.985Z</time></trkpt><trkpt lat="45.4903168" lon="11.0905224"><ele>379.0</ele><time>2026-04-06T14:05:57.985Z</time></trkpt><trkpt lat="45.4904457" lon="11.0905716"><ele>379.0</ele><time>2026-04-06T14:05:58.984Z</time></trkpt><trkpt lat="45.4905839" lon="11.0906236"><ele>381.0</ele><time>2026-04-06T14:05:59.984Z</time></trkpt><trkpt lat="45.490728" lon="11.0906748"><ele>383.0</ele><time>2026-04-06T14:06:00.985Z</time></trkpt><trkpt lat="45.4908695" lon="11.0907292"><ele>385.0</ele><time>2026-04-06T14:06:01.985Z</time></trkpt><trkpt lat="45.4910149" lon="11.0907859"><ele>387.0</ele><time>2026-04-06T14:06:02.984Z</time></trkpt><trkpt lat="45.4911444" lon="11.0908317"><ele>391.5</ele><time>2026-04-06T14:06:03.985Z</time></trkpt><trkpt lat="45.4912709" lon="11.0908578"><ele>396.0</ele><time>2026-04-06T14:06:04.984Z</time></trkpt><trkpt lat="45.4914036" lon="11.0908572"><ele>400.5</ele><time>2026-04-06T14:06:05.986Z</time></trkpt><trkpt lat="45.491546" lon="11.0908429"><ele>405.0</ele><time>2026-04-06T14:06:06.985Z</time></trkpt><trkpt lat="45.4917055" lon="11.0908153"><ele>405.0</ele><time>2026-04-06T14:06:07.986Z</time></trkpt><trkpt lat="45.4918773" lon="11.0907852"><ele>405.0</ele><time>2026-04-06T14:06:08.985Z</time></trkpt><trkpt lat="45.4920451" lon="11.090752"><ele>405.0</ele><time>2026-04-06T14:06:09.985Z</time></trkpt><trkpt lat="45.492177" lon="11.0907242"><ele>403.4</ele><time>2026-04-06T14:06:10.984Z</time></trkpt><trkpt lat="45.4922888" lon="11.0906982"><ele>401.8</ele><time>2026-04-06T14:06:11.986Z</time></trkpt><trkpt lat="45.4923745" lon="11.0906664"><ele>400.20000000000005</ele><time>2026-04-06T14:06:12.985Z</time></trkpt><trkpt lat="45.4924463" lon="11.0906372"><ele>398.6</ele><time>2026-04-06T14:06:13.985Z</time></trkpt><trkpt lat="45.4925464" lon="11.0906084"><ele>397.0</ele><time>2026-04-06T14:06:15.985Z</time></trkpt><trkpt lat="45.4925999" lon="11.0906814"><ele>401.40000000000003</ele><time>2026-04-06T14:06:17.986Z</time></trkpt><trkpt lat="45.4925631" lon="11.0907639"><ele>405.8</ele><time>2026-04-06T14:06:19.985Z</time></trkpt><trkpt lat="45.4924331" lon="11.090848"><ele>410.2</ele><time>2026-04-06T14:06:21.984Z</time></trkpt><trkpt lat="45.4923483" lon="11.0909198"><ele>414.6</ele><time>2026-04-06T14:06:22.984Z</time></trkpt><trkpt lat="45.4922574" lon="11.0910113"><ele>419.0</ele><time>2026-04-06T14:06:23.985Z</time></trkpt><trkpt lat="45.4921483" lon="11.091131"><ele>418.6</ele><time>2026-04-06T14:06:24.985Z</time></trkpt><trkpt lat="45.4920516" lon="11.0912417"><ele>418.2</ele><time>2026-04-06T14:06:25.986Z</time></trkpt><trkpt lat="45.4919756" lon="11.0913279"><ele>417.8</ele><time>2026-04-06T14:06:26.985Z</time></trkpt><trkpt lat="45.4919229" lon="11.0913893"><ele>417.40000000000003</ele><time>2026-04-06T14:06:27.984Z</time></trkpt><trkpt lat="45.4918647" lon="11.0914972"><ele>417.0</ele><time>2026-04-06T14:06:29.985Z</time></trkpt><trkpt lat="45.4918975" lon="11.0915964"><ele>417.40000000000003</ele><time>2026-04-06T14:06:31.985Z</time></trkpt><trkpt lat="45.4919789" lon="11.0915872"><ele>417.8</ele><time>2026-04-06T14:06:33.985Z</time></trkpt><trkpt lat="45.4920397" lon="11.091525"><ele>418.2</ele><time>2026-04-06T14:06:34.985Z</time></trkpt><trkpt lat="45.4921186" lon="11.0914566"><ele>418.6</ele><time>2026-04-06T14:06:35.985Z</time></trkpt><trkpt lat="45.4922131" lon="11.0913966"><ele>419.0</ele><time>2026-04-06T14:06:36.984Z</time></trkpt><trkpt lat="45.4923395" lon="11.0913318"><ele>419.0</ele><time>2026-04-06T14:06:37.984Z</time></trkpt><trkpt lat="45.4924688" lon="11.0912927"><ele>419.0</ele><time>2026-04-06T14:06:38.985Z</time></trkpt><trkpt lat="45.492602" lon="11.0912612"><ele>419.0</ele><time>2026-04-06T14:06:39.986Z</time></trkpt><trkpt lat="45.4927408" lon="11.0912317"><ele>419.0</ele><time>2026-04-06T14:06:40.985Z</time></trkpt><trkpt lat="45.4928799" lon="11.0911851"><ele>423.0</ele><time>2026-04-06T14:06:41.985Z</time></trkpt><trkpt lat="45.493019" lon="11.091102"><ele>427.0</ele><time>2026-04-06T14:06:42.985Z</time></trkpt><trkpt lat="45.4931513" lon="11.0910056"><ele>431.0</ele><time>2026-04-06T14:06:43.985Z</time></trkpt><trkpt lat="45.4932588" lon="11.0909189"><ele>435.0</ele><time>2026-04-06T14:06:44.984Z</time></trkpt><trkpt lat="45.49335" lon="11.0908665"><ele>435.0</ele><time>2026-04-06T14:06:45.985Z</time></trkpt><trkpt lat="45.4934503" lon="11.0908426"><ele>435.0</ele><time>2026-04-06T14:06:46.984Z</time></trkpt><trkpt lat="45.493558" lon="11.0908345"><ele>435.0</ele><time>2026-04-06T14:06:47.985Z</time></trkpt><trkpt lat="45.4936762" lon="11.0908326"><ele>435.0</ele><time>2026-04-06T14:06:48.984Z</time></trkpt><trkpt lat="45.493808" lon="11.0908303"><ele>437.33333333333337</ele><time>2026-04-06T14:06:49.985Z</time></trkpt><trkpt lat="45.4939536" lon="11.090833"><ele>439.6666666666667</ele><time>2026-04-06T14:06:50.986Z</time></trkpt><trkpt lat="45.494116" lon="11.0908355"><ele>442.0</ele><time>2026-04-06T14:06:51.984Z</time></trkpt><trkpt lat="45.4942694" lon="11.0908395"><ele>442.0</ele><time>2026-04-06T14:06:52.985Z</time></trkpt><trkpt lat="45.494406" lon="11.0908438"><ele>442.00000000000006</ele><time>2026-04-06T14:06:53.984Z</time></trkpt><trkpt lat="45.4945269" lon="11.0908513"><ele>442.00000000000006</ele><time>2026-04-06T14:06:54.984Z</time></trkpt><trkpt lat="45.4946158" lon="11.0908609"><ele>442.0</ele><time>2026-04-06T14:06:55.985Z</time></trkpt><trkpt lat="45.4946879" lon="11.0908675"><ele>442.0</ele><time>2026-04-06T14:06:56.986Z</time></trkpt><trkpt lat="45.4947787" lon="11.0909087"><ele>442.00000000000006</ele><time>2026-04-06T14:06:58.985Z</time></trkpt><trkpt lat="45.4947826" lon="11.090999"><ele>442.0</ele><time>2026-04-06T14:07:00.984Z</time></trkpt><trkpt lat="45.4947102" lon="11.0910309"><ele>442.0</ele><time>2026-04-06T14:07:02.985Z</time></trkpt><trkpt lat="45.4946484" lon="11.0910134"><ele>442.0</ele><time>2026-04-06T14:07:03.984Z</time></trkpt><trkpt lat="45.4945678" lon="11.0910141"><ele>442.0</ele><time>2026-04-06T14:07:04.984Z</time></trkpt><trkpt lat="45.4944822" lon="11.0910319"><ele>442.00000000000006</ele><time>2026-04-06T14:07:05.984Z</time></trkpt><trkpt lat="45.4944047" lon="11.0910526"><ele>442.0</ele><time>2026-04-06T14:07:06.985Z</time></trkpt><trkpt lat="45.4942943" lon="11.0910905"><ele>442.0</ele><time>2026-04-06T14:07:08.985Z</time></trkpt><trkpt lat="45.4942602" lon="11.0911946"><ele>442.00000000000006</ele><time>2026-04-06T14:07:10.985Z</time></trkpt><trkpt lat="45.494332" lon="11.0912718"><ele>442.00000000000006</ele><time>2026-04-06T14:07:12.984Z</time></trkpt><trkpt lat="45.4944203" lon="11.0912852"><ele>442.0</ele><time>2026-04-06T14:07:13.984Z</time></trkpt><trkpt lat="45.4945091" lon="11.0913085"><ele>442.0</ele><time>2026-04-06T14:07:14.985Z</time></trkpt><trkpt lat="45.4946293" lon="11.0913604"><ele>443.6666666666667</ele><time>2026-04-06T14:07:15.985Z</time></trkpt><trkpt lat="45.4947534" lon="11.0914259"><ele>445.33333333333337</ele><time>2026-04-06T14:07:16.984Z</time></trkpt><trkpt lat="45.494899" lon="11.0915044"><ele>447.0</ele><time>2026-04-06T14:07:17.984Z</time></trkpt><trkpt lat="45.4950591" lon="11.0915906"><ele>449.66666666666663</ele><time>2026-04-06T14:07:18.985Z</time></trkpt><trkpt lat="45.4952302" lon="11.0916815"><ele>452.3333333333333</ele><time>2026-04-06T14:07:19.984Z</time></trkpt><trkpt lat="45.4954165" lon="11.0917738"><ele>455.0</ele><time>2026-04-06T14:07:20.985Z</time></trkpt><trkpt lat="45.4955893" lon="11.091867"><ele>459.66666666666663</ele><time>2026-04-06T14:07:21.985Z</time></trkpt><trkpt lat="45.4957461" lon="11.0919526"><ele>464.33333333333337</ele><time>2026-04-06T14:07:22.985Z</time></trkpt><trkpt lat="45.4958997" lon="11.0920197"><ele>469.0</ele><time>2026-04-06T14:07:23.985Z</time></trkpt><trkpt lat="45.496047" lon="11.0920584"><ele>469.0</ele><time>2026-04-06T14:07:24.985Z</time></trkpt><trkpt lat="45.4961734" lon="11.0920998"><ele>469.0</ele><time>2026-04-06T14:07:25.984Z</time></trkpt><trkpt lat="45.4962918" lon="11.0921273"><ele>469.0</ele><time>2026-04-06T14:07:26.984Z</time></trkpt><trkpt lat="45.4963655" lon="11.0921571"><ele>469.0</ele><time>2026-04-06T14:07:27.985Z</time></trkpt><trkpt lat="45.4964372" lon="11.0921794"><ele>469.0</ele><time>2026-04-06T14:07:28.984Z</time></trkpt><trkpt lat="45.4965317" lon="11.0921415"><ele>469.00000000000006</ele><time>2026-04-06T14:07:30.985Z</time></trkpt><trkpt lat="45.4965424" lon="11.0920342"><ele>469.0</ele><time>2026-04-06T14:07:32.985Z</time></trkpt><trkpt lat="45.4964576" lon="11.0919843"><ele>469.0</ele><time>2026-04-06T14:07:34.986Z</time></trkpt><trkpt lat="45.496381" lon="11.0919724"><ele>469.0</ele><time>2026-04-06T14:07:35.985Z</time></trkpt><trkpt lat="45.4963035" lon="11.0919381"><ele>469.00000000000006</ele><time>2026-04-06T14:07:36.985Z</time></trkpt><trkpt lat="45.4962478" lon="11.0918463"><ele>469.0</ele><time>2026-04-06T14:07:38.986Z</time></trkpt><trkpt lat="45.4963" lon="11.0917741"><ele>471.25</ele><time>2026-04-06T14:07:40.984Z</time></trkpt><trkpt lat="45.4964378" lon="11.0917807"><ele>473.5</ele><time>2026-04-06T14:07:42.984Z</time></trkpt><trkpt lat="45.4965374" lon="11.091785"><ele>475.75</ele><time>2026-04-06T14:07:43.984Z</time></trkpt><trkpt lat="45.4966651" lon="11.091776"><ele>478.0</ele><time>2026-04-06T14:07:44.985Z</time></trkpt><trkpt lat="45.4967921" lon="11.0917617"><ele>478.0</ele><time>2026-04-06T14:07:45.985Z</time></trkpt><trkpt lat="45.4969387" lon="11.0917492"><ele>478.0</ele><time>2026-04-06T14:07:46.984Z</time></trkpt><trkpt lat="45.4971011" lon="11.0917429"><ele>478.0</ele><time>2026-04-06T14:07:47.984Z</time></trkpt><trkpt lat="45.497258" lon="11.0917441"><ele>480.33333333333337</ele><time>2026-04-06T14:07:48.984Z</time></trkpt><trkpt lat="45.4974271" lon="11.0917567"><ele>482.66666666666663</ele><time>2026-04-06T14:07:49.984Z</time></trkpt><trkpt lat="45.497596" lon="11.0917784"><ele>485.0</ele><time>2026-04-06T14:07:50.984Z</time></trkpt><trkpt lat="45.4977502" lon="11.0918024"><ele>485.0</ele><time>2026-04-06T14:07:51.985Z</time></trkpt><trkpt lat="45.4978992" lon="11.0918303"><ele>485.0</ele><time>2026-04-06T14:07:52.984Z</time></trkpt><trkpt lat="45.4980437" lon="11.0918617"><ele>485.0</ele><time>2026-04-06T14:07:53.984Z</time></trkpt><trkpt lat="45.4981805" lon="11.0919041"><ele>485.0</ele><time>2026-04-06T14:07:54.984Z</time></trkpt><trkpt lat="45.49831" lon="11.0919713"><ele>486.5</ele><time>2026-04-06T14:07:55.985Z</time></trkpt><trkpt lat="45.4984344" lon="11.0920658"><ele>488.0</ele><time>2026-04-06T14:07:56.985Z</time></trkpt><trkpt lat="45.4985576" lon="11.0921748"><ele>489.5</ele><time>2026-04-06T14:07:57.984Z</time></trkpt><trkpt lat="45.4986757" lon="11.0922752"><ele>491.0</ele><time>2026-04-06T14:07:58.985Z</time></trkpt><trkpt lat="45.4987921" lon="11.0923734"><ele>494.5</ele><time>2026-04-06T14:07:59.986Z</time></trkpt><trkpt lat="45.4989075" lon="11.0924683"><ele>498.0</ele><time>2026-04-06T14:08:00.984Z</time></trkpt><trkpt lat="45.4990251" lon="11.0925659"><ele>501.5</ele><time>2026-04-06T14:08:01.985Z</time></trkpt><trkpt lat="45.4991425" lon="11.0926752"><ele>505.0</ele><time>2026-04-06T14:08:02.984Z</time></trkpt><trkpt lat="45.4992603" lon="11.0927981"><ele>505.0</ele><time>2026-04-06T14:08:03.984Z</time></trkpt><trkpt lat="45.4993791" lon="11.0929292"><ele>505.0</ele><time>2026-04-06T14:08:04.985Z</time></trkpt><trkpt lat="45.4995042" lon="11.093065"><ele>505.0</ele><time>2026-04-06T14:08:05.984Z</time></trkpt><trkpt lat="45.4965424" lon="11.0920342"><ele>500.50000000000006</ele><time>2026-04-06T14:07:32.985Z</time></trkpt><trkpt lat="45.4964576" lon="11.0919843"><ele>496.0</ele><time>2026-04-06T14:07:34.986Z</time></trkpt><trkpt lat="45.496381" lon="11.0919724"><ele>491.5</ele><time>2026-04-06T14:07:35.985Z</time></trkpt><trkpt lat="45.4963035" lon="11.0919381"><ele>487.0</ele><time>2026-04-06T14:07:36.985Z</time></trkpt><trkpt lat="45.4962478" lon="11.0918463"><ele>482.50000000000006</ele><time>2026-04-06T14:07:38.986Z</time></trkpt><trkpt lat="45.4963" lon="11.0917741"><ele>478.0</ele><time>2026-04-06T14:07:40.984Z</time></trkpt><trkpt lat="45.4964378" lon="11.0917807"><ele>478.0</ele><time>2026-04-06T14:07:42.984Z</time></trkpt><trkpt lat="45.4965374" lon="11.091785"><ele>478.0</ele><time>2026-04-06T14:07:43.984Z</time></trkpt><trkpt lat="45.4966651" lon="11.091776"><ele>478.0</ele><time>2026-04-06T14:07:44.985Z</time></trkpt><trkpt lat="45.4967921" lon="11.0917617"><ele>478.0</ele><time>2026-04-06T14:07:45.985Z</time></trkpt><trkpt lat="45.4969387" lon="11.0917492"><ele>480.33333333333337</ele><time>2026-04-06T14:07:46.984Z</time></trkpt><trkpt lat="45.4971011" lon="11.0917429"><ele>482.66666666666663</ele><time>2026-04-06T14:07:47.984Z</time></trkpt><trkpt lat="45.497258" lon="11.0917441"><ele>485.0</ele><time>2026-04-06T14:07:48.984Z</time></trkpt><trkpt lat="45.4974271" lon="11.0917567"><ele>485.0</ele><time>2026-04-06T14:07:49.984Z</time></trkpt><trkpt lat="45.497596" lon="11.0917784"><ele>485.0</ele><time>2026-04-06T14:07:50.984Z</time></trkpt><trkpt lat="45.4977502" lon="11.0918024"><ele>485.0</ele><time>2026-04-06T14:07:51.985Z</time></trkpt><trkpt lat="45.4978992" lon="11.0918303"><ele>486.5</ele><time>2026-04-06T14:07:52.984Z</time></trkpt><trkpt lat="45.4980437" lon="11.0918617"><ele>488.0</ele><time>2026-04-06T14:07:53.984Z</time></trkpt><trkpt lat="45.4981805" lon="11.0919041"><ele>489.5</ele><time>2026-04-06T14:07:54.984Z</time></trkpt><trkpt lat="45.49831" lon="11.0919713"><ele>491.0</ele><time>2026-04-06T14:07:55.985Z</time></trkpt><trkpt lat="45.4984344" lon="11.0920658"><ele>491.0</ele><time>2026-04-06T14:07:56.985Z</time></trkpt><trkpt lat="45.4985576" lon="11.0921748"><ele>491.0</ele><time>2026-04-06T14:07:57.984Z</time></trkpt><trkpt lat="45.4986757" lon="11.0922752"><ele>491.0</ele><time>2026-04-06T14:07:58.985Z</time></trkpt><trkpt lat="45.4987921" lon="11.0923734"><ele>491.0</ele><time>2026-04-06T14:07:59.986Z</time></trkpt><trkpt lat="45.4989075" lon="11.0924683"><ele>494.5</ele><time>2026-04-06T14:08:00.984Z</time></trkpt><trkpt lat="45.4990251" lon="11.0925659"><ele>498.0</ele><time>2026-04-06T14:08:01.985Z</time></trkpt><trkpt lat="45.4991425" lon="11.0926752"><ele>501.5</ele><time>2026-04-06T14:08:02.984Z</time></trkpt><trkpt lat="45.4992603" lon="11.0927981"><ele>505.0</ele><time>2026-04-06T14:08:03.984Z</time></trkpt><trkpt lat="45.4993791" lon="11.0929292"><ele>505.0</ele><time>2026-04-06T14:08:04.985Z</time></trkpt><trkpt lat="45.4995042" lon="11.093065"><ele>505.0</ele><time>2026-04-06T14:08:05.984Z</time></trkpt><trkpt lat="45.4996241" lon="11.0931909"><ele>505.0</ele><time>2026-04-06T14:08:06.985Z</time></trkpt><trkpt lat="45.4997303" lon="11.0933042"><ele>505.0</ele><time>2026-04-06T14:08:07.985Z</time></trkpt><trkpt lat="45.4998225" lon="11.0934073"><ele>506.6</ele><time>2026-04-06T14:08:08.985Z</time></trkpt><trkpt lat="45.499903" lon="11.0934871"><ele>508.2</ele><time>2026-04-06T14:08:09.985Z</time></trkpt><trkpt lat="45.4999889" lon="11.0935499"><ele>509.79999999999995</ele><time>2026-04-06T14:08:10.985Z</time></trkpt><trkpt lat="45.50009" lon="11.0935962"><ele>511.4</ele><time>2026-04-06T14:08:11.984Z</time></trkpt><trkpt lat="45.5002178" lon="11.0936227"><ele>513.0</ele><time>2026-04-06T14:08:12.984Z</time></trkpt><trkpt lat="45.500351" lon="11.0936478"><ele>513.0</ele><time>2026-04-06T14:08:13.984Z</time></trkpt><trkpt lat="45.5004869" lon="11.0936879"><ele>513.0</ele><time>2026-04-06T14:08:14.986Z</time></trkpt><trkpt lat="45.5006242" lon="11.0937425"><ele>513.0</ele><time>2026-04-06T14:08:15.985Z</time></trkpt><trkpt lat="45.5007618" lon="11.0937987"><ele>513.0</ele><time>2026-04-06T14:08:16.984Z</time></trkpt><trkpt lat="45.500876" lon="11.0938381"><ele>513.0</ele><time>2026-04-06T14:08:17.984Z</time></trkpt><trkpt lat="45.5009727" lon="11.0938653"><ele>513.0</ele><time>2026-04-06T14:08:18.984Z</time></trkpt><trkpt lat="45.50106" lon="11.0938646"><ele>513.0</ele><time>2026-04-06T14:08:19.985Z</time></trkpt><trkpt lat="45.5011435" lon="11.0938214"><ele>513.0</ele><time>2026-04-06T14:08:20.984Z</time></trkpt><trkpt lat="45.5012296" lon="11.0937472"><ele>513.0</ele><time>2026-04-06T14:08:21.986Z</time></trkpt><trkpt lat="45.5013266" lon="11.0936499"><ele>513.75</ele><time>2026-04-06T14:08:22.985Z</time></trkpt><trkpt lat="45.5014383" lon="11.0935353"><ele>514.5</ele><time>2026-04-06T14:08:23.985Z</time></trkpt><trkpt lat="45.5015531" lon="11.0934067"><ele>515.25</ele><time>2026-04-06T14:08:24.984Z</time></trkpt><trkpt lat="45.501653" lon="11.0933035"><ele>516.0</ele><time>2026-04-06T14:08:25.984Z</time></trkpt><trkpt lat="45.5017432" lon="11.0932109"><ele>516.0</ele><time>2026-04-06T14:08:26.985Z</time></trkpt><trkpt lat="45.5018303" lon="11.0931394"><ele>516.0</ele><time>2026-04-06T14:08:27.985Z</time></trkpt><trkpt lat="45.5019267" lon="11.0930897"><ele>516.0</ele><time>2026-04-06T14:08:28.985Z</time></trkpt><trkpt lat="45.5020319" lon="11.0930635"><ele>516.0</ele><time>2026-04-06T14:08:29.984Z</time></trkpt><trkpt lat="45.502157" lon="11.0930477"><ele>516.0</ele><time>2026-04-06T14:08:30.985Z</time></trkpt><trkpt lat="45.5022958" lon="11.0930439"><ele>519.0</ele><time>2026-04-06T14:08:31.986Z</time></trkpt><trkpt lat="45.5024307" lon="11.0930421"><ele>522.0</ele><time>2026-04-06T14:08:32.984Z</time></trkpt><trkpt lat="45.5025529" lon="11.093037"><ele>525.0</ele><time>2026-04-06T14:08:33.985Z</time></trkpt><trkpt lat="45.5026777" lon="11.093018"><ele>528.0</ele><time>2026-04-06T14:08:34.985Z</time></trkpt><trkpt lat="45.5028045" lon="11.0929727"><ele>529.8</ele><time>2026-04-06T14:08:35.984Z</time></trkpt><trkpt lat="45.5029145" lon="11.0929176"><ele>531.5999999999999</ele><time>2026-04-06T14:08:36.985Z</time></trkpt><trkpt lat="45.5030025" lon="11.0928564"><ele>533.4000000000001</ele><time>2026-04-06T14:08:37.984Z</time></trkpt><trkpt lat="45.5030763" lon="11.0928103"><ele>535.2</ele><time>2026-04-06T14:08:38.986Z</time></trkpt><trkpt lat="45.5031429" lon="11.0927911"><ele>537.0</ele><time>2026-04-06T14:08:39.984Z</time></trkpt><trkpt lat="45.5032323" lon="11.0928734"><ele>537.0</ele><time>2026-04-06T14:08:41.985Z</time></trkpt><trkpt lat="45.5032576" lon="11.0929642"><ele>537.0</ele><time>2026-04-06T14:08:42.984Z</time></trkpt><trkpt lat="45.5032779" lon="11.0930979"><ele>537.0</ele><time>2026-04-06T14:08:43.985Z</time></trkpt><trkpt lat="45.5033063" lon="11.0932648"><ele>537.0</ele><time>2026-04-06T14:08:44.985Z</time></trkpt><trkpt lat="45.5033374" lon="11.093427"><ele>537.0</ele><time>2026-04-06T14:08:45.984Z</time></trkpt><trkpt lat="45.5033631" lon="11.0935576"><ele>538.8000000000001</ele><time>2026-04-06T14:08:46.984Z</time></trkpt><trkpt lat="45.5033992" lon="11.0936673"><ele>540.6</ele><time>2026-04-06T14:08:47.984Z</time></trkpt><trkpt lat="45.5034589" lon="11.0937715"><ele>542.4000000000001</ele><time>2026-04-06T14:08:48.984Z</time></trkpt><trkpt lat="45.5035359" lon="11.0938527"><ele>544.2</ele><time>2026-04-06T14:08:49.985Z</time></trkpt><trkpt lat="45.5036261" lon="11.0939274"><ele>546.0</ele><time>2026-04-06T14:08:50.984Z</time></trkpt><trkpt lat="45.5037216" lon="11.0939973"><ele>546.8</ele><time>2026-04-06T14:08:51.985Z</time></trkpt><trkpt lat="45.5038112" lon="11.094049"><ele>547.6</ele><time>2026-04-06T14:08:52.985Z</time></trkpt><trkpt lat="45.5039077" lon="11.0940835"><ele>548.4</ele><time>2026-04-06T14:08:53.985Z</time></trkpt><trkpt lat="45.5040175" lon="11.0940981"><ele>549.2</ele><time>2026-04-06T14:08:54.985Z</time></trkpt><trkpt lat="45.5041307" lon="11.0941056"><ele>550.0</ele><time>2026-04-06T14:08:55.985Z</time></trkpt><trkpt lat="45.5042555" lon="11.0941072"><ele>550.0</ele><time>2026-04-06T14:08:56.984Z</time></trkpt><trkpt lat="45.5043935" lon="11.0941111"><ele>550.0</ele><time>2026-04-06T14:08:57.985Z</time></trkpt><trkpt lat="45.5045394" lon="11.0941238"><ele>550.0</ele><time>2026-04-06T14:08:58.984Z</time></trkpt><trkpt lat="45.5046846" lon="11.0941388"><ele>550.0</ele><time>2026-04-06T14:08:59.985Z</time></trkpt><trkpt lat="45.5048297" lon="11.0941506"><ele>551.6666666666667</ele><time>2026-04-06T14:09:00.985Z</time></trkpt><trkpt lat="45.5049743" lon="11.0941587"><ele>553.3333333333334</ele><time>2026-04-06T14:09:01.986Z</time></trkpt><trkpt lat="45.5051254" lon="11.0941685"><ele>555.0</ele><time>2026-04-06T14:09:02.984Z</time></trkpt><trkpt lat="45.5052833" lon="11.0941838"><ele>555.25</ele><time>2026-04-06T14:09:03.984Z</time></trkpt><trkpt lat="45.5054289" lon="11.0942006"><ele>555.5</ele><time>2026-04-06T14:09:04.985Z</time></trkpt><trkpt lat="45.5055645" lon="11.0942199"><ele>555.75</ele><time>2026-04-06T14:09:05.985Z</time></trkpt><trkpt lat="45.5056881" lon="11.0942396"><ele>556.0</ele><time>2026-04-06T14:09:06.985Z</time></trkpt><trkpt lat="45.5057916" lon="11.0942564"><ele>556.0</ele><time>2026-04-06T14:09:07.984Z</time></trkpt><trkpt lat="45.5058864" lon="11.0942655"><ele>556.0</ele><time>2026-04-06T14:09:08.984Z</time></trkpt><trkpt lat="45.5059725" lon="11.0942532"><ele>556.0</ele><time>2026-04-06T14:09:09.985Z</time></trkpt><trkpt lat="45.5060608" lon="11.0942045"><ele>556.0</ele><time>2026-04-06T14:09:10.985Z</time></trkpt><trkpt lat="45.5061442" lon="11.0941179"><ele>556.0</ele><time>2026-04-06T14:09:11.984Z</time></trkpt><trkpt lat="45.5062325" lon="11.0940177"><ele>555.5</ele><time>2026-04-06T14:09:12.985Z</time></trkpt><trkpt lat="45.5063333" lon="11.0939487"><ele>555.0</ele><time>2026-04-06T14:09:13.984Z</time></trkpt><trkpt lat="45.5064503" lon="11.0939036"><ele>554.5</ele><time>2026-04-06T14:09:14.985Z</time></trkpt><trkpt lat="45.50658" lon="11.09387"><ele>554.0</ele><time>2026-04-06T14:09:15.984Z</time></trkpt><trkpt lat="45.5067152" lon="11.0938175"><ele>554.0</ele><time>2026-04-06T14:09:16.984Z</time></trkpt><trkpt lat="45.5068522" lon="11.0937338"><ele>554.0</ele><time>2026-04-06T14:09:17.985Z</time></trkpt><trkpt lat="45.5069691" lon="11.0936453"><ele>554.0</ele><time>2026-04-06T14:09:18.985Z</time></trkpt><trkpt lat="45.5070803" lon="11.0935547"><ele>554.0</ele><time>2026-04-06T14:09:19.985Z</time></trkpt><trkpt lat="45.5071774" lon="11.0934676"><ele>555.0</ele><time>2026-04-06T14:09:20.985Z</time></trkpt><trkpt lat="45.5072613" lon="11.0933856"><ele>556.0</ele><time>2026-04-06T14:09:21.985Z</time></trkpt><trkpt lat="45.5073415" lon="11.0932926"><ele>557.0</ele><time>2026-04-06T14:09:22.985Z</time></trkpt><trkpt lat="45.5074168" lon="11.0931884"><ele>558.0</ele><time>2026-04-06T14:09:23.984Z</time></trkpt><trkpt lat="45.5074964" lon="11.0930874"><ele>559.0</ele><time>2026-04-06T14:09:24.985Z</time></trkpt><trkpt lat="45.5075803" lon="11.0929894"><ele>559.0</ele><time>2026-04-06T14:09:25.984Z</time></trkpt><trkpt lat="45.5076608" lon="11.092902"><ele>559.0</ele><time>2026-04-06T14:09:26.985Z</time></trkpt><trkpt lat="45.5077507" lon="11.0928153"><ele>559.0</ele><time>2026-04-06T14:09:27.985Z</time></trkpt><trkpt lat="45.507857" lon="11.0927321"><ele>559.0</ele><time>2026-04-06T14:09:28.985Z</time></trkpt><trkpt lat="45.5079724" lon="11.0926622"><ele>560.5</ele><time>2026-04-06T14:09:29.986Z</time></trkpt><trkpt lat="45.5080764" lon="11.0925865"><ele>562.0</ele><time>2026-04-06T14:09:30.984Z</time></trkpt><trkpt lat="45.5081618" lon="11.0924886"><ele>563.5</ele><time>2026-04-06T14:09:31.984Z</time></trkpt><trkpt lat="45.5082317" lon="11.0923654"><ele>565.0</ele><time>2026-04-06T14:09:32.984Z</time></trkpt><trkpt lat="45.5082958" lon="11.0922255"><ele>565.0</ele><time>2026-04-06T14:09:33.985Z</time></trkpt><trkpt lat="45.5083537" lon="11.09208"><ele>565.0</ele><time>2026-04-06T14:09:34.985Z</time></trkpt><trkpt lat="45.5084102" lon="11.09195"><ele>565.0</ele><time>2026-04-06T14:09:35.984Z</time></trkpt><trkpt lat="45.5084744" lon="11.0918398"><ele>565.0</ele><time>2026-04-06T14:09:36.985Z</time></trkpt><trkpt lat="45.5085394" lon="11.0917712"><ele>565.0</ele><time>2026-04-06T14:09:37.984Z</time></trkpt><trkpt lat="45.5086649" lon="11.0917428"><ele>565.0</ele><time>2026-04-06T14:09:39.985Z</time></trkpt><trkpt lat="45.5087324" lon="11.0917807"><ele>565.0</ele><time>2026-04-06T14:09:40.986Z</time></trkpt><trkpt lat="45.5088119" lon="11.091855"><ele>565.0</ele><time>2026-04-06T14:09:41.986Z</time></trkpt><trkpt lat="45.5088985" lon="11.091948"><ele>565.0</ele><time>2026-04-06T14:09:42.984Z</time></trkpt><trkpt lat="45.5089831" lon="11.092056"><ele>565.0</ele><time>2026-04-06T14:09:43.985Z</time></trkpt><trkpt lat="45.5090673" lon="11.0921486"><ele>563.75</ele><time>2026-04-06T14:09:44.985Z</time></trkpt><trkpt lat="45.5091606" lon="11.0922322"><ele>562.5</ele><time>2026-04-06T14:09:45.986Z</time></trkpt><trkpt lat="45.5092997" lon="11.0922409"><ele>561.25</ele><time>2026-04-06T14:09:46.985Z</time></trkpt><trkpt lat="45.5094173" lon="11.092315"><ele>560.0</ele><time>2026-04-06T14:09:47.984Z</time></trkpt><trkpt lat="45.5095294" lon="11.0923992"><ele>562.2</ele><time>2026-04-06T14:09:48.984Z</time></trkpt><trkpt lat="45.5096339" lon="11.092487"><ele>564.4</ele><time>2026-04-06T14:09:49.984Z</time></trkpt><trkpt lat="45.5097315" lon="11.0925588"><ele>566.6</ele><time>2026-04-06T14:09:50.984Z</time></trkpt><trkpt lat="45.5098168" lon="11.0926472"><ele>568.8</ele><time>2026-04-06T14:09:51.985Z</time></trkpt><trkpt lat="45.5099047" lon="11.0927436"><ele>571.0</ele><time>2026-04-06T14:09:52.985Z</time></trkpt><trkpt lat="45.5099882" lon="11.092846"><ele>571.0</ele><time>2026-04-06T14:09:53.985Z</time></trkpt><trkpt lat="45.5100661" lon="11.0929628"><ele>571.0</ele><time>2026-04-06T14:09:54.984Z</time></trkpt><trkpt lat="45.5101419" lon="11.0930903"><ele>571.0</ele><time>2026-04-06T14:09:55.985Z</time></trkpt><trkpt lat="45.5102105" lon="11.0932338"><ele>571.0</ele><time>2026-04-06T14:09:56.985Z</time></trkpt><trkpt lat="45.5102792" lon="11.0933882"><ele>570.6</ele><time>2026-04-06T14:09:57.985Z</time></trkpt><trkpt lat="45.5103474" lon="11.0935475"><ele>570.2</ele><time>2026-04-06T14:09:58.985Z</time></trkpt><trkpt lat="45.5104106" lon="11.0936864"><ele>569.8</ele><time>2026-04-06T14:09:59.984Z</time></trkpt><trkpt lat="45.5104734" lon="11.0938054"><ele>569.4</ele><time>2026-04-06T14:10:00.984Z</time></trkpt><trkpt lat="45.5105375" lon="11.0938991"><ele>569.0</ele><time>2026-04-06T14:10:01.985Z</time></trkpt><trkpt lat="45.5106104" lon="11.0939789"><ele>569.0</ele><time>2026-04-06T14:10:02.985Z</time></trkpt><trkpt lat="45.5107077" lon="11.0940412"><ele>569.0</ele><time>2026-04-06T14:10:03.984Z</time></trkpt><trkpt lat="45.5108203" lon="11.0940908"><ele>569.0</ele><time>2026-04-06T14:10:04.985Z</time></trkpt><trkpt lat="45.5109436" lon="11.0941335"><ele>569.0</ele><time>2026-04-06T14:10:05.986Z</time></trkpt><trkpt lat="45.5110592" lon="11.0941659"><ele>570.6</ele><time>2026-04-06T14:10:06.984Z</time></trkpt><trkpt lat="45.5111646" lon="11.0941872"><ele>572.2</ele><time>2026-04-06T14:10:07.984Z</time></trkpt><trkpt lat="45.5112614" lon="11.0941527"><ele>573.8000000000001</ele><time>2026-04-06T14:10:08.985Z</time></trkpt><trkpt lat="45.5113656" lon="11.0940957"><ele>575.4</ele><time>2026-04-06T14:10:09.984Z</time></trkpt><trkpt lat="45.5114765" lon="11.094011"><ele>577.0</ele><time>2026-04-06T14:10:10.985Z</time></trkpt><trkpt lat="45.5116073" lon="11.0939356"><ele>577.0</ele><time>2026-04-06T14:10:11.985Z</time></trkpt><trkpt lat="45.5117627" lon="11.093879"><ele>577.0</ele><time>2026-04-06T14:10:12.984Z</time></trkpt><trkpt lat="45.5119289" lon="11.0938228"><ele>577.0</ele><time>2026-04-06T14:10:13.985Z</time></trkpt><trkpt lat="45.512095" lon="11.0937786"><ele>579.0</ele><time>2026-04-06T14:10:14.985Z</time></trkpt><trkpt lat="45.5122491" lon="11.0937529"><ele>581.0</ele><time>2026-04-06T14:10:15.983Z</time></trkpt><trkpt lat="45.5124018" lon="11.0937474"><ele>583.0</ele><time>2026-04-06T14:10:16.984Z</time></trkpt><trkpt lat="45.5125704" lon="11.0937557"><ele>583.0</ele><time>2026-04-06T14:10:17.983Z</time></trkpt><trkpt lat="45.5127572" lon="11.0937696"><ele>583.0</ele><time>2026-04-06T14:10:18.984Z</time></trkpt><trkpt lat="45.5129356" lon="11.0937741"><ele>583.0</ele><time>2026-04-06T14:10:19.983Z</time></trkpt><trkpt lat="45.5131112" lon="11.0937744"><ele>584.6666666666667</ele><time>2026-04-06T14:10:20.984Z</time></trkpt><trkpt lat="45.513279" lon="11.0937729"><ele>586.3333333333334</ele><time>2026-04-06T14:10:21.984Z</time></trkpt><trkpt lat="45.5134347" lon="11.0937791"><ele>588.0</ele><time>2026-04-06T14:10:22.983Z</time></trkpt><trkpt lat="45.5135769" lon="11.0938033"><ele>588.0</ele><time>2026-04-06T14:10:23.983Z</time></trkpt><trkpt lat="45.5137095" lon="11.0938352"><ele>588.0</ele><time>2026-04-06T14:10:24.983Z</time></trkpt><trkpt lat="45.5138322" lon="11.0938546"><ele>588.0</ele><time>2026-04-06T14:10:25.983Z</time></trkpt><trkpt lat="45.5139469" lon="11.0938708"><ele>588.0</ele><time>2026-04-06T14:10:26.983Z</time></trkpt><trkpt lat="45.5140682" lon="11.0938774"><ele>587.8</ele><time>2026-04-06T14:10:27.985Z</time></trkpt><trkpt lat="45.5141896" lon="11.093858"><ele>587.5999999999999</ele><time>2026-04-06T14:10:28.983Z</time></trkpt><trkpt lat="45.5143032" lon="11.0938282"><ele>587.4000000000001</ele><time>2026-04-06T14:10:29.984Z</time></trkpt><trkpt lat="45.514405" lon="11.0937982"><ele>587.2</ele><time>2026-04-06T14:10:30.984Z</time></trkpt><trkpt lat="45.5145065" lon="11.093764"><ele>587.0</ele><time>2026-04-06T14:10:31.983Z</time></trkpt><trkpt lat="45.5146154" lon="11.0937377"><ele>587.5</ele><time>2026-04-06T14:10:32.984Z</time></trkpt><trkpt lat="45.5147399" lon="11.0937364"><ele>588.0</ele><time>2026-04-06T14:10:33.984Z</time></trkpt><trkpt lat="45.5148803" lon="11.093741"><ele>588.5</ele><time>2026-04-06T14:10:34.983Z</time></trkpt><trkpt lat="45.5150354" lon="11.0937292"><ele>589.0</ele><time>2026-04-06T14:10:35.983Z</time></trkpt><trkpt lat="45.5151808" lon="11.0937006"><ele>589.0</ele><time>2026-04-06T14:10:36.983Z</time></trkpt><trkpt lat="45.5153264" lon="11.0936704"><ele>589.0</ele><time>2026-04-06T14:10:37.985Z</time></trkpt><trkpt lat="45.515472" lon="11.0936506"><ele>589.0</ele><time>2026-04-06T14:10:38.983Z</time></trkpt><trkpt lat="45.5156174" lon="11.0936399"><ele>589.0</ele><time>2026-04-06T14:10:39.984Z</time></trkpt><trkpt lat="45.5157638" lon="11.0936343"><ele>590.0</ele><time>2026-04-06T14:10:40.985Z</time></trkpt><trkpt lat="45.5159178" lon="11.0936319"><ele>591.0</ele><time>2026-04-06T14:10:41.983Z</time></trkpt><trkpt lat="45.5160786" lon="11.0936288"><ele>592.0</ele><time>2026-04-06T14:10:42.984Z</time></trkpt><trkpt lat="45.5162466" lon="11.0936246"><ele>593.0</ele><time>2026-04-06T14:10:43.984Z</time></trkpt><trkpt lat="45.5164104" lon="11.093623"><ele>594.0</ele><time>2026-04-06T14:10:44.984Z</time></trkpt><trkpt lat="45.516586" lon="11.0936202"><ele>595.0</ele><time>2026-04-06T14:10:45.985Z</time></trkpt><trkpt lat="45.5167691" lon="11.0936107"><ele>595.0</ele><time>2026-04-06T14:10:46.983Z</time></trkpt><trkpt lat="45.5169402" lon="11.0935914"><ele>595.0</ele><time>2026-04-06T14:10:47.983Z</time></trkpt><trkpt lat="45.5171193" lon="11.0935479"><ele>595.0</ele><time>2026-04-06T14:10:48.984Z</time></trkpt><trkpt lat="45.5172831" lon="11.0934949"><ele>596.5</ele><time>2026-04-06T14:10:49.984Z</time></trkpt><trkpt lat="45.5174273" lon="11.093435"><ele>598.0</ele><time>2026-04-06T14:10:50.983Z</time></trkpt><trkpt lat="45.5175578" lon="11.0933584"><ele>599.5</ele><time>2026-04-06T14:10:51.985Z</time></trkpt><trkpt lat="45.5176856" lon="11.0932664"><ele>601.0</ele><time>2026-04-06T14:10:52.983Z</time></trkpt><trkpt lat="45.5178074" lon="11.0931649"><ele>598.75</ele><time>2026-04-06T14:10:53.984Z</time></trkpt><trkpt lat="45.517926" lon="11.0930877"><ele>596.5</ele><time>2026-04-06T14:10:54.983Z</time></trkpt><trkpt lat="45.5180516" lon="11.0930311"><ele>594.25</ele><time>2026-04-06T14:10:55.984Z</time></trkpt><trkpt lat="45.5181939" lon="11.0930002"><ele>592.0</ele><time>2026-04-06T14:10:56.985Z</time></trkpt><trkpt lat="45.5183478" lon="11.09297"><ele>592.0</ele><time>2026-04-06T14:10:57.983Z</time></trkpt><trkpt lat="45.5185024" lon="11.0929451"><ele>592.0</ele><time>2026-04-06T14:10:58.983Z</time></trkpt><trkpt lat="45.5186463" lon="11.0929363"><ele>592.0</ele><time>2026-04-06T14:10:59.984Z</time></trkpt><trkpt lat="45.5187911" lon="11.0929506"><ele>592.0</ele><time>2026-04-06T14:11:00.983Z</time></trkpt><trkpt lat="45.5189366" lon="11.0929754"><ele>594.0</ele><time>2026-04-06T14:11:01.984Z</time></trkpt><trkpt lat="45.5190662" lon="11.0929949"><ele>596.0</ele><time>2026-04-06T14:11:02.984Z</time></trkpt><trkpt lat="45.5191844" lon="11.0930102"><ele>598.0</ele><time>2026-04-06T14:11:03.983Z</time></trkpt><trkpt lat="45.5192932" lon="11.0930035"><ele>600.0</ele><time>2026-04-06T14:11:04.984Z</time></trkpt><trkpt lat="45.519393" lon="11.0929641"><ele>600.0</ele><time>2026-04-06T14:11:05.985Z</time></trkpt><trkpt lat="45.5194889" lon="11.0928872"><ele>600.0</ele><time>2026-04-06T14:11:06.984Z</time></trkpt><trkpt lat="45.5195716" lon="11.0927755"><ele>600.0</ele><time>2026-04-06T14:11:07.983Z</time></trkpt><trkpt lat="45.5196371" lon="11.0926514"><ele>600.0</ele><time>2026-04-06T14:11:08.985Z</time></trkpt><trkpt lat="45.5196958" lon="11.0925538"><ele>600.0</ele><time>2026-04-06T14:11:09.984Z</time></trkpt><trkpt lat="45.5197623" lon="11.0924766"><ele>599.4</ele><time>2026-04-06T14:11:10.984Z</time></trkpt><trkpt lat="45.5198463" lon="11.0924121"><ele>598.8</ele><time>2026-04-06T14:11:11.984Z</time></trkpt><trkpt lat="45.5199371" lon="11.0923661"><ele>598.2</ele><time>2026-04-06T14:11:12.983Z</time></trkpt><trkpt lat="45.5200293" lon="11.0923466"><ele>597.6</ele><time>2026-04-06T14:11:13.984Z</time></trkpt><trkpt lat="45.5201327" lon="11.0923516"><ele>597.0</ele><time>2026-04-06T14:11:14.983Z</time></trkpt><trkpt lat="45.5202436" lon="11.0923866"><ele>598.75</ele><time>2026-04-06T14:11:15.984Z</time></trkpt><trkpt lat="45.5203572" lon="11.0924458"><ele>600.5</ele><time>2026-04-06T14:11:16.984Z</time></trkpt><trkpt lat="45.5204721" lon="11.0925172"><ele>602.25</ele><time>2026-04-06T14:11:17.984Z</time></trkpt><trkpt lat="45.5205792" lon="11.0925911"><ele>604.0</ele><time>2026-04-06T14:11:18.983Z</time></trkpt><trkpt lat="45.5206725" lon="11.0926433"><ele>604.0</ele><time>2026-04-06T14:11:19.983Z</time></trkpt><trkpt lat="45.5207542" lon="11.0926793"><ele>604.0</ele><time>2026-04-06T14:11:20.983Z</time></trkpt><trkpt lat="45.5208253" lon="11.092709"><ele>604.0</ele><time>2026-04-06T14:11:21.983Z</time></trkpt><trkpt lat="45.5209298" lon="11.0927399"><ele>604.0</ele><time>2026-04-06T14:11:23.984Z</time></trkpt><trkpt lat="45.521007" lon="11.0927351"><ele>604.0</ele><time>2026-04-06T14:11:26.983Z</time></trkpt><trkpt lat="45.5210147" lon="11.0926249"><ele>604.0</ele><time>2026-04-06T14:11:33.983Z</time></trkpt><trkpt lat="45.5208972" lon="11.0925377"><ele>604.0</ele><time>2026-04-06T14:11:35.983Z</time></trkpt><trkpt lat="45.520814" lon="11.092483"><ele>604.0</ele><time>2026-04-06T14:11:36.985Z</time></trkpt><trkpt lat="45.520736" lon="11.092384"><ele>604.0</ele><time>2026-04-06T14:11:37.984Z</time></trkpt><trkpt lat="45.5206679" lon="11.0922506"><ele>604.0</ele><time>2026-04-06T14:11:38.985Z</time></trkpt><trkpt lat="45.5206002" lon="11.0920761"><ele>599.3333333333334</ele><time>2026-04-06T14:11:39.983Z</time></trkpt><trkpt lat="45.5205305" lon="11.0918747"><ele>594.6666666666666</ele><time>2026-04-06T14:11:40.984Z</time></trkpt><trkpt lat="45.520457" lon="11.0916543"><ele>590.0</ele><time>2026-04-06T14:11:41.983Z</time></trkpt><trkpt lat="45.5203897" lon="11.0914585"><ele>588.25</ele><time>2026-04-06T14:11:42.984Z</time></trkpt><trkpt lat="45.5203255" lon="11.0912866"><ele>586.5</ele><time>2026-04-06T14:11:43.984Z</time></trkpt><trkpt lat="45.520257" lon="11.0911485"><ele>584.75</ele><time>2026-04-06T14:11:44.984Z</time></trkpt><trkpt lat="45.5201751" lon="11.0910401"><ele>583.0</ele><time>2026-04-06T14:11:45.984Z</time></trkpt><trkpt lat="45.5200725" lon="11.0909659"><ele>583.0</ele><time>2026-04-06T14:11:46.983Z</time></trkpt><trkpt lat="45.5199517" lon="11.0909196"><ele>583.0</ele><time>2026-04-06T14:11:47.985Z</time></trkpt><trkpt lat="45.5198121" lon="11.0909294"><ele>583.0</ele><time>2026-04-06T14:11:48.983Z</time></trkpt><trkpt lat="45.5196728" lon="11.0909895"><ele>583.0</ele><time>2026-04-06T14:11:49.984Z</time></trkpt><trkpt lat="45.5195217" lon="11.091096"><ele>578.3333333333334</ele><time>2026-04-06T14:11:50.985Z</time></trkpt><trkpt lat="45.5193698" lon="11.0912326"><ele>573.6666666666666</ele><time>2026-04-06T14:11:51.983Z</time></trkpt><trkpt lat="45.5192375" lon="11.0913794"><ele>569.0</ele><time>2026-04-06T14:11:52.983Z</time></trkpt><trkpt lat="45.519129" lon="11.0915177"><ele>569.75</ele><time>2026-04-06T14:11:53.984Z</time></trkpt><trkpt lat="45.5190325" lon="11.0916403"><ele>570.5</ele><time>2026-04-06T14:11:54.983Z</time></trkpt><trkpt lat="45.5189301" lon="11.0917317"><ele>571.25</ele><time>2026-04-06T14:11:55.984Z</time></trkpt><trkpt lat="45.5188107" lon="11.0917753"><ele>572.0</ele><time>2026-04-06T14:11:56.985Z</time></trkpt><trkpt lat="45.518662" lon="11.091762"><ele>572.0</ele><time>2026-04-06T14:11:57.984Z</time></trkpt><trkpt lat="45.5184916" lon="11.0917334"><ele>572.0</ele><time>2026-04-06T14:11:58.983Z</time></trkpt><trkpt lat="45.5183021" lon="11.0916982"><ele>572.0</ele><time>2026-04-06T14:11:59.984Z</time></trkpt><trkpt lat="45.5180977" lon="11.0916737"><ele>572.0</ele><time>2026-04-06T14:12:00.984Z</time></trkpt><trkpt lat="45.51792" lon="11.0916673"><ele>572.0</ele><time>2026-04-06T14:12:01.984Z</time></trkpt><trkpt lat="45.517772" lon="11.0916642"><ele>572.0</ele><time>2026-04-06T14:12:02.983Z</time></trkpt><trkpt lat="45.5176536" lon="11.0916767"><ele>572.0</ele><time>2026-04-06T14:12:03.983Z</time></trkpt><trkpt lat="45.5175377" lon="11.0917203"><ele>568.75</ele><time>2026-04-06T14:12:04.983Z</time></trkpt><trkpt lat="45.5174323" lon="11.0918294"><ele>565.5</ele><time>2026-04-06T14:12:05.984Z</time></trkpt><trkpt lat="45.51733" lon="11.0919751"><ele>562.25</ele><time>2026-04-06T14:12:06.983Z</time></trkpt><trkpt lat="45.5172038" lon="11.0921088"><ele>559.0</ele><time>2026-04-06T14:12:07.983Z</time></trkpt><trkpt lat="45.5170641" lon="11.0922116"><ele>555.25</ele><time>2026-04-06T14:12:08.984Z</time></trkpt><trkpt lat="45.5169173" lon="11.0922853"><ele>551.5</ele><time>2026-04-06T14:12:09.985Z</time></trkpt><trkpt lat="45.5167819" lon="11.0923264"><ele>547.75</ele><time>2026-04-06T14:12:10.984Z</time></trkpt><trkpt lat="45.5166698" lon="11.0923096"><ele>544.0</ele><time>2026-04-06T14:12:11.984Z</time></trkpt><trkpt lat="45.5165599" lon="11.0922586"><ele>544.0</ele><time>2026-04-06T14:12:12.983Z</time></trkpt><trkpt lat="45.5164517" lon="11.09215"><ele>544.0</ele><time>2026-04-06T14:12:13.984Z</time></trkpt><trkpt lat="45.5163519" lon="11.0920147"><ele>544.0</ele><time>2026-04-06T14:12:14.983Z</time></trkpt><trkpt lat="45.5162594" lon="11.0918462"><ele>544.0</ele><time>2026-04-06T14:12:15.985Z</time></trkpt><trkpt lat="45.5161678" lon="11.0916987"><ele>540.0</ele><time>2026-04-06T14:12:16.983Z</time></trkpt><trkpt lat="45.516076" lon="11.0915723"><ele>536.0</ele><time>2026-04-06T14:12:17.984Z</time></trkpt><trkpt lat="45.51598" lon="11.0914762"><ele>532.0</ele><time>2026-04-06T14:12:18.983Z</time></trkpt><trkpt lat="45.5158825" lon="11.0914222"><ele>528.0</ele><time>2026-04-06T14:12:19.983Z</time></trkpt><trkpt lat="45.515789" lon="11.0914192"><ele>524.0</ele><time>2026-04-06T14:12:20.984Z</time></trkpt><trkpt lat="45.5156863" lon="11.0914614"><ele>524.0</ele><time>2026-04-06T14:12:21.983Z</time></trkpt><trkpt lat="45.5155804" lon="11.0915471"><ele>524.0</ele><time>2026-04-06T14:12:22.984Z</time></trkpt><trkpt lat="45.5154704" lon="11.0916509"><ele>524.0</ele><time>2026-04-06T14:12:23.984Z</time></trkpt><trkpt lat="45.5153621" lon="11.0917153"><ele>524.0</ele><time>2026-04-06T14:12:24.983Z</time></trkpt><trkpt lat="45.515243" lon="11.0917284"><ele>524.0</ele><time>2026-04-06T14:12:25.983Z</time></trkpt><trkpt lat="45.5151173" lon="11.0916869"><ele>524.0</ele><time>2026-04-06T14:12:26.983Z</time></trkpt><trkpt lat="45.514989" lon="11.091587"><ele>524.0</ele><time>2026-04-06T14:12:27.983Z</time></trkpt><trkpt lat="45.5148653" lon="11.0914582"><ele>524.0</ele><time>2026-04-06T14:12:28.983Z</time></trkpt><trkpt lat="45.51475" lon="11.0913371"><ele>524.0</ele><time>2026-04-06T14:12:29.985Z</time></trkpt><trkpt lat="45.5146324" lon="11.0912623"><ele>524.0</ele><time>2026-04-06T14:12:30.985Z</time></trkpt><trkpt lat="45.5144969" lon="11.0912318"><ele>524.0</ele><time>2026-04-06T14:12:31.985Z</time></trkpt><trkpt lat="45.5143495" lon="11.0912537"><ele>524.0</ele><time>2026-04-06T14:12:32.984Z</time></trkpt><trkpt lat="45.5141894" lon="11.0913085"><ele>521.6666666666666</ele><time>2026-04-06T14:12:33.984Z</time></trkpt><trkpt lat="45.5140384" lon="11.0913417"><ele>519.3333333333334</ele><time>2026-04-06T14:12:34.983Z</time></trkpt><trkpt lat="45.5138851" lon="11.0913247"><ele>517.0</ele><time>2026-04-06T14:12:35.983Z</time></trkpt><trkpt lat="45.5137252" lon="11.0912686"><ele>517.0</ele><time>2026-04-06T14:12:36.984Z</time></trkpt><trkpt lat="45.5135695" lon="11.0911686"><ele>517.0</ele><time>2026-04-06T14:12:37.984Z</time></trkpt><trkpt lat="45.5134083" lon="11.0910304"><ele>517.0</ele><time>2026-04-06T14:12:38.984Z</time></trkpt><trkpt lat="45.5132275" lon="11.0908672"><ele>513.0</ele><time>2026-04-06T14:12:39.984Z</time></trkpt><trkpt lat="45.5130485" lon="11.0907056"><ele>509.0</ele><time>2026-04-06T14:12:40.983Z</time></trkpt><trkpt lat="45.5128894" lon="11.0905618"><ele>505.0</ele><time>2026-04-06T14:12:41.983Z</time></trkpt><trkpt lat="45.5127515" lon="11.0904391"><ele>505.0</ele><time>2026-04-06T14:12:42.984Z</time></trkpt><trkpt lat="45.5126282" lon="11.0903386"><ele>505.0</ele><time>2026-04-06T14:12:43.984Z</time></trkpt><trkpt lat="45.5125111" lon="11.0902641"><ele>505.0</ele><time>2026-04-06T14:12:44.985Z</time></trkpt><trkpt lat="45.512392" lon="11.09023"><ele>505.0</ele><time>2026-04-06T14:12:45.985Z</time></trkpt><trkpt lat="45.5122573" lon="11.090248"><ele>505.0</ele><time>2026-04-06T14:12:46.983Z</time></trkpt><trkpt lat="45.5121002" lon="11.0903127"><ele>505.0</ele><time>2026-04-06T14:12:47.985Z</time></trkpt><trkpt lat="45.5119346" lon="11.0903781"><ele>505.0</ele><time>2026-04-06T14:12:48.984Z</time></trkpt><trkpt lat="45.5117737" lon="11.0904085"><ele>501.75</ele><time>2026-04-06T14:12:49.984Z</time></trkpt><trkpt lat="45.5116204" lon="11.0904097"><ele>498.5</ele><time>2026-04-06T14:12:50.983Z</time></trkpt><trkpt lat="45.511486" lon="11.0904155"><ele>495.25</ele><time>2026-04-06T14:12:51.983Z</time></trkpt><trkpt lat="45.5113766" lon="11.0904353"><ele>492.0</ele><time>2026-04-06T14:12:52.984Z</time></trkpt><trkpt lat="45.5112802" lon="11.0904925"><ele>493.20000000000005</ele><time>2026-04-06T14:12:53.983Z</time></trkpt><trkpt lat="45.5112001" lon="11.090602"><ele>494.40000000000003</ele><time>2026-04-06T14:12:54.984Z</time></trkpt><trkpt lat="45.511134" lon="11.0907349"><ele>495.59999999999997</ele><time>2026-04-06T14:12:55.983Z</time></trkpt><trkpt lat="45.5110658" lon="11.0908449"><ele>496.79999999999995</ele><time>2026-04-06T14:12:56.983Z</time></trkpt><trkpt lat="45.5109751" lon="11.0909167"><ele>498.0</ele><time>2026-04-06T14:12:57.983Z</time></trkpt><trkpt lat="45.5108709" lon="11.0909415"><ele>498.0</ele><time>2026-04-06T14:12:58.984Z</time></trkpt><trkpt lat="45.5107612" lon="11.0909107"><ele>498.0</ele><time>2026-04-06T14:12:59.984Z</time></trkpt><trkpt lat="45.510655" lon="11.0908092"><ele>498.0</ele><time>2026-04-06T14:13:00.984Z</time></trkpt><trkpt lat="45.5105462" lon="11.0906699"><ele>498.0</ele><time>2026-04-06T14:13:01.983Z</time></trkpt><trkpt lat="45.5104387" lon="11.0904887"><ele>495.33333333333337</ele><time>2026-04-06T14:13:02.984Z</time></trkpt><trkpt lat="45.5103284" lon="11.0903308"><ele>492.6666666666667</ele><time>2026-04-06T14:13:03.984Z</time></trkpt><trkpt lat="45.5102024" lon="11.0901938"><ele>490.0</ele><time>2026-04-06T14:13:04.983Z</time></trkpt><trkpt lat="45.5100459" lon="11.0900796"><ele>490.0</ele><time>2026-04-06T14:13:05.984Z</time></trkpt><trkpt lat="45.5098711" lon="11.089966"><ele>490.0</ele><time>2026-04-06T14:13:06.985Z</time></trkpt><trkpt lat="45.5097058" lon="11.0898342"><ele>490.0</ele><time>2026-04-06T14:13:07.983Z</time></trkpt><trkpt lat="45.509564" lon="11.0896874"><ele>489.0</ele><time>2026-04-06T14:13:08.984Z</time></trkpt><trkpt lat="45.5094404" lon="11.0895267"><ele>488.0</ele><time>2026-04-06T14:13:09.985Z</time></trkpt><trkpt lat="45.5093323" lon="11.0893472"><ele>487.0</ele><time>2026-04-06T14:13:10.983Z</time></trkpt><trkpt lat="45.5092322" lon="11.0891499"><ele>480.33333333333337</ele><time>2026-04-06T14:13:11.984Z</time></trkpt><trkpt lat="45.5091454" lon="11.0889319"><ele>473.66666666666663</ele><time>2026-04-06T14:13:12.984Z</time></trkpt><trkpt lat="45.5090646" lon="11.0886835"><ele>467.0</ele><time>2026-04-06T14:13:13.984Z</time></trkpt><trkpt lat="45.5089879" lon="11.0884063"><ele>462.3333333333333</ele><time>2026-04-06T14:13:14.985Z</time></trkpt><trkpt lat="45.5089217" lon="11.0881133"><ele>457.66666666666663</ele><time>2026-04-06T14:13:15.983Z</time></trkpt><trkpt lat="45.5088667" lon="11.0878173"><ele>453.0</ele><time>2026-04-06T14:13:16.984Z</time></trkpt><trkpt lat="45.5088282" lon="11.0875274"><ele>451.33333333333337</ele><time>2026-04-06T14:13:17.984Z</time></trkpt><trkpt lat="45.5088076" lon="11.0872404"><ele>449.6666666666667</ele><time>2026-04-06T14:13:18.984Z</time></trkpt><trkpt lat="45.50881" lon="11.0869632"><ele>448.0</ele><time>2026-04-06T14:13:19.984Z</time></trkpt><trkpt lat="45.5088132" lon="11.0866973"><ele>446.33333333333337</ele><time>2026-04-06T14:13:20.984Z</time></trkpt><trkpt lat="45.5088013" lon="11.086425"><ele>444.66666666666663</ele><time>2026-04-06T14:13:21.984Z</time></trkpt><trkpt lat="45.5087725" lon="11.0861601"><ele>443.0</ele><time>2026-04-06T14:13:22.983Z</time></trkpt><trkpt lat="45.508732" lon="11.0859174"><ele>446.25</ele><time>2026-04-06T14:13:23.984Z</time></trkpt><trkpt lat="45.5086847" lon="11.0857199"><ele>449.5</ele><time>2026-04-06T14:13:24.984Z</time></trkpt><trkpt lat="45.5086273" lon="11.0855623"><ele>452.75</ele><time>2026-04-06T14:13:25.983Z</time></trkpt><trkpt lat="45.5085493" lon="11.0854346"><ele>456.0</ele><time>2026-04-06T14:13:26.985Z</time></trkpt><trkpt lat="45.5084465" lon="11.0853405"><ele>456.0</ele><time>2026-04-06T14:13:27.983Z</time></trkpt><trkpt lat="45.5083212" lon="11.0852825"><ele>456.0</ele><time>2026-04-06T14:13:28.983Z</time></trkpt><trkpt lat="45.5081714" lon="11.0852639"><ele>456.0</ele><time>2026-04-06T14:13:29.983Z</time></trkpt><trkpt lat="45.5080085" lon="11.0852833"><ele>456.0</ele><time>2026-04-06T14:13:30.985Z</time></trkpt><trkpt lat="45.5078561" lon="11.08534"><ele>453.66666666666663</ele><time>2026-04-06T14:13:31.983Z</time></trkpt><trkpt lat="45.5077202" lon="11.0854506"><ele>451.3333333333333</ele><time>2026-04-06T14:13:32.983Z</time></trkpt><trkpt lat="45.5075826" lon="11.0855994"><ele>449.0</ele><time>2026-04-06T14:13:33.984Z</time></trkpt><trkpt lat="45.5074334" lon="11.0857816"><ele>449.0</ele><time>2026-04-06T14:13:34.984Z</time></trkpt><trkpt lat="45.5072714" lon="11.0859789"><ele>449.0</ele><time>2026-04-06T14:13:35.983Z</time></trkpt><trkpt lat="45.5071227" lon="11.086176"><ele>449.0</ele><time>2026-04-06T14:13:36.983Z</time></trkpt><trkpt lat="45.5069971" lon="11.0863716"><ele>445.0</ele><time>2026-04-06T14:13:37.983Z</time></trkpt><trkpt lat="45.5068965" lon="11.086581"><ele>441.0</ele><time>2026-04-06T14:13:38.984Z</time></trkpt><trkpt lat="45.5068116" lon="11.0868165"><ele>437.0</ele><time>2026-04-06T14:13:39.984Z</time></trkpt><trkpt lat="45.5067509" lon="11.0870671"><ele>437.0</ele><time>2026-04-06T14:13:40.984Z</time></trkpt><trkpt lat="45.5067127" lon="11.0872761"><ele>437.0</ele><time>2026-04-06T14:13:41.984Z</time></trkpt><trkpt lat="45.5066804" lon="11.0874426"><ele>437.0</ele><time>2026-04-06T14:13:42.984Z</time></trkpt><trkpt lat="45.5066495" lon="11.0875933"><ele>437.0</ele><time>2026-04-06T14:13:43.984Z</time></trkpt><trkpt lat="45.5066037" lon="11.0876916"><ele>439.40000000000003</ele><time>2026-04-06T14:13:44.983Z</time></trkpt><trkpt lat="45.5065368" lon="11.0877601"><ele>441.80000000000007</ele><time>2026-04-06T14:13:45.984Z</time></trkpt><trkpt lat="45.5064557" lon="11.0877863"><ele>444.2</ele><time>2026-04-06T14:13:46.983Z</time></trkpt><trkpt lat="45.5063724" lon="11.0877509"><ele>446.6</ele><time>2026-04-06T14:13:47.983Z</time></trkpt><trkpt lat="45.5062885" lon="11.0876515"><ele>449.0</ele><time>2026-04-06T14:13:48.984Z</time></trkpt><trkpt lat="45.5062058" lon="11.0875062"><ele>447.0</ele><time>2026-04-06T14:13:49.983Z</time></trkpt><trkpt lat="45.5061162" lon="11.0872948"><ele>445.0</ele><time>2026-04-06T14:13:50.984Z</time></trkpt><trkpt lat="45.5060166" lon="11.0871008"><ele>443.0</ele><time>2026-04-06T14:13:51.984Z</time></trkpt><trkpt lat="45.5058866" lon="11.0869093"><ele>443.0</ele><time>2026-04-06T14:13:52.983Z</time></trkpt><trkpt lat="45.5057549" lon="11.0867377"><ele>443.0</ele><time>2026-04-06T14:13:53.984Z</time></trkpt><trkpt lat="45.5056552" lon="11.0865741"><ele>443.0</ele><time>2026-04-06T14:13:54.984Z</time></trkpt><trkpt lat="45.5055835" lon="11.0863944"><ele>437.66666666666663</ele><time>2026-04-06T14:13:55.983Z</time></trkpt><trkpt lat="45.5055362" lon="11.0861849"><ele>432.33333333333337</ele><time>2026-04-06T14:13:56.983Z</time></trkpt><trkpt lat="45.5054905" lon="11.085948"><ele>427.0</ele><time>2026-04-06T14:13:57.984Z</time></trkpt><trkpt lat="45.5054241" lon="11.0856953"><ele>433.0</ele><time>2026-04-06T14:13:58.983Z</time></trkpt><trkpt lat="45.5053624" lon="11.0854259"><ele>439.0</ele><time>2026-04-06T14:13:59.984Z</time></trkpt><trkpt lat="45.5053259" lon="11.0851531"><ele>445.0</ele><time>2026-04-06T14:14:00.983Z</time></trkpt><trkpt lat="45.5053062" lon="11.0848978"><ele>445.0</ele><time>2026-04-06T14:14:01.983Z</time></trkpt><trkpt lat="45.5053043" lon="11.0846508"><ele>445.0</ele><time>2026-04-06T14:14:02.984Z</time></trkpt><trkpt lat="45.5053239" lon="11.084401"><ele>445.0</ele><time>2026-04-06T14:14:03.984Z</time></trkpt><trkpt lat="45.5053671" lon="11.084143"><ele>435.33333333333337</ele><time>2026-04-06T14:14:04.983Z</time></trkpt><trkpt lat="45.505417" lon="11.0838973"><ele>425.66666666666663</ele><time>2026-04-06T14:14:05.984Z</time></trkpt><trkpt lat="45.5054615" lon="11.0836747"><ele>416.0</ele><time>2026-04-06T14:14:06.984Z</time></trkpt><trkpt lat="45.5055038" lon="11.083462"><ele>416.0</ele><time>2026-04-06T14:14:07.983Z</time></trkpt><trkpt lat="45.505528" lon="11.0832675"><ele>416.0</ele><time>2026-04-06T14:14:08.984Z</time></trkpt><trkpt lat="45.5055266" lon="11.0830804"><ele>416.0</ele><time>2026-04-06T14:14:09.983Z</time></trkpt><trkpt lat="45.5054965" lon="11.0828959"><ele>416.0</ele><time>2026-04-06T14:14:10.983Z</time></trkpt><trkpt lat="45.5054331" lon="11.0827064"><ele>417.3333333333333</ele><time>2026-04-06T14:14:11.984Z</time></trkpt><trkpt lat="45.5053341" lon="11.0825194"><ele>418.66666666666663</ele><time>2026-04-06T14:14:12.983Z</time></trkpt><trkpt lat="45.5052095" lon="11.0823286"><ele>420.0</ele><time>2026-04-06T14:14:13.983Z</time></trkpt><trkpt lat="45.5050726" lon="11.0821259"><ele>420.0</ele><time>2026-04-06T14:14:14.984Z</time></trkpt><trkpt lat="45.5049497" lon="11.0819261"><ele>420.0</ele><time>2026-04-06T14:14:15.985Z</time></trkpt><trkpt lat="45.5048455" lon="11.0817308"><ele>420.0</ele><time>2026-04-06T14:14:16.985Z</time></trkpt><trkpt lat="45.5047599" lon="11.0815174"><ele>417.0</ele><time>2026-04-06T14:14:17.984Z</time></trkpt><trkpt lat="45.504698" lon="11.0812765"><ele>414.0</ele><time>2026-04-06T14:14:18.985Z</time></trkpt><trkpt lat="45.5046567" lon="11.0809984"><ele>411.0</ele><time>2026-04-06T14:14:19.984Z</time></trkpt><trkpt lat="45.5046257" lon="11.0806825"><ele>410.66666666666663</ele><time>2026-04-06T14:14:20.983Z</time></trkpt><trkpt lat="45.5046011" lon="11.0803893"><ele>410.3333333333333</ele><time>2026-04-06T14:14:21.983Z</time></trkpt><trkpt lat="45.504581" lon="11.0801356"><ele>410.0</ele><time>2026-04-06T14:14:22.985Z</time></trkpt><trkpt lat="45.5045623" lon="11.0799178"><ele>410.0</ele><time>2026-04-06T14:14:23.984Z</time></trkpt><trkpt lat="45.5045431" lon="11.0797257"><ele>410.0</ele><time>2026-04-06T14:14:24.983Z</time></trkpt><trkpt lat="45.5045171" lon="11.079553"><ele>410.0</ele><time>2026-04-06T14:14:25.984Z</time></trkpt><trkpt lat="45.5044633" lon="11.0794148"><ele>410.0</ele><time>2026-04-06T14:14:26.983Z</time></trkpt><trkpt lat="45.5043873" lon="11.079303"><ele>410.0</ele><time>2026-04-06T14:14:27.983Z</time></trkpt><trkpt lat="45.5042936" lon="11.0792308"><ele>410.0</ele><time>2026-04-06T14:14:28.984Z</time></trkpt><trkpt lat="45.5041885" lon="11.0792089"><ele>410.0</ele><time>2026-04-06T14:14:29.983Z</time></trkpt><trkpt lat="45.5040741" lon="11.0792359"><ele>410.0</ele><time>2026-04-06T14:14:30.984Z</time></trkpt><trkpt lat="45.5039706" lon="11.0793309"><ele>410.0</ele><time>2026-04-06T14:14:31.985Z</time></trkpt><trkpt lat="45.5038848" lon="11.0794685"><ele>410.0</ele><time>2026-04-06T14:14:32.984Z</time></trkpt><trkpt lat="45.5038047" lon="11.0796606"><ele>410.0</ele><time>2026-04-06T14:14:33.983Z</time></trkpt><trkpt lat="45.5037135" lon="11.0798904"><ele>409.0</ele><time>2026-04-06T14:14:34.984Z</time></trkpt><trkpt lat="45.5036061" lon="11.0801259"><ele>408.0</ele><time>2026-04-06T14:14:35.985Z</time></trkpt><trkpt lat="45.5034675" lon="11.0803703"><ele>407.0</ele><time>2026-04-06T14:14:36.985Z</time></trkpt><trkpt lat="45.5033113" lon="11.0806252"><ele>408.66666666666663</ele><time>2026-04-06T14:14:37.983Z</time></trkpt><trkpt lat="45.503159" lon="11.0808697"><ele>410.33333333333337</ele><time>2026-04-06T14:14:38.984Z</time></trkpt><trkpt lat="45.503024" lon="11.0810977"><ele>412.0</ele><time>2026-04-06T14:14:39.983Z</time></trkpt><trkpt lat="45.5029133" lon="11.0812969"><ele>410.25</ele><time>2026-04-06T14:14:40.985Z</time></trkpt><trkpt lat="45.5028131" lon="11.0814624"><ele>408.5</ele><time>2026-04-06T14:14:41.984Z</time></trkpt><trkpt lat="45.5027194" lon="11.0815822"><ele>406.75</ele><time>2026-04-06T14:14:42.984Z</time></trkpt><trkpt lat="45.5026128" lon="11.0816719"><ele>405.0</ele><time>2026-04-06T14:14:43.983Z</time></trkpt><trkpt lat="45.502477" lon="11.0817068"><ele>405.0</ele><time>2026-04-06T14:14:44.984Z</time></trkpt><trkpt lat="45.5023259" lon="11.0817221"><ele>405.0</ele><time>2026-04-06T14:14:45.984Z</time></trkpt><trkpt lat="45.5021931" lon="11.081738"><ele>405.0</ele><time>2026-04-06T14:14:46.984Z</time></trkpt><trkpt lat="45.5020822" lon="11.0817679"><ele>405.0</ele><time>2026-04-06T14:14:47.984Z</time></trkpt><trkpt lat="45.5019829" lon="11.0818302"><ele>400.5</ele><time>2026-04-06T14:14:48.984Z</time></trkpt><trkpt lat="45.5019006" lon="11.0819355"><ele>396.0</ele><time>2026-04-06T14:14:49.983Z</time></trkpt><trkpt lat="45.5018272" lon="11.0820818"><ele>391.5</ele><time>2026-04-06T14:14:50.983Z</time></trkpt><trkpt lat="45.5017622" lon="11.0822303"><ele>387.0</ele><time>2026-04-06T14:14:51.984Z</time></trkpt><trkpt lat="45.5016865" lon="11.0823577"><ele>385.5</ele><time>2026-04-06T14:14:52.983Z</time></trkpt><trkpt lat="45.5015891" lon="11.082458"><ele>384.0</ele><time>2026-04-06T14:14:53.984Z</time></trkpt><trkpt lat="45.5014764" lon="11.0825082"><ele>382.5</ele><time>2026-04-06T14:14:54.984Z</time></trkpt><trkpt lat="45.5013519" lon="11.0825142"><ele>381.0</ele><time>2026-04-06T14:14:55.984Z</time></trkpt><trkpt lat="45.5012336" lon="11.0824748"><ele>380.25</ele><time>2026-04-06T14:14:56.984Z</time></trkpt><trkpt lat="45.5011225" lon="11.0823907"><ele>379.5</ele><time>2026-04-06T14:14:57.983Z</time></trkpt><trkpt lat="45.5010234" lon="11.0822582"><ele>378.75</ele><time>2026-04-06T14:14:58.983Z</time></trkpt><trkpt lat="45.5009301" lon="11.0820787"><ele>378.0</ele><time>2026-04-06T14:14:59.983Z</time></trkpt><trkpt lat="45.5008468" lon="11.0818869"><ele>378.0</ele><time>2026-04-06T14:15:00.984Z</time></trkpt><trkpt lat="45.5007739" lon="11.0816978"><ele>378.0</ele><time>2026-04-06T14:15:01.984Z</time></trkpt><trkpt lat="45.5007219" lon="11.0814992"><ele>378.0</ele><time>2026-04-06T14:15:02.983Z</time></trkpt><trkpt lat="45.5006962" lon="11.0812871"><ele>376.0</ele><time>2026-04-06T14:15:03.984Z</time></trkpt><trkpt lat="45.5006913" lon="11.0810476"><ele>374.0</ele><time>2026-04-06T14:15:04.985Z</time></trkpt><trkpt lat="45.5006938" lon="11.0808184"><ele>372.0</ele><time>2026-04-06T14:15:05.983Z</time></trkpt><trkpt lat="45.5006818" lon="11.0805924"><ele>370.0</ele><time>2026-04-06T14:15:06.983Z</time></trkpt><trkpt lat="45.5006471" lon="11.0803743"><ele>368.0</ele><time>2026-04-06T14:15:07.983Z</time></trkpt><trkpt lat="45.5005834" lon="11.080127"><ele>366.0</ele><time>2026-04-06T14:15:08.983Z</time></trkpt><trkpt lat="45.5005033" lon="11.0798519"><ele>362.5</ele><time>2026-04-06T14:15:09.983Z</time></trkpt><trkpt lat="45.5004195" lon="11.0795574"><ele>359.0</ele><time>2026-04-06T14:15:10.984Z</time></trkpt><trkpt lat="45.5003339" lon="11.0792388"><ele>358.33333333333337</ele><time>2026-04-06T14:15:11.985Z</time></trkpt><trkpt lat="45.500261" lon="11.0789396"><ele>357.6666666666667</ele><time>2026-04-06T14:15:12.984Z</time></trkpt><trkpt lat="45.5001925" lon="11.0786448"><ele>357.0</ele><time>2026-04-06T14:15:13.984Z</time></trkpt><trkpt lat="45.5001263" lon="11.0783612"><ele>356.6666666666667</ele><time>2026-04-06T14:15:14.984Z</time></trkpt><trkpt lat="45.5000634" lon="11.0780881"><ele>356.33333333333337</ele><time>2026-04-06T14:15:15.985Z</time></trkpt><trkpt lat="45.5000039" lon="11.077825"><ele>356.0</ele><time>2026-04-06T14:15:16.983Z</time></trkpt><trkpt lat="45.4999502" lon="11.0775712"><ele>355.0</ele><time>2026-04-06T14:15:17.985Z</time></trkpt><trkpt lat="45.4999063" lon="11.0773255"><ele>354.0</ele><time>2026-04-06T14:15:18.983Z</time></trkpt><trkpt lat="45.4998702" lon="11.0770865"><ele>353.0</ele><time>2026-04-06T14:15:19.985Z</time></trkpt><trkpt lat="45.4998396" lon="11.0768564"><ele>353.0</ele><time>2026-04-06T14:15:20.984Z</time></trkpt><trkpt lat="45.4998132" lon="11.0766385"><ele>353.0</ele><time>2026-04-06T14:15:21.983Z</time></trkpt><trkpt lat="45.4997898" lon="11.0764268"><ele>353.0</ele><time>2026-04-06T14:15:22.984Z</time></trkpt><trkpt lat="45.4997677" lon="11.076234"><ele>353.0</ele><time>2026-04-06T14:15:23.984Z</time></trkpt><trkpt lat="45.499744" lon="11.0760569"><ele>351.75</ele><time>2026-04-06T14:15:24.984Z</time></trkpt><trkpt lat="45.4997147" lon="11.075883"><ele>350.5</ele><time>2026-04-06T14:15:25.984Z</time></trkpt><trkpt lat="45.4996781" lon="11.0757217"><ele>349.25</ele><time>2026-04-06T14:15:26.984Z</time></trkpt><trkpt lat="45.4996288" lon="11.0755792"><ele>348.0</ele><time>2026-04-06T14:15:27.983Z</time></trkpt><trkpt lat="45.4995615" lon="11.0754689"><ele>347.4</ele><time>2026-04-06T14:15:28.984Z</time></trkpt><trkpt lat="45.4994774" lon="11.075388"><ele>346.79999999999995</ele><time>2026-04-06T14:15:29.984Z</time></trkpt><trkpt lat="45.4993843" lon="11.0753483"><ele>346.2</ele><time>2026-04-06T14:15:30.985Z</time></trkpt><trkpt lat="45.4992901" lon="11.0753528"><ele>345.6</ele><time>2026-04-06T14:15:31.984Z</time></trkpt><trkpt lat="45.4991995" lon="11.0753986"><ele>345.0</ele><time>2026-04-06T14:15:32.983Z</time></trkpt><trkpt lat="45.4991035" lon="11.0754751"><ele>345.0</ele><time>2026-04-06T14:15:33.984Z</time></trkpt><trkpt lat="45.4990003" lon="11.0755788"><ele>345.0</ele><time>2026-04-06T14:15:34.984Z</time></trkpt><trkpt lat="45.4988851" lon="11.0757007"><ele>345.0</ele><time>2026-04-06T14:15:35.984Z</time></trkpt><trkpt lat="45.4987625" lon="11.0758306"><ele>345.0</ele><time>2026-04-06T14:15:36.984Z</time></trkpt><trkpt lat="45.4986409" lon="11.0759541"><ele>343.0</ele><time>2026-04-06T14:15:37.984Z</time></trkpt><trkpt lat="45.498528" lon="11.0760655"><ele>341.0</ele><time>2026-04-06T14:15:38.984Z</time></trkpt><trkpt lat="45.4984261" lon="11.0761715"><ele>339.0</ele><time>2026-04-06T14:15:39.983Z</time></trkpt><trkpt lat="45.4983339" lon="11.0762838"><ele>337.0</ele><time>2026-04-06T14:15:40.983Z</time></trkpt><trkpt lat="45.4982614" lon="11.0764044"><ele>337.0</ele><time>2026-04-06T14:15:41.983Z</time></trkpt><trkpt lat="45.4982129" lon="11.0765411"><ele>337.0</ele><time>2026-04-06T14:15:42.985Z</time></trkpt><trkpt lat="45.4981953" lon="11.0766883"><ele>337.0</ele><time>2026-04-06T14:15:43.984Z</time></trkpt><trkpt lat="45.4982003" lon="11.0768411"><ele>337.0</ele><time>2026-04-06T14:15:44.984Z</time></trkpt><trkpt lat="45.4982266" lon="11.0770117"><ele>337.0</ele><time>2026-04-06T14:15:45.983Z</time></trkpt><trkpt lat="45.498272" lon="11.0771882"><ele>337.75</ele><time>2026-04-06T14:15:46.984Z</time></trkpt><trkpt lat="45.4983281" lon="11.0773611"><ele>338.5</ele><time>2026-04-06T14:15:47.983Z</time></trkpt><trkpt lat="45.4983839" lon="11.0775216"><ele>339.25</ele><time>2026-04-06T14:15:48.983Z</time></trkpt><trkpt lat="45.4984387" lon="11.077678"><ele>340.0</ele><time>2026-04-06T14:15:49.983Z</time></trkpt><trkpt lat="45.498492" lon="11.0778291"><ele>338.4</ele><time>2026-04-06T14:15:50.983Z</time></trkpt><trkpt lat="45.4985454" lon="11.0779764"><ele>336.8</ele><time>2026-04-06T14:15:51.984Z</time></trkpt><trkpt lat="45.4985968" lon="11.0781194"><ele>335.20000000000005</ele><time>2026-04-06T14:15:52.984Z</time></trkpt><trkpt lat="45.4986426" lon="11.0782541"><ele>333.6</ele><time>2026-04-06T14:15:53.983Z</time></trkpt><trkpt lat="45.4986749" lon="11.0783806"><ele>332.0</ele><time>2026-04-06T14:15:54.984Z</time></trkpt><trkpt lat="45.4986918" lon="11.0785068"><ele>331.0</ele><time>2026-04-06T14:15:55.984Z</time></trkpt><trkpt lat="45.4986884" lon="11.0786308"><ele>330.0</ele><time>2026-04-06T14:15:56.983Z</time></trkpt><trkpt lat="45.4986624" lon="11.078752"><ele>329.0</ele><time>2026-04-06T14:15:57.984Z</time></trkpt><trkpt lat="45.4986028" lon="11.0788761"><ele>328.0</ele><time>2026-04-06T14:15:58.983Z</time></trkpt><trkpt lat="45.4985219" lon="11.0789989"><ele>327.0</ele><time>2026-04-06T14:15:59.983Z</time></trkpt><trkpt lat="45.4984237" lon="11.0791201"><ele>327.0</ele><time>2026-04-06T14:16:00.984Z</time></trkpt><trkpt lat="45.4983171" lon="11.0792496"><ele>327.0</ele><time>2026-04-06T14:16:01.984Z</time></trkpt><trkpt lat="45.4982013" lon="11.0794003"><ele>327.0</ele><time>2026-04-06T14:16:02.984Z</time></trkpt><trkpt lat="45.4980804" lon="11.0795669"><ele>327.0</ele><time>2026-04-06T14:16:03.984Z</time></trkpt><trkpt lat="45.4979798" lon="11.0796824"><ele>327.0</ele><time>2026-04-06T14:16:04.984Z</time></trkpt><trkpt lat="45.4978759" lon="11.0798005"><ele>327.0</ele><time>2026-04-06T14:16:05.983Z</time></trkpt><trkpt lat="45.4977771" lon="11.0799167"><ele>327.0</ele><time>2026-04-06T14:16:06.984Z</time></trkpt><trkpt lat="45.4976826" lon="11.0800297"><ele>325.0</ele><time>2026-04-06T14:16:07.984Z</time></trkpt><trkpt lat="45.4975873" lon="11.0801429"><ele>323.0</ele><time>2026-04-06T14:16:08.983Z</time></trkpt><trkpt lat="45.4974884" lon="11.0802659"><ele>321.0</ele><time>2026-04-06T14:16:09.984Z</time></trkpt><trkpt lat="45.4973944" lon="11.0803897"><ele>319.0</ele><time>2026-04-06T14:16:10.983Z</time></trkpt><trkpt lat="45.4973099" lon="11.0805047"><ele>319.0</ele><time>2026-04-06T14:16:11.984Z</time></trkpt><trkpt lat="45.4972339" lon="11.0806237"><ele>319.0</ele><time>2026-04-06T14:16:12.984Z</time></trkpt><trkpt lat="45.497174" lon="11.080753"><ele>319.0</ele><time>2026-04-06T14:16:13.984Z</time></trkpt><trkpt lat="45.4971252" lon="11.0808907"><ele>319.0</ele><time>2026-04-06T14:16:14.984Z</time></trkpt><trkpt lat="45.49709" lon="11.0810337"><ele>319.0</ele><time>2026-04-06T14:16:15.984Z</time></trkpt><trkpt lat="45.4970556" lon="11.0811786"><ele>316.8</ele><time>2026-04-06T14:16:16.984Z</time></trkpt><trkpt lat="45.4970215" lon="11.0813237"><ele>314.59999999999997</ele><time>2026-04-06T14:16:17.984Z</time></trkpt><trkpt lat="45.4969879" lon="11.0814598"><ele>312.4</ele><time>2026-04-06T14:16:18.984Z</time></trkpt><trkpt lat="45.4969458" lon="11.0815811"><ele>310.2</ele><time>2026-04-06T14:16:19.983Z</time></trkpt><trkpt lat="45.4968945" lon="11.0816837"><ele>308.0</ele><time>2026-04-06T14:16:20.983Z</time></trkpt><trkpt lat="45.496823" lon="11.081753"><ele>308.0</ele><time>2026-04-06T14:16:21.984Z</time></trkpt><trkpt lat="45.4967407" lon="11.0817862"><ele>308.0</ele><time>2026-04-06T14:16:22.984Z</time></trkpt><trkpt lat="45.4966504" lon="11.0817746"><ele>308.0</ele><time>2026-04-06T14:16:23.984Z</time></trkpt><trkpt lat="45.4965569" lon="11.0817192"><ele>308.0</ele><time>2026-04-06T14:16:24.984Z</time></trkpt><trkpt lat="45.49645" lon="11.0816147"><ele>308.0</ele><time>2026-04-06T14:16:25.984Z</time></trkpt><trkpt lat="45.496335" lon="11.0814713"><ele>306.33333333333337</ele><time>2026-04-06T14:16:26.983Z</time></trkpt><trkpt lat="45.4962061" lon="11.0812811"><ele>304.6666666666667</ele><time>2026-04-06T14:16:27.985Z</time></trkpt><trkpt lat="45.4960901" lon="11.0810798"><ele>303.0</ele><time>2026-04-06T14:16:28.984Z</time></trkpt><trkpt lat="45.4959754" lon="11.0808875"><ele>299.0</ele><time>2026-04-06T14:16:29.983Z</time></trkpt><trkpt lat="45.4958679" lon="11.0807154"><ele>295.0</ele><time>2026-04-06T14:16:30.985Z</time></trkpt><trkpt lat="45.4957469" lon="11.0805631"><ele>291.0</ele><time>2026-04-06T14:16:31.983Z</time></trkpt><trkpt lat="45.4955922" lon="11.0804287"><ele>291.0</ele><time>2026-04-06T14:16:32.983Z</time></trkpt><trkpt lat="45.4954296" lon="11.0803148"><ele>291.0</ele><time>2026-04-06T14:16:33.984Z</time></trkpt><trkpt lat="45.4952595" lon="11.0802129"><ele>291.0</ele><time>2026-04-06T14:16:34.984Z</time></trkpt><trkpt lat="45.4950993" lon="11.0801171"><ele>289.6666666666667</ele><time>2026-04-06T14:16:35.984Z</time></trkpt><trkpt lat="45.4949461" lon="11.0800396"><ele>288.33333333333337</ele><time>2026-04-06T14:16:36.984Z</time></trkpt><trkpt lat="45.4947825" lon="11.0799964"><ele>287.0</ele><time>2026-04-06T14:16:37.984Z</time></trkpt><trkpt lat="45.4946122" lon="11.0799839"><ele>285.6666666666667</ele><time>2026-04-06T14:16:38.983Z</time></trkpt><trkpt lat="45.4944528" lon="11.0800003"><ele>284.3333333333333</ele><time>2026-04-06T14:16:39.983Z</time></trkpt><trkpt lat="45.494305" lon="11.0800413"><ele>283.0</ele><time>2026-04-06T14:16:40.984Z</time></trkpt><trkpt lat="45.4941737" lon="11.0801139"><ele>283.0</ele><time>2026-04-06T14:16:41.984Z</time></trkpt><trkpt lat="45.494062" lon="11.0801698"><ele>283.0</ele><time>2026-04-06T14:16:42.984Z</time></trkpt><trkpt lat="45.4939678" lon="11.0801949"><ele>283.0</ele><time>2026-04-06T14:16:43.984Z</time></trkpt><trkpt lat="45.4938767" lon="11.0801772"><ele>283.0</ele><time>2026-04-06T14:16:44.985Z</time></trkpt><trkpt lat="45.4938002" lon="11.0801181"><ele>283.0</ele><time>2026-04-06T14:16:45.985Z</time></trkpt><trkpt lat="45.4937549" lon="11.0799947"><ele>282.5</ele><time>2026-04-06T14:16:46.984Z</time></trkpt><trkpt lat="45.4937431" lon="11.0798441"><ele>282.0</ele><time>2026-04-06T14:16:47.984Z</time></trkpt><trkpt lat="45.4937501" lon="11.0796649"><ele>281.5</ele><time>2026-04-06T14:16:48.983Z</time></trkpt><trkpt lat="45.4937521" lon="11.0794775"><ele>281.0</ele><time>2026-04-06T14:16:49.983Z</time></trkpt><trkpt lat="45.493738" lon="11.0793041"><ele>281.0</ele><time>2026-04-06T14:16:50.984Z</time></trkpt><trkpt lat="45.4936948" lon="11.0791526"><ele>281.0</ele><time>2026-04-06T14:16:51.984Z</time></trkpt><trkpt lat="45.4936144" lon="11.0790193"><ele>281.0</ele><time>2026-04-06T14:16:52.984Z</time></trkpt><trkpt lat="45.4935018" lon="11.0788951"><ele>281.0</ele><time>2026-04-06T14:16:53.983Z</time></trkpt><trkpt lat="45.4933566" lon="11.078792"><ele>277.33333333333337</ele><time>2026-04-06T14:16:54.983Z</time></trkpt><trkpt lat="45.4931889" lon="11.0787046"><ele>273.6666666666667</ele><time>2026-04-06T14:16:55.984Z</time></trkpt><trkpt lat="45.492996" lon="11.0786145"><ele>270.0</ele><time>2026-04-06T14:16:56.983Z</time></trkpt><trkpt lat="45.4927965" lon="11.0785216"><ele>270.0</ele><time>2026-04-06T14:16:57.985Z</time></trkpt><trkpt lat="45.4926091" lon="11.078435"><ele>270.0</ele><time>2026-04-06T14:16:58.983Z</time></trkpt><trkpt lat="45.4924266" lon="11.0783534"><ele>270.0</ele><time>2026-04-06T14:16:59.984Z</time></trkpt><trkpt lat="45.4922533" lon="11.0782681"><ele>266.6666666666667</ele><time>2026-04-06T14:17:00.984Z</time></trkpt><trkpt lat="45.4920998" lon="11.0781641"><ele>263.33333333333337</ele><time>2026-04-06T14:17:01.984Z</time></trkpt><trkpt lat="45.4919688" lon="11.0780442"><ele>260.0</ele><time>2026-04-06T14:17:02.984Z</time></trkpt><trkpt lat="45.4918543" lon="11.0779103"><ele>260.0</ele><time>2026-04-06T14:17:03.985Z</time></trkpt><trkpt lat="45.4917563" lon="11.077791"><ele>260.0</ele><time>2026-04-06T14:17:04.984Z</time></trkpt><trkpt lat="45.4916651" lon="11.0776876"><ele>260.0</ele><time>2026-04-06T14:17:05.985Z</time></trkpt><trkpt lat="45.4915738" lon="11.0776336"><ele>260.0</ele><time>2026-04-06T14:17:06.984Z</time></trkpt><trkpt lat="45.4914687" lon="11.0776262"><ele>260.0</ele><time>2026-04-06T14:17:07.983Z</time></trkpt><trkpt lat="45.4913723" lon="11.0776668"><ele>260.0</ele><time>2026-04-06T14:17:08.983Z</time></trkpt><trkpt lat="45.4912915" lon="11.0777504"><ele>260.0</ele><time>2026-04-06T14:17:09.985Z</time></trkpt><trkpt lat="45.4912329" lon="11.0778772"><ele>260.0</ele><time>2026-04-06T14:17:10.983Z</time></trkpt><trkpt lat="45.4911975" lon="11.0780558"><ele>260.0</ele><time>2026-04-06T14:17:11.984Z</time></trkpt><trkpt lat="45.4911764" lon="11.0782746"><ele>258.4</ele><time>2026-04-06T14:17:12.983Z</time></trkpt><trkpt lat="45.4911565" lon="11.078456"><ele>256.8</ele><time>2026-04-06T14:17:13.984Z</time></trkpt><trkpt lat="45.4911223" lon="11.0786093"><ele>255.2</ele><time>2026-04-06T14:17:14.984Z</time></trkpt><trkpt lat="45.4910722" lon="11.0787249"><ele>253.6</ele><time>2026-04-06T14:17:15.985Z</time></trkpt><trkpt lat="45.4909931" lon="11.0788162"><ele>252.0</ele><time>2026-04-06T14:17:16.984Z</time></trkpt><trkpt lat="45.4908771" lon="11.0788995"><ele>252.0</ele><time>2026-04-06T14:17:17.983Z</time></trkpt><trkpt lat="45.4907499" lon="11.0789723"><ele>252.0</ele><time>2026-04-06T14:17:18.983Z</time></trkpt><trkpt lat="45.4906335" lon="11.0790462"><ele>252.0</ele><time>2026-04-06T14:17:19.983Z</time></trkpt><trkpt lat="45.4905337" lon="11.0791138"><ele>252.0</ele><time>2026-04-06T14:17:20.984Z</time></trkpt><trkpt lat="45.4904553" lon="11.0791687"><ele>252.0</ele><time>2026-04-06T14:17:21.984Z</time></trkpt><trkpt lat="45.490392" lon="11.0791883"><ele>252.0</ele><time>2026-04-06T14:17:22.983Z</time></trkpt><trkpt lat="45.4903129" lon="11.0791232"><ele>252.0</ele><time>2026-04-06T14:17:24.984Z</time></trkpt><trkpt lat="45.4903465" lon="11.0789994"><ele>252.0</ele><time>2026-04-06T14:17:26.984Z</time></trkpt><trkpt lat="45.4904248" lon="11.0789253"><ele>252.0</ele><time>2026-04-06T14:17:27.983Z</time></trkpt><trkpt lat="45.4905301" lon="11.0788394"><ele>252.0</ele><time>2026-04-06T14:17:28.984Z</time></trkpt><trkpt lat="45.4906239" lon="11.0787473"><ele>252.0</ele><time>2026-04-06T14:17:29.983Z</time></trkpt><trkpt lat="45.4906985" lon="11.0786595"><ele>252.0</ele><time>2026-04-06T14:17:30.984Z</time></trkpt><trkpt lat="45.4907499" lon="11.0785631"><ele>252.0</ele><time>2026-04-06T14:17:31.983Z</time></trkpt><trkpt lat="45.4907652" lon="11.0784559"><ele>252.0</ele><time>2026-04-06T14:17:32.983Z</time></trkpt><trkpt lat="45.4907557" lon="11.0783437"><ele>252.25</ele><time>2026-04-06T14:17:33.984Z</time></trkpt><trkpt lat="45.490711" lon="11.0782111"><ele>252.5</ele><time>2026-04-06T14:17:34.983Z</time></trkpt><trkpt lat="45.4906462" lon="11.0780662"><ele>252.75</ele><time>2026-04-06T14:17:35.985Z</time></trkpt><trkpt lat="45.4905671" lon="11.0778925"><ele>253.0</ele><time>2026-04-06T14:17:36.984Z</time></trkpt><trkpt lat="45.490472" lon="11.0776839"><ele>245.33333333333331</ele><time>2026-04-06T14:17:37.984Z</time></trkpt><trkpt lat="45.4903776" lon="11.0774756"><ele>237.66666666666669</ele><time>2026-04-06T14:17:38.984Z</time></trkpt><trkpt lat="45.4902907" lon="11.0772739"><ele>230.0</ele><time>2026-04-06T14:17:39.985Z</time></trkpt><trkpt lat="45.4902096" lon="11.0770745"><ele>230.0</ele><time>2026-04-06T14:17:40.984Z</time></trkpt><trkpt lat="45.4901328" lon="11.0768808"><ele>230.0</ele><time>2026-04-06T14:17:41.985Z</time></trkpt><trkpt lat="45.4900636" lon="11.0766992"><ele>230.0</ele><time>2026-04-06T14:17:42.984Z</time></trkpt><trkpt lat="45.4900124" lon="11.0765419"><ele>230.0</ele><time>2026-04-06T14:17:43.983Z</time></trkpt><trkpt lat="45.4899698" lon="11.0763916"><ele>229.50000000000003</ele><time>2026-04-06T14:17:44.984Z</time></trkpt><trkpt lat="45.4899375" lon="11.0762502"><ele>229.0</ele><time>2026-04-06T14:17:45.983Z</time></trkpt><trkpt lat="45.4899071" lon="11.0761224"><ele>228.5</ele><time>2026-04-06T14:17:46.984Z</time></trkpt><trkpt lat="45.4898792" lon="11.0760047"><ele>228.0</ele><time>2026-04-06T14:17:47.984Z</time></trkpt><trkpt lat="45.4898579" lon="11.0758939"><ele>227.50000000000003</ele><time>2026-04-06T14:17:48.984Z</time></trkpt><trkpt lat="45.4898457" lon="11.0757826"><ele>227.0</ele><time>2026-04-06T14:17:49.984Z</time></trkpt><trkpt lat="45.4898592" lon="11.0756885"><ele>224.83333333333334</ele><time>2026-04-06T14:17:50.984Z</time></trkpt><trkpt lat="45.4898921" lon="11.0756082"><ele>222.66666666666669</ele><time>2026-04-06T14:17:51.983Z</time></trkpt><trkpt lat="45.4899487" lon="11.0755456"><ele>220.5</ele><time>2026-04-06T14:17:52.976Z</time></trkpt><trkpt lat="45.4900182" lon="11.0755099"><ele>218.33333333333331</ele><time>2026-04-06T14:17:53.983Z</time></trkpt><trkpt lat="45.4901138" lon="11.0754925"><ele>216.16666666666666</ele><time>2026-04-06T14:17:54.984Z</time></trkpt><trkpt lat="45.4902094" lon="11.0754824"><ele>214.0</ele><time>2026-04-06T14:17:55.985Z</time></trkpt><trkpt lat="45.4902966" lon="11.0754693"><ele>214.00000000000003</ele><time>2026-04-06T14:17:56.985Z</time></trkpt><trkpt lat="45.4903798" lon="11.0754536"><ele>214.0</ele><time>2026-04-06T14:17:57.985Z</time></trkpt><trkpt lat="45.4904552" lon="11.0754405"><ele>214.0</ele><time>2026-04-06T14:17:58.984Z</time></trkpt><trkpt lat="45.490529" lon="11.0754305"><ele>214.0</ele><time>2026-04-06T14:17:59.984Z</time></trkpt><trkpt lat="45.4906017" lon="11.0754176"><ele>214.0</ele><time>2026-04-06T14:18:00.984Z</time></trkpt><trkpt lat="45.4906711" lon="11.0754041"><ele>214.00000000000003</ele><time>2026-04-06T14:18:01.984Z</time></trkpt><trkpt lat="45.4907347" lon="11.0753869"><ele>214.0</ele><time>2026-04-06T14:18:02.984Z</time></trkpt><trkpt lat="45.4908202" lon="11.075296"><ele>214.0</ele><time>2026-04-06T14:18:04.984Z</time></trkpt><trkpt lat="45.4908114" lon="11.075158"><ele>213.99999999999997</ele><time>2026-04-06T14:18:06.984Z</time></trkpt><trkpt lat="45.4907044" lon="11.0751062"><ele>213.99999999999997</ele><time>2026-04-06T14:18:08.983Z</time></trkpt><trkpt lat="45.4906302" lon="11.0751217"><ele>214.0</ele><time>2026-04-06T14:18:09.983Z</time></trkpt><trkpt lat="45.4905278" lon="11.0751582"><ele>214.0</ele><time>2026-04-06T14:18:10.984Z</time></trkpt><trkpt lat="45.4904205" lon="11.0751846"><ele>214.0</ele><time>2026-04-06T14:18:11.984Z</time></trkpt><trkpt lat="45.4902985" lon="11.0751827"><ele>214.0</ele><time>2026-04-06T14:18:12.984Z</time></trkpt><trkpt lat="45.4901717" lon="11.0751405"><ele>214.0</ele><time>2026-04-06T14:18:13.984Z</time></trkpt><trkpt lat="45.4900455" lon="11.0750639"><ele>214.0</ele><time>2026-04-06T14:18:14.983Z</time></trkpt><trkpt lat="45.4899169" lon="11.0749743"><ele>209.5</ele><time>2026-04-06T14:18:15.983Z</time></trkpt><trkpt lat="45.4897845" lon="11.0748701"><ele>205.0</ele><time>2026-04-06T14:18:16.984Z</time></trkpt><trkpt lat="45.4896536" lon="11.0747732"><ele>200.5</ele><time>2026-04-06T14:18:17.985Z</time></trkpt><trkpt lat="45.4895233" lon="11.0746755"><ele>196.0</ele><time>2026-04-06T14:18:18.985Z</time></trkpt><trkpt lat="45.4893981" lon="11.0745761"><ele>195.25</ele><time>2026-04-06T14:18:19.984Z</time></trkpt><trkpt lat="45.4892722" lon="11.0744812"><ele>194.5</ele><time>2026-04-06T14:18:20.984Z</time></trkpt><trkpt lat="45.4891485" lon="11.0743888"><ele>193.75</ele><time>2026-04-06T14:18:21.983Z</time></trkpt><trkpt lat="45.4890277" lon="11.0742936"><ele>193.0</ele><time>2026-04-06T14:18:22.983Z</time></trkpt><trkpt lat="45.4889051" lon="11.0742032"><ele>193.0</ele><time>2026-04-06T14:18:23.984Z</time></trkpt><trkpt lat="45.4887859" lon="11.0741132"><ele>193.0</ele><time>2026-04-06T14:18:24.985Z</time></trkpt><trkpt lat="45.4886732" lon="11.0740235"><ele>193.0</ele><time>2026-04-06T14:18:25.984Z</time></trkpt><trkpt lat="45.488567" lon="11.0739279"><ele>193.0</ele><time>2026-04-06T14:18:26.984Z</time></trkpt><trkpt lat="45.4884685" lon="11.0738245"><ele>191.25</ele><time>2026-04-06T14:18:27.985Z</time></trkpt><trkpt lat="45.4883782" lon="11.0737094"><ele>189.5</ele><time>2026-04-06T14:18:28.983Z</time></trkpt><trkpt lat="45.4882899" lon="11.0735905"><ele>187.75</ele><time>2026-04-06T14:18:29.984Z</time></trkpt><trkpt lat="45.4881985" lon="11.0734555"><ele>186.0</ele><time>2026-04-06T14:18:30.983Z</time></trkpt><trkpt lat="45.4881086" lon="11.0733211"><ele>183.75</ele><time>2026-04-06T14:18:31.984Z</time></trkpt><trkpt lat="45.488021" lon="11.073187"><ele>181.5</ele><time>2026-04-06T14:18:32.984Z</time></trkpt><trkpt lat="45.4879339" lon="11.0730539"><ele>179.25</ele><time>2026-04-06T14:18:33.983Z</time></trkpt><trkpt lat="45.4878464" lon="11.0729278"><ele>177.0</ele><time>2026-04-06T14:18:34.983Z</time></trkpt><trkpt lat="45.4877564" lon="11.0728069"><ele>177.0</ele><time>2026-04-06T14:18:35.984Z</time></trkpt><trkpt lat="45.487658" lon="11.0726935"><ele>177.0</ele><time>2026-04-06T14:18:36.984Z</time></trkpt><trkpt lat="45.4875458" lon="11.0725915"><ele>177.0</ele><time>2026-04-06T14:18:37.984Z</time></trkpt><trkpt lat="45.4874301" lon="11.0724924"><ele>177.0</ele><time>2026-04-06T14:18:38.984Z</time></trkpt><trkpt lat="45.4873086" lon="11.0723939"><ele>174.5</ele><time>2026-04-06T14:18:39.983Z</time></trkpt><trkpt lat="45.4871859" lon="11.0722931"><ele>172.0</ele><time>2026-04-06T14:18:40.984Z</time></trkpt><trkpt lat="45.4870641" lon="11.0721913"><ele>169.5</ele><time>2026-04-06T14:18:41.983Z</time></trkpt><trkpt lat="45.4869439" lon="11.0720839"><ele>167.0</ele><time>2026-04-06T14:18:42.985Z</time></trkpt><trkpt lat="45.4868294" lon="11.0719689"><ele>167.0</ele><time>2026-04-06T14:18:43.984Z</time></trkpt><trkpt lat="45.4867179" lon="11.0718484"><ele>167.0</ele><time>2026-04-06T14:18:44.984Z</time></trkpt><trkpt lat="45.4865964" lon="11.0717113"><ele>167.0</ele><time>2026-04-06T14:18:45.985Z</time></trkpt><trkpt lat="45.4864603" lon="11.0715518"><ele>164.66666666666666</ele><time>2026-04-06T14:18:46.985Z</time></trkpt><trkpt lat="45.4863165" lon="11.0713847"><ele>162.33333333333334</ele><time>2026-04-06T14:18:47.983Z</time></trkpt><trkpt lat="45.4861581" lon="11.0712015"><ele>160.0</ele><time>2026-04-06T14:18:48.984Z</time></trkpt><trkpt lat="45.4859963" lon="11.071016"><ele>160.0</ele><time>2026-04-06T14:18:49.985Z</time></trkpt><trkpt lat="45.4858406" lon="11.070835"><ele>160.0</ele><time>2026-04-06T14:18:50.983Z</time></trkpt><trkpt lat="45.485687" lon="11.0706551"><ele>160.0</ele><time>2026-04-06T14:18:51.984Z</time></trkpt><trkpt lat="45.4855375" lon="11.0704778"><ele>158.0</ele><time>2026-04-06T14:18:52.984Z</time></trkpt><trkpt lat="45.4853916" lon="11.0703039"><ele>156.0</ele><time>2026-04-06T14:18:53.984Z</time></trkpt><trkpt lat="45.4852481" lon="11.070133"><ele>154.0</ele><time>2026-04-06T14:18:54.985Z</time></trkpt><trkpt lat="45.4851058" lon="11.0699685"><ele>155.0</ele><time>2026-04-06T14:18:55.983Z</time></trkpt><trkpt lat="45.4849622" lon="11.0698159"><ele>156.0</ele><time>2026-04-06T14:18:56.984Z</time></trkpt><trkpt lat="45.48481" lon="11.0696762"><ele>157.0</ele><time>2026-04-06T14:18:57.984Z</time></trkpt><trkpt lat="45.484655" lon="11.069546"><ele>154.66666666666669</ele><time>2026-04-06T14:18:58.983Z</time></trkpt><trkpt lat="45.4845039" lon="11.0694246"><ele>152.33333333333334</ele><time>2026-04-06T14:18:59.984Z</time></trkpt><trkpt lat="45.4843563" lon="11.0693178"><ele>150.0</ele><time>2026-04-06T14:19:00.983Z</time></trkpt><trkpt lat="45.4842149" lon="11.0692171"><ele>152.0</ele><time>2026-04-06T14:19:01.985Z</time></trkpt><trkpt lat="45.4840794" lon="11.0691084"><ele>154.0</ele><time>2026-04-06T14:19:02.983Z</time></trkpt><trkpt lat="45.4839487" lon="11.0689961"><ele>156.0</ele><time>2026-04-06T14:19:03.984Z</time></trkpt><trkpt lat="45.4838235" lon="11.0688845"><ele>152.5</ele><time>2026-04-06T14:19:04.983Z</time></trkpt><trkpt lat="45.4837009" lon="11.0687735"><ele>149.0</ele><time>2026-04-06T14:19:05.984Z</time></trkpt><trkpt lat="45.4835811" lon="11.0686637"><ele>145.5</ele><time>2026-04-06T14:19:06.983Z</time></trkpt><trkpt lat="45.4834651" lon="11.0685496"><ele>142.0</ele><time>2026-04-06T14:19:07.983Z</time></trkpt><trkpt lat="45.4833564" lon="11.0684294"><ele>142.0</ele><time>2026-04-06T14:19:08.984Z</time></trkpt><trkpt lat="45.4832569" lon="11.0683007"><ele>142.0</ele><time>2026-04-06T14:19:09.985Z</time></trkpt><trkpt lat="45.4831688" lon="11.06816"><ele>142.0</ele><time>2026-04-06T14:19:10.984Z</time></trkpt><trkpt lat="45.4830903" lon="11.068011"><ele>142.0</ele><time>2026-04-06T14:19:11.984Z</time></trkpt><trkpt lat="45.4830232" lon="11.0678605"><ele>142.4</ele><time>2026-04-06T14:19:12.985Z</time></trkpt><trkpt lat="45.4829647" lon="11.0677192"><ele>142.79999999999998</ele><time>2026-04-06T14:19:13.983Z</time></trkpt><trkpt lat="45.4829114" lon="11.0675906"><ele>143.2</ele><time>2026-04-06T14:19:14.985Z</time></trkpt><trkpt lat="45.4828674" lon="11.0674842"><ele>143.6</ele><time>2026-04-06T14:19:15.984Z</time></trkpt><trkpt lat="45.4828272" lon="11.0673996"><ele>144.0</ele><time>2026-04-06T14:19:16.984Z</time></trkpt><trkpt lat="45.4827334" lon="11.0673184"><ele>140.2</ele><time>2026-04-06T14:19:18.983Z</time></trkpt><trkpt lat="45.4826544" lon="11.0673746"><ele>136.4</ele><time>2026-04-06T14:19:20.984Z</time></trkpt><trkpt lat="45.482648" lon="11.0675586"><ele>132.6</ele><time>2026-04-06T14:19:22.984Z</time></trkpt><trkpt lat="45.4826772" lon="11.0676982"><ele>128.8</ele><time>2026-04-06T14:19:23.983Z</time></trkpt><trkpt lat="45.4827263" lon="11.0678472"><ele>125.0</ele><time>2026-04-06T14:19:24.984Z</time></trkpt><trkpt lat="45.4827922" lon="11.0680255"><ele>125.0</ele><time>2026-04-06T14:19:25.984Z</time></trkpt><trkpt lat="45.4828654" lon="11.068246"><ele>125.0</ele><time>2026-04-06T14:19:26.984Z</time></trkpt><trkpt lat="45.4829406" lon="11.0684763"><ele>125.0</ele><time>2026-04-06T14:19:27.984Z</time></trkpt><trkpt lat="45.4830065" lon="11.0686777"><ele>126.5</ele><time>2026-04-06T14:19:28.983Z</time></trkpt><trkpt lat="45.4830633" lon="11.0688546"><ele>128.0</ele><time>2026-04-06T14:19:29.985Z</time></trkpt><trkpt lat="45.4831091" lon="11.0690064"><ele>129.5</ele><time>2026-04-06T14:19:30.983Z</time></trkpt><trkpt lat="45.4831493" lon="11.0691448"><ele>131.0</ele><time>2026-04-06T14:19:31.984Z</time></trkpt><trkpt lat="45.4831952" lon="11.0692677"><ele>131.0</ele><time>2026-04-06T14:19:32.983Z</time></trkpt><trkpt lat="45.483251" lon="11.0693621"><ele>131.0</ele><time>2026-04-06T14:19:33.985Z</time></trkpt><trkpt lat="45.4833123" lon="11.0694365"><ele>131.0</ele><time>2026-04-06T14:19:34.983Z</time></trkpt><trkpt lat="45.4833658" lon="11.0694952"><ele>131.0</ele><time>2026-04-06T14:19:35.984Z</time></trkpt><trkpt lat="45.483435" lon="11.0695882"><ele>131.0</ele><time>2026-04-06T14:19:37.983Z</time></trkpt><trkpt lat="45.4834558" lon="11.0696833"><ele>131.0</ele><time>2026-04-06T14:19:39.983Z</time></trkpt><trkpt lat="45.4833715" lon="11.069739"><ele>131.0</ele><time>2026-04-06T14:19:42.983Z</time></trkpt><trkpt lat="45.4832224" lon="11.0696318"><ele>131.0</ele><time>2026-04-06T14:19:44.983Z</time></trkpt><trkpt lat="45.4831257" lon="11.0695374"><ele>131.0</ele><time>2026-04-06T14:19:45.984Z</time></trkpt><trkpt lat="45.4830108" lon="11.0694256"><ele>131.0</ele><time>2026-04-06T14:19:46.983Z</time></trkpt><trkpt lat="45.4828898" lon="11.0693023"><ele>127.33333333333333</ele><time>2026-04-06T14:19:47.983Z</time></trkpt><trkpt lat="45.4827745" lon="11.0691771"><ele>123.66666666666666</ele><time>2026-04-06T14:19:48.983Z</time></trkpt><trkpt lat="45.482647" lon="11.0690302"><ele>120.0</ele><time>2026-04-06T14:19:49.983Z</time></trkpt><trkpt lat="45.482511" lon="11.0688583"><ele>120.0</ele><time>2026-04-06T14:19:50.983Z</time></trkpt><trkpt lat="45.4823837" lon="11.0686856"><ele>120.0</ele><time>2026-04-06T14:19:51.984Z</time></trkpt><trkpt lat="45.4822649" lon="11.0685188"><ele>120.0</ele><time>2026-04-06T14:19:52.983Z</time></trkpt><trkpt lat="45.482161" lon="11.0683687"><ele>116.25</ele><time>2026-04-06T14:19:53.983Z</time></trkpt><trkpt lat="45.4820673" lon="11.0682289"><ele>112.5</ele><time>2026-04-06T14:19:54.984Z</time></trkpt><trkpt lat="45.4819806" lon="11.0681053"><ele>108.75</ele><time>2026-04-06T14:19:55.984Z</time></trkpt><trkpt lat="45.4818912" lon="11.0680098"><ele>105.0</ele><time>2026-04-06T14:19:56.983Z</time></trkpt><trkpt lat="45.4817933" lon="11.0679435"><ele>105.0</ele><time>2026-04-06T14:19:57.984Z</time></trkpt><trkpt lat="45.4816781" lon="11.0678885"><ele>105.0</ele><time>2026-04-06T14:19:58.983Z</time></trkpt><trkpt lat="45.481528" lon="11.067852"><ele>105.0</ele><time>2026-04-06T14:19:59.984Z</time></trkpt><trkpt lat="45.4813433" lon="11.0678227"><ele>102.33333333333334</ele><time>2026-04-06T14:20:00.983Z</time></trkpt><trkpt lat="45.4811553" lon="11.0677857"><ele>99.66666666666667</ele><time>2026-04-06T14:20:01.983Z</time></trkpt><trkpt lat="45.4809673" lon="11.0677433"><ele>97.0</ele><time>2026-04-06T14:20:02.985Z</time></trkpt><trkpt lat="45.4807881" lon="11.067705"><ele>97.0</ele><time>2026-04-06T14:20:03.983Z</time></trkpt><trkpt lat="45.4806234" lon="11.0676725"><ele>97.0</ele><time>2026-04-06T14:20:04.984Z</time></trkpt><trkpt lat="45.4804732" lon="11.0676423"><ele>97.0</ele><time>2026-04-06T14:20:05.984Z</time></trkpt><trkpt lat="45.4803287" lon="11.0676153"><ele>96.33333333333334</ele><time>2026-04-06T14:20:06.983Z</time></trkpt><trkpt lat="45.4801888" lon="11.0675896"><ele>95.66666666666667</ele><time>2026-04-06T14:20:07.983Z</time></trkpt><trkpt lat="45.4800297" lon="11.0675672"><ele>95.0</ele><time>2026-04-06T14:20:08.985Z</time></trkpt><trkpt lat="45.4798481" lon="11.0675528"><ele>95.0</ele><time>2026-04-06T14:20:09.984Z</time></trkpt><trkpt lat="45.4796553" lon="11.0675293"><ele>95.0</ele><time>2026-04-06T14:20:10.985Z</time></trkpt><trkpt lat="45.4794485" lon="11.0674875"><ele>95.0</ele><time>2026-04-06T14:20:11.983Z</time></trkpt><trkpt lat="45.4792625" lon="11.0674423"><ele>94.0</ele><time>2026-04-06T14:20:12.983Z</time></trkpt><trkpt lat="45.4791052" lon="11.067389"><ele>93.0</ele><time>2026-04-06T14:20:13.983Z</time></trkpt><trkpt lat="45.4789594" lon="11.0673066"><ele>92.0</ele><time>2026-04-06T14:20:14.984Z</time></trkpt><trkpt lat="45.4788315" lon="11.0671901"><ele>91.75</ele><time>2026-04-06T14:20:15.984Z</time></trkpt><trkpt lat="45.4787324" lon="11.0670495"><ele>91.5</ele><time>2026-04-06T14:20:16.984Z</time></trkpt><trkpt lat="45.4786543" lon="11.0668808"><ele>91.25</ele><time>2026-04-06T14:20:17.983Z</time></trkpt><trkpt lat="45.4785999" lon="11.0666796"><ele>91.0</ele><time>2026-04-06T14:20:18.985Z</time></trkpt><trkpt lat="45.4785605" lon="11.0664262"><ele>90.33333333333333</ele><time>2026-04-06T14:20:19.984Z</time></trkpt><trkpt lat="45.4785273" lon="11.0661265"><ele>89.66666666666667</ele><time>2026-04-06T14:20:20.984Z</time></trkpt><trkpt lat="45.4784926" lon="11.0658095"><ele>89.0</ele><time>2026-04-06T14:20:21.984Z</time></trkpt><trkpt lat="45.478457" lon="11.0654612"><ele>88.5</ele><time>2026-04-06T14:20:22.985Z</time></trkpt><trkpt lat="45.4784206" lon="11.0651087"><ele>88.0</ele><time>2026-04-06T14:20:23.983Z</time></trkpt><trkpt lat="45.4783808" lon="11.064726"><ele>88.0</ele><time>2026-04-06T14:20:24.985Z</time></trkpt><trkpt lat="45.4783456" lon="11.064359"><ele>88.0</ele><time>2026-04-06T14:20:25.983Z</time></trkpt><trkpt lat="45.4783162" lon="11.0640086"><ele>87.5</ele><time>2026-04-06T14:20:26.984Z</time></trkpt><trkpt lat="45.4782901" lon="11.0636668"><ele>87.0</ele><time>2026-04-06T14:20:27.984Z</time></trkpt><trkpt lat="45.4782694" lon="11.0633261"><ele>87.0</ele><time>2026-04-06T14:20:28.985Z</time></trkpt><trkpt lat="45.4782512" lon="11.0629921"><ele>87.0</ele><time>2026-04-06T14:20:29.984Z</time></trkpt><trkpt lat="45.478231" lon="11.0626802"><ele>87.33333333333333</ele><time>2026-04-06T14:20:30.984Z</time></trkpt><trkpt lat="45.4782126" lon="11.0624081"><ele>87.66666666666666</ele><time>2026-04-06T14:20:31.985Z</time></trkpt><trkpt lat="45.4781902" lon="11.0621666"><ele>88.0</ele><time>2026-04-06T14:20:32.984Z</time></trkpt><trkpt lat="45.4781491" lon="11.0619547"><ele>88.0</ele><time>2026-04-06T14:20:33.984Z</time></trkpt><trkpt lat="45.478075" lon="11.061757"><ele>88.0</ele><time>2026-04-06T14:20:34.984Z</time></trkpt><trkpt lat="45.4779684" lon="11.061573"><ele>88.0</ele><time>2026-04-06T14:20:35.984Z</time></trkpt><trkpt lat="45.4778366" lon="11.0614035"><ele>87.66666666666666</ele><time>2026-04-06T14:20:36.983Z</time></trkpt><trkpt lat="45.4776787" lon="11.0612604"><ele>87.33333333333333</ele><time>2026-04-06T14:20:37.983Z</time></trkpt><trkpt lat="45.4774983" lon="11.0611376"><ele>87.0</ele><time>2026-04-06T14:20:38.983Z</time></trkpt><trkpt lat="45.4772878" lon="11.0610434"><ele>86.0</ele><time>2026-04-06T14:20:39.984Z</time></trkpt><trkpt lat="45.477065" lon="11.0609475"><ele>85.0</ele><time>2026-04-06T14:20:40.983Z</time></trkpt><trkpt lat="45.4768447" lon="11.06085"><ele>84.5</ele><time>2026-04-06T14:20:41.983Z</time></trkpt><trkpt lat="45.4766279" lon="11.0607561"><ele>84.0</ele><time>2026-04-06T14:20:42.982Z</time></trkpt><trkpt lat="45.4764052" lon="11.0606655"><ele>83.66666666666667</ele><time>2026-04-06T14:20:43.982Z</time></trkpt><trkpt lat="45.4761949" lon="11.060591"><ele>83.33333333333334</ele><time>2026-04-06T14:20:44.982Z</time></trkpt><trkpt lat="45.4759904" lon="11.0605279"><ele>83.0</ele><time>2026-04-06T14:20:45.983Z</time></trkpt><trkpt lat="45.475794" lon="11.0604774"><ele>83.0</ele><time>2026-04-06T14:20:46.983Z</time></trkpt><trkpt lat="45.4756038" lon="11.0604441"><ele>83.0</ele><time>2026-04-06T14:20:47.983Z</time></trkpt><trkpt lat="45.4754137" lon="11.0604187"><ele>83.0</ele><time>2026-04-06T14:20:48.982Z</time></trkpt><trkpt lat="45.475225" lon="11.0603955"><ele>82.66666666666667</ele><time>2026-04-06T14:20:49.982Z</time></trkpt><trkpt lat="45.4750414" lon="11.0603762"><ele>82.33333333333333</ele><time>2026-04-06T14:20:50.983Z</time></trkpt><trkpt lat="45.4748609" lon="11.0603551"><ele>82.0</ele><time>2026-04-06T14:20:51.983Z</time></trkpt><trkpt lat="45.4746739" lon="11.0603351"><ele>80.33333333333333</ele><time>2026-04-06T14:20:52.982Z</time></trkpt><trkpt lat="45.4744818" lon="11.0603204"><ele>78.66666666666667</ele><time>2026-04-06T14:20:53.983Z</time></trkpt><trkpt lat="45.4742875" lon="11.06031"><ele>77.0</ele><time>2026-04-06T14:20:54.983Z</time></trkpt><trkpt lat="45.474096" lon="11.0603012"><ele>77.0</ele><time>2026-04-06T14:20:55.984Z</time></trkpt><trkpt lat="45.4739142" lon="11.0602869"><ele>77.0</ele><time>2026-04-06T14:20:56.982Z</time></trkpt><trkpt lat="45.4737388" lon="11.0602657"><ele>77.0</ele><time>2026-04-06T14:20:57.983Z</time></trkpt><trkpt lat="45.4735714" lon="11.0602437"><ele>76.66666666666667</ele><time>2026-04-06T14:20:58.983Z</time></trkpt><trkpt lat="45.4734093" lon="11.0602284"><ele>76.33333333333333</ele><time>2026-04-06T14:20:59.983Z</time></trkpt><trkpt lat="45.4732468" lon="11.0602361"><ele>76.0</ele><time>2026-04-06T14:21:00.982Z</time></trkpt><trkpt lat="45.4730816" lon="11.060278"><ele>75.33333333333333</ele><time>2026-04-06T14:21:01.983Z</time></trkpt><trkpt lat="45.4729162" lon="11.0603476"><ele>74.66666666666667</ele><time>2026-04-06T14:21:02.983Z</time></trkpt><trkpt lat="45.4727542" lon="11.0604359"><ele>74.0</ele><time>2026-04-06T14:21:03.982Z</time></trkpt><trkpt lat="45.4725798" lon="11.0605524"><ele>74.0</ele><time>2026-04-06T14:21:04.984Z</time></trkpt><trkpt lat="45.4723874" lon="11.060681"><ele>74.0</ele><time>2026-04-06T14:21:05.982Z</time></trkpt><trkpt lat="45.4721765" lon="11.0608205"><ele>74.0</ele><time>2026-04-06T14:21:06.982Z</time></trkpt><trkpt lat="45.4719634" lon="11.0609752"><ele>73.66666666666667</ele><time>2026-04-06T14:21:07.982Z</time></trkpt><trkpt lat="45.4717699" lon="11.0611257"><ele>73.33333333333333</ele><time>2026-04-06T14:21:08.982Z</time></trkpt><trkpt lat="45.4715805" lon="11.0612642"><ele>73.0</ele><time>2026-04-06T14:21:09.983Z</time></trkpt><trkpt lat="45.4713935" lon="11.0613754"><ele>72.66666666666666</ele><time>2026-04-06T14:21:10.984Z</time></trkpt><trkpt lat="45.4712011" lon="11.0614654"><ele>72.33333333333333</ele><time>2026-04-06T14:21:11.982Z</time></trkpt><trkpt lat="45.4710016" lon="11.0615445"><ele>72.0</ele><time>2026-04-06T14:21:12.983Z</time></trkpt><trkpt lat="45.470799" lon="11.061618"><ele>72.0</ele><time>2026-04-06T14:21:13.982Z</time></trkpt><trkpt lat="45.4706027" lon="11.0616784"><ele>72.0</ele><time>2026-04-06T14:21:14.984Z</time></trkpt><trkpt lat="45.4704099" lon="11.0617279"><ele>72.0</ele><time>2026-04-06T14:21:15.983Z</time></trkpt><trkpt lat="45.470211" lon="11.0617715"><ele>72.0</ele><time>2026-04-06T14:21:16.982Z</time></trkpt><trkpt lat="45.4700086" lon="11.0618058"><ele>72.0</ele><time>2026-04-06T14:21:17.983Z</time></trkpt><trkpt lat="45.4698005" lon="11.0618265"><ele>72.0</ele><time>2026-04-06T14:21:18.983Z</time></trkpt><trkpt lat="45.4695797" lon="11.0618265"><ele>71.0</ele><time>2026-04-06T14:21:19.982Z</time></trkpt><trkpt lat="45.4693476" lon="11.0618113"><ele>70.0</ele><time>2026-04-06T14:21:20.983Z</time></trkpt><trkpt lat="45.4691192" lon="11.061796"><ele>70.0</ele><time>2026-04-06T14:21:21.983Z</time></trkpt><trkpt lat="45.4688883" lon="11.0617809"><ele>70.0</ele><time>2026-04-06T14:21:22.982Z</time></trkpt><trkpt lat="45.4686543" lon="11.0617667"><ele>69.5</ele><time>2026-04-06T14:21:23.983Z</time></trkpt><trkpt lat="45.468424" lon="11.0617553"><ele>69.0</ele><time>2026-04-06T14:21:24.983Z</time></trkpt><trkpt lat="45.4681993" lon="11.0617523"><ele>69.0</ele><time>2026-04-06T14:21:25.983Z</time></trkpt><trkpt lat="45.4679873" lon="11.061761"><ele>69.0</ele><time>2026-04-06T14:21:26.982Z</time></trkpt><trkpt lat="45.4677812" lon="11.0617816"><ele>69.0</ele><time>2026-04-06T14:21:27.983Z</time></trkpt><trkpt lat="45.4675784" lon="11.061809"><ele>68.66666666666667</ele><time>2026-04-06T14:21:28.982Z</time></trkpt><trkpt lat="45.4673779" lon="11.0618386"><ele>68.33333333333334</ele><time>2026-04-06T14:21:29.982Z</time></trkpt><trkpt lat="45.4671802" lon="11.0618703"><ele>68.0</ele><time>2026-04-06T14:21:30.983Z</time></trkpt><trkpt lat="45.4669844" lon="11.0619063"><ele>67.33333333333334</ele><time>2026-04-06T14:21:31.982Z</time></trkpt><trkpt lat="45.4667885" lon="11.061942"><ele>66.66666666666667</ele><time>2026-04-06T14:21:32.984Z</time></trkpt><trkpt lat="45.4665885" lon="11.0619767"><ele>66.0</ele><time>2026-04-06T14:21:33.982Z</time></trkpt><trkpt lat="45.4663828" lon="11.0620159"><ele>66.0</ele><time>2026-04-06T14:21:34.982Z</time></trkpt><trkpt lat="45.4661739" lon="11.0620611"><ele>66.0</ele><time>2026-04-06T14:21:35.983Z</time></trkpt><trkpt lat="45.4659771" lon="11.0621129"><ele>66.0</ele><time>2026-04-06T14:21:36.983Z</time></trkpt><trkpt lat="45.4657925" lon="11.0621827"><ele>66.0</ele><time>2026-04-06T14:21:37.982Z</time></trkpt><trkpt lat="45.4656202" lon="11.0622607"><ele>66.0</ele><time>2026-04-06T14:21:38.984Z</time></trkpt><trkpt lat="45.4654586" lon="11.0623394"><ele>66.0</ele><time>2026-04-06T14:21:39.984Z</time></trkpt><trkpt lat="45.4653013" lon="11.0624011"><ele>65.33333333333333</ele><time>2026-04-06T14:21:40.982Z</time></trkpt><trkpt lat="45.4651419" lon="11.0624389"><ele>64.66666666666666</ele><time>2026-04-06T14:21:41.984Z</time></trkpt><trkpt lat="45.4649848" lon="11.0624465"><ele>64.0</ele><time>2026-04-06T14:21:42.983Z</time></trkpt><trkpt lat="45.4648274" lon="11.0624122"><ele>64.0</ele><time>2026-04-06T14:21:43.983Z</time></trkpt><trkpt lat="45.4646795" lon="11.0623413"><ele>64.0</ele><time>2026-04-06T14:21:44.982Z</time></trkpt><trkpt lat="45.46453" lon="11.0622349"><ele>64.0</ele><time>2026-04-06T14:21:45.982Z</time></trkpt><trkpt lat="45.4643738" lon="11.0621041"><ele>63.0</ele><time>2026-04-06T14:21:46.983Z</time></trkpt><trkpt lat="45.4642044" lon="11.0619541"><ele>62.0</ele><time>2026-04-06T14:21:47.983Z</time></trkpt><trkpt lat="45.4640212" lon="11.0617925"><ele>61.0</ele><time>2026-04-06T14:21:48.982Z</time></trkpt><trkpt lat="45.4638201" lon="11.0616182"><ele>59.5</ele><time>2026-04-06T14:21:49.983Z</time></trkpt><trkpt lat="45.4636169" lon="11.0614407"><ele>58.0</ele><time>2026-04-06T14:21:50.982Z</time></trkpt><trkpt lat="45.4634269" lon="11.0612695"><ele>58.0</ele><time>2026-04-06T14:21:51.982Z</time></trkpt><trkpt lat="45.4632448" lon="11.0611041"><ele>58.0</ele><time>2026-04-06T14:21:52.983Z</time></trkpt><trkpt lat="45.4630691" lon="11.0609472"><ele>58.0</ele><time>2026-04-06T14:21:53.982Z</time></trkpt><trkpt lat="45.4629004" lon="11.0607958"><ele>57.666666666666664</ele><time>2026-04-06T14:21:54.982Z</time></trkpt><trkpt lat="45.4627336" lon="11.0606442"><ele>57.33333333333333</ele><time>2026-04-06T14:21:55.983Z</time></trkpt><trkpt lat="45.4625619" lon="11.0604952"><ele>57.0</ele><time>2026-04-06T14:21:56.983Z</time></trkpt><trkpt lat="45.4623885" lon="11.0603719"><ele>57.0</ele><time>2026-04-06T14:21:57.983Z</time></trkpt><trkpt lat="45.4622007" lon="11.06026"><ele>57.0</ele><time>2026-04-06T14:21:58.982Z</time></trkpt><trkpt lat="45.4620017" lon="11.0601558"><ele>57.0</ele><time>2026-04-06T14:21:59.983Z</time></trkpt><trkpt lat="45.4617996" lon="11.0600694"><ele>56.33333333333333</ele><time>2026-04-06T14:22:00.982Z</time></trkpt><trkpt lat="45.4615883" lon="11.0599999"><ele>55.666666666666664</ele><time>2026-04-06T14:22:01.983Z</time></trkpt><trkpt lat="45.4613712" lon="11.0599479"><ele>55.0</ele><time>2026-04-06T14:22:02.984Z</time></trkpt><trkpt lat="45.4611497" lon="11.059914"><ele>54.0</ele><time>2026-04-06T14:22:03.983Z</time></trkpt><trkpt lat="45.4609218" lon="11.0598871"><ele>53.0</ele><time>2026-04-06T14:22:04.983Z</time></trkpt><trkpt lat="45.4606846" lon="11.0598602"><ele>53.0</ele><time>2026-04-06T14:22:05.983Z</time></trkpt><trkpt lat="45.4604546" lon="11.0598344"><ele>53.0</ele><time>2026-04-06T14:22:06.984Z</time></trkpt><trkpt lat="45.4602282" lon="11.059813"><ele>53.333333333333336</ele><time>2026-04-06T14:22:07.983Z</time></trkpt><trkpt lat="45.460005" lon="11.0597891"><ele>53.66666666666667</ele><time>2026-04-06T14:22:08.983Z</time></trkpt><trkpt lat="45.4597846" lon="11.0597675"><ele>54.0</ele><time>2026-04-06T14:22:09.983Z</time></trkpt><trkpt lat="45.4595652" lon="11.0597462"><ele>54.5</ele><time>2026-04-06T14:22:10.983Z</time></trkpt><trkpt lat="45.4593438" lon="11.0597238"><ele>55.0</ele><time>2026-04-06T14:22:11.983Z</time></trkpt><trkpt lat="45.45911" lon="11.059701"><ele>55.0</ele><time>2026-04-06T14:22:12.983Z</time></trkpt><trkpt lat="45.4588907" lon="11.0596822"><ele>55.0</ele><time>2026-04-06T14:22:13.983Z</time></trkpt><trkpt lat="45.458668" lon="11.0596632"><ele>55.0</ele><time>2026-04-06T14:22:14.984Z</time></trkpt><trkpt lat="45.4584432" lon="11.0596386"><ele>54.5</ele><time>2026-04-06T14:22:15.983Z</time></trkpt><trkpt lat="45.4582146" lon="11.0596157"><ele>54.0</ele><time>2026-04-06T14:22:16.983Z</time></trkpt><trkpt lat="45.4579895" lon="11.0595955"><ele>55.0</ele><time>2026-04-06T14:22:17.982Z</time></trkpt><trkpt lat="45.4577749" lon="11.0595744"><ele>56.0</ele><time>2026-04-06T14:22:18.982Z</time></trkpt><trkpt lat="45.4575628" lon="11.0595508"><ele>57.0</ele><time>2026-04-06T14:22:19.983Z</time></trkpt><trkpt lat="45.4573537" lon="11.0595297"><ele>57.0</ele><time>2026-04-06T14:22:20.982Z</time></trkpt><trkpt lat="45.4571561" lon="11.0595102"><ele>57.0</ele><time>2026-04-06T14:22:21.982Z</time></trkpt><trkpt lat="45.4569727" lon="11.0594896"><ele>57.0</ele><time>2026-04-06T14:22:22.982Z</time></trkpt><trkpt lat="45.4567996" lon="11.0594696"><ele>57.66666666666667</ele><time>2026-04-06T14:22:23.982Z</time></trkpt><trkpt lat="45.4566407" lon="11.0594531"><ele>58.333333333333336</ele><time>2026-04-06T14:22:24.984Z</time></trkpt><trkpt lat="45.4564876" lon="11.0594391"><ele>59.0</ele><time>2026-04-06T14:22:25.982Z</time></trkpt><trkpt lat="45.4563424" lon="11.0594242"><ele>57.75</ele><time>2026-04-06T14:22:26.982Z</time></trkpt><trkpt lat="45.4562054" lon="11.0594016"><ele>56.5</ele><time>2026-04-06T14:22:27.982Z</time></trkpt><trkpt lat="45.4560707" lon="11.0593569"><ele>55.25</ele><time>2026-04-06T14:22:28.982Z</time></trkpt><trkpt lat="45.4559428" lon="11.0592825"><ele>54.0</ele><time>2026-04-06T14:22:29.983Z</time></trkpt><trkpt lat="45.4558282" lon="11.0591833"><ele>54.0</ele><time>2026-04-06T14:22:30.984Z</time></trkpt><trkpt lat="45.4557397" lon="11.0590815"><ele>54.00000000000001</ele><time>2026-04-06T14:22:31.982Z</time></trkpt><trkpt lat="45.4556748" lon="11.0589926"><ele>54.00000000000001</ele><time>2026-04-06T14:22:32.982Z</time></trkpt><trkpt lat="45.4556115" lon="11.0589027"><ele>54.0</ele><time>2026-04-06T14:22:33.983Z</time></trkpt><trkpt lat="45.4555314" lon="11.0588063"><ele>54.0</ele><time>2026-04-06T14:22:34.983Z</time></trkpt><trkpt lat="45.4554485" lon="11.0587401"><ele>54.400000000000006</ele><time>2026-04-06T14:22:35.982Z</time></trkpt><trkpt lat="45.4553641" lon="11.0587024"><ele>54.800000000000004</ele><time>2026-04-06T14:22:36.982Z</time></trkpt><trkpt lat="45.455276" lon="11.0587077"><ele>55.199999999999996</ele><time>2026-04-06T14:22:37.983Z</time></trkpt><trkpt lat="45.4551938" lon="11.0587522"><ele>55.599999999999994</ele><time>2026-04-06T14:22:38.983Z</time></trkpt><trkpt lat="45.4551107" lon="11.0588203"><ele>56.0</ele><time>2026-04-06T14:22:39.983Z</time></trkpt><trkpt lat="45.4550192" lon="11.0588508"><ele>56.0</ele><time>2026-04-06T14:22:40.983Z</time></trkpt><trkpt lat="45.4549146" lon="11.0588411"><ele>56.0</ele><time>2026-04-06T14:22:41.983Z</time></trkpt><trkpt lat="45.4547962" lon="11.058798"><ele>56.0</ele><time>2026-04-06T14:22:42.982Z</time></trkpt><trkpt lat="45.4546664" lon="11.0587241"><ele>56.0</ele><time>2026-04-06T14:22:43.983Z</time></trkpt><trkpt lat="45.4545426" lon="11.0586271"><ele>56.0</ele><time>2026-04-06T14:22:44.982Z</time></trkpt><trkpt lat="45.4544185" lon="11.058501"><ele>56.0</ele><time>2026-04-06T14:22:45.984Z</time></trkpt><trkpt lat="45.4542881" lon="11.0583338"><ele>56.0</ele><time>2026-04-06T14:22:46.983Z</time></trkpt><trkpt lat="45.4541746" lon="11.0581476"><ele>56.66666666666667</ele><time>2026-04-06T14:22:47.983Z</time></trkpt><trkpt lat="45.4540693" lon="11.0579398"><ele>57.33333333333333</ele><time>2026-04-06T14:22:48.984Z</time></trkpt><trkpt lat="45.4539734" lon="11.0577245"><ele>58.0</ele><time>2026-04-06T14:22:49.983Z</time></trkpt><trkpt lat="45.4538909" lon="11.057521"><ele>58.33333333333333</ele><time>2026-04-06T14:22:50.982Z</time></trkpt><trkpt lat="45.4538124" lon="11.057312"><ele>58.66666666666667</ele><time>2026-04-06T14:22:51.984Z</time></trkpt><trkpt lat="45.4537346" lon="11.0570963"><ele>59.0</ele><time>2026-04-06T14:22:52.982Z</time></trkpt><trkpt lat="45.453648" lon="11.0568844"><ele>59.0</ele><time>2026-04-06T14:22:53.982Z</time></trkpt><trkpt lat="45.4535646" lon="11.0566835"><ele>59.0</ele><time>2026-04-06T14:22:54.982Z</time></trkpt><trkpt lat="45.4534934" lon="11.0564824"><ele>59.0</ele><time>2026-04-06T14:22:55.983Z</time></trkpt><trkpt lat="45.4534296" lon="11.056277"><ele>59.333333333333336</ele><time>2026-04-06T14:22:56.984Z</time></trkpt><trkpt lat="45.4533693" lon="11.0560712"><ele>59.66666666666667</ele><time>2026-04-06T14:22:57.983Z</time></trkpt><trkpt lat="45.453315" lon="11.0558628"><ele>60.0</ele><time>2026-04-06T14:22:58.982Z</time></trkpt><trkpt lat="45.4532647" lon="11.0556481"><ele>61.33333333333333</ele><time>2026-04-06T14:22:59.984Z</time></trkpt><trkpt lat="45.4532164" lon="11.0554195"><ele>62.666666666666664</ele><time>2026-04-06T14:23:00.984Z</time></trkpt><trkpt lat="45.4531672" lon="11.0551793"><ele>64.0</ele><time>2026-04-06T14:23:01.982Z</time></trkpt><trkpt lat="45.4531201" lon="11.0549267"><ele>64.0</ele><time>2026-04-06T14:23:02.984Z</time></trkpt><trkpt lat="45.453075" lon="11.0546699"><ele>64.0</ele><time>2026-04-06T14:23:03.982Z</time></trkpt><trkpt lat="45.4530271" lon="11.0544098"><ele>64.0</ele><time>2026-04-06T14:23:04.982Z</time></trkpt><trkpt lat="45.4529795" lon="11.0541439"><ele>62.33333333333333</ele><time>2026-04-06T14:23:05.982Z</time></trkpt><trkpt lat="45.4529334" lon="11.053884"><ele>60.66666666666667</ele><time>2026-04-06T14:23:06.983Z</time></trkpt><trkpt lat="45.4528881" lon="11.0536343"><ele>59.0</ele><time>2026-04-06T14:23:07.984Z</time></trkpt><trkpt lat="45.4528427" lon="11.0534033"><ele>58.75</ele><time>2026-04-06T14:23:08.982Z</time></trkpt><trkpt lat="45.4528007" lon="11.0531886"><ele>58.5</ele><time>2026-04-06T14:23:09.982Z</time></trkpt><trkpt lat="45.4527669" lon="11.0530129"><ele>58.25</ele><time>2026-04-06T14:23:10.984Z</time></trkpt><trkpt lat="45.4527346" lon="11.0528436"><ele>58.0</ele><time>2026-04-06T14:23:11.983Z</time></trkpt><trkpt lat="45.4527046" lon="11.0526815"><ele>58.0</ele><time>2026-04-06T14:23:12.982Z</time></trkpt><trkpt lat="45.4526747" lon="11.0525296"><ele>58.0</ele><time>2026-04-06T14:23:13.983Z</time></trkpt><trkpt lat="45.4526462" lon="11.0523971"><ele>58.0</ele><time>2026-04-06T14:23:14.983Z</time></trkpt><trkpt lat="45.4526212" lon="11.052272"><ele>58.0</ele><time>2026-04-06T14:23:15.982Z</time></trkpt><trkpt lat="45.4526014" lon="11.0521701"><ele>58.0</ele><time>2026-04-06T14:23:16.983Z</time></trkpt><trkpt lat="45.4525742" lon="11.0520396"><ele>58.00000000000001</ele><time>2026-04-06T14:23:18.983Z</time></trkpt><trkpt lat="45.452535" lon="11.0519433"><ele>58.0</ele><time>2026-04-06T14:23:30.984Z</time></trkpt><trkpt lat="45.4524603" lon="11.0519319"><ele>58.00000000000001</ele><time>2026-04-06T14:23:32.983Z</time></trkpt><trkpt lat="45.4523921" lon="11.0519737"><ele>58.00000000000001</ele><time>2026-04-06T14:23:34.982Z</time></trkpt><trkpt lat="45.4523348" lon="11.0520313"><ele>58.0</ele><time>2026-04-06T14:23:36.984Z</time></trkpt><trkpt lat="45.4522935" lon="11.0521054"><ele>58.00000000000001</ele><time>2026-04-06T14:23:38.983Z</time></trkpt><trkpt lat="45.4522762" lon="11.0522034"><ele>58.00000000000001</ele><time>2026-04-06T14:23:41.983Z</time></trkpt><trkpt lat="45.4523363" lon="11.0522366"><ele>58.0</ele><time>2026-04-06T14:23:53.984Z</time></trkpt><trkpt lat="45.4523508" lon="11.0521463"><ele>58.0</ele><time>2026-04-06T14:24:16.983Z</time></trkpt></trkseg></trk></gpx>